<?xml version='1.0' encoding='UTF-8'?><gpx version="1.1" creator="JPX - https://github.com/jenetics/jpx" xmlns="http://www.topografix.com/GPX/1/1"><trk><trkseg><trkpt lat="45.43002994495942" lon="11.123333503048508"><ele>131.0</ele><time>2026-04-08T07:08:18.984Z</time></trkpt><trkpt lat="45.429911390362605" lon="11.12326210101375"><ele>131.0</ele><time>2026-04-08T07:08:19.978Z</time></trkpt><trkpt lat="45.429842951889164" lon="11.123081929808897"><ele>131.0</ele><time>2026-04-08T07:08:20.547Z</time></trkpt><trkpt lat="45.42958880403417" lon="11.122987903573806"><ele>131.0</ele><time>2026-04-08T07:08:46.997Z</time></trkpt><trkpt lat="45.42975992316838" lon="11.123057087136996"><ele>131.0</ele><time>2026-04-08T07:08:59.996Z</time></trkpt><trkpt lat="45.42985320179466" lon="11.123082682793854"><ele>131.0</ele><time>2026-04-08T07:09:08.995Z</time></trkpt><trkpt lat="45.42953888892078" lon="11.122950271481956"><ele>131.0</ele><time>2026-04-08T07:09:13.996Z</time></trkpt><trkpt lat="45.429664598001054" lon="11.123008661135112"><ele>131.0</ele><time>2026-04-08T07:09:30.995Z</time></trkpt><trkpt lat="45.429720092804175" lon="11.1230684754779"><ele>131.0</ele><time>2026-04-08T07:09:35.996Z</time></trkpt><trkpt lat="45.429775804482354" lon="11.123124685325275"><ele>131.0</ele><time>2026-04-08T07:09:36.995Z</time></trkpt><trkpt lat="45.42980199817115" lon="11.123248394114352"><ele>131.0</ele><time>2026-04-08T07:11:02.998Z</time></trkpt><trkpt lat="45.42980239266683" lon="11.123375450875079"><ele>131.0</ele><time>2026-04-08T07:11:04.998Z</time></trkpt><trkpt lat="45.42985235319675" lon="11.123451703332009"><ele>131.0</ele><time>2026-04-08T07:11:06.999Z</time></trkpt><trkpt lat="45.42994825715493" lon="11.123484695527807"><ele>131.0</ele><time>2026-04-08T07:11:08.999Z</time></trkpt><trkpt lat="45.430010702478604" lon="11.12351728574745"><ele>131.0</ele><time>2026-04-08T07:11:09.999Z</time></trkpt><trkpt lat="45.43007993493953" lon="11.123543106598483"><ele>131.0</ele><time>2026-04-08T07:11:10.999Z</time></trkpt><trkpt lat="45.43014418084674" lon="11.123562767819605"><ele>131.0</ele><time>2026-04-08T07:11:11.999Z</time></trkpt><trkpt lat="45.43020988165381" lon="11.123574674020045"><ele>131.0</ele><time>2026-04-08T07:11:12.999Z</time></trkpt><trkpt lat="45.4303142886243" lon="11.123534859686714"><ele>131.0</ele><time>2026-04-08T07:11:14.999Z</time></trkpt><trkpt lat="45.430345255947884" lon="11.123455832475035"><ele>131.0</ele><time>2026-04-08T07:11:15.999Z</time></trkpt><trkpt lat="45.430367908989865" lon="11.123325362522943"><ele>131.0</ele><time>2026-04-08T07:11:16.999Z</time></trkpt><trkpt lat="45.43038323888686" lon="11.1232129989669"><ele>131.0</ele><time>2026-04-08T07:11:17.999Z</time></trkpt><trkpt lat="45.430398124479076" lon="11.1231130733046"><ele>131.0</ele><time>2026-04-08T07:11:18.999Z</time></trkpt><trkpt lat="45.43042065157839" lon="11.1230150628499"><ele>131.0</ele><time>2026-04-08T07:11:19.999Z</time></trkpt><trkpt lat="45.43045595952329" lon="11.122921294636475"><ele>131.16666666666666</ele><time>2026-04-08T07:11:21Z</time></trkpt><trkpt lat="45.430488364028626" lon="11.122827529903168"><ele>131.33333333333331</ele><time>2026-04-08T07:11:22Z</time></trkpt><trkpt lat="45.43057578233453" lon="11.122746496688276"><ele>131.5</ele><time>2026-04-08T07:11:24Z</time></trkpt><trkpt lat="45.43062256574352" lon="11.122831430978803"><ele>131.66666666666666</ele><time>2026-04-08T07:11:25Z</time></trkpt><trkpt lat="45.43072031667562" lon="11.122840462602365"><ele>131.83333333333334</ele><time>2026-04-08T07:11:27Z</time></trkpt><trkpt lat="45.430784124326884" lon="11.122870034649974"><ele>132.0</ele><time>2026-04-08T07:11:29Z</time></trkpt><trkpt lat="45.4308342025159" lon="11.12272684007293"><ele>132.0</ele><time>2026-04-08T07:11:32Z</time></trkpt><trkpt lat="45.43086483843643" lon="11.122602062703121"><ele>132.0</ele><time>2026-04-08T07:11:33Z</time></trkpt><trkpt lat="45.43089902100424" lon="11.122457693738733"><ele>132.0</ele><time>2026-04-08T07:11:34Z</time></trkpt><trkpt lat="45.43091840935803" lon="11.122311397089641"><ele>132.0</ele><time>2026-04-08T07:11:35Z</time></trkpt><trkpt lat="45.43092309154568" lon="11.122187209953777"><ele>132.0</ele><time>2026-04-08T07:11:36Z</time></trkpt><trkpt lat="45.43092805325725" lon="11.122071026510318"><ele>131.25</ele><time>2026-04-08T07:11:38Z</time></trkpt><trkpt lat="45.43115162961424" lon="11.12214352360406"><ele>130.5</ele><time>2026-04-08T07:11:40Z</time></trkpt><trkpt lat="45.43124305103111" lon="11.12214812996067"><ele>129.75</ele><time>2026-04-08T07:11:41Z</time></trkpt><trkpt lat="45.43134461139017" lon="11.122162660267504"><ele>129.0</ele><time>2026-04-08T07:11:42Z</time></trkpt><trkpt lat="45.431467690480396" lon="11.122210296877247"><ele>129.0</ele><time>2026-04-08T07:11:43Z</time></trkpt><trkpt lat="45.431562037376835" lon="11.122259878218491"><ele>129.0</ele><time>2026-04-08T07:11:44Z</time></trkpt><trkpt lat="45.43165529761889" lon="11.122313804607256"><ele>129.0</ele><time>2026-04-08T07:11:45Z</time></trkpt><trkpt lat="45.43175605199322" lon="11.122369081596029"><ele>129.0</ele><time>2026-04-08T07:11:46Z</time></trkpt><trkpt lat="45.43186957646095" lon="11.122430547883972"><ele>129.0</ele><time>2026-04-08T07:11:47Z</time></trkpt><trkpt lat="45.4319926516328" lon="11.122499400540095"><ele>129.8</ele><time>2026-04-08T07:11:48Z</time></trkpt><trkpt lat="45.432096819470544" lon="11.122560600532712"><ele>130.60000000000002</ele><time>2026-04-08T07:11:49Z</time></trkpt><trkpt lat="45.432198092038796" lon="11.122606495172116"><ele>131.4</ele><time>2026-04-08T07:11:50Z</time></trkpt><trkpt lat="45.432288988385714" lon="11.122683552822783"><ele>132.20000000000002</ele><time>2026-04-08T07:11:51Z</time></trkpt><trkpt lat="45.43238368757298" lon="11.12276787008856"><ele>133.0</ele><time>2026-04-08T07:11:52Z</time></trkpt><trkpt lat="45.432482688203464" lon="11.122841086993692"><ele>134.5</ele><time>2026-04-08T07:11:53Z</time></trkpt><trkpt lat="45.43259299628075" lon="11.122924504473712"><ele>136.0</ele><time>2026-04-08T07:11:54Z</time></trkpt><trkpt lat="45.43271197624312" lon="11.122995769393125"><ele>137.5</ele><time>2026-04-08T07:11:55Z</time></trkpt><trkpt lat="45.432826157040026" lon="11.123067181586263"><ele>139.0</ele><time>2026-04-08T07:11:56Z</time></trkpt><trkpt lat="45.43291815696229" lon="11.12312779313299"><ele>138.6</ele><time>2026-04-08T07:11:57Z</time></trkpt><trkpt lat="45.432992267794035" lon="11.123176327844936"><ele>138.2</ele><time>2026-04-08T07:11:58Z</time></trkpt><trkpt lat="45.43307974794109" lon="11.123182222785829"><ele>137.79999999999998</ele><time>2026-04-08T07:12:00Z</time></trkpt><trkpt lat="45.43311283534439" lon="11.123088818060925"><ele>137.4</ele><time>2026-04-08T07:12:02Z</time></trkpt><trkpt lat="45.433150196393285" lon="11.122920634838318"><ele>137.0</ele><time>2026-04-08T07:12:04Z</time></trkpt><trkpt lat="45.433195820391035" lon="11.122775334317994"><ele>137.0</ele><time>2026-04-08T07:12:06Z</time></trkpt><trkpt lat="45.43324987354505" lon="11.122725552827173"><ele>137.0</ele><time>2026-04-08T07:12:09Z</time></trkpt><trkpt lat="45.433345135291916" lon="11.122805471999598"><ele>137.0</ele><time>2026-04-08T07:12:11Z</time></trkpt><trkpt lat="45.43340789761077" lon="11.122871402757275"><ele>137.0</ele><time>2026-04-08T07:12:12Z</time></trkpt><trkpt lat="45.43349998173706" lon="11.122933113610001"><ele>137.0</ele><time>2026-04-08T07:12:13Z</time></trkpt><trkpt lat="45.43358626762838" lon="11.122980100182597"><ele>137.0</ele><time>2026-04-08T07:12:14Z</time></trkpt><trkpt lat="45.43367692242271" lon="11.123017767350671"><ele>137.0</ele><time>2026-04-08T07:12:15Z</time></trkpt><trkpt lat="45.43379104339098" lon="11.12305621777353"><ele>137.0</ele><time>2026-04-08T07:12:16Z</time></trkpt><trkpt lat="45.43390613512469" lon="11.123098039259395"><ele>137.0</ele><time>2026-04-08T07:12:17Z</time></trkpt><trkpt lat="45.43400471870787" lon="11.123141765171885"><ele>137.0</ele><time>2026-04-08T07:12:18Z</time></trkpt><trkpt lat="45.43410462863775" lon="11.123191883077327"><ele>137.0</ele><time>2026-04-08T07:12:19Z</time></trkpt><trkpt lat="45.43421575488961" lon="11.123222600755767"><ele>137.25</ele><time>2026-04-08T07:12:20Z</time></trkpt><trkpt lat="45.434341557071726" lon="11.123300318953607"><ele>137.5</ele><time>2026-04-08T07:12:21Z</time></trkpt><trkpt lat="45.43446712016923" lon="11.123392335314856"><ele>137.75</ele><time>2026-04-08T07:12:22Z</time></trkpt><trkpt lat="45.434575104492225" lon="11.123494665716757"><ele>138.0</ele><time>2026-04-08T07:12:23Z</time></trkpt><trkpt lat="45.434662590768326" lon="11.123592568348798"><ele>138.0</ele><time>2026-04-08T07:12:24Z</time></trkpt><trkpt lat="45.43474948488685" lon="11.123690816566647"><ele>138.0</ele><time>2026-04-08T07:12:25Z</time></trkpt><trkpt lat="45.43484061704344" lon="11.123790697441938"><ele>138.0</ele><time>2026-04-08T07:12:25.999Z</time></trkpt><trkpt lat="45.43493955097303" lon="11.123890380396734"><ele>138.0</ele><time>2026-04-08T07:12:26.999Z</time></trkpt><trkpt lat="45.435042809012515" lon="11.123982271455347"><ele>138.0</ele><time>2026-04-08T07:12:27.999Z</time></trkpt><trkpt lat="45.43515065059279" lon="11.12405893909931"><ele>138.0</ele><time>2026-04-08T07:12:28.999Z</time></trkpt><trkpt lat="45.43526185237167" lon="11.12414365523484"><ele>138.0</ele><time>2026-04-08T07:12:29.999Z</time></trkpt><trkpt lat="45.435374923251636" lon="11.124221302635979"><ele>138.0</ele><time>2026-04-08T07:12:31Z</time></trkpt><trkpt lat="45.43549630344777" lon="11.12427812211512"><ele>138.75</ele><time>2026-04-08T07:12:32Z</time></trkpt><trkpt lat="45.43561999626614" lon="11.124308308323409"><ele>139.5</ele><time>2026-04-08T07:12:33Z</time></trkpt><trkpt lat="45.43575705202741" lon="11.124324013919413"><ele>140.25</ele><time>2026-04-08T07:12:34Z</time></trkpt><trkpt lat="45.43589617157543" lon="11.124333758282706"><ele>141.0</ele><time>2026-04-08T07:12:35Z</time></trkpt><trkpt lat="45.43603021784541" lon="11.124340803764325"><ele>141.0</ele><time>2026-04-08T07:12:36Z</time></trkpt><trkpt lat="45.43615618188186" lon="11.124362842213012"><ele>141.0</ele><time>2026-04-08T07:12:37Z</time></trkpt><trkpt lat="45.436282265299695" lon="11.124419088413415"><ele>141.0</ele><time>2026-04-08T07:12:38Z</time></trkpt><trkpt lat="45.43640903031161" lon="11.124489521549847"><ele>141.0</ele><time>2026-04-08T07:12:39Z</time></trkpt><trkpt lat="45.43653887157519" lon="11.124564532121079"><ele>139.25</ele><time>2026-04-08T07:12:40Z</time></trkpt><trkpt lat="45.43665619640793" lon="11.12462197248257"><ele>137.5</ele><time>2026-04-08T07:12:41Z</time></trkpt><trkpt lat="45.4367787698261" lon="11.124678055831474"><ele>135.75</ele><time>2026-04-08T07:12:42Z</time></trkpt><trkpt lat="45.43689468252502" lon="11.124738289563599"><ele>134.0</ele><time>2026-04-08T07:12:43Z</time></trkpt><trkpt lat="45.4370153421105" lon="11.124803076329181"><ele>132.5</ele><time>2026-04-08T07:12:44Z</time></trkpt><trkpt lat="45.43714892523142" lon="11.124849986975923"><ele>131.0</ele><time>2026-04-08T07:12:45Z</time></trkpt><trkpt lat="45.43729296578825" lon="11.124857764839076"><ele>129.5</ele><time>2026-04-08T07:12:46Z</time></trkpt><trkpt lat="45.43744021768971" lon="11.124844562317714"><ele>128.0</ele><time>2026-04-08T07:12:47Z</time></trkpt><trkpt lat="45.43757179269494" lon="11.124818177880561"><ele>128.0</ele><time>2026-04-08T07:12:48Z</time></trkpt><trkpt lat="45.43770416403042" lon="11.12477309499261"><ele>128.0</ele><time>2026-04-08T07:12:49Z</time></trkpt><trkpt lat="45.437843503454374" lon="11.124722423184473"><ele>128.0</ele><time>2026-04-08T07:12:50Z</time></trkpt><trkpt lat="45.43796640713322" lon="11.124670038894514"><ele>128.0</ele><time>2026-04-08T07:12:51Z</time></trkpt><trkpt lat="45.438086236820915" lon="11.12462247724546"><ele>128.75</ele><time>2026-04-08T07:12:52Z</time></trkpt><trkpt lat="45.43820146922317" lon="11.124574019685328"><ele>129.5</ele><time>2026-04-08T07:12:53Z</time></trkpt><trkpt lat="45.438318480138825" lon="11.124539497114554"><ele>130.25</ele><time>2026-04-08T07:12:54Z</time></trkpt><trkpt lat="45.43844846059396" lon="11.124530616532688"><ele>131.0</ele><time>2026-04-08T07:12:55Z</time></trkpt><trkpt lat="45.43857962092077" lon="11.124542162227037"><ele>131.0</ele><time>2026-04-08T07:12:56Z</time></trkpt><trkpt lat="45.43871085738025" lon="11.124570525007798"><ele>131.0</ele><time>2026-04-08T07:12:57Z</time></trkpt><trkpt lat="45.4388353260897" lon="11.124622735618964"><ele>131.0</ele><time>2026-04-08T07:12:58Z</time></trkpt><trkpt lat="45.43892696507022" lon="11.124691323026848"><ele>131.0</ele><time>2026-04-08T07:12:59Z</time></trkpt><trkpt lat="45.43899910389288" lon="11.124736163307244"><ele>131.0</ele><time>2026-04-08T07:13:00Z</time></trkpt><trkpt lat="45.43910936229318" lon="11.124787851543482"><ele>131.4</ele><time>2026-04-08T07:13:02Z</time></trkpt><trkpt lat="45.43919484879948" lon="11.124719839196416"><ele>131.8</ele><time>2026-04-08T07:13:03Z</time></trkpt><trkpt lat="45.439282926011195" lon="11.124646819720962"><ele>132.20000000000002</ele><time>2026-04-08T07:13:04Z</time></trkpt><trkpt lat="45.43938430951166" lon="11.12456874793438"><ele>132.6</ele><time>2026-04-08T07:13:05Z</time></trkpt><trkpt lat="45.439494177415526" lon="11.124518480196143"><ele>133.0</ele><time>2026-04-08T07:13:06Z</time></trkpt><trkpt lat="45.439606268334884" lon="11.12449298738261"><ele>133.4</ele><time>2026-04-08T07:13:07Z</time></trkpt><trkpt lat="45.4397241983699" lon="11.124475713452474"><ele>133.8</ele><time>2026-04-08T07:13:08Z</time></trkpt><trkpt lat="45.43983893291758" lon="11.124463649319132"><ele>134.2</ele><time>2026-04-08T07:13:09Z</time></trkpt><trkpt lat="45.439936687417834" lon="11.124428515838463"><ele>134.6</ele><time>2026-04-08T07:13:10Z</time></trkpt><trkpt lat="45.44000552210952" lon="11.1243709077895"><ele>135.0</ele><time>2026-04-08T07:13:11Z</time></trkpt><trkpt lat="45.440078735883624" lon="11.124342927062477"><ele>135.0</ele><time>2026-04-08T07:13:12Z</time></trkpt><trkpt lat="45.44013160003706" lon="11.124176668695407"><ele>135.0</ele><time>2026-04-08T07:13:13Z</time></trkpt><trkpt lat="45.44023468510469" lon="11.124098556708537"><ele>135.0</ele><time>2026-04-08T07:13:14Z</time></trkpt><trkpt lat="45.440341545689705" lon="11.12401430905878"><ele>135.0</ele><time>2026-04-08T07:13:15Z</time></trkpt><trkpt lat="45.440452085502386" lon="11.123955033039145"><ele>136.16666666666666</ele><time>2026-04-08T07:13:16Z</time></trkpt><trkpt lat="45.44056400662315" lon="11.123908062121892"><ele>137.33333333333334</ele><time>2026-04-08T07:13:17Z</time></trkpt><trkpt lat="45.44065467744379" lon="11.123843541931041"><ele>138.5</ele><time>2026-04-08T07:13:18Z</time></trkpt><trkpt lat="45.44072158032186" lon="11.123794272643252"><ele>139.66666666666669</ele><time>2026-04-08T07:13:19Z</time></trkpt><trkpt lat="45.44076020291231" lon="11.123721846688968"><ele>140.83333333333334</ele><time>2026-04-08T07:13:20Z</time></trkpt><trkpt lat="45.440765021124804" lon="11.12362792758676"><ele>142.0</ele><time>2026-04-08T07:13:21Z</time></trkpt><trkpt lat="45.4407187946542" lon="11.123516349726973"><ele>142.0</ele><time>2026-04-08T07:13:22Z</time></trkpt><trkpt lat="45.440641530621804" lon="11.123435132967282"><ele>142.0</ele><time>2026-04-08T07:13:23Z</time></trkpt><trkpt lat="45.44055928443528" lon="11.12334737676199"><ele>142.0</ele><time>2026-04-08T07:13:23.999Z</time></trkpt><trkpt lat="45.44047221228441" lon="11.123247149984614"><ele>142.0</ele><time>2026-04-08T07:13:24.999Z</time></trkpt><trkpt lat="45.440400144226864" lon="11.123158794427924"><ele>142.0</ele><time>2026-04-08T07:13:25.999Z</time></trkpt><trkpt lat="45.44033316964562" lon="11.123060081697618"><ele>140.2</ele><time>2026-04-08T07:13:26.999Z</time></trkpt><trkpt lat="45.440278673872974" lon="11.122943393910797"><ele>138.39999999999998</ele><time>2026-04-08T07:13:27.999Z</time></trkpt><trkpt lat="45.44025303630737" lon="11.122805772650128"><ele>136.60000000000002</ele><time>2026-04-08T07:13:28.999Z</time></trkpt><trkpt lat="45.44022315079606" lon="11.12264956172047"><ele>134.8</ele><time>2026-04-08T07:13:29.999Z</time></trkpt><trkpt lat="45.44019862729128" lon="11.122483564648082"><ele>133.0</ele><time>2026-04-08T07:13:30.999Z</time></trkpt><trkpt lat="45.440179831454074" lon="11.122330563708578"><ele>133.0</ele><time>2026-04-08T07:13:31.999Z</time></trkpt><trkpt lat="45.44016122085345" lon="11.122179511603049"><ele>133.0</ele><time>2026-04-08T07:13:32.999Z</time></trkpt><trkpt lat="45.44014357024643" lon="11.122023242790368"><ele>133.0</ele><time>2026-04-08T07:13:33.999Z</time></trkpt><trkpt lat="45.44012452978155" lon="11.121856075686537"><ele>133.0</ele><time>2026-04-08T07:13:34.999Z</time></trkpt><trkpt lat="45.44010147031865" lon="11.12168000114957"><ele>133.0</ele><time>2026-04-08T07:13:35.999Z</time></trkpt><trkpt lat="45.4400678628508" lon="11.121502421574986"><ele>133.0</ele><time>2026-04-08T07:13:36.999Z</time></trkpt><trkpt lat="45.4400434681123" lon="11.121324170932592"><ele>133.0</ele><time>2026-04-08T07:13:37.999Z</time></trkpt><trkpt lat="45.440027252735355" lon="11.121163356725226"><ele>133.0</ele><time>2026-04-08T07:13:38.999Z</time></trkpt><trkpt lat="45.44003675300561" lon="11.121038609729755"><ele>133.0</ele><time>2026-04-08T07:13:39.999Z</time></trkpt><trkpt lat="45.440027247678984" lon="11.12094119444732"><ele>133.0</ele><time>2026-04-08T07:13:40.999Z</time></trkpt><trkpt lat="45.44006997719456" lon="11.120870210763593"><ele>133.0</ele><time>2026-04-08T07:13:41.999Z</time></trkpt><trkpt lat="45.44012457022286" lon="11.120766957873055"><ele>133.0</ele><time>2026-04-08T07:13:43.999Z</time></trkpt><trkpt lat="45.44018749890602" lon="11.12070458019197"><ele>133.0</ele><time>2026-04-08T07:13:44.999Z</time></trkpt><trkpt lat="45.44026173136765" lon="11.120626898558951"><ele>133.0</ele><time>2026-04-08T07:13:45.999Z</time></trkpt><trkpt lat="45.440343946780416" lon="11.120551217852256"><ele>134.0</ele><time>2026-04-08T07:13:46.999Z</time></trkpt><trkpt lat="45.44043068393555" lon="11.120482189758002"><ele>135.0</ele><time>2026-04-08T07:13:47.999Z</time></trkpt><trkpt lat="45.44049801085322" lon="11.120386273604234"><ele>136.0</ele><time>2026-04-08T07:13:48.999Z</time></trkpt><trkpt lat="45.44056384058892" lon="11.120286831482158"><ele>137.0</ele><time>2026-04-08T07:13:49.999Z</time></trkpt><trkpt lat="45.44061905040852" lon="11.120188016267226"><ele>138.0</ele><time>2026-04-08T07:13:50.999Z</time></trkpt><trkpt lat="45.44065658775161" lon="11.120081678684947"><ele>138.0</ele><time>2026-04-08T07:13:51.999Z</time></trkpt><trkpt lat="45.440676532769075" lon="11.11997703211227"><ele>138.0</ele><time>2026-04-08T07:13:52.999Z</time></trkpt><trkpt lat="45.440706661352756" lon="11.119823358110445"><ele>138.0</ele><time>2026-04-08T07:13:53.999Z</time></trkpt><trkpt lat="45.44073896483268" lon="11.119658259976173"><ele>138.0</ele><time>2026-04-08T07:13:54.999Z</time></trkpt><trkpt lat="45.440767692034505" lon="11.119511440366667"><ele>138.0</ele><time>2026-04-08T07:13:55.999Z</time></trkpt><trkpt lat="45.44078832418917" lon="11.119405993087872"><ele>136.0</ele><time>2026-04-08T07:13:56.999Z</time></trkpt><trkpt lat="45.4409494854178" lon="11.11932622877414"><ele>134.0</ele><time>2026-04-08T07:13:57.999Z</time></trkpt><trkpt lat="45.44094389720617" lon="11.119191125416698"><ele>132.0</ele><time>2026-04-08T07:13:58.999Z</time></trkpt><trkpt lat="45.440936568575005" lon="11.119051898552712"><ele>130.0</ele><time>2026-04-08T07:13:59.999Z</time></trkpt><trkpt lat="45.44092866379848" lon="11.118902709334812"><ele>128.6</ele><time>2026-04-08T07:14:00.999Z</time></trkpt><trkpt lat="45.44091370088813" lon="11.118747404394686"><ele>127.2</ele><time>2026-04-08T07:14:01.999Z</time></trkpt><trkpt lat="45.4409081000121" lon="11.118607192548211"><ele>125.80000000000001</ele><time>2026-04-08T07:14:02.999Z</time></trkpt><trkpt lat="45.44089448423453" lon="11.118481259915905"><ele>124.4</ele><time>2026-04-08T07:14:03.999Z</time></trkpt><trkpt lat="45.44096529941158" lon="11.118309598417655"><ele>123.0</ele><time>2026-04-08T07:14:05.999Z</time></trkpt><trkpt lat="45.44103656194634" lon="11.118251943144129"><ele>122.60000000000001</ele><time>2026-04-08T07:14:06.999Z</time></trkpt><trkpt lat="45.441121477140946" lon="11.118212013670226"><ele>122.20000000000002</ele><time>2026-04-08T07:14:07.999Z</time></trkpt><trkpt lat="45.44119177714179" lon="11.118148219666322"><ele>121.8</ele><time>2026-04-08T07:14:08.999Z</time></trkpt><trkpt lat="45.44128579676574" lon="11.118079188450551"><ele>121.4</ele><time>2026-04-08T07:14:09.999Z</time></trkpt><trkpt lat="45.441363720295165" lon="11.118009012230004"><ele>121.0</ele><time>2026-04-08T07:14:10.999Z</time></trkpt><trkpt lat="45.441451663857336" lon="11.117940207733962"><ele>121.0</ele><time>2026-04-08T07:14:11.999Z</time></trkpt><trkpt lat="45.44153655570919" lon="11.117866796991292"><ele>121.0</ele><time>2026-04-08T07:14:12.999Z</time></trkpt><trkpt lat="45.44162161675845" lon="11.117786881393934"><ele>121.0</ele><time>2026-04-08T07:14:13.999Z</time></trkpt><trkpt lat="45.44171355427574" lon="11.117710966272423"><ele>121.0</ele><time>2026-04-08T07:14:14.999Z</time></trkpt><trkpt lat="45.44180024005888" lon="11.11764149873908"><ele>121.0</ele><time>2026-04-08T07:14:15.999Z</time></trkpt><trkpt lat="45.441887872315114" lon="11.117571309212261"><ele>121.00000000000001</ele><time>2026-04-08T07:14:16.999Z</time></trkpt><trkpt lat="45.44196396436086" lon="11.117502314504017"><ele>121.0</ele><time>2026-04-08T07:14:17.999Z</time></trkpt><trkpt lat="45.44202552616033" lon="11.117427896064578"><ele>121.0</ele><time>2026-04-08T07:14:18.999Z</time></trkpt><trkpt lat="45.442090598895916" lon="11.117370028529376"><ele>121.0</ele><time>2026-04-08T07:14:19.999Z</time></trkpt><trkpt lat="45.44215320641687" lon="11.117343991996021"><ele>121.00000000000001</ele><time>2026-04-08T07:14:20.999Z</time></trkpt><trkpt lat="45.44224906600699" lon="11.117315538439236"><ele>121.0</ele><time>2026-04-08T07:14:22.999Z</time></trkpt><trkpt lat="45.44230143540319" lon="11.117241549838685"><ele>121.4</ele><time>2026-04-08T07:14:23.999Z</time></trkpt><trkpt lat="45.4423229455133" lon="11.117113724026572"><ele>121.8</ele><time>2026-04-08T07:14:24.999Z</time></trkpt><trkpt lat="45.44235769771439" lon="11.117002024517362"><ele>122.20000000000002</ele><time>2026-04-08T07:14:25.999Z</time></trkpt><trkpt lat="45.4424068023976" lon="11.116875679613509"><ele>122.60000000000001</ele><time>2026-04-08T07:14:26.999Z</time></trkpt><trkpt lat="45.44246647034519" lon="11.116761152417673"><ele>123.0</ele><time>2026-04-08T07:14:27.999Z</time></trkpt><trkpt lat="45.44251708552204" lon="11.116630788718387"><ele>122.0</ele><time>2026-04-08T07:14:28.999Z</time></trkpt><trkpt lat="45.4425562809534" lon="11.116522945744618"><ele>121.0</ele><time>2026-04-08T07:14:29.999Z</time></trkpt><trkpt lat="45.442629518569994" lon="11.11641036660901"><ele>120.0</ele><time>2026-04-08T07:14:31.999Z</time></trkpt><trkpt lat="45.442690307342644" lon="11.116349998009488"><ele>119.0</ele><time>2026-04-08T07:14:32.999Z</time></trkpt><trkpt lat="45.44274973434513" lon="11.116271211002402"><ele>118.0</ele><time>2026-04-08T07:14:33.999Z</time></trkpt><trkpt lat="45.442803294526215" lon="11.116182624780823"><ele>117.0</ele><time>2026-04-08T07:14:34.999Z</time></trkpt><trkpt lat="45.442864742596925" lon="11.116090018132857"><ele>117.0</ele><time>2026-04-08T07:14:35.999Z</time></trkpt><trkpt lat="45.44292975889904" lon="11.116011071363856"><ele>117.0</ele><time>2026-04-08T07:14:36.999Z</time></trkpt><trkpt lat="45.442984761374305" lon="11.115938430809756"><ele>117.0</ele><time>2026-04-08T07:14:37.999Z</time></trkpt><trkpt lat="45.44304342509965" lon="11.115843191515934"><ele>117.0</ele><time>2026-04-08T07:14:38.999Z</time></trkpt><trkpt lat="45.44308464472717" lon="11.115762375623884"><ele>117.0</ele><time>2026-04-08T07:14:39.999Z</time></trkpt><trkpt lat="45.44311266891746" lon="11.115671470832968"><ele>117.0</ele><time>2026-04-08T07:14:40.999Z</time></trkpt><trkpt lat="45.44312336100227" lon="11.115575572904595"><ele>119.0</ele><time>2026-04-08T07:14:41.999Z</time></trkpt><trkpt lat="45.44311903213217" lon="11.115474274468893"><ele>121.0</ele><time>2026-04-08T07:14:42.999Z</time></trkpt><trkpt lat="45.443116018515184" lon="11.11538017881734"><ele>123.0</ele><time>2026-04-08T07:14:43.999Z</time></trkpt><trkpt lat="45.443127662885416" lon="11.115288931573902"><ele>125.0</ele><time>2026-04-08T07:14:44.999Z</time></trkpt><trkpt lat="45.44317106072619" lon="11.115209713958196"><ele>127.0</ele><time>2026-04-08T07:14:45.999Z</time></trkpt><trkpt lat="45.443226462815375" lon="11.115135111585918"><ele>129.0</ele><time>2026-04-08T07:14:46.999Z</time></trkpt><trkpt lat="45.44332403627328" lon="11.115073539073405"><ele>129.0</ele><time>2026-04-08T07:14:48.999Z</time></trkpt><trkpt lat="45.44338928913755" lon="11.11502357634251"><ele>129.0</ele><time>2026-04-08T07:14:49.999Z</time></trkpt><trkpt lat="45.44345923450074" lon="11.114930604626618"><ele>129.0</ele><time>2026-04-08T07:14:50.999Z</time></trkpt><trkpt lat="45.44354595907163" lon="11.114819276624578"><ele>129.0</ele><time>2026-04-08T07:14:51.999Z</time></trkpt><trkpt lat="45.4436143839437" lon="11.114731083092787"><ele>129.0</ele><time>2026-04-08T07:14:52.999Z</time></trkpt><trkpt lat="45.443685676980806" lon="11.114628758121516"><ele>128.33333333333334</ele><time>2026-04-08T07:14:53.999Z</time></trkpt><trkpt lat="45.44374262714308" lon="11.114561615128283"><ele>127.66666666666666</ele><time>2026-04-08T07:14:54.999Z</time></trkpt><trkpt lat="45.443807473554976" lon="11.11448920457342"><ele>127.0</ele><time>2026-04-08T07:14:55.999Z</time></trkpt><trkpt lat="45.443882598379446" lon="11.114392134057287"><ele>126.33333333333333</ele><time>2026-04-08T07:14:56.999Z</time></trkpt><trkpt lat="45.44394062349508" lon="11.114319167659536"><ele>125.66666666666666</ele><time>2026-04-08T07:14:57.999Z</time></trkpt><trkpt lat="45.44401686996576" lon="11.114234857636774"><ele>125.0</ele><time>2026-04-08T07:14:58.999Z</time></trkpt><trkpt lat="45.444093253769346" lon="11.114148756463312"><ele>124.8</ele><time>2026-04-08T07:14:59.999Z</time></trkpt><trkpt lat="45.444174254818456" lon="11.114059840500081"><ele>124.6</ele><time>2026-04-08T07:15:00.999Z</time></trkpt><trkpt lat="45.44425079041031" lon="11.113972065412447"><ele>124.4</ele><time>2026-04-08T07:15:01.999Z</time></trkpt><trkpt lat="45.444330917230445" lon="11.113871511755395"><ele>124.2</ele><time>2026-04-08T07:15:02.999Z</time></trkpt><trkpt lat="45.444415290033746" lon="11.113763486825068"><ele>124.0</ele><time>2026-04-08T07:15:03.999Z</time></trkpt><trkpt lat="45.44450102172413" lon="11.11365480466007"><ele>124.0</ele><time>2026-04-08T07:15:04.999Z</time></trkpt><trkpt lat="45.44458592755731" lon="11.11354299683674"><ele>124.0</ele><time>2026-04-08T07:15:05.999Z</time></trkpt><trkpt lat="45.44466852502268" lon="11.11343498626902"><ele>124.0</ele><time>2026-04-08T07:15:06.999Z</time></trkpt><trkpt lat="45.44474876316688" lon="11.113337359531089"><ele>124.0</ele><time>2026-04-08T07:15:07.999Z</time></trkpt><trkpt lat="45.44482344196291" lon="11.11324589644072"><ele>124.0</ele><time>2026-04-08T07:15:08.999Z</time></trkpt><trkpt lat="45.444893013959124" lon="11.113155012899192"><ele>124.0</ele><time>2026-04-08T07:15:09.999Z</time></trkpt><trkpt lat="45.44496490978556" lon="11.113064246470397"><ele>124.0</ele><time>2026-04-08T07:15:10.999Z</time></trkpt><trkpt lat="45.4450468809965" lon="11.11296758219827"><ele>124.0</ele><time>2026-04-08T07:15:11.999Z</time></trkpt><trkpt lat="45.4451242242118" lon="11.112864780104513"><ele>124.0</ele><time>2026-04-08T07:15:12.999Z</time></trkpt><trkpt lat="45.44520926944689" lon="11.112783913657108"><ele>124.0</ele><time>2026-04-08T07:15:13.999Z</time></trkpt><trkpt lat="45.445313286975846" lon="11.11273817807484"><ele>124.0</ele><time>2026-04-08T07:15:14.999Z</time></trkpt><trkpt lat="45.445418224207536" lon="11.11271337211085"><ele>124.0</ele><time>2026-04-08T07:15:15.999Z</time></trkpt><trkpt lat="45.4455319481705" lon="11.112673758294243"><ele>124.0</ele><time>2026-04-08T07:15:16.999Z</time></trkpt><trkpt lat="45.44564074083829" lon="11.112628652826134"><ele>124.0</ele><time>2026-04-08T07:15:17.999Z</time></trkpt><trkpt lat="45.445764817348234" lon="11.11257855616891"><ele>126.5</ele><time>2026-04-08T07:15:18.999Z</time></trkpt><trkpt lat="45.44589081089808" lon="11.112536004799061"><ele>129.0</ele><time>2026-04-08T07:15:19.999Z</time></trkpt><trkpt lat="45.44600913024464" lon="11.112534795386773"><ele>131.5</ele><time>2026-04-08T07:15:20.999Z</time></trkpt><trkpt lat="45.446132365013575" lon="11.112515600360242"><ele>134.0</ele><time>2026-04-08T07:15:21.999Z</time></trkpt><trkpt lat="45.4462529890759" lon="11.11249681196815"><ele>134.25</ele><time>2026-04-08T07:15:22.999Z</time></trkpt><trkpt lat="45.4463638692495" lon="11.112470234303158"><ele>134.5</ele><time>2026-04-08T07:15:23.999Z</time></trkpt><trkpt lat="45.44647782091292" lon="11.112495939928339"><ele>134.75</ele><time>2026-04-08T07:15:24.999Z</time></trkpt><trkpt lat="45.44658768825676" lon="11.112524184627427"><ele>135.0</ele><time>2026-04-08T07:15:25.999Z</time></trkpt><trkpt lat="45.44671103485788" lon="11.112548268579221"><ele>135.0</ele><time>2026-04-08T07:15:26.999Z</time></trkpt><trkpt lat="45.44680092018728" lon="11.112544885527166"><ele>135.0</ele><time>2026-04-08T07:15:27.999Z</time></trkpt><trkpt lat="45.446878586443574" lon="11.112562013637648"><ele>135.0</ele><time>2026-04-08T07:15:28.999Z</time></trkpt><trkpt lat="45.44696245641244" lon="11.112556808379448"><ele>135.0</ele><time>2026-04-08T07:15:30.999Z</time></trkpt><trkpt lat="45.44703348102825" lon="11.112430355709778"><ele>135.0</ele><time>2026-04-08T07:15:31.999Z</time></trkpt><trkpt lat="45.44713464446217" lon="11.112353951123366"><ele>133.75</ele><time>2026-04-08T07:15:32.999Z</time></trkpt><trkpt lat="45.44725488695698" lon="11.112347926125736"><ele>132.5</ele><time>2026-04-08T07:15:33.999Z</time></trkpt><trkpt lat="45.4473627018458" lon="11.112386638428324"><ele>131.25</ele><time>2026-04-08T07:15:34.999Z</time></trkpt><trkpt lat="45.44746488634624" lon="11.112457986167353"><ele>130.0</ele><time>2026-04-08T07:15:35.999Z</time></trkpt><trkpt lat="45.44758131037497" lon="11.112561552181424"><ele>130.0</ele><time>2026-04-08T07:15:36.999Z</time></trkpt><trkpt lat="45.44768740409813" lon="11.11270415044828"><ele>130.0</ele><time>2026-04-08T07:15:37.999Z</time></trkpt><trkpt lat="45.44777756121076" lon="11.112850360459978"><ele>130.0</ele><time>2026-04-08T07:15:38.999Z</time></trkpt><trkpt lat="45.447848404937204" lon="11.112981795711347"><ele>130.0</ele><time>2026-04-08T07:15:39.999Z</time></trkpt><trkpt lat="45.44791330006697" lon="11.11312250666714"><ele>127.25</ele><time>2026-04-08T07:15:40.999Z</time></trkpt><trkpt lat="45.448002026329256" lon="11.113248841585056"><ele>124.5</ele><time>2026-04-08T07:15:41.999Z</time></trkpt><trkpt lat="45.44807927199947" lon="11.113373885463325"><ele>121.75</ele><time>2026-04-08T07:15:42.999Z</time></trkpt><trkpt lat="45.448142784767526" lon="11.113502686324644"><ele>119.0</ele><time>2026-04-08T07:15:43.999Z</time></trkpt><trkpt lat="45.44820175087753" lon="11.11363599322717"><ele>119.0</ele><time>2026-04-08T07:15:44.999Z</time></trkpt><trkpt lat="45.44824533833939" lon="11.113761846093405"><ele>119.0</ele><time>2026-04-08T07:15:45.999Z</time></trkpt><trkpt lat="45.4483005113724" lon="11.113884419804426"><ele>119.0</ele><time>2026-04-08T07:15:46.999Z</time></trkpt><trkpt lat="45.44834760662038" lon="11.113989293033544"><ele>119.0</ele><time>2026-04-08T07:15:47.999Z</time></trkpt><trkpt lat="45.44838316212461" lon="11.11407753728683"><ele>119.0</ele><time>2026-04-08T07:15:48.999Z</time></trkpt><trkpt lat="45.44845380504457" lon="11.114190970655251"><ele>118.99999999999999</ele><time>2026-04-08T07:15:50.999Z</time></trkpt><trkpt lat="45.44853417547859" lon="11.114159023090409"><ele>119.0</ele><time>2026-04-08T07:15:53.999Z</time></trkpt><trkpt lat="45.448577549167254" lon="11.114015656775836"><ele>119.0</ele><time>2026-04-08T07:15:55.999Z</time></trkpt><trkpt lat="45.44857270686858" lon="11.113922993419495"><ele>119.0</ele><time>2026-04-08T07:15:56.999Z</time></trkpt><trkpt lat="45.448545013828266" lon="11.113811784924943"><ele>118.99999999999999</ele><time>2026-04-08T07:15:57.999Z</time></trkpt><trkpt lat="45.44851935444695" lon="11.113685919329514"><ele>119.0</ele><time>2026-04-08T07:15:58.999Z</time></trkpt><trkpt lat="45.44850441250719" lon="11.113553435640263"><ele>118.99999999999999</ele><time>2026-04-08T07:15:59.999Z</time></trkpt><trkpt lat="45.44849571587654" lon="11.113427481048776"><ele>119.0</ele><time>2026-04-08T07:16:00.999Z</time></trkpt><trkpt lat="45.448478909755885" lon="11.113305840886287"><ele>119.0</ele><time>2026-04-08T07:16:01.999Z</time></trkpt><trkpt lat="45.448471393142825" lon="11.11320791561044"><ele>119.0</ele><time>2026-04-08T07:16:02.999Z</time></trkpt><trkpt lat="45.44851206831683" lon="11.113053080673609"><ele>118.99999999999999</ele><time>2026-04-08T07:16:04.999Z</time></trkpt><trkpt lat="45.44856382815673" lon="11.113001607167432"><ele>119.0</ele><time>2026-04-08T07:16:05.999Z</time></trkpt><trkpt lat="45.448635248927395" lon="11.112985163634143"><ele>117.4</ele><time>2026-04-08T07:16:06.999Z</time></trkpt><trkpt lat="45.448720974902734" lon="11.113028432428951"><ele>115.80000000000001</ele><time>2026-04-08T07:16:07.999Z</time></trkpt><trkpt lat="45.448836121991135" lon="11.113041669358871"><ele>114.19999999999999</ele><time>2026-04-08T07:16:08.999Z</time></trkpt><trkpt lat="45.44894602450422" lon="11.113083106177664"><ele>112.6</ele><time>2026-04-08T07:16:09.999Z</time></trkpt><trkpt lat="45.44906685853845" lon="11.113128143132075"><ele>111.0</ele><time>2026-04-08T07:16:10.999Z</time></trkpt><trkpt lat="45.44918254997757" lon="11.113165318473438"><ele>110.0</ele><time>2026-04-08T07:16:11.999Z</time></trkpt><trkpt lat="45.44929862255289" lon="11.113190895254586"><ele>109.0</ele><time>2026-04-08T07:16:12.999Z</time></trkpt><trkpt lat="45.449410743926755" lon="11.113217210153637"><ele>108.0</ele><time>2026-04-08T07:16:13.999Z</time></trkpt><trkpt lat="45.44951846096496" lon="11.113274481609514"><ele>107.0</ele><time>2026-04-08T07:16:14.999Z</time></trkpt><trkpt lat="45.449641437103196" lon="11.1133066079644"><ele>106.19999999999999</ele><time>2026-04-08T07:16:15.999Z</time></trkpt><trkpt lat="45.449755700178656" lon="11.113354990950988"><ele>105.39999999999999</ele><time>2026-04-08T07:16:16.999Z</time></trkpt><trkpt lat="45.44986694642129" lon="11.113394187225033"><ele>104.6</ele><time>2026-04-08T07:16:17.999Z</time></trkpt><trkpt lat="45.44996523903545" lon="11.113433642871042"><ele>103.80000000000001</ele><time>2026-04-08T07:16:18.999Z</time></trkpt><trkpt lat="45.45006383759125" lon="11.113469536139919"><ele>103.0</ele><time>2026-04-08T07:16:19.999Z</time></trkpt><trkpt lat="45.450158959324426" lon="11.113459152388932"><ele>103.0</ele><time>2026-04-08T07:16:20.999Z</time></trkpt><trkpt lat="45.45024892706094" lon="11.113394199412742"><ele>103.0</ele><time>2026-04-08T07:16:21.999Z</time></trkpt><trkpt lat="45.45032473915672" lon="11.113322036752667"><ele>103.0</ele><time>2026-04-08T07:16:22.999Z</time></trkpt><trkpt lat="45.45041879106685" lon="11.113291852501893"><ele>103.0</ele><time>2026-04-08T07:16:23.999Z</time></trkpt><trkpt lat="45.45052478550452" lon="11.113359556390334"><ele>103.0</ele><time>2026-04-08T07:16:24.999Z</time></trkpt><trkpt lat="45.450620767407706" lon="11.11337009651034"><ele>102.4</ele><time>2026-04-08T07:16:25.999Z</time></trkpt><trkpt lat="45.45069976990775" lon="11.11336686422406"><ele>101.80000000000001</ele><time>2026-04-08T07:16:26.999Z</time></trkpt><trkpt lat="45.45080834160477" lon="11.113367947454218"><ele>101.2</ele><time>2026-04-08T07:16:27.999Z</time></trkpt><trkpt lat="45.450935819967135" lon="11.113365325917014"><ele>100.6</ele><time>2026-04-08T07:16:28.999Z</time></trkpt><trkpt lat="45.45104853127778" lon="11.113375322894742"><ele>100.0</ele><time>2026-04-08T07:16:29.999Z</time></trkpt><trkpt lat="45.45117054449906" lon="11.113361660534029"><ele>100.0</ele><time>2026-04-08T07:16:30.999Z</time></trkpt><trkpt lat="45.451270237937706" lon="11.113348646807106"><ele>100.0</ele><time>2026-04-08T07:16:31.999Z</time></trkpt><trkpt lat="45.45134157087408" lon="11.113340424443525"><ele>100.0</ele><time>2026-04-08T07:16:32.999Z</time></trkpt><trkpt lat="45.45141636373767" lon="11.113335615933737"><ele>100.0</ele><time>2026-04-08T07:16:34.999Z</time></trkpt><trkpt lat="45.45154649034442" lon="11.112854032182963"><ele>99.0</ele><time>2026-04-08T07:16:39.999Z</time></trkpt><trkpt lat="45.45160143217954" lon="11.112762373801527"><ele>98.0</ele><time>2026-04-08T07:16:40.999Z</time></trkpt><trkpt lat="45.45166786445003" lon="11.11266111423989"><ele>97.0</ele><time>2026-04-08T07:16:41.999Z</time></trkpt><trkpt lat="45.45173717557109" lon="11.112559845967336"><ele>96.0</ele><time>2026-04-08T07:16:42.999Z</time></trkpt><trkpt lat="45.4518037647651" lon="11.112453703811957"><ele>95.0</ele><time>2026-04-08T07:16:43.999Z</time></trkpt><trkpt lat="45.45185360407505" lon="11.112353401180316"><ele>93.0</ele><time>2026-04-08T07:16:44.999Z</time></trkpt><trkpt lat="45.4519076963874" lon="11.112253645319843"><ele>91.0</ele><time>2026-04-08T07:16:45.999Z</time></trkpt><trkpt lat="45.45196971606693" lon="11.112175659829727"><ele>89.0</ele><time>2026-04-08T07:16:46.999Z</time></trkpt><trkpt lat="45.452034361840795" lon="11.11210691587472"><ele>87.0</ele><time>2026-04-08T07:16:47.999Z</time></trkpt><trkpt lat="45.45211002394635" lon="11.112035284624026"><ele>85.0</ele><time>2026-04-08T07:16:48.999Z</time></trkpt><trkpt lat="45.45219122505115" lon="11.11197365048024"><ele>83.0</ele><time>2026-04-08T07:16:49.999Z</time></trkpt><trkpt lat="45.45225738577685" lon="11.111916708134283"><ele>83.0</ele><time>2026-04-08T07:16:50.999Z</time></trkpt><trkpt lat="45.45231374498218" lon="11.111854782230921"><ele>83.0</ele><time>2026-04-08T07:16:51.999Z</time></trkpt><trkpt lat="45.45234071164099" lon="11.111748876854282"><ele>83.0</ele><time>2026-04-08T07:16:52.999Z</time></trkpt><trkpt lat="45.45236383148354" lon="11.111604727250585"><ele>83.0</ele><time>2026-04-08T07:16:53.999Z</time></trkpt><trkpt lat="45.45239684184445" lon="11.111459114368845"><ele>83.0</ele><time>2026-04-08T07:16:54.999Z</time></trkpt><trkpt lat="45.4524401853643" lon="11.111335434463312"><ele>81.4</ele><time>2026-04-08T07:16:56Z</time></trkpt><trkpt lat="45.452482061057005" lon="11.111223719562027"><ele>79.80000000000001</ele><time>2026-04-08T07:16:57Z</time></trkpt><trkpt lat="45.45251506166249" lon="11.111132485125738"><ele>78.2</ele><time>2026-04-08T07:16:58Z</time></trkpt><trkpt lat="45.45259046672256" lon="11.111027906120418"><ele>76.6</ele><time>2026-04-08T07:17:00Z</time></trkpt><trkpt lat="45.45270171052377" lon="11.111020848546842"><ele>75.0</ele><time>2026-04-08T07:17:02Z</time></trkpt><trkpt lat="45.45278710515024" lon="11.111030485811751"><ele>75.0</ele><time>2026-04-08T07:17:03Z</time></trkpt><trkpt lat="45.45288061102322" lon="11.111031573266601"><ele>75.0</ele><time>2026-04-08T07:17:04Z</time></trkpt><trkpt lat="45.45299714469838" lon="11.111025880257369"><ele>75.0</ele><time>2026-04-08T07:17:05Z</time></trkpt><trkpt lat="45.45311967360333" lon="11.111020828704344"><ele>75.0</ele><time>2026-04-08T07:17:06Z</time></trkpt><trkpt lat="45.45325763832155" lon="11.111017140104968"><ele>75.66666666666667</ele><time>2026-04-08T07:17:07Z</time></trkpt><trkpt lat="45.45340100584973" lon="11.11101160075195"><ele>76.33333333333334</ele><time>2026-04-08T07:17:08Z</time></trkpt><trkpt lat="45.453551060258796" lon="11.11100745640628"><ele>77.0</ele><time>2026-04-08T07:17:09Z</time></trkpt><trkpt lat="45.4537145311062" lon="11.111003264042386"><ele>77.66666666666667</ele><time>2026-04-08T07:17:10Z</time></trkpt><trkpt lat="45.453868111368" lon="11.110998675648991"><ele>78.33333333333333</ele><time>2026-04-08T07:17:11Z</time></trkpt><trkpt lat="45.45402097140369" lon="11.110991595240039"><ele>79.0</ele><time>2026-04-08T07:17:12Z</time></trkpt><trkpt lat="45.4541640218288" lon="11.11098658358665"><ele>79.0</ele><time>2026-04-08T07:17:13Z</time></trkpt><trkpt lat="45.45427757673382" lon="11.110982681857672"><ele>79.0</ele><time>2026-04-08T07:17:14Z</time></trkpt><trkpt lat="45.45436918846439" lon="11.110979345984402"><ele>79.0</ele><time>2026-04-08T07:17:15Z</time></trkpt><trkpt lat="45.454434474475384" lon="11.110977719560998"><ele>79.0</ele><time>2026-04-08T07:17:16Z</time></trkpt><trkpt lat="45.45451703917351" lon="11.110981090816445"><ele>79.0</ele><time>2026-04-08T07:17:18Z</time></trkpt><trkpt lat="45.454550162816204" lon="11.1111458244019"><ele>79.0</ele><time>2026-04-08T07:17:20Z</time></trkpt><trkpt lat="45.45458813532884" lon="11.111276656196397"><ele>79.0</ele><time>2026-04-08T07:17:22Z</time></trkpt><trkpt lat="45.45468846817491" lon="11.111312601311774"><ele>79.0</ele><time>2026-04-08T07:17:24Z</time></trkpt><trkpt lat="45.45479358581781" lon="11.111277268880038"><ele>79.0</ele><time>2026-04-08T07:17:26Z</time></trkpt><trkpt lat="45.45486808291136" lon="11.111248796899634"><ele>79.0</ele><time>2026-04-08T07:17:27Z</time></trkpt><trkpt lat="45.45495193385746" lon="11.111225376072872"><ele>80.2</ele><time>2026-04-08T07:17:28Z</time></trkpt><trkpt lat="45.455045239495675" lon="11.111212858592216"><ele>81.4</ele><time>2026-04-08T07:17:29Z</time></trkpt><trkpt lat="45.455144918289115" lon="11.111209331864142"><ele>82.6</ele><time>2026-04-08T07:17:30Z</time></trkpt><trkpt lat="45.455248073283194" lon="11.111208241306521"><ele>83.8</ele><time>2026-04-08T07:17:31Z</time></trkpt><trkpt lat="45.45534923109178" lon="11.11119937252101"><ele>85.0</ele><time>2026-04-08T07:17:32Z</time></trkpt><trkpt lat="45.45545363058271" lon="11.111184817049429"><ele>85.4</ele><time>2026-04-08T07:17:33Z</time></trkpt><trkpt lat="45.45555428096356" lon="11.11117202122045"><ele>85.8</ele><time>2026-04-08T07:17:34Z</time></trkpt><trkpt lat="45.45564989976092" lon="11.111160409446843"><ele>86.19999999999999</ele><time>2026-04-08T07:17:35Z</time></trkpt><trkpt lat="45.4557453183276" lon="11.111146563449822"><ele>86.6</ele><time>2026-04-08T07:17:36Z</time></trkpt><trkpt lat="45.45584312323087" lon="11.111134055677331"><ele>87.0</ele><time>2026-04-08T07:17:37Z</time></trkpt><trkpt lat="45.455942892181156" lon="11.11113656608422"><ele>87.0</ele><time>2026-04-08T07:17:38Z</time></trkpt><trkpt lat="45.45604744647459" lon="11.11114379080376"><ele>87.0</ele><time>2026-04-08T07:17:39Z</time></trkpt><trkpt lat="45.45615244230904" lon="11.111152214910526"><ele>87.0</ele><time>2026-04-08T07:17:40Z</time></trkpt><trkpt lat="45.4562550455426" lon="11.111170383458475"><ele>87.0</ele><time>2026-04-08T07:17:41Z</time></trkpt><trkpt lat="45.45635340733103" lon="11.111193962195749"><ele>87.0</ele><time>2026-04-08T07:17:42Z</time></trkpt><trkpt lat="45.45645574344437" lon="11.11122224693626"><ele>87.75</ele><time>2026-04-08T07:17:43Z</time></trkpt><trkpt lat="45.456567750890876" lon="11.111260887900682"><ele>88.5</ele><time>2026-04-08T07:17:44Z</time></trkpt><trkpt lat="45.45670551816073" lon="11.111172165336422"><ele>89.25</ele><time>2026-04-08T07:17:45Z</time></trkpt><trkpt lat="45.45682208926744" lon="11.111211022337903"><ele>90.0</ele><time>2026-04-08T07:17:46Z</time></trkpt><trkpt lat="45.45693947111159" lon="11.111250149656042"><ele>90.0</ele><time>2026-04-08T07:17:47Z</time></trkpt><trkpt lat="45.4570252742217" lon="11.111415315104338"><ele>90.0</ele><time>2026-04-08T07:17:48Z</time></trkpt><trkpt lat="45.457120081417095" lon="11.111462491248345"><ele>90.0</ele><time>2026-04-08T07:17:49Z</time></trkpt><trkpt lat="45.45720865407608" lon="11.111514841402705"><ele>90.0</ele><time>2026-04-08T07:17:50Z</time></trkpt><trkpt lat="45.45730833730478" lon="11.111562700204557"><ele>90.0</ele><time>2026-04-08T07:17:51Z</time></trkpt><trkpt lat="45.45741179841084" lon="11.111601263686685"><ele>90.4</ele><time>2026-04-08T07:17:52Z</time></trkpt><trkpt lat="45.45751508354184" lon="11.111632458040553"><ele>90.8</ele><time>2026-04-08T07:17:53Z</time></trkpt><trkpt lat="45.45762203120703" lon="11.11164329162137"><ele>91.19999999999999</ele><time>2026-04-08T07:17:54Z</time></trkpt><trkpt lat="45.45772878938572" lon="11.11163587060489"><ele>91.6</ele><time>2026-04-08T07:17:55Z</time></trkpt><trkpt lat="45.45784040087247" lon="11.111617567334408"><ele>92.0</ele><time>2026-04-08T07:17:56Z</time></trkpt><trkpt lat="45.45795112442826" lon="11.111571666891638"><ele>92.75</ele><time>2026-04-08T07:17:57Z</time></trkpt><trkpt lat="45.458063128936836" lon="11.111528073035485"><ele>93.5</ele><time>2026-04-08T07:17:58Z</time></trkpt><trkpt lat="45.4581683659685" lon="11.111480811073362"><ele>94.25</ele><time>2026-04-08T07:17:59Z</time></trkpt><trkpt lat="45.458282106162585" lon="11.11144922880283"><ele>95.0</ele><time>2026-04-08T07:18:00Z</time></trkpt><trkpt lat="45.458392806557434" lon="11.111414289666785"><ele>95.0</ele><time>2026-04-08T07:18:01Z</time></trkpt><trkpt lat="45.458502145970854" lon="11.111383140313217"><ele>95.0</ele><time>2026-04-08T07:18:02Z</time></trkpt><trkpt lat="45.45860324445494" lon="11.111345122645067"><ele>95.0</ele><time>2026-04-08T07:18:03Z</time></trkpt><trkpt lat="45.458703806424815" lon="11.111332342277842"><ele>95.0</ele><time>2026-04-08T07:18:04Z</time></trkpt><trkpt lat="45.45879235248998" lon="11.111303942014928"><ele>95.0</ele><time>2026-04-08T07:18:05Z</time></trkpt><trkpt lat="45.458850400144065" lon="11.111252553145679"><ele>95.85714285714286</ele><time>2026-04-08T07:18:06Z</time></trkpt><trkpt lat="45.458890759123214" lon="11.111180274255249"><ele>96.71428571428572</ele><time>2026-04-08T07:18:07Z</time></trkpt><trkpt lat="45.458925677537614" lon="11.11108379941098"><ele>97.57142857142857</ele><time>2026-04-08T07:18:08Z</time></trkpt><trkpt lat="45.458966655049394" lon="11.110963755958862"><ele>98.42857142857143</ele><time>2026-04-08T07:18:09Z</time></trkpt><trkpt lat="45.45900659454338" lon="11.110861516729804"><ele>99.28571428571428</ele><time>2026-04-08T07:18:10Z</time></trkpt><trkpt lat="45.459016980061485" lon="11.110768066876352"><ele>100.14285714285714</ele><time>2026-04-08T07:18:11Z</time></trkpt><trkpt lat="45.45903497307589" lon="11.110679641250087"><ele>101.0</ele><time>2026-04-08T07:18:12Z</time></trkpt><trkpt lat="45.45914102313024" lon="11.110632030875196"><ele>101.0</ele><time>2026-04-08T07:18:13Z</time></trkpt><trkpt lat="45.45921057399871" lon="11.11056605700732"><ele>101.0</ele><time>2026-04-08T07:18:14Z</time></trkpt><trkpt lat="45.459313260219574" lon="11.110538276571496"><ele>101.0</ele><time>2026-04-08T07:18:15Z</time></trkpt><trkpt lat="45.459413276451464" lon="11.11049203893652"><ele>101.0</ele><time>2026-04-08T07:18:16Z</time></trkpt><trkpt lat="45.45952511554913" lon="11.110437370387903"><ele>101.0</ele><time>2026-04-08T07:18:17Z</time></trkpt><trkpt lat="45.45964919124429" lon="11.110362191923855"><ele>102.75</ele><time>2026-04-08T07:18:18Z</time></trkpt><trkpt lat="45.459777740494275" lon="11.110293076973706"><ele>104.5</ele><time>2026-04-08T07:18:19Z</time></trkpt><trkpt lat="45.459911143472944" lon="11.110228024377417"><ele>106.25</ele><time>2026-04-08T07:18:20Z</time></trkpt><trkpt lat="45.46004424606497" lon="11.110164123446957"><ele>108.0</ele><time>2026-04-08T07:18:21Z</time></trkpt><trkpt lat="45.460165755157625" lon="11.110104329214034"><ele>108.0</ele><time>2026-04-08T07:18:22Z</time></trkpt><trkpt lat="45.4602876853617" lon="11.110015932292223"><ele>108.0</ele><time>2026-04-08T07:18:23Z</time></trkpt><trkpt lat="45.46042507426777" lon="11.109978992786163"><ele>108.0</ele><time>2026-04-08T07:18:24Z</time></trkpt><trkpt lat="45.460555225663505" lon="11.109939250892483"><ele>108.0</ele><time>2026-04-08T07:18:25Z</time></trkpt><trkpt lat="45.46068304812205" lon="11.109929552512543"><ele>109.0</ele><time>2026-04-08T07:18:26Z</time></trkpt><trkpt lat="45.46081574815962" lon="11.1099458901314"><ele>110.0</ele><time>2026-04-08T07:18:27Z</time></trkpt><trkpt lat="45.46095588157363" lon="11.109946716957397"><ele>111.0</ele><time>2026-04-08T07:18:28Z</time></trkpt><trkpt lat="45.46108980028623" lon="11.109971222547562"><ele>112.0</ele><time>2026-04-08T07:18:29Z</time></trkpt><trkpt lat="45.46121576021295" lon="11.109963455299706"><ele>112.0</ele><time>2026-04-08T07:18:30Z</time></trkpt><trkpt lat="45.461339741713076" lon="11.109922015199704"><ele>112.0</ele><time>2026-04-08T07:18:31Z</time></trkpt><trkpt lat="45.46147005711973" lon="11.10987232926453"><ele>112.0</ele><time>2026-04-08T07:18:32Z</time></trkpt><trkpt lat="45.46160835302356" lon="11.109811052504554"><ele>112.0</ele><time>2026-04-08T07:18:33Z</time></trkpt><trkpt lat="45.46175076357059" lon="11.109732982252343"><ele>112.5</ele><time>2026-04-08T07:18:34Z</time></trkpt><trkpt lat="45.4618840203032" lon="11.109674709639812"><ele>113.0</ele><time>2026-04-08T07:18:35Z</time></trkpt><trkpt lat="45.46201278684659" lon="11.10959479523428"><ele>113.5</ele><time>2026-04-08T07:18:36Z</time></trkpt><trkpt lat="45.46214270159613" lon="11.109525299959827"><ele>114.0</ele><time>2026-04-08T07:18:37Z</time></trkpt><trkpt lat="45.46226276831182" lon="11.109446410325402"><ele>114.0</ele><time>2026-04-08T07:18:38Z</time></trkpt><trkpt lat="45.46238396251516" lon="11.109359747093045"><ele>114.0</ele><time>2026-04-08T07:18:39Z</time></trkpt><trkpt lat="45.462510952902264" lon="11.109268990408776"><ele>114.0</ele><time>2026-04-08T07:18:40Z</time></trkpt><trkpt lat="45.46263514020401" lon="11.109182840389481"><ele>114.0</ele><time>2026-04-08T07:18:41Z</time></trkpt><trkpt lat="45.46275890392312" lon="11.109100815041861"><ele>113.25</ele><time>2026-04-08T07:18:42Z</time></trkpt><trkpt lat="45.462874511815244" lon="11.10900572551952"><ele>112.5</ele><time>2026-04-08T07:18:43Z</time></trkpt><trkpt lat="45.462994553995465" lon="11.108923130001857"><ele>111.75</ele><time>2026-04-08T07:18:44Z</time></trkpt><trkpt lat="45.46311379553329" lon="11.108845852352673"><ele>111.0</ele><time>2026-04-08T07:18:45Z</time></trkpt><trkpt lat="45.46323578421664" lon="11.108770878930843"><ele>112.5</ele><time>2026-04-08T07:18:46Z</time></trkpt><trkpt lat="45.46336241099608" lon="11.108697189188117"><ele>114.0</ele><time>2026-04-08T07:18:47Z</time></trkpt><trkpt lat="45.46349100264906" lon="11.10863142462238"><ele>115.5</ele><time>2026-04-08T07:18:48Z</time></trkpt><trkpt lat="45.46361643909932" lon="11.108578473886947"><ele>117.0</ele><time>2026-04-08T07:18:48.999Z</time></trkpt><trkpt lat="45.463734006374835" lon="11.108540799511324"><ele>118.0</ele><time>2026-04-08T07:18:49.999Z</time></trkpt><trkpt lat="45.46384996520451" lon="11.108510984338002"><ele>118.99999999999999</ele><time>2026-04-08T07:18:50.999Z</time></trkpt><trkpt lat="45.46395777426229" lon="11.108489640195158"><ele>119.99999999999999</ele><time>2026-04-08T07:18:51.999Z</time></trkpt><trkpt lat="45.464066988612856" lon="11.108467872677835"><ele>121.0</ele><time>2026-04-08T07:18:53Z</time></trkpt><trkpt lat="45.464175891042686" lon="11.108449301914286"><ele>122.0</ele><time>2026-04-08T07:18:54Z</time></trkpt><trkpt lat="45.46427103953004" lon="11.108416585007683"><ele>122.0</ele><time>2026-04-08T07:18:55Z</time></trkpt><trkpt lat="45.46435327668748" lon="11.108347494325143"><ele>121.99999999999999</ele><time>2026-04-08T07:18:56Z</time></trkpt><trkpt lat="45.46443242494185" lon="11.10827415044444"><ele>121.99999999999999</ele><time>2026-04-08T07:18:57Z</time></trkpt><trkpt lat="45.46453525686119" lon="11.10827659904207"><ele>122.0</ele><time>2026-04-08T07:18:58Z</time></trkpt><trkpt lat="45.46464740537246" lon="11.108250704073813"><ele>122.0</ele><time>2026-04-08T07:18:59Z</time></trkpt><trkpt lat="45.46476462811236" lon="11.108206832765136"><ele>122.5</ele><time>2026-04-08T07:19:00Z</time></trkpt><trkpt lat="45.46487605244859" lon="11.108127992452195"><ele>123.0</ele><time>2026-04-08T07:19:01Z</time></trkpt><trkpt lat="45.46498832066926" lon="11.108046881213495"><ele>123.5</ele><time>2026-04-08T07:19:02Z</time></trkpt><trkpt lat="45.46510572460047" lon="11.107967395890688"><ele>124.0</ele><time>2026-04-08T07:19:03Z</time></trkpt><trkpt lat="45.46522786265628" lon="11.107890696006201"><ele>124.0</ele><time>2026-04-08T07:19:04Z</time></trkpt><trkpt lat="45.46534891086808" lon="11.107817306645488"><ele>124.0</ele><time>2026-04-08T07:19:05Z</time></trkpt><trkpt lat="45.465452504014536" lon="11.10775423693053"><ele>124.0</ele><time>2026-04-08T07:19:06Z</time></trkpt><trkpt lat="45.46554603071904" lon="11.107698397451674"><ele>124.0</ele><time>2026-04-08T07:19:07Z</time></trkpt><trkpt lat="45.46564861756744" lon="11.10764035692737"><ele>125.0</ele><time>2026-04-08T07:19:08Z</time></trkpt><trkpt lat="45.46574248571844" lon="11.107592445834495"><ele>126.0</ele><time>2026-04-08T07:19:09Z</time></trkpt><trkpt lat="45.46582371116064" lon="11.107534094738552"><ele>127.0</ele><time>2026-04-08T07:19:10Z</time></trkpt><trkpt lat="45.46590448892294" lon="11.107480839553594"><ele>128.0</ele><time>2026-04-08T07:19:11Z</time></trkpt><trkpt lat="45.46596585464101" lon="11.107388233654053"><ele>129.0</ele><time>2026-04-08T07:19:12Z</time></trkpt><trkpt lat="45.46602439638631" lon="11.107300967745362"><ele>129.0</ele><time>2026-04-08T07:19:13Z</time></trkpt><trkpt lat="45.46608030509702" lon="11.107212808155452"><ele>129.0</ele><time>2026-04-08T07:19:14Z</time></trkpt><trkpt lat="45.46611849839833" lon="11.10711121994294"><ele>129.0</ele><time>2026-04-08T07:19:15Z</time></trkpt><trkpt lat="45.466173498166015" lon="11.107024509585901"><ele>129.0</ele><time>2026-04-08T07:19:16Z</time></trkpt><trkpt lat="45.46619898498805" lon="11.106930637763593"><ele>129.0</ele><time>2026-04-08T07:19:17Z</time></trkpt><trkpt lat="45.46621663490907" lon="11.106750585166933"><ele>129.0</ele><time>2026-04-08T07:19:19Z</time></trkpt><trkpt lat="45.46621774519008" lon="11.106621659382832"><ele>130.2</ele><time>2026-04-08T07:19:21Z</time></trkpt><trkpt lat="45.46637031020075" lon="11.106655297050512"><ele>131.4</ele><time>2026-04-08T07:19:27Z</time></trkpt><trkpt lat="45.46648538699931" lon="11.106641106997909"><ele>132.6</ele><time>2026-04-08T07:19:29Z</time></trkpt><trkpt lat="45.46655530467517" lon="11.106626497857903"><ele>133.8</ele><time>2026-04-08T07:19:30Z</time></trkpt><trkpt lat="45.46662352361117" lon="11.106608768340154"><ele>135.0</ele><time>2026-04-08T07:19:31Z</time></trkpt><trkpt lat="45.46669582574264" lon="11.106589977752451"><ele>134.6</ele><time>2026-04-08T07:19:32Z</time></trkpt><trkpt lat="45.466820962296936" lon="11.106551183708948"><ele>134.2</ele><time>2026-04-08T07:19:34Z</time></trkpt><trkpt lat="45.466919775018084" lon="11.106517544906762"><ele>133.8</ele><time>2026-04-08T07:19:36Z</time></trkpt><trkpt lat="45.46699798696375" lon="11.106490194664728"><ele>133.4</ele><time>2026-04-08T07:19:38Z</time></trkpt><trkpt lat="45.467096440909046" lon="11.106455766089312"><ele>133.0</ele><time>2026-04-08T07:19:40Z</time></trkpt><trkpt lat="45.46716017083098" lon="11.106417361843574"><ele>147.0</ele><time>2026-04-08T07:19:42Z</time></trkpt><trkpt lat="45.467501780269366" lon="11.106925721469477"><ele>147.0</ele><time>2026-04-08T07:19:45Z</time></trkpt><trkpt lat="45.46756194869395" lon="11.107017192180432"><ele>147.0</ele><time>2026-04-08T07:19:47Z</time></trkpt><trkpt lat="45.467605511209705" lon="11.107088880173439"><ele>147.0</ele><time>2026-04-08T07:19:48Z</time></trkpt><trkpt lat="45.46766280318153" lon="11.107155691681848"><ele>147.0</ele><time>2026-04-08T07:19:49Z</time></trkpt><trkpt lat="45.46772665563652" lon="11.107181462788853"><ele>147.0</ele><time>2026-04-08T07:19:50Z</time></trkpt><trkpt lat="45.4678059771093" lon="11.107175227419155"><ele>147.0</ele><time>2026-04-08T07:19:51Z</time></trkpt><trkpt lat="45.46786840355647" lon="11.10713308078899"><ele>147.0</ele><time>2026-04-08T07:19:52Z</time></trkpt><trkpt lat="45.46798619267015" lon="11.107139743723142"><ele>149.8</ele><time>2026-04-08T07:19:54Z</time></trkpt><trkpt lat="45.468124261811596" lon="11.107173566788068"><ele>152.6</ele><time>2026-04-08T07:19:56Z</time></trkpt><trkpt lat="45.46822299289081" lon="11.107192450487565"><ele>155.4</ele><time>2026-04-08T07:19:57Z</time></trkpt><trkpt lat="45.468314364993915" lon="11.107236589996589"><ele>158.20000000000002</ele><time>2026-04-08T07:19:58Z</time></trkpt><trkpt lat="45.46837380488076" lon="11.107276379364434"><ele>161.0</ele><time>2026-04-08T07:19:59Z</time></trkpt><trkpt lat="45.4684260627217" lon="11.107345824731736"><ele>161.0</ele><time>2026-04-08T07:20:00Z</time></trkpt><trkpt lat="45.46848810145998" lon="11.107395266766128"><ele>161.0</ele><time>2026-04-08T07:20:01Z</time></trkpt><trkpt lat="45.46855762935435" lon="11.107414324537487"><ele>161.0</ele><time>2026-04-08T07:20:02Z</time></trkpt><trkpt lat="45.46863475717923" lon="11.107458041775692"><ele>161.0</ele><time>2026-04-08T07:20:03Z</time></trkpt><trkpt lat="45.468759065028586" lon="11.107541880400401"><ele>161.0</ele><time>2026-04-08T07:20:05Z</time></trkpt><trkpt lat="45.46883362710026" lon="11.10757152236573"><ele>161.0</ele><time>2026-04-08T07:20:06Z</time></trkpt><trkpt lat="45.46891877839081" lon="11.107609938073736"><ele>164.33333333333331</ele><time>2026-04-08T07:20:07Z</time></trkpt><trkpt lat="45.46898711181152" lon="11.107657129924126"><ele>167.66666666666666</ele><time>2026-04-08T07:20:08Z</time></trkpt><trkpt lat="45.46907988788531" lon="11.107751478339251"><ele>171.0</ele><time>2026-04-08T07:20:10Z</time></trkpt><trkpt lat="45.46907177335388" lon="11.10788316535894"><ele>174.33333333333334</ele><time>2026-04-08T07:20:12Z</time></trkpt><trkpt lat="45.46903864534237" lon="11.107961916390162"><ele>177.66666666666669</ele><time>2026-04-08T07:20:13Z</time></trkpt><trkpt lat="45.46901214099197" lon="11.108096670734911"><ele>181.0</ele><time>2026-04-08T07:20:15Z</time></trkpt><trkpt lat="45.46908898647844" lon="11.108083990948339"><ele>181.0</ele><time>2026-04-08T07:20:18Z</time></trkpt><trkpt lat="45.469122723151905" lon="11.10795471759384"><ele>181.0</ele><time>2026-04-08T07:20:20Z</time></trkpt><trkpt lat="45.46921184666022" lon="11.107907387474059"><ele>181.0</ele><time>2026-04-08T07:20:22Z</time></trkpt><trkpt lat="45.469292262103316" lon="11.10797165656159"><ele>181.0</ele><time>2026-04-08T07:20:24Z</time></trkpt><trkpt lat="45.4693771921237" lon="11.107968240931779"><ele>181.0</ele><time>2026-04-08T07:20:26Z</time></trkpt><trkpt lat="45.46944825739605" lon="11.10801570255623"><ele>181.0</ele><time>2026-04-08T07:20:29Z</time></trkpt><trkpt lat="45.4694316262609" lon="11.108184634662688"><ele>182.33333333333334</ele><time>2026-04-08T07:20:31Z</time></trkpt><trkpt lat="45.46943544941877" lon="11.108279075865441"><ele>183.66666666666669</ele><time>2026-04-08T07:20:32Z</time></trkpt><trkpt lat="45.46944285792058" lon="11.108370622831647"><ele>185.0</ele><time>2026-04-08T07:20:33Z</time></trkpt><trkpt lat="45.469469228642936" lon="11.10845953643779"><ele>186.33333333333334</ele><time>2026-04-08T07:20:34Z</time></trkpt><trkpt lat="45.46947510187481" lon="11.108653212452905"><ele>187.66666666666666</ele><time>2026-04-08T07:20:36Z</time></trkpt><trkpt lat="45.46950304615381" lon="11.108739526580921"><ele>189.0</ele><time>2026-04-08T07:20:37Z</time></trkpt><trkpt lat="45.46951775242842" lon="11.108826892819234"><ele>189.0</ele><time>2026-04-08T07:20:38Z</time></trkpt><trkpt lat="45.46958291098898" lon="11.108986935837049"><ele>189.0</ele><time>2026-04-08T07:20:40Z</time></trkpt><trkpt lat="45.469635351227176" lon="11.109071228864696"><ele>189.0</ele><time>2026-04-08T07:20:41Z</time></trkpt><trkpt lat="45.46969452990897" lon="11.10914992462078"><ele>189.0</ele><time>2026-04-08T07:20:42Z</time></trkpt><trkpt lat="45.46974540332458" lon="11.10923139054997"><ele>189.0</ele><time>2026-04-08T07:20:43Z</time></trkpt><trkpt lat="45.46978401239377" lon="11.109309432206361"><ele>189.0</ele><time>2026-04-08T07:20:44Z</time></trkpt><trkpt lat="45.4698422415801" lon="11.109385908526116"><ele>194.79999999999998</ele><time>2026-04-08T07:20:45Z</time></trkpt><trkpt lat="45.46991253752125" lon="11.109452766301038"><ele>200.6</ele><time>2026-04-08T07:20:46Z</time></trkpt><trkpt lat="45.46998746081504" lon="11.109488429828371"><ele>206.4</ele><time>2026-04-08T07:20:47Z</time></trkpt><trkpt lat="45.47011695595491" lon="11.109531322319812"><ele>212.2</ele><time>2026-04-08T07:20:49Z</time></trkpt><trkpt lat="45.470183505706" lon="11.109597519477326"><ele>218.0</ele><time>2026-04-08T07:20:50Z</time></trkpt><trkpt lat="45.470235704691994" lon="11.109674355937482"><ele>218.00000000000003</ele><time>2026-04-08T07:20:51Z</time></trkpt><trkpt lat="45.470288683814495" lon="11.109750150566171"><ele>218.0</ele><time>2026-04-08T07:20:52Z</time></trkpt><trkpt lat="45.470352644442805" lon="11.109821350090234"><ele>218.0</ele><time>2026-04-08T07:20:53Z</time></trkpt><trkpt lat="45.47040770049695" lon="11.109900972421746"><ele>218.0</ele><time>2026-04-08T07:20:53.997Z</time></trkpt><trkpt lat="45.470457808491545" lon="11.10998451355712"><ele>218.00000000000003</ele><time>2026-04-08T07:20:54.997Z</time></trkpt><trkpt lat="45.47053516086617" lon="11.110028399118262"><ele>218.0</ele><time>2026-04-08T07:20:55.997Z</time></trkpt><trkpt lat="45.47060123390231" lon="11.110047912993538"><ele>221.66666666666669</ele><time>2026-04-08T07:20:56.997Z</time></trkpt><trkpt lat="45.470677800948806" lon="11.110060652534127"><ele>225.33333333333334</ele><time>2026-04-08T07:20:57.998Z</time></trkpt><trkpt lat="45.4707615289769" lon="11.110073345799885"><ele>229.0</ele><time>2026-04-08T07:20:58.998Z</time></trkpt><trkpt lat="45.470848763381625" lon="11.110098495023747"><ele>232.66666666666669</ele><time>2026-04-08T07:20:59.998Z</time></trkpt><trkpt lat="45.47092714873467" lon="11.110108305100617"><ele>236.33333333333334</ele><time>2026-04-08T07:21:00.998Z</time></trkpt><trkpt lat="45.47101089137987" lon="11.110126762102706"><ele>240.0</ele><time>2026-04-08T07:21:01.998Z</time></trkpt><trkpt lat="45.471072648002064" lon="11.110204876660312"><ele>240.0</ele><time>2026-04-08T07:21:02.998Z</time></trkpt><trkpt lat="45.47121474842403" lon="11.110028459314496"><ele>240.0</ele><time>2026-04-08T07:21:03.998Z</time></trkpt><trkpt lat="45.471306036784334" lon="11.110030515678444"><ele>240.0</ele><time>2026-04-08T07:21:04.998Z</time></trkpt><trkpt lat="45.47137415015407" lon="11.109983416948488"><ele>240.0</ele><time>2026-04-08T07:21:05.998Z</time></trkpt><trkpt lat="45.47143973676571" lon="11.10993525769607"><ele>240.0</ele><time>2026-04-08T07:21:06.998Z</time></trkpt><trkpt lat="45.47153964319732" lon="11.109881912240523"><ele>239.8</ele><time>2026-04-08T07:21:07.998Z</time></trkpt><trkpt lat="45.471649015327586" lon="11.10985933075417"><ele>239.6</ele><time>2026-04-08T07:21:08.998Z</time></trkpt><trkpt lat="45.471749933328994" lon="11.109829199337058"><ele>239.39999999999998</ele><time>2026-04-08T07:21:09.998Z</time></trkpt><trkpt lat="45.47183592615177" lon="11.109803598549332"><ele>239.2</ele><time>2026-04-08T07:21:10.998Z</time></trkpt><trkpt lat="45.47192674381749" lon="11.10977606276833"><ele>239.0</ele><time>2026-04-08T07:21:11.998Z</time></trkpt><trkpt lat="45.472010806225825" lon="11.1097529707545"><ele>239.0</ele><time>2026-04-08T07:21:12.998Z</time></trkpt><trkpt lat="45.472099465256214" lon="11.109729957661843"><ele>238.99999999999997</ele><time>2026-04-08T07:21:13.998Z</time></trkpt><trkpt lat="45.47218375808884" lon="11.10968365252806"><ele>238.99999999999997</ele><time>2026-04-08T07:21:14.998Z</time></trkpt><trkpt lat="45.47225842644967" lon="11.109658728051189"><ele>239.0</ele><time>2026-04-08T07:21:15.999Z</time></trkpt><trkpt lat="45.47234497838146" lon="11.109660415779027"><ele>239.0</ele><time>2026-04-08T07:21:16.999Z</time></trkpt><trkpt lat="45.472450421497165" lon="11.109633699206636"><ele>241.2</ele><time>2026-04-08T07:21:17.999Z</time></trkpt><trkpt lat="45.47254296066742" lon="11.109592665341214"><ele>243.39999999999998</ele><time>2026-04-08T07:21:18.999Z</time></trkpt><trkpt lat="45.47262711286354" lon="11.109525631338173"><ele>245.6</ele><time>2026-04-08T07:21:19.999Z</time></trkpt><trkpt lat="45.47272868236535" lon="11.109467774646705"><ele>247.8</ele><time>2026-04-08T07:21:20.999Z</time></trkpt><trkpt lat="45.47282397737872" lon="11.109419977770171"><ele>250.0</ele><time>2026-04-08T07:21:21.999Z</time></trkpt><trkpt lat="45.47293287519669" lon="11.109407118275952"><ele>253.25</ele><time>2026-04-08T07:21:22.999Z</time></trkpt><trkpt lat="45.47304051323668" lon="11.10938586719603"><ele>256.5</ele><time>2026-04-08T07:21:23.999Z</time></trkpt><trkpt lat="45.47316949909771" lon="11.109346737971887"><ele>259.75</ele><time>2026-04-08T07:21:24.999Z</time></trkpt><trkpt lat="45.47329866554821" lon="11.109302501247418"><ele>263.0</ele><time>2026-04-08T07:21:25.999Z</time></trkpt><trkpt lat="45.47343239378782" lon="11.109259223474512"><ele>263.0</ele><time>2026-04-08T07:21:26.999Z</time></trkpt><trkpt lat="45.47357113249317" lon="11.10921524989304"><ele>263.0</ele><time>2026-04-08T07:21:27.999Z</time></trkpt><trkpt lat="45.47368622601358" lon="11.109170551059982"><ele>263.0</ele><time>2026-04-08T07:21:28.999Z</time></trkpt><trkpt lat="45.47379284081947" lon="11.109136806801594"><ele>263.0</ele><time>2026-04-08T07:21:29.999Z</time></trkpt><trkpt lat="45.47388020538407" lon="11.109111172783763"><ele>265.6</ele><time>2026-04-08T07:21:30.999Z</time></trkpt><trkpt lat="45.473956299411896" lon="11.109082546361048"><ele>268.20000000000005</ele><time>2026-04-08T07:21:31.999Z</time></trkpt><trkpt lat="45.474010628491925" lon="11.109016398006167"><ele>270.8</ele><time>2026-04-08T07:21:32.999Z</time></trkpt><trkpt lat="45.474058177447546" lon="11.108955595138768"><ele>273.40000000000003</ele><time>2026-04-08T07:21:33.999Z</time></trkpt><trkpt lat="45.4740823160676" lon="11.108769027198596"><ele>276.0</ele><time>2026-04-08T07:21:35.999Z</time></trkpt><trkpt lat="45.47406372824567" lon="11.108623588196458"><ele>276.0</ele><time>2026-04-08T07:21:36.999Z</time></trkpt><trkpt lat="45.474058938404355" lon="11.108466546912224"><ele>276.0</ele><time>2026-04-08T07:21:37.999Z</time></trkpt><trkpt lat="45.4740656393515" lon="11.108333261533708"><ele>276.0</ele><time>2026-04-08T07:21:38.999Z</time></trkpt><trkpt lat="45.47408336829389" lon="11.108192374273484"><ele>276.0</ele><time>2026-04-08T07:21:39.999Z</time></trkpt><trkpt lat="45.474118596124946" lon="11.10804431077582"><ele>276.0</ele><time>2026-04-08T07:21:40.999Z</time></trkpt><trkpt lat="45.47417197963535" lon="11.107898567586215"><ele>275.8</ele><time>2026-04-08T07:21:41.999Z</time></trkpt><trkpt lat="45.474214639138275" lon="11.107773112905624"><ele>275.6</ele><time>2026-04-08T07:21:42.999Z</time></trkpt><trkpt lat="45.474255656705076" lon="11.107632107287104"><ele>275.4</ele><time>2026-04-08T07:21:43.999Z</time></trkpt><trkpt lat="45.47433526052798" lon="11.107510709827888"><ele>275.2</ele><time>2026-04-08T07:21:44.999Z</time></trkpt><trkpt lat="45.47441362162418" lon="11.107369937068166"><ele>275.0</ele><time>2026-04-08T07:21:45.999Z</time></trkpt><trkpt lat="45.474489056039054" lon="11.107257710586616"><ele>274.6</ele><time>2026-04-08T07:21:46.999Z</time></trkpt><trkpt lat="45.47455792210864" lon="11.10714826071529"><ele>274.2</ele><time>2026-04-08T07:21:47.999Z</time></trkpt><trkpt lat="45.47467403210419" lon="11.107170162181298"><ele>273.8</ele><time>2026-04-08T07:21:48.999Z</time></trkpt><trkpt lat="45.47473837860433" lon="11.107117823618063"><ele>273.4</ele><time>2026-04-08T07:21:49.999Z</time></trkpt><trkpt lat="45.47479637116093" lon="11.107042381078406"><ele>273.0</ele><time>2026-04-08T07:21:50.999Z</time></trkpt><trkpt lat="45.47487779352797" lon="11.106951129002391"><ele>274.8</ele><time>2026-04-08T07:21:51.999Z</time></trkpt><trkpt lat="45.4749730482188" lon="11.106879804676948"><ele>276.6</ele><time>2026-04-08T07:21:52.999Z</time></trkpt><trkpt lat="45.47505159976187" lon="11.106792973024497"><ele>278.4</ele><time>2026-04-08T07:21:53.999Z</time></trkpt><trkpt lat="45.47515791175003" lon="11.1067859612152"><ele>280.2</ele><time>2026-04-08T07:21:54.999Z</time></trkpt><trkpt lat="45.475248903005266" lon="11.106733075391158"><ele>282.0</ele><time>2026-04-08T07:21:55.999Z</time></trkpt><trkpt lat="45.47533155058915" lon="11.106672428440094"><ele>280.2</ele><time>2026-04-08T07:21:56.999Z</time></trkpt><trkpt lat="45.475402034478854" lon="11.10657613432499"><ele>278.4</ele><time>2026-04-08T07:21:57.999Z</time></trkpt><trkpt lat="45.47548058387942" lon="11.106466276278919"><ele>276.6</ele><time>2026-04-08T07:21:58.999Z</time></trkpt><trkpt lat="45.47556109972193" lon="11.106361159902946"><ele>274.8</ele><time>2026-04-08T07:21:59.999Z</time></trkpt><trkpt lat="45.475635691347655" lon="11.106329194663616"><ele>273.0</ele><time>2026-04-08T07:22:00.999Z</time></trkpt><trkpt lat="45.47570103452126" lon="11.10629912223536"><ele>272.8333333333333</ele><time>2026-04-08T07:22:01.999Z</time></trkpt><trkpt lat="45.475816108331614" lon="11.10634843677901"><ele>272.6666666666667</ele><time>2026-04-08T07:22:03.999Z</time></trkpt><trkpt lat="45.47587264713843" lon="11.10642467734591"><ele>272.5</ele><time>2026-04-08T07:22:04.999Z</time></trkpt><trkpt lat="45.475877248257106" lon="11.106555226982538"><ele>272.33333333333337</ele><time>2026-04-08T07:22:05.999Z</time></trkpt><trkpt lat="45.47588342699723" lon="11.106649123645145"><ele>272.1666666666667</ele><time>2026-04-08T07:22:06.999Z</time></trkpt><trkpt lat="45.47589353276708" lon="11.10675095014042"><ele>272.0</ele><time>2026-04-08T07:22:08.999Z</time></trkpt><trkpt lat="45.47601482216197" lon="11.10672939107273"><ele>274.0</ele><time>2026-04-08T07:22:09.999Z</time></trkpt><trkpt lat="45.47609935567228" lon="11.106714653561552"><ele>276.0</ele><time>2026-04-08T07:22:10.999Z</time></trkpt><trkpt lat="45.476186145293326" lon="11.106774238925203"><ele>278.0</ele><time>2026-04-08T07:22:11.999Z</time></trkpt><trkpt lat="45.47627385690988" lon="11.106839695104455"><ele>280.0</ele><time>2026-04-08T07:22:12.999Z</time></trkpt><trkpt lat="45.47635857241131" lon="11.106934769209547"><ele>282.0</ele><time>2026-04-08T07:22:13.999Z</time></trkpt><trkpt lat="45.47643128318678" lon="11.107052441945639"><ele>282.0</ele><time>2026-04-08T07:22:14.999Z</time></trkpt><trkpt lat="45.476509965877256" lon="11.107152144985411"><ele>282.0</ele><time>2026-04-08T07:22:15.999Z</time></trkpt><trkpt lat="45.47657354990101" lon="11.107243436588906"><ele>282.0</ele><time>2026-04-08T07:22:16.999Z</time></trkpt><trkpt lat="45.47666808567906" lon="11.107261068172608"><ele>282.0</ele><time>2026-04-08T07:22:17.999Z</time></trkpt><trkpt lat="45.476774552927424" lon="11.107268338608074"><ele>282.0</ele><time>2026-04-08T07:22:18.999Z</time></trkpt><trkpt lat="45.47689983647707" lon="11.107280557871082"><ele>282.0</ele><time>2026-04-08T07:22:19.999Z</time></trkpt><trkpt lat="45.47701958700601" lon="11.107259367895526"><ele>282.0</ele><time>2026-04-08T07:22:20.999Z</time></trkpt><trkpt lat="45.477138460419674" lon="11.107267787800197"><ele>282.0</ele><time>2026-04-08T07:22:21.999Z</time></trkpt><trkpt lat="45.47725413648708" lon="11.107267779159201"><ele>282.0</ele><time>2026-04-08T07:22:22.999Z</time></trkpt><trkpt lat="45.477342940413365" lon="11.107306109280296"><ele>282.0</ele><time>2026-04-08T07:22:24Z</time></trkpt><trkpt lat="45.477407722985774" lon="11.107346403369277"><ele>281.6</ele><time>2026-04-08T07:22:25Z</time></trkpt><trkpt lat="45.4774931984281" lon="11.107298197658706"><ele>281.2</ele><time>2026-04-08T07:22:26Z</time></trkpt><trkpt lat="45.47756134920257" lon="11.107246085047654"><ele>280.8</ele><time>2026-04-08T07:22:28Z</time></trkpt><trkpt lat="45.4776262561445" lon="11.107439634913547"><ele>280.4</ele><time>2026-04-08T07:22:31Z</time></trkpt><trkpt lat="45.47760879814008" lon="11.107534464463019"><ele>280.0</ele><time>2026-04-08T07:22:32Z</time></trkpt><trkpt lat="45.47757763139715" lon="11.107640975120713"><ele>279.4</ele><time>2026-04-08T07:22:33Z</time></trkpt><trkpt lat="45.47754668700139" lon="11.107744656193718"><ele>278.8</ele><time>2026-04-08T07:22:34Z</time></trkpt><trkpt lat="45.477519492935684" lon="11.107837186748423"><ele>278.2</ele><time>2026-04-08T07:22:35Z</time></trkpt><trkpt lat="45.47750286929994" lon="11.107932907235341"><ele>277.6</ele><time>2026-04-08T07:22:36Z</time></trkpt><trkpt lat="45.477458639909074" lon="11.10809893161843"><ele>277.0</ele><time>2026-04-08T07:22:38Z</time></trkpt><trkpt lat="45.47738864049768" lon="11.108247711363497"><ele>275.16666666666663</ele><time>2026-04-08T07:22:40Z</time></trkpt><trkpt lat="45.47736273673622" lon="11.108348158604768"><ele>273.3333333333333</ele><time>2026-04-08T07:22:41Z</time></trkpt><trkpt lat="45.47735231504501" lon="11.108452952979597"><ele>271.5</ele><time>2026-04-08T07:22:42Z</time></trkpt><trkpt lat="45.47736511567699" lon="11.108585580934209"><ele>269.6666666666667</ele><time>2026-04-08T07:22:43Z</time></trkpt><trkpt lat="45.47736773290965" lon="11.108691114217015"><ele>267.83333333333337</ele><time>2026-04-08T07:22:44Z</time></trkpt><trkpt lat="45.4773595170277" lon="11.108808447531079"><ele>266.0</ele><time>2026-04-08T07:22:46Z</time></trkpt><trkpt lat="45.47738996921997" lon="11.108925906934912"><ele>266.0</ele><time>2026-04-08T07:22:49Z</time></trkpt><trkpt lat="45.47747359098571" lon="11.10885018864072"><ele>266.0</ele><time>2026-04-08T07:22:51Z</time></trkpt><trkpt lat="45.47750129698278" lon="11.108766395663912"><ele>266.0</ele><time>2026-04-08T07:22:52Z</time></trkpt><trkpt lat="45.47753924027841" lon="11.108678278975313"><ele>266.0</ele><time>2026-04-08T07:22:53Z</time></trkpt><trkpt lat="45.47756601258809" lon="11.108593998376726"><ele>266.0</ele><time>2026-04-08T07:22:54Z</time></trkpt><trkpt lat="45.47763223426258" lon="11.108652334658196"><ele>266.0</ele><time>2026-04-08T07:22:56Z</time></trkpt><trkpt lat="45.47759914914808" lon="11.108835634714799"><ele>266.0</ele><time>2026-04-08T07:22:58Z</time></trkpt><trkpt lat="45.47756879351386" lon="11.108936231582284"><ele>266.0</ele><time>2026-04-08T07:22:59Z</time></trkpt><trkpt lat="45.47755180631008" lon="11.109069193715312"><ele>266.0</ele><time>2026-04-08T07:22:59.999Z</time></trkpt><trkpt lat="45.47748774971518" lon="11.109227860733663"><ele>266.0</ele><time>2026-04-08T07:23:01.999Z</time></trkpt><trkpt lat="45.47751240157536" lon="11.109358348613933"><ele>266.0</ele><time>2026-04-08T07:23:03.999Z</time></trkpt><trkpt lat="45.47751932533144" lon="11.109465902957579"><ele>263.6666666666667</ele><time>2026-04-08T07:23:04.999Z</time></trkpt><trkpt lat="45.477521811901134" lon="11.109576798845879"><ele>261.33333333333337</ele><time>2026-04-08T07:23:05.999Z</time></trkpt><trkpt lat="45.47751954967912" lon="11.10969819313037"><ele>259.0</ele><time>2026-04-08T07:23:06.999Z</time></trkpt><trkpt lat="45.47751653134969" lon="11.109788678495837"><ele>256.6666666666667</ele><time>2026-04-08T07:23:07.999Z</time></trkpt><trkpt lat="45.477535347976875" lon="11.109937723713427"><ele>254.33333333333334</ele><time>2026-04-08T07:23:09.999Z</time></trkpt><trkpt lat="45.47754990468907" lon="11.110030403510367"><ele>252.0</ele><time>2026-04-08T07:23:10.999Z</time></trkpt><trkpt lat="45.47757882255751" lon="11.110115965888689"><ele>249.8</ele><time>2026-04-08T07:23:11.999Z</time></trkpt><trkpt lat="45.477609337899594" lon="11.11020620342313"><ele>247.6</ele><time>2026-04-08T07:23:12.999Z</time></trkpt><trkpt lat="45.47763604483016" lon="11.110370643092837"><ele>245.40000000000003</ele><time>2026-04-08T07:23:14.999Z</time></trkpt><trkpt lat="45.47762757463964" lon="11.11051285864011"><ele>243.20000000000002</ele><time>2026-04-08T07:23:16.999Z</time></trkpt><trkpt lat="45.477616502815735" lon="11.110621867750451"><ele>241.0</ele><time>2026-04-08T07:23:18.999Z</time></trkpt><trkpt lat="45.477652698711324" lon="11.110737687230559"><ele>239.83333333333331</ele><time>2026-04-08T07:23:20.999Z</time></trkpt><trkpt lat="45.47772559551285" lon="11.110790300938522"><ele>238.66666666666666</ele><time>2026-04-08T07:23:23Z</time></trkpt><trkpt lat="45.47780262263162" lon="11.110807344581264"><ele>237.5</ele><time>2026-04-08T07:23:24Z</time></trkpt><trkpt lat="45.477843764780836" lon="11.110882596432438"><ele>236.33333333333331</ele><time>2026-04-08T07:23:25Z</time></trkpt><trkpt lat="45.47785682180222" lon="11.110999988846407"><ele>235.16666666666666</ele><time>2026-04-08T07:23:26Z</time></trkpt><trkpt lat="45.477855663174644" lon="11.111113117974636"><ele>234.0</ele><time>2026-04-08T07:23:27Z</time></trkpt><trkpt lat="45.47782007170249" lon="11.111229741823355"><ele>234.0</ele><time>2026-04-08T07:23:28Z</time></trkpt><trkpt lat="45.477757984969855" lon="11.111335077407508"><ele>234.0</ele><time>2026-04-08T07:23:29Z</time></trkpt><trkpt lat="45.47773807935491" lon="11.111454391850058"><ele>234.0</ele><time>2026-04-08T07:23:30Z</time></trkpt><trkpt lat="45.47773689702917" lon="11.11157057327019"><ele>234.0</ele><time>2026-04-08T07:23:31Z</time></trkpt><trkpt lat="45.477723377231" lon="11.111674672682812"><ele>234.0</ele><time>2026-04-08T07:23:32Z</time></trkpt><trkpt lat="45.47771538575337" lon="11.111773758406798"><ele>234.0</ele><time>2026-04-08T07:23:33Z</time></trkpt><trkpt lat="45.47769293100706" lon="11.111955374013654"><ele>232.33333333333334</ele><time>2026-04-08T07:23:35Z</time></trkpt><trkpt lat="45.47768795588893" lon="11.112058275411085"><ele>230.66666666666669</ele><time>2026-04-08T07:23:36Z</time></trkpt><trkpt lat="45.47768470585687" lon="11.112163456814713"><ele>229.0</ele><time>2026-04-08T07:23:37Z</time></trkpt><trkpt lat="45.477679031570325" lon="11.112285378901905"><ele>227.33333333333334</ele><time>2026-04-08T07:23:38Z</time></trkpt><trkpt lat="45.47767277482656" lon="11.11240107952286"><ele>225.66666666666669</ele><time>2026-04-08T07:23:39Z</time></trkpt><trkpt lat="45.47766370221971" lon="11.11250059147211"><ele>224.0</ele><time>2026-04-08T07:23:40Z</time></trkpt><trkpt lat="45.4776377276752" lon="11.112596753297806"><ele>222.33333333333334</ele><time>2026-04-08T07:23:41Z</time></trkpt><trkpt lat="45.477607807348186" lon="11.112687923632189"><ele>220.66666666666669</ele><time>2026-04-08T07:23:42Z</time></trkpt><trkpt lat="45.47759316982248" lon="11.112831415021327"><ele>219.0</ele><time>2026-04-08T07:23:44Z</time></trkpt><trkpt lat="45.47761029175973" lon="11.112922003763641"><ele>217.33333333333331</ele><time>2026-04-08T07:23:45Z</time></trkpt><trkpt lat="45.4776625133049" lon="11.113005224664676"><ele>215.66666666666666</ele><time>2026-04-08T07:23:46Z</time></trkpt><trkpt lat="45.47770611911963" lon="11.113106713805768"><ele>214.0</ele><time>2026-04-08T07:23:47Z</time></trkpt><trkpt lat="45.47774870316187" lon="11.113219321250641"><ele>211.33333333333331</ele><time>2026-04-08T07:23:48Z</time></trkpt><trkpt lat="45.47779996836122" lon="11.113306359367623"><ele>208.66666666666666</ele><time>2026-04-08T07:23:49Z</time></trkpt><trkpt lat="45.47782969415191" lon="11.113388474547708"><ele>206.0</ele><time>2026-04-08T07:23:50Z</time></trkpt><trkpt lat="45.47786766914004" lon="11.113477075484159"><ele>203.33333333333331</ele><time>2026-04-08T07:23:51Z</time></trkpt><trkpt lat="45.477868610850756" lon="11.113567423195482"><ele>200.66666666666666</ele><time>2026-04-08T07:23:52Z</time></trkpt><trkpt lat="45.47782799338235" lon="11.113716250424428"><ele>198.0</ele><time>2026-04-08T07:23:54Z</time></trkpt><trkpt lat="45.47771819362711" lon="11.11379873862484"><ele>198.0</ele><time>2026-04-08T07:23:56Z</time></trkpt><trkpt lat="45.47765657469734" lon="11.113855173441035"><ele>198.0</ele><time>2026-04-08T07:23:57Z</time></trkpt><trkpt lat="45.47759519420204" lon="11.113940029680608"><ele>198.0</ele><time>2026-04-08T07:23:58Z</time></trkpt><trkpt lat="45.4775597365612" lon="11.114041960846764"><ele>198.0</ele><time>2026-04-08T07:23:59Z</time></trkpt><trkpt lat="45.47751403274966" lon="11.114162441600827"><ele>198.0</ele><time>2026-04-08T07:24:00Z</time></trkpt><trkpt lat="45.47746478532868" lon="11.114289814750338"><ele>198.0</ele><time>2026-04-08T07:24:01Z</time></trkpt><trkpt lat="45.477455900717814" lon="11.114455097153574"><ele>195.2</ele><time>2026-04-08T07:24:02Z</time></trkpt><trkpt lat="45.477442151650244" lon="11.11460478288953"><ele>192.4</ele><time>2026-04-08T07:24:03Z</time></trkpt><trkpt lat="45.477410015329745" lon="11.114723161294563"><ele>189.6</ele><time>2026-04-08T07:24:04Z</time></trkpt><trkpt lat="45.47741872298474" lon="11.114860463346641"><ele>186.79999999999998</ele><time>2026-04-08T07:24:05Z</time></trkpt><trkpt lat="45.47742913722326" lon="11.11500034043073"><ele>184.0</ele><time>2026-04-08T07:24:06Z</time></trkpt><trkpt lat="45.47746035117477" lon="11.115143218908281"><ele>182.79999999999998</ele><time>2026-04-08T07:24:07Z</time></trkpt><trkpt lat="45.47749388691651" lon="11.115286158665787"><ele>181.6</ele><time>2026-04-08T07:24:08Z</time></trkpt><trkpt lat="45.477526851941775" lon="11.115439749655764"><ele>180.4</ele><time>2026-04-08T07:24:09Z</time></trkpt><trkpt lat="45.47753509997188" lon="11.115585144826785"><ele>179.2</ele><time>2026-04-08T07:24:10Z</time></trkpt><trkpt lat="45.477544615561094" lon="11.115728707376828"><ele>178.0</ele><time>2026-04-08T07:24:11Z</time></trkpt><trkpt lat="45.47755531556735" lon="11.115860672662986"><ele>177.60000000000002</ele><time>2026-04-08T07:24:12Z</time></trkpt><trkpt lat="45.47756546336872" lon="11.115995573215114"><ele>177.20000000000002</ele><time>2026-04-08T07:24:13Z</time></trkpt><trkpt lat="45.47759843226513" lon="11.116141850158217"><ele>176.8</ele><time>2026-04-08T07:24:14Z</time></trkpt><trkpt lat="45.477648997037775" lon="11.116277483702424"><ele>176.4</ele><time>2026-04-08T07:24:15Z</time></trkpt><trkpt lat="45.47770940595502" lon="11.116428892286375"><ele>176.0</ele><time>2026-04-08T07:24:16Z</time></trkpt><trkpt lat="45.47777084533371" lon="11.116602368265209"><ele>174.0</ele><time>2026-04-08T07:24:17Z</time></trkpt><trkpt lat="45.47782713775542" lon="11.11675752414988"><ele>172.0</ele><time>2026-04-08T07:24:18Z</time></trkpt><trkpt lat="45.47788257876264" lon="11.116904858228201"><ele>170.0</ele><time>2026-04-08T07:24:19Z</time></trkpt><trkpt lat="45.47793763081376" lon="11.117052272464456"><ele>168.0</ele><time>2026-04-08T07:24:20Z</time></trkpt><trkpt lat="45.4780083073767" lon="11.117173307124679"><ele>168.0</ele><time>2026-04-08T07:24:21Z</time></trkpt><trkpt lat="45.47809600679062" lon="11.11728937067658"><ele>168.0</ele><time>2026-04-08T07:24:22Z</time></trkpt><trkpt lat="45.47817546465972" lon="11.117412810521733"><ele>168.0</ele><time>2026-04-08T07:24:23Z</time></trkpt><trkpt lat="45.47825689540808" lon="11.117533241992371"><ele>168.0</ele><time>2026-04-08T07:24:24Z</time></trkpt><trkpt lat="45.47833677351708" lon="11.117636480160252"><ele>168.4</ele><time>2026-04-08T07:24:25Z</time></trkpt><trkpt lat="45.478389532494276" lon="11.117767404088639"><ele>168.8</ele><time>2026-04-08T07:24:26Z</time></trkpt><trkpt lat="45.47843781918138" lon="11.11789035257126"><ele>169.2</ele><time>2026-04-08T07:24:27Z</time></trkpt><trkpt lat="45.47845989042407" lon="11.118025862748489"><ele>169.6</ele><time>2026-04-08T07:24:28Z</time></trkpt><trkpt lat="45.47848020227808" lon="11.118185511496925"><ele>170.0</ele><time>2026-04-08T07:24:29Z</time></trkpt><trkpt lat="45.478502899901514" lon="11.118361958807778"><ele>170.0</ele><time>2026-04-08T07:24:30Z</time></trkpt><trkpt lat="45.47854326791832" lon="11.118544400327966"><ele>170.0</ele><time>2026-04-08T07:24:31Z</time></trkpt><trkpt lat="45.478576114114986" lon="11.118721407201262"><ele>170.0</ele><time>2026-04-08T07:24:32Z</time></trkpt><trkpt lat="45.478591954697464" lon="11.118893784275762"><ele>170.0</ele><time>2026-04-08T07:24:33Z</time></trkpt><trkpt lat="45.47862624684435" lon="11.119091070552857"><ele>171.0</ele><time>2026-04-08T07:24:34Z</time></trkpt><trkpt lat="45.47868638779598" lon="11.119295631632806"><ele>172.0</ele><time>2026-04-08T07:24:35Z</time></trkpt><trkpt lat="45.478740648027596" lon="11.11950741053176"><ele>173.0</ele><time>2026-04-08T07:24:36Z</time></trkpt><trkpt lat="45.47880524655266" lon="11.119716222942834"><ele>167.75</ele><time>2026-04-08T07:24:37Z</time></trkpt><trkpt lat="45.47886916717232" lon="11.119916230726739"><ele>162.5</ele><time>2026-04-08T07:24:38Z</time></trkpt><trkpt lat="45.47891824496042" lon="11.120110288708236"><ele>157.25</ele><time>2026-04-08T07:24:39Z</time></trkpt><trkpt lat="45.47895268473681" lon="11.120298883555561"><ele>152.0</ele><time>2026-04-08T07:24:40Z</time></trkpt><trkpt lat="45.47897705414178" lon="11.120493356760276"><ele>152.0</ele><time>2026-04-08T07:24:41Z</time></trkpt><trkpt lat="45.478972384784235" lon="11.120699161782824"><ele>152.0</ele><time>2026-04-08T07:24:42Z</time></trkpt><trkpt lat="45.478974280166675" lon="11.120928531429579"><ele>152.0</ele><time>2026-04-08T07:24:43Z</time></trkpt><trkpt lat="45.4789718770562" lon="11.121168726333787"><ele>150.0</ele><time>2026-04-08T07:24:44Z</time></trkpt><trkpt lat="45.478968840863516" lon="11.121391994708484"><ele>148.0</ele><time>2026-04-08T07:24:45Z</time></trkpt><trkpt lat="45.47896865487756" lon="11.121597046559712"><ele>146.0</ele><time>2026-04-08T07:24:46Z</time></trkpt><trkpt lat="45.4789723798445" lon="11.12179720936756"><ele>144.0</ele><time>2026-04-08T07:24:47Z</time></trkpt><trkpt lat="45.47897598868715" lon="11.12198631285876"><ele>143.25</ele><time>2026-04-08T07:24:48Z</time></trkpt><trkpt lat="45.47898055444425" lon="11.122172167207617"><ele>142.5</ele><time>2026-04-08T07:24:49Z</time></trkpt><trkpt lat="45.47900056310911" lon="11.122355924383372"><ele>141.75</ele><time>2026-04-08T07:24:50Z</time></trkpt><trkpt lat="45.47900981455935" lon="11.122562499459764"><ele>141.0</ele><time>2026-04-08T07:24:51Z</time></trkpt><trkpt lat="45.47902784578453" lon="11.12275862540951"><ele>141.0</ele><time>2026-04-08T07:24:52Z</time></trkpt><trkpt lat="45.47904287118742" lon="11.122943448058088"><ele>141.0</ele><time>2026-04-08T07:24:53Z</time></trkpt><trkpt lat="45.47904811251371" lon="11.123095722152144"><ele>141.0</ele><time>2026-04-08T07:24:54Z</time></trkpt><trkpt lat="45.47906275257748" lon="11.12321196978674"><ele>141.0</ele><time>2026-04-08T07:24:55Z</time></trkpt><trkpt lat="45.47909205373155" lon="11.123302645076512"><ele>141.0</ele><time>2026-04-08T07:24:56Z</time></trkpt><trkpt lat="45.47919557786697" lon="11.12340358209217"><ele>140.75</ele><time>2026-04-08T07:24:58.001Z</time></trkpt><trkpt lat="45.479285194380516" lon="11.123408771473326"><ele>140.5</ele><time>2026-04-08T07:24:59.001Z</time></trkpt><trkpt lat="45.47939702531107" lon="11.12335704680348"><ele>140.25</ele><time>2026-04-08T07:25:00.001Z</time></trkpt><trkpt lat="45.47951896389364" lon="11.123348120010869"><ele>140.0</ele><time>2026-04-08T07:25:01.001Z</time></trkpt><trkpt lat="45.479639027159315" lon="11.123319708722159"><ele>138.4</ele><time>2026-04-08T07:25:02.001Z</time></trkpt><trkpt lat="45.47975871924096" lon="11.12327052312259"><ele>136.8</ele><time>2026-04-08T07:25:03.001Z</time></trkpt><trkpt lat="45.47986950384051" lon="11.123263088758716"><ele>135.2</ele><time>2026-04-08T07:25:04.001Z</time></trkpt><trkpt lat="45.47995955538909" lon="11.123240947405705"><ele>133.6</ele><time>2026-04-08T07:25:05.001Z</time></trkpt><trkpt lat="45.48007796391494" lon="11.123235845361725"><ele>132.0</ele><time>2026-04-08T07:25:07Z</time></trkpt><trkpt lat="45.48016193298095" lon="11.123350533689386"><ele>132.0</ele><time>2026-04-08T07:25:08Z</time></trkpt><trkpt lat="45.48022254971273" lon="11.123492372297564"><ele>132.0</ele><time>2026-04-08T07:25:09Z</time></trkpt><trkpt lat="45.480313980830864" lon="11.123635050569675"><ele>132.0</ele><time>2026-04-08T07:25:10Z</time></trkpt><trkpt lat="45.48041547232433" lon="11.123777636914589"><ele>132.0</ele><time>2026-04-08T07:25:11Z</time></trkpt><trkpt lat="45.48050469201325" lon="11.123906380073223"><ele>131.75</ele><time>2026-04-08T07:25:12Z</time></trkpt><trkpt lat="45.48058401560291" lon="11.124031771228948"><ele>131.5</ele><time>2026-04-08T07:25:13Z</time></trkpt><trkpt lat="45.48065460775542" lon="11.124156141103244"><ele>131.25</ele><time>2026-04-08T07:25:14Z</time></trkpt><trkpt lat="45.480723106627394" lon="11.124278000368585"><ele>131.0</ele><time>2026-04-08T07:25:15Z</time></trkpt><trkpt lat="45.48080727543669" lon="11.12441351064785"><ele>131.0</ele><time>2026-04-08T07:25:16Z</time></trkpt><trkpt lat="45.480900098205915" lon="11.124556086062395"><ele>131.0</ele><time>2026-04-08T07:25:17Z</time></trkpt><trkpt lat="45.48096971254058" lon="11.124703926811412"><ele>131.0</ele><time>2026-04-08T07:25:18Z</time></trkpt><trkpt lat="45.48103425614432" lon="11.124816417369297"><ele>131.0</ele><time>2026-04-08T07:25:19Z</time></trkpt><trkpt lat="45.48107607991157" lon="11.124889310820567"><ele>131.0</ele><time>2026-04-08T07:25:20Z</time></trkpt><trkpt lat="45.48114125019421" lon="11.124981253606093"><ele>131.33333333333331</ele><time>2026-04-08T07:25:22Z</time></trkpt><trkpt lat="45.4812091851061" lon="11.125088105635495"><ele>131.66666666666666</ele><time>2026-04-08T07:25:24Z</time></trkpt><trkpt lat="45.48125411814072" lon="11.125163830345544"><ele>132.0</ele><time>2026-04-08T07:25:25Z</time></trkpt><trkpt lat="45.481301721783" lon="11.125248984507873"><ele>132.33333333333334</ele><time>2026-04-08T07:25:26Z</time></trkpt><trkpt lat="45.48135123261126" lon="11.125337947428996"><ele>132.66666666666669</ele><time>2026-04-08T07:25:27Z</time></trkpt><trkpt lat="45.48139755679461" lon="11.125420679271762"><ele>133.0</ele><time>2026-04-08T07:25:28Z</time></trkpt><trkpt lat="45.481446784588805" lon="11.12551649912471"><ele>133.0</ele><time>2026-04-08T07:25:29Z</time></trkpt><trkpt lat="45.481499150568276" lon="11.125632716271602"><ele>133.0</ele><time>2026-04-08T07:25:30Z</time></trkpt><trkpt lat="45.48154651643141" lon="11.125745715687003"><ele>133.0</ele><time>2026-04-08T07:25:31Z</time></trkpt><trkpt lat="45.48158406197237" lon="11.12584636161464"><ele>133.0</ele><time>2026-04-08T07:25:32Z</time></trkpt><trkpt lat="45.48161837713352" lon="11.125950594603701"><ele>133.0</ele><time>2026-04-08T07:25:33Z</time></trkpt><trkpt lat="45.48164791355077" lon="11.12605720138204"><ele>133.0</ele><time>2026-04-08T07:25:34Z</time></trkpt><trkpt lat="45.48168012915313" lon="11.12615396499308"><ele>132.28571428571428</ele><time>2026-04-08T07:25:35Z</time></trkpt><trkpt lat="45.48171479747602" lon="11.126239078838916"><ele>131.57142857142856</ele><time>2026-04-08T07:25:36Z</time></trkpt><trkpt lat="45.48174985214343" lon="11.126338334527649"><ele>130.85714285714286</ele><time>2026-04-08T07:25:37Z</time></trkpt><trkpt lat="45.481783727298954" lon="11.126439927264393"><ele>130.14285714285714</ele><time>2026-04-08T07:25:38Z</time></trkpt><trkpt lat="45.48181637984965" lon="11.1265389391317"><ele>129.42857142857142</ele><time>2026-04-08T07:25:39Z</time></trkpt><trkpt lat="45.48184837125955" lon="11.12662913093232"><ele>128.71428571428572</ele><time>2026-04-08T07:25:40Z</time></trkpt><trkpt lat="45.48188038022768" lon="11.126713270511127"><ele>128.0</ele><time>2026-04-08T07:25:41Z</time></trkpt><trkpt lat="45.48191956418459" lon="11.12685911899606"><ele>127.60000000000001</ele><time>2026-04-08T07:25:43Z</time></trkpt><trkpt lat="45.48196144091868" lon="11.126952505170559"><ele>127.20000000000002</ele><time>2026-04-08T07:25:45Z</time></trkpt><trkpt lat="45.48201361273052" lon="11.127058468615871"><ele>126.8</ele><time>2026-04-08T07:25:48Z</time></trkpt><trkpt lat="45.48212933982528" lon="11.127117780255075"><ele>126.4</ele><time>2026-04-08T07:25:50Z</time></trkpt><trkpt lat="45.48221446888452" lon="11.127103625683606"><ele>126.0</ele><time>2026-04-08T07:25:51Z</time></trkpt><trkpt lat="45.482323957626" lon="11.127103443701806"><ele>126.0</ele><time>2026-04-08T07:25:52Z</time></trkpt><trkpt lat="45.48245288807571" lon="11.12710979967055"><ele>126.0</ele><time>2026-04-08T07:25:53Z</time></trkpt><trkpt lat="45.4825856741535" lon="11.127134491943025"><ele>126.0</ele><time>2026-04-08T07:25:54Z</time></trkpt><trkpt lat="45.48270685917506" lon="11.127162879140458"><ele>126.0</ele><time>2026-04-08T07:25:55Z</time></trkpt><trkpt lat="45.482809756302146" lon="11.127157611882618"><ele>126.0</ele><time>2026-04-08T07:25:56Z</time></trkpt><trkpt lat="45.48290533756292" lon="11.127178111229139"><ele>126.0</ele><time>2026-04-08T07:25:57Z</time></trkpt><trkpt lat="45.48299432601924" lon="11.127200459331352"><ele>126.0</ele><time>2026-04-08T07:25:58.001Z</time></trkpt><trkpt lat="45.4830615584545" lon="11.127211734868569"><ele>126.0</ele><time>2026-04-08T07:25:59.001Z</time></trkpt><trkpt lat="45.48312859187331" lon="11.126939075950013"><ele>126.5</ele><time>2026-04-08T07:26:01.001Z</time></trkpt><trkpt lat="45.48311823571434" lon="11.126848066970604"><ele>127.0</ele><time>2026-04-08T07:26:02.001Z</time></trkpt><trkpt lat="45.48308691394481" lon="11.12671201183698"><ele>127.5</ele><time>2026-04-08T07:26:04.001Z</time></trkpt><trkpt lat="45.48313178162737" lon="11.126617229490623"><ele>128.0</ele><time>2026-04-08T07:26:06.001Z</time></trkpt><trkpt lat="45.48315922784349" lon="11.126703153883195"><ele>128.5</ele><time>2026-04-08T07:26:09.001Z</time></trkpt><trkpt lat="45.483153452408594" lon="11.126803187008791"><ele>129.0</ele><time>2026-04-08T07:31:02.001Z</time></trkpt><trkpt lat="45.48311933313724" lon="11.126947015529156"><ele>129.0</ele><time>2026-04-08T07:31:04.001Z</time></trkpt><trkpt lat="45.48308249625947" lon="11.127044738238885"><ele>129.0</ele><time>2026-04-08T07:31:06.001Z</time></trkpt><trkpt lat="45.48295727871164" lon="11.127076465667049"><ele>129.0</ele><time>2026-04-08T07:31:11.001Z</time></trkpt><trkpt lat="45.48313953255858" lon="11.127224663976172"><ele>129.0</ele><time>2026-04-08T07:31:17.001Z</time></trkpt><trkpt lat="45.483213259046984" lon="11.127263609719137"><ele>129.0</ele><time>2026-04-08T07:31:18.001Z</time></trkpt><trkpt lat="45.48330248082509" lon="11.127283495353105"><ele>129.0</ele><time>2026-04-08T07:31:19.001Z</time></trkpt><trkpt lat="45.48341742379771" lon="11.127300352602944"><ele>129.0</ele><time>2026-04-08T07:31:20.001Z</time></trkpt><trkpt lat="45.483540295008986" lon="11.127329675512993"><ele>129.0</ele><time>2026-04-08T07:31:21.001Z</time></trkpt><trkpt lat="45.483675057075146" lon="11.127382230186832"><ele>127.5</ele><time>2026-04-08T07:31:22.001Z</time></trkpt><trkpt lat="45.48380273668163" lon="11.127438318034084"><ele>126.0</ele><time>2026-04-08T07:31:23.001Z</time></trkpt><trkpt lat="45.48391304387575" lon="11.127490463609933"><ele>124.5</ele><time>2026-04-08T07:31:24.002Z</time></trkpt><trkpt lat="45.48402355675738" lon="11.127539703844842"><ele>123.0</ele><time>2026-04-08T07:31:25.001Z</time></trkpt><trkpt lat="45.48413675570972" lon="11.127584320925822"><ele>123.0</ele><time>2026-04-08T07:31:26.001Z</time></trkpt><trkpt lat="45.48425000736433" lon="11.127617712165815"><ele>123.0</ele><time>2026-04-08T07:31:27.001Z</time></trkpt><trkpt lat="45.48435622317154" lon="11.127647111740263"><ele>123.0</ele><time>2026-04-08T07:31:28.001Z</time></trkpt><trkpt lat="45.48447017856078" lon="11.12768491615129"><ele>123.0</ele><time>2026-04-08T07:31:29.001Z</time></trkpt><trkpt lat="45.484596263675336" lon="11.127734286931634"><ele>123.25</ele><time>2026-04-08T07:31:30.001Z</time></trkpt><trkpt lat="45.48472404863753" lon="11.127785809636379"><ele>123.5</ele><time>2026-04-08T07:31:31.001Z</time></trkpt><trkpt lat="45.4848553991947" lon="11.127840994250757"><ele>123.75</ele><time>2026-04-08T07:31:32.001Z</time></trkpt><trkpt lat="45.484969344296985" lon="11.127885200401668"><ele>124.0</ele><time>2026-04-08T07:31:33.001Z</time></trkpt><trkpt lat="45.48508832813731" lon="11.127943610400221"><ele>124.0</ele><time>2026-04-08T07:31:34.001Z</time></trkpt><trkpt lat="45.48521908996474" lon="11.128001103856942"><ele>124.0</ele><time>2026-04-08T07:31:35.001Z</time></trkpt><trkpt lat="45.48535324311244" lon="11.128044346340422"><ele>124.0</ele><time>2026-04-08T07:31:36.001Z</time></trkpt><trkpt lat="45.48548097080852" lon="11.128054557648964"><ele>124.0</ele><time>2026-04-08T07:31:37.001Z</time></trkpt><trkpt lat="45.48560277508117" lon="11.128045085290546"><ele>123.75</ele><time>2026-04-08T07:31:38.001Z</time></trkpt><trkpt lat="45.485721421463325" lon="11.12800614666779"><ele>123.5</ele><time>2026-04-08T07:31:39.001Z</time></trkpt><trkpt lat="45.485847281106295" lon="11.127958705916534"><ele>123.25</ele><time>2026-04-08T07:31:40.001Z</time></trkpt><trkpt lat="45.48598224602135" lon="11.127913464975775"><ele>123.0</ele><time>2026-04-08T07:31:41.001Z</time></trkpt><trkpt lat="45.48612090236074" lon="11.127868703606898"><ele>123.0</ele><time>2026-04-08T07:31:42.001Z</time></trkpt><trkpt lat="45.48625669287137" lon="11.127823012458945"><ele>123.0</ele><time>2026-04-08T07:31:43.001Z</time></trkpt><trkpt lat="45.48638137740545" lon="11.127767629305476"><ele>123.0</ele><time>2026-04-08T07:31:44.001Z</time></trkpt><trkpt lat="45.48649791291515" lon="11.127688798226307"><ele>123.0</ele><time>2026-04-08T07:31:45.001Z</time></trkpt><trkpt lat="45.486611872477205" lon="11.127584023958578"><ele>123.25</ele><time>2026-04-08T07:31:46.001Z</time></trkpt><trkpt lat="45.48670628804509" lon="11.127450174797742"><ele>123.5</ele><time>2026-04-08T07:31:47.001Z</time></trkpt><trkpt lat="45.486789742042745" lon="11.127302912850697"><ele>123.75</ele><time>2026-04-08T07:31:48.001Z</time></trkpt><trkpt lat="45.48686375924583" lon="11.12715323614987"><ele>124.0</ele><time>2026-04-08T07:31:49.001Z</time></trkpt><trkpt lat="45.48694794136822" lon="11.127022001407203"><ele>125.25</ele><time>2026-04-08T07:31:50.001Z</time></trkpt><trkpt lat="45.48705214536683" lon="11.126919787837839"><ele>126.5</ele><time>2026-04-08T07:31:51.001Z</time></trkpt><trkpt lat="45.48717250280364" lon="11.126841764075097"><ele>127.75</ele><time>2026-04-08T07:31:52.001Z</time></trkpt><trkpt lat="45.48729813070974" lon="11.12679469065423"><ele>129.0</ele><time>2026-04-08T07:31:53.001Z</time></trkpt><trkpt lat="45.48743009754128" lon="11.126809362430057"><ele>129.0</ele><time>2026-04-08T07:31:54.001Z</time></trkpt><trkpt lat="45.48755913194382" lon="11.126830535060618"><ele>129.0</ele><time>2026-04-08T07:31:55.001Z</time></trkpt><trkpt lat="45.48768628949622" lon="11.12685476554654"><ele>129.0</ele><time>2026-04-08T07:31:56.001Z</time></trkpt><trkpt lat="45.48781450549816" lon="11.126860732846586"><ele>129.0</ele><time>2026-04-08T07:31:57.001Z</time></trkpt><trkpt lat="45.487943624773806" lon="11.126885384773452"><ele>129.25</ele><time>2026-04-08T07:31:58.001Z</time></trkpt><trkpt lat="45.4880793316587" lon="11.12690996126514"><ele>129.5</ele><time>2026-04-08T07:31:59.001Z</time></trkpt><trkpt lat="45.48820924864961" lon="11.126931868169052"><ele>129.75</ele><time>2026-04-08T07:32:00.001Z</time></trkpt><trkpt lat="45.48834651396743" lon="11.12695474787063"><ele>130.0</ele><time>2026-04-08T07:32:01.001Z</time></trkpt><trkpt lat="45.48847675209766" lon="11.126978134527844"><ele>130.0</ele><time>2026-04-08T07:32:02.001Z</time></trkpt><trkpt lat="45.48859465057578" lon="11.127006767552567"><ele>130.0</ele><time>2026-04-08T07:32:03.001Z</time></trkpt><trkpt lat="45.48872214081686" lon="11.1270374016055"><ele>130.0</ele><time>2026-04-08T07:32:04.001Z</time></trkpt><trkpt lat="45.48884539829517" lon="11.127064585798959"><ele>130.0</ele><time>2026-04-08T07:32:05Z</time></trkpt><trkpt lat="45.48896302728489" lon="11.127078485660789"><ele>130.5</ele><time>2026-04-08T07:32:06Z</time></trkpt><trkpt lat="45.48907958527616" lon="11.127052053503741"><ele>131.0</ele><time>2026-04-08T07:32:07Z</time></trkpt><trkpt lat="45.48918812447705" lon="11.12697659183013"><ele>131.5</ele><time>2026-04-08T07:32:08Z</time></trkpt><trkpt lat="45.489289869000025" lon="11.126853258280834"><ele>132.0</ele><time>2026-04-08T07:32:09Z</time></trkpt><trkpt lat="45.48938627266595" lon="11.126705863244217"><ele>133.5</ele><time>2026-04-08T07:32:10Z</time></trkpt><trkpt lat="45.48947820887969" lon="11.126555756097064"><ele>135.0</ele><time>2026-04-08T07:32:11Z</time></trkpt><trkpt lat="45.4895847700758" lon="11.126449946063742"><ele>136.5</ele><time>2026-04-08T07:32:12Z</time></trkpt><trkpt lat="45.48971299608027" lon="11.126377938548734"><ele>138.0</ele><time>2026-04-08T07:32:13Z</time></trkpt><trkpt lat="45.4898517238136" lon="11.126333376021831"><ele>140.0</ele><time>2026-04-08T07:32:14Z</time></trkpt><trkpt lat="45.489986617706464" lon="11.126301360020054"><ele>142.0</ele><time>2026-04-08T07:32:15Z</time></trkpt><trkpt lat="45.49012106241973" lon="11.126272218492169"><ele>144.0</ele><time>2026-04-08T07:32:16Z</time></trkpt><trkpt lat="45.490255471764556" lon="11.1262426817085"><ele>146.0</ele><time>2026-04-08T07:32:17Z</time></trkpt><trkpt lat="45.49038882797978" lon="11.126210626496725"><ele>146.25</ele><time>2026-04-08T07:32:18Z</time></trkpt><trkpt lat="45.49052076633401" lon="11.126176030372374"><ele>146.5</ele><time>2026-04-08T07:32:19Z</time></trkpt><trkpt lat="45.490649944133146" lon="11.126143911219215"><ele>146.75</ele><time>2026-04-08T07:32:20Z</time></trkpt><trkpt lat="45.490777897541214" lon="11.126111672806278"><ele>147.0</ele><time>2026-04-08T07:32:21Z</time></trkpt><trkpt lat="45.49091007107537" lon="11.126074863215168"><ele>147.0</ele><time>2026-04-08T07:32:22Z</time></trkpt><trkpt lat="45.49104663915438" lon="11.126027634409013"><ele>147.0</ele><time>2026-04-08T07:32:23Z</time></trkpt><trkpt lat="45.49117970897298" lon="11.125977313203109"><ele>147.0</ele><time>2026-04-08T07:32:24Z</time></trkpt><trkpt lat="45.491318769873075" lon="11.125941536795255"><ele>147.0</ele><time>2026-04-08T07:32:25Z</time></trkpt><trkpt lat="45.49145683221132" lon="11.125892611985353"><ele>146.75</ele><time>2026-04-08T07:32:26Z</time></trkpt><trkpt lat="45.49160058240289" lon="11.125856822044472"><ele>146.5</ele><time>2026-04-08T07:32:27Z</time></trkpt><trkpt lat="45.49174501039096" lon="11.125843128651834"><ele>146.25</ele><time>2026-04-08T07:32:28Z</time></trkpt><trkpt lat="45.491883045635596" lon="11.125833886195378"><ele>146.0</ele><time>2026-04-08T07:32:29Z</time></trkpt><trkpt lat="45.492024551070024" lon="11.125824132494781"><ele>145.75</ele><time>2026-04-08T07:32:30Z</time></trkpt><trkpt lat="45.492172204197175" lon="11.125813612590244"><ele>145.5</ele><time>2026-04-08T07:32:31Z</time></trkpt><trkpt lat="45.49230572915357" lon="11.125799500556472"><ele>145.25</ele><time>2026-04-08T07:32:32Z</time></trkpt><trkpt lat="45.49243015637402" lon="11.125785574615762"><ele>145.0</ele><time>2026-04-08T07:32:33Z</time></trkpt><trkpt lat="45.492551180012974" lon="11.125777841332676"><ele>145.0</ele><time>2026-04-08T07:32:34Z</time></trkpt><trkpt lat="45.49268095398766" lon="11.125783113327605"><ele>145.0</ele><time>2026-04-08T07:32:35Z</time></trkpt><trkpt lat="45.49279400714068" lon="11.125803142401951"><ele>145.0</ele><time>2026-04-08T07:32:36Z</time></trkpt><trkpt lat="45.49289664003387" lon="11.125852877996582"><ele>145.0</ele><time>2026-04-08T07:32:37Z</time></trkpt><trkpt lat="45.49298324147504" lon="11.125936317462145"><ele>145.8</ele><time>2026-04-08T07:32:38Z</time></trkpt><trkpt lat="45.49305242527393" lon="11.126037478381141"><ele>146.6</ele><time>2026-04-08T07:32:39Z</time></trkpt><trkpt lat="45.493090422348864" lon="11.126153085462267"><ele>147.4</ele><time>2026-04-08T07:32:40Z</time></trkpt><trkpt lat="45.49314064388205" lon="11.126229408195321"><ele>148.2</ele><time>2026-04-08T07:32:41Z</time></trkpt><trkpt lat="45.49318862796266" lon="11.1263004804952"><ele>149.0</ele><time>2026-04-08T07:32:43Z</time></trkpt><trkpt lat="45.49341320401012" lon="11.12573680923166"><ele>149.0</ele><time>2026-04-08T07:32:45Z</time></trkpt><trkpt lat="45.493502246657144" lon="11.125953005955441"><ele>149.0</ele><time>2026-04-08T07:32:47Z</time></trkpt><trkpt lat="45.49358561507971" lon="11.12584908708439"><ele>149.0</ele><time>2026-04-08T07:32:49Z</time></trkpt><trkpt lat="45.493650866043225" lon="11.12578517184484"><ele>149.0</ele><time>2026-04-08T07:32:50Z</time></trkpt><trkpt lat="45.49370589035397" lon="11.125720946184435"><ele>149.0</ele><time>2026-04-08T07:32:51Z</time></trkpt><trkpt lat="45.49375821500301" lon="11.125639456030266"><ele>153.4</ele><time>2026-04-08T07:32:52Z</time></trkpt><trkpt lat="45.493829939150025" lon="11.125541194888132"><ele>157.8</ele><time>2026-04-08T07:32:53Z</time></trkpt><trkpt lat="45.49390027172969" lon="11.125445087299173"><ele>162.20000000000002</ele><time>2026-04-08T07:32:54Z</time></trkpt><trkpt lat="45.49396998393812" lon="11.125367877301608"><ele>166.60000000000002</ele><time>2026-04-08T07:32:55Z</time></trkpt><trkpt lat="45.49403718113553" lon="11.125287899591239"><ele>171.0</ele><time>2026-04-08T07:32:56Z</time></trkpt><trkpt lat="45.49409597175932" lon="11.125167692157069"><ele>171.0</ele><time>2026-04-08T07:32:57Z</time></trkpt><trkpt lat="45.49418960521416" lon="11.125109927263019"><ele>171.0</ele><time>2026-04-08T07:32:58Z</time></trkpt><trkpt lat="45.494259095341185" lon="11.125022713957987"><ele>171.0</ele><time>2026-04-08T07:32:59Z</time></trkpt><trkpt lat="45.49431585193881" lon="11.124919561487467"><ele>171.0</ele><time>2026-04-08T07:33:00Z</time></trkpt><trkpt lat="45.49437286452359" lon="11.124787474170487"><ele>171.0</ele><time>2026-04-08T07:33:02Z</time></trkpt><trkpt lat="45.494438537705214" lon="11.124788827736872"><ele>171.0</ele><time>2026-04-08T07:33:05Z</time></trkpt><trkpt lat="45.49442051316272" lon="11.12490120351761"><ele>171.0</ele><time>2026-04-08T07:33:08Z</time></trkpt><trkpt lat="45.49438241547294" lon="11.124981661135973"><ele>171.0</ele><time>2026-04-08T07:33:09Z</time></trkpt><trkpt lat="45.49436467768585" lon="11.125141938234876"><ele>171.0</ele><time>2026-04-08T07:33:11Z</time></trkpt><trkpt lat="45.494397154835056" lon="11.125221058224863"><ele>171.0</ele><time>2026-04-08T07:33:12Z</time></trkpt><trkpt lat="45.49437771507503" lon="11.125420121793063"><ele>171.0</ele><time>2026-04-08T07:33:14Z</time></trkpt><trkpt lat="45.49436042322216" lon="11.125524650513608"><ele>171.0</ele><time>2026-04-08T07:33:15Z</time></trkpt><trkpt lat="45.49435941968166" lon="11.125623168217098"><ele>171.0</ele><time>2026-04-08T07:33:16Z</time></trkpt><trkpt lat="45.49434704209756" lon="11.125763797104497"><ele>171.0</ele><time>2026-04-08T07:33:18Z</time></trkpt><trkpt lat="45.49441110635364" lon="11.125860713347553"><ele>171.0</ele><time>2026-04-08T07:33:20Z</time></trkpt><trkpt lat="45.494522171816335" lon="11.125823025826541"><ele>173.5</ele><time>2026-04-08T07:33:22Z</time></trkpt><trkpt lat="45.49460119161212" lon="11.125785268174138"><ele>176.0</ele><time>2026-04-08T07:33:23Z</time></trkpt><trkpt lat="45.49468210039565" lon="11.125725625048556"><ele>178.5</ele><time>2026-04-08T07:33:24Z</time></trkpt><trkpt lat="45.49472372870053" lon="11.125655088664892"><ele>181.0</ele><time>2026-04-08T07:33:25Z</time></trkpt><trkpt lat="45.494769887786255" lon="11.125589069794808"><ele>183.5</ele><time>2026-04-08T07:33:26Z</time></trkpt><trkpt lat="45.49480494361459" lon="11.12551431142127"><ele>186.0</ele><time>2026-04-08T07:33:27Z</time></trkpt><trkpt lat="45.49490288889071" lon="11.125491212192324"><ele>187.66666666666666</ele><time>2026-04-08T07:33:29Z</time></trkpt><trkpt lat="45.49495190178336" lon="11.125563612575267"><ele>189.33333333333331</ele><time>2026-04-08T07:33:30Z</time></trkpt><trkpt lat="45.495001658190105" lon="11.125635994945158"><ele>191.0</ele><time>2026-04-08T07:33:31Z</time></trkpt><trkpt lat="45.49507176606864" lon="11.125646652270575"><ele>192.66666666666666</ele><time>2026-04-08T07:33:32Z</time></trkpt><trkpt lat="45.495155208602625" lon="11.125636282571898"><ele>194.33333333333331</ele><time>2026-04-08T07:33:33Z</time></trkpt><trkpt lat="45.49525111721458" lon="11.125606874067326"><ele>196.0</ele><time>2026-04-08T07:33:34Z</time></trkpt><trkpt lat="45.49535819647766" lon="11.125589690652847"><ele>199.8</ele><time>2026-04-08T07:33:35Z</time></trkpt><trkpt lat="45.495459792765956" lon="11.125540996465958"><ele>203.60000000000002</ele><time>2026-04-08T07:33:36Z</time></trkpt><trkpt lat="45.49555112474946" lon="11.125493972155212"><ele>207.4</ele><time>2026-04-08T07:33:37Z</time></trkpt><trkpt lat="45.49565706701455" lon="11.12544371611536"><ele>211.2</ele><time>2026-04-08T07:33:38Z</time></trkpt><trkpt lat="45.49573989452844" lon="11.125390831914999"><ele>215.0</ele><time>2026-04-08T07:33:39Z</time></trkpt><trkpt lat="45.49581919821129" lon="11.125348672572724"><ele>215.0</ele><time>2026-04-08T07:33:40Z</time></trkpt><trkpt lat="45.49590025588719" lon="11.125324435164332"><ele>215.0</ele><time>2026-04-08T07:33:41Z</time></trkpt><trkpt lat="45.49599722847326" lon="11.125357206224159"><ele>215.0</ele><time>2026-04-08T07:33:42Z</time></trkpt><trkpt lat="45.496101811992546" lon="11.12537651368099"><ele>215.0</ele><time>2026-04-08T07:33:43Z</time></trkpt><trkpt lat="45.49621668022133" lon="11.125377355133125"><ele>215.0</ele><time>2026-04-08T07:33:44Z</time></trkpt><trkpt lat="45.49633164685401" lon="11.125381504777629"><ele>217.5</ele><time>2026-04-08T07:33:45Z</time></trkpt><trkpt lat="45.496460734708435" lon="11.125363606621603"><ele>220.0</ele><time>2026-04-08T07:33:46Z</time></trkpt><trkpt lat="45.49659405467288" lon="11.125337320902137"><ele>222.5</ele><time>2026-04-08T07:33:47Z</time></trkpt><trkpt lat="45.49673696226314" lon="11.125308624753483"><ele>225.0</ele><time>2026-04-08T07:33:48Z</time></trkpt><trkpt lat="45.49687949044094" lon="11.125282106317549"><ele>225.0</ele><time>2026-04-08T07:33:49Z</time></trkpt><trkpt lat="45.49700795652322" lon="11.125294524087439"><ele>225.0</ele><time>2026-04-08T07:33:50Z</time></trkpt><trkpt lat="45.49713756617361" lon="11.125301624123294"><ele>225.0</ele><time>2026-04-08T07:33:51Z</time></trkpt><trkpt lat="45.49727079554784" lon="11.125294719673683"><ele>225.0</ele><time>2026-04-08T07:33:52Z</time></trkpt><trkpt lat="45.4973912332238" lon="11.125306729720648"><ele>226.8</ele><time>2026-04-08T07:33:53Z</time></trkpt><trkpt lat="45.497502466507626" lon="11.125305356635751"><ele>228.6</ele><time>2026-04-08T07:33:54Z</time></trkpt><trkpt lat="45.497606787617464" lon="11.12529845294021"><ele>230.39999999999998</ele><time>2026-04-08T07:33:55Z</time></trkpt><trkpt lat="45.49770071152208" lon="11.125278075830549"><ele>232.2</ele><time>2026-04-08T07:33:56Z</time></trkpt><trkpt lat="45.49777976968573" lon="11.12522868182981"><ele>234.0</ele><time>2026-04-08T07:33:57Z</time></trkpt><trkpt lat="45.49787116575727" lon="11.125135118842733"><ele>234.39999999999998</ele><time>2026-04-08T07:33:59Z</time></trkpt><trkpt lat="45.49793421759535" lon="11.125104733130197"><ele>234.79999999999998</ele><time>2026-04-08T07:34:00Z</time></trkpt><trkpt lat="45.49803311641263" lon="11.125083785478596"><ele>235.20000000000002</ele><time>2026-04-08T07:34:01Z</time></trkpt><trkpt lat="45.49811352435656" lon="11.125010506278109"><ele>235.60000000000002</ele><time>2026-04-08T07:34:02Z</time></trkpt><trkpt lat="45.49821815408515" lon="11.12493175139332"><ele>236.0</ele><time>2026-04-08T07:34:03Z</time></trkpt><trkpt lat="45.49831559485889" lon="11.12483556714804"><ele>239.25</ele><time>2026-04-08T07:34:04Z</time></trkpt><trkpt lat="45.4984237657175" lon="11.124720515690317"><ele>242.5</ele><time>2026-04-08T07:34:05Z</time></trkpt><trkpt lat="45.498516547928936" lon="11.124590247994522"><ele>245.75</ele><time>2026-04-08T07:34:06Z</time></trkpt><trkpt lat="45.49859194425342" lon="11.124483352571627"><ele>249.0</ele><time>2026-04-08T07:34:07Z</time></trkpt><trkpt lat="45.498671681594836" lon="11.124390464315791"><ele>247.39999999999998</ele><time>2026-04-08T07:34:08Z</time></trkpt><trkpt lat="45.49875837043795" lon="11.124334559096843"><ele>245.79999999999998</ele><time>2026-04-08T07:34:09Z</time></trkpt><trkpt lat="45.498836851784255" lon="11.12429218568221"><ele>244.20000000000002</ele><time>2026-04-08T07:34:10Z</time></trkpt><trkpt lat="45.498918687400185" lon="11.124263369374845"><ele>242.60000000000002</ele><time>2026-04-08T07:34:11Z</time></trkpt><trkpt lat="45.49901308133136" lon="11.124257800853874"><ele>241.0</ele><time>2026-04-08T07:34:12Z</time></trkpt><trkpt lat="45.49910646630409" lon="11.124291450865782"><ele>241.0</ele><time>2026-04-08T07:34:13Z</time></trkpt><trkpt lat="45.49920772925506" lon="11.124306364759317"><ele>241.00000000000003</ele><time>2026-04-08T07:34:14Z</time></trkpt><trkpt lat="45.49929373825571" lon="11.124319032107893"><ele>241.00000000000003</ele><time>2026-04-08T07:34:15Z</time></trkpt><trkpt lat="45.49936773723257" lon="11.124320604528123"><ele>241.0</ele><time>2026-04-08T07:34:16Z</time></trkpt><trkpt lat="45.49945023833049" lon="11.12431883491455"><ele>241.0</ele><time>2026-04-08T07:34:17Z</time></trkpt><trkpt lat="45.499575866225825" lon="11.123826799206764"><ele>242.4</ele><time>2026-04-08T07:34:18Z</time></trkpt><trkpt lat="45.49966437993222" lon="11.123761359411038"><ele>243.8</ele><time>2026-04-08T07:34:19Z</time></trkpt><trkpt lat="45.49975755557456" lon="11.123696528748455"><ele>245.20000000000002</ele><time>2026-04-08T07:34:20Z</time></trkpt><trkpt lat="45.499842826966486" lon="11.123629558085371"><ele>246.60000000000002</ele><time>2026-04-08T07:34:21Z</time></trkpt><trkpt lat="45.49991082924688" lon="11.123568364247353"><ele>248.0</ele><time>2026-04-08T07:34:22Z</time></trkpt><trkpt lat="45.49997459963467" lon="11.123505565042715"><ele>248.0</ele><time>2026-04-08T07:34:23Z</time></trkpt><trkpt lat="45.50004623987006" lon="11.12342868926159"><ele>248.0</ele><time>2026-04-08T07:34:24Z</time></trkpt><trkpt lat="45.50011337182622" lon="11.123324135905413"><ele>248.0</ele><time>2026-04-08T07:34:25Z</time></trkpt><trkpt lat="45.50017434970637" lon="11.123218871338956"><ele>248.0</ele><time>2026-04-08T07:34:26Z</time></trkpt><trkpt lat="45.50022944972777" lon="11.123175047542382"><ele>248.0</ele><time>2026-04-08T07:34:27Z</time></trkpt><trkpt lat="45.50031458545285" lon="11.123092558489544"><ele>250.60000000000002</ele><time>2026-04-08T07:34:28Z</time></trkpt><trkpt lat="45.50039732688101" lon="11.12302883180715"><ele>253.20000000000002</ele><time>2026-04-08T07:34:29Z</time></trkpt><trkpt lat="45.50048169439608" lon="11.122993944457086"><ele>255.8</ele><time>2026-04-08T07:34:30Z</time></trkpt><trkpt lat="45.500584720112855" lon="11.122983105571398"><ele>258.40000000000003</ele><time>2026-04-08T07:34:31Z</time></trkpt><trkpt lat="45.500699613223404" lon="11.122970631516347"><ele>261.0</ele><time>2026-04-08T07:34:32Z</time></trkpt><trkpt lat="45.50082054729359" lon="11.122940007930655"><ele>261.6666666666667</ele><time>2026-04-08T07:34:33Z</time></trkpt><trkpt lat="45.50091952283636" lon="11.122903877160539"><ele>262.3333333333333</ele><time>2026-04-08T07:34:34Z</time></trkpt><trkpt lat="45.50098587591952" lon="11.122860325643948"><ele>263.0</ele><time>2026-04-08T07:34:35Z</time></trkpt><trkpt lat="45.50104175160169" lon="11.122787918250104"><ele>263.66666666666663</ele><time>2026-04-08T07:34:36Z</time></trkpt><trkpt lat="45.501102771854804" lon="11.122676835299941"><ele>264.3333333333333</ele><time>2026-04-08T07:34:37Z</time></trkpt><trkpt lat="45.501155650761426" lon="11.122577200905276"><ele>265.0</ele><time>2026-04-08T07:34:38Z</time></trkpt><trkpt lat="45.50120856892726" lon="11.12252743231389"><ele>266.2</ele><time>2026-04-08T07:34:39Z</time></trkpt><trkpt lat="45.501317718362394" lon="11.122591484533352"><ele>267.4</ele><time>2026-04-08T07:34:41Z</time></trkpt><trkpt lat="45.50138894541054" lon="11.122672573199502"><ele>268.6</ele><time>2026-04-08T07:34:42Z</time></trkpt><trkpt lat="45.50144556168898" lon="11.122738618954187"><ele>269.8</ele><time>2026-04-08T07:34:43Z</time></trkpt><trkpt lat="45.5015060138005" lon="11.122781901697376"><ele>271.0</ele><time>2026-04-08T07:34:45Z</time></trkpt><trkpt lat="45.50159596869533" lon="11.12267480481092"><ele>271.0</ele><time>2026-04-08T07:34:48Z</time></trkpt><trkpt lat="45.50160985011736" lon="11.122571500373494"><ele>271.0</ele><time>2026-04-08T07:34:49Z</time></trkpt><trkpt lat="45.50162560858848" lon="11.122470787377045"><ele>271.0</ele><time>2026-04-08T07:34:50Z</time></trkpt><trkpt lat="45.50165201231931" lon="11.122350212687659"><ele>271.0</ele><time>2026-04-08T07:34:51Z</time></trkpt><trkpt lat="45.501665910814545" lon="11.122208674563627"><ele>271.0</ele><time>2026-04-08T07:34:52Z</time></trkpt><trkpt lat="45.5016678508011" lon="11.122041116199126"><ele>273.25</ele><time>2026-04-08T07:34:53Z</time></trkpt><trkpt lat="45.501654615722344" lon="11.12186283529224"><ele>275.5</ele><time>2026-04-08T07:34:54Z</time></trkpt><trkpt lat="45.50165288079202" lon="11.12168165448618"><ele>277.75</ele><time>2026-04-08T07:34:55Z</time></trkpt><trkpt lat="45.5016696732443" lon="11.121484633143398"><ele>280.0</ele><time>2026-04-08T07:34:56Z</time></trkpt><trkpt lat="45.50171580657235" lon="11.121283288600651"><ele>282.75</ele><time>2026-04-08T07:34:57Z</time></trkpt><trkpt lat="45.501721060344806" lon="11.121088252021979"><ele>285.5</ele><time>2026-04-08T07:34:58Z</time></trkpt><trkpt lat="45.50169910794028" lon="11.120927177148918"><ele>288.25</ele><time>2026-04-08T07:34:59Z</time></trkpt><trkpt lat="45.501672754699385" lon="11.120758300800487"><ele>291.0</ele><time>2026-04-08T07:35:00Z</time></trkpt><trkpt lat="45.50164720412241" lon="11.12056694597317"><ele>293.25</ele><time>2026-04-08T07:35:01Z</time></trkpt><trkpt lat="45.501589207799455" lon="11.12038004650919"><ele>295.5</ele><time>2026-04-08T07:35:02Z</time></trkpt><trkpt lat="45.5015624965444" lon="11.120184224398052"><ele>297.75</ele><time>2026-04-08T07:35:03Z</time></trkpt><trkpt lat="45.50153134853233" lon="11.119987819605164"><ele>300.0</ele><time>2026-04-08T07:35:04Z</time></trkpt><trkpt lat="45.50151904242284" lon="11.119802507635788"><ele>302.1666666666667</ele><time>2026-04-08T07:35:05Z</time></trkpt><trkpt lat="45.5015124253986" lon="11.119634121410307"><ele>304.3333333333333</ele><time>2026-04-08T07:35:06Z</time></trkpt><trkpt lat="45.50151451943286" lon="11.119501724413775"><ele>306.5</ele><time>2026-04-08T07:35:07Z</time></trkpt><trkpt lat="45.50151022247869" lon="11.119388358923025"><ele>308.66666666666663</ele><time>2026-04-08T07:35:09Z</time></trkpt><trkpt lat="45.50158747253489" lon="11.11939217762114"><ele>310.8333333333333</ele><time>2026-04-08T07:35:10.999Z</time></trkpt><trkpt lat="45.50166043463144" lon="11.119403356672347"><ele>313.0</ele><time>2026-04-08T07:35:11.999Z</time></trkpt><trkpt lat="45.50174408345535" lon="11.11943495242775"><ele>313.0</ele><time>2026-04-08T07:35:12.999Z</time></trkpt><trkpt lat="45.50183660649906" lon="11.11942419673416"><ele>313.0</ele><time>2026-04-08T07:35:13.999Z</time></trkpt><trkpt lat="45.501917856455094" lon="11.119432217483471"><ele>313.0</ele><time>2026-04-08T07:35:14.999Z</time></trkpt><trkpt lat="45.50198894473764" lon="11.119416190098779"><ele>313.0</ele><time>2026-04-08T07:35:15.999Z</time></trkpt><trkpt lat="45.50205734811187" lon="11.119388933222641"><ele>313.0</ele><time>2026-04-08T07:35:16.999Z</time></trkpt><trkpt lat="45.50212017307232" lon="11.119401396513613"><ele>313.0</ele><time>2026-04-08T07:35:17.999Z</time></trkpt><trkpt lat="45.50218645477564" lon="11.119461305686505"><ele>314.0</ele><time>2026-04-08T07:35:18.999Z</time></trkpt><trkpt lat="45.50224340402246" lon="11.119541952523335"><ele>315.0</ele><time>2026-04-08T07:35:19.999Z</time></trkpt><trkpt lat="45.50230471404692" lon="11.119639379600008"><ele>316.0</ele><time>2026-04-08T07:35:20.999Z</time></trkpt><trkpt lat="45.502300407788134" lon="11.119790682987457"><ele>317.0</ele><time>2026-04-08T07:35:21.999Z</time></trkpt><trkpt lat="45.502313671795015" lon="11.11991613426243"><ele>318.0</ele><time>2026-04-08T07:35:22.999Z</time></trkpt><trkpt lat="45.502356627847945" lon="11.12001804804361"><ele>315.4</ele><time>2026-04-08T07:35:23.999Z</time></trkpt><trkpt lat="45.502420199605744" lon="11.120112718946716"><ele>312.8</ele><time>2026-04-08T07:35:24.999Z</time></trkpt><trkpt lat="45.50249298835872" lon="11.120227966682197"><ele>310.2</ele><time>2026-04-08T07:35:25.999Z</time></trkpt><trkpt lat="45.50258199290147" lon="11.120347987791657"><ele>307.6</ele><time>2026-04-08T07:35:26.999Z</time></trkpt><trkpt lat="45.50267380103012" lon="11.12046962479097"><ele>305.0</ele><time>2026-04-08T07:35:27.999Z</time></trkpt><trkpt lat="45.50277255344633" lon="11.12059145028914"><ele>305.0</ele><time>2026-04-08T07:35:28.999Z</time></trkpt><trkpt lat="45.502871847342014" lon="11.120713750708502"><ele>305.0</ele><time>2026-04-08T07:35:29.999Z</time></trkpt><trkpt lat="45.50297152760837" lon="11.120840640211682"><ele>305.0</ele><time>2026-04-08T07:35:30.999Z</time></trkpt><trkpt lat="45.503058151087124" lon="11.120991405133312"><ele>305.0</ele><time>2026-04-08T07:35:31.999Z</time></trkpt><trkpt lat="45.503138073387554" lon="11.121135665751742"><ele>305.5</ele><time>2026-04-08T07:35:32.999Z</time></trkpt><trkpt lat="45.50322628079623" lon="11.121264666248345"><ele>306.0</ele><time>2026-04-08T07:35:33.999Z</time></trkpt><trkpt lat="45.50330967328356" lon="11.12140528026796"><ele>306.5</ele><time>2026-04-08T07:35:34.999Z</time></trkpt><trkpt lat="45.50340671932301" lon="11.121537938002508"><ele>307.0</ele><time>2026-04-08T07:35:35.998Z</time></trkpt><trkpt lat="45.503485904542146" lon="11.121652735443098"><ele>304.8</ele><time>2026-04-08T07:35:36.998Z</time></trkpt><trkpt lat="45.503556947841155" lon="11.121753633304554"><ele>302.6</ele><time>2026-04-08T07:35:37.998Z</time></trkpt><trkpt lat="45.50362196622654" lon="11.12184180391797"><ele>300.40000000000003</ele><time>2026-04-08T07:35:38.998Z</time></trkpt><trkpt lat="45.50368823791791" lon="11.12192255156577"><ele>298.2</ele><time>2026-04-08T07:35:39.998Z</time></trkpt><trkpt lat="45.50375773950427" lon="11.122025034617959"><ele>296.0</ele><time>2026-04-08T07:35:40.998Z</time></trkpt><trkpt lat="45.503847799142754" lon="11.122128363402336"><ele>296.0</ele><time>2026-04-08T07:35:41.998Z</time></trkpt><trkpt lat="45.50393245343204" lon="11.122215423900673"><ele>296.0</ele><time>2026-04-08T07:35:42.999Z</time></trkpt><trkpt lat="45.504010542339024" lon="11.122281306413965"><ele>296.0</ele><time>2026-04-08T07:35:43.999Z</time></trkpt><trkpt lat="45.50408917953252" lon="11.122320012512802"><ele>296.0</ele><time>2026-04-08T07:35:44.999Z</time></trkpt><trkpt lat="45.504179369759115" lon="11.1223774082266"><ele>296.0</ele><time>2026-04-08T07:35:45.999Z</time></trkpt><trkpt lat="45.504259579501856" lon="11.122431102112824"><ele>296.0</ele><time>2026-04-08T07:35:46.999Z</time></trkpt><trkpt lat="45.504323518764835" lon="11.122459172054736"><ele>296.0</ele><time>2026-04-08T07:35:47.999Z</time></trkpt><trkpt lat="45.504426458912874" lon="11.122449275274324"><ele>296.0</ele><time>2026-04-08T07:35:49.999Z</time></trkpt><trkpt lat="45.50451077737622" lon="11.122338518613194"><ele>296.0</ele><time>2026-04-08T07:35:51.999Z</time></trkpt><trkpt lat="45.504532232414476" lon="11.122234088885241"><ele>296.0</ele><time>2026-04-08T07:35:52.999Z</time></trkpt><trkpt lat="45.50455420182172" lon="11.122089108586685"><ele>296.0</ele><time>2026-04-08T07:35:53.999Z</time></trkpt><trkpt lat="45.50457454345474" lon="11.121955861785676"><ele>296.0</ele><time>2026-04-08T07:35:54.999Z</time></trkpt><trkpt lat="45.504582284660266" lon="11.121825107441815"><ele>296.0</ele><time>2026-04-08T07:35:55.999Z</time></trkpt><trkpt lat="45.504610928454554" lon="11.121733883906778"><ele>296.0</ele><time>2026-04-08T07:35:56.999Z</time></trkpt><trkpt lat="45.504643528279" lon="11.1216329871419"><ele>296.0</ele><time>2026-04-08T07:35:58.999Z</time></trkpt><trkpt lat="45.50471270653646" lon="11.121646205251919"><ele>296.0</ele><time>2026-04-08T07:35:59.999Z</time></trkpt><trkpt lat="45.50473972840427" lon="11.121766930614752"><ele>294.33333333333337</ele><time>2026-04-08T07:36:00.999Z</time></trkpt><trkpt lat="45.50473699174963" lon="11.121884880790763"><ele>292.6666666666667</ele><time>2026-04-08T07:36:01.999Z</time></trkpt><trkpt lat="45.50477836073072" lon="11.1219615918659"><ele>291.0</ele><time>2026-04-08T07:36:02.999Z</time></trkpt><trkpt lat="45.50481644847885" lon="11.122049554650001"><ele>289.3333333333333</ele><time>2026-04-08T07:36:03.999Z</time></trkpt><trkpt lat="45.50487623664577" lon="11.122113702530694"><ele>287.66666666666663</ele><time>2026-04-08T07:36:04.999Z</time></trkpt><trkpt lat="45.50495968784668" lon="11.12218739905287"><ele>286.0</ele><time>2026-04-08T07:36:05.999Z</time></trkpt><trkpt lat="45.50506244009318" lon="11.122249733181485"><ele>286.0</ele><time>2026-04-08T07:36:06.999Z</time></trkpt><trkpt lat="45.50515665519685" lon="11.122269922683746"><ele>286.0</ele><time>2026-04-08T07:36:07.999Z</time></trkpt><trkpt lat="45.50526285311921" lon="11.12226667975433"><ele>286.0</ele><time>2026-04-08T07:36:08.999Z</time></trkpt><trkpt lat="45.50538705597021" lon="11.12223691231413"><ele>286.0</ele><time>2026-04-08T07:36:09.999Z</time></trkpt><trkpt lat="45.50551327083292" lon="11.12224272752534"><ele>286.6</ele><time>2026-04-08T07:36:10.999Z</time></trkpt><trkpt lat="45.50561752385943" lon="11.122217835996864"><ele>287.20000000000005</ele><time>2026-04-08T07:36:11.999Z</time></trkpt><trkpt lat="45.505695968935605" lon="11.122168388783713"><ele>287.79999999999995</ele><time>2026-04-08T07:36:12.999Z</time></trkpt><trkpt lat="45.5057910644372" lon="11.122134891541307"><ele>288.4</ele><time>2026-04-08T07:36:13.999Z</time></trkpt><trkpt lat="45.505849533429085" lon="11.122025436169197"><ele>289.0</ele><time>2026-04-08T07:36:14.999Z</time></trkpt><trkpt lat="45.50591227737953" lon="11.12197288674165"><ele>289.0</ele><time>2026-04-08T07:36:15.999Z</time></trkpt><trkpt lat="45.50601902484848" lon="11.122042452347348"><ele>289.0</ele><time>2026-04-08T07:36:16.999Z</time></trkpt><trkpt lat="45.50611486131588" lon="11.122088931790733"><ele>289.0</ele><time>2026-04-08T07:36:18.999Z</time></trkpt><trkpt lat="45.50615790507674" lon="11.12218840772194"><ele>289.0</ele><time>2026-04-08T07:36:19.999Z</time></trkpt><trkpt lat="45.50619020521516" lon="11.12233012025274"><ele>289.0</ele><time>2026-04-08T07:36:20.999Z</time></trkpt><trkpt lat="45.50623594142479" lon="11.122483380204814"><ele>290.4</ele><time>2026-04-08T07:36:21.999Z</time></trkpt><trkpt lat="45.506302455911005" lon="11.122639382590172"><ele>291.79999999999995</ele><time>2026-04-08T07:36:22.999Z</time></trkpt><trkpt lat="45.50636595887306" lon="11.122785738072503"><ele>293.20000000000005</ele><time>2026-04-08T07:36:23.999Z</time></trkpt><trkpt lat="45.50641396311826" lon="11.122921266586953"><ele>294.6</ele><time>2026-04-08T07:36:24.999Z</time></trkpt><trkpt lat="45.506441897429" lon="11.123014000257669"><ele>296.0</ele><time>2026-04-08T07:36:25.999Z</time></trkpt><trkpt lat="45.506524459985144" lon="11.123098160264682"><ele>296.0</ele><time>2026-04-08T07:36:27.999Z</time></trkpt><trkpt lat="45.50667868475023" lon="11.123098171033172"><ele>296.0</ele><time>2026-04-08T07:36:29.999Z</time></trkpt><trkpt lat="45.50676944298166" lon="11.123119862678573"><ele>296.0</ele><time>2026-04-08T07:36:30.999Z</time></trkpt><trkpt lat="45.506857269720705" lon="11.123148231673035"><ele>296.0</ele><time>2026-04-08T07:36:31.999Z</time></trkpt><trkpt lat="45.50694434608146" lon="11.123146349405818"><ele>296.0</ele><time>2026-04-08T07:36:32.999Z</time></trkpt><trkpt lat="45.50702604027439" lon="11.12309075983297"><ele>296.2</ele><time>2026-04-08T07:36:33.999Z</time></trkpt><trkpt lat="45.507113381600654" lon="11.123008719191045"><ele>296.40000000000003</ele><time>2026-04-08T07:36:34.999Z</time></trkpt><trkpt lat="45.50717093910598" lon="11.122914555616244"><ele>296.6</ele><time>2026-04-08T07:36:35.999Z</time></trkpt><trkpt lat="45.507211307798286" lon="11.12279381083056"><ele>296.8</ele><time>2026-04-08T07:36:36.999Z</time></trkpt><trkpt lat="45.50723476374999" lon="11.122661647120067"><ele>297.0</ele><time>2026-04-08T07:36:37.999Z</time></trkpt><trkpt lat="45.50725406285693" lon="11.122510496985933"><ele>298.8</ele><time>2026-04-08T07:36:38.999Z</time></trkpt><trkpt lat="45.50726843595297" lon="11.122382684382423"><ele>300.6</ele><time>2026-04-08T07:36:39.999Z</time></trkpt><trkpt lat="45.507260032929864" lon="11.1222543610731"><ele>302.40000000000003</ele><time>2026-04-08T07:36:41.999Z</time></trkpt><trkpt lat="45.507167149070334" lon="11.122291607915866"><ele>304.2</ele><time>2026-04-08T07:36:44.999Z</time></trkpt><trkpt lat="45.507064317274235" lon="11.122370444410874"><ele>306.0</ele><time>2026-04-08T07:36:46.999Z</time></trkpt><trkpt lat="45.50699269318521" lon="11.122354165570218"><ele>306.0</ele><time>2026-04-08T07:36:47.999Z</time></trkpt><trkpt lat="45.50693483396672" lon="11.12229933884776"><ele>306.0</ele><time>2026-04-08T07:36:48.999Z</time></trkpt><trkpt lat="45.50688201667508" lon="11.122215620532534"><ele>306.0</ele><time>2026-04-08T07:36:49.999Z</time></trkpt><trkpt lat="45.50683878628268" lon="11.12210569506868"><ele>306.0</ele><time>2026-04-08T07:36:50.999Z</time></trkpt><trkpt lat="45.506804363745346" lon="11.121966027699273"><ele>306.0</ele><time>2026-04-08T07:36:51.999Z</time></trkpt><trkpt lat="45.5067824505351" lon="11.121807540318683"><ele>306.0</ele><time>2026-04-08T07:36:52.999Z</time></trkpt><trkpt lat="45.50678286722834" lon="11.121660264940871"><ele>306.0</ele><time>2026-04-08T07:36:53.999Z</time></trkpt><trkpt lat="45.50679605459515" lon="11.121517742769571"><ele>306.0</ele><time>2026-04-08T07:36:54.999Z</time></trkpt><trkpt lat="45.50682713873218" lon="11.121375412922944"><ele>306.0</ele><time>2026-04-08T07:36:55.999Z</time></trkpt><trkpt lat="45.50687366080176" lon="11.121251127468797"><ele>306.0</ele><time>2026-04-08T07:36:56.999Z</time></trkpt><trkpt lat="45.50691155435653" lon="11.121139270030348"><ele>307.40000000000003</ele><time>2026-04-08T07:36:57.999Z</time></trkpt><trkpt lat="45.506951660610426" lon="11.121063632265027"><ele>308.8</ele><time>2026-04-08T07:36:58.999Z</time></trkpt><trkpt lat="45.50705402348258" lon="11.12094216516664"><ele>310.20000000000005</ele><time>2026-04-08T07:37:00.999Z</time></trkpt><trkpt lat="45.50711505937193" lon="11.120825567975954"><ele>311.6</ele><time>2026-04-08T07:37:01.999Z</time></trkpt><trkpt lat="45.5071776779141" lon="11.120717767145305"><ele>313.0</ele><time>2026-04-08T07:37:02.999Z</time></trkpt><trkpt lat="45.50725052060737" lon="11.120633984619593"><ele>318.2</ele><time>2026-04-08T07:37:03.999Z</time></trkpt><trkpt lat="45.507329696785234" lon="11.120552141150064"><ele>323.4</ele><time>2026-04-08T07:37:04.999Z</time></trkpt><trkpt lat="45.507412244266774" lon="11.120444167659025"><ele>328.59999999999997</ele><time>2026-04-08T07:37:05.999Z</time></trkpt><trkpt lat="45.50747584972639" lon="11.120354649635972"><ele>333.8</ele><time>2026-04-08T07:37:06.999Z</time></trkpt><trkpt lat="45.50753034941738" lon="11.120234671625248"><ele>339.0</ele><time>2026-04-08T07:37:07.999Z</time></trkpt><trkpt lat="45.50758245821593" lon="11.120115394931897"><ele>339.0</ele><time>2026-04-08T07:37:08.999Z</time></trkpt><trkpt lat="45.50764921248999" lon="11.119982909456256"><ele>339.0</ele><time>2026-04-08T07:37:09.999Z</time></trkpt><trkpt lat="45.507701650116175" lon="11.119841396393795"><ele>339.0</ele><time>2026-04-08T07:37:10.999Z</time></trkpt><trkpt lat="45.50774701163177" lon="11.119678595846645"><ele>339.0</ele><time>2026-04-08T07:37:11.999Z</time></trkpt><trkpt lat="45.507795260943716" lon="11.11948270895382"><ele>339.3333333333333</ele><time>2026-04-08T07:37:12.999Z</time></trkpt><trkpt lat="45.507852633538086" lon="11.119283027483952"><ele>339.66666666666663</ele><time>2026-04-08T07:37:13.999Z</time></trkpt><trkpt lat="45.50791347312606" lon="11.11908540801863"><ele>340.0</ele><time>2026-04-08T07:37:14.999Z</time></trkpt><trkpt lat="45.507981698795106" lon="11.118878543416528"><ele>342.25</ele><time>2026-04-08T07:37:15.999Z</time></trkpt><trkpt lat="45.50804220127134" lon="11.118692497761524"><ele>344.5</ele><time>2026-04-08T07:37:16.999Z</time></trkpt><trkpt lat="45.50810271934362" lon="11.118544839071042"><ele>346.75</ele><time>2026-04-08T07:37:17.999Z</time></trkpt><trkpt lat="45.508176160538184" lon="11.118411542309106"><ele>349.0</ele><time>2026-04-08T07:37:18.999Z</time></trkpt><trkpt lat="45.508253190945055" lon="11.118293754181485"><ele>349.2</ele><time>2026-04-08T07:37:19.999Z</time></trkpt><trkpt lat="45.50832483511319" lon="11.118173704227686"><ele>349.4</ele><time>2026-04-08T07:37:20.999Z</time></trkpt><trkpt lat="45.50838811650491" lon="11.118039867496629"><ele>349.6</ele><time>2026-04-08T07:37:21.999Z</time></trkpt><trkpt lat="45.50843085354961" lon="11.117907172488357"><ele>349.8</ele><time>2026-04-08T07:37:22.999Z</time></trkpt><trkpt lat="45.5084625313181" lon="11.11780002443408"><ele>350.0</ele><time>2026-04-08T07:37:23.999Z</time></trkpt><trkpt lat="45.508471683653056" lon="11.117697712779542"><ele>350.0</ele><time>2026-04-08T07:37:24.999Z</time></trkpt><trkpt lat="45.50846944434243" lon="11.117559431908298"><ele>350.0</ele><time>2026-04-08T07:37:25.999Z</time></trkpt><trkpt lat="45.50846024690308" lon="11.11745177862533"><ele>350.0</ele><time>2026-04-08T07:37:26.999Z</time></trkpt><trkpt lat="45.50845267221413" lon="11.117350636488249"><ele>350.0</ele><time>2026-04-08T07:37:27.999Z</time></trkpt><trkpt lat="45.50845750167183" lon="11.11720244715824"><ele>350.0</ele><time>2026-04-08T07:37:28.999Z</time></trkpt><trkpt lat="45.50846628845818" lon="11.117054017094986"><ele>351.42857142857144</ele><time>2026-04-08T07:37:29.999Z</time></trkpt><trkpt lat="45.508467726700445" lon="11.11694176364524"><ele>352.8571428571429</ele><time>2026-04-08T07:37:30.999Z</time></trkpt><trkpt lat="45.508471470425974" lon="11.116847399637098"><ele>354.2857142857143</ele><time>2026-04-08T07:37:31.999Z</time></trkpt><trkpt lat="45.5084602041301" lon="11.116727951157765"><ele>355.7142857142857</ele><time>2026-04-08T07:37:32.999Z</time></trkpt><trkpt lat="45.50843673571661" lon="11.116639487547207"><ele>357.14285714285717</ele><time>2026-04-08T07:37:33.999Z</time></trkpt><trkpt lat="45.50842148456517" lon="11.116516562865742"><ele>358.57142857142856</ele><time>2026-04-08T07:37:34.999Z</time></trkpt><trkpt lat="45.508397225996546" lon="11.116429768644034"><ele>360.0</ele><time>2026-04-08T07:37:35.999Z</time></trkpt><trkpt lat="45.5084659805573" lon="11.116355947823251"><ele>362.8333333333333</ele><time>2026-04-08T07:37:38.999Z</time></trkpt><trkpt lat="45.50852784252831" lon="11.116293926381168"><ele>365.6666666666667</ele><time>2026-04-08T07:37:39.999Z</time></trkpt><trkpt lat="45.508586263576994" lon="11.116231456548778"><ele>368.5</ele><time>2026-04-08T07:37:40.999Z</time></trkpt><trkpt lat="45.50865007988461" lon="11.11613534235906"><ele>371.33333333333337</ele><time>2026-04-08T07:37:42.999Z</time></trkpt><trkpt lat="45.50863354279913" lon="11.116032422829257"><ele>374.1666666666667</ele><time>2026-04-08T07:37:44.999Z</time></trkpt><trkpt lat="45.508592966700476" lon="11.115890935069029"><ele>377.0</ele><time>2026-04-08T07:37:46.999Z</time></trkpt><trkpt lat="45.508570359672596" lon="11.115777708067743"><ele>378.8</ele><time>2026-04-08T07:37:47.999Z</time></trkpt><trkpt lat="45.5085236426869" lon="11.115666909218978"><ele>380.6</ele><time>2026-04-08T07:37:48.999Z</time></trkpt><trkpt lat="45.5084470332599" lon="11.115551042937607"><ele>382.40000000000003</ele><time>2026-04-08T07:37:49.999Z</time></trkpt><trkpt lat="45.508378946448516" lon="11.115430983031121"><ele>384.20000000000005</ele><time>2026-04-08T07:37:50.999Z</time></trkpt><trkpt lat="45.508327254011185" lon="11.115319905771067"><ele>386.0</ele><time>2026-04-08T07:37:51.999Z</time></trkpt><trkpt lat="45.50827634554173" lon="11.11520719231709"><ele>386.0</ele><time>2026-04-08T07:37:52.999Z</time></trkpt><trkpt lat="45.508211970581236" lon="11.115061803394145"><ele>386.0</ele><time>2026-04-08T07:37:53.999Z</time></trkpt><trkpt lat="45.50816514957916" lon="11.114907725210886"><ele>386.0</ele><time>2026-04-08T07:37:54.999Z</time></trkpt><trkpt lat="45.508120252864884" lon="11.114755349778772"><ele>386.0</ele><time>2026-04-08T07:37:55.999Z</time></trkpt><trkpt lat="45.5080743571876" lon="11.114610808492634"><ele>386.20000000000005</ele><time>2026-04-08T07:37:56.999Z</time></trkpt><trkpt lat="45.508036323707216" lon="11.114481683551755"><ele>386.40000000000003</ele><time>2026-04-08T07:37:57.999Z</time></trkpt><trkpt lat="45.50800307489252" lon="11.114386861097724"><ele>386.6</ele><time>2026-04-08T07:37:58.999Z</time></trkpt><trkpt lat="45.507927501779534" lon="11.11425577526013"><ele>386.8</ele><time>2026-04-08T07:38:00.999Z</time></trkpt><trkpt lat="45.50785123646629" lon="11.114228104947847"><ele>387.0</ele><time>2026-04-08T07:38:01.999Z</time></trkpt><trkpt lat="45.507772602905405" lon="11.114198875529782"><ele>388.5</ele><time>2026-04-08T07:38:02.999Z</time></trkpt><trkpt lat="45.507695005150445" lon="11.114145977758149"><ele>390.0</ele><time>2026-04-08T07:38:03.999Z</time></trkpt><trkpt lat="45.50764222758603" lon="11.114056579839701"><ele>391.5</ele><time>2026-04-08T07:38:04.999Z</time></trkpt><trkpt lat="45.50761353099268" lon="11.113968013476049"><ele>393.0</ele><time>2026-04-08T07:38:05.999Z</time></trkpt><trkpt lat="45.50759954308578" lon="11.113846612821318"><ele>394.5</ele><time>2026-04-08T07:38:06.999Z</time></trkpt><trkpt lat="45.50758499395942" lon="11.11369565600085"><ele>396.0</ele><time>2026-04-08T07:38:07.999Z</time></trkpt><trkpt lat="45.50756816154946" lon="11.113560939837324"><ele>397.6666666666667</ele><time>2026-04-08T07:38:08.999Z</time></trkpt><trkpt lat="45.50752897972191" lon="11.113444778389265"><ele>399.33333333333337</ele><time>2026-04-08T07:38:09.999Z</time></trkpt><trkpt lat="45.50749105151397" lon="11.113361597021921"><ele>401.0</ele><time>2026-04-08T07:38:10.999Z</time></trkpt><trkpt lat="45.507465541852696" lon="11.113264386671013"><ele>402.6666666666667</ele><time>2026-04-08T07:38:11.999Z</time></trkpt><trkpt lat="45.50744044859551" lon="11.113164621137324"><ele>404.33333333333337</ele><time>2026-04-08T07:38:12.999Z</time></trkpt><trkpt lat="45.507374257459055" lon="11.11315844459105"><ele>406.0</ele><time>2026-04-08T07:38:13.999Z</time></trkpt><trkpt lat="45.507312446737785" lon="11.113226748450469"><ele>406.0</ele><time>2026-04-08T07:38:14.999Z</time></trkpt><trkpt lat="45.50727661541028" lon="11.113301760486758"><ele>406.0</ele><time>2026-04-08T07:38:15.999Z</time></trkpt><trkpt lat="45.50718583502775" lon="11.113226014648928"><ele>406.0</ele><time>2026-04-08T07:38:16.999Z</time></trkpt><trkpt lat="45.507119550769325" lon="11.113088476520478"><ele>406.0</ele><time>2026-04-08T07:38:17.999Z</time></trkpt><trkpt lat="45.5071949148266" lon="11.1133453040949"><ele>406.0</ele><time>2026-04-08T07:38:18.999Z</time></trkpt><trkpt lat="45.50712222808241" lon="11.113370317406462"><ele>406.0</ele><time>2026-04-08T07:38:23Z</time></trkpt><trkpt lat="45.507077960991374" lon="11.113282206339164"><ele>406.0</ele><time>2026-04-08T07:38:26Z</time></trkpt><trkpt lat="45.50696539527146" lon="11.112563800069587"><ele>409.1666666666667</ele><time>2026-04-08T07:38:28Z</time></trkpt><trkpt lat="45.506919599929404" lon="11.112456492756262"><ele>412.33333333333337</ele><time>2026-04-08T07:38:29Z</time></trkpt><trkpt lat="45.50687338787216" lon="11.112378008920457"><ele>415.5</ele><time>2026-04-08T07:38:30Z</time></trkpt><trkpt lat="45.50685275484696" lon="11.112225912091013"><ele>418.66666666666663</ele><time>2026-04-08T07:38:32Z</time></trkpt><trkpt lat="45.50681756973009" lon="11.11214405363007"><ele>421.8333333333333</ele><time>2026-04-08T07:38:34Z</time></trkpt><trkpt lat="45.50678107150647" lon="11.112044873454773"><ele>425.0</ele><time>2026-04-08T07:38:43Z</time></trkpt><trkpt lat="45.50678214095666" lon="11.11193795171836"><ele>430.0</ele><time>2026-04-08T07:38:46Z</time></trkpt><trkpt lat="45.506758653654416" lon="11.111842268752634"><ele>435.0</ele><time>2026-04-08T07:38:47Z</time></trkpt><trkpt lat="45.50666373623444" lon="11.11178673320007"><ele>440.0</ele><time>2026-04-08T07:38:48Z</time></trkpt><trkpt lat="45.50685119096512" lon="11.111479315755034"><ele>443.0</ele><time>2026-04-08T07:38:49Z</time></trkpt><trkpt lat="45.50683042933578" lon="11.111342041087127"><ele>446.0</ele><time>2026-04-08T07:38:50Z</time></trkpt><trkpt lat="45.50681209407944" lon="11.111218797895365"><ele>449.0</ele><time>2026-04-08T07:38:51Z</time></trkpt><trkpt lat="45.506787633246546" lon="11.111090295328635"><ele>452.0</ele><time>2026-04-08T07:38:52Z</time></trkpt><trkpt lat="45.50681835458425" lon="11.110966661545277"><ele>455.0</ele><time>2026-04-08T07:38:54Z</time></trkpt><trkpt lat="45.50688176822428" lon="11.110872288451395"><ele>455.0</ele><time>2026-04-08T07:39:41Z</time></trkpt><trkpt lat="45.50696890125813" lon="11.110829061329124"><ele>455.0</ele><time>2026-04-08T07:39:42Z</time></trkpt><trkpt lat="45.50703886679955" lon="11.110793145508143"><ele>455.0</ele><time>2026-04-08T07:39:43Z</time></trkpt><trkpt lat="45.50710310025375" lon="11.110761096381474"><ele>455.0</ele><time>2026-04-08T07:39:44Z</time></trkpt><trkpt lat="45.50720197101785" lon="11.11070948870218"><ele>455.0</ele><time>2026-04-08T07:39:46Z</time></trkpt><trkpt lat="45.50733125979547" lon="11.110649174594418"><ele>453.2</ele><time>2026-04-08T07:39:48.001Z</time></trkpt><trkpt lat="45.50737934607754" lon="11.110579389313932"><ele>451.4</ele><time>2026-04-08T07:39:49.001Z</time></trkpt><trkpt lat="45.50745224457309" lon="11.110420977208488"><ele>449.6</ele><time>2026-04-08T07:39:50.001Z</time></trkpt><trkpt lat="45.50748620938331" lon="11.11024781607344"><ele>447.8</ele><time>2026-04-08T07:39:51.001Z</time></trkpt><trkpt lat="45.50749725954501" lon="11.110129596548692"><ele>446.0</ele><time>2026-04-08T07:39:52.001Z</time></trkpt><trkpt lat="45.50751029335768" lon="11.109963962955918"><ele>447.0</ele><time>2026-04-08T07:39:54.001Z</time></trkpt><trkpt lat="45.5075223747048" lon="11.109800361005673"><ele>448.0</ele><time>2026-04-08T07:39:56.001Z</time></trkpt><trkpt lat="45.50703935235229" lon="11.109473951078407"><ele>451.79999999999995</ele><time>2026-04-08T07:39:58.001Z</time></trkpt><trkpt lat="45.50697733706521" lon="11.109364709652237"><ele>455.59999999999997</ele><time>2026-04-08T07:39:59.001Z</time></trkpt><trkpt lat="45.50690698772757" lon="11.109240105584806"><ele>459.40000000000003</ele><time>2026-04-08T07:40:00.001Z</time></trkpt><trkpt lat="45.50684072649148" lon="11.109135274345778"><ele>463.20000000000005</ele><time>2026-04-08T07:40:01.001Z</time></trkpt><trkpt lat="45.50677654200765" lon="11.109011369029034"><ele>467.0</ele><time>2026-04-08T07:40:02Z</time></trkpt><trkpt lat="45.506715260614456" lon="11.108881343876039"><ele>468.66666666666663</ele><time>2026-04-08T07:40:03Z</time></trkpt><trkpt lat="45.5066633134402" lon="11.108759600080024"><ele>470.3333333333333</ele><time>2026-04-08T07:40:04Z</time></trkpt><trkpt lat="45.50662037443594" lon="11.108638198552478"><ele>472.0</ele><time>2026-04-08T07:40:05Z</time></trkpt><trkpt lat="45.506591912233795" lon="11.108521247014886"><ele>473.66666666666663</ele><time>2026-04-08T07:40:06Z</time></trkpt><trkpt lat="45.506579202895956" lon="11.108413128215403"><ele>475.3333333333333</ele><time>2026-04-08T07:40:07Z</time></trkpt><trkpt lat="45.50655577235126" lon="11.108311864570943"><ele>477.0</ele><time>2026-04-08T07:40:08Z</time></trkpt><trkpt lat="45.5065156649274" lon="11.10820764640054"><ele>480.20000000000005</ele><time>2026-04-08T07:40:09Z</time></trkpt><trkpt lat="45.50649692520092" lon="11.108097243112802"><ele>483.40000000000003</ele><time>2026-04-08T07:40:10Z</time></trkpt><trkpt lat="45.5064714946758" lon="11.10795887669593"><ele>486.59999999999997</ele><time>2026-04-08T07:40:11Z</time></trkpt><trkpt lat="45.50643894882025" lon="11.107853674654862"><ele>489.79999999999995</ele><time>2026-04-08T07:40:12Z</time></trkpt><trkpt lat="45.506357135132376" lon="11.10776468689788"><ele>493.0</ele><time>2026-04-08T07:40:14Z</time></trkpt><trkpt lat="45.506231802944924" lon="11.107758425501475"><ele>493.6666666666667</ele><time>2026-04-08T07:40:16Z</time></trkpt><trkpt lat="45.506163692817786" lon="11.107754073955492"><ele>494.33333333333337</ele><time>2026-04-08T07:40:17Z</time></trkpt><trkpt lat="45.50608048707498" lon="11.107741859481406"><ele>495.0</ele><time>2026-04-08T07:40:18Z</time></trkpt><trkpt lat="45.505995212014525" lon="11.107703301397745"><ele>495.66666666666663</ele><time>2026-04-08T07:40:19Z</time></trkpt><trkpt lat="45.505925599421644" lon="11.107662052462626"><ele>496.3333333333333</ele><time>2026-04-08T07:40:20Z</time></trkpt><trkpt lat="45.50585497336847" lon="11.107538622274882"><ele>497.0</ele><time>2026-04-08T07:40:22Z</time></trkpt><trkpt lat="45.505799520236245" lon="11.107458845651532"><ele>499.16666666666663</ele><time>2026-04-08T07:40:23Z</time></trkpt><trkpt lat="45.50574368173414" lon="11.107398809719614"><ele>501.3333333333333</ele><time>2026-04-08T07:40:24Z</time></trkpt><trkpt lat="45.5056496913528" lon="11.10733844394238"><ele>503.5</ele><time>2026-04-08T07:40:25Z</time></trkpt><trkpt lat="45.50556828221184" lon="11.1072731094605"><ele>505.66666666666663</ele><time>2026-04-08T07:40:26Z</time></trkpt><trkpt lat="45.50548608059379" lon="11.107208587910709"><ele>507.8333333333333</ele><time>2026-04-08T07:40:27Z</time></trkpt><trkpt lat="45.505413171403795" lon="11.107152091759245"><ele>510.0</ele><time>2026-04-08T07:40:28Z</time></trkpt><trkpt lat="45.50534333937207" lon="11.107055777727489"><ele>510.0</ele><time>2026-04-08T07:40:30Z</time></trkpt><trkpt lat="45.505319949340326" lon="11.106905593830652"><ele>510.0</ele><time>2026-04-08T07:40:32Z</time></trkpt><trkpt lat="45.50532243100912" lon="11.106802037826894"><ele>510.0</ele><time>2026-04-08T07:40:33Z</time></trkpt><trkpt lat="45.505332068972436" lon="11.106686179925537"><ele>510.0</ele><time>2026-04-08T07:40:34Z</time></trkpt><trkpt lat="45.5053479730947" lon="11.106577943666863"><ele>510.0</ele><time>2026-04-08T07:40:35Z</time></trkpt><trkpt lat="45.50540428929952" lon="11.10647900918564"><ele>510.0</ele><time>2026-04-08T07:40:37Z</time></trkpt><trkpt lat="45.505477208939844" lon="11.106565154574993"><ele>514.0</ele><time>2026-04-08T07:40:40Z</time></trkpt><trkpt lat="45.50555280267032" lon="11.106548249129709"><ele>518.0</ele><time>2026-04-08T07:40:42Z</time></trkpt><trkpt lat="45.50561188796274" lon="11.106505952770902"><ele>522.0</ele><time>2026-04-08T07:40:43Z</time></trkpt><trkpt lat="45.505711860433806" lon="11.10651630223831"><ele>526.0</ele><time>2026-04-08T07:40:45Z</time></trkpt><trkpt lat="45.50581511634426" lon="11.106512559216846"><ele>530.0</ele><time>2026-04-08T07:40:47Z</time></trkpt><trkpt lat="45.50587947062889" lon="11.106525914155633"><ele>534.0</ele><time>2026-04-08T07:40:48Z</time></trkpt><trkpt lat="45.50597850246672" lon="11.106524537172328"><ele>534.0</ele><time>2026-04-08T07:40:50Z</time></trkpt><trkpt lat="45.50601879594948" lon="11.10643437403299"><ele>534.0</ele><time>2026-04-08T07:40:52Z</time></trkpt><trkpt lat="45.50607848933426" lon="11.106353706414168"><ele>534.0</ele><time>2026-04-08T07:40:53Z</time></trkpt><trkpt lat="45.50614739659818" lon="11.106280866428508"><ele>534.0</ele><time>2026-04-08T07:40:54Z</time></trkpt><trkpt lat="45.50620487844417" lon="11.106139819617354"><ele>534.0</ele><time>2026-04-08T07:40:56Z</time></trkpt><trkpt lat="45.50620470945698" lon="11.105993588021922"><ele>534.0</ele><time>2026-04-08T07:40:58Z</time></trkpt><trkpt lat="45.50623694589949" lon="11.105845024426165"><ele>534.0</ele><time>2026-04-08T07:41:00Z</time></trkpt><trkpt lat="45.506289444015536" lon="11.105784470483284"><ele>534.0</ele><time>2026-04-08T07:41:01Z</time></trkpt><trkpt lat="45.506322967012395" lon="11.10564954515997"><ele>534.0</ele><time>2026-04-08T07:41:03Z</time></trkpt><trkpt lat="45.50634585167332" lon="11.105559296363102"><ele>534.0</ele><time>2026-04-08T07:41:04Z</time></trkpt><trkpt lat="45.506359683669466" lon="11.10539101066079"><ele>532.1428571428572</ele><time>2026-04-08T07:41:06Z</time></trkpt><trkpt lat="45.50635866749609" lon="11.105301063865694"><ele>530.2857142857143</ele><time>2026-04-08T07:41:07Z</time></trkpt><trkpt lat="45.50637665095924" lon="11.105176141276306"><ele>528.4285714285714</ele><time>2026-04-08T07:41:09Z</time></trkpt><trkpt lat="45.50643127975529" lon="11.105118916393518"><ele>526.5714285714287</ele><time>2026-04-08T07:41:12Z</time></trkpt><trkpt lat="45.50647287061223" lon="11.105041097778548"><ele>524.7142857142858</ele><time>2026-04-08T07:41:16Z</time></trkpt><trkpt lat="45.506494359735406" lon="11.104945362159645"><ele>522.8571428571429</ele><time>2026-04-08T07:41:20Z</time></trkpt><trkpt lat="45.506539353976216" lon="11.104880544572843"><ele>521.0</ele><time>2026-04-08T07:41:23Z</time></trkpt><trkpt lat="45.506580344793555" lon="11.10478079883832"><ele>520.0</ele><time>2026-04-08T07:41:26Z</time></trkpt><trkpt lat="45.506608454135026" lon="11.104688202172857"><ele>519.0</ele><time>2026-04-08T07:41:29.001Z</time></trkpt><trkpt lat="45.506613597250926" lon="11.104577940588412"><ele>518.0</ele><time>2026-04-08T07:41:32.001Z</time></trkpt><trkpt lat="45.50661819844137" lon="11.104479082669094"><ele>517.0</ele><time>2026-04-08T07:41:34.001Z</time></trkpt><trkpt lat="45.50659920208318" lon="11.104350478326692"><ele>516.0</ele><time>2026-04-08T07:41:36.001Z</time></trkpt><trkpt lat="45.50662061935563" lon="11.104234243049206"><ele>515.0</ele><time>2026-04-08T07:41:38.001Z</time></trkpt><trkpt lat="45.50662730377626" lon="11.104116790324342"><ele>515.6</ele><time>2026-04-08T07:41:40.001Z</time></trkpt><trkpt lat="45.50661834985766" lon="11.103972922422122"><ele>516.2</ele><time>2026-04-08T07:41:42.001Z</time></trkpt><trkpt lat="45.506579693743426" lon="11.103874190423893"><ele>516.8</ele><time>2026-04-08T07:41:44.001Z</time></trkpt><trkpt lat="45.50655316971383" lon="11.103787319359096"><ele>517.4</ele><time>2026-04-08T07:41:52.001Z</time></trkpt><trkpt lat="45.50651029061191" lon="11.103640163825046"><ele>518.0</ele><time>2026-04-08T07:41:54.001Z</time></trkpt><trkpt lat="45.506434031084915" lon="11.103506348904785"><ele>518.0</ele><time>2026-04-08T07:41:56.001Z</time></trkpt><trkpt lat="45.5063650049333" lon="11.103403275942735"><ele>518.0</ele><time>2026-04-08T07:41:58.001Z</time></trkpt><trkpt lat="45.50631988295945" lon="11.103516265144577"><ele>518.0</ele><time>2026-04-08T07:42:03.001Z</time></trkpt><trkpt lat="45.50626768709527" lon="11.103599514793864"><ele>518.0</ele><time>2026-04-08T07:42:05.001Z</time></trkpt><trkpt lat="45.50618401722721" lon="11.103550267122879"><ele>518.0</ele><time>2026-04-08T07:42:10.001Z</time></trkpt><trkpt lat="45.50610410308315" lon="11.103504906378864"><ele>518.0</ele><time>2026-04-08T07:42:15.001Z</time></trkpt><trkpt lat="45.50609405966626" lon="11.103395134503812"><ele>522.0</ele><time>2026-04-08T07:42:17.001Z</time></trkpt><trkpt lat="45.506139415019014" lon="11.103218839933433"><ele>526.0</ele><time>2026-04-08T07:42:19.001Z</time></trkpt><trkpt lat="45.506201174530396" lon="11.103078989712872"><ele>530.0</ele><time>2026-04-08T07:42:21.001Z</time></trkpt><trkpt lat="45.50624924508025" lon="11.102988380786378"><ele>534.0</ele><time>2026-04-08T07:42:22.001Z</time></trkpt><trkpt lat="45.50628172330717" lon="11.102858359182738"><ele>538.0</ele><time>2026-04-08T07:42:24.001Z</time></trkpt><trkpt lat="45.506287071279246" lon="11.102733562004591"><ele>538.0</ele><time>2026-04-08T07:42:26.001Z</time></trkpt><trkpt lat="45.50632631425794" lon="11.102643764117143"><ele>538.0</ele><time>2026-04-08T07:42:27.001Z</time></trkpt><trkpt lat="45.50638130504595" lon="11.102551342678028"><ele>538.0</ele><time>2026-04-08T07:42:28.001Z</time></trkpt><trkpt lat="45.50642543298617" lon="11.102455467518075"><ele>538.0</ele><time>2026-04-08T07:42:29.001Z</time></trkpt><trkpt lat="45.50645999527375" lon="11.102357911628575"><ele>538.0</ele><time>2026-04-08T07:42:30.001Z</time></trkpt><trkpt lat="45.50650651563337" lon="11.102263546217996"><ele>538.0</ele><time>2026-04-08T07:42:31.001Z</time></trkpt><trkpt lat="45.50654685041531" lon="11.102178946254487"><ele>541.1666666666667</ele><time>2026-04-08T07:42:32.001Z</time></trkpt><trkpt lat="45.50657908338158" lon="11.102066122571632"><ele>544.3333333333334</ele><time>2026-04-08T07:42:34.001Z</time></trkpt><trkpt lat="45.50659198052058" lon="11.10196997404462"><ele>547.5</ele><time>2026-04-08T07:42:36.001Z</time></trkpt><trkpt lat="45.506590944368355" lon="11.101866823285249"><ele>550.6666666666666</ele><time>2026-04-08T07:42:38.001Z</time></trkpt><trkpt lat="45.50651793739292" lon="11.101795345690663"><ele>553.8333333333333</ele><time>2026-04-08T07:42:41.001Z</time></trkpt><trkpt lat="45.5064538368145" lon="11.101717100926031"><ele>557.0</ele><time>2026-04-08T07:42:45.001Z</time></trkpt><trkpt lat="45.50637864804025" lon="11.10168519190265"><ele>557.0</ele><time>2026-04-08T07:42:54.001Z</time></trkpt><trkpt lat="45.50632789708668" lon="11.101619529291076"><ele>557.0</ele><time>2026-04-08T07:42:58.001Z</time></trkpt><trkpt lat="45.506260053138085" lon="11.101672117581654"><ele>557.0</ele><time>2026-04-08T07:43:04.001Z</time></trkpt><trkpt lat="45.50622387350619" lon="11.101762883658413"><ele>557.0</ele><time>2026-04-08T07:43:06.001Z</time></trkpt><trkpt lat="45.50615603445829" lon="11.101799392375096"><ele>557.0</ele><time>2026-04-08T07:43:08Z</time></trkpt><trkpt lat="45.50610461146399" lon="11.10170285841507"><ele>557.0</ele><time>2026-04-08T07:43:10Z</time></trkpt><trkpt lat="45.506012738531226" lon="11.10167938986764"><ele>564.0</ele><time>2026-04-08T07:43:15Z</time></trkpt><trkpt lat="45.505969143170425" lon="11.101567043348355"><ele>571.0</ele><time>2026-04-08T07:43:17Z</time></trkpt><trkpt lat="45.50590938014709" lon="11.101510018144067"><ele>578.0</ele><time>2026-04-08T07:43:21Z</time></trkpt><trkpt lat="45.50584664733934" lon="11.101570898443535"><ele>585.0</ele><time>2026-04-08T07:43:28Z</time></trkpt><trkpt lat="45.50581995463027" lon="11.101486640241271"><ele>592.0</ele><time>2026-04-08T07:43:33Z</time></trkpt><trkpt lat="45.5058220861931" lon="11.10139079285168"><ele>599.0</ele><time>2026-04-08T07:44:06.001Z</time></trkpt><trkpt lat="45.50581849360695" lon="11.101224839311211"><ele>599.0</ele><time>2026-04-08T07:44:08.001Z</time></trkpt><trkpt lat="45.50581333059227" lon="11.101129427667969"><ele>599.0</ele><time>2026-04-08T07:44:09.001Z</time></trkpt><trkpt lat="45.50579112445156" lon="11.10099130477579"><ele>599.0</ele><time>2026-04-08T07:44:11.001Z</time></trkpt><trkpt lat="45.50577052451913" lon="11.10090329211103"><ele>599.0</ele><time>2026-04-08T07:44:12.001Z</time></trkpt><trkpt lat="45.505749779936544" lon="11.100814775998469"><ele>599.0</ele><time>2026-04-08T07:44:13.001Z</time></trkpt><trkpt lat="45.50572228602997" lon="11.10070507104731"><ele>599.0</ele><time>2026-04-08T07:44:14.001Z</time></trkpt><trkpt lat="45.50569435170158" lon="11.100623191565393"><ele>599.0</ele><time>2026-04-08T07:44:15.001Z</time></trkpt><trkpt lat="45.50570470529747" lon="11.100517532304556"><ele>600.4</ele><time>2026-04-08T07:44:17.001Z</time></trkpt><trkpt lat="45.505757675790335" lon="11.10039953009773"><ele>601.8</ele><time>2026-04-08T07:44:19.001Z</time></trkpt><trkpt lat="45.50580717818838" lon="11.100301043246802"><ele>603.2</ele><time>2026-04-08T07:44:21.001Z</time></trkpt><trkpt lat="45.50583927126024" lon="11.100182355265064"><ele>604.6</ele><time>2026-04-08T07:44:23.001Z</time></trkpt><trkpt lat="45.505892854281676" lon="11.100081071599872"><ele>606.0</ele><time>2026-04-08T07:44:25.001Z</time></trkpt><trkpt lat="45.505944941493645" lon="11.099962889285694"><ele>605.1666666666666</ele><time>2026-04-08T07:44:27.001Z</time></trkpt><trkpt lat="45.50599512024026" lon="11.09989880085356"><ele>604.3333333333334</ele><time>2026-04-08T07:44:29.001Z</time></trkpt><trkpt lat="45.506066527635596" lon="11.099815735845077"><ele>603.5</ele><time>2026-04-08T07:44:31.001Z</time></trkpt><trkpt lat="45.50613631860295" lon="11.09968248156511"><ele>602.6666666666667</ele><time>2026-04-08T07:44:33.001Z</time></trkpt><trkpt lat="45.50622168535006" lon="11.099619073045886"><ele>601.8333333333334</ele><time>2026-04-08T07:44:35Z</time></trkpt><trkpt lat="45.50627189870409" lon="11.099542607423812"><ele>601.0</ele><time>2026-04-08T07:44:37Z</time></trkpt><trkpt lat="45.50636149905551" lon="11.099432806269842"><ele>604.0</ele><time>2026-04-08T07:44:39Z</time></trkpt><trkpt lat="45.506444717306884" lon="11.099363530793378"><ele>607.0</ele><time>2026-04-08T07:44:41Z</time></trkpt><trkpt lat="45.50652439664783" lon="11.099272097559817"><ele>610.0</ele><time>2026-04-08T07:44:43Z</time></trkpt><trkpt lat="45.50661509063751" lon="11.09919667651946"><ele>613.0</ele><time>2026-04-08T07:44:45Z</time></trkpt><trkpt lat="45.506683037643064" lon="11.09916382935988"><ele>616.0</ele><time>2026-04-08T07:44:47Z</time></trkpt><trkpt lat="45.50678402294579" lon="11.099088155644"><ele>616.8</ele><time>2026-04-08T07:44:49Z</time></trkpt><trkpt lat="45.50687138630311" lon="11.099029446895242"><ele>617.6</ele><time>2026-04-08T07:44:51Z</time></trkpt><trkpt lat="45.506970926887824" lon="11.099001277480413"><ele>618.4</ele><time>2026-04-08T07:44:53Z</time></trkpt><trkpt lat="45.5070449683531" lon="11.098948175502096"><ele>619.2</ele><time>2026-04-08T07:44:55Z</time></trkpt><trkpt lat="45.50711171659278" lon="11.0988871523658"><ele>620.0</ele><time>2026-04-08T07:44:56Z</time></trkpt><trkpt lat="45.50721296169495" lon="11.09881353347705"><ele>620.0</ele><time>2026-04-08T07:44:58Z</time></trkpt><trkpt lat="45.50728297647685" lon="11.098747436891236"><ele>620.0</ele><time>2026-04-08T07:44:59Z</time></trkpt><trkpt lat="45.507375185353375" lon="11.098669737784677"><ele>620.0</ele><time>2026-04-08T07:45:00Z</time></trkpt><trkpt lat="45.50748838429029" lon="11.098557111116088"><ele>620.0</ele><time>2026-04-08T07:45:01Z</time></trkpt><trkpt lat="45.50757750211231" lon="11.098467221314992"><ele>620.0</ele><time>2026-04-08T07:45:02Z</time></trkpt><trkpt lat="45.50765806966951" lon="11.098375231018075"><ele>620.0</ele><time>2026-04-08T07:45:03Z</time></trkpt><trkpt lat="45.5077284606746" lon="11.098296679666198"><ele>620.0</ele><time>2026-04-08T07:45:04Z</time></trkpt><trkpt lat="45.50779457337516" lon="11.098217048575462"><ele>620.0</ele><time>2026-04-08T07:45:05Z</time></trkpt><trkpt lat="45.507877590955765" lon="11.098137399605141"><ele>620.0</ele><time>2026-04-08T07:45:06Z</time></trkpt><trkpt lat="45.5079378925858" lon="11.098034631233402"><ele>620.0</ele><time>2026-04-08T07:45:07Z</time></trkpt><trkpt lat="45.50801196362345" lon="11.097921039657416"><ele>620.75</ele><time>2026-04-08T07:45:08Z</time></trkpt><trkpt lat="45.5080728834667" lon="11.097838333094288"><ele>621.5</ele><time>2026-04-08T07:45:09Z</time></trkpt><trkpt lat="45.50815215152468" lon="11.097736543750665"><ele>622.25</ele><time>2026-04-08T07:45:10Z</time></trkpt><trkpt lat="45.50823534200722" lon="11.097588979637864"><ele>623.0</ele><time>2026-04-08T07:45:11Z</time></trkpt><trkpt lat="45.508297160118055" lon="11.097426352362035"><ele>622.1999999999999</ele><time>2026-04-08T07:45:12Z</time></trkpt><trkpt lat="45.508348644919366" lon="11.097277261776128"><ele>621.4</ele><time>2026-04-08T07:45:13Z</time></trkpt><trkpt lat="45.50840441567385" lon="11.097164267796469"><ele>620.5999999999999</ele><time>2026-04-08T07:45:14Z</time></trkpt><trkpt lat="45.508463806033234" lon="11.097086421053762"><ele>619.8</ele><time>2026-04-08T07:45:15Z</time></trkpt><trkpt lat="45.50855466012587" lon="11.097034272010537"><ele>619.0</ele><time>2026-04-08T07:45:17Z</time></trkpt><trkpt lat="45.50864513434636" lon="11.097003008521668"><ele>619.0</ele><time>2026-04-08T07:47:32Z</time></trkpt><trkpt lat="45.508736822015855" lon="11.09694939500265"><ele>619.0</ele><time>2026-04-08T07:47:34Z</time></trkpt><trkpt lat="45.50887042408336" lon="11.096973937920842"><ele>619.0</ele><time>2026-04-08T07:47:36Z</time></trkpt><trkpt lat="45.50895375913999" lon="11.096994867729176"><ele>619.0</ele><time>2026-04-08T07:47:37Z</time></trkpt><trkpt lat="45.50903489402818" lon="11.097017859211007"><ele>619.0</ele><time>2026-04-08T07:47:38Z</time></trkpt><trkpt lat="45.50912766192295" lon="11.097031112733015"><ele>620.0</ele><time>2026-04-08T07:47:39Z</time></trkpt><trkpt lat="45.50922249625864" lon="11.097034627709244"><ele>621.0</ele><time>2026-04-08T07:47:40Z</time></trkpt><trkpt lat="45.50930906124589" lon="11.096968122563958"><ele>622.0</ele><time>2026-04-08T07:47:41Z</time></trkpt><trkpt lat="45.50941004412292" lon="11.096926509280806"><ele>623.0</ele><time>2026-04-08T07:47:42Z</time></trkpt><trkpt lat="45.50947841282961" lon="11.097004758594505"><ele>624.0</ele><time>2026-04-08T07:47:43Z</time></trkpt><trkpt lat="45.509563635509764" lon="11.097041452991157"><ele>624.0</ele><time>2026-04-08T07:47:44Z</time></trkpt><trkpt lat="45.50965654452134" lon="11.097096735533402"><ele>624.0</ele><time>2026-04-08T07:47:45Z</time></trkpt><trkpt lat="45.509746884196716" lon="11.097144316919739"><ele>624.0</ele><time>2026-04-08T07:47:46Z</time></trkpt><trkpt lat="45.50983492370766" lon="11.097196127661938"><ele>624.0</ele><time>2026-04-08T07:47:47Z</time></trkpt><trkpt lat="45.50989301497059" lon="11.097243119636397"><ele>624.0</ele><time>2026-04-08T07:47:48Z</time></trkpt><trkpt lat="45.510014733247004" lon="11.097249675965474"><ele>624.0</ele><time>2026-04-08T07:47:50Z</time></trkpt><trkpt lat="45.510077447654815" lon="11.097272417623456"><ele>624.0</ele><time>2026-04-08T07:47:51Z</time></trkpt><trkpt lat="45.51019385204839" lon="11.097270202997802"><ele>624.0</ele><time>2026-04-08T07:47:52Z</time></trkpt><trkpt lat="45.51028191999247" lon="11.097272778053423"><ele>624.0</ele><time>2026-04-08T07:47:53Z</time></trkpt><trkpt lat="45.51037951146016" lon="11.097296657884026"><ele>624.0</ele><time>2026-04-08T07:47:54Z</time></trkpt><trkpt lat="45.51046814006774" lon="11.09731028185449"><ele>624.4</ele><time>2026-04-08T07:47:55Z</time></trkpt><trkpt lat="45.51055250509138" lon="11.09731006300898"><ele>624.8</ele><time>2026-04-08T07:47:56Z</time></trkpt><trkpt lat="45.510638588643204" lon="11.097301815874655"><ele>625.2</ele><time>2026-04-08T07:47:57Z</time></trkpt><trkpt lat="45.51074837632663" lon="11.097301557611432"><ele>625.6</ele><time>2026-04-08T07:47:58Z</time></trkpt><trkpt lat="45.510862589846674" lon="11.097310803647877"><ele>626.0</ele><time>2026-04-08T07:47:59Z</time></trkpt><trkpt lat="45.51095143937285" lon="11.097345066670867"><ele>624.2</ele><time>2026-04-08T07:48:00Z</time></trkpt><trkpt lat="45.51103638938734" lon="11.097493319210677"><ele>622.4000000000001</ele><time>2026-04-08T07:48:02Z</time></trkpt><trkpt lat="45.511090558826275" lon="11.097585046874467"><ele>620.6</ele><time>2026-04-08T07:48:03Z</time></trkpt><trkpt lat="45.511143412939845" lon="11.09763808694257"><ele>618.8000000000001</ele><time>2026-04-08T07:48:04Z</time></trkpt><trkpt lat="45.5111902544942" lon="11.097748402950229"><ele>617.0</ele><time>2026-04-08T07:48:06Z</time></trkpt><trkpt lat="45.51126605026229" lon="11.097850577938816"><ele>617.0</ele><time>2026-04-08T07:48:08Z</time></trkpt><trkpt lat="45.51133761068309" lon="11.097863949394261"><ele>617.0</ele><time>2026-04-08T07:48:09Z</time></trkpt><trkpt lat="45.51149830950427" lon="11.097955408225786"><ele>617.0</ele><time>2026-04-08T07:48:11Z</time></trkpt><trkpt lat="45.51155321509127" lon="11.098029109595076"><ele>617.0</ele><time>2026-04-08T07:48:12Z</time></trkpt><trkpt lat="45.51163643544823" lon="11.098107043218784"><ele>617.0</ele><time>2026-04-08T07:48:13Z</time></trkpt><trkpt lat="45.511758245970924" lon="11.098176046079677"><ele>617.0</ele><time>2026-04-08T07:48:14Z</time></trkpt><trkpt lat="45.51183419318667" lon="11.098211948183085"><ele>617.0</ele><time>2026-04-08T07:48:15Z</time></trkpt><trkpt lat="45.511893941681706" lon="11.098252305744701"><ele>617.0</ele><time>2026-04-08T07:48:16Z</time></trkpt><trkpt lat="45.51195715436966" lon="11.098271709046816"><ele>617.0</ele><time>2026-04-08T07:48:17Z</time></trkpt><trkpt lat="45.512045828367675" lon="11.098290735876043"><ele>617.0</ele><time>2026-04-08T07:48:18Z</time></trkpt><trkpt lat="45.5121271454859" lon="11.09832253328986"><ele>617.0</ele><time>2026-04-08T07:48:19Z</time></trkpt><trkpt lat="45.512172888822676" lon="11.09839324210304"><ele>614.1666666666666</ele><time>2026-04-08T07:48:20Z</time></trkpt><trkpt lat="45.512226907080056" lon="11.09844543118095"><ele>611.3333333333333</ele><time>2026-04-08T07:48:21Z</time></trkpt><trkpt lat="45.51231626510102" lon="11.098563407710333"><ele>608.5</ele><time>2026-04-08T07:48:23Z</time></trkpt><trkpt lat="45.51236445230866" lon="11.098637689918045"><ele>605.6666666666666</ele><time>2026-04-08T07:48:24Z</time></trkpt><trkpt lat="45.51241448165909" lon="11.098774103161606"><ele>602.8333333333334</ele><time>2026-04-08T07:48:26Z</time></trkpt><trkpt lat="45.51242095962951" lon="11.098889591912092"><ele>600.0</ele><time>2026-04-08T07:48:28Z</time></trkpt><trkpt lat="45.51249612307677" lon="11.098946576138218"><ele>600.0</ele><time>2026-04-08T07:48:30Z</time></trkpt><trkpt lat="45.51257291817845" lon="11.099020958383358"><ele>600.0</ele><time>2026-04-08T07:48:32Z</time></trkpt><trkpt lat="45.51263208060977" lon="11.099140725974747"><ele>600.0</ele><time>2026-04-08T07:48:34Z</time></trkpt><trkpt lat="45.5127068177383" lon="11.099190891002673"><ele>600.0</ele><time>2026-04-08T07:48:36Z</time></trkpt><trkpt lat="45.51275669399487" lon="11.099271609617858"><ele>600.0</ele><time>2026-04-08T07:48:37Z</time></trkpt><trkpt lat="45.51280742935975" lon="11.099365904948224"><ele>600.0</ele><time>2026-04-08T07:48:38Z</time></trkpt><trkpt lat="45.51285416380561" lon="11.099479208942462"><ele>596.3333333333334</ele><time>2026-04-08T07:48:39Z</time></trkpt><trkpt lat="45.51289475257565" lon="11.099589292025597"><ele>592.6666666666666</ele><time>2026-04-08T07:48:40Z</time></trkpt><trkpt lat="45.51291275489338" lon="11.09970155375085"><ele>589.0</ele><time>2026-04-08T07:48:41Z</time></trkpt><trkpt lat="45.51293078953406" lon="11.099863892839146"><ele>585.3333333333333</ele><time>2026-04-08T07:48:44Z</time></trkpt><trkpt lat="45.51295757258287" lon="11.099992824631373"><ele>581.6666666666666</ele><time>2026-04-08T07:48:46Z</time></trkpt><trkpt lat="45.512931942484606" lon="11.100079629694791"><ele>578.0</ele><time>2026-04-08T07:48:47Z</time></trkpt><trkpt lat="45.512920780421744" lon="11.100220682564228"><ele>573.8</ele><time>2026-04-08T07:48:49Z</time></trkpt><trkpt lat="45.512972168258" lon="11.1003482372444"><ele>569.5999999999999</ele><time>2026-04-08T07:48:51Z</time></trkpt><trkpt lat="45.51304674058234" lon="11.100460642890436"><ele>565.4000000000001</ele><time>2026-04-08T07:48:53Z</time></trkpt><trkpt lat="45.51316327242054" lon="11.10046740360267"><ele>561.2</ele><time>2026-04-08T07:48:55Z</time></trkpt><trkpt lat="45.513230577484094" lon="11.10042445106499"><ele>557.0</ele><time>2026-04-08T07:48:56Z</time></trkpt><trkpt lat="45.513296866595525" lon="11.100365446461208"><ele>557.0</ele><time>2026-04-08T07:48:57Z</time></trkpt><trkpt lat="45.51335625408193" lon="11.100313466714349"><ele>557.0</ele><time>2026-04-08T07:48:58Z</time></trkpt><trkpt lat="45.513440581341335" lon="11.100247883927775"><ele>557.0</ele><time>2026-04-08T07:49:00Z</time></trkpt><trkpt lat="45.513496161293546" lon="11.10018273630444"><ele>557.0</ele><time>2026-04-08T07:49:01Z</time></trkpt><trkpt lat="45.51359751549367" lon="11.10002467908815"><ele>557.0</ele><time>2026-04-08T07:49:03Z</time></trkpt><trkpt lat="45.51365149152186" lon="11.099953430619868"><ele>559.8000000000001</ele><time>2026-04-08T07:49:04Z</time></trkpt><trkpt lat="45.51370086797579" lon="11.099866505503632"><ele>562.6</ele><time>2026-04-08T07:49:05Z</time></trkpt><trkpt lat="45.513741528421015" lon="11.099773789030536"><ele>565.4000000000001</ele><time>2026-04-08T07:49:06Z</time></trkpt><trkpt lat="45.51383539373576" lon="11.099621791733268"><ele>568.2</ele><time>2026-04-08T07:49:08Z</time></trkpt><trkpt lat="45.51390229411236" lon="11.099553294625188"><ele>571.0</ele><time>2026-04-08T07:49:09Z</time></trkpt><trkpt lat="45.513981758256314" lon="11.099484193061262"><ele>571.0</ele><time>2026-04-08T07:49:10Z</time></trkpt><trkpt lat="45.51407027368523" lon="11.09946073442214"><ele>571.0</ele><time>2026-04-08T07:49:11Z</time></trkpt><trkpt lat="45.51414104149196" lon="11.099410445222203"><ele>571.0</ele><time>2026-04-08T07:49:12Z</time></trkpt><trkpt lat="45.51423907467921" lon="11.099336180164698"><ele>571.0</ele><time>2026-04-08T07:49:13Z</time></trkpt><trkpt lat="45.514320348874136" lon="11.099287447858558"><ele>571.0</ele><time>2026-04-08T07:49:14Z</time></trkpt><trkpt lat="45.51439077208221" lon="11.099230166968704"><ele>571.0</ele><time>2026-04-08T07:49:15Z</time></trkpt><trkpt lat="45.51445011440384" lon="11.099158052870552"><ele>570.8</ele><time>2026-04-08T07:49:16Z</time></trkpt><trkpt lat="45.51451004319709" lon="11.099077180889498"><ele>570.6</ele><time>2026-04-08T07:49:17Z</time></trkpt><trkpt lat="45.51457514575278" lon="11.098991746836841"><ele>570.4</ele><time>2026-04-08T07:49:18Z</time></trkpt><trkpt lat="45.51464880979161" lon="11.098954164582073"><ele>570.2</ele><time>2026-04-08T07:49:19Z</time></trkpt><trkpt lat="45.51474376804222" lon="11.098975839043028"><ele>570.0</ele><time>2026-04-08T07:49:21Z</time></trkpt><trkpt lat="45.51479993927411" lon="11.099143353521907"><ele>566.6</ele><time>2026-04-08T07:49:23Z</time></trkpt><trkpt lat="45.514878999884054" lon="11.099240411752723"><ele>563.2</ele><time>2026-04-08T07:49:25Z</time></trkpt><trkpt lat="45.514954739000466" lon="11.099312203971573"><ele>559.8</ele><time>2026-04-08T07:49:27Z</time></trkpt><trkpt lat="45.515071669103705" lon="11.099253112893031"><ele>556.4</ele><time>2026-04-08T07:49:29Z</time></trkpt><trkpt lat="45.51514489799596" lon="11.099186214901602"><ele>553.0</ele><time>2026-04-08T07:49:30Z</time></trkpt><trkpt lat="45.5152086509138" lon="11.099089390360108"><ele>556.4</ele><time>2026-04-08T07:49:31Z</time></trkpt><trkpt lat="45.515207561180624" lon="11.098981128681704"><ele>559.8</ele><time>2026-04-08T07:49:31.999Z</time></trkpt><trkpt lat="45.51523343504607" lon="11.098803037734042"><ele>563.2</ele><time>2026-04-08T07:49:33.999Z</time></trkpt><trkpt lat="45.51525740483048" lon="11.0986910793941"><ele>566.6</ele><time>2026-04-08T07:49:34.999Z</time></trkpt><trkpt lat="45.51526819630357" lon="11.098566667376101"><ele>570.0</ele><time>2026-04-08T07:49:35.999Z</time></trkpt><trkpt lat="45.51531812510396" lon="11.09845128809602"><ele>567.75</ele><time>2026-04-08T07:49:37.999Z</time></trkpt><trkpt lat="45.51544487112241" lon="11.098395937590379"><ele>565.5</ele><time>2026-04-08T07:49:39.999Z</time></trkpt><trkpt lat="45.51550773523952" lon="11.098208620220923"><ele>563.25</ele><time>2026-04-08T07:49:41.999Z</time></trkpt><trkpt lat="45.515592544410694" lon="11.098098590399125"><ele>561.0</ele><time>2026-04-08T07:49:42.999Z</time></trkpt><trkpt lat="45.515665977760285" lon="11.097986891532235"><ele>561.0</ele><time>2026-04-08T07:49:43.999Z</time></trkpt><trkpt lat="45.515710956480575" lon="11.097916047696131"><ele>561.0</ele><time>2026-04-08T07:49:44.999Z</time></trkpt><trkpt lat="45.51581324130324" lon="11.097879311063517"><ele>561.0</ele><time>2026-04-08T07:49:46.999Z</time></trkpt><trkpt lat="45.51591363227548" lon="11.097928248528879"><ele>561.0</ele><time>2026-04-08T07:49:48.999Z</time></trkpt><trkpt lat="45.515978657812944" lon="11.09801771199242"><ele>561.0</ele><time>2026-04-08T07:49:49.999Z</time></trkpt><trkpt lat="45.516048018882564" lon="11.098102777433331"><ele>561.0</ele><time>2026-04-08T07:49:50.999Z</time></trkpt><trkpt lat="45.51607735145527" lon="11.098227546497789"><ele>561.0</ele><time>2026-04-08T07:49:51.999Z</time></trkpt><trkpt lat="45.516086954973936" lon="11.098376162135677"><ele>561.0</ele><time>2026-04-08T07:49:52.999Z</time></trkpt><trkpt lat="45.516083220118745" lon="11.098474134364904"><ele>561.0</ele><time>2026-04-08T07:49:53.999Z</time></trkpt><trkpt lat="45.516083795529724" lon="11.098573874998873"><ele>561.0</ele><time>2026-04-08T07:49:54.999Z</time></trkpt><trkpt lat="45.516184107264756" lon="11.098706733675117"><ele>558.6</ele><time>2026-04-08T07:49:56.999Z</time></trkpt><trkpt lat="45.51626219375271" lon="11.098783867691267"><ele>556.2</ele><time>2026-04-08T07:49:57.999Z</time></trkpt><trkpt lat="45.516352843399495" lon="11.098869594190454"><ele>553.8</ele><time>2026-04-08T07:49:58.999Z</time></trkpt><trkpt lat="45.51645076351053" lon="11.098940218702769"><ele>551.4</ele><time>2026-04-08T07:49:59.999Z</time></trkpt><trkpt lat="45.5165487256621" lon="11.099014821367614"><ele>549.0</ele><time>2026-04-08T07:50:00.999Z</time></trkpt><trkpt lat="45.51661602745915" lon="11.099054726663732"><ele>545.8333333333334</ele><time>2026-04-08T07:50:01.999Z</time></trkpt><trkpt lat="45.516676718848906" lon="11.0990937931474"><ele>542.6666666666666</ele><time>2026-04-08T07:50:02.999Z</time></trkpt><trkpt lat="45.516726545427474" lon="11.099149587175281"><ele>539.5</ele><time>2026-04-08T07:50:03.999Z</time></trkpt><trkpt lat="45.516764048469064" lon="11.099227290788948"><ele>536.3333333333333</ele><time>2026-04-08T07:50:05.999Z</time></trkpt><trkpt lat="45.51678432312581" lon="11.099313490154243"><ele>533.1666666666666</ele><time>2026-04-08T07:50:06.999Z</time></trkpt><trkpt lat="45.516811135681344" lon="11.099403644016125"><ele>530.0</ele><time>2026-04-08T07:50:07.999Z</time></trkpt><trkpt lat="45.51690470652646" lon="11.099602813315876"><ele>530.0</ele><time>2026-04-08T07:50:09.999Z</time></trkpt><trkpt lat="45.51695545073414" lon="11.099702523319388"><ele>530.0</ele><time>2026-04-08T07:50:10.999Z</time></trkpt><trkpt lat="45.51699966294791" lon="11.099800117138193"><ele>530.0</ele><time>2026-04-08T07:50:11.999Z</time></trkpt><trkpt lat="45.51704631671074" lon="11.099865565268269"><ele>530.0</ele><time>2026-04-08T07:50:12.999Z</time></trkpt><trkpt lat="45.517054346405146" lon="11.09998102627832"><ele>530.0</ele><time>2026-04-08T07:50:14.999Z</time></trkpt><trkpt lat="45.516911859508866" lon="11.100090547748081"><ele>527.8571428571428</ele><time>2026-04-08T07:50:17.999Z</time></trkpt><trkpt lat="45.516863501318085" lon="11.100160569139508"><ele>525.7142857142857</ele><time>2026-04-08T07:50:18.999Z</time></trkpt><trkpt lat="45.516828082126025" lon="11.100253304952844"><ele>523.5714285714286</ele><time>2026-04-08T07:50:19.999Z</time></trkpt><trkpt lat="45.51681326181017" lon="11.100348120192098"><ele>521.4285714285713</ele><time>2026-04-08T07:50:20.999Z</time></trkpt><trkpt lat="45.51679323451447" lon="11.100438833904864"><ele>519.2857142857142</ele><time>2026-04-08T07:50:21.999Z</time></trkpt><trkpt lat="45.51679856197171" lon="11.100560845412751"><ele>517.1428571428571</ele><time>2026-04-08T07:50:22.999Z</time></trkpt><trkpt lat="45.51682313610375" lon="11.100648864961755"><ele>515.0</ele><time>2026-04-08T07:50:23.999Z</time></trkpt><trkpt lat="45.51686709739258" lon="11.100724843236044"><ele>515.0</ele><time>2026-04-08T07:50:26.999Z</time></trkpt><trkpt lat="45.51698177950467" lon="11.100702125772132"><ele>515.0</ele><time>2026-04-08T07:50:27.999Z</time></trkpt><trkpt lat="45.51694000746466" lon="11.100826660877587"><ele>515.0</ele><time>2026-04-08T07:50:29.999Z</time></trkpt><trkpt lat="45.51685986922276" lon="11.10085952092865"><ele>515.0</ele><time>2026-04-08T07:50:30.999Z</time></trkpt><trkpt lat="45.51677515654353" lon="11.100917022367184"><ele>515.0</ele><time>2026-04-08T07:50:32.999Z</time></trkpt><trkpt lat="45.516887857080164" lon="11.100941625717441"><ele>511.99999999999994</ele><time>2026-04-08T07:50:34.999Z</time></trkpt><trkpt lat="45.51695318425848" lon="11.100936071057795"><ele>509.0</ele><time>2026-04-08T07:50:36.999Z</time></trkpt><trkpt lat="45.51704418831712" lon="11.1009545536108"><ele>506.0</ele><time>2026-04-08T07:50:37.999Z</time></trkpt><trkpt lat="45.5171114386098" lon="11.100954637253475"><ele>503.0</ele><time>2026-04-08T07:50:38.999Z</time></trkpt><trkpt lat="45.5172054969466" lon="11.10093738457587"><ele>499.99999999999994</ele><time>2026-04-08T07:50:39.999Z</time></trkpt><trkpt lat="45.517296994412284" lon="11.100917846673667"><ele>497.0</ele><time>2026-04-08T07:50:40.999Z</time></trkpt><trkpt lat="45.517421473131805" lon="11.100968841318393"><ele>497.0</ele><time>2026-04-08T07:50:42.999Z</time></trkpt><trkpt lat="45.51747561934534" lon="11.101048403865693"><ele>497.00000000000006</ele><time>2026-04-08T07:50:43.999Z</time></trkpt><trkpt lat="45.51743223212979" lon="11.101199312014243"><ele>497.00000000000006</ele><time>2026-04-08T07:50:45.999Z</time></trkpt><trkpt lat="45.51739461381606" lon="11.101309034934003"><ele>497.0</ele><time>2026-04-08T07:50:46.999Z</time></trkpt><trkpt lat="45.51738247276071" lon="11.101465294571366"><ele>497.0</ele><time>2026-04-08T07:50:47.999Z</time></trkpt><trkpt lat="45.517370414799224" lon="11.101579674587114"><ele>494.16666666666663</ele><time>2026-04-08T07:50:48.999Z</time></trkpt><trkpt lat="45.51736965553871" lon="11.1017536683469"><ele>491.3333333333333</ele><time>2026-04-08T07:50:50.999Z</time></trkpt><trkpt lat="45.51738795460847" lon="11.10185153575526"><ele>488.5</ele><time>2026-04-08T07:50:51.999Z</time></trkpt><trkpt lat="45.51741631967364" lon="11.101962003183733"><ele>485.66666666666663</ele><time>2026-04-08T07:50:52.999Z</time></trkpt><trkpt lat="45.51745725248595" lon="11.10205931603021"><ele>482.8333333333333</ele><time>2026-04-08T07:50:53.999Z</time></trkpt><trkpt lat="45.51750042198188" lon="11.102135576312328"><ele>480.0</ele><time>2026-04-08T07:50:54.999Z</time></trkpt><trkpt lat="45.51752200309073" lon="11.102232532874094"><ele>480.0</ele><time>2026-04-08T07:50:55.999Z</time></trkpt><trkpt lat="45.517544774238864" lon="11.102321720077411"><ele>480.0</ele><time>2026-04-08T07:50:56.999Z</time></trkpt><trkpt lat="45.51747306610081" lon="11.10242843012023"><ele>480.0</ele><time>2026-04-08T07:50:57.999Z</time></trkpt><trkpt lat="45.51745442220056" lon="11.102556495987127"><ele>480.0</ele><time>2026-04-08T07:50:58.999Z</time></trkpt><trkpt lat="45.517474945184915" lon="11.102673584129038"><ele>480.0</ele><time>2026-04-08T07:50:59.999Z</time></trkpt><trkpt lat="45.51750999733261" lon="11.1027980814844"><ele>480.0</ele><time>2026-04-08T07:51:00.999Z</time></trkpt><trkpt lat="45.5175537302595" lon="11.102916348997123"><ele>477.4</ele><time>2026-04-08T07:51:01.999Z</time></trkpt><trkpt lat="45.51760613802554" lon="11.103055488486095"><ele>474.8</ele><time>2026-04-08T07:51:02.999Z</time></trkpt><trkpt lat="45.517658625005325" lon="11.103166354101212"><ele>472.20000000000005</ele><time>2026-04-08T07:51:03.999Z</time></trkpt><trkpt lat="45.51771876715828" lon="11.103269839998196"><ele>469.6</ele><time>2026-04-08T07:51:04.999Z</time></trkpt><trkpt lat="45.517781365867755" lon="11.103350756510755"><ele>467.0</ele><time>2026-04-08T07:51:05.999Z</time></trkpt><trkpt lat="45.51785477352843" lon="11.103458588339079"><ele>469.6</ele><time>2026-04-08T07:51:06.999Z</time></trkpt><trkpt lat="45.517910577936" lon="11.103573547878588"><ele>472.20000000000005</ele><time>2026-04-08T07:51:07.999Z</time></trkpt><trkpt lat="45.51799713563585" lon="11.103686777955616"><ele>474.8</ele><time>2026-04-08T07:51:08.999Z</time></trkpt><trkpt lat="45.51807425337812" lon="11.103802800853654"><ele>477.4</ele><time>2026-04-08T07:51:09.999Z</time></trkpt><trkpt lat="45.518151995712394" lon="11.103922845592312"><ele>480.0</ele><time>2026-04-08T07:51:10.999Z</time></trkpt><trkpt lat="45.518211895313" lon="11.104066171155903"><ele>478.4</ele><time>2026-04-08T07:51:11.999Z</time></trkpt><trkpt lat="45.51826987250191" lon="11.104197073274916"><ele>476.8</ele><time>2026-04-08T07:51:12.999Z</time></trkpt><trkpt lat="45.518301735731555" lon="11.104316774753947"><ele>475.20000000000005</ele><time>2026-04-08T07:51:13.999Z</time></trkpt><trkpt lat="45.518340585767206" lon="11.104449339759242"><ele>473.6</ele><time>2026-04-08T07:51:14.999Z</time></trkpt><trkpt lat="45.51837998380698" lon="11.104562742219256"><ele>472.0</ele><time>2026-04-08T07:51:15.999Z</time></trkpt><trkpt lat="45.518423637068665" lon="11.104684151052355"><ele>472.0</ele><time>2026-04-08T07:51:16.999Z</time></trkpt><trkpt lat="45.51846362533509" lon="11.104808901755701"><ele>472.00000000000006</ele><time>2026-04-08T07:51:17.999Z</time></trkpt><trkpt lat="45.51849358321229" lon="11.104955025077922"><ele>472.00000000000006</ele><time>2026-04-08T07:51:18.999Z</time></trkpt><trkpt lat="45.518524435474944" lon="11.105110510176576"><ele>472.0</ele><time>2026-04-08T07:51:19.999Z</time></trkpt><trkpt lat="45.51857388476391" lon="11.105264350783182"><ele>472.0</ele><time>2026-04-08T07:51:20.999Z</time></trkpt><trkpt lat="45.51859500961427" lon="11.105420488269205"><ele>472.83333333333337</ele><time>2026-04-08T07:51:21.999Z</time></trkpt><trkpt lat="45.51862541063854" lon="11.105561215598007"><ele>473.6666666666667</ele><time>2026-04-08T07:51:22.999Z</time></trkpt><trkpt lat="45.518636927690736" lon="11.105687962177354"><ele>474.5</ele><time>2026-04-08T07:51:23.999Z</time></trkpt><trkpt lat="45.518643040244505" lon="11.105809691937734"><ele>475.33333333333337</ele><time>2026-04-08T07:51:24.999Z</time></trkpt><trkpt lat="45.51864942674449" lon="11.105918376532822"><ele>476.1666666666667</ele><time>2026-04-08T07:51:25.999Z</time></trkpt><trkpt lat="45.51865513270084" lon="11.106015479722645"><ele>477.0</ele><time>2026-04-08T07:51:26.999Z</time></trkpt><trkpt lat="45.518830897479" lon="11.106091688234565"><ele>477.0</ele><time>2026-04-08T07:51:30.999Z</time></trkpt><trkpt lat="45.51894768319279" lon="11.105995105467656"><ele>477.00000000000006</ele><time>2026-04-08T07:51:32.999Z</time></trkpt><trkpt lat="45.519017684432455" lon="11.10595868262116"><ele>477.00000000000006</ele><time>2026-04-08T07:51:33.999Z</time></trkpt><trkpt lat="45.519110157079005" lon="11.105947282222587"><ele>477.0</ele><time>2026-04-08T07:51:34.999Z</time></trkpt><trkpt lat="45.519220853661906" lon="11.105967702524884"><ele>477.0</ele><time>2026-04-08T07:51:35.999Z</time></trkpt><trkpt lat="45.51933423916453" lon="11.105980803216124"><ele>477.0</ele><time>2026-04-08T07:51:36.999Z</time></trkpt><trkpt lat="45.51946074748568" lon="11.10597304530596"><ele>477.0</ele><time>2026-04-08T07:51:37.999Z</time></trkpt><trkpt lat="45.519588828446274" lon="11.105945092877063"><ele>477.0</ele><time>2026-04-08T07:51:38.999Z</time></trkpt><trkpt lat="45.51972777146488" lon="11.10591897325893"><ele>477.0</ele><time>2026-04-08T07:51:39.999Z</time></trkpt><trkpt lat="45.519874026132996" lon="11.105893078930185"><ele>477.0</ele><time>2026-04-08T07:51:40.999Z</time></trkpt><trkpt lat="45.520014587544594" lon="11.105864195947303"><ele>477.0</ele><time>2026-04-08T07:51:41.999Z</time></trkpt><trkpt lat="45.52015569938713" lon="11.105831927030868"><ele>477.0</ele><time>2026-04-08T07:51:42.999Z</time></trkpt><trkpt lat="45.52029488768287" lon="11.105801917489838"><ele>477.0</ele><time>2026-04-08T07:51:43.999Z</time></trkpt><trkpt lat="45.52040938459767" lon="11.105788642452891"><ele>477.40000000000003</ele><time>2026-04-08T07:51:44.999Z</time></trkpt><trkpt lat="45.52050981346953" lon="11.105779028326367"><ele>477.80000000000007</ele><time>2026-04-08T07:51:45.999Z</time></trkpt><trkpt lat="45.520612591296484" lon="11.105767458602132"><ele>478.2</ele><time>2026-04-08T07:51:46.999Z</time></trkpt><trkpt lat="45.520731234451176" lon="11.105756215692136"><ele>478.6</ele><time>2026-04-08T07:51:47.999Z</time></trkpt><trkpt lat="45.52084475054302" lon="11.105757669203467"><ele>479.0</ele><time>2026-04-08T07:51:48.999Z</time></trkpt><trkpt lat="45.52094653827439" lon="11.105790062528127"><ele>479.0</ele><time>2026-04-08T07:51:49.999Z</time></trkpt><trkpt lat="45.521048651496464" lon="11.105839252305703"><ele>479.0</ele><time>2026-04-08T07:51:50.999Z</time></trkpt><trkpt lat="45.52115008217239" lon="11.105908010521317"><ele>479.0</ele><time>2026-04-08T07:51:51.999Z</time></trkpt><trkpt lat="45.52124820740351" lon="11.105989030839012"><ele>479.0</ele><time>2026-04-08T07:51:52.999Z</time></trkpt><trkpt lat="45.52134999046787" lon="11.106072107216352"><ele>480.4</ele><time>2026-04-08T07:51:53.999Z</time></trkpt><trkpt lat="45.52144571389436" lon="11.106118367535858"><ele>481.79999999999995</ele><time>2026-04-08T07:51:54.999Z</time></trkpt><trkpt lat="45.521547397907725" lon="11.10613322349474"><ele>483.20000000000005</ele><time>2026-04-08T07:51:55.999Z</time></trkpt><trkpt lat="45.521657408613336" lon="11.106119231748737"><ele>484.6</ele><time>2026-04-08T07:51:56.999Z</time></trkpt><trkpt lat="45.52177586140971" lon="11.106071278824782"><ele>486.0</ele><time>2026-04-08T07:51:57.999Z</time></trkpt><trkpt lat="45.521898211148496" lon="11.106002825165794"><ele>486.0</ele><time>2026-04-08T07:51:58.999Z</time></trkpt><trkpt lat="45.522013993269134" lon="11.105927174303764"><ele>486.0</ele><time>2026-04-08T07:51:59.999Z</time></trkpt><trkpt lat="45.522125831431715" lon="11.10586057177085"><ele>486.0</ele><time>2026-04-08T07:52:00.999Z</time></trkpt><trkpt lat="45.52223710911086" lon="11.105809327210464"><ele>486.0</ele><time>2026-04-08T07:52:01.999Z</time></trkpt><trkpt lat="45.52234941321256" lon="11.105774678377811"><ele>491.5</ele><time>2026-04-08T07:52:02.999Z</time></trkpt><trkpt lat="45.52246901425469" lon="11.105736673620497"><ele>497.0</ele><time>2026-04-08T07:52:03.999Z</time></trkpt><trkpt lat="45.522587007854675" lon="11.10571285830927"><ele>502.5</ele><time>2026-04-08T07:52:04.999Z</time></trkpt><trkpt lat="45.52270790433774" lon="11.10569763624859"><ele>508.0</ele><time>2026-04-08T07:52:05.999Z</time></trkpt><trkpt lat="45.52282226148262" lon="11.105690963946977"><ele>509.79999999999995</ele><time>2026-04-08T07:52:06.999Z</time></trkpt><trkpt lat="45.52292294361374" lon="11.105667370623893"><ele>511.59999999999997</ele><time>2026-04-08T07:52:07.999Z</time></trkpt><trkpt lat="45.52301273109995" lon="11.10565477443849"><ele>513.4000000000001</ele><time>2026-04-08T07:52:08.999Z</time></trkpt><trkpt lat="45.523116670735156" lon="11.105634113593943"><ele>515.2</ele><time>2026-04-08T07:52:09.999Z</time></trkpt><trkpt lat="45.52322109623757" lon="11.105636469207413"><ele>517.0</ele><time>2026-04-08T07:52:10.999Z</time></trkpt><trkpt lat="45.52330898173849" lon="11.10570428795984"><ele>513.8000000000001</ele><time>2026-04-08T07:52:11.999Z</time></trkpt><trkpt lat="45.52338412455819" lon="11.105822142110192"><ele>510.6</ele><time>2026-04-08T07:52:12.999Z</time></trkpt><trkpt lat="45.52345541363494" lon="11.105936021633816"><ele>507.40000000000003</ele><time>2026-04-08T07:52:13.999Z</time></trkpt><trkpt lat="45.52351887856048" lon="11.106030983354763"><ele>504.20000000000005</ele><time>2026-04-08T07:52:14.999Z</time></trkpt><trkpt lat="45.523568862795294" lon="11.106109787971825"><ele>501.0</ele><time>2026-04-08T07:52:15.999Z</time></trkpt><trkpt lat="45.523668304367504" lon="11.106198012061386"><ele>502.6</ele><time>2026-04-08T07:52:17.999Z</time></trkpt><trkpt lat="45.52375568378603" lon="11.106220309498726"><ele>504.20000000000005</ele><time>2026-04-08T07:52:18.999Z</time></trkpt><trkpt lat="45.52384715241068" lon="11.10623218037981"><ele>505.79999999999995</ele><time>2026-04-08T07:52:19.999Z</time></trkpt><trkpt lat="45.52395656657268" lon="11.106252977673396"><ele>507.4</ele><time>2026-04-08T07:52:20.999Z</time></trkpt><trkpt lat="45.52408423651569" lon="11.106293689693327"><ele>509.0</ele><time>2026-04-08T07:52:21.999Z</time></trkpt><trkpt lat="45.5242248814903" lon="11.106339484729356"><ele>509.0</ele><time>2026-04-08T07:52:22.999Z</time></trkpt><trkpt lat="45.52434729649871" lon="11.106382108743764"><ele>509.0</ele><time>2026-04-08T07:52:23.998Z</time></trkpt><trkpt lat="45.52446992566819" lon="11.10641093309703"><ele>509.0</ele><time>2026-04-08T07:52:24.998Z</time></trkpt><trkpt lat="45.52460257794402" lon="11.106434597203519"><ele>509.0</ele><time>2026-04-08T07:52:25.999Z</time></trkpt><trkpt lat="45.52470562867063" lon="11.106455769227345"><ele>508.79999999999995</ele><time>2026-04-08T07:52:26.999Z</time></trkpt><trkpt lat="45.5247976895893" lon="11.106482869647737"><ele>508.59999999999997</ele><time>2026-04-08T07:52:27.999Z</time></trkpt><trkpt lat="45.52487664135185" lon="11.10656029124383"><ele>508.4</ele><time>2026-04-08T07:52:28.999Z</time></trkpt><trkpt lat="45.52494729862618" lon="11.106667376949243"><ele>508.2</ele><time>2026-04-08T07:52:29.999Z</time></trkpt><trkpt lat="45.525030776827066" lon="11.106744424114671"><ele>508.0</ele><time>2026-04-08T07:52:30.999Z</time></trkpt><trkpt lat="45.52513693503354" lon="11.106800304982604"><ele>506.0</ele><time>2026-04-08T07:52:31.999Z</time></trkpt><trkpt lat="45.52525935276256" lon="11.106830117700603"><ele>503.99999999999994</ele><time>2026-04-08T07:52:32.999Z</time></trkpt><trkpt lat="45.52534326806695" lon="11.106842698622389"><ele>501.99999999999994</ele><time>2026-04-08T07:52:33.999Z</time></trkpt><trkpt lat="45.52541689664366" lon="11.106916536767725"><ele>500.0</ele><time>2026-04-08T07:52:35.999Z</time></trkpt><trkpt lat="45.5254256872898" lon="11.107103920005047"><ele>498.0</ele><time>2026-04-08T07:52:37.999Z</time></trkpt><trkpt lat="45.52541601642028" lon="11.107242872173762"><ele>496.79999999999995</ele><time>2026-04-08T07:52:38.999Z</time></trkpt><trkpt lat="45.52540602239626" lon="11.107365807411044"><ele>495.59999999999997</ele><time>2026-04-08T07:52:39.999Z</time></trkpt><trkpt lat="45.52540136389675" lon="11.107488239141624"><ele>494.40000000000003</ele><time>2026-04-08T07:52:40.999Z</time></trkpt><trkpt lat="45.52539401350462" lon="11.107637763628553"><ele>493.20000000000005</ele><time>2026-04-08T07:52:41.999Z</time></trkpt><trkpt lat="45.52537735431592" lon="11.107806362341668"><ele>492.0</ele><time>2026-04-08T07:52:42.999Z</time></trkpt><trkpt lat="45.525348738123796" lon="11.107970781015446"><ele>491.0</ele><time>2026-04-08T07:52:43.999Z</time></trkpt><trkpt lat="45.52532207469758" lon="11.108134393177242"><ele>490.00000000000006</ele><time>2026-04-08T07:52:44.999Z</time></trkpt><trkpt lat="45.52529943633574" lon="11.108297114856546"><ele>489.00000000000006</ele><time>2026-04-08T07:52:45.999Z</time></trkpt><trkpt lat="45.525244722766566" lon="11.108443991609185"><ele>488.0</ele><time>2026-04-08T07:52:46.999Z</time></trkpt><trkpt lat="45.52520945652668" lon="11.108572706384189"><ele>487.0</ele><time>2026-04-08T07:52:47.999Z</time></trkpt><trkpt lat="45.52516197226103" lon="11.108694844886358"><ele>484.75</ele><time>2026-04-08T07:52:49.999Z</time></trkpt><trkpt lat="45.525131215154275" lon="11.108793872736387"><ele>482.5</ele><time>2026-04-08T07:52:52.999Z</time></trkpt><trkpt lat="45.52536111429144" lon="11.10904320180953"><ele>480.25</ele><time>2026-04-08T07:52:53.999Z</time></trkpt><trkpt lat="45.52538997479186" lon="11.109125315957737"><ele>478.0</ele><time>2026-04-08T07:52:54.999Z</time></trkpt><trkpt lat="45.525426828590135" lon="11.109203825046494"><ele>474.79999999999995</ele><time>2026-04-08T07:52:55.999Z</time></trkpt><trkpt lat="45.52549111514136" lon="11.109289814524404"><ele>471.59999999999997</ele><time>2026-04-08T07:52:56.999Z</time></trkpt><trkpt lat="45.52556869152422" lon="11.10938954635543"><ele>468.40000000000003</ele><time>2026-04-08T07:52:57.999Z</time></trkpt><trkpt lat="45.525642251142045" lon="11.109491433474993"><ele>465.20000000000005</ele><time>2026-04-08T07:52:58.999Z</time></trkpt><trkpt lat="45.52571435957312" lon="11.10959310822452"><ele>462.0</ele><time>2026-04-08T07:52:59.999Z</time></trkpt><trkpt lat="45.525787432617186" lon="11.109688324509188"><ele>462.0</ele><time>2026-04-08T07:53:00.999Z</time></trkpt><trkpt lat="45.52585693091678" lon="11.109767315201976"><ele>462.0</ele><time>2026-04-08T07:53:01.999Z</time></trkpt><trkpt lat="45.5259265955427" lon="11.10983595714853"><ele>462.0</ele><time>2026-04-08T07:53:02.999Z</time></trkpt><trkpt lat="45.52598666367251" lon="11.109885695287304"><ele>462.0</ele><time>2026-04-08T07:53:03.999Z</time></trkpt><trkpt lat="45.52605381508532" lon="11.109930955023287"><ele>462.0</ele><time>2026-04-08T07:53:04.999Z</time></trkpt><trkpt lat="45.52614809601595" lon="11.110021294394034"><ele>462.0</ele><time>2026-04-08T07:53:06.999Z</time></trkpt><trkpt lat="45.52619387345608" lon="11.110131176834763"><ele>460.6666666666667</ele><time>2026-04-08T07:53:08.999Z</time></trkpt><trkpt lat="45.52620349565797" lon="11.110243643046783"><ele>459.33333333333337</ele><time>2026-04-08T07:53:10.999Z</time></trkpt><trkpt lat="45.526317980616724" lon="11.110295798403884"><ele>458.0</ele><time>2026-04-08T07:53:12.999Z</time></trkpt><trkpt lat="45.52638848016781" lon="11.110287480513506"><ele>456.6666666666667</ele><time>2026-04-08T07:53:13.999Z</time></trkpt><trkpt lat="45.526464467443134" lon="11.110261318597692"><ele>455.33333333333337</ele><time>2026-04-08T07:53:14.999Z</time></trkpt><trkpt lat="45.52652298544506" lon="11.110189313124513"><ele>454.0</ele><time>2026-04-08T07:53:15.999Z</time></trkpt><trkpt lat="45.5265918725919" lon="11.110071888140268"><ele>451.6666666666667</ele><time>2026-04-08T07:53:17.999Z</time></trkpt><trkpt lat="45.52662644008911" lon="11.109983490559358"><ele>449.33333333333337</ele><time>2026-04-08T07:53:18.999Z</time></trkpt><trkpt lat="45.52667105525597" lon="11.10989354251228"><ele>447.0</ele><time>2026-04-08T07:53:19.999Z</time></trkpt><trkpt lat="45.52671162329641" lon="11.109793267203225"><ele>444.66666666666663</ele><time>2026-04-08T07:53:20.999Z</time></trkpt><trkpt lat="45.52674657764445" lon="11.109632954261432"><ele>442.3333333333333</ele><time>2026-04-08T07:53:22.999Z</time></trkpt><trkpt lat="45.526739215767705" lon="11.10954127149615"><ele>440.0</ele><time>2026-04-08T07:53:23.999Z</time></trkpt><trkpt lat="45.52667495535346" lon="11.109297233183616"><ele>440.0</ele><time>2026-04-08T07:53:25.999Z</time></trkpt><trkpt lat="45.52664273407452" lon="11.109189599150836"><ele>440.0</ele><time>2026-04-08T07:53:27.999Z</time></trkpt><trkpt lat="45.52672198761246" lon="11.109129298647401"><ele>440.0</ele><time>2026-04-08T07:53:29.999Z</time></trkpt><trkpt lat="45.52678340862817" lon="11.109173342635025"><ele>440.0</ele><time>2026-04-08T07:53:30.999Z</time></trkpt><trkpt lat="45.52685215860015" lon="11.109195930082633"><ele>440.0</ele><time>2026-04-08T07:53:31.999Z</time></trkpt><trkpt lat="45.52699196126275" lon="11.109230654868705"><ele>439.99999999999994</ele><time>2026-04-08T07:53:33.999Z</time></trkpt><trkpt lat="45.52705281772667" lon="11.109290798563409"><ele>440.0</ele><time>2026-04-08T07:53:34.999Z</time></trkpt><trkpt lat="45.527089896269125" lon="11.10938450739515"><ele>440.0</ele><time>2026-04-08T07:53:35.999Z</time></trkpt><trkpt lat="45.527125399021216" lon="11.109506276905822"><ele>440.0</ele><time>2026-04-08T07:53:36.999Z</time></trkpt><trkpt lat="45.527148675962366" lon="11.109600365257608"><ele>439.99999999999994</ele><time>2026-04-08T07:53:37.999Z</time></trkpt><trkpt lat="45.52716520787554" lon="11.109703282951472"><ele>440.0</ele><time>2026-04-08T07:53:38.999Z</time></trkpt><trkpt lat="45.527148445018035" lon="11.109845625235014"><ele>435.8333333333333</ele><time>2026-04-08T07:53:40.999Z</time></trkpt><trkpt lat="45.52715642227642" lon="11.109972451887861"><ele>431.66666666666663</ele><time>2026-04-08T07:53:43.999Z</time></trkpt><trkpt lat="45.52725427526886" lon="11.110049792156145"><ele>427.5</ele><time>2026-04-08T07:53:46.999Z</time></trkpt><trkpt lat="45.527261339408305" lon="11.11014583680473"><ele>423.33333333333337</ele><time>2026-04-08T07:53:49.999Z</time></trkpt><trkpt lat="45.527271077039345" lon="11.110240300496352"><ele>419.1666666666667</ele><time>2026-04-08T07:53:54Z</time></trkpt><trkpt lat="45.52733372323581" lon="11.110270211121323"><ele>415.0</ele><time>2026-04-08T07:53:58Z</time></trkpt><trkpt lat="45.52737734192478" lon="11.110379545796338"><ele>415.00000000000006</ele><time>2026-04-08T07:54:00Z</time></trkpt><trkpt lat="45.52741294706364" lon="11.110462992667868"><ele>415.0</ele><time>2026-04-08T07:54:01Z</time></trkpt><trkpt lat="45.5274615196463" lon="11.110539832125944"><ele>415.0</ele><time>2026-04-08T07:54:03Z</time></trkpt><trkpt lat="45.527565671097655" lon="11.110618142198275"><ele>415.0</ele><time>2026-04-08T07:54:05Z</time></trkpt><trkpt lat="45.52761858012129" lon="11.110679417230855"><ele>415.00000000000006</ele><time>2026-04-08T07:54:06Z</time></trkpt><trkpt lat="45.52766477655792" lon="11.110753590808269"><ele>415.0</ele><time>2026-04-08T07:54:09Z</time></trkpt><trkpt lat="45.52771749776598" lon="11.110638057765744"><ele>415.0</ele><time>2026-04-08T07:54:12Z</time></trkpt><trkpt lat="45.52773684464936" lon="11.110481046341192"><ele>415.0</ele><time>2026-04-08T07:54:14Z</time></trkpt><trkpt lat="45.52774304803861" lon="11.110375382133098"><ele>415.0</ele><time>2026-04-08T07:54:15Z</time></trkpt><trkpt lat="45.52775063460965" lon="11.110255989709817"><ele>415.0</ele><time>2026-04-08T07:54:17Z</time></trkpt><trkpt lat="45.52784197591501" lon="11.110280092451765"><ele>415.0</ele><time>2026-04-08T07:54:19Z</time></trkpt><trkpt lat="45.527939962807466" lon="11.110282035505357"><ele>413.6666666666667</ele><time>2026-04-08T07:54:21Z</time></trkpt><trkpt lat="45.528008930922056" lon="11.110267491653245"><ele>412.33333333333337</ele><time>2026-04-08T07:54:22Z</time></trkpt><trkpt lat="45.52809008046537" lon="11.11026990234454"><ele>411.0</ele><time>2026-04-08T07:54:23Z</time></trkpt><trkpt lat="45.52818375819955" lon="11.110259174542543"><ele>409.66666666666663</ele><time>2026-04-08T07:54:24Z</time></trkpt><trkpt lat="45.528268731719706" lon="11.110226127470728"><ele>408.3333333333333</ele><time>2026-04-08T07:54:25Z</time></trkpt><trkpt lat="45.52833128863056" lon="11.110174922985184"><ele>407.0</ele><time>2026-04-08T07:54:26Z</time></trkpt><trkpt lat="45.52839785646577" lon="11.110168830453883"><ele>407.0</ele><time>2026-04-08T07:54:27Z</time></trkpt><trkpt lat="45.52853374810212" lon="11.110128286857549"><ele>407.0</ele><time>2026-04-08T07:54:29Z</time></trkpt><trkpt lat="45.528619023080374" lon="11.11009725189697"><ele>407.0</ele><time>2026-04-08T07:54:29.999Z</time></trkpt><trkpt lat="45.528686455915654" lon="11.110073189665506"><ele>407.0</ele><time>2026-04-08T07:54:30.999Z</time></trkpt><trkpt lat="45.52874279421697" lon="11.110029788417139"><ele>407.0</ele><time>2026-04-08T07:54:31.999Z</time></trkpt><trkpt lat="45.52882932194867" lon="11.109930078504737"><ele>407.40000000000003</ele><time>2026-04-08T07:54:33.999Z</time></trkpt><trkpt lat="45.528925758970026" lon="11.109823055040506"><ele>407.8</ele><time>2026-04-08T07:54:35.999Z</time></trkpt><trkpt lat="45.528987332500954" lon="11.109653103647037"><ele>408.2</ele><time>2026-04-08T07:54:37.999Z</time></trkpt><trkpt lat="45.529010489745225" lon="11.109538382944537"><ele>408.6</ele><time>2026-04-08T07:54:38.999Z</time></trkpt><trkpt lat="45.52905233308506" lon="11.109435862187798"><ele>409.0</ele><time>2026-04-08T07:54:39.999Z</time></trkpt><trkpt lat="45.529108147453" lon="11.109357619510332"><ele>409.0</ele><time>2026-04-08T07:54:40.999Z</time></trkpt><trkpt lat="45.529138479205464" lon="11.109246739306673"><ele>409.0</ele><time>2026-04-08T07:54:41.999Z</time></trkpt><trkpt lat="45.52914698106314" lon="11.109138102249124"><ele>409.0</ele><time>2026-04-08T07:54:42.999Z</time></trkpt><trkpt lat="45.52918359791936" lon="11.109049967152556"><ele>409.0</ele><time>2026-04-08T07:54:43.999Z</time></trkpt><trkpt lat="45.52925155627126" lon="11.108982648410482"><ele>409.0</ele><time>2026-04-08T07:54:44.999Z</time></trkpt><trkpt lat="45.52931291110129" lon="11.108810486808775"><ele>411.2</ele><time>2026-04-08T07:54:46.999Z</time></trkpt><trkpt lat="45.529335713216746" lon="11.108698074816232"><ele>413.4</ele><time>2026-04-08T07:54:47.999Z</time></trkpt><trkpt lat="45.52939792504953" lon="11.10854000073339"><ele>415.6</ele><time>2026-04-08T07:54:48.999Z</time></trkpt><trkpt lat="45.52940427457887" lon="11.108425004033823"><ele>417.8</ele><time>2026-04-08T07:54:49.999Z</time></trkpt><trkpt lat="45.52935521885298" lon="11.108344825626073"><ele>420.0</ele><time>2026-04-08T07:54:51.999Z</time></trkpt><trkpt lat="45.52928188034823" lon="11.108277333069985"><ele>419.0</ele><time>2026-04-08T07:54:52.999Z</time></trkpt><trkpt lat="45.52925162055014" lon="11.108125171170666"><ele>418.0</ele><time>2026-04-08T07:54:54.999Z</time></trkpt><trkpt lat="45.52932102341614" lon="11.1080048581131"><ele>417.0</ele><time>2026-04-08T07:54:56.999Z</time></trkpt><trkpt lat="45.52939499523701" lon="11.108078615664429"><ele>416.0</ele><time>2026-04-08T07:54:58.999Z</time></trkpt><trkpt lat="45.529499928671285" lon="11.1082034711598"><ele>415.0</ele><time>2026-04-08T07:55:00.999Z</time></trkpt><trkpt lat="45.529586738649314" lon="11.10829052686778"><ele>415.0</ele><time>2026-04-08T07:55:01.999Z</time></trkpt><trkpt lat="45.529681289104296" lon="11.108361909612963"><ele>415.0</ele><time>2026-04-08T07:55:02.999Z</time></trkpt><trkpt lat="45.529770044436205" lon="11.108423747533713"><ele>415.0</ele><time>2026-04-08T07:55:03.999Z</time></trkpt><trkpt lat="45.52986558946674" lon="11.108497704174308"><ele>415.0</ele><time>2026-04-08T07:55:04.999Z</time></trkpt><trkpt lat="45.529967477541206" lon="11.108564562943531"><ele>415.0</ele><time>2026-04-08T07:55:05.999Z</time></trkpt><trkpt lat="45.530069893796814" lon="11.10862868981691"><ele>415.0</ele><time>2026-04-08T07:55:06.999Z</time></trkpt><trkpt lat="45.530167372433986" lon="11.108679615253262"><ele>415.0</ele><time>2026-04-08T07:55:07.999Z</time></trkpt><trkpt lat="45.53026192694839" lon="11.10872981228767"><ele>415.0</ele><time>2026-04-08T07:55:09Z</time></trkpt><trkpt lat="45.53034747918703" lon="11.108781410418414"><ele>415.0</ele><time>2026-04-08T07:55:10Z</time></trkpt><trkpt lat="45.53044356297077" lon="11.108816078950415"><ele>415.0</ele><time>2026-04-08T07:55:11Z</time></trkpt><trkpt lat="45.53053063529318" lon="11.10882440187165"><ele>415.6666666666667</ele><time>2026-04-08T07:55:12Z</time></trkpt><trkpt lat="45.530610877918534" lon="11.108820130134015"><ele>416.33333333333337</ele><time>2026-04-08T07:55:13Z</time></trkpt><trkpt lat="45.53068106062469" lon="11.108808047942833"><ele>417.0</ele><time>2026-04-08T07:55:14Z</time></trkpt><trkpt lat="45.53076376600759" lon="11.108776184101707"><ele>417.66666666666663</ele><time>2026-04-08T07:55:15Z</time></trkpt><trkpt lat="45.530849416244465" lon="11.108725396823345"><ele>418.3333333333333</ele><time>2026-04-08T07:55:16Z</time></trkpt><trkpt lat="45.53093399682151" lon="11.108663968727589"><ele>419.0</ele><time>2026-04-08T07:55:17Z</time></trkpt><trkpt lat="45.531023229735446" lon="11.108605054962394"><ele>419.0</ele><time>2026-04-08T07:55:18Z</time></trkpt><trkpt lat="45.53111825387534" lon="11.108555352416614"><ele>419.0</ele><time>2026-04-08T07:55:19Z</time></trkpt><trkpt lat="45.5311973332151" lon="11.108509164160543"><ele>419.0</ele><time>2026-04-08T07:55:20Z</time></trkpt><trkpt lat="45.531250260516885" lon="11.108454892554105"><ele>419.0</ele><time>2026-04-08T07:55:21Z</time></trkpt><trkpt lat="45.531332989019305" lon="11.108314071956457"><ele>419.0</ele><time>2026-04-08T07:55:23Z</time></trkpt><trkpt lat="45.53137774981641" lon="11.108213004915648"><ele>420.8333333333333</ele><time>2026-04-08T07:55:24Z</time></trkpt><trkpt lat="45.53142789652178" lon="11.10813006652161"><ele>422.66666666666663</ele><time>2026-04-08T07:55:25Z</time></trkpt><trkpt lat="45.531511055086995" lon="11.10807910849594"><ele>424.5</ele><time>2026-04-08T07:55:27Z</time></trkpt><trkpt lat="45.53161269819839" lon="11.108103731082865"><ele>426.33333333333337</ele><time>2026-04-08T07:55:29Z</time></trkpt><trkpt lat="45.53167806824131" lon="11.108099792538914"><ele>428.1666666666667</ele><time>2026-04-08T07:55:30Z</time></trkpt><trkpt lat="45.53174145222967" lon="11.108109473343573"><ele>430.0</ele><time>2026-04-08T07:55:31Z</time></trkpt><trkpt lat="45.53183907429788" lon="11.108084084651194"><ele>430.0</ele><time>2026-04-08T07:55:33Z</time></trkpt><trkpt lat="45.531924509043826" lon="11.108033720607493"><ele>430.0</ele><time>2026-04-08T07:55:35Z</time></trkpt><trkpt lat="45.53200364841813" lon="11.108104902314885"><ele>430.0</ele><time>2026-04-08T07:55:37Z</time></trkpt><trkpt lat="45.532083497827976" lon="11.108120161301965"><ele>430.0</ele><time>2026-04-08T07:55:39Z</time></trkpt><trkpt lat="45.5321934846769" lon="11.108126437371899"><ele>430.0</ele><time>2026-04-08T07:55:40Z</time></trkpt><trkpt lat="45.53232267303417" lon="11.10815218926046"><ele>431.33333333333337</ele><time>2026-04-08T07:55:41Z</time></trkpt><trkpt lat="45.53241188260357" lon="11.108168754306693"><ele>432.6666666666667</ele><time>2026-04-08T07:55:42Z</time></trkpt><trkpt lat="45.53249667214249" lon="11.108179307440592"><ele>434.0</ele><time>2026-04-08T07:55:43Z</time></trkpt><trkpt lat="45.53256978025207" lon="11.10814797758505"><ele>435.33333333333337</ele><time>2026-04-08T07:55:44Z</time></trkpt><trkpt lat="45.532657741695985" lon="11.108125806858713"><ele>436.6666666666667</ele><time>2026-04-08T07:55:45Z</time></trkpt><trkpt lat="45.53271800389411" lon="11.108087951206668"><ele>438.0</ele><time>2026-04-08T07:55:46Z</time></trkpt><trkpt lat="45.53278300182411" lon="11.108043762183808"><ele>438.0</ele><time>2026-04-08T07:55:47Z</time></trkpt><trkpt lat="45.5328534502807" lon="11.108003683630717"><ele>438.0</ele><time>2026-04-08T07:55:48Z</time></trkpt><trkpt lat="45.53292730450443" lon="11.107960250786254"><ele>438.0</ele><time>2026-04-08T07:55:49Z</time></trkpt><trkpt lat="45.53300959461852" lon="11.107917071140863"><ele>438.0</ele><time>2026-04-08T07:55:50Z</time></trkpt><trkpt lat="45.53308275857194" lon="11.107869937197984"><ele>438.0</ele><time>2026-04-08T07:55:51Z</time></trkpt><trkpt lat="45.53316477461555" lon="11.107831681035476"><ele>438.0</ele><time>2026-04-08T07:55:52Z</time></trkpt><trkpt lat="45.53324449605917" lon="11.107795096320666"><ele>437.0</ele><time>2026-04-08T07:55:53Z</time></trkpt><trkpt lat="45.533329373343115" lon="11.107749449571763"><ele>435.99999999999994</ele><time>2026-04-08T07:55:54Z</time></trkpt><trkpt lat="45.53341709576181" lon="11.107677901411082"><ele>434.99999999999994</ele><time>2026-04-08T07:55:55Z</time></trkpt><trkpt lat="45.533495187881755" lon="11.107601680556302"><ele>434.0</ele><time>2026-04-08T07:55:56Z</time></trkpt><trkpt lat="45.53357757979397" lon="11.107557783499791"><ele>433.0</ele><time>2026-04-08T07:55:57Z</time></trkpt><trkpt lat="45.53370190279853" lon="11.107404365797489"><ele>432.6666666666667</ele><time>2026-04-08T07:55:59Z</time></trkpt><trkpt lat="45.533740127162524" lon="11.107284610622475"><ele>432.33333333333337</ele><time>2026-04-08T07:56:00Z</time></trkpt><trkpt lat="45.53377704865307" lon="11.107188982691358"><ele>432.0</ele><time>2026-04-08T07:56:01Z</time></trkpt><trkpt lat="45.53384873186751" lon="11.107135881658396"><ele>431.66666666666663</ele><time>2026-04-08T07:56:02Z</time></trkpt><trkpt lat="45.533901217231254" lon="11.107054970307177"><ele>431.3333333333333</ele><time>2026-04-08T07:56:03Z</time></trkpt><trkpt lat="45.53394549370018" lon="11.106955355763818"><ele>431.0</ele><time>2026-04-08T07:56:04Z</time></trkpt><trkpt lat="45.53400115953733" lon="11.10687899483349"><ele>430.99999999999994</ele><time>2026-04-08T07:56:05Z</time></trkpt><trkpt lat="45.53405169841751" lon="11.10678606034999"><ele>431.0</ele><time>2026-04-08T07:56:07Z</time></trkpt><trkpt lat="45.53412637000572" lon="11.106838797086203"><ele>431.0</ele><time>2026-04-08T07:56:09Z</time></trkpt><trkpt lat="45.534168198830976" lon="11.106945346600202"><ele>431.0</ele><time>2026-04-08T07:56:10Z</time></trkpt><trkpt lat="45.534210269234784" lon="11.107018589654798"><ele>430.99999999999994</ele><time>2026-04-08T07:56:11Z</time></trkpt><trkpt lat="45.534242727199896" lon="11.107114745506744"><ele>431.0</ele><time>2026-04-08T07:56:12Z</time></trkpt><trkpt lat="45.53429238222762" lon="11.107199421286346"><ele>430.99999999999994</ele><time>2026-04-08T07:56:13Z</time></trkpt><trkpt lat="45.53434975393444" lon="11.107287851702257"><ele>431.0</ele><time>2026-04-08T07:56:14Z</time></trkpt><trkpt lat="45.5344135995356" lon="11.107362257119052"><ele>431.0</ele><time>2026-04-08T07:56:15Z</time></trkpt><trkpt lat="45.53448119977043" lon="11.107464278146377"><ele>431.0</ele><time>2026-04-08T07:56:16Z</time></trkpt><trkpt lat="45.53452902783017" lon="11.107551853363402"><ele>430.99999999999994</ele><time>2026-04-08T07:56:17Z</time></trkpt><trkpt lat="45.534583041027915" lon="11.1076224648457"><ele>431.0</ele><time>2026-04-08T07:56:18Z</time></trkpt><trkpt lat="45.53463263000476" lon="11.107693280640476"><ele>429.3333333333333</ele><time>2026-04-08T07:56:19Z</time></trkpt><trkpt lat="45.5346853198952" lon="11.107768776615094"><ele>427.66666666666663</ele><time>2026-04-08T07:56:21Z</time></trkpt><trkpt lat="45.53475188522965" lon="11.107829711965076"><ele>426.0</ele><time>2026-04-08T07:56:23Z</time></trkpt><trkpt lat="45.534880323828375" lon="11.107862545378103"><ele>424.33333333333337</ele><time>2026-04-08T07:56:25Z</time></trkpt><trkpt lat="45.53495689177031" lon="11.107863253427736"><ele>422.6666666666667</ele><time>2026-04-08T07:56:26Z</time></trkpt><trkpt lat="45.53502471189596" lon="11.107845349919094"><ele>421.0</ele><time>2026-04-08T07:56:27Z</time></trkpt><trkpt lat="45.53510177337337" lon="11.107866893877882"><ele>421.0</ele><time>2026-04-08T07:56:28Z</time></trkpt><trkpt lat="45.535186247002656" lon="11.107885288859688"><ele>421.0</ele><time>2026-04-08T07:56:29Z</time></trkpt><trkpt lat="45.53530356014415" lon="11.10792995373407"><ele>421.0</ele><time>2026-04-08T07:56:31Z</time></trkpt><trkpt lat="45.53537152963569" lon="11.10797014123563"><ele>421.0</ele><time>2026-04-08T07:56:33Z</time></trkpt><trkpt lat="45.53543448173915" lon="11.108020163680086"><ele>421.0</ele><time>2026-04-08T07:56:34Z</time></trkpt><trkpt lat="45.535544144444216" lon="11.10812867606557"><ele>420.50000000000006</ele><time>2026-04-08T07:56:35.999Z</time></trkpt><trkpt lat="45.53558020243442" lon="11.108206993149793"><ele>420.0</ele><time>2026-04-08T07:56:36.999Z</time></trkpt><trkpt lat="45.535658412900005" lon="11.10829082951841"><ele>419.5</ele><time>2026-04-08T07:56:38.999Z</time></trkpt><trkpt lat="45.53570333484006" lon="11.108355249152694"><ele>419.0</ele><time>2026-04-08T07:56:39.999Z</time></trkpt><trkpt lat="45.53576728252053" lon="11.108415365231483"><ele>418.50000000000006</ele><time>2026-04-08T07:56:41.999Z</time></trkpt><trkpt lat="45.535709553970165" lon="11.108466467628597"><ele>418.0</ele><time>2026-04-08T07:56:45.999Z</time></trkpt><trkpt lat="45.53562772693505" lon="11.10850699634776"><ele>415.42857142857144</ele><time>2026-04-08T07:56:47.999Z</time></trkpt><trkpt lat="45.53555824361305" lon="11.108529441071655"><ele>412.85714285714283</ele><time>2026-04-08T07:56:49.999Z</time></trkpt><trkpt lat="45.53549261716375" lon="11.108522908846048"><ele>410.28571428571433</ele><time>2026-04-08T07:56:52.999Z</time></trkpt><trkpt lat="45.535430800878764" lon="11.108472330747395"><ele>407.7142857142857</ele><time>2026-04-08T07:56:54.999Z</time></trkpt><trkpt lat="45.53535005888898" lon="11.108462831993927"><ele>405.14285714285717</ele><time>2026-04-08T07:56:56.999Z</time></trkpt><trkpt lat="45.53536440280927" lon="11.108566407152606"><ele>402.5714285714286</ele><time>2026-04-08T07:56:59.999Z</time></trkpt><trkpt lat="45.53541587966188" lon="11.108643982425635"><ele>400.0</ele><time>2026-04-08T07:57:01.999Z</time></trkpt><trkpt lat="45.53549648288623" lon="11.108757608691805"><ele>400.0</ele><time>2026-04-08T07:57:05Z</time></trkpt><trkpt lat="45.53555637141336" lon="11.108790382309607"><ele>400.0</ele><time>2026-04-08T07:57:07Z</time></trkpt><trkpt lat="45.53564414698695" lon="11.108893725534754"><ele>400.0</ele><time>2026-04-08T07:57:09Z</time></trkpt><trkpt lat="45.535704695598646" lon="11.108930061272554"><ele>400.0</ele><time>2026-04-08T07:57:10Z</time></trkpt><trkpt lat="45.53581096292901" lon="11.109017469394875"><ele>400.0</ele><time>2026-04-08T07:57:12Z</time></trkpt><trkpt lat="45.535919810355274" lon="11.109046263184608"><ele>400.00000000000006</ele><time>2026-04-08T07:57:14Z</time></trkpt><trkpt lat="45.535983735174845" lon="11.109048899139195"><ele>400.0</ele><time>2026-04-08T07:57:16Z</time></trkpt><trkpt lat="45.53607202118516" lon="11.109008354708884"><ele>400.0</ele><time>2026-04-08T07:57:18Z</time></trkpt><trkpt lat="45.53613812504078" lon="11.108989280049894"><ele>400.0</ele><time>2026-04-08T07:57:20Z</time></trkpt><trkpt lat="45.53612004342556" lon="11.109095469312233"><ele>400.00000000000006</ele><time>2026-04-08T07:57:22Z</time></trkpt><trkpt lat="45.536080778737066" lon="11.109206162458413"><ele>400.0</ele><time>2026-04-08T07:57:24Z</time></trkpt><trkpt lat="45.53601059908134" lon="11.109268109808951"><ele>397.1666666666667</ele><time>2026-04-08T07:57:26Z</time></trkpt><trkpt lat="45.53592152974018" lon="11.109257410362167"><ele>394.33333333333337</ele><time>2026-04-08T07:57:29Z</time></trkpt><trkpt lat="45.53586404889497" lon="11.109306782609977"><ele>391.5</ele><time>2026-04-08T07:57:31Z</time></trkpt><trkpt lat="45.535796542930285" lon="11.109352069789201"><ele>388.6666666666667</ele><time>2026-04-08T08:00:52.001Z</time></trkpt><trkpt lat="45.53585897960402" lon="11.109415534699458"><ele>385.83333333333337</ele><time>2026-04-08T08:01:04.001Z</time></trkpt><trkpt lat="45.535914735577194" lon="11.109474170992836"><ele>383.0</ele><time>2026-04-08T08:01:10.001Z</time></trkpt><trkpt lat="45.536044599236284" lon="11.109407836281033"><ele>383.0</ele><time>2026-04-08T08:01:24.001Z</time></trkpt><trkpt lat="45.536090886420695" lon="11.109344416271757"><ele>383.0</ele><time>2026-04-08T08:01:26.001Z</time></trkpt><trkpt lat="45.53611908032404" lon="11.109260834189099"><ele>383.0</ele><time>2026-04-08T08:01:28.001Z</time></trkpt><trkpt lat="45.536170678594864" lon="11.10920277782769"><ele>383.0</ele><time>2026-04-08T08:01:34.001Z</time></trkpt><trkpt lat="45.53620178775906" lon="11.109109085489507"><ele>383.0</ele><time>2026-04-08T08:01:38.001Z</time></trkpt><trkpt lat="45.53624684079849" lon="11.10903431598469"><ele>383.0</ele><time>2026-04-08T08:01:41.001Z</time></trkpt><trkpt lat="45.53630048227987" lon="11.10898560243088"><ele>383.0</ele><time>2026-04-08T08:01:46.001Z</time></trkpt><trkpt lat="45.53630000519712" lon="11.109086275629977"><ele>383.83333333333337</ele><time>2026-04-08T08:02:00.001Z</time></trkpt><trkpt lat="45.536284258359046" lon="11.109202988159293"><ele>384.6666666666667</ele><time>2026-04-08T08:02:03.001Z</time></trkpt><trkpt lat="45.536291203265456" lon="11.10933712819864"><ele>385.5</ele><time>2026-04-08T08:02:07.001Z</time></trkpt><trkpt lat="45.53627477409275" lon="11.10943460592024"><ele>386.33333333333337</ele><time>2026-04-08T08:02:12.001Z</time></trkpt><trkpt lat="45.536330578911546" lon="11.10950342636579"><ele>387.1666666666667</ele><time>2026-04-08T08:02:16.001Z</time></trkpt><trkpt lat="45.536397486784075" lon="11.109460016554337"><ele>388.0</ele><time>2026-04-08T08:02:19.001Z</time></trkpt><trkpt lat="45.53647286974981" lon="11.109414737765567"><ele>388.00000000000006</ele><time>2026-04-08T08:02:37.001Z</time></trkpt><trkpt lat="45.53653158900267" lon="11.109348044291192"><ele>388.0</ele><time>2026-04-08T08:02:51.001Z</time></trkpt><trkpt lat="45.53655336768541" lon="11.109226632940159"><ele>388.0</ele><time>2026-04-08T08:02:54Z</time></trkpt><trkpt lat="45.53656253769929" lon="11.109112596572098"><ele>388.0</ele><time>2026-04-08T08:02:56Z</time></trkpt><trkpt lat="45.536580288042884" lon="11.109014869235528"><ele>388.00000000000006</ele><time>2026-04-08T08:02:58Z</time></trkpt><trkpt lat="45.53663931724216" lon="11.108918802303885"><ele>388.0</ele><time>2026-04-08T08:03:00Z</time></trkpt><trkpt lat="45.536665279578884" lon="11.108828414135457"><ele>388.1666666666667</ele><time>2026-04-08T08:03:02Z</time></trkpt><trkpt lat="45.5367244542398" lon="11.108779687005484"><ele>388.33333333333337</ele><time>2026-04-08T08:03:03Z</time></trkpt><trkpt lat="45.5367904733768" lon="11.108818630503238"><ele>388.5</ele><time>2026-04-08T08:03:06Z</time></trkpt><trkpt lat="45.536888802077215" lon="11.108795125901034"><ele>388.66666666666663</ele><time>2026-04-08T08:03:09Z</time></trkpt><trkpt lat="45.53695875735015" lon="11.10872134258183"><ele>388.8333333333333</ele><time>2026-04-08T08:03:11Z</time></trkpt><trkpt lat="45.5370491866096" lon="11.108602714014955"><ele>389.0</ele><time>2026-04-08T08:03:13Z</time></trkpt><trkpt lat="45.53712788674137" lon="11.108492901872953"><ele>391.16666666666663</ele><time>2026-04-08T08:03:15Z</time></trkpt><trkpt lat="45.5371965542235" lon="11.108425693485508"><ele>393.3333333333333</ele><time>2026-04-08T08:03:17Z</time></trkpt><trkpt lat="45.53727712675137" lon="11.108362231938816"><ele>395.5</ele><time>2026-04-08T08:03:24Z</time></trkpt><trkpt lat="45.53731495208456" lon="11.108255318900346"><ele>397.66666666666663</ele><time>2026-04-08T08:03:26Z</time></trkpt><trkpt lat="45.5373339276526" lon="11.108152680446208"><ele>399.8333333333333</ele><time>2026-04-08T08:03:29Z</time></trkpt><trkpt lat="45.53734281280772" lon="11.10801535003506"><ele>402.0</ele><time>2026-04-08T08:03:31Z</time></trkpt><trkpt lat="45.53740608508906" lon="11.107944449995017"><ele>402.40000000000003</ele><time>2026-04-08T08:03:36Z</time></trkpt><trkpt lat="45.53750859519953" lon="11.107915569383806"><ele>402.8</ele><time>2026-04-08T08:03:39Z</time></trkpt><trkpt lat="45.5376167078339" lon="11.107873887889701"><ele>403.2</ele><time>2026-04-08T08:03:41Z</time></trkpt><trkpt lat="45.537720815837794" lon="11.107851094484209"><ele>403.6</ele><time>2026-04-08T08:03:43Z</time></trkpt><trkpt lat="45.53778155832988" lon="11.107776624631171"><ele>404.0</ele><time>2026-04-08T08:03:46Z</time></trkpt><trkpt lat="45.537819766790086" lon="11.107629231388499"><ele>406.0</ele><time>2026-04-08T08:03:48Z</time></trkpt><trkpt lat="45.53793320524452" lon="11.10753605349501"><ele>408.0</ele><time>2026-04-08T08:03:50Z</time></trkpt><trkpt lat="45.53802260849968" lon="11.107546212652299"><ele>410.0</ele><time>2026-04-08T08:03:52Z</time></trkpt><trkpt lat="45.538083377500065" lon="11.107602168294347"><ele>412.0</ele><time>2026-04-08T08:03:54Z</time></trkpt><trkpt lat="45.53816578282605" lon="11.107619377430323"><ele>414.0</ele><time>2026-04-08T08:03:56Z</time></trkpt><trkpt lat="45.53827100378814" lon="11.107628303707891"><ele>414.0</ele><time>2026-04-08T08:03:59Z</time></trkpt><trkpt lat="45.538336489654235" lon="11.107672241028856"><ele>414.0</ele><time>2026-04-08T08:04:01Z</time></trkpt><trkpt lat="45.53843579659386" lon="11.107687487132988"><ele>414.0</ele><time>2026-04-08T08:04:03Z</time></trkpt><trkpt lat="45.53847629562675" lon="11.107784550635314"><ele>414.0</ele><time>2026-04-08T08:04:06Z</time></trkpt><trkpt lat="45.538520097213436" lon="11.107870085912772"><ele>414.0</ele><time>2026-04-08T08:04:08Z</time></trkpt><trkpt lat="45.53853038299968" lon="11.10796977262552"><ele>414.0</ele><time>2026-04-08T08:04:11Z</time></trkpt><trkpt lat="45.5385687596929" lon="11.10807255248578"><ele>414.0</ele><time>2026-04-08T08:04:14Z</time></trkpt><trkpt lat="45.538641705501355" lon="11.10811080467815"><ele>414.0</ele><time>2026-04-08T08:04:18Z</time></trkpt><trkpt lat="45.538711117105336" lon="11.10814413523364"><ele>414.0</ele><time>2026-04-08T08:04:32.001Z</time></trkpt><trkpt lat="45.53877247935438" lon="11.10811370341584"><ele>414.0</ele><time>2026-04-08T08:04:34.001Z</time></trkpt><trkpt lat="45.53884373405782" lon="11.108138340989331"><ele>414.0</ele><time>2026-04-08T08:04:35.001Z</time></trkpt><trkpt lat="45.538956821180875" lon="11.108137159410507"><ele>414.0</ele><time>2026-04-08T08:04:37.001Z</time></trkpt><trkpt lat="45.53907122316391" lon="11.108192737337728"><ele>419.4</ele><time>2026-04-08T08:04:39.001Z</time></trkpt><trkpt lat="45.53916542318249" lon="11.108266547298483"><ele>424.79999999999995</ele><time>2026-04-08T08:04:41.001Z</time></trkpt><trkpt lat="45.53922849365955" lon="11.108340871341222"><ele>430.20000000000005</ele><time>2026-04-08T08:04:42.001Z</time></trkpt><trkpt lat="45.539309414694905" lon="11.108451175053085"><ele>435.6</ele><time>2026-04-08T08:04:44.001Z</time></trkpt><trkpt lat="45.53936647982381" lon="11.108519450026396"><ele>441.0</ele><time>2026-04-08T08:04:46.001Z</time></trkpt><trkpt lat="45.53944302461452" lon="11.108578742875578"><ele>441.0</ele><time>2026-04-08T08:04:52.001Z</time></trkpt><trkpt lat="45.5395145986159" lon="11.108642073935796"><ele>441.0</ele><time>2026-04-08T08:04:54.001Z</time></trkpt><trkpt lat="45.5395800079808" lon="11.10863671341748"><ele>441.0</ele><time>2026-04-08T08:04:56.001Z</time></trkpt><trkpt lat="45.53964869738264" lon="11.108725055515915"><ele>441.0</ele><time>2026-04-08T08:04:58.001Z</time></trkpt><trkpt lat="45.53966105518463" lon="11.10886508536451"><ele>441.0</ele><time>2026-04-08T08:05:01.001Z</time></trkpt><trkpt lat="45.53959344617952" lon="11.108890849753035"><ele>441.0</ele><time>2026-04-08T08:05:05.001Z</time></trkpt><trkpt lat="45.539545945148646" lon="11.108961618240087"><ele>442.6666666666667</ele><time>2026-04-08T08:05:08.001Z</time></trkpt><trkpt lat="45.53955149316923" lon="11.109058549819926"><ele>444.33333333333337</ele><time>2026-04-08T08:05:10.001Z</time></trkpt><trkpt lat="45.53960416170157" lon="11.10917217478401"><ele>446.0</ele><time>2026-04-08T08:05:12.001Z</time></trkpt><trkpt lat="45.53966695200438" lon="11.10925442163383"><ele>447.6666666666667</ele><time>2026-04-08T08:05:14.001Z</time></trkpt><trkpt lat="45.539704225886595" lon="11.109331523827018"><ele>449.33333333333337</ele><time>2026-04-08T08:05:16.001Z</time></trkpt><trkpt lat="45.539735113770135" lon="11.109414535755096"><ele>451.0</ele><time>2026-04-08T08:05:18.001Z</time></trkpt><trkpt lat="45.539796326779424" lon="11.109514153079518"><ele>452.83333333333337</ele><time>2026-04-08T08:05:21.001Z</time></trkpt><trkpt lat="45.539861716005255" lon="11.109611871807926"><ele>454.6666666666667</ele><time>2026-04-08T08:05:23.001Z</time></trkpt><trkpt lat="45.53991809829065" lon="11.109656090921447"><ele>456.5</ele><time>2026-04-08T08:05:24.001Z</time></trkpt><trkpt lat="45.539997688734324" lon="11.109731561272762"><ele>458.33333333333337</ele><time>2026-04-08T08:05:26.001Z</time></trkpt><trkpt lat="45.540103640366155" lon="11.109806736063838"><ele>460.1666666666667</ele><time>2026-04-08T08:05:28.001Z</time></trkpt><trkpt lat="45.54017407279017" lon="11.109838616852384"><ele>462.0</ele><time>2026-04-08T08:05:29.001Z</time></trkpt><trkpt lat="45.540242718342725" lon="11.109904677419086"><ele>468.0</ele><time>2026-04-08T08:05:30.001Z</time></trkpt><trkpt lat="45.54030280342707" lon="11.109972007665956"><ele>474.0</ele><time>2026-04-08T08:05:31.001Z</time></trkpt><trkpt lat="45.54040337407732" lon="11.110046224543222"><ele>480.0</ele><time>2026-04-08T08:05:33.001Z</time></trkpt><trkpt lat="45.54058579684638" lon="11.110072713442264"><ele>486.0</ele><time>2026-04-08T08:05:36.001Z</time></trkpt><trkpt lat="45.54068731428053" lon="11.110096519090568"><ele>486.0</ele><time>2026-04-08T08:05:37.001Z</time></trkpt><trkpt lat="45.54077750611557" lon="11.110135265227143"><ele>486.0</ele><time>2026-04-08T08:05:38.001Z</time></trkpt><trkpt lat="45.540881371901726" lon="11.110169754649952"><ele>486.0</ele><time>2026-04-08T08:05:39.001Z</time></trkpt><trkpt lat="45.54096429307671" lon="11.110164707819669"><ele>486.0</ele><time>2026-04-08T08:05:40.001Z</time></trkpt><trkpt lat="45.54107897694608" lon="11.110193095593747"><ele>486.0</ele><time>2026-04-08T08:05:41.001Z</time></trkpt><trkpt lat="45.54116809954561" lon="11.110254424595427"><ele>488.6</ele><time>2026-04-08T08:05:42.001Z</time></trkpt><trkpt lat="45.541234675724816" lon="11.110310118626577"><ele>491.20000000000005</ele><time>2026-04-08T08:05:43.001Z</time></trkpt><trkpt lat="45.54134732817528" lon="11.1103887936468"><ele>493.79999999999995</ele><time>2026-04-08T08:05:44.001Z</time></trkpt><trkpt lat="45.541409311220455" lon="11.110468280104016"><ele>496.4</ele><time>2026-04-08T08:05:45.001Z</time></trkpt><trkpt lat="45.54147895296155" lon="11.110491651859183"><ele>499.0</ele><time>2026-04-08T08:05:46.001Z</time></trkpt><trkpt lat="45.54156965317954" lon="11.110567705810691"><ele>499.00000000000006</ele><time>2026-04-08T08:05:47.001Z</time></trkpt><trkpt lat="45.541623482762986" lon="11.110643253821404"><ele>499.0</ele><time>2026-04-08T08:05:48.001Z</time></trkpt><trkpt lat="45.54165575820619" lon="11.110736954142878"><ele>499.0</ele><time>2026-04-08T08:05:49.001Z</time></trkpt><trkpt lat="45.54173949074592" lon="11.110835744646021"><ele>499.0</ele><time>2026-04-08T08:05:50.001Z</time></trkpt><trkpt lat="45.54178696480048" lon="11.110909207584728"><ele>499.00000000000006</ele><time>2026-04-08T08:05:51.001Z</time></trkpt><trkpt lat="45.541866553533" lon="11.11094903863226"><ele>499.0</ele><time>2026-04-08T08:05:53.001Z</time></trkpt><trkpt lat="45.541932141882306" lon="11.11094267204427"><ele>499.0</ele><time>2026-04-08T08:07:53.001Z</time></trkpt><trkpt lat="45.54193342227862" lon="11.110830959989395"><ele>499.0</ele><time>2026-04-08T08:07:57.001Z</time></trkpt><trkpt lat="45.5418945894169" lon="11.110647832061137"><ele>499.0</ele><time>2026-04-08T08:07:59.001Z</time></trkpt><trkpt lat="45.54190277260947" lon="11.110525108361985"><ele>499.0</ele><time>2026-04-08T08:08:00.001Z</time></trkpt><trkpt lat="45.54193427343161" lon="11.110384294646902"><ele>499.0</ele><time>2026-04-08T08:08:01.001Z</time></trkpt><trkpt lat="45.54195314418814" lon="11.110240268624056"><ele>499.0</ele><time>2026-04-08T08:08:02.001Z</time></trkpt><trkpt lat="45.541954256423324" lon="11.110113042206008"><ele>499.0</ele><time>2026-04-08T08:08:03.001Z</time></trkpt><trkpt lat="45.54193646068143" lon="11.10995136800714"><ele>499.0</ele><time>2026-04-08T08:08:04.001Z</time></trkpt><trkpt lat="45.54194117798534" lon="11.109815372526766"><ele>499.0</ele><time>2026-04-08T08:08:05.001Z</time></trkpt><trkpt lat="45.5419447144583" lon="11.109678463530754"><ele>499.0</ele><time>2026-04-08T08:08:06Z</time></trkpt><trkpt lat="45.541959900009104" lon="11.109531338224114"><ele>499.33333333333337</ele><time>2026-04-08T08:08:07Z</time></trkpt><trkpt lat="45.54197329708726" lon="11.109365489770552"><ele>499.6666666666667</ele><time>2026-04-08T08:08:08Z</time></trkpt><trkpt lat="45.54196136268173" lon="11.109264842977884"><ele>500.0</ele><time>2026-04-08T08:08:09Z</time></trkpt><trkpt lat="45.54194970148622" lon="11.1091548945994"><ele>500.33333333333337</ele><time>2026-04-08T08:08:10Z</time></trkpt><trkpt lat="45.541962336968254" lon="11.109063869452726"><ele>500.6666666666667</ele><time>2026-04-08T08:08:11Z</time></trkpt><trkpt lat="45.54199083213899" lon="11.108954058598565"><ele>501.0</ele><time>2026-04-08T08:08:12Z</time></trkpt><trkpt lat="45.54200331242964" lon="11.108802860356285"><ele>501.5</ele><time>2026-04-08T08:08:13Z</time></trkpt><trkpt lat="45.542017982684875" lon="11.108662413659209"><ele>502.0</ele><time>2026-04-08T08:08:14Z</time></trkpt><trkpt lat="45.54204039396343" lon="11.108570513560972"><ele>502.5</ele><time>2026-04-08T08:08:15Z</time></trkpt><trkpt lat="45.54207175471269" lon="11.10843536085066"><ele>503.0</ele><time>2026-04-08T08:08:16Z</time></trkpt><trkpt lat="45.54210336120543" lon="11.108314654614999"><ele>503.5</ele><time>2026-04-08T08:08:17Z</time></trkpt><trkpt lat="45.54214951142922" lon="11.108216525978746"><ele>504.0</ele><time>2026-04-08T08:08:18Z</time></trkpt><trkpt lat="45.54222162403284" lon="11.108103216359975"><ele>508.6</ele><time>2026-04-08T08:08:19Z</time></trkpt><trkpt lat="45.54229664125237" lon="11.10799222722238"><ele>513.2</ele><time>2026-04-08T08:08:20Z</time></trkpt><trkpt lat="45.54234989925087" lon="11.107867943094673"><ele>517.8000000000001</ele><time>2026-04-08T08:08:21Z</time></trkpt><trkpt lat="45.54241603717509" lon="11.107720137056724"><ele>522.4</ele><time>2026-04-08T08:08:23Z</time></trkpt><trkpt lat="45.54247165068087" lon="11.107641875456608"><ele>527.0</ele><time>2026-04-08T08:08:24Z</time></trkpt><trkpt lat="45.54254761748973" lon="11.107559631113212"><ele>527.0</ele><time>2026-04-08T08:08:25Z</time></trkpt><trkpt lat="45.542622275717655" lon="11.107492521334592"><ele>527.0</ele><time>2026-04-08T08:08:26Z</time></trkpt><trkpt lat="45.54269794829885" lon="11.107403688564819"><ele>527.0</ele><time>2026-04-08T08:08:28Z</time></trkpt><trkpt lat="45.542723848342945" lon="11.107264465182864"><ele>527.0</ele><time>2026-04-08T08:09:01Z</time></trkpt><trkpt lat="45.542817991861284" lon="11.10713105590181"><ele>527.0</ele><time>2026-04-08T08:09:03Z</time></trkpt><trkpt lat="45.54290068469008" lon="11.107080779537634"><ele>528.5</ele><time>2026-04-08T08:09:04Z</time></trkpt><trkpt lat="45.54300431449349" lon="11.107026151482554"><ele>530.0</ele><time>2026-04-08T08:09:05Z</time></trkpt><trkpt lat="45.54311189652603" lon="11.10697987658256"><ele>531.5</ele><time>2026-04-08T08:09:06Z</time></trkpt><trkpt lat="45.54323338234904" lon="11.106951178718255"><ele>533.0</ele><time>2026-04-08T08:09:07Z</time></trkpt><trkpt lat="45.54335915451618" lon="11.10693819148762"><ele>533.0</ele><time>2026-04-08T08:09:08Z</time></trkpt><trkpt lat="45.54349052207001" lon="11.106936923978358"><ele>533.0</ele><time>2026-04-08T08:09:09Z</time></trkpt><trkpt lat="45.543629843925984" lon="11.106938737751342"><ele>533.0</ele><time>2026-04-08T08:09:10Z</time></trkpt><trkpt lat="45.54377926325503" lon="11.106936329136786"><ele>533.0</ele><time>2026-04-08T08:09:11Z</time></trkpt><trkpt lat="45.54389962079011" lon="11.106973072318588"><ele>532.5</ele><time>2026-04-08T08:09:12.001Z</time></trkpt><trkpt lat="45.54399135095803" lon="11.107005869817781"><ele>532.0</ele><time>2026-04-08T08:09:13.001Z</time></trkpt><trkpt lat="45.54405627327656" lon="11.107063841038386"><ele>531.5</ele><time>2026-04-08T08:09:14.001Z</time></trkpt><trkpt lat="45.544112531088096" lon="11.107133354553028"><ele>531.0</ele><time>2026-04-08T08:09:15.001Z</time></trkpt><trkpt lat="45.544162189929466" lon="11.107228124954148"><ele>530.5</ele><time>2026-04-08T08:09:16.001Z</time></trkpt><trkpt lat="45.54417838800687" lon="11.107329482353524"><ele>530.0</ele><time>2026-04-08T08:09:17.001Z</time></trkpt><trkpt lat="45.544118837578935" lon="11.10747168020017"><ele>532.4</ele><time>2026-04-08T08:09:19.001Z</time></trkpt><trkpt lat="45.54404611734409" lon="11.107474174157817"><ele>534.8</ele><time>2026-04-08T08:09:20.001Z</time></trkpt><trkpt lat="45.54395993135061" lon="11.107433599445846"><ele>537.2</ele><time>2026-04-08T08:09:21.001Z</time></trkpt><trkpt lat="45.54386066208059" lon="11.107411014893142"><ele>539.6</ele><time>2026-04-08T08:09:22.001Z</time></trkpt><trkpt lat="45.54376657929046" lon="11.107434543840515"><ele>542.0</ele><time>2026-04-08T08:09:23.001Z</time></trkpt><trkpt lat="45.543660487389545" lon="11.107490463176562"><ele>542.0</ele><time>2026-04-08T08:09:24.001Z</time></trkpt><trkpt lat="45.54356682474594" lon="11.107597294241975"><ele>542.0</ele><time>2026-04-08T08:09:25.001Z</time></trkpt><trkpt lat="45.54349148511638" lon="11.10774232329538"><ele>542.0</ele><time>2026-04-08T08:09:26.001Z</time></trkpt><trkpt lat="45.54343530281286" lon="11.10789686715987"><ele>542.0</ele><time>2026-04-08T08:09:27.001Z</time></trkpt><trkpt lat="45.54339532742086" lon="11.108041127145965"><ele>542.0</ele><time>2026-04-08T08:09:28.001Z</time></trkpt><trkpt lat="45.543402496164255" lon="11.108178704268513"><ele>542.0</ele><time>2026-04-08T08:09:29.001Z</time></trkpt><trkpt lat="45.54344207690306" lon="11.10827718842626"><ele>542.0</ele><time>2026-04-08T08:09:30.001Z</time></trkpt><trkpt lat="45.543549949267664" lon="11.10830124220887"><ele>542.0</ele><time>2026-04-08T08:09:31.001Z</time></trkpt><trkpt lat="45.54364575981136" lon="11.108342297317948"><ele>542.0</ele><time>2026-04-08T08:09:32.001Z</time></trkpt><trkpt lat="45.54373563116135" lon="11.108418226515164"><ele>546.5</ele><time>2026-04-08T08:09:33.001Z</time></trkpt><trkpt lat="45.543791418239685" lon="11.108547457811328"><ele>551.0</ele><time>2026-04-08T08:09:34.001Z</time></trkpt><trkpt lat="45.54383314346312" lon="11.10869239602536"><ele>555.5</ele><time>2026-04-08T08:09:35.001Z</time></trkpt><trkpt lat="45.543890373676206" lon="11.10886741162637"><ele>560.0</ele><time>2026-04-08T08:09:36.001Z</time></trkpt><trkpt lat="45.54395503525999" lon="11.109059108744876"><ele>562.5</ele><time>2026-04-08T08:09:37.001Z</time></trkpt><trkpt lat="45.54402393225451" lon="11.109257200225349"><ele>565.0</ele><time>2026-04-08T08:09:38.001Z</time></trkpt><trkpt lat="45.54408313628881" lon="11.10942558566939"><ele>567.5</ele><time>2026-04-08T08:09:39.001Z</time></trkpt><trkpt lat="45.54413565982282" lon="11.109562586548346"><ele>570.0</ele><time>2026-04-08T08:09:40.001Z</time></trkpt><trkpt lat="45.544177309922866" lon="11.109682963798623"><ele>570.0</ele><time>2026-04-08T08:09:41.001Z</time></trkpt><trkpt lat="45.54421338403437" lon="11.109799815902786"><ele>570.0</ele><time>2026-04-08T08:09:42.001Z</time></trkpt><trkpt lat="45.544243230987774" lon="11.109901719406015"><ele>570.0</ele><time>2026-04-08T08:09:43.001Z</time></trkpt><trkpt lat="45.544277444223724" lon="11.109999974096166"><ele>570.0</ele><time>2026-04-08T08:09:45.001Z</time></trkpt><trkpt lat="45.544332821581385" lon="11.110136078314104"><ele>570.0</ele><time>2026-04-08T08:09:48.001Z</time></trkpt><trkpt lat="45.544438645744236" lon="11.110285641100335"><ele>571.25</ele><time>2026-04-08T08:09:50Z</time></trkpt><trkpt lat="45.544519945559294" lon="11.110386116860932"><ele>572.5</ele><time>2026-04-08T08:09:51Z</time></trkpt><trkpt lat="45.544613155943075" lon="11.110489139131884"><ele>573.75</ele><time>2026-04-08T08:09:52Z</time></trkpt><trkpt lat="45.544722898312415" lon="11.110584834364326"><ele>575.0</ele><time>2026-04-08T08:09:53Z</time></trkpt><trkpt lat="45.544826590959616" lon="11.110656848335655"><ele>578.0</ele><time>2026-04-08T08:09:54Z</time></trkpt><trkpt lat="45.54493991260625" lon="11.110729655711175"><ele>581.0</ele><time>2026-04-08T08:09:55Z</time></trkpt><trkpt lat="45.545060004348336" lon="11.110808413396681"><ele>584.0</ele><time>2026-04-08T08:09:56Z</time></trkpt><trkpt lat="45.54515495765675" lon="11.110867318079768"><ele>587.0</ele><time>2026-04-08T08:09:57Z</time></trkpt><trkpt lat="45.54522361397295" lon="11.110902906253381"><ele>590.0</ele><time>2026-04-08T08:09:58Z</time></trkpt><trkpt lat="45.54528901466782" lon="11.110922560282127"><ele>590.0</ele><time>2026-04-08T08:10:01Z</time></trkpt><trkpt lat="45.545223194061705" lon="11.110876072791847"><ele>590.0</ele><time>2026-04-08T08:10:04Z</time></trkpt><trkpt lat="45.545216249168796" lon="11.110674547830392"><ele>590.0</ele><time>2026-04-08T08:10:05Z</time></trkpt><trkpt lat="45.54514372106065" lon="11.110583122153747"><ele>590.0</ele><time>2026-04-08T08:10:07Z</time></trkpt><trkpt lat="45.54502202536801" lon="11.110473887693633"><ele>590.0</ele><time>2026-04-08T08:10:09Z</time></trkpt><trkpt lat="45.54492521931213" lon="11.110416825085403"><ele>590.0</ele><time>2026-04-08T08:10:10Z</time></trkpt><trkpt lat="45.54483327659006" lon="11.11034067702304"><ele>590.0</ele><time>2026-04-08T08:10:12Z</time></trkpt><trkpt lat="45.544791116605026" lon="11.110227087245205"><ele>590.0</ele><time>2026-04-08T08:10:15Z</time></trkpt><trkpt lat="45.544854943441955" lon="11.11013677203129"><ele>590.0</ele><time>2026-04-08T08:11:36.001Z</time></trkpt><trkpt lat="45.54482296451052" lon="11.110041572008978"><ele>590.0</ele><time>2026-04-08T08:11:39Z</time></trkpt><trkpt lat="45.5447533082155" lon="11.11000331079891"><ele>590.0</ele><time>2026-04-08T08:11:41Z</time></trkpt><trkpt lat="45.54467326414662" lon="11.109976953666825"><ele>590.0</ele><time>2026-04-08T08:11:43Z</time></trkpt><trkpt lat="45.5446039403179" lon="11.109953917374039"><ele>590.0</ele><time>2026-04-08T08:11:45Z</time></trkpt><trkpt lat="45.544518546242124" lon="11.109932909298125"><ele>590.0</ele><time>2026-04-08T08:11:47Z</time></trkpt><trkpt lat="45.54445568019671" lon="11.109863310559257"><ele>590.0</ele><time>2026-04-08T08:11:51Z</time></trkpt><trkpt lat="45.54447239938698" lon="11.109743920984021"><ele>584.75</ele><time>2026-04-08T08:11:56Z</time></trkpt><trkpt lat="45.544604846605104" lon="11.109681386475083"><ele>579.5</ele><time>2026-04-08T08:11:58Z</time></trkpt><trkpt lat="45.544691430250744" lon="11.109662706011163"><ele>574.25</ele><time>2026-04-08T08:11:59Z</time></trkpt><trkpt lat="45.5448003538131" lon="11.109658942326131"><ele>569.0</ele><time>2026-04-08T08:12:00Z</time></trkpt><trkpt lat="45.5449160917955" lon="11.109648184402694"><ele>569.0</ele><time>2026-04-08T08:12:01Z</time></trkpt><trkpt lat="45.545003194488956" lon="11.109622232426524"><ele>569.0</ele><time>2026-04-08T08:12:02Z</time></trkpt><trkpt lat="45.54509061329558" lon="11.109578996359698"><ele>569.0</ele><time>2026-04-08T08:12:03Z</time></trkpt><trkpt lat="45.54518188159328" lon="11.109535060329625"><ele>569.0</ele><time>2026-04-08T08:12:04Z</time></trkpt><trkpt lat="45.5452611907446" lon="11.109494313263014"><ele>569.0</ele><time>2026-04-08T08:12:05Z</time></trkpt><trkpt lat="45.54533507366605" lon="11.109466105760697"><ele>569.0</ele><time>2026-04-08T08:12:06Z</time></trkpt><trkpt lat="45.54541476074141" lon="11.10945650022514"><ele>571.1666666666666</ele><time>2026-04-08T08:12:07Z</time></trkpt><trkpt lat="45.54550956004339" lon="11.10947259938581"><ele>573.3333333333333</ele><time>2026-04-08T08:12:08Z</time></trkpt><trkpt lat="45.54559814528593" lon="11.10948097907739"><ele>575.5</ele><time>2026-04-08T08:12:09Z</time></trkpt><trkpt lat="45.54566855927754" lon="11.109477499436101"><ele>577.6666666666666</ele><time>2026-04-08T08:12:10Z</time></trkpt><trkpt lat="45.545722283054666" lon="11.10941068161727"><ele>579.8333333333334</ele><time>2026-04-08T08:12:12Z</time></trkpt><trkpt lat="45.545710804634105" lon="11.109299688694449"><ele>582.0</ele><time>2026-04-08T08:12:15Z</time></trkpt><trkpt lat="45.54572723809977" lon="11.10921282086974"><ele>582.0</ele><time>2026-04-08T08:12:17Z</time></trkpt><trkpt lat="45.5457809940266" lon="11.109152702624252"><ele>582.0</ele><time>2026-04-08T08:12:19Z</time></trkpt><trkpt lat="45.54583268601317" lon="11.109090652538033"><ele>582.0</ele><time>2026-04-08T08:12:21Z</time></trkpt><trkpt lat="45.545822569710694" lon="11.108988239560619"><ele>582.0</ele><time>2026-04-08T08:12:23Z</time></trkpt><trkpt lat="45.54583053342485" lon="11.108887512751595"><ele>582.0</ele><time>2026-04-08T08:12:25Z</time></trkpt><trkpt lat="45.54584179923754" lon="11.10879463910021"><ele>582.0</ele><time>2026-04-08T08:12:27Z</time></trkpt><trkpt lat="45.54584692801006" lon="11.108694581795511"><ele>582.0</ele><time>2026-04-08T08:12:29Z</time></trkpt><trkpt lat="45.5458305317244" lon="11.108600883411887"><ele>577.6666666666666</ele><time>2026-04-08T08:12:31Z</time></trkpt><trkpt lat="45.545816973802665" lon="11.108499932939484"><ele>573.3333333333334</ele><time>2026-04-08T08:12:33Z</time></trkpt><trkpt lat="45.5458766033224" lon="11.108467462097993"><ele>569.0</ele><time>2026-04-08T08:12:35Z</time></trkpt><trkpt lat="45.54599286835071" lon="11.108508431993588"><ele>564.6666666666667</ele><time>2026-04-08T08:12:37Z</time></trkpt><trkpt lat="45.54605924731376" lon="11.10853724173421"><ele>560.3333333333334</ele><time>2026-04-08T08:12:38Z</time></trkpt><trkpt lat="45.546148952827224" lon="11.108507481139963"><ele>556.0</ele><time>2026-04-08T08:12:41Z</time></trkpt><trkpt lat="45.54620443622593" lon="11.108453794408739"><ele>556.25</ele><time>2026-04-08T08:12:42Z</time></trkpt><trkpt lat="45.54628116619562" lon="11.108334504955243"><ele>556.5</ele><time>2026-04-08T08:12:44Z</time></trkpt><trkpt lat="45.546369344430204" lon="11.10821929491255"><ele>556.75</ele><time>2026-04-08T08:12:46Z</time></trkpt><trkpt lat="45.54649702000076" lon="11.108219399107787"><ele>557.0</ele><time>2026-04-08T08:12:48Z</time></trkpt><trkpt lat="45.54659356747351" lon="11.108199872216815"><ele>557.0</ele><time>2026-04-08T08:12:49Z</time></trkpt><trkpt lat="45.54668621707679" lon="11.108195785029443"><ele>557.0</ele><time>2026-04-08T08:12:50Z</time></trkpt><trkpt lat="45.54675341408915" lon="11.10820351360559"><ele>557.0</ele><time>2026-04-08T08:12:51Z</time></trkpt><trkpt lat="45.54682363569131" lon="11.108216391236244"><ele>557.0</ele><time>2026-04-08T08:12:52Z</time></trkpt><trkpt lat="45.546949240180844" lon="11.108265859603932"><ele>557.0</ele><time>2026-04-08T08:12:54Z</time></trkpt><trkpt lat="45.547012936237586" lon="11.108283179375103"><ele>557.0</ele><time>2026-04-08T08:12:55Z</time></trkpt><trkpt lat="45.54709420993833" lon="11.108331619596136"><ele>557.0</ele><time>2026-04-08T08:12:57Z</time></trkpt><trkpt lat="45.547032508444936" lon="11.108260403913912"><ele>557.0</ele><time>2026-04-08T08:13:06.999Z</time></trkpt><trkpt lat="45.546927944563784" lon="11.10821990811837"><ele>557.0</ele><time>2026-04-08T08:13:08.999Z</time></trkpt><trkpt lat="45.54683753389258" lon="11.108208847023187"><ele>557.0</ele><time>2026-04-08T08:13:09.999Z</time></trkpt><trkpt lat="45.546762511732" lon="11.10819129272142"><ele>557.0</ele><time>2026-04-08T08:13:10.999Z</time></trkpt><trkpt lat="45.546663041369804" lon="11.108160277485739"><ele>554.0</ele><time>2026-04-08T08:13:12.999Z</time></trkpt><trkpt lat="45.546610938792476" lon="11.10805226283217"><ele>551.0</ele><time>2026-04-08T08:13:15.999Z</time></trkpt><trkpt lat="45.546520920794585" lon="11.107996321904535"><ele>548.0</ele><time>2026-04-08T08:13:18.999Z</time></trkpt><trkpt lat="45.54645332214667" lon="11.107998881204825"><ele>545.0</ele><time>2026-04-08T08:13:20.999Z</time></trkpt><trkpt lat="45.54637221298524" lon="11.108006052285823"><ele>542.0</ele><time>2026-04-08T08:13:22.999Z</time></trkpt><trkpt lat="45.54631534822248" lon="11.107954590589543"><ele>539.0</ele><time>2026-04-08T08:13:27Z</time></trkpt><trkpt lat="45.54633850572794" lon="11.107857131654626"><ele>539.0</ele><time>2026-04-08T08:13:44Z</time></trkpt><trkpt lat="45.546454906630814" lon="11.1078397478511"><ele>539.0</ele><time>2026-04-08T08:13:47Z</time></trkpt><trkpt lat="45.546536255923385" lon="11.107829667030215"><ele>539.0</ele><time>2026-04-08T08:13:48Z</time></trkpt><trkpt lat="45.546635153143995" lon="11.107825968936885"><ele>539.0</ele><time>2026-04-08T08:13:49Z</time></trkpt><trkpt lat="45.54671794043844" lon="11.107812528863667"><ele>539.0</ele><time>2026-04-08T08:13:50Z</time></trkpt><trkpt lat="45.54678620244589" lon="11.107819225170328"><ele>539.0</ele><time>2026-04-08T08:13:51Z</time></trkpt><trkpt lat="45.546915037166514" lon="11.107812658279274"><ele>539.0</ele><time>2026-04-08T08:13:53Z</time></trkpt><trkpt lat="45.54698042706018" lon="11.107825961263485"><ele>539.0</ele><time>2026-04-08T08:13:54Z</time></trkpt><trkpt lat="45.547043769204826" lon="11.107843896094879"><ele>539.0</ele><time>2026-04-08T08:13:55Z</time></trkpt><trkpt lat="45.5471108489561" lon="11.107865826091386"><ele>539.0</ele><time>2026-04-08T08:13:56Z</time></trkpt><trkpt lat="45.54718720187113" lon="11.10790132963809"><ele>539.0</ele><time>2026-04-08T08:14:00Z</time></trkpt><trkpt lat="45.54717610877383" lon="11.107782503956194"><ele>539.0</ele><time>2026-04-08T08:14:05Z</time></trkpt><trkpt lat="45.54708525531304" lon="11.107717500527912"><ele>539.0</ele><time>2026-04-08T08:14:07Z</time></trkpt><trkpt lat="45.547047600686824" lon="11.107610104023031"><ele>539.0</ele><time>2026-04-08T08:14:10Z</time></trkpt><trkpt lat="45.547013112383915" lon="11.107515231774917"><ele>539.0</ele><time>2026-04-08T08:14:12Z</time></trkpt><trkpt lat="45.54696038060338" lon="11.10744650124327"><ele>539.0</ele><time>2026-04-08T08:14:14Z</time></trkpt><trkpt lat="45.54693350885531" lon="11.107351219148429"><ele>539.0</ele><time>2026-04-08T08:14:18Z</time></trkpt><trkpt lat="45.54687458053791" lon="11.107205553736415"><ele>539.0</ele><time>2026-04-08T08:14:20Z</time></trkpt><trkpt lat="45.54683968564696" lon="11.10709249530547"><ele>539.8</ele><time>2026-04-08T08:14:22Z</time></trkpt><trkpt lat="45.54677206026346" lon="11.107077705711818"><ele>540.5999999999999</ele><time>2026-04-08T08:14:24Z</time></trkpt><trkpt lat="45.546698894455055" lon="11.106935271565357"><ele>541.4</ele><time>2026-04-08T08:14:26Z</time></trkpt><trkpt lat="45.54660052616578" lon="11.106906857517101"><ele>542.1999999999999</ele><time>2026-04-08T08:14:28Z</time></trkpt><trkpt lat="45.546505526105584" lon="11.106896628881666"><ele>543.0</ele><time>2026-04-08T08:14:30Z</time></trkpt><trkpt lat="45.54643447629149" lon="11.10681162821113"><ele>543.0</ele><time>2026-04-08T08:14:32Z</time></trkpt><trkpt lat="45.54640122700865" lon="11.106723998637726"><ele>543.0</ele><time>2026-04-08T08:14:34Z</time></trkpt><trkpt lat="45.546318958535494" lon="11.106716505640572"><ele>543.0</ele><time>2026-04-08T08:14:36Z</time></trkpt><trkpt lat="45.54623835812405" lon="11.106658365850654"><ele>543.0</ele><time>2026-04-08T08:14:38Z</time></trkpt><trkpt lat="45.546169775325026" lon="11.106572829386728"><ele>543.0</ele><time>2026-04-08T08:14:40Z</time></trkpt><trkpt lat="45.546084264213384" lon="11.106480311233854"><ele>543.0</ele><time>2026-04-08T08:14:42Z</time></trkpt><trkpt lat="45.54602838292578" lon="11.106377304074877"><ele>540.0</ele><time>2026-04-08T08:14:43.999Z</time></trkpt><trkpt lat="45.54596050596456" lon="11.10630979826265"><ele>537.0</ele><time>2026-04-08T08:14:45.999Z</time></trkpt><trkpt lat="45.54589966971915" lon="11.106224009315282"><ele>534.0</ele><time>2026-04-08T08:14:47.999Z</time></trkpt><trkpt lat="45.5458225475284" lon="11.106138639492386"><ele>531.0</ele><time>2026-04-08T08:14:49.999Z</time></trkpt><trkpt lat="45.545762250173425" lon="11.106047257914657"><ele>528.0</ele><time>2026-04-08T08:14:51.999Z</time></trkpt><trkpt lat="45.54573281293982" lon="11.1059099220481"><ele>528.0</ele><time>2026-04-08T08:14:53.999Z</time></trkpt><trkpt lat="45.54567442934864" lon="11.105804572760093"><ele>528.0</ele><time>2026-04-08T08:14:55.999Z</time></trkpt><trkpt lat="45.54563123246786" lon="11.105709161149985"><ele>528.0</ele><time>2026-04-08T08:14:56.999Z</time></trkpt><trkpt lat="45.54560657845306" lon="11.105622381482188"><ele>528.0</ele><time>2026-04-08T08:14:57.999Z</time></trkpt><trkpt lat="45.5455818994003" lon="11.10552367174007"><ele>528.0</ele><time>2026-04-08T08:14:58.999Z</time></trkpt><trkpt lat="45.545554530365074" lon="11.105396267588501"><ele>528.0</ele><time>2026-04-08T08:15:00.999Z</time></trkpt><trkpt lat="45.54551260247764" lon="11.105248493185279"><ele>529.1666666666666</ele><time>2026-04-08T08:15:02.999Z</time></trkpt><trkpt lat="45.54544907662429" lon="11.105140040605887"><ele>530.3333333333334</ele><time>2026-04-08T08:15:04.999Z</time></trkpt><trkpt lat="45.54538954368426" lon="11.105032178693033"><ele>531.5</ele><time>2026-04-08T08:15:06.999Z</time></trkpt><trkpt lat="45.54538972465833" lon="11.10490177241307"><ele>532.6666666666667</ele><time>2026-04-08T08:15:08.999Z</time></trkpt><trkpt lat="45.54535693915656" lon="11.10480821231553"><ele>533.8333333333334</ele><time>2026-04-08T08:15:10.999Z</time></trkpt><trkpt lat="45.54532902077952" lon="11.1047258876132"><ele>535.0</ele><time>2026-04-08T08:15:11.999Z</time></trkpt><trkpt lat="45.54533135135327" lon="11.104628375910773"><ele>528.5</ele><time>2026-04-08T08:15:12.999Z</time></trkpt><trkpt lat="45.54529315465918" lon="11.104492007210776"><ele>522.0</ele><time>2026-04-08T08:15:14.999Z</time></trkpt><trkpt lat="45.54517106548523" lon="11.104314881107568"><ele>515.5</ele><time>2026-04-08T08:15:16.999Z</time></trkpt><trkpt lat="45.54512096229927" lon="11.104203204639743"><ele>509.0</ele><time>2026-04-08T08:15:17.999Z</time></trkpt><trkpt lat="45.5450834448483" lon="11.104089743093636"><ele>509.2</ele><time>2026-04-08T08:15:18.999Z</time></trkpt><trkpt lat="45.54502809655147" lon="11.10398631812828"><ele>509.4</ele><time>2026-04-08T08:15:20.999Z</time></trkpt><trkpt lat="45.54496341029439" lon="11.103835263906474"><ele>509.6</ele><time>2026-04-08T08:15:22.999Z</time></trkpt><trkpt lat="45.544951919408525" lon="11.103666510624969"><ele>509.8</ele><time>2026-04-08T08:15:24.999Z</time></trkpt><trkpt lat="45.54498050835573" lon="11.103548933724145"><ele>510.0</ele><time>2026-04-08T08:15:25.999Z</time></trkpt><trkpt lat="45.544991235700806" lon="11.103448794319155"><ele>510.0</ele><time>2026-04-08T08:15:26.999Z</time></trkpt><trkpt lat="45.545009363603555" lon="11.103352880347433"><ele>510.0</ele><time>2026-04-08T08:15:27.999Z</time></trkpt><trkpt lat="45.54502098165742" lon="11.10326042758629"><ele>510.0</ele><time>2026-04-08T08:15:28.999Z</time></trkpt><trkpt lat="45.545077118681135" lon="11.103136326018713"><ele>510.0</ele><time>2026-04-08T08:15:31Z</time></trkpt><trkpt lat="45.545100712892236" lon="11.103025674741819"><ele>510.0</ele><time>2026-04-08T08:15:33Z</time></trkpt><trkpt lat="45.54506182973518" lon="11.102948427339596"><ele>510.0</ele><time>2026-04-08T08:15:42Z</time></trkpt><trkpt lat="45.54510487572295" lon="11.102854991354551"><ele>509.8</ele><time>2026-04-08T08:15:45Z</time></trkpt><trkpt lat="45.54516828210342" lon="11.102782495671866"><ele>509.6</ele><time>2026-04-08T08:15:47Z</time></trkpt><trkpt lat="45.54524349405775" lon="11.102662032146467"><ele>509.4</ele><time>2026-04-08T08:15:49Z</time></trkpt><trkpt lat="45.5452962619937" lon="11.10258476005916"><ele>509.2</ele><time>2026-04-08T08:15:50Z</time></trkpt><trkpt lat="45.54538790796873" lon="11.102447518394035"><ele>509.0</ele><time>2026-04-08T08:15:52Z</time></trkpt><trkpt lat="45.545431506129134" lon="11.102329774456784"><ele>508.99999999999994</ele><time>2026-04-08T08:15:53Z</time></trkpt><trkpt lat="45.54546771678956" lon="11.1022014163081"><ele>509.0</ele><time>2026-04-08T08:15:54Z</time></trkpt><trkpt lat="45.545508936153716" lon="11.102106890325468"><ele>509.0</ele><time>2026-04-08T08:15:55Z</time></trkpt><trkpt lat="45.54554978156471" lon="11.102030178780916"><ele>509.0</ele><time>2026-04-08T08:15:56Z</time></trkpt><trkpt lat="45.54559720069875" lon="11.101942878753542"><ele>508.99999999999994</ele><time>2026-04-08T08:15:57Z</time></trkpt><trkpt lat="45.5456397573482" lon="11.101853721135331"><ele>509.0</ele><time>2026-04-08T08:15:58Z</time></trkpt><trkpt lat="45.545670869793966" lon="11.101748593089345"><ele>508.99999999999994</ele><time>2026-04-08T08:15:59Z</time></trkpt><trkpt lat="45.545712306321875" lon="11.101675962722068"><ele>509.0</ele><time>2026-04-08T08:16:00Z</time></trkpt><trkpt lat="45.54578586347556" lon="11.101603503602751"><ele>509.0</ele><time>2026-04-08T08:16:01Z</time></trkpt><trkpt lat="45.54585922428255" lon="11.101535907064045"><ele>509.0</ele><time>2026-04-08T08:16:02Z</time></trkpt><trkpt lat="45.54592818556364" lon="11.101431644573742"><ele>508.99999999999994</ele><time>2026-04-08T08:16:03Z</time></trkpt><trkpt lat="45.545985749113186" lon="11.101333652683483"><ele>509.0</ele><time>2026-04-08T08:16:04Z</time></trkpt><trkpt lat="45.54605508769162" lon="11.101261817054649"><ele>505.4</ele><time>2026-04-08T08:16:05Z</time></trkpt><trkpt lat="45.54612829180967" lon="11.10117885323833"><ele>501.79999999999995</ele><time>2026-04-08T08:16:06Z</time></trkpt><trkpt lat="45.546180516333614" lon="11.101123676842805"><ele>498.20000000000005</ele><time>2026-04-08T08:16:07Z</time></trkpt><trkpt lat="45.54632729646192" lon="11.101105205121826"><ele>494.6</ele><time>2026-04-08T08:16:09Z</time></trkpt><trkpt lat="45.54640423415116" lon="11.101075072363129"><ele>491.0</ele><time>2026-04-08T08:16:10Z</time></trkpt><trkpt lat="45.546491757442894" lon="11.101056966119623"><ele>490.99999999999994</ele><time>2026-04-08T08:16:11Z</time></trkpt><trkpt lat="45.546556896641434" lon="11.101045251389065"><ele>491.0</ele><time>2026-04-08T08:16:12Z</time></trkpt><trkpt lat="45.5466497833237" lon="11.101064133830565"><ele>491.0</ele><time>2026-04-08T08:16:13Z</time></trkpt><trkpt lat="45.546713387775924" lon="11.101095410066613"><ele>491.0</ele><time>2026-04-08T08:16:14Z</time></trkpt><trkpt lat="45.54677084773413" lon="11.101136492057968"><ele>490.99999999999994</ele><time>2026-04-08T08:16:15Z</time></trkpt><trkpt lat="45.546848379620116" lon="11.101168035600049"><ele>491.0</ele><time>2026-04-08T08:16:17Z</time></trkpt><trkpt lat="45.54697553739075" lon="11.101205666252492"><ele>493.20000000000005</ele><time>2026-04-08T08:16:19Z</time></trkpt><trkpt lat="45.547051730800554" lon="11.101240006450517"><ele>495.40000000000003</ele><time>2026-04-08T08:16:20Z</time></trkpt><trkpt lat="45.54720538207294" lon="11.10131119382576"><ele>497.6</ele><time>2026-04-08T08:16:22Z</time></trkpt><trkpt lat="45.54727015139527" lon="11.101317238402778"><ele>499.8</ele><time>2026-04-08T08:16:24Z</time></trkpt><trkpt lat="45.5473324813488" lon="11.101358602522975"><ele>502.0</ele><time>2026-04-08T08:16:27Z</time></trkpt><trkpt lat="45.5474046366399" lon="11.101395743917063"><ele>502.00000000000006</ele><time>2026-04-08T08:16:30Z</time></trkpt><trkpt lat="45.54745071918936" lon="11.101275373355074"><ele>502.0</ele><time>2026-04-08T08:16:32.999Z</time></trkpt><trkpt lat="45.5474978716494" lon="11.101192992289596"><ele>502.0</ele><time>2026-04-08T08:16:34.999Z</time></trkpt><trkpt lat="45.54753966982013" lon="11.10111910203736"><ele>502.0</ele><time>2026-04-08T08:16:36.999Z</time></trkpt><trkpt lat="45.547586074112516" lon="11.101032794807319"><ele>502.00000000000006</ele><time>2026-04-08T08:16:38.999Z</time></trkpt><trkpt lat="45.54762458236065" lon="11.10092598186606"><ele>502.0</ele><time>2026-04-08T08:16:40.999Z</time></trkpt><trkpt lat="45.5476661541211" lon="11.100849595914841"><ele>502.00000000000006</ele><time>2026-04-08T08:16:41.999Z</time></trkpt><trkpt lat="45.54773068935" lon="11.100753338262644"><ele>502.0</ele><time>2026-04-08T08:16:43.999Z</time></trkpt><trkpt lat="45.54776872470385" lon="11.100637601413018"><ele>502.0</ele><time>2026-04-08T08:16:46.999Z</time></trkpt><trkpt lat="45.54780909605566" lon="11.100558537965874"><ele>502.0</ele><time>2026-04-08T08:16:48.999Z</time></trkpt><trkpt lat="45.54788387403901" lon="11.100523987144568"><ele>502.00000000000006</ele><time>2026-04-08T08:16:52.999Z</time></trkpt><trkpt lat="45.547941654991305" lon="11.100461433034699"><ele>502.0</ele><time>2026-04-08T08:16:56.999Z</time></trkpt><trkpt lat="45.54796718766436" lon="11.10032830915393"><ele>501.0</ele><time>2026-04-08T08:16:59.999Z</time></trkpt><trkpt lat="45.548028512528326" lon="11.100164884542014"><ele>500.00000000000006</ele><time>2026-04-08T08:17:01.999Z</time></trkpt><trkpt lat="45.54805079584376" lon="11.100073313556644"><ele>499.00000000000006</ele><time>2026-04-08T08:17:02.999Z</time></trkpt><trkpt lat="45.54808448894925" lon="11.099921483485364"><ele>498.0</ele><time>2026-04-08T08:17:04.999Z</time></trkpt><trkpt lat="45.54813862718612" lon="11.099825251479837"><ele>497.0</ele><time>2026-04-08T08:17:06.999Z</time></trkpt><trkpt lat="45.54820134655712" lon="11.09974566426292"><ele>497.0</ele><time>2026-04-08T08:17:08.999Z</time></trkpt><trkpt lat="45.54823437823883" lon="11.099573693279982"><ele>497.00000000000006</ele><time>2026-04-08T08:17:10.999Z</time></trkpt><trkpt lat="45.54836515207637" lon="11.099518857695145"><ele>497.00000000000006</ele><time>2026-04-08T08:17:12.999Z</time></trkpt><trkpt lat="45.548433611648555" lon="11.099470117808309"><ele>497.0</ele><time>2026-04-08T08:17:13.999Z</time></trkpt><trkpt lat="45.54850097904873" lon="11.099410983732671"><ele>497.0</ele><time>2026-04-08T08:17:14.999Z</time></trkpt><trkpt lat="45.548577846230394" lon="11.0993628931934"><ele>496.99999999999994</ele><time>2026-04-08T08:17:15.999Z</time></trkpt><trkpt lat="45.54863963249031" lon="11.099290893301804"><ele>497.0</ele><time>2026-04-08T08:17:16.999Z</time></trkpt><trkpt lat="45.548713163115536" lon="11.09925540975531"><ele>497.0</ele><time>2026-04-08T08:17:17.999Z</time></trkpt><trkpt lat="45.54877942050925" lon="11.099226353538114"><ele>497.0</ele><time>2026-04-08T08:17:18.999Z</time></trkpt><trkpt lat="45.54885557094104" lon="11.099190043709962"><ele>496.99999999999994</ele><time>2026-04-08T08:17:19.999Z</time></trkpt><trkpt lat="45.5489398511349" lon="11.099164882744923"><ele>497.0</ele><time>2026-04-08T08:17:20.999Z</time></trkpt><trkpt lat="45.54908375971428" lon="11.099141699286347"><ele>496.49999999999994</ele><time>2026-04-08T08:17:22.999Z</time></trkpt><trkpt lat="45.54915694359351" lon="11.099112067388734"><ele>496.0</ele><time>2026-04-08T08:17:23.999Z</time></trkpt><trkpt lat="45.54922208492981" lon="11.099060709139748"><ele>495.5</ele><time>2026-04-08T08:17:24.999Z</time></trkpt><trkpt lat="45.54929200000768" lon="11.099061511395156"><ele>495.0</ele><time>2026-04-08T08:17:25.999Z</time></trkpt><trkpt lat="45.54939423351472" lon="11.099092885799271"><ele>494.49999999999994</ele><time>2026-04-08T08:17:32.999Z</time></trkpt><trkpt lat="45.549469647783184" lon="11.09910962265122"><ele>494.0</ele><time>2026-04-08T08:17:34.999Z</time></trkpt><trkpt lat="45.54953976525299" lon="11.099119267513622"><ele>500.3333333333333</ele><time>2026-04-08T08:17:39Z</time></trkpt><trkpt lat="45.549601237183246" lon="11.09914080116934"><ele>506.66666666666663</ele><time>2026-04-08T08:17:43Z</time></trkpt><trkpt lat="45.54966170902248" lon="11.099176451215955"><ele>513.0</ele><time>2026-04-08T08:17:49Z</time></trkpt><trkpt lat="45.54974137224945" lon="11.099166333587599"><ele>519.3333333333334</ele><time>2026-04-08T08:17:53Z</time></trkpt><trkpt lat="45.549813288736864" lon="11.099150212705679"><ele>525.6666666666667</ele><time>2026-04-08T08:17:55Z</time></trkpt><trkpt lat="45.54991035881759" lon="11.099153230526685"><ele>532.0</ele><time>2026-04-08T08:17:59Z</time></trkpt><trkpt lat="45.549998982078584" lon="11.099191833778823"><ele>532.0</ele><time>2026-04-08T08:18:01Z</time></trkpt><trkpt lat="45.55002411752534" lon="11.099314949476472"><ele>532.0</ele><time>2026-04-08T08:18:03Z</time></trkpt><trkpt lat="45.550072111055535" lon="11.099381638982535"><ele>532.0</ele><time>2026-04-08T08:18:06Z</time></trkpt><trkpt lat="45.55013559015724" lon="11.099399805657475"><ele>532.0</ele><time>2026-04-08T08:18:11Z</time></trkpt><trkpt lat="45.55019759335312" lon="11.099458692860782"><ele>532.0</ele><time>2026-04-08T08:18:14Z</time></trkpt><trkpt lat="45.55021853236815" lon="11.099545250020556"><ele>532.0</ele><time>2026-04-08T08:18:15Z</time></trkpt><trkpt lat="45.5502502893329" lon="11.099664069200147"><ele>532.0</ele><time>2026-04-08T08:18:17Z</time></trkpt><trkpt lat="45.55029776136582" lon="11.099803788792093"><ele>535.1666666666667</ele><time>2026-04-08T08:18:19Z</time></trkpt><trkpt lat="45.55033280319733" lon="11.09992161380544"><ele>538.3333333333334</ele><time>2026-04-08T08:18:21Z</time></trkpt><trkpt lat="45.55039985039235" lon="11.10002207143139"><ele>541.5</ele><time>2026-04-08T08:18:26Z</time></trkpt><trkpt lat="45.550433474357455" lon="11.100103019645903"><ele>544.6666666666666</ele><time>2026-04-08T08:18:30Z</time></trkpt><trkpt lat="45.550487418137486" lon="11.10015173836601"><ele>547.8333333333333</ele><time>2026-04-08T08:18:34.999Z</time></trkpt><trkpt lat="45.550529697943226" lon="11.100048442269912"><ele>551.0</ele><time>2026-04-08T08:19:04.999Z</time></trkpt><trkpt lat="45.5505447108556" lon="11.09994537246636"><ele>551.3333333333333</ele><time>2026-04-08T08:19:06.999Z</time></trkpt><trkpt lat="45.55053209129466" lon="11.099848531121"><ele>551.6666666666666</ele><time>2026-04-08T08:24:49.999Z</time></trkpt><trkpt lat="45.55057620827466" lon="11.099730087442317"><ele>552.0</ele><time>2026-04-08T08:24:51.999Z</time></trkpt><trkpt lat="45.55057559782319" lon="11.099629689612492"><ele>552.3333333333334</ele><time>2026-04-08T08:24:53.999Z</time></trkpt><trkpt lat="45.550616955939624" lon="11.0995417834247"><ele>552.6666666666667</ele><time>2026-04-08T08:24:55.999Z</time></trkpt><trkpt lat="45.55067964824697" lon="11.099466430383247"><ele>553.0</ele><time>2026-04-08T08:24:57.999Z</time></trkpt><trkpt lat="45.5507331762778" lon="11.099345442184772"><ele>553.0</ele><time>2026-04-08T08:24:59.999Z</time></trkpt><trkpt lat="45.55080905752101" lon="11.09930880562562"><ele>553.0</ele><time>2026-04-08T08:25:01.999Z</time></trkpt><trkpt lat="45.55087753188851" lon="11.099246371340017"><ele>553.0</ele><time>2026-04-08T08:25:03.999Z</time></trkpt><trkpt lat="45.55088753061359" lon="11.09915675939227"><ele>553.0</ele><time>2026-04-08T08:25:05.999Z</time></trkpt><trkpt lat="45.550948240968964" lon="11.099098200812733"><ele>553.0</ele><time>2026-04-08T08:25:07.999Z</time></trkpt><trkpt lat="45.55105965610763" lon="11.098748765465803"><ele>551.8333333333334</ele><time>2026-04-08T08:25:08.999Z</time></trkpt><trkpt lat="45.55115016552182" lon="11.098654885498629"><ele>550.6666666666667</ele><time>2026-04-08T08:25:10.999Z</time></trkpt><trkpt lat="45.55120039323991" lon="11.098595626310587"><ele>549.5</ele><time>2026-04-08T08:25:12.999Z</time></trkpt><trkpt lat="45.551249795775554" lon="11.098531651752532"><ele>548.3333333333334</ele><time>2026-04-08T08:25:15.999Z</time></trkpt><trkpt lat="45.55130167890695" lon="11.098398664082564"><ele>547.1666666666666</ele><time>2026-04-08T08:25:21.999Z</time></trkpt><trkpt lat="45.551361996097235" lon="11.098312516128027"><ele>546.0</ele><time>2026-04-08T08:25:23.999Z</time></trkpt><trkpt lat="45.5514185752515" lon="11.098246223044125"><ele>546.0</ele><time>2026-04-08T08:25:24.999Z</time></trkpt><trkpt lat="45.55146662961761" lon="11.098168404260292"><ele>546.0</ele><time>2026-04-08T08:25:26.999Z</time></trkpt><trkpt lat="45.55155182048183" lon="11.098152707431248"><ele>546.0</ele><time>2026-04-08T08:25:29.999Z</time></trkpt><trkpt lat="45.551623974558076" lon="11.098121811439533"><ele>546.0</ele><time>2026-04-08T08:25:34.999Z</time></trkpt><trkpt lat="45.551622887049625" lon="11.098011301272619"><ele>546.0</ele><time>2026-04-08T08:25:37.999Z</time></trkpt><trkpt lat="45.55157297941025" lon="11.097933641403989"><ele>546.0</ele><time>2026-04-08T08:25:41.999Z</time></trkpt><trkpt lat="45.551628467830334" lon="11.097839833116875"><ele>546.0</ele><time>2026-04-08T08:25:43.999Z</time></trkpt><trkpt lat="45.55169497090814" lon="11.09782143068916"><ele>546.0</ele><time>2026-04-08T08:25:45.999Z</time></trkpt><trkpt lat="45.55177472767505" lon="11.097773490664167"><ele>546.0</ele><time>2026-04-08T08:25:47.999Z</time></trkpt><trkpt lat="45.5518825655629" lon="11.097758456618726"><ele>546.0</ele><time>2026-04-08T08:25:49.999Z</time></trkpt><trkpt lat="45.55195724004719" lon="11.097713861127358"><ele>546.0</ele><time>2026-04-08T08:25:51.999Z</time></trkpt><trkpt lat="45.55204119719361" lon="11.097602992931725"><ele>547.3333333333334</ele><time>2026-04-08T08:25:53.999Z</time></trkpt><trkpt lat="45.552133799383554" lon="11.09754183958272"><ele>548.6666666666666</ele><time>2026-04-08T08:25:55.999Z</time></trkpt><trkpt lat="45.55219267989868" lon="11.09745865046905"><ele>550.0</ele><time>2026-04-08T08:25:57.999Z</time></trkpt><trkpt lat="45.55224311938675" lon="11.097357421911603"><ele>551.3333333333333</ele><time>2026-04-08T08:26:02Z</time></trkpt><trkpt lat="45.55223021534339" lon="11.097235074266894"><ele>552.6666666666666</ele><time>2026-04-08T08:26:05Z</time></trkpt><trkpt lat="45.55223382034534" lon="11.09713696871653"><ele>554.0</ele><time>2026-04-08T08:26:07Z</time></trkpt><trkpt lat="45.55228706230582" lon="11.097066770085537"><ele>554.0</ele><time>2026-04-08T08:26:09Z</time></trkpt><trkpt lat="45.552336049343815" lon="11.097131319751263"><ele>554.0</ele><time>2026-04-08T08:26:12Z</time></trkpt><trkpt lat="45.55236342955103" lon="11.097245514760768"><ele>554.0</ele><time>2026-04-08T08:26:14Z</time></trkpt><trkpt lat="45.55242198629309" lon="11.097340866382897"><ele>554.0</ele><time>2026-04-08T08:26:16Z</time></trkpt><trkpt lat="45.552521915924174" lon="11.097354791323072"><ele>554.0</ele><time>2026-04-08T08:26:19Z</time></trkpt><trkpt lat="45.55260466510441" lon="11.097382128073297"><ele>554.0</ele><time>2026-04-08T08:26:21Z</time></trkpt><trkpt lat="45.55269349747943" lon="11.09742423510722"><ele>554.0</ele><time>2026-04-08T08:26:23Z</time></trkpt><trkpt lat="45.55279430861717" lon="11.09747789621788"><ele>554.0</ele><time>2026-04-08T08:26:25Z</time></trkpt><trkpt lat="45.55287233172963" lon="11.097561117370102"><ele>554.0</ele><time>2026-04-08T08:26:26Z</time></trkpt><trkpt lat="45.552946579024606" lon="11.09766044147051"><ele>554.0</ele><time>2026-04-08T08:26:27Z</time></trkpt><trkpt lat="45.55298726559938" lon="11.097753973924346"><ele>554.0</ele><time>2026-04-08T08:26:28Z</time></trkpt><trkpt lat="45.553054462172426" lon="11.097838942540658"><ele>553.2857142857142</ele><time>2026-04-08T08:26:29Z</time></trkpt><trkpt lat="45.553115207504376" lon="11.09789748251896"><ele>552.5714285714286</ele><time>2026-04-08T08:26:30Z</time></trkpt><trkpt lat="45.55319618602082" lon="11.097944394835595"><ele>551.8571428571429</ele><time>2026-04-08T08:26:31Z</time></trkpt><trkpt lat="45.55324693426949" lon="11.098001127109702"><ele>551.1428571428571</ele><time>2026-04-08T08:26:32Z</time></trkpt><trkpt lat="45.553292711389034" lon="11.098066680404855"><ele>550.4285714285714</ele><time>2026-04-08T08:26:33Z</time></trkpt><trkpt lat="45.55331123287307" lon="11.098169328998337"><ele>549.7142857142857</ele><time>2026-04-08T08:26:34Z</time></trkpt><trkpt lat="45.55332702194099" lon="11.098258571400068"><ele>549.0</ele><time>2026-04-08T08:26:35Z</time></trkpt><trkpt lat="45.55334714210453" lon="11.098399958527967"><ele>553.2</ele><time>2026-04-08T08:26:37Z</time></trkpt><trkpt lat="45.55338435206604" lon="11.098480559282699"><ele>557.4</ele><time>2026-04-08T08:26:38Z</time></trkpt><trkpt lat="45.553421116143284" lon="11.098582481276603"><ele>561.6</ele><time>2026-04-08T08:26:39Z</time></trkpt><trkpt lat="45.55344915514484" lon="11.098769008569016"><ele>565.8</ele><time>2026-04-08T08:26:41Z</time></trkpt><trkpt lat="45.5534433897296" lon="11.098914851586043"><ele>570.0</ele><time>2026-04-08T08:26:43Z</time></trkpt><trkpt lat="45.55349058646573" lon="11.09900137422027"><ele>570.0</ele><time>2026-04-08T08:26:45Z</time></trkpt><trkpt lat="45.553615065982356" lon="11.099082741214483"><ele>570.0</ele><time>2026-04-08T08:26:47Z</time></trkpt><trkpt lat="45.55369178874014" lon="11.099162192831152"><ele>570.0</ele><time>2026-04-08T08:26:48Z</time></trkpt><trkpt lat="45.55378413752407" lon="11.099187601591211"><ele>570.0</ele><time>2026-04-08T08:26:49Z</time></trkpt><trkpt lat="45.55387899990821" lon="11.099216029455505"><ele>570.0</ele><time>2026-04-08T08:26:50Z</time></trkpt><trkpt lat="45.55395017978912" lon="11.099217358250364"><ele>570.2</ele><time>2026-04-08T08:26:52Z</time></trkpt><trkpt lat="45.554104890700465" lon="11.099307959775253"><ele>570.4</ele><time>2026-04-08T08:26:54Z</time></trkpt><trkpt lat="45.5541743328612" lon="11.09937614107882"><ele>570.6</ele><time>2026-04-08T08:26:55Z</time></trkpt><trkpt lat="45.55423727777224" lon="11.099406961773964"><ele>570.8</ele><time>2026-04-08T08:26:56Z</time></trkpt><trkpt lat="45.55432543886764" lon="11.099435997272689"><ele>571.0</ele><time>2026-04-08T08:26:57Z</time></trkpt><trkpt lat="45.554395955201166" lon="11.099496069036585"><ele>571.0</ele><time>2026-04-08T08:26:58Z</time></trkpt><trkpt lat="45.55448741020838" lon="11.099520077171032"><ele>571.0</ele><time>2026-04-08T08:26:59Z</time></trkpt><trkpt lat="45.55458202845087" lon="11.099572784699172"><ele>571.0</ele><time>2026-04-08T08:27:00Z</time></trkpt><trkpt lat="45.55468421096618" lon="11.09962935173657"><ele>571.0</ele><time>2026-04-08T08:27:01Z</time></trkpt><trkpt lat="45.55476687839946" lon="11.099653329498302"><ele>571.0</ele><time>2026-04-08T08:27:02Z</time></trkpt><trkpt lat="45.5548324478475" lon="11.099683801419417"><ele>571.6</ele><time>2026-04-08T08:27:03Z</time></trkpt><trkpt lat="45.55492203354255" lon="11.099843747617916"><ele>572.2</ele><time>2026-04-08T08:27:05Z</time></trkpt><trkpt lat="45.55495983830563" lon="11.099959176959986"><ele>572.8</ele><time>2026-04-08T08:27:06Z</time></trkpt><trkpt lat="45.55497546173824" lon="11.100050779572971"><ele>573.4</ele><time>2026-04-08T08:27:07Z</time></trkpt><trkpt lat="45.55503087046993" lon="11.100150023920577"><ele>574.0</ele><time>2026-04-08T08:27:09Z</time></trkpt><trkpt lat="45.555097102101634" lon="11.10017853736159"><ele>574.0</ele><time>2026-04-08T08:27:10Z</time></trkpt><trkpt lat="45.55516142398566" lon="11.100218082617271"><ele>574.0</ele><time>2026-04-08T08:27:11Z</time></trkpt><trkpt lat="45.55523105548012" lon="11.1002896224932"><ele>574.0</ele><time>2026-04-08T08:27:12Z</time></trkpt><trkpt lat="45.55529201294469" lon="11.100333627619731"><ele>574.0</ele><time>2026-04-08T08:27:13Z</time></trkpt><trkpt lat="45.55538089440823" lon="11.100428061976558"><ele>574.0</ele><time>2026-04-08T08:27:15Z</time></trkpt><trkpt lat="45.55546813401579" lon="11.100504874397744"><ele>574.0</ele><time>2026-04-08T08:27:17Z</time></trkpt><trkpt lat="45.5555401131083" lon="11.100562940453315"><ele>573.3333333333334</ele><time>2026-04-08T08:27:19Z</time></trkpt><trkpt lat="45.55561498054832" lon="11.100582457963668"><ele>572.6666666666667</ele><time>2026-04-08T08:27:22Z</time></trkpt><trkpt lat="45.55560458992431" lon="11.100477053146749"><ele>572.0</ele><time>2026-04-08T08:27:24Z</time></trkpt><trkpt lat="45.555602079313395" lon="11.100353303446981"><ele>571.3333333333334</ele><time>2026-04-08T08:27:26Z</time></trkpt><trkpt lat="45.55559240147843" lon="11.100255499375933"><ele>570.6666666666666</ele><time>2026-04-08T08:27:28Z</time></trkpt><trkpt lat="45.55560219067612" lon="11.100159394810914"><ele>570.0</ele><time>2026-04-08T08:27:29Z</time></trkpt><trkpt lat="45.555568318984136" lon="11.100014230030467"><ele>569.2</ele><time>2026-04-08T08:40:02Z</time></trkpt><trkpt lat="45.55556915836529" lon="11.099894414075978"><ele>568.4</ele><time>2026-04-08T08:40:04Z</time></trkpt><trkpt lat="45.55554192579927" lon="11.099761692418243"><ele>567.6</ele><time>2026-04-08T08:40:06Z</time></trkpt><trkpt lat="45.5554871123181" lon="11.099629638557344"><ele>566.8</ele><time>2026-04-08T08:40:08Z</time></trkpt><trkpt lat="45.555422026771055" lon="11.099504143696826"><ele>566.0</ele><time>2026-04-08T08:40:10Z</time></trkpt><trkpt lat="45.55534949877987" lon="11.099329575922003"><ele>566.0</ele><time>2026-04-08T08:40:12Z</time></trkpt><trkpt lat="45.55531335768456" lon="11.099230236541338"><ele>566.0</ele><time>2026-04-08T08:40:13Z</time></trkpt><trkpt lat="45.55527065584302" lon="11.099158594037073"><ele>566.0</ele><time>2026-04-08T08:40:14Z</time></trkpt><trkpt lat="45.55522535366149" lon="11.099085585039935"><ele>566.0</ele><time>2026-04-08T08:40:22Z</time></trkpt><trkpt lat="45.555177052639365" lon="11.099013287800316"><ele>566.0</ele><time>2026-04-08T08:40:24Z</time></trkpt><trkpt lat="45.55511561315431" lon="11.098930672548262"><ele>566.0</ele><time>2026-04-08T08:40:26Z</time></trkpt><trkpt lat="45.55506159507" lon="11.098875258196767"><ele>566.0</ele><time>2026-04-08T08:40:33Z</time></trkpt><trkpt lat="45.55500861208393" lon="11.09881680750866"><ele>565.8333333333333</ele><time>2026-04-08T08:40:46Z</time></trkpt><trkpt lat="45.55497088018012" lon="11.098702481513753"><ele>565.6666666666666</ele><time>2026-04-08T08:40:49Z</time></trkpt><trkpt lat="45.554942973827686" lon="11.09859407253616"><ele>565.5</ele><time>2026-04-08T08:40:52Z</time></trkpt><trkpt lat="45.55489004967607" lon="11.098522417185883"><ele>565.3333333333334</ele><time>2026-04-08T08:41:07Z</time></trkpt><trkpt lat="45.554872824957414" lon="11.098406936268471"><ele>565.1666666666667</ele><time>2026-04-08T08:41:12Z</time></trkpt><trkpt lat="45.554821735389694" lon="11.098315022222478"><ele>565.0</ele><time>2026-04-08T08:41:16Z</time></trkpt><trkpt lat="45.55477886326096" lon="11.09820657184728"><ele>564.9999999999999</ele><time>2026-04-08T08:41:41Z</time></trkpt><trkpt lat="45.554827016719244" lon="11.09829178370743"><ele>565.0</ele><time>2026-04-08T08:41:53Z</time></trkpt><trkpt lat="45.55484832829706" lon="11.098392550391605"><ele>565.0</ele><time>2026-04-08T08:41:59Z</time></trkpt><trkpt lat="45.55485483720578" lon="11.098489342828325"><ele>565.0</ele><time>2026-04-08T08:42:11Z</time></trkpt><trkpt lat="45.554810119016075" lon="11.098556270888967"><ele>565.0</ele><time>2026-04-08T08:42:45Z</time></trkpt><trkpt lat="45.55473974980263" lon="11.09850421682765"><ele>564.9999999999999</ele><time>2026-04-08T08:43:52Z</time></trkpt><trkpt lat="45.55470541292929" lon="11.098419244712193"><ele>565.0</ele><time>2026-04-08T08:43:54Z</time></trkpt><trkpt lat="45.554654722214615" lon="11.098353686068041"><ele>564.9999999999999</ele><time>2026-04-08T08:43:56Z</time></trkpt><trkpt lat="45.55459833380066" lon="11.098260794137781"><ele>565.0</ele><time>2026-04-08T08:44:00Z</time></trkpt><trkpt lat="45.55454013877703" lon="11.098193531925833"><ele>565.0</ele><time>2026-04-08T08:44:02Z</time></trkpt><trkpt lat="45.55449891202445" lon="11.09811719954246"><ele>565.0</ele><time>2026-04-08T08:44:05Z</time></trkpt><trkpt lat="45.55444714283598" lon="11.098064932768644"><ele>565.0</ele><time>2026-04-08T08:44:12Z</time></trkpt><trkpt lat="45.55438775366474" lon="11.098029302492856"><ele>564.9999999999999</ele><time>2026-04-08T08:44:21Z</time></trkpt><trkpt lat="45.55433878470876" lon="11.097928167051785"><ele>565.0</ele><time>2026-04-08T08:45:07Z</time></trkpt><trkpt lat="45.55427522826113" lon="11.09783580607906"><ele>561.0</ele><time>2026-04-08T08:45:11Z</time></trkpt><trkpt lat="45.55423699874922" lon="11.097733828979036"><ele>557.0</ele><time>2026-04-08T08:45:13Z</time></trkpt><trkpt lat="45.5542056789204" lon="11.097592284478818"><ele>553.0</ele><time>2026-04-08T08:45:15Z</time></trkpt><trkpt lat="45.55418522293149" lon="11.09748547432007"><ele>549.0</ele><time>2026-04-08T08:45:18Z</time></trkpt><trkpt lat="45.55414639084595" lon="11.097411485326484"><ele>545.0</ele><time>2026-04-08T08:45:22Z</time></trkpt><trkpt lat="45.55412259217466" lon="11.097313732200224"><ele>541.0</ele><time>2026-04-08T08:45:28Z</time></trkpt><trkpt lat="45.55410557726174" lon="11.097222034887427"><ele>540.8333333333334</ele><time>2026-04-08T08:45:30Z</time></trkpt><trkpt lat="45.554057281008774" lon="11.097143834460482"><ele>540.6666666666667</ele><time>2026-04-08T08:45:32Z</time></trkpt><trkpt lat="45.55400474963291" lon="11.097064606887376"><ele>540.5</ele><time>2026-04-08T08:45:35Z</time></trkpt><trkpt lat="45.55394989724593" lon="11.096969241164299"><ele>540.3333333333334</ele><time>2026-04-08T08:45:38Z</time></trkpt><trkpt lat="45.553877094347285" lon="11.096936555892025"><ele>540.1666666666666</ele><time>2026-04-08T08:45:41Z</time></trkpt><trkpt lat="45.55379927122082" lon="11.096883598752783"><ele>540.0</ele><time>2026-04-08T08:45:44Z</time></trkpt><trkpt lat="45.55376870727017" lon="11.096782401035439"><ele>540.0</ele><time>2026-04-08T08:45:48Z</time></trkpt><trkpt lat="45.55371821508538" lon="11.096700548771908"><ele>540.0</ele><time>2026-04-08T08:45:52Z</time></trkpt><trkpt lat="45.55367700382689" lon="11.096591738646648"><ele>540.0</ele><time>2026-04-08T08:45:56Z</time></trkpt><trkpt lat="45.55363086506342" lon="11.09651051379836"><ele>540.0</ele><time>2026-04-08T08:45:58Z</time></trkpt><trkpt lat="45.5535726894389" lon="11.096425039484883"><ele>540.0</ele><time>2026-04-08T08:46:00Z</time></trkpt><trkpt lat="45.553520752099544" lon="11.096339832379652"><ele>540.0</ele><time>2026-04-08T08:46:02Z</time></trkpt><trkpt lat="45.553494267929416" lon="11.096257313493668"><ele>535.3333333333334</ele><time>2026-04-08T08:46:04Z</time></trkpt><trkpt lat="45.55341239312031" lon="11.096169766125092"><ele>530.6666666666666</ele><time>2026-04-08T08:46:07Z</time></trkpt><trkpt lat="45.55338646406656" lon="11.096081866742566"><ele>526.0</ele><time>2026-04-08T08:46:09Z</time></trkpt><trkpt lat="45.553338742894326" lon="11.096006650867281"><ele>521.3333333333333</ele><time>2026-04-08T08:46:11Z</time></trkpt><trkpt lat="45.553252321071184" lon="11.095971295727741"><ele>516.6666666666666</ele><time>2026-04-08T08:46:14Z</time></trkpt><trkpt lat="45.553203531067126" lon="11.095896131892342"><ele>512.0</ele><time>2026-04-08T08:46:16Z</time></trkpt><trkpt lat="45.55315377144552" lon="11.095785536744827"><ele>510.3333333333333</ele><time>2026-04-08T08:46:19Z</time></trkpt><trkpt lat="45.55309567905026" lon="11.095740588374563"><ele>508.66666666666663</ele><time>2026-04-08T08:46:21Z</time></trkpt><trkpt lat="45.553007397572074" lon="11.09564974879598"><ele>507.0</ele><time>2026-04-08T08:46:25Z</time></trkpt><trkpt lat="45.552995066153734" lon="11.09552789980071"><ele>505.33333333333337</ele><time>2026-04-08T08:46:29Z</time></trkpt><trkpt lat="45.5529886626098" lon="11.095416467501883"><ele>503.6666666666667</ele><time>2026-04-08T08:46:32Z</time></trkpt><trkpt lat="45.55301112455106" lon="11.095306306330642"><ele>502.0</ele><time>2026-04-08T08:46:35Z</time></trkpt><trkpt lat="45.55301536717473" lon="11.09521648164138"><ele>501.99999999999994</ele><time>2026-04-08T08:46:38Z</time></trkpt><trkpt lat="45.552978489818905" lon="11.095102785332132"><ele>502.0</ele><time>2026-04-08T08:46:41Z</time></trkpt><trkpt lat="45.5530169780156" lon="11.095025915107351"><ele>501.99999999999994</ele><time>2026-04-08T08:46:45Z</time></trkpt><trkpt lat="45.55300759911034" lon="11.094904736744224"><ele>501.99999999999994</ele><time>2026-04-08T08:47:27Z</time></trkpt><trkpt lat="45.553014855292" lon="11.094798781182496"><ele>502.0</ele><time>2026-04-08T08:47:30Z</time></trkpt><trkpt lat="45.55299687411753" lon="11.094706189024537"><ele>501.99999999999994</ele><time>2026-04-08T08:47:34Z</time></trkpt><trkpt lat="45.55306191690686" lon="11.094719117736657"><ele>501.99999999999994</ele><time>2026-04-08T08:47:50Z</time></trkpt><trkpt lat="45.55314696609363" lon="11.094724767967637"><ele>502.6666666666667</ele><time>2026-04-08T08:47:55Z</time></trkpt><trkpt lat="45.55326729995891" lon="11.094670655924268"><ele>503.33333333333337</ele><time>2026-04-08T08:47:58Z</time></trkpt><trkpt lat="45.5533336828996" lon="11.094662184032387"><ele>504.0</ele><time>2026-04-08T08:48:20Z</time></trkpt><trkpt lat="45.55340548730243" lon="11.0946440732429"><ele>504.66666666666663</ele><time>2026-04-08T08:48:22Z</time></trkpt><trkpt lat="45.55346845968284" lon="11.094584115395554"><ele>505.3333333333333</ele><time>2026-04-08T08:48:25Z</time></trkpt><trkpt lat="45.553523774738686" lon="11.094472414493492"><ele>506.0</ele><time>2026-04-08T08:48:28Z</time></trkpt><trkpt lat="45.55359866790375" lon="11.094468408220894"><ele>505.99999999999994</ele><time>2026-04-08T08:48:34Z</time></trkpt><trkpt lat="45.55354952317058" lon="11.094394803893074"><ele>506.0</ele><time>2026-04-08T08:48:44Z</time></trkpt><trkpt lat="45.553543142366884" lon="11.0942893517009"><ele>506.0</ele><time>2026-04-08T08:48:46Z</time></trkpt><trkpt lat="45.55361606318849" lon="11.094229464530738"><ele>506.0</ele><time>2026-04-08T08:48:49Z</time></trkpt><trkpt lat="45.553643270190925" lon="11.094118716771318"><ele>505.99999999999994</ele><time>2026-04-08T08:49:07.001Z</time></trkpt><trkpt lat="45.553706840402306" lon="11.094014711944467"><ele>506.0</ele><time>2026-04-08T08:49:09.001Z</time></trkpt><trkpt lat="45.55381797463128" lon="11.093921575081355"><ele>511.99999999999994</ele><time>2026-04-08T08:49:11.001Z</time></trkpt><trkpt lat="45.55388742162733" lon="11.093860102588978"><ele>518.0</ele><time>2026-04-08T08:49:12.001Z</time></trkpt><trkpt lat="45.55396576426087" lon="11.093808305604561"><ele>524.0</ele><time>2026-04-08T08:49:13.001Z</time></trkpt><trkpt lat="45.55404641634949" lon="11.093766801486554"><ele>530.0</ele><time>2026-04-08T08:49:14.001Z</time></trkpt><trkpt lat="45.55412125910826" lon="11.093748327385722"><ele>536.0</ele><time>2026-04-08T08:49:15.001Z</time></trkpt><trkpt lat="45.554203899466714" lon="11.09373199322602"><ele>542.0</ele><time>2026-04-08T08:49:16.001Z</time></trkpt><trkpt lat="45.5542813330692" lon="11.09372281260893"><ele>542.0</ele><time>2026-04-08T08:49:17.001Z</time></trkpt><trkpt lat="45.55434683828881" lon="11.093699640874252"><ele>542.0</ele><time>2026-04-08T08:49:18.001Z</time></trkpt><trkpt lat="45.55439927725268" lon="11.093647363992732"><ele>542.0</ele><time>2026-04-08T08:49:25.001Z</time></trkpt><trkpt lat="45.554502655920246" lon="11.093552724660187"><ele>542.0</ele><time>2026-04-08T08:49:37Z</time></trkpt><trkpt lat="45.55463938801601" lon="11.093494503639002"><ele>542.0</ele><time>2026-04-08T08:49:39Z</time></trkpt><trkpt lat="45.554723174686934" lon="11.093449837594584"><ele>541.5</ele><time>2026-04-08T08:49:40Z</time></trkpt><trkpt lat="45.55480842402783" lon="11.093405930960458"><ele>541.0</ele><time>2026-04-08T08:49:41Z</time></trkpt><trkpt lat="45.55490164894865" lon="11.093341538639754"><ele>540.5</ele><time>2026-04-08T08:49:42Z</time></trkpt><trkpt lat="45.55497428816278" lon="11.093290833774793"><ele>540.0</ele><time>2026-04-08T08:49:43Z</time></trkpt><trkpt lat="45.5550388487098" lon="11.093252780051989"><ele>539.5</ele><time>2026-04-08T08:49:44Z</time></trkpt><trkpt lat="45.55510956301256" lon="11.09321952017856"><ele>539.0</ele><time>2026-04-08T08:49:46Z</time></trkpt><trkpt lat="45.55515535777155" lon="11.09314304810732"><ele>544.6</ele><time>2026-04-08T08:50:00Z</time></trkpt><trkpt lat="45.555212330060534" lon="11.093014519699619"><ele>550.2</ele><time>2026-04-08T08:50:02Z</time></trkpt><trkpt lat="45.55525830104295" lon="11.092896498217318"><ele>555.8000000000001</ele><time>2026-04-08T08:50:04Z</time></trkpt><trkpt lat="45.55516985124156" lon="11.09288644276014"><ele>561.4</ele><time>2026-04-08T08:50:09Z</time></trkpt><trkpt lat="45.555085533782005" lon="11.092855411172478"><ele>567.0</ele><time>2026-04-08T08:50:13Z</time></trkpt><trkpt lat="45.55498379479183" lon="11.092835380201398"><ele>567.0</ele><time>2026-04-08T08:50:17Z</time></trkpt><trkpt lat="45.55493444445593" lon="11.092768425879225"><ele>567.0</ele><time>2026-04-08T08:50:20Z</time></trkpt><trkpt lat="45.55498378856395" lon="11.092700932988105"><ele>567.0</ele><time>2026-04-08T08:50:37Z</time></trkpt><trkpt lat="45.55505713671794" lon="11.092663987227949"><ele>567.0</ele><time>2026-04-08T08:50:41Z</time></trkpt><trkpt lat="45.55506195021283" lon="11.0925505309461"><ele>567.0</ele><time>2026-04-08T08:50:45Z</time></trkpt><trkpt lat="45.555027551630026" lon="11.092461288224204"><ele>567.0</ele><time>2026-04-08T08:50:47Z</time></trkpt><trkpt lat="45.55502981006852" lon="11.092370201385812"><ele>567.0</ele><time>2026-04-08T08:50:51Z</time></trkpt><trkpt lat="45.55501424467826" lon="11.0922773697151"><ele>570.0</ele><time>2026-04-08T08:51:00Z</time></trkpt><trkpt lat="45.55500427255435" lon="11.092162378475035"><ele>573.0</ele><time>2026-04-08T08:51:29Z</time></trkpt><trkpt lat="45.555001719929066" lon="11.09202439265827"><ele>576.0</ele><time>2026-04-08T08:51:32Z</time></trkpt><trkpt lat="45.55498519630398" lon="11.091902746031955"><ele>579.0</ele><time>2026-04-08T08:51:34Z</time></trkpt><trkpt lat="45.55493020316551" lon="11.091858400880628"><ele>582.0</ele><time>2026-04-08T08:51:39Z</time></trkpt><trkpt lat="45.55487731913958" lon="11.091916153445254"><ele>585.0</ele><time>2026-04-08T08:51:41Z</time></trkpt><trkpt lat="45.554815341205554" lon="11.09197188870252"><ele>585.0</ele><time>2026-04-08T08:51:43Z</time></trkpt><trkpt lat="45.55474090513378" lon="11.091967549005544"><ele>585.0</ele><time>2026-04-08T08:51:46Z</time></trkpt><trkpt lat="45.554681918371685" lon="11.092005561084994"><ele>585.0</ele><time>2026-04-08T08:51:48Z</time></trkpt><trkpt lat="45.554603124279986" lon="11.0919817349227"><ele>585.0</ele><time>2026-04-08T08:51:51Z</time></trkpt><trkpt lat="45.55454763037094" lon="11.091898296040153"><ele>585.0</ele><time>2026-04-08T08:51:57Z</time></trkpt><trkpt lat="45.554490710254726" lon="11.091822555909205"><ele>585.0</ele><time>2026-04-08T08:51:59Z</time></trkpt><trkpt lat="45.55442370560582" lon="11.091732216810781"><ele>585.5</ele><time>2026-04-08T08:52:08Z</time></trkpt><trkpt lat="45.5543914751642" lon="11.091615947410395"><ele>586.0</ele><time>2026-04-08T08:52:11Z</time></trkpt><trkpt lat="45.554457746764555" lon="11.091541390614545"><ele>586.5</ele><time>2026-04-08T08:52:13Z</time></trkpt><trkpt lat="45.55451748085413" lon="11.091485997039367"><ele>587.0</ele><time>2026-04-08T08:52:14Z</time></trkpt><trkpt lat="45.554573062677605" lon="11.091387410187748"><ele>587.5</ele><time>2026-04-08T08:52:15Z</time></trkpt><trkpt lat="45.55461803316102" lon="11.091271771347564"><ele>588.0</ele><time>2026-04-08T08:52:16Z</time></trkpt><trkpt lat="45.554655103463446" lon="11.091137795050651"><ele>589.1999999999999</ele><time>2026-04-08T08:52:17Z</time></trkpt><trkpt lat="45.55467348205626" lon="11.09099339691239"><ele>590.4</ele><time>2026-04-08T08:52:18Z</time></trkpt><trkpt lat="45.55467744863197" lon="11.090868420129347"><ele>591.5999999999999</ele><time>2026-04-08T08:52:19Z</time></trkpt><trkpt lat="45.55468812057233" lon="11.090766451958558"><ele>592.8</ele><time>2026-04-08T08:52:21Z</time></trkpt><trkpt lat="45.55470689820221" lon="11.09067430811481"><ele>594.0</ele><time>2026-04-08T08:52:25Z</time></trkpt><trkpt lat="45.554977170063566" lon="11.090539347478643"><ele>595.5</ele><time>2026-04-08T08:52:27Z</time></trkpt><trkpt lat="45.55504268446047" lon="11.090484414103171"><ele>597.0</ele><time>2026-04-08T08:52:28Z</time></trkpt><trkpt lat="45.555134931620586" lon="11.090390319110913"><ele>598.5</ele><time>2026-04-08T08:52:30Z</time></trkpt><trkpt lat="45.555210987321935" lon="11.09040496241051"><ele>600.0</ele><time>2026-04-08T08:52:32Z</time></trkpt><trkpt lat="45.55524365756474" lon="11.090512763462089"><ele>601.5</ele><time>2026-04-08T08:52:34Z</time></trkpt><trkpt lat="45.55526540964454" lon="11.09060999686574"><ele>603.0</ele><time>2026-04-08T08:52:36Z</time></trkpt><trkpt lat="45.55528379570356" lon="11.090719686042823"><ele>601.5</ele><time>2026-04-08T08:52:38Z</time></trkpt><trkpt lat="45.55529268808789" lon="11.090832379057789"><ele>600.0</ele><time>2026-04-08T08:52:41Z</time></trkpt><trkpt lat="45.55529973420175" lon="11.090941253013243"><ele>598.5</ele><time>2026-04-08T08:52:43Z</time></trkpt><trkpt lat="45.55531209021579" lon="11.091076228326044"><ele>597.0</ele><time>2026-04-08T08:52:45Z</time></trkpt><trkpt lat="45.55531151520861" lon="11.09117193339165"><ele>595.5</ele><time>2026-04-08T08:52:46Z</time></trkpt><trkpt lat="45.55531353625934" lon="11.091311658450037"><ele>594.0</ele><time>2026-04-08T08:52:48Z</time></trkpt><trkpt lat="45.555321510160354" lon="11.091439325847888"><ele>593.5</ele><time>2026-04-08T08:52:50Z</time></trkpt><trkpt lat="45.55533484941877" lon="11.091604276145599"><ele>593.0</ele><time>2026-04-08T08:52:52Z</time></trkpt><trkpt lat="45.5553891990346" lon="11.091754322628951"><ele>592.5</ele><time>2026-04-08T08:52:54Z</time></trkpt><trkpt lat="45.55546268210753" lon="11.091913290951515"><ele>592.0</ele><time>2026-04-08T08:52:56Z</time></trkpt><trkpt lat="45.55552681815201" lon="11.092042074344064"><ele>592.0</ele><time>2026-04-08T08:52:58Z</time></trkpt><trkpt lat="45.55563190151254" lon="11.092157703044945"><ele>592.0</ele><time>2026-04-08T08:53:00Z</time></trkpt><trkpt lat="45.55567757274513" lon="11.092235166083306"><ele>592.0</ele><time>2026-04-08T08:53:01Z</time></trkpt><trkpt lat="45.5557555765254" lon="11.092351858364049"><ele>592.0</ele><time>2026-04-08T08:53:03Z</time></trkpt><trkpt lat="45.55587363562232" lon="11.092454457974437"><ele>588.5</ele><time>2026-04-08T08:53:05Z</time></trkpt><trkpt lat="45.555957568374026" lon="11.09251416894842"><ele>585.0</ele><time>2026-04-08T08:53:07Z</time></trkpt><trkpt lat="45.556027005772314" lon="11.092589388417252"><ele>581.5</ele><time>2026-04-08T08:53:07.999Z</time></trkpt><trkpt lat="45.55607153807478" lon="11.09266280332877"><ele>578.0</ele><time>2026-04-08T08:53:08.999Z</time></trkpt><trkpt lat="45.55612948663109" lon="11.092723452149686"><ele>574.5</ele><time>2026-04-08T08:53:09.999Z</time></trkpt><trkpt lat="45.55625293161297" lon="11.092746891583468"><ele>571.0</ele><time>2026-04-08T08:53:11.999Z</time></trkpt><trkpt lat="45.55634138073158" lon="11.092759828384727"><ele>571.0</ele><time>2026-04-08T08:53:12.999Z</time></trkpt><trkpt lat="45.55644256958273" lon="11.092778212564065"><ele>571.0</ele><time>2026-04-08T08:53:13.999Z</time></trkpt><trkpt lat="45.5565542177948" lon="11.09280465692097"><ele>571.0</ele><time>2026-04-08T08:53:15.999Z</time></trkpt><trkpt lat="45.556626817145926" lon="11.092812280142018"><ele>571.0</ele><time>2026-04-08T08:53:16.999Z</time></trkpt><trkpt lat="45.55669640877929" lon="11.092846619425167"><ele>571.0</ele><time>2026-04-08T08:53:17.999Z</time></trkpt><trkpt lat="45.55677643047796" lon="11.09285827136126"><ele>571.0</ele><time>2026-04-08T08:53:18.999Z</time></trkpt><trkpt lat="45.55685789682752" lon="11.0928705569076"><ele>571.0</ele><time>2026-04-08T08:53:19.999Z</time></trkpt><trkpt lat="45.556926448030325" lon="11.092914785306077"><ele>571.0</ele><time>2026-04-08T08:53:20.999Z</time></trkpt><trkpt lat="45.55699089117682" lon="11.092914687947786"><ele>571.0</ele><time>2026-04-08T08:53:21.999Z</time></trkpt><trkpt lat="45.557068967872524" lon="11.092928511280299"><ele>571.0</ele><time>2026-04-08T08:53:22.999Z</time></trkpt><trkpt lat="45.557142809251474" lon="11.092967121585353"><ele>571.0</ele><time>2026-04-08T08:53:23.999Z</time></trkpt><trkpt lat="45.557203009358304" lon="11.093005114132247"><ele>571.0</ele><time>2026-04-08T08:53:24.999Z</time></trkpt><trkpt lat="45.557300733250194" lon="11.093001342010746"><ele>570.25</ele><time>2026-04-08T08:53:39.999Z</time></trkpt><trkpt lat="45.5574158658906" lon="11.093006960080064"><ele>569.5</ele><time>2026-04-08T08:53:41.999Z</time></trkpt><trkpt lat="45.55757090587378" lon="11.09299607167471"><ele>568.75</ele><time>2026-04-08T08:53:43.999Z</time></trkpt><trkpt lat="45.55765791948896" lon="11.092999111610261"><ele>568.0</ele><time>2026-04-08T08:53:44.999Z</time></trkpt><trkpt lat="45.557766261774105" lon="11.09305774720034"><ele>568.0</ele><time>2026-04-08T08:53:46.999Z</time></trkpt><trkpt lat="45.55783246203487" lon="11.093066370921335"><ele>568.0</ele><time>2026-04-08T08:53:47.999Z</time></trkpt><trkpt lat="45.55789530848597" lon="11.093112010259427"><ele>568.0</ele><time>2026-04-08T08:53:48.999Z</time></trkpt><trkpt lat="45.55795804572094" lon="11.093119665054607"><ele>568.0</ele><time>2026-04-08T08:53:49.999Z</time></trkpt><trkpt lat="45.55805595141072" lon="11.093125966827351"><ele>568.0</ele><time>2026-04-08T08:53:50.999Z</time></trkpt><trkpt lat="45.55814836593734" lon="11.093134712767666"><ele>568.0</ele><time>2026-04-08T08:53:51.999Z</time></trkpt><trkpt lat="45.55821711155421" lon="11.09312523443769"><ele>566.25</ele><time>2026-04-08T08:53:52.999Z</time></trkpt><trkpt lat="45.558354752182645" lon="11.09306857104109"><ele>564.5</ele><time>2026-04-08T08:53:54.999Z</time></trkpt><trkpt lat="45.558460407743844" lon="11.092979079776145"><ele>562.75</ele><time>2026-04-08T08:53:56.999Z</time></trkpt><trkpt lat="45.55850481107336" lon="11.092856857639045"><ele>561.0</ele><time>2026-04-08T08:53:58.999Z</time></trkpt><trkpt lat="45.5585190880669" lon="11.09271158161367"><ele>561.0</ele><time>2026-04-08T08:54:00.999Z</time></trkpt><trkpt lat="45.55852425420608" lon="11.092618653197613"><ele>561.0</ele><time>2026-04-08T08:54:01.999Z</time></trkpt><trkpt lat="45.55853815335993" lon="11.092518664358808"><ele>561.0</ele><time>2026-04-08T08:54:02.999Z</time></trkpt><trkpt lat="45.55855866156177" lon="11.092428977349783"><ele>561.0</ele><time>2026-04-08T08:54:03.999Z</time></trkpt><trkpt lat="45.55856834292577" lon="11.092327270891845"><ele>561.0</ele><time>2026-04-08T08:54:04.999Z</time></trkpt><trkpt lat="45.55863161321948" lon="11.09223426948284"><ele>561.0</ele><time>2026-04-08T08:54:06.999Z</time></trkpt><trkpt lat="45.55873492094271" lon="11.092152773236753"><ele>560.6</ele><time>2026-04-08T08:54:08.999Z</time></trkpt><trkpt lat="45.558809897546794" lon="11.092098469552058"><ele>560.2</ele><time>2026-04-08T08:54:10.999Z</time></trkpt><trkpt lat="45.55885051174258" lon="11.092182535697575"><ele>559.8</ele><time>2026-04-08T08:54:12.999Z</time></trkpt><trkpt lat="45.558894350212874" lon="11.092312455903897"><ele>559.4</ele><time>2026-04-08T08:54:14.999Z</time></trkpt><trkpt lat="45.55896526234497" lon="11.092442784878186"><ele>559.0</ele><time>2026-04-08T08:54:16.999Z</time></trkpt><trkpt lat="45.55904093223916" lon="11.092545683092762"><ele>559.0</ele><time>2026-04-08T08:54:18.999Z</time></trkpt><trkpt lat="45.55912989839175" lon="11.092638917070959"><ele>559.0</ele><time>2026-04-08T08:54:20.999Z</time></trkpt><trkpt lat="45.55922241593224" lon="11.092719294572527"><ele>559.0</ele><time>2026-04-08T08:54:22.999Z</time></trkpt><trkpt lat="45.55932127446154" lon="11.092759541512537"><ele>559.0</ele><time>2026-04-08T08:54:24.999Z</time></trkpt><trkpt lat="45.5593693162207" lon="11.09281764851533"><ele>559.0</ele><time>2026-04-08T08:54:40.999Z</time></trkpt><trkpt lat="45.55944257987333" lon="11.092838435964296"><ele>559.0</ele><time>2026-04-08T08:54:42.999Z</time></trkpt><trkpt lat="45.55951133681899" lon="11.09286761529836"><ele>559.0</ele><time>2026-04-08T08:54:43.999Z</time></trkpt><trkpt lat="45.55957969697981" lon="11.092886663948006"><ele>559.0</ele><time>2026-04-08T08:54:44.999Z</time></trkpt><trkpt lat="45.55965564585249" lon="11.092922912707058"><ele>559.0</ele><time>2026-04-08T08:54:45.999Z</time></trkpt><trkpt lat="45.55974617102477" lon="11.092918496957463"><ele>559.0</ele><time>2026-04-08T08:54:47.999Z</time></trkpt><trkpt lat="45.55986582504967" lon="11.092948698750453"><ele>559.0</ele><time>2026-04-08T08:54:49.999Z</time></trkpt><trkpt lat="45.55997116670868" lon="11.093003065640609"><ele>561.8333333333334</ele><time>2026-04-08T08:54:50.999Z</time></trkpt><trkpt lat="45.560058018142534" lon="11.093049722192655"><ele>564.6666666666667</ele><time>2026-04-08T08:54:51.999Z</time></trkpt><trkpt lat="45.56012032023987" lon="11.093085844784131"><ele>567.5</ele><time>2026-04-08T08:54:52.999Z</time></trkpt><trkpt lat="45.56021745537497" lon="11.093043081844757"><ele>570.3333333333334</ele><time>2026-04-08T08:54:54.999Z</time></trkpt><trkpt lat="45.560276273867174" lon="11.09300762368586"><ele>573.1666666666666</ele><time>2026-04-08T08:54:55.999Z</time></trkpt><trkpt lat="45.5603564379224" lon="11.093005127294465"><ele>576.0</ele><time>2026-04-08T08:54:56.999Z</time></trkpt><trkpt lat="45.56042845588364" lon="11.093013829197579"><ele>576.2</ele><time>2026-04-08T08:54:57.999Z</time></trkpt><trkpt lat="45.5604916106482" lon="11.093014953738884"><ele>576.4000000000001</ele><time>2026-04-08T08:54:58.999Z</time></trkpt><trkpt lat="45.560610489284635" lon="11.093066719040051"><ele>576.6</ele><time>2026-04-08T08:55:00.999Z</time></trkpt><trkpt lat="45.56067449652739" lon="11.093053672998792"><ele>576.8000000000001</ele><time>2026-04-08T08:55:01.999Z</time></trkpt><trkpt lat="45.56080431231501" lon="11.093113081878812"><ele>577.0</ele><time>2026-04-08T08:55:03.999Z</time></trkpt><trkpt lat="45.56089267575933" lon="11.09316585866374"><ele>577.0</ele><time>2026-04-08T08:55:04.999Z</time></trkpt><trkpt lat="45.560984161598455" lon="11.0932018612111"><ele>577.0</ele><time>2026-04-08T08:55:05.999Z</time></trkpt><trkpt lat="45.56106103461466" lon="11.093233753327905"><ele>577.0</ele><time>2026-04-08T08:55:06.999Z</time></trkpt><trkpt lat="45.56114388571387" lon="11.093249298102293"><ele>577.0</ele><time>2026-04-08T08:55:07.999Z</time></trkpt><trkpt lat="45.56120895689981" lon="11.093272683518707"><ele>577.0</ele><time>2026-04-08T08:55:08.999Z</time></trkpt><trkpt lat="45.56133190783154" lon="11.093302390878344"><ele>577.0</ele><time>2026-04-08T08:55:10.999Z</time></trkpt><trkpt lat="45.561399507401134" lon="11.0933176812169"><ele>577.0</ele><time>2026-04-08T08:55:11.999Z</time></trkpt><trkpt lat="45.561501637844515" lon="11.09330057068026"><ele>577.0</ele><time>2026-04-08T08:55:13.999Z</time></trkpt><trkpt lat="45.5615742926945" lon="11.093282654730066"><ele>577.0</ele><time>2026-04-08T08:55:19Z</time></trkpt><trkpt lat="45.561639176011035" lon="11.093254985368468"><ele>577.0</ele><time>2026-04-08T08:55:44.999Z</time></trkpt><trkpt lat="45.561698996864585" lon="11.09328442812436"><ele>577.0</ele><time>2026-04-08T08:55:49.999Z</time></trkpt><trkpt lat="45.561762138387664" lon="11.093335078774256"><ele>577.0</ele><time>2026-04-08T08:55:58.999Z</time></trkpt><trkpt lat="45.56182050210877" lon="11.093375369779595"><ele>572.0</ele><time>2026-04-08T08:56:08Z</time></trkpt><trkpt lat="45.56183623012115" lon="11.09348099691925"><ele>567.0</ele><time>2026-04-08T08:56:13Z</time></trkpt><trkpt lat="45.5618711711219" lon="11.093555941072307"><ele>562.0</ele><time>2026-04-08T08:58:26Z</time></trkpt><trkpt lat="45.56193569312637" lon="11.09365979706473"><ele>557.0</ele><time>2026-04-08T08:58:30Z</time></trkpt><trkpt lat="45.561945761991936" lon="11.093770105841077"><ele>552.0</ele><time>2026-04-08T08:58:32Z</time></trkpt><trkpt lat="45.56189154997497" lon="11.093866738479418"><ele>547.0</ele><time>2026-04-08T08:58:34Z</time></trkpt><trkpt lat="45.56185993122486" lon="11.093952497029383"><ele>547.0</ele><time>2026-04-08T08:58:36Z</time></trkpt><trkpt lat="45.56174600905195" lon="11.094003780284034"><ele>547.0</ele><time>2026-04-08T08:58:38Z</time></trkpt><trkpt lat="45.56163482206669" lon="11.093936290629687"><ele>547.0</ele><time>2026-04-08T08:58:40Z</time></trkpt><trkpt lat="45.56153992285751" lon="11.093874733968802"><ele>547.0</ele><time>2026-04-08T08:58:42Z</time></trkpt><trkpt lat="45.561453713924486" lon="11.093897027979633"><ele>547.0</ele><time>2026-04-08T08:58:44Z</time></trkpt><trkpt lat="45.561385541903135" lon="11.093972807339906"><ele>547.0</ele><time>2026-04-08T08:58:47Z</time></trkpt><trkpt lat="45.561335493203345" lon="11.094063309724547"><ele>547.0</ele><time>2026-04-08T08:58:50Z</time></trkpt><trkpt lat="45.56113345744602" lon="11.094334568599072"><ele>547.0</ele><time>2026-04-08T08:58:51Z</time></trkpt><trkpt lat="45.561088530479196" lon="11.094407424351731"><ele>547.0</ele><time>2026-04-08T08:58:52Z</time></trkpt><trkpt lat="45.56103318027175" lon="11.09447669303218"><ele>547.1666666666667</ele><time>2026-04-08T08:58:53Z</time></trkpt><trkpt lat="45.56096844854964" lon="11.094523544479063"><ele>547.3333333333334</ele><time>2026-04-08T08:58:54Z</time></trkpt><trkpt lat="45.5609078653793" lon="11.09456692078677"><ele>547.5</ele><time>2026-04-08T08:58:55Z</time></trkpt><trkpt lat="45.56089458845423" lon="11.094660354414328"><ele>547.6666666666666</ele><time>2026-04-08T08:58:56Z</time></trkpt><trkpt lat="45.5608341022849" lon="11.094795669792408"><ele>547.8333333333333</ele><time>2026-04-08T08:58:58Z</time></trkpt><trkpt lat="45.560795914769315" lon="11.09492700962382"><ele>548.0</ele><time>2026-04-08T08:59:01Z</time></trkpt><trkpt lat="45.560883397407494" lon="11.094899588146117"><ele>548.0</ele><time>2026-04-08T08:59:03Z</time></trkpt><trkpt lat="45.56094548923513" lon="11.094786540811933"><ele>548.0</ele><time>2026-04-08T08:59:05Z</time></trkpt><trkpt lat="45.56101813505877" lon="11.094773435322338"><ele>548.0</ele><time>2026-04-08T08:59:07Z</time></trkpt><trkpt lat="45.561104622224015" lon="11.094849762315127"><ele>548.0</ele><time>2026-04-08T08:59:08Z</time></trkpt><trkpt lat="45.56115898438889" lon="11.094762430604261"><ele>548.0</ele><time>2026-04-08T08:59:09Z</time></trkpt><trkpt lat="45.56123947262123" lon="11.09473360909638"><ele>548.0</ele><time>2026-04-08T08:59:10Z</time></trkpt><trkpt lat="45.561304106950146" lon="11.094682891564172"><ele>550.4</ele><time>2026-04-08T08:59:11Z</time></trkpt><trkpt lat="45.561376064884094" lon="11.094674228743964"><ele>552.8</ele><time>2026-04-08T08:59:12Z</time></trkpt><trkpt lat="45.561459934194104" lon="11.094638693775288"><ele>555.2</ele><time>2026-04-08T08:59:13Z</time></trkpt><trkpt lat="45.56153566272505" lon="11.09459485938226"><ele>557.6</ele><time>2026-04-08T08:59:14Z</time></trkpt><trkpt lat="45.56165709501328" lon="11.094726936584005"><ele>560.0</ele><time>2026-04-08T08:59:16Z</time></trkpt><trkpt lat="45.561733631006355" lon="11.094690478735881"><ele>560.0</ele><time>2026-04-08T08:59:19Z</time></trkpt><trkpt lat="45.561814904113696" lon="11.094641069928533"><ele>560.0</ele><time>2026-04-08T08:59:20.001Z</time></trkpt><trkpt lat="45.56193347626025" lon="11.0945988279779"><ele>560.0</ele><time>2026-04-08T08:59:21.001Z</time></trkpt><trkpt lat="45.562057962911474" lon="11.094566013005565"><ele>560.0</ele><time>2026-04-08T08:59:22.001Z</time></trkpt><trkpt lat="45.562171375084844" lon="11.094538840574378"><ele>560.2</ele><time>2026-04-08T08:59:23.001Z</time></trkpt><trkpt lat="45.56227360195431" lon="11.09451855784357"><ele>560.4</ele><time>2026-04-08T08:59:24.001Z</time></trkpt><trkpt lat="45.562377032345715" lon="11.094554987176263"><ele>560.6</ele><time>2026-04-08T08:59:25.001Z</time></trkpt><trkpt lat="45.562476846959676" lon="11.09457855029725"><ele>560.8</ele><time>2026-04-08T08:59:26.001Z</time></trkpt><trkpt lat="45.562578970471385" lon="11.094620831111026"><ele>561.0</ele><time>2026-04-08T08:59:27.001Z</time></trkpt><trkpt lat="45.56267881257633" lon="11.094658564299953"><ele>561.0</ele><time>2026-04-08T08:59:28.001Z</time></trkpt><trkpt lat="45.56275544925403" lon="11.094710532230708"><ele>561.0</ele><time>2026-04-08T08:59:29.001Z</time></trkpt><trkpt lat="45.562816050351664" lon="11.094784886824854"><ele>561.0</ele><time>2026-04-08T08:59:30.001Z</time></trkpt><trkpt lat="45.5628092500734" lon="11.094911687224002"><ele>561.0</ele><time>2026-04-08T08:59:31.001Z</time></trkpt><trkpt lat="45.56283879929791" lon="11.095024554006809"><ele>561.0</ele><time>2026-04-08T08:59:32.001Z</time></trkpt><trkpt lat="45.56287238895205" lon="11.095152853735394"><ele>561.0</ele><time>2026-04-08T08:59:33.001Z</time></trkpt><trkpt lat="45.562908276297776" lon="11.095289929588159"><ele>566.0</ele><time>2026-04-08T08:59:34.001Z</time></trkpt><trkpt lat="45.562947123646026" lon="11.09544757751882"><ele>571.0</ele><time>2026-04-08T08:59:35.001Z</time></trkpt><trkpt lat="45.56298969813573" lon="11.095589634937232"><ele>576.0</ele><time>2026-04-08T08:59:36Z</time></trkpt><trkpt lat="45.56302501140741" lon="11.0957001309946"><ele>581.0</ele><time>2026-04-08T08:59:37Z</time></trkpt><trkpt lat="45.563077756308445" lon="11.09583470684767"><ele>586.0</ele><time>2026-04-08T08:59:39Z</time></trkpt><trkpt lat="45.56321572954147" lon="11.095812609454706"><ele>586.0</ele><time>2026-04-08T08:59:41Z</time></trkpt><trkpt lat="45.563247542006664" lon="11.095733888933907"><ele>586.0</ele><time>2026-04-08T08:59:42Z</time></trkpt><trkpt lat="45.563271205261856" lon="11.095636126818484"><ele>586.0</ele><time>2026-04-08T08:59:43Z</time></trkpt><trkpt lat="45.56330102768418" lon="11.095512835179147"><ele>586.0</ele><time>2026-04-08T08:59:44Z</time></trkpt><trkpt lat="45.56334431494809" lon="11.095374071038652"><ele>586.0</ele><time>2026-04-08T08:59:45Z</time></trkpt><trkpt lat="45.563372228811254" lon="11.095226719101564"><ele>586.0</ele><time>2026-04-08T08:59:46Z</time></trkpt><trkpt lat="45.563366406407944" lon="11.095061583290208"><ele>583.4</ele><time>2026-04-08T08:59:47Z</time></trkpt><trkpt lat="45.56335532050565" lon="11.09489872317469"><ele>580.8</ele><time>2026-04-08T08:59:48Z</time></trkpt><trkpt lat="45.563355689191035" lon="11.094772059759052"><ele>578.1999999999999</ele><time>2026-04-08T08:59:49Z</time></trkpt><trkpt lat="45.56338755512974" lon="11.09467067350925"><ele>575.6</ele><time>2026-04-08T08:59:50Z</time></trkpt><trkpt lat="45.56345075752262" lon="11.094593342561156"><ele>573.0</ele><time>2026-04-08T08:59:51Z</time></trkpt><trkpt lat="45.5635611973636" lon="11.094564954390648"><ele>573.0</ele><time>2026-04-08T08:59:52Z</time></trkpt><trkpt lat="45.56368155154032" lon="11.094493520437844"><ele>573.0</ele><time>2026-04-08T08:59:53Z</time></trkpt><trkpt lat="45.56382955091084" lon="11.09442716624226"><ele>573.0</ele><time>2026-04-08T08:59:54Z</time></trkpt><trkpt lat="45.56396441191516" lon="11.09434182247414"><ele>573.0</ele><time>2026-04-08T08:59:55Z</time></trkpt><trkpt lat="45.564089634205686" lon="11.094240392625458"><ele>577.1999999999999</ele><time>2026-04-08T08:59:56Z</time></trkpt><trkpt lat="45.56420343130533" lon="11.094164953055655"><ele>581.4</ele><time>2026-04-08T08:59:57Z</time></trkpt><trkpt lat="45.56430407099298" lon="11.094187052123203"><ele>585.5999999999999</ele><time>2026-04-08T08:59:58Z</time></trkpt><trkpt lat="45.56438856054276" lon="11.09424882613469"><ele>589.8</ele><time>2026-04-08T08:59:59Z</time></trkpt><trkpt lat="45.56444862839596" lon="11.094356995814943"><ele>594.0</ele><time>2026-04-08T09:00:00Z</time></trkpt><trkpt lat="45.5645277788007" lon="11.094445832122977"><ele>595.75</ele><time>2026-04-08T09:00:01Z</time></trkpt><trkpt lat="45.56461802418764" lon="11.09454011222358"><ele>597.5</ele><time>2026-04-08T09:00:02Z</time></trkpt><trkpt lat="45.56472520925319" lon="11.094593464277585"><ele>599.25</ele><time>2026-04-08T09:00:03Z</time></trkpt><trkpt lat="45.56483403309157" lon="11.094647996718287"><ele>601.0</ele><time>2026-04-08T09:00:04Z</time></trkpt><trkpt lat="45.5649461250192" lon="11.094720933038033"><ele>601.0</ele><time>2026-04-08T09:00:05Z</time></trkpt><trkpt lat="45.56503894608284" lon="11.09476628381597"><ele>601.0</ele><time>2026-04-08T09:00:06Z</time></trkpt><trkpt lat="45.565121704295606" lon="11.094805215336764"><ele>601.0</ele><time>2026-04-08T09:00:07Z</time></trkpt><trkpt lat="45.56521356517981" lon="11.094832307080399"><ele>601.0</ele><time>2026-04-08T09:00:08Z</time></trkpt><trkpt lat="45.56532170628141" lon="11.094833502380531"><ele>601.0</ele><time>2026-04-08T09:00:09Z</time></trkpt><trkpt lat="45.56543395678993" lon="11.09486428131029"><ele>601.3333333333334</ele><time>2026-04-08T09:00:10Z</time></trkpt><trkpt lat="45.565531523532606" lon="11.094920216079103"><ele>601.6666666666667</ele><time>2026-04-08T09:00:11Z</time></trkpt><trkpt lat="45.56557748451771" lon="11.095033075949674"><ele>602.0</ele><time>2026-04-08T09:00:12Z</time></trkpt><trkpt lat="45.5656167321727" lon="11.09513136632519"><ele>602.3333333333334</ele><time>2026-04-08T09:00:13Z</time></trkpt><trkpt lat="45.56565093229181" lon="11.09522577824008"><ele>602.6666666666666</ele><time>2026-04-08T09:00:15Z</time></trkpt><trkpt lat="45.56565923777743" lon="11.095332601961912"><ele>603.0</ele><time>2026-04-08T09:00:17Z</time></trkpt><trkpt lat="45.565731936385454" lon="11.095479285928246"><ele>605.0</ele><time>2026-04-08T09:00:19Z</time></trkpt><trkpt lat="45.5658014205322" lon="11.095581051337607"><ele>607.0</ele><time>2026-04-08T09:00:21Z</time></trkpt><trkpt lat="45.56587058418862" lon="11.095682347977952"><ele>609.0</ele><time>2026-04-08T09:00:23Z</time></trkpt><trkpt lat="45.565950990599596" lon="11.095801905924771"><ele>611.0</ele><time>2026-04-08T09:00:25Z</time></trkpt><trkpt lat="45.56599828346265" lon="11.095873324835956"><ele>613.0</ele><time>2026-04-08T09:00:26Z</time></trkpt><trkpt lat="45.56607270974228" lon="11.09598167724358"><ele>614.3333333333334</ele><time>2026-04-08T09:00:27Z</time></trkpt><trkpt lat="45.56612579298016" lon="11.09606106965711"><ele>615.6666666666667</ele><time>2026-04-08T09:00:28Z</time></trkpt><trkpt lat="45.56617349841176" lon="11.0961332424395"><ele>617.0</ele><time>2026-04-08T09:00:29Z</time></trkpt><trkpt lat="45.56621705115205" lon="11.096212546226624"><ele>618.3333333333334</ele><time>2026-04-08T09:00:31Z</time></trkpt><trkpt lat="45.566266584538546" lon="11.09628641575376"><ele>619.6666666666666</ele><time>2026-04-08T09:00:32Z</time></trkpt><trkpt lat="45.56636832779472" lon="11.096399786106536"><ele>621.0</ele><time>2026-04-08T09:00:34Z</time></trkpt><trkpt lat="45.56643349547767" lon="11.096468098395677"><ele>628.3333333333334</ele><time>2026-04-08T09:00:35Z</time></trkpt><trkpt lat="45.56667680952243" lon="11.096801998744118"><ele>635.6666666666667</ele><time>2026-04-08T09:00:36Z</time></trkpt><trkpt lat="45.56674098454733" lon="11.096870091268897"><ele>643.0</ele><time>2026-04-08T09:00:37Z</time></trkpt><trkpt lat="45.56683793430412" lon="11.096880559247802"><ele>643.0</ele><time>2026-04-08T09:00:38Z</time></trkpt><trkpt lat="45.56693191201273" lon="11.096887919186054"><ele>643.0</ele><time>2026-04-08T09:00:39Z</time></trkpt><trkpt lat="45.56700634030141" lon="11.096877643693166"><ele>643.0</ele><time>2026-04-08T09:00:40Z</time></trkpt><trkpt lat="45.567347163135935" lon="11.096112964226162"><ele>639.6666666666667</ele><time>2026-04-08T09:00:42Z</time></trkpt><trkpt lat="45.56742064129233" lon="11.096111220823879"><ele>636.3333333333334</ele><time>2026-04-08T09:00:43Z</time></trkpt><trkpt lat="45.567487161213016" lon="11.096122185949918"><ele>633.0</ele><time>2026-04-08T09:00:44Z</time></trkpt><trkpt lat="45.56759891541864" lon="11.096117185416627"><ele>629.6666666666666</ele><time>2026-04-08T09:00:46Z</time></trkpt><trkpt lat="45.56767527913839" lon="11.096160300700777"><ele>626.3333333333333</ele><time>2026-04-08T09:00:48Z</time></trkpt><trkpt lat="45.567748409897185" lon="11.096150357033425"><ele>623.0</ele><time>2026-04-08T09:00:50Z</time></trkpt><trkpt lat="45.567826120268926" lon="11.09623765716093"><ele>623.0</ele><time>2026-04-08T09:00:52Z</time></trkpt><trkpt lat="45.567895575812635" lon="11.096268771197389"><ele>623.0</ele><time>2026-04-08T09:00:55Z</time></trkpt><trkpt lat="45.56783938791169" lon="11.096193331049482"><ele>623.0</ele><time>2026-04-08T09:01:00Z</time></trkpt><trkpt lat="45.567772546603145" lon="11.096079131264892"><ele>623.0</ele><time>2026-04-08T09:01:02Z</time></trkpt><trkpt lat="45.567700807022675" lon="11.096003770930372"><ele>623.0</ele><time>2026-04-08T09:01:05.001Z</time></trkpt><trkpt lat="45.56761301147161" lon="11.095902300265891"><ele>623.0</ele><time>2026-04-08T09:01:07.001Z</time></trkpt><trkpt lat="45.56758082111404" lon="11.095812879355936"><ele>623.0</ele><time>2026-04-08T09:01:09.001Z</time></trkpt><trkpt lat="45.567527242116086" lon="11.09571590094056"><ele>623.0</ele><time>2026-04-08T09:01:11.001Z</time></trkpt><trkpt lat="45.56749100657179" lon="11.095639666593968"><ele>623.0</ele><time>2026-04-08T09:01:12.001Z</time></trkpt><trkpt lat="45.56740689253535" lon="11.095490319135418"><ele>623.0</ele><time>2026-04-08T09:01:14.001Z</time></trkpt><trkpt lat="45.56734692760088" lon="11.095338451167267"><ele>623.5</ele><time>2026-04-08T09:01:16.001Z</time></trkpt><trkpt lat="45.56724670690092" lon="11.095230816160884"><ele>624.0</ele><time>2026-04-08T09:01:18.001Z</time></trkpt><trkpt lat="45.56718327258217" lon="11.095145213791955"><ele>624.5</ele><time>2026-04-08T09:01:19.001Z</time></trkpt><trkpt lat="45.56713406971073" lon="11.095044029662793"><ele>625.0</ele><time>2026-04-08T09:01:20.001Z</time></trkpt><trkpt lat="45.56708610978896" lon="11.09496157977405"><ele>625.5</ele><time>2026-04-08T09:01:21.001Z</time></trkpt><trkpt lat="45.56703668252495" lon="11.09488564538628"><ele>626.0</ele><time>2026-04-08T09:01:22.001Z</time></trkpt><trkpt lat="45.56696940520502" lon="11.094830510718651"><ele>626.0</ele><time>2026-04-08T09:01:23.001Z</time></trkpt><trkpt lat="45.56690999784518" lon="11.09477965581071"><ele>626.0</ele><time>2026-04-08T09:01:24.001Z</time></trkpt><trkpt lat="45.56681713517732" lon="11.094664123021861"><ele>626.0</ele><time>2026-04-08T09:01:26.001Z</time></trkpt><trkpt lat="45.56672076127186" lon="11.094559939310072"><ele>626.0</ele><time>2026-04-08T09:01:28.001Z</time></trkpt><trkpt lat="45.56666049054244" lon="11.094521022579217"><ele>626.0</ele><time>2026-04-08T09:01:29.001Z</time></trkpt><trkpt lat="45.56655801529356" lon="11.094390008708077"><ele>626.0</ele><time>2026-04-08T09:01:31.001Z</time></trkpt><trkpt lat="45.56650992182662" lon="11.094310603518569"><ele>626.0</ele><time>2026-04-08T09:01:32.001Z</time></trkpt><trkpt lat="45.566462422318594" lon="11.094230258542646"><ele>626.0</ele><time>2026-04-08T09:01:33.001Z</time></trkpt><trkpt lat="45.56637958853862" lon="11.094123143561708"><ele>626.0</ele><time>2026-04-08T09:01:35.001Z</time></trkpt><trkpt lat="45.56631893179546" lon="11.09405290036577"><ele>626.0</ele><time>2026-04-08T09:01:36.001Z</time></trkpt><trkpt lat="45.56627611458472" lon="11.093951667886245"><ele>626.0</ele><time>2026-04-08T09:01:37.001Z</time></trkpt><trkpt lat="45.56624528321893" lon="11.093872462192778"><ele>624.5</ele><time>2026-04-08T09:01:38.001Z</time></trkpt><trkpt lat="45.56618484604834" lon="11.093809663054522"><ele>623.0</ele><time>2026-04-08T09:01:39.001Z</time></trkpt><trkpt lat="45.566126813795506" lon="11.093745487104831"><ele>621.5</ele><time>2026-04-08T09:01:40.001Z</time></trkpt><trkpt lat="45.56605517623591" lon="11.093654745339094"><ele>620.0</ele><time>2026-04-08T09:01:41.001Z</time></trkpt><trkpt lat="45.56600593593518" lon="11.09357445430256"><ele>618.5</ele><time>2026-04-08T09:01:42Z</time></trkpt><trkpt lat="45.565962760126055" lon="11.093490575079002"><ele>617.0</ele><time>2026-04-08T09:01:43Z</time></trkpt><trkpt lat="45.56591355648414" lon="11.093402473087611"><ele>620.25</ele><time>2026-04-08T09:01:44Z</time></trkpt><trkpt lat="45.56586623244613" lon="11.093241200367483"><ele>623.5</ele><time>2026-04-08T09:01:46Z</time></trkpt><trkpt lat="45.56577606293549" lon="11.093080401091377"><ele>626.75</ele><time>2026-04-08T09:01:48Z</time></trkpt><trkpt lat="45.565709004696124" lon="11.092916375718065"><ele>630.0</ele><time>2026-04-08T09:01:50Z</time></trkpt><trkpt lat="45.56565879429463" lon="11.092770686368782"><ele>630.0</ele><time>2026-04-08T09:01:52Z</time></trkpt><trkpt lat="45.56563339421653" lon="11.092683691337362"><ele>630.0</ele><time>2026-04-08T09:01:53Z</time></trkpt><trkpt lat="45.56561134581444" lon="11.092594548830647"><ele>630.0</ele><time>2026-04-08T09:01:54Z</time></trkpt><trkpt lat="45.56561083539732" lon="11.092415025213676"><ele>630.0</ele><time>2026-04-08T09:01:56Z</time></trkpt><trkpt lat="45.565598180557" lon="11.09232159489008"><ele>630.0</ele><time>2026-04-08T09:01:57Z</time></trkpt><trkpt lat="45.5656164151067" lon="11.092199767046782"><ele>630.0</ele><time>2026-04-08T09:01:59Z</time></trkpt><trkpt lat="45.56564050768336" lon="11.09211199974268"><ele>630.6</ele><time>2026-04-08T09:02:00Z</time></trkpt><trkpt lat="45.56567566432203" lon="11.092025725071872"><ele>631.2</ele><time>2026-04-08T09:02:01Z</time></trkpt><trkpt lat="45.56570161204005" lon="11.091852553215656"><ele>631.8</ele><time>2026-04-08T09:02:03Z</time></trkpt><trkpt lat="45.56567530796143" lon="11.091739887948362"><ele>632.4</ele><time>2026-04-08T09:02:04Z</time></trkpt><trkpt lat="45.56568704360049" lon="11.091601116116289"><ele>633.0</ele><time>2026-04-08T09:02:06Z</time></trkpt><trkpt lat="45.56571357391733" lon="11.09149344421615"><ele>633.1999999999999</ele><time>2026-04-08T09:02:07Z</time></trkpt><trkpt lat="45.565716334390274" lon="11.091341296578008"><ele>633.4</ele><time>2026-04-08T09:02:09Z</time></trkpt><trkpt lat="45.565722059029675" lon="11.091236409829364"><ele>633.5999999999999</ele><time>2026-04-08T09:02:10Z</time></trkpt><trkpt lat="45.56573590602976" lon="11.091105103426797"><ele>633.8</ele><time>2026-04-08T09:02:11Z</time></trkpt><trkpt lat="45.56574845252547" lon="11.090966473447068"><ele>634.0</ele><time>2026-04-08T09:02:12Z</time></trkpt><trkpt lat="45.565760399605786" lon="11.090838972591458"><ele>633.5</ele><time>2026-04-08T09:02:13Z</time></trkpt><trkpt lat="45.56576752703742" lon="11.090678125994614"><ele>633.0</ele><time>2026-04-08T09:02:14Z</time></trkpt><trkpt lat="45.565791389998985" lon="11.090562635635736"><ele>632.5</ele><time>2026-04-08T09:02:15Z</time></trkpt><trkpt lat="45.565790887118254" lon="11.090447512911101"><ele>632.0</ele><time>2026-04-08T09:02:16Z</time></trkpt><trkpt lat="45.56580198316489" lon="11.090337171880314"><ele>631.5</ele><time>2026-04-08T09:02:17Z</time></trkpt><trkpt lat="45.56583425969463" lon="11.090214864008798"><ele>631.0</ele><time>2026-04-08T09:02:19Z</time></trkpt><trkpt lat="45.56592824717089" lon="11.090164223627665"><ele>631.0</ele><time>2026-04-08T09:02:21Z</time></trkpt><trkpt lat="45.56604412223775" lon="11.090066921479423"><ele>631.0</ele><time>2026-04-08T09:02:23Z</time></trkpt><trkpt lat="45.566106682332254" lon="11.089988221199768"><ele>631.0</ele><time>2026-04-08T09:02:25Z</time></trkpt><trkpt lat="45.566167240504576" lon="11.08982597076096"><ele>631.0</ele><time>2026-04-08T09:02:41Z</time></trkpt><trkpt lat="45.56622327813432" lon="11.089751718935565"><ele>631.0</ele><time>2026-04-08T09:02:42Z</time></trkpt><trkpt lat="45.566282424452375" lon="11.089690370790914"><ele>631.6</ele><time>2026-04-08T09:02:43Z</time></trkpt><trkpt lat="45.5663653230523" lon="11.089650679924835"><ele>632.2</ele><time>2026-04-08T09:02:44Z</time></trkpt><trkpt lat="45.566453150200545" lon="11.089608118137525"><ele>632.8</ele><time>2026-04-08T09:02:45Z</time></trkpt><trkpt lat="45.566561264422624" lon="11.089567877618538"><ele>633.4</ele><time>2026-04-08T09:02:46Z</time></trkpt><trkpt lat="45.566659674924225" lon="11.089521890970834"><ele>634.0</ele><time>2026-04-08T09:02:47Z</time></trkpt><trkpt lat="45.56679626194061" lon="11.0894979271424"><ele>634.0</ele><time>2026-04-08T09:02:49Z</time></trkpt><trkpt lat="45.56689512022782" lon="11.089495971899542"><ele>634.0</ele><time>2026-04-08T09:02:50Z</time></trkpt><trkpt lat="45.567003694319084" lon="11.089464701949627"><ele>634.0</ele><time>2026-04-08T09:02:51Z</time></trkpt><trkpt lat="45.567095347556645" lon="11.089466558173473"><ele>634.0</ele><time>2026-04-08T09:02:52Z</time></trkpt><trkpt lat="45.56718906309638" lon="11.089496313172376"><ele>634.0</ele><time>2026-04-08T09:02:53Z</time></trkpt><trkpt lat="45.56728419107958" lon="11.0895179890922"><ele>635.4</ele><time>2026-04-08T09:02:54Z</time></trkpt><trkpt lat="45.56738118373922" lon="11.089554053925696"><ele>636.8</ele><time>2026-04-08T09:02:55Z</time></trkpt><trkpt lat="45.56748730160093" lon="11.089578313897185"><ele>638.1999999999999</ele><time>2026-04-08T09:02:56Z</time></trkpt><trkpt lat="45.56759276199119" lon="11.089598506640701"><ele>639.5999999999999</ele><time>2026-04-08T09:02:57Z</time></trkpt><trkpt lat="45.56765883361943" lon="11.089607578230545"><ele>641.0</ele><time>2026-04-08T09:02:58Z</time></trkpt><trkpt lat="45.56773997109877" lon="11.089616114578785"><ele>641.0</ele><time>2026-04-08T09:02:59Z</time></trkpt><trkpt lat="45.56793355703938" lon="11.089268792147706"><ele>641.0</ele><time>2026-04-08T09:03:02Z</time></trkpt><trkpt lat="45.56774781815305" lon="11.089167263987115"><ele>641.0</ele><time>2026-04-08T09:03:03Z</time></trkpt><trkpt lat="45.56767580726663" lon="11.089103948066672"><ele>641.0</ele><time>2026-04-08T09:03:04Z</time></trkpt><trkpt lat="45.567604335613005" lon="11.088994542322869"><ele>641.0</ele><time>2026-04-08T09:03:05Z</time></trkpt><trkpt lat="45.56751133269127" lon="11.08890727255353"><ele>641.0</ele><time>2026-04-08T09:03:06Z</time></trkpt><trkpt lat="45.56740565192593" lon="11.088844996205768"><ele>641.0</ele><time>2026-04-08T09:03:07Z</time></trkpt><trkpt lat="45.56728637483132" lon="11.088773155715849"><ele>639.75</ele><time>2026-04-08T09:03:08Z</time></trkpt><trkpt lat="45.56718219479693" lon="11.088696588845549"><ele>638.5</ele><time>2026-04-08T09:03:09Z</time></trkpt><trkpt lat="45.567058672235085" lon="11.088672103637006"><ele>637.25</ele><time>2026-04-08T09:03:10Z</time></trkpt><trkpt lat="45.56694405389549" lon="11.088637521134551"><ele>636.0</ele><time>2026-04-08T09:03:11Z</time></trkpt><trkpt lat="45.56683650533916" lon="11.088607808131036"><ele>636.0</ele><time>2026-04-08T09:03:12Z</time></trkpt><trkpt lat="45.566749990320474" lon="11.088533234119783"><ele>636.0</ele><time>2026-04-08T09:03:13Z</time></trkpt><trkpt lat="45.56665775910178" lon="11.088430239689053"><ele>636.0</ele><time>2026-04-08T09:03:14Z</time></trkpt><trkpt lat="45.56657592577526" lon="11.088302570905375"><ele>636.0</ele><time>2026-04-08T09:03:15Z</time></trkpt><trkpt lat="45.5665191833126" lon="11.088160884293494"><ele>638.5</ele><time>2026-04-08T09:03:16Z</time></trkpt><trkpt lat="45.56647198710211" lon="11.087998800368343"><ele>641.0</ele><time>2026-04-08T09:03:17Z</time></trkpt><trkpt lat="45.566432343495734" lon="11.087839266208373"><ele>643.5</ele><time>2026-04-08T09:03:18Z</time></trkpt><trkpt lat="45.56640301738886" lon="11.087680521393288"><ele>646.0</ele><time>2026-04-08T09:03:19Z</time></trkpt><trkpt lat="45.56638955715248" lon="11.087531296575632"><ele>644.1999999999999</ele><time>2026-04-08T09:03:20Z</time></trkpt><trkpt lat="45.56640945696892" lon="11.087388472806044"><ele>642.4</ele><time>2026-04-08T09:03:21Z</time></trkpt><trkpt lat="45.56640908969651" lon="11.087222659185331"><ele>640.6</ele><time>2026-04-08T09:03:22Z</time></trkpt><trkpt lat="45.5664368719209" lon="11.087079154592574"><ele>638.8</ele><time>2026-04-08T09:03:23Z</time></trkpt><trkpt lat="45.566471485943694" lon="11.086952406375717"><ele>637.0</ele><time>2026-04-08T09:03:24Z</time></trkpt><trkpt lat="45.5665452443256" lon="11.086868906407878"><ele>637.0</ele><time>2026-04-08T09:03:25Z</time></trkpt><trkpt lat="45.566622825808544" lon="11.086757393527405"><ele>637.0</ele><time>2026-04-08T09:03:26Z</time></trkpt><trkpt lat="45.56669953524136" lon="11.086673442506664"><ele>637.0</ele><time>2026-04-08T09:03:27.001Z</time></trkpt><trkpt lat="45.56678051712625" lon="11.08661096499695"><ele>637.0</ele><time>2026-04-08T09:03:28.001Z</time></trkpt><trkpt lat="45.56685131255148" lon="11.08663716252372"><ele>637.0</ele><time>2026-04-08T09:03:29.001Z</time></trkpt><trkpt lat="45.56695019330996" lon="11.086639092228515"><ele>637.0</ele><time>2026-04-08T09:03:30.001Z</time></trkpt><trkpt lat="45.56702418979954" lon="11.086624634732019"><ele>637.0</ele><time>2026-04-08T09:03:31.001Z</time></trkpt><trkpt lat="45.56709857734568" lon="11.086573026423698"><ele>637.0</ele><time>2026-04-08T09:03:32.001Z</time></trkpt><trkpt lat="45.56717077796298" lon="11.086522069866891"><ele>637.0</ele><time>2026-04-08T09:03:33.001Z</time></trkpt><trkpt lat="45.56724703789443" lon="11.086459467221966"><ele>637.0</ele><time>2026-04-08T09:03:34.001Z</time></trkpt><trkpt lat="45.56728264059335" lon="11.086344542972673"><ele>637.0</ele><time>2026-04-08T09:03:35.001Z</time></trkpt><trkpt lat="45.567291385754885" lon="11.08622842167432"><ele>639.6</ele><time>2026-04-08T09:03:36.001Z</time></trkpt><trkpt lat="45.5672799807861" lon="11.086107422430048"><ele>642.2</ele><time>2026-04-08T09:03:37.001Z</time></trkpt><trkpt lat="45.567272300154926" lon="11.08597723809163"><ele>644.8</ele><time>2026-04-08T09:03:38.001Z</time></trkpt><trkpt lat="45.5672278871668" lon="11.085815694605001"><ele>647.4</ele><time>2026-04-08T09:03:39.001Z</time></trkpt><trkpt lat="45.56715573843066" lon="11.085696790091388"><ele>650.0</ele><time>2026-04-08T09:03:40.001Z</time></trkpt><trkpt lat="45.56708089507605" lon="11.085582521132297"><ele>647.2</ele><time>2026-04-08T09:03:41.001Z</time></trkpt><trkpt lat="45.56700056421502" lon="11.085457167923545"><ele>644.4</ele><time>2026-04-08T09:03:42.001Z</time></trkpt><trkpt lat="45.566952696307965" lon="11.085356998338794"><ele>641.6</ele><time>2026-04-08T09:03:43.001Z</time></trkpt><trkpt lat="45.56689845145025" lon="11.085238062625208"><ele>638.8</ele><time>2026-04-08T09:03:45.001Z</time></trkpt><trkpt lat="45.56684572712414" lon="11.085104706631249"><ele>636.0</ele><time>2026-04-08T09:03:47.001Z</time></trkpt><trkpt lat="45.56682319791469" lon="11.084989152631534"><ele>636.5</ele><time>2026-04-08T09:03:48Z</time></trkpt><trkpt lat="45.56678237485616" lon="11.084865731236404"><ele>637.0</ele><time>2026-04-08T09:03:49Z</time></trkpt><trkpt lat="45.56674998784437" lon="11.084748646591365"><ele>637.5</ele><time>2026-04-08T09:03:50Z</time></trkpt><trkpt lat="45.56672097908055" lon="11.084661100536565"><ele>638.0</ele><time>2026-04-08T09:03:51Z</time></trkpt><trkpt lat="45.56671242355057" lon="11.08454547813698"><ele>638.5</ele><time>2026-04-08T09:03:52Z</time></trkpt><trkpt lat="45.56669632769925" lon="11.084436304959846"><ele>639.0</ele><time>2026-04-08T09:03:53Z</time></trkpt><trkpt lat="45.56666708258323" lon="11.084325620131956"><ele>639.0</ele><time>2026-04-08T09:03:54Z</time></trkpt><trkpt lat="45.56666846811705" lon="11.084178729290404"><ele>639.0</ele><time>2026-04-08T09:03:55Z</time></trkpt><trkpt lat="45.566694432530454" lon="11.084023530731443"><ele>639.0</ele><time>2026-04-08T09:03:56Z</time></trkpt><trkpt lat="45.5667043550978" lon="11.083889848281519"><ele>639.0</ele><time>2026-04-08T09:03:57Z</time></trkpt><trkpt lat="45.566708696062456" lon="11.083758688680394"><ele>639.0</ele><time>2026-04-08T09:03:58Z</time></trkpt><trkpt lat="45.56668935078109" lon="11.083588070329046"><ele>638.6</ele><time>2026-04-08T09:03:59Z</time></trkpt><trkpt lat="45.566692944341014" lon="11.083420221528062"><ele>638.2</ele><time>2026-04-08T09:04:00Z</time></trkpt><trkpt lat="45.566711987710164" lon="11.083283470808945"><ele>637.8000000000001</ele><time>2026-04-08T09:04:01Z</time></trkpt><trkpt lat="45.566743092634866" lon="11.083144156683197"><ele>637.4</ele><time>2026-04-08T09:04:02Z</time></trkpt><trkpt lat="45.566780888646" lon="11.083010587053558"><ele>637.0</ele><time>2026-04-08T09:04:03Z</time></trkpt><trkpt lat="45.56682161065437" lon="11.08287795574686"><ele>636.2</ele><time>2026-04-08T09:04:04Z</time></trkpt><trkpt lat="45.56687758949265" lon="11.082729931486066"><ele>635.4000000000001</ele><time>2026-04-08T09:04:05Z</time></trkpt><trkpt lat="45.56691259270128" lon="11.082561058491864"><ele>634.5999999999999</ele><time>2026-04-08T09:04:06Z</time></trkpt><trkpt lat="45.566922538725755" lon="11.082405619604899"><ele>633.8</ele><time>2026-04-08T09:04:07Z</time></trkpt><trkpt lat="45.566933263911345" lon="11.082293766320008"><ele>633.0</ele><time>2026-04-08T09:04:08Z</time></trkpt><trkpt lat="45.566928799074475" lon="11.082186747477397"><ele>634.5999999999999</ele><time>2026-04-08T09:04:09Z</time></trkpt><trkpt lat="45.56696963803159" lon="11.082076149167014"><ele>636.1999999999999</ele><time>2026-04-08T09:04:10Z</time></trkpt><trkpt lat="45.567010996851586" lon="11.081955282879104"><ele>637.8</ele><time>2026-04-08T09:04:11Z</time></trkpt><trkpt lat="45.56707009212967" lon="11.081806821234421"><ele>639.4</ele><time>2026-04-08T09:04:12Z</time></trkpt><trkpt lat="45.56714185329377" lon="11.081682674096035"><ele>641.0</ele><time>2026-04-08T09:04:13Z</time></trkpt><trkpt lat="45.56723111735311" lon="11.081591625471818"><ele>642.5</ele><time>2026-04-08T09:04:14Z</time></trkpt><trkpt lat="45.56731923470366" lon="11.081538858720657"><ele>644.0</ele><time>2026-04-08T09:04:15Z</time></trkpt><trkpt lat="45.567385982759205" lon="11.081471890365108"><ele>645.5</ele><time>2026-04-08T09:04:16Z</time></trkpt><trkpt lat="45.567444407602906" lon="11.08139648758386"><ele>647.0</ele><time>2026-04-08T09:04:17Z</time></trkpt><trkpt lat="45.56752005724409" lon="11.081307605925828"><ele>648.5</ele><time>2026-04-08T09:04:19Z</time></trkpt><trkpt lat="45.56757919047439" lon="11.081206136357828"><ele>650.0</ele><time>2026-04-08T09:04:21Z</time></trkpt><trkpt lat="45.56764399068214" lon="11.081113250806007"><ele>650.0</ele><time>2026-04-08T09:04:23Z</time></trkpt><trkpt lat="45.567804643171314" lon="11.081152702559503"><ele>650.0</ele><time>2026-04-08T09:04:25Z</time></trkpt><trkpt lat="45.56789384220799" lon="11.081125486784455"><ele>650.0</ele><time>2026-04-08T09:04:27Z</time></trkpt><trkpt lat="45.56797109298567" lon="11.081112986997445"><ele>650.0</ele><time>2026-04-08T09:04:30Z</time></trkpt><trkpt lat="45.568040062082666" lon="11.081085431910154"><ele>650.0</ele><time>2026-04-08T09:04:32Z</time></trkpt><trkpt lat="45.56812457776329" lon="11.081081120112431"><ele>650.0</ele><time>2026-04-08T09:04:34Z</time></trkpt><trkpt lat="45.56818866002291" lon="11.081052201825083"><ele>650.0</ele><time>2026-04-08T09:04:36Z</time></trkpt><trkpt lat="45.56826159064078" lon="11.08105387857191"><ele>650.0</ele><time>2026-04-08T09:04:39Z</time></trkpt><trkpt lat="45.568357947297294" lon="11.081069379566955"><ele>650.0</ele><time>2026-04-08T09:04:46Z</time></trkpt><trkpt lat="45.56842406935022" lon="11.081039289446291"><ele>650.0</ele><time>2026-04-08T09:04:53Z</time></trkpt><trkpt lat="45.56848872139633" lon="11.081036942749872"><ele>650.0</ele><time>2026-04-08T09:04:59Z</time></trkpt><trkpt lat="45.56856809820764" lon="11.081071784413721"><ele>650.0</ele><time>2026-04-08T09:05:09Z</time></trkpt><trkpt lat="45.56864063693687" lon="11.081125751913897"><ele>650.0</ele><time>2026-04-08T09:05:14Z</time></trkpt><trkpt lat="45.56870308234525" lon="11.081144484788867"><ele>650.0</ele><time>2026-04-08T09:05:18Z</time></trkpt><trkpt lat="45.56877282908565" lon="11.081171618408462"><ele>650.0</ele><time>2026-04-08T09:05:22Z</time></trkpt><trkpt lat="45.56885925558743" lon="11.081187396362722"><ele>650.0</ele><time>2026-04-08T09:06:03.999Z</time></trkpt><trkpt lat="45.5690265973279" lon="11.081209835694233"><ele>652.5</ele><time>2026-04-08T09:07:30Z</time></trkpt><trkpt lat="45.569135594176835" lon="11.081191145996991"><ele>655.0</ele><time>2026-04-08T09:10:02.001Z</time></trkpt><trkpt lat="45.56921474103456" lon="11.081161485578809"><ele>657.5</ele><time>2026-04-08T09:10:31Z</time></trkpt><trkpt lat="45.56947124982149" lon="11.081180159266756"><ele>660.0</ele><time>2026-04-08T09:10:43Z</time></trkpt><trkpt lat="45.56954135470173" lon="11.081202746461758"><ele>662.0</ele><time>2026-04-08T09:10:46Z</time></trkpt><trkpt lat="45.56959387509654" lon="11.081289954833055"><ele>664.0</ele><time>2026-04-08T09:10:48Z</time></trkpt><trkpt lat="45.5696654342894" lon="11.081357333739343"><ele>666.0</ele><time>2026-04-08T09:10:51Z</time></trkpt><trkpt lat="45.569749770116196" lon="11.081327832830263"><ele>668.0</ele><time>2026-04-08T09:10:54Z</time></trkpt><trkpt lat="45.56980567076278" lon="11.081376569959751"><ele>670.0</ele><time>2026-04-08T09:10:57Z</time></trkpt><trkpt lat="45.569963456805745" lon="11.081343766765704"><ele>669.9999999999999</ele><time>2026-04-08T09:11:05Z</time></trkpt><trkpt lat="45.570028592694776" lon="11.081340656318776"><ele>670.0</ele><time>2026-04-08T09:11:07Z</time></trkpt><trkpt lat="45.57010298438789" lon="11.081325834454159"><ele>670.0</ele><time>2026-04-08T09:11:09Z</time></trkpt><trkpt lat="45.570161556711" lon="11.081291849545321"><ele>670.0</ele><time>2026-04-08T09:11:15.001Z</time></trkpt><trkpt lat="45.57021107035554" lon="11.081367204494084"><ele>670.0</ele><time>2026-04-08T09:11:26.001Z</time></trkpt><trkpt lat="45.57029702087952" lon="11.081386111144843"><ele>669.9999999999999</ele><time>2026-04-08T09:11:28.001Z</time></trkpt><trkpt lat="45.57038199545806" lon="11.081388470358815"><ele>670.0</ele><time>2026-04-08T09:11:30.001Z</time></trkpt><trkpt lat="45.570468625715066" lon="11.08138232352846"><ele>671.2</ele><time>2026-04-08T09:11:33.001Z</time></trkpt><trkpt lat="45.57055645700486" lon="11.081368748977187"><ele>672.4</ele><time>2026-04-08T09:11:35.001Z</time></trkpt><trkpt lat="45.570651768859264" lon="11.081336301099576"><ele>673.5999999999999</ele><time>2026-04-08T09:11:37.001Z</time></trkpt><trkpt lat="45.57073967873888" lon="11.081298494560938"><ele>674.8</ele><time>2026-04-08T09:11:39.001Z</time></trkpt><trkpt lat="45.570815028162286" lon="11.081280213985155"><ele>676.0</ele><time>2026-04-08T09:11:41.001Z</time></trkpt><trkpt lat="45.57105050746228" lon="11.081277880242434"><ele>676.0</ele><time>2026-04-08T09:11:48.001Z</time></trkpt><trkpt lat="45.57112007181492" lon="11.081227986083682"><ele>676.0</ele><time>2026-04-08T09:11:51.001Z</time></trkpt><trkpt lat="45.57122363682763" lon="11.081198725561068"><ele>676.0</ele><time>2026-04-08T09:11:55.001Z</time></trkpt><trkpt lat="45.57129222645903" lon="11.081215313997873"><ele>676.0</ele><time>2026-04-08T09:11:57.001Z</time></trkpt><trkpt lat="45.57135720134039" lon="11.081201274395921"><ele>676.0</ele><time>2026-04-08T09:12:01.001Z</time></trkpt><trkpt lat="45.57144613298536" lon="11.081179443663453"><ele>676.0</ele><time>2026-04-08T09:12:05.001Z</time></trkpt><trkpt lat="45.57151408669612" lon="11.081180084540556"><ele>676.5</ele><time>2026-04-08T09:12:10.001Z</time></trkpt><trkpt lat="45.571609439764806" lon="11.0811672800739"><ele>677.0</ele><time>2026-04-08T09:12:13Z</time></trkpt><trkpt lat="45.57168483786569" lon="11.081170558010331"><ele>677.5</ele><time>2026-04-08T09:12:16Z</time></trkpt><trkpt lat="45.57174307495094" lon="11.081133169135894"><ele>678.0</ele><time>2026-04-08T09:12:18Z</time></trkpt><trkpt lat="45.57181107076063" lon="11.081123538281227"><ele>678.5</ele><time>2026-04-08T09:12:21Z</time></trkpt><trkpt lat="45.571881171744515" lon="11.081082861671215"><ele>679.0</ele><time>2026-04-08T09:12:22Z</time></trkpt><trkpt lat="45.57198228324194" lon="11.081033773867004"><ele>679.5</ele><time>2026-04-08T09:12:24Z</time></trkpt><trkpt lat="45.57204991963113" lon="11.080994823233123"><ele>680.0</ele><time>2026-04-08T09:12:26Z</time></trkpt><trkpt lat="45.5721193441223" lon="11.080872131034347"><ele>680.5</ele><time>2026-04-08T09:12:28Z</time></trkpt><trkpt lat="45.572187527199596" lon="11.080847480844824"><ele>681.0</ele><time>2026-04-08T09:12:30Z</time></trkpt><trkpt lat="45.57225824731545" lon="11.08082348112671"><ele>681.5</ele><time>2026-04-08T09:13:34.001Z</time></trkpt><trkpt lat="45.57233611865832" lon="11.08075631821559"><ele>682.0</ele><time>2026-04-08T09:13:46.001Z</time></trkpt><trkpt lat="45.57242726954751" lon="11.080708573354036"><ele>685.3333333333334</ele><time>2026-04-08T09:13:48.001Z</time></trkpt><trkpt lat="45.57248059165624" lon="11.080592798394296"><ele>688.6666666666667</ele><time>2026-04-08T09:13:50.001Z</time></trkpt><trkpt lat="45.572540037278685" lon="11.080485722242019"><ele>692.0</ele><time>2026-04-08T09:13:52.001Z</time></trkpt><trkpt lat="45.572594786057195" lon="11.080431004264616"><ele>695.3333333333334</ele><time>2026-04-08T09:13:53.001Z</time></trkpt><trkpt lat="45.572644975065444" lon="11.080344782048787"><ele>698.6666666666666</ele><time>2026-04-08T09:13:55.001Z</time></trkpt><trkpt lat="45.57266346226879" lon="11.080217673384093"><ele>702.0</ele><time>2026-04-08T09:14:15.001Z</time></trkpt><trkpt lat="45.572694189201854" lon="11.080135747209862"><ele>702.0</ele><time>2026-04-08T09:15:08.001Z</time></trkpt><trkpt lat="45.57272973327972" lon="11.080041130231226"><ele>702.0</ele><time>2026-04-08T09:15:12.001Z</time></trkpt><trkpt lat="45.57277633512445" lon="11.079939879571088"><ele>702.0</ele><time>2026-04-08T09:15:15.001Z</time></trkpt><trkpt lat="45.57277745456394" lon="11.07981192255923"><ele>702.0</ele><time>2026-04-08T09:15:18.001Z</time></trkpt><trkpt lat="45.57274780132075" lon="11.07970591457062"><ele>702.0</ele><time>2026-04-08T09:15:21.001Z</time></trkpt><trkpt lat="45.57273499646459" lon="11.07956981656666"><ele>702.0</ele><time>2026-04-08T09:15:24.001Z</time></trkpt><trkpt lat="45.572730384563016" lon="11.079475004162449"><ele>705.1666666666666</ele><time>2026-04-08T09:15:29.001Z</time></trkpt><trkpt lat="45.57270687473782" lon="11.079369098185706"><ele>708.3333333333334</ele><time>2026-04-08T09:15:34.001Z</time></trkpt><trkpt lat="45.57270105994413" lon="11.079256907707995"><ele>711.5</ele><time>2026-04-08T09:15:37.001Z</time></trkpt><trkpt lat="45.572695379745895" lon="11.079138896719545"><ele>714.6666666666667</ele><time>2026-04-08T09:15:40.001Z</time></trkpt><trkpt lat="45.57270883261793" lon="11.079022636380117"><ele>717.8333333333334</ele><time>2026-04-08T09:15:43.001Z</time></trkpt><trkpt lat="45.572740169621014" lon="11.07889274312549"><ele>721.0</ele><time>2026-04-08T09:15:46.001Z</time></trkpt><trkpt lat="45.57276776323256" lon="11.078810070385707"><ele>723.6666666666667</ele><time>2026-04-08T09:15:49.001Z</time></trkpt><trkpt lat="45.572745137626924" lon="11.078701620359004"><ele>726.3333333333334</ele><time>2026-04-08T09:15:52.001Z</time></trkpt><trkpt lat="45.572759746613954" lon="11.078558508226367"><ele>729.0</ele><time>2026-04-08T09:15:54.001Z</time></trkpt><trkpt lat="45.572778373981265" lon="11.078458253873103"><ele>731.6666666666666</ele><time>2026-04-08T09:15:56.001Z</time></trkpt><trkpt lat="45.57278170313995" lon="11.078319408371955"><ele>734.3333333333333</ele><time>2026-04-08T09:15:58.001Z</time></trkpt><trkpt lat="45.57280861835382" lon="11.07822515752716"><ele>737.0</ele><time>2026-04-08T09:16:00.001Z</time></trkpt><trkpt lat="45.57282268869339" lon="11.078113326486694"><ele>738.5</ele><time>2026-04-08T09:16:02.001Z</time></trkpt><trkpt lat="45.572784861803754" lon="11.078018707867503"><ele>740.0</ele><time>2026-04-08T09:16:05.001Z</time></trkpt><trkpt lat="45.572753578776755" lon="11.077914044818199"><ele>741.5</ele><time>2026-04-08T09:16:08.001Z</time></trkpt><trkpt lat="45.572682585842124" lon="11.077861996487552"><ele>743.0</ele><time>2026-04-08T09:16:10.001Z</time></trkpt><trkpt lat="45.57260526772431" lon="11.07781293448267"><ele>744.5</ele><time>2026-04-08T09:16:12.001Z</time></trkpt><trkpt lat="45.57251453034643" lon="11.077786892831819"><ele>746.0</ele><time>2026-04-08T09:16:14.001Z</time></trkpt><trkpt lat="45.5724297904753" lon="11.077849679020867"><ele>746.0</ele><time>2026-04-08T09:16:16.001Z</time></trkpt><trkpt lat="45.572344402258004" lon="11.077832508995069"><ele>746.0</ele><time>2026-04-08T09:16:18.001Z</time></trkpt><trkpt lat="45.57226887150963" lon="11.077806967845753"><ele>746.0</ele><time>2026-04-08T09:16:20.001Z</time></trkpt><trkpt lat="45.572199846982045" lon="11.077784325064002"><ele>746.0</ele><time>2026-04-08T09:16:23.001Z</time></trkpt><trkpt lat="45.572142943188034" lon="11.077859542410277"><ele>746.0</ele><time>2026-04-08T09:16:25.002Z</time></trkpt><trkpt lat="45.57209276997185" lon="11.077959756397066"><ele>746.0</ele><time>2026-04-08T09:16:37.002Z</time></trkpt><trkpt lat="45.572053481858774" lon="11.078051871263957"><ele>748.5999999999999</ele><time>2026-04-08T09:16:39.001Z</time></trkpt><trkpt lat="45.57198352424014" lon="11.078020591813486"><ele>751.2</ele><time>2026-04-08T09:16:41.001Z</time></trkpt><trkpt lat="45.57191530889907" lon="11.077897209925183"><ele>753.8</ele><time>2026-04-08T09:16:43.001Z</time></trkpt><trkpt lat="45.57181930986554" lon="11.077776816120588"><ele>756.4000000000001</ele><time>2026-04-08T09:16:45.001Z</time></trkpt><trkpt lat="45.571772024335736" lon="11.077693766547501"><ele>759.0</ele><time>2026-04-08T09:16:46.001Z</time></trkpt><trkpt lat="45.57173279500635" lon="11.077572597856458"><ele>759.0</ele><time>2026-04-08T09:16:47.001Z</time></trkpt><trkpt lat="45.571689977604855" lon="11.077457517899335"><ele>759.0</ele><time>2026-04-08T09:16:48.001Z</time></trkpt><trkpt lat="45.571652824565504" lon="11.077325044109351"><ele>759.0</ele><time>2026-04-08T09:16:49.001Z</time></trkpt><trkpt lat="45.57163022528016" lon="11.07721857760209"><ele>759.0</ele><time>2026-04-08T09:16:50.001Z</time></trkpt><trkpt lat="45.57159432178796" lon="11.077084056610559"><ele>759.0</ele><time>2026-04-08T09:16:52.001Z</time></trkpt><trkpt lat="45.57164630051109" lon="11.076959638645032"><ele>760.1666666666666</ele><time>2026-04-08T09:16:53.001Z</time></trkpt><trkpt lat="45.57161080464893" lon="11.076854618924774"><ele>761.3333333333334</ele><time>2026-04-08T09:16:56.001Z</time></trkpt><trkpt lat="45.57159600823347" lon="11.076718954196656"><ele>762.5</ele><time>2026-04-08T09:16:58.001Z</time></trkpt><trkpt lat="45.57157514312674" lon="11.076598698909155"><ele>763.6666666666667</ele><time>2026-04-08T09:17:00.001Z</time></trkpt><trkpt lat="45.57149344275493" lon="11.076576459125926"><ele>764.8333333333334</ele><time>2026-04-08T09:17:17.001Z</time></trkpt><trkpt lat="45.5714204336256" lon="11.076602175765727"><ele>766.0</ele><time>2026-04-08T09:17:18.001Z</time></trkpt><trkpt lat="45.571333229796736" lon="11.076653748510813"><ele>766.0</ele><time>2026-04-08T09:17:19.001Z</time></trkpt><trkpt lat="45.571230391808655" lon="11.076693366892641"><ele>766.0</ele><time>2026-04-08T09:17:20.001Z</time></trkpt><trkpt lat="45.57111259792153" lon="11.076682734875659"><ele>766.0</ele><time>2026-04-08T09:17:21.001Z</time></trkpt><trkpt lat="45.57100024230146" lon="11.07661183932025"><ele>766.0</ele><time>2026-04-08T09:17:22.001Z</time></trkpt><trkpt lat="45.57088654489503" lon="11.076517590762522"><ele>767.3333333333334</ele><time>2026-04-08T09:17:23.001Z</time></trkpt><trkpt lat="45.57075646113232" lon="11.07641905063335"><ele>768.6666666666667</ele><time>2026-04-08T09:17:24.001Z</time></trkpt><trkpt lat="45.57061381704763" lon="11.076327245409791"><ele>770.0</ele><time>2026-04-08T09:17:25.001Z</time></trkpt><trkpt lat="45.570471343265915" lon="11.076266761241637"><ele>766.75</ele><time>2026-04-08T09:17:26.001Z</time></trkpt><trkpt lat="45.57033213801382" lon="11.076221723825453"><ele>763.5</ele><time>2026-04-08T09:17:27.001Z</time></trkpt><trkpt lat="45.570195036894276" lon="11.076196608787827"><ele>760.25</ele><time>2026-04-08T09:17:28.001Z</time></trkpt><trkpt lat="45.57004495904964" lon="11.076200055677369"><ele>757.0</ele><time>2026-04-08T09:17:29.001Z</time></trkpt><trkpt lat="45.56989851450222" lon="11.076170173105666"><ele>757.0</ele><time>2026-04-08T09:17:30.001Z</time></trkpt><trkpt lat="45.56976826367835" lon="11.076188567290991"><ele>757.0</ele><time>2026-04-08T09:17:31.001Z</time></trkpt><trkpt lat="45.569647342497404" lon="11.076196787928263"><ele>757.0</ele><time>2026-04-08T09:17:32.001Z</time></trkpt><trkpt lat="45.56954897645701" lon="11.076203358605108"><ele>757.0</ele><time>2026-04-08T09:17:33.001Z</time></trkpt><trkpt lat="45.569441035345825" lon="11.076203858781124"><ele>754.0</ele><time>2026-04-08T09:17:34.001Z</time></trkpt><trkpt lat="45.56931354351643" lon="11.076214683438804"><ele>751.0</ele><time>2026-04-08T09:17:35.001Z</time></trkpt><trkpt lat="45.56917568078864" lon="11.076235421152978"><ele>748.0</ele><time>2026-04-08T09:17:36.001Z</time></trkpt><trkpt lat="45.56904983925752" lon="11.076263503611038"><ele>745.0</ele><time>2026-04-08T09:17:37.001Z</time></trkpt><trkpt lat="45.56891982153117" lon="11.076302810931443"><ele>745.0</ele><time>2026-04-08T09:17:38.001Z</time></trkpt><trkpt lat="45.56878063887917" lon="11.076309952443925"><ele>745.0</ele><time>2026-04-08T09:17:39.001Z</time></trkpt><trkpt lat="45.56865021482799" lon="11.07635648513711"><ele>745.0</ele><time>2026-04-08T09:17:40.001Z</time></trkpt><trkpt lat="45.56851840744419" lon="11.076417595796862"><ele>745.0</ele><time>2026-04-08T09:17:41.001Z</time></trkpt><trkpt lat="45.5683596756319" lon="11.076429915027381"><ele>741.4</ele><time>2026-04-08T09:17:42.001Z</time></trkpt><trkpt lat="45.568230062441145" lon="11.076470177426575"><ele>737.8</ele><time>2026-04-08T09:17:43.001Z</time></trkpt><trkpt lat="45.56813020105065" lon="11.0764750991294"><ele>734.2</ele><time>2026-04-08T09:17:44.001Z</time></trkpt><trkpt lat="45.5680346638173" lon="11.076458454628996"><ele>730.6</ele><time>2026-04-08T09:17:45.001Z</time></trkpt><trkpt lat="45.56795049744724" lon="11.07642262502659"><ele>727.0</ele><time>2026-04-08T09:17:46.001Z</time></trkpt><trkpt lat="45.56788565071177" lon="11.076352284985694"><ele>725.2</ele><time>2026-04-08T09:17:47.001Z</time></trkpt><trkpt lat="45.567826536507184" lon="11.076235538167731"><ele>723.4000000000001</ele><time>2026-04-08T09:17:48.001Z</time></trkpt><trkpt lat="45.56777307239638" lon="11.076129862860286"><ele>721.5999999999999</ele><time>2026-04-08T09:17:49.001Z</time></trkpt><trkpt lat="45.567701136651614" lon="11.07606500673482"><ele>719.8</ele><time>2026-04-08T09:17:50.001Z</time></trkpt><trkpt lat="45.56762503628356" lon="11.076045851570811"><ele>718.0</ele><time>2026-04-08T09:17:51.001Z</time></trkpt><trkpt lat="45.567533157340065" lon="11.075984014584447"><ele>718.0</ele><time>2026-04-08T09:17:53.001Z</time></trkpt><trkpt lat="45.56757990605558" lon="11.075895000079424"><ele>718.0</ele><time>2026-04-08T09:17:55.001Z</time></trkpt><trkpt lat="45.567656516207165" lon="11.075884864939079"><ele>718.0</ele><time>2026-04-08T09:17:56.001Z</time></trkpt><trkpt lat="45.56776600077258" lon="11.075863079231578"><ele>718.0</ele><time>2026-04-08T09:17:57.001Z</time></trkpt><trkpt lat="45.56788419547853" lon="11.075838408018443"><ele>718.0</ele><time>2026-04-08T09:17:58.001Z</time></trkpt><trkpt lat="45.56801437506204" lon="11.075793205248543"><ele>720.5999999999999</ele><time>2026-04-08T09:17:59.001Z</time></trkpt><trkpt lat="45.56813150804009" lon="11.075761645345507"><ele>723.1999999999999</ele><time>2026-04-08T09:18:00.001Z</time></trkpt><trkpt lat="45.56822222872163" lon="11.075722713536148"><ele>725.8</ele><time>2026-04-08T09:18:01.001Z</time></trkpt><trkpt lat="45.56829356510988" lon="11.075646580997635"><ele>728.4</ele><time>2026-04-08T09:18:02.001Z</time></trkpt><trkpt lat="45.568333688923204" lon="11.075537302010586"><ele>731.0</ele><time>2026-04-08T09:18:03.001Z</time></trkpt><trkpt lat="45.56835529601477" lon="11.07539323156139"><ele>731.0</ele><time>2026-04-08T09:18:04.001Z</time></trkpt><trkpt lat="45.568354584131065" lon="11.07523816954664"><ele>731.0</ele><time>2026-04-08T09:18:05.001Z</time></trkpt><trkpt lat="45.56831632617818" lon="11.075100283706446"><ele>731.0</ele><time>2026-04-08T09:18:06.001Z</time></trkpt><trkpt lat="45.56824795493898" lon="11.074961426534172"><ele>731.0</ele><time>2026-04-08T09:18:07.001Z</time></trkpt><trkpt lat="45.568159520520986" lon="11.07481925961212"><ele>733.75</ele><time>2026-04-08T09:18:08.001Z</time></trkpt><trkpt lat="45.568084224192845" lon="11.074663377974392"><ele>736.5</ele><time>2026-04-08T09:18:09.001Z</time></trkpt><trkpt lat="45.568008356046434" lon="11.074495279752835"><ele>739.25</ele><time>2026-04-08T09:18:10.001Z</time></trkpt><trkpt lat="45.56793367239801" lon="11.074330256670487"><ele>742.0</ele><time>2026-04-08T09:18:11.001Z</time></trkpt><trkpt lat="45.56785979976241" lon="11.074167245511653"><ele>738.25</ele><time>2026-04-08T09:18:12.001Z</time></trkpt><trkpt lat="45.56779880488115" lon="11.074003160405766"><ele>734.5</ele><time>2026-04-08T09:18:13.001Z</time></trkpt><trkpt lat="45.56775482026973" lon="11.07383012927684"><ele>730.75</ele><time>2026-04-08T09:18:14.001Z</time></trkpt><trkpt lat="45.56772057493952" lon="11.073654078249088"><ele>727.0</ele><time>2026-04-08T09:18:15.001Z</time></trkpt><trkpt lat="45.56769076832681" lon="11.07348050545968"><ele>727.0</ele><time>2026-04-08T09:18:16.001Z</time></trkpt><trkpt lat="45.56767274746518" lon="11.073319350427225"><ele>727.0</ele><time>2026-04-08T09:18:17.001Z</time></trkpt><trkpt lat="45.567672821292334" lon="11.07316429492024"><ele>727.0</ele><time>2026-04-08T09:18:18.001Z</time></trkpt><trkpt lat="45.56769446771624" lon="11.073027894425396"><ele>727.0</ele><time>2026-04-08T09:18:19.001Z</time></trkpt><trkpt lat="45.56774453967501" lon="11.072922641958492"><ele>727.0</ele><time>2026-04-08T09:18:20.001Z</time></trkpt><trkpt lat="45.56781060885338" lon="11.07285496524393"><ele>728.0</ele><time>2026-04-08T09:18:21.001Z</time></trkpt><trkpt lat="45.56789465815034" lon="11.072797484294604"><ele>729.0</ele><time>2026-04-08T09:18:22.001Z</time></trkpt><trkpt lat="45.56799977253104" lon="11.072748202113768"><ele>730.0</ele><time>2026-04-08T09:18:23.001Z</time></trkpt><trkpt lat="45.568118015463256" lon="11.072705336132428"><ele>731.0</ele><time>2026-04-08T09:18:24.001Z</time></trkpt><trkpt lat="45.568248733470256" lon="11.072680700782813"><ele>731.0</ele><time>2026-04-08T09:18:25.001Z</time></trkpt><trkpt lat="45.568397705140185" lon="11.072664003475959"><ele>731.0</ele><time>2026-04-08T09:18:26.001Z</time></trkpt><trkpt lat="45.56854867941075" lon="11.072646369821735"><ele>731.0</ele><time>2026-04-08T09:18:27.001Z</time></trkpt><trkpt lat="45.568701460024386" lon="11.072620201629885"><ele>733.25</ele><time>2026-04-08T09:18:28.001Z</time></trkpt><trkpt lat="45.56885050802282" lon="11.072587276108047"><ele>735.5</ele><time>2026-04-08T09:18:29.001Z</time></trkpt><trkpt lat="45.56899355711536" lon="11.072551939919839"><ele>737.75</ele><time>2026-04-08T09:18:30.002Z</time></trkpt><trkpt lat="45.56912903358154" lon="11.072512597877074"><ele>740.0</ele><time>2026-04-08T09:18:31.002Z</time></trkpt><trkpt lat="45.56925620408222" lon="11.072458323600157"><ele>736.8</ele><time>2026-04-08T09:18:32.002Z</time></trkpt><trkpt lat="45.569376777267415" lon="11.072428113039418"><ele>733.6</ele><time>2026-04-08T09:18:33.002Z</time></trkpt><trkpt lat="45.5694794131319" lon="11.072393667735337"><ele>730.4000000000001</ele><time>2026-04-08T09:18:34.002Z</time></trkpt><trkpt lat="45.56957242332708" lon="11.072349959469223"><ele>727.2</ele><time>2026-04-08T09:18:35.002Z</time></trkpt><trkpt lat="45.56965002276181" lon="11.072296544040356"><ele>724.0</ele><time>2026-04-08T09:18:36.002Z</time></trkpt><trkpt lat="45.56973336335223" lon="11.072223067960609"><ele>724.0</ele><time>2026-04-08T09:18:37.002Z</time></trkpt><trkpt lat="45.5698286030166" lon="11.072126347497678"><ele>724.0</ele><time>2026-04-08T09:18:38.002Z</time></trkpt><trkpt lat="45.56994311043252" lon="11.072071511418963"><ele>724.0</ele><time>2026-04-08T09:18:39.002Z</time></trkpt><trkpt lat="45.570085104439535" lon="11.072042232375622"><ele>724.0</ele><time>2026-04-08T09:18:40.002Z</time></trkpt><trkpt lat="45.57022055133221" lon="11.071993076199343"><ele>726.75</ele><time>2026-04-08T09:18:41.002Z</time></trkpt><trkpt lat="45.57037064447795" lon="11.071959864984503"><ele>729.5</ele><time>2026-04-08T09:18:42.001Z</time></trkpt><trkpt lat="45.57051324323058" lon="11.071945463153076"><ele>732.25</ele><time>2026-04-08T09:18:43.001Z</time></trkpt><trkpt lat="45.57065971407018" lon="11.071915546255022"><ele>735.0</ele><time>2026-04-08T09:18:44.001Z</time></trkpt><trkpt lat="45.57078728394899" lon="11.071862703285463"><ele>735.0</ele><time>2026-04-08T09:18:45.001Z</time></trkpt><trkpt lat="45.570898134718895" lon="11.07180956931393"><ele>735.0</ele><time>2026-04-08T09:18:46.001Z</time></trkpt><trkpt lat="45.570993336500145" lon="11.071772232887046"><ele>735.0</ele><time>2026-04-08T09:18:47.001Z</time></trkpt><trkpt lat="45.57106878083545" lon="11.071742501953626"><ele>735.0</ele><time>2026-04-08T09:18:48.001Z</time></trkpt><trkpt lat="45.571125947660775" lon="11.07169133474053"><ele>735.0</ele><time>2026-04-08T09:18:49.001Z</time></trkpt><trkpt lat="45.571190922083375" lon="11.071594915962933"><ele>735.75</ele><time>2026-04-08T09:18:50.001Z</time></trkpt><trkpt lat="45.57127226194155" lon="11.071472708545837"><ele>736.5</ele><time>2026-04-08T09:18:51.001Z</time></trkpt><trkpt lat="45.57136045413185" lon="11.071359983210417"><ele>737.25</ele><time>2026-04-08T09:18:52.001Z</time></trkpt><trkpt lat="45.571441766182595" lon="11.071246198655125"><ele>738.0</ele><time>2026-04-08T09:18:53.001Z</time></trkpt><trkpt lat="45.57153742378801" lon="11.071162882358383"><ele>738.0</ele><time>2026-04-08T09:18:54.001Z</time></trkpt><trkpt lat="45.57163309157135" lon="11.071072164982679"><ele>738.0</ele><time>2026-04-08T09:18:55.001Z</time></trkpt><trkpt lat="45.57173559246742" lon="11.070993041599523"><ele>738.0</ele><time>2026-04-08T09:18:56.001Z</time></trkpt><trkpt lat="45.57183603242891" lon="11.070927526732682"><ele>738.0</ele><time>2026-04-08T09:18:57.001Z</time></trkpt><trkpt lat="45.571934967608854" lon="11.070882288375937"><ele>738.0</ele><time>2026-04-08T09:18:58.001Z</time></trkpt><trkpt lat="45.572040820034545" lon="11.070848021768716"><ele>738.25</ele><time>2026-04-08T09:18:59.001Z</time></trkpt><trkpt lat="45.57215934498693" lon="11.070830385356446"><ele>738.5</ele><time>2026-04-08T09:19:00.001Z</time></trkpt><trkpt lat="45.57228737426141" lon="11.070831979432466"><ele>738.75</ele><time>2026-04-08T09:19:01.001Z</time></trkpt><trkpt lat="45.572417650464466" lon="11.07088526741576"><ele>739.0</ele><time>2026-04-08T09:19:02.001Z</time></trkpt><trkpt lat="45.572555044585016" lon="11.070924914215277"><ele>739.0</ele><time>2026-04-08T09:19:03.001Z</time></trkpt><trkpt lat="45.57268670916688" lon="11.07093804970796"><ele>739.0</ele><time>2026-04-08T09:19:04.001Z</time></trkpt><trkpt lat="45.572824443379744" lon="11.070964257414083"><ele>739.0</ele><time>2026-04-08T09:19:05.001Z</time></trkpt><trkpt lat="45.57296799537464" lon="11.07096471595795"><ele>739.0</ele><time>2026-04-08T09:19:06.001Z</time></trkpt><trkpt lat="45.573105493570125" lon="11.070953024076312"><ele>738.4000000000001</ele><time>2026-04-08T09:19:07.001Z</time></trkpt><trkpt lat="45.57323200138223" lon="11.070939508960258"><ele>737.8</ele><time>2026-04-08T09:19:08.001Z</time></trkpt><trkpt lat="45.573343535513864" lon="11.070911348102527"><ele>737.2</ele><time>2026-04-08T09:19:09.001Z</time></trkpt><trkpt lat="45.57344395234804" lon="11.07086534184096"><ele>736.5999999999999</ele><time>2026-04-08T09:19:10.001Z</time></trkpt><trkpt lat="45.57352872411057" lon="11.070788967407681"><ele>736.0</ele><time>2026-04-08T09:19:11.001Z</time></trkpt><trkpt lat="45.573594531067606" lon="11.070679533603302"><ele>734.0</ele><time>2026-04-08T09:19:12.001Z</time></trkpt><trkpt lat="45.57364457136677" lon="11.070529426269454"><ele>732.0</ele><time>2026-04-08T09:19:13.001Z</time></trkpt><trkpt lat="45.57372171415139" lon="11.070420394023845"><ele>730.0</ele><time>2026-04-08T09:19:14.001Z</time></trkpt><trkpt lat="45.5738059223659" lon="11.070331897543186"><ele>728.0</ele><time>2026-04-08T09:19:15.001Z</time></trkpt><trkpt lat="45.573906953664796" lon="11.070306256174396"><ele>726.0</ele><time>2026-04-08T09:19:16.001Z</time></trkpt><trkpt lat="45.57400736785059" lon="11.070298403058754"><ele>726.0</ele><time>2026-04-08T09:19:17.001Z</time></trkpt><trkpt lat="45.57409711862877" lon="11.07029419798759"><ele>726.0</ele><time>2026-04-08T09:19:18.001Z</time></trkpt><trkpt lat="45.574165536190854" lon="11.07028011437191"><ele>726.0</ele><time>2026-04-08T09:19:19.001Z</time></trkpt><trkpt lat="45.574253155216326" lon="11.070187223879458"><ele>726.0</ele><time>2026-04-08T09:19:21.001Z</time></trkpt><trkpt lat="45.57423728802492" lon="11.070007882752504"><ele>726.0</ele><time>2026-04-08T09:19:23.001Z</time></trkpt><trkpt lat="45.57419754428562" lon="11.06989480121265"><ele>726.1666666666666</ele><time>2026-04-08T09:19:24.001Z</time></trkpt><trkpt lat="45.57416996416285" lon="11.069786606139646"><ele>726.3333333333334</ele><time>2026-04-08T09:19:25.001Z</time></trkpt><trkpt lat="45.57414480667856" lon="11.069688814471563"><ele>726.5</ele><time>2026-04-08T09:19:26.001Z</time></trkpt><trkpt lat="45.57414560333021" lon="11.06954590492401"><ele>726.6666666666667</ele><time>2026-04-08T09:19:28.001Z</time></trkpt><trkpt lat="45.574188422341685" lon="11.069473468396087"><ele>726.8333333333334</ele><time>2026-04-08T09:19:29.001Z</time></trkpt><trkpt lat="45.57423516488844" lon="11.069378998706968"><ele>727.0</ele><time>2026-04-08T09:19:30.001Z</time></trkpt><trkpt lat="45.57425709444614" lon="11.069276670804701"><ele>727.0</ele><time>2026-04-08T09:19:31.001Z</time></trkpt><trkpt lat="45.57430727041311" lon="11.069155535281725"><ele>727.0</ele><time>2026-04-08T09:19:33.001Z</time></trkpt><trkpt lat="45.574119182215654" lon="11.068978487007287"><ele>727.0</ele><time>2026-04-08T09:19:35.001Z</time></trkpt><trkpt lat="45.57406333159144" lon="11.068891586247315"><ele>727.0</ele><time>2026-04-08T09:19:36.001Z</time></trkpt><trkpt lat="45.574024102506954" lon="11.068792299273785"><ele>728.6</ele><time>2026-04-08T09:19:37.001Z</time></trkpt><trkpt lat="45.57400138170715" lon="11.068657205052158"><ele>730.2</ele><time>2026-04-08T09:19:38.001Z</time></trkpt><trkpt lat="45.573973200215235" lon="11.068509119312711"><ele>731.8</ele><time>2026-04-08T09:19:39.001Z</time></trkpt><trkpt lat="45.57395030858695" lon="11.068356483538427"><ele>733.4</ele><time>2026-04-08T09:19:40.001Z</time></trkpt><trkpt lat="45.57393726716197" lon="11.068203062942603"><ele>735.0</ele><time>2026-04-08T09:19:41.001Z</time></trkpt><trkpt lat="45.57391011009855" lon="11.068041963863687"><ele>736.75</ele><time>2026-04-08T09:19:42.001Z</time></trkpt><trkpt lat="45.57386960942702" lon="11.067881761801575"><ele>738.5</ele><time>2026-04-08T09:19:43.001Z</time></trkpt><trkpt lat="45.573822864401095" lon="11.067732417290046"><ele>740.25</ele><time>2026-04-08T09:19:44.001Z</time></trkpt><trkpt lat="45.57378482428574" lon="11.067580711219543"><ele>742.0</ele><time>2026-04-08T09:19:45.001Z</time></trkpt><trkpt lat="45.573759337965875" lon="11.067424444063208"><ele>743.0</ele><time>2026-04-08T09:19:46.001Z</time></trkpt><trkpt lat="45.573750576137584" lon="11.067265999692808"><ele>744.0</ele><time>2026-04-08T09:19:47.001Z</time></trkpt><trkpt lat="45.573755127271085" lon="11.067107141545828"><ele>745.0</ele><time>2026-04-08T09:19:48.001Z</time></trkpt><trkpt lat="45.573766841520744" lon="11.066938627315015"><ele>746.0</ele><time>2026-04-08T09:19:49.001Z</time></trkpt><trkpt lat="45.573781686963834" lon="11.066779720783561"><ele>746.0</ele><time>2026-04-08T09:19:50.001Z</time></trkpt><trkpt lat="45.57380647649205" lon="11.066638330565834"><ele>746.0</ele><time>2026-04-08T09:19:51.001Z</time></trkpt><trkpt lat="45.57383775187509" lon="11.066500319466016"><ele>746.0</ele><time>2026-04-08T09:19:52.001Z</time></trkpt><trkpt lat="45.573869714101754" lon="11.066389012741682"><ele>746.0</ele><time>2026-04-08T09:19:53.001Z</time></trkpt><trkpt lat="45.57389694103271" lon="11.066304474015013"><ele>746.0</ele><time>2026-04-08T09:19:54.001Z</time></trkpt><trkpt lat="45.57391627832007" lon="11.066204464526987"><ele>746.0</ele><time>2026-04-08T09:19:56.001Z</time></trkpt><trkpt lat="45.57392533074861" lon="11.06609397996517"><ele>745.5</ele><time>2026-04-08T09:19:58.001Z</time></trkpt><trkpt lat="45.57392294341521" lon="11.065933076708353"><ele>745.0</ele><time>2026-04-08T09:20:00.001Z</time></trkpt><trkpt lat="45.573930593023974" lon="11.065816208322367"><ele>744.5</ele><time>2026-04-08T09:20:01.001Z</time></trkpt><trkpt lat="45.57394428091723" lon="11.065692634316147"><ele>744.0</ele><time>2026-04-08T09:20:02.001Z</time></trkpt><trkpt lat="45.57394846631602" lon="11.065557975229954"><ele>743.5</ele><time>2026-04-08T09:20:03.001Z</time></trkpt><trkpt lat="45.57396199693397" lon="11.065459098725253"><ele>743.0</ele><time>2026-04-08T09:20:04.001Z</time></trkpt><trkpt lat="45.573991416147564" lon="11.065367993517311"><ele>742.8333333333333</ele><time>2026-04-08T09:20:05.001Z</time></trkpt><trkpt lat="45.574080844345076" lon="11.06531040531213"><ele>742.6666666666666</ele><time>2026-04-08T09:20:07.001Z</time></trkpt><trkpt lat="45.57414152678083" lon="11.065335671017522"><ele>742.5</ele><time>2026-04-08T09:20:08.001Z</time></trkpt><trkpt lat="45.57422783807601" lon="11.065343437693004"><ele>742.3333333333334</ele><time>2026-04-08T09:20:12.001Z</time></trkpt><trkpt lat="45.57427187925276" lon="11.065410992569007"><ele>742.1666666666667</ele><time>2026-04-08T09:20:14.001Z</time></trkpt><trkpt lat="45.57433668102945" lon="11.065533611271801"><ele>742.0</ele><time>2026-04-08T09:20:16.001Z</time></trkpt><trkpt lat="45.57439873592192" lon="11.065563802205721"><ele>742.0</ele><time>2026-04-08T09:20:17.001Z</time></trkpt><trkpt lat="45.574463456036774" lon="11.065583775394837"><ele>742.0</ele><time>2026-04-08T09:20:18.001Z</time></trkpt><trkpt lat="45.57454937543454" lon="11.065566430642177"><ele>742.0</ele><time>2026-04-08T09:20:19.001Z</time></trkpt><trkpt lat="45.57463624828711" lon="11.065540763408633"><ele>742.0</ele><time>2026-04-08T09:20:20.001Z</time></trkpt><trkpt lat="45.574705464250705" lon="11.06548397124652"><ele>742.0</ele><time>2026-04-08T09:20:21.001Z</time></trkpt><trkpt lat="45.57478526715059" lon="11.06547683029483"><ele>742.0</ele><time>2026-04-08T09:20:22.001Z</time></trkpt><trkpt lat="45.574847163357084" lon="11.065516498018379"><ele>738.6666666666667</ele><time>2026-04-08T09:20:23.001Z</time></trkpt><trkpt lat="45.574912851012584" lon="11.065560376471234"><ele>735.3333333333334</ele><time>2026-04-08T09:20:24.001Z</time></trkpt><trkpt lat="45.57497786847966" lon="11.065590131053835"><ele>732.0</ele><time>2026-04-08T09:20:25.001Z</time></trkpt><trkpt lat="45.57508105785109" lon="11.065593379404548"><ele>728.6666666666666</ele><time>2026-04-08T09:20:26.001Z</time></trkpt><trkpt lat="45.57515197861656" lon="11.065605484056208"><ele>725.3333333333333</ele><time>2026-04-08T09:20:27.001Z</time></trkpt><trkpt lat="45.57524980234205" lon="11.065586655503411"><ele>722.0</ele><time>2026-04-08T09:20:29.001Z</time></trkpt><trkpt lat="45.57526775332227" lon="11.065492715451626"><ele>722.0</ele><time>2026-04-08T09:20:30.001Z</time></trkpt><trkpt lat="45.57530277608244" lon="11.065370415685932"><ele>722.0</ele><time>2026-04-08T09:20:31.001Z</time></trkpt><trkpt lat="45.57535566156102" lon="11.065269814339448"><ele>722.0</ele><time>2026-04-08T09:20:32Z</time></trkpt><trkpt lat="45.57541945329564" lon="11.065175929162942"><ele>722.0</ele><time>2026-04-08T09:20:33Z</time></trkpt><trkpt lat="45.57548128124654" lon="11.065112606286062"><ele>722.0</ele><time>2026-04-08T09:20:34Z</time></trkpt><trkpt lat="45.57554708509194" lon="11.065049878751386"><ele>722.0</ele><time>2026-04-08T09:20:35Z</time></trkpt><trkpt lat="45.57560579810521" lon="11.064968694162799"><ele>721.5</ele><time>2026-04-08T09:20:36.001Z</time></trkpt><trkpt lat="45.57567461744436" lon="11.064913313994541"><ele>721.0</ele><time>2026-04-08T09:20:37.001Z</time></trkpt><trkpt lat="45.575748647712715" lon="11.064857401526083"><ele>720.5</ele><time>2026-04-08T09:20:38.001Z</time></trkpt><trkpt lat="45.575833651873495" lon="11.06481956628993"><ele>720.0</ele><time>2026-04-08T09:20:39.001Z</time></trkpt><trkpt lat="45.57589742867199" lon="11.064825042404072"><ele>719.5</ele><time>2026-04-08T09:20:40.001Z</time></trkpt><trkpt lat="45.57600780390299" lon="11.064821142033152"><ele>719.0</ele><time>2026-04-08T09:20:42.001Z</time></trkpt><trkpt lat="45.576081127432495" lon="11.064725438857044"><ele>719.0</ele><time>2026-04-08T09:20:44.001Z</time></trkpt><trkpt lat="45.57616987106133" lon="11.064702800575699"><ele>719.0</ele><time>2026-04-08T09:20:46.001Z</time></trkpt><trkpt lat="45.57628455572981" lon="11.064691176461078"><ele>719.0</ele><time>2026-04-08T09:20:48.001Z</time></trkpt><trkpt lat="45.57634151413009" lon="11.064582216359984"><ele>719.0</ele><time>2026-04-08T09:20:50.001Z</time></trkpt><trkpt lat="45.57629368430276" lon="11.064441604493242"><ele>719.0</ele><time>2026-04-08T09:20:53.001Z</time></trkpt><trkpt lat="45.57623038260898" lon="11.064358842534872"><ele>718.5</ele><time>2026-04-08T09:20:55.001Z</time></trkpt><trkpt lat="45.57619780855746" lon="11.064250251826415"><ele>718.0</ele><time>2026-04-08T09:20:57.001Z</time></trkpt><trkpt lat="45.57612765129152" lon="11.0641078033191"><ele>717.5</ele><time>2026-04-08T09:20:59.001Z</time></trkpt><trkpt lat="45.57610233697422" lon="11.064003516040156"><ele>717.0</ele><time>2026-04-08T09:21:01.001Z</time></trkpt><trkpt lat="45.57611085698545" lon="11.063908365682776"><ele>716.5</ele><time>2026-04-08T09:21:02.001Z</time></trkpt><trkpt lat="45.57608316206901" lon="11.063779973342884"><ele>716.0</ele><time>2026-04-08T09:21:04.001Z</time></trkpt><trkpt lat="45.57605626762455" lon="11.063691062908545"><ele>716.0</ele><time>2026-04-08T09:21:05.001Z</time></trkpt><trkpt lat="45.57601762755398" lon="11.063611740474437"><ele>716.0</ele><time>2026-04-08T09:21:06.001Z</time></trkpt><trkpt lat="45.576008559292355" lon="11.063511245403395"><ele>716.0</ele><time>2026-04-08T09:21:07.001Z</time></trkpt><trkpt lat="45.57598444084629" lon="11.06338042722513"><ele>716.0</ele><time>2026-04-08T09:21:08.001Z</time></trkpt><trkpt lat="45.57596429494982" lon="11.063270331134438"><ele>716.0</ele><time>2026-04-08T09:21:09.001Z</time></trkpt><trkpt lat="45.57595346662193" lon="11.06315937224767"><ele>716.0</ele><time>2026-04-08T09:21:10.001Z</time></trkpt><trkpt lat="45.57594365735429" lon="11.063051139271336"><ele>715.4285714285714</ele><time>2026-04-08T09:21:11Z</time></trkpt><trkpt lat="45.575928553120036" lon="11.062942176473989"><ele>714.8571428571429</ele><time>2026-04-08T09:21:12Z</time></trkpt><trkpt lat="45.57591203079051" lon="11.062842397651597"><ele>714.2857142857142</ele><time>2026-04-08T09:21:13Z</time></trkpt><trkpt lat="45.57590606174285" lon="11.062747631011119"><ele>713.7142857142858</ele><time>2026-04-08T09:21:14Z</time></trkpt><trkpt lat="45.57590739420355" lon="11.06265375829035"><ele>713.1428571428571</ele><time>2026-04-08T09:21:15Z</time></trkpt><trkpt lat="45.57591048593836" lon="11.06254554684043"><ele>712.5714285714286</ele><time>2026-04-08T09:21:16Z</time></trkpt><trkpt lat="45.575900953505375" lon="11.06245246938043"><ele>712.0</ele><time>2026-04-08T09:21:17Z</time></trkpt><trkpt lat="45.57590976860475" lon="11.06226591342351"><ele>710.6666666666667</ele><time>2026-04-08T09:21:19Z</time></trkpt><trkpt lat="45.57594691209923" lon="11.062184849162046"><ele>709.3333333333334</ele><time>2026-04-08T09:21:20Z</time></trkpt><trkpt lat="45.57596871621389" lon="11.062093284800152"><ele>708.0</ele><time>2026-04-08T09:21:21Z</time></trkpt><trkpt lat="45.57601856172514" lon="11.06200981816789"><ele>706.6666666666666</ele><time>2026-04-08T09:21:22Z</time></trkpt><trkpt lat="45.57609004041707" lon="11.061924955845676"><ele>705.3333333333333</ele><time>2026-04-08T09:21:23Z</time></trkpt><trkpt lat="45.57614375123955" lon="11.061843113741373"><ele>704.0</ele><time>2026-04-08T09:21:24Z</time></trkpt><trkpt lat="45.576197574172475" lon="11.061764634570103"><ele>703.0</ele><time>2026-04-08T09:21:25Z</time></trkpt><trkpt lat="45.576263161404775" lon="11.061702172548355"><ele>702.0</ele><time>2026-04-08T09:21:26Z</time></trkpt><trkpt lat="45.57633947938883" lon="11.061615572860362"><ele>701.0</ele><time>2026-04-08T09:21:27Z</time></trkpt><trkpt lat="45.57640320692557" lon="11.061537653202093"><ele>700.0</ele><time>2026-04-08T09:21:28Z</time></trkpt><trkpt lat="45.57644576090746" lon="11.061466265932486"><ele>699.0</ele><time>2026-04-08T09:21:29Z</time></trkpt><trkpt lat="45.57650290078524" lon="11.06138848319853"><ele>698.0</ele><time>2026-04-08T09:21:30Z</time></trkpt><trkpt lat="45.57656655101906" lon="11.061330261347974"><ele>698.0</ele><time>2026-04-08T09:21:31Z</time></trkpt><trkpt lat="45.576644719161536" lon="11.06129990936649"><ele>698.0</ele><time>2026-04-08T09:21:32Z</time></trkpt><trkpt lat="45.57673572387277" lon="11.061266496089086"><ele>698.0</ele><time>2026-04-08T09:21:33Z</time></trkpt><trkpt lat="45.57681730114317" lon="11.061263093374642"><ele>698.0</ele><time>2026-04-08T09:21:34Z</time></trkpt><trkpt lat="45.57689488143423" lon="11.061260329411027"><ele>698.0</ele><time>2026-04-08T09:21:35Z</time></trkpt><trkpt lat="45.57696370409881" lon="11.06127803566436"><ele>698.0</ele><time>2026-04-08T09:21:36Z</time></trkpt><trkpt lat="45.577085221037194" lon="11.061333026107064"><ele>697.2</ele><time>2026-04-08T09:21:38Z</time></trkpt><trkpt lat="45.57717565837771" lon="11.061414594065983"><ele>696.4</ele><time>2026-04-08T09:21:40Z</time></trkpt><trkpt lat="45.57720798343606" lon="11.061543074798985"><ele>695.6</ele><time>2026-04-08T09:21:42Z</time></trkpt><trkpt lat="45.577272844622435" lon="11.061669081891223"><ele>694.8000000000001</ele><time>2026-04-08T09:21:44Z</time></trkpt><trkpt lat="45.57734059084784" lon="11.061730619675341"><ele>694.0</ele><time>2026-04-08T09:21:45Z</time></trkpt><trkpt lat="45.57742056017198" lon="11.061778051460475"><ele>698.0</ele><time>2026-04-08T09:21:46Z</time></trkpt><trkpt lat="45.57749260156376" lon="11.061812695111444"><ele>702.0</ele><time>2026-04-08T09:21:47Z</time></trkpt><trkpt lat="45.57760239631472" lon="11.06191810469426"><ele>706.0</ele><time>2026-04-08T09:21:49Z</time></trkpt><trkpt lat="45.5776893486114" lon="11.061949944270282"><ele>710.0</ele><time>2026-04-08T09:21:51Z</time></trkpt><trkpt lat="45.577797542126426" lon="11.061962294030014"><ele>714.0</ele><time>2026-04-08T09:21:52Z</time></trkpt><trkpt lat="45.57790855429671" lon="11.061979667904245"><ele>714.0</ele><time>2026-04-08T09:21:53Z</time></trkpt><trkpt lat="45.57800052219569" lon="11.062011641411795"><ele>714.0</ele><time>2026-04-08T09:21:54Z</time></trkpt><trkpt lat="45.57807588522716" lon="11.062008124006288"><ele>714.0</ele><time>2026-04-08T09:21:55Z</time></trkpt><trkpt lat="45.57811046131949" lon="11.061929410950025"><ele>714.0</ele><time>2026-04-08T09:21:56Z</time></trkpt><trkpt lat="45.57814549423393" lon="11.061824588580984"><ele>714.0</ele><time>2026-04-08T09:21:57Z</time></trkpt><trkpt lat="45.57819408520888" lon="11.061747105222883"><ele>714.0</ele><time>2026-04-08T09:21:58Z</time></trkpt><trkpt lat="45.57830198757616" lon="11.06169456008838"><ele>710.3333333333334</ele><time>2026-04-08T09:22:00Z</time></trkpt><trkpt lat="45.578356859678415" lon="11.061611463013731"><ele>706.6666666666666</ele><time>2026-04-08T09:22:01Z</time></trkpt><trkpt lat="45.57841556180523" lon="11.061527765482971"><ele>703.0</ele><time>2026-04-08T09:22:02Z</time></trkpt><trkpt lat="45.57844934951703" lon="11.06143722715584"><ele>699.3333333333333</ele><time>2026-04-08T09:22:03Z</time></trkpt><trkpt lat="45.57852813922019" lon="11.061345984733071"><ele>695.6666666666666</ele><time>2026-04-08T09:22:05Z</time></trkpt><trkpt lat="45.57859280987677" lon="11.061329907075608"><ele>692.0</ele><time>2026-04-08T09:22:06Z</time></trkpt><trkpt lat="45.57867686554567" lon="11.061327081239053"><ele>692.6666666666666</ele><time>2026-04-08T09:22:07Z</time></trkpt><trkpt lat="45.578760136446796" lon="11.061348980329264"><ele>693.3333333333333</ele><time>2026-04-08T09:22:08Z</time></trkpt><trkpt lat="45.57885231026792" lon="11.061346784449599"><ele>694.0</ele><time>2026-04-08T09:22:09Z</time></trkpt><trkpt lat="45.57892684071675" lon="11.061358412846111"><ele>694.6666666666666</ele><time>2026-04-08T09:22:10Z</time></trkpt><trkpt lat="45.578997465132474" lon="11.061359627274793"><ele>695.3333333333334</ele><time>2026-04-08T09:22:11Z</time></trkpt><trkpt lat="45.57905787153962" lon="11.061444980698447"><ele>696.0</ele><time>2026-04-08T09:22:13Z</time></trkpt><trkpt lat="45.57912133644244" lon="11.061556164759489"><ele>696.0</ele><time>2026-04-08T09:22:14Z</time></trkpt><trkpt lat="45.579169971423106" lon="11.06165029819185"><ele>696.0</ele><time>2026-04-08T09:22:15Z</time></trkpt><trkpt lat="45.57928034749827" lon="11.061607111515146"><ele>696.0</ele><time>2026-04-08T09:22:18Z</time></trkpt><trkpt lat="45.57941651835648" lon="11.061599858374365"><ele>696.0</ele><time>2026-04-08T09:22:20Z</time></trkpt><trkpt lat="45.57953245352494" lon="11.061660425200422"><ele>697.5</ele><time>2026-04-08T09:22:22Z</time></trkpt><trkpt lat="45.57960575695897" lon="11.061711576616672"><ele>699.0</ele><time>2026-04-08T09:22:23Z</time></trkpt><trkpt lat="45.57969685610018" lon="11.061724073208811"><ele>700.5</ele><time>2026-04-08T09:22:24Z</time></trkpt><trkpt lat="45.57976258894827" lon="11.061732400341777"><ele>702.0</ele><time>2026-04-08T09:22:25Z</time></trkpt><trkpt lat="45.57983893324285" lon="11.061737251051738"><ele>703.5</ele><time>2026-04-08T09:22:26Z</time></trkpt><trkpt lat="45.5799123982032" lon="11.061758810975348"><ele>705.0</ele><time>2026-04-08T09:22:27Z</time></trkpt><trkpt lat="45.580008718990946" lon="11.061739279779266"><ele>705.0</ele><time>2026-04-08T09:22:28Z</time></trkpt><trkpt lat="45.58007559194114" lon="11.061738523622612"><ele>705.0</ele><time>2026-04-08T09:22:29Z</time></trkpt><trkpt lat="45.58019521295553" lon="11.061777518803286"><ele>705.0</ele><time>2026-04-08T09:22:31Z</time></trkpt><trkpt lat="45.58025663689219" lon="11.061801952800383"><ele>705.0</ele><time>2026-04-08T09:22:33Z</time></trkpt><trkpt lat="45.58032432284666" lon="11.061828131570646"><ele>705.0</ele><time>2026-04-08T09:22:34Z</time></trkpt><trkpt lat="45.58040997003057" lon="11.061897353714219"><ele>705.0</ele><time>2026-04-08T09:22:36Z</time></trkpt><trkpt lat="45.58046663381378" lon="11.061951890686357"><ele>700.4</ele><time>2026-04-08T09:22:37Z</time></trkpt><trkpt lat="45.580586376854114" lon="11.062053317545118"><ele>695.8</ele><time>2026-04-08T09:22:39Z</time></trkpt><trkpt lat="45.5806486909132" lon="11.062100526286862"><ele>691.2</ele><time>2026-04-08T09:22:40Z</time></trkpt><trkpt lat="45.58074955426452" lon="11.0621817999302"><ele>686.6</ele><time>2026-04-08T09:22:41Z</time></trkpt><trkpt lat="45.58082073946947" lon="11.0622426840849"><ele>682.0</ele><time>2026-04-08T09:22:42.001Z</time></trkpt><trkpt lat="45.5808899365552" lon="11.062313894826948"><ele>682.0</ele><time>2026-04-08T09:22:43.001Z</time></trkpt><trkpt lat="45.580957867281896" lon="11.062374804167073"><ele>682.0</ele><time>2026-04-08T09:22:44.001Z</time></trkpt><trkpt lat="45.58101399860364" lon="11.062438941276973"><ele>682.0</ele><time>2026-04-08T09:22:45.001Z</time></trkpt><trkpt lat="45.58106595935321" lon="11.062499405977574"><ele>682.0</ele><time>2026-04-08T09:22:46.001Z</time></trkpt><trkpt lat="45.58113716475501" lon="11.062542877237515"><ele>682.0</ele><time>2026-04-08T09:22:47.001Z</time></trkpt><trkpt lat="45.581200557539546" lon="11.062599575056824"><ele>682.0</ele><time>2026-04-08T09:22:48.001Z</time></trkpt><trkpt lat="45.58126661804121" lon="11.062675460257255"><ele>683.0</ele><time>2026-04-08T09:22:49.001Z</time></trkpt><trkpt lat="45.58130888544426" lon="11.062748802429505"><ele>684.0</ele><time>2026-04-08T09:22:50.001Z</time></trkpt><trkpt lat="45.581390983554506" lon="11.062852113613005"><ele>685.0</ele><time>2026-04-08T09:22:52.001Z</time></trkpt><trkpt lat="45.58148358689186" lon="11.06300278836056"><ele>686.0</ele><time>2026-04-08T09:22:54.001Z</time></trkpt><trkpt lat="45.581536044929514" lon="11.06312038722301"><ele>687.0</ele><time>2026-04-08T09:22:55.001Z</time></trkpt><trkpt lat="45.581563577570606" lon="11.063212986885567"><ele>687.0</ele><time>2026-04-08T09:22:56.001Z</time></trkpt><trkpt lat="45.58158953150401" lon="11.063364256523764"><ele>687.0</ele><time>2026-04-08T09:22:58.001Z</time></trkpt><trkpt lat="45.58160888768054" lon="11.063486126338312"><ele>687.0</ele><time>2026-04-08T09:23:00Z</time></trkpt><trkpt lat="45.58168152216638" lon="11.063533002481542"><ele>687.0</ele><time>2026-04-08T09:23:04Z</time></trkpt><trkpt lat="45.58177819830487" lon="11.063467813276258"><ele>687.0</ele><time>2026-04-08T09:23:06Z</time></trkpt><trkpt lat="45.58184774841314" lon="11.06325565714716"><ele>687.0</ele><time>2026-04-08T09:23:14Z</time></trkpt><trkpt lat="45.58180388534967" lon="11.06318312986164"><ele>687.0</ele><time>2026-04-08T09:23:15Z</time></trkpt><trkpt lat="45.58179786950313" lon="11.063072611220187"><ele>687.0</ele><time>2026-04-08T09:23:17Z</time></trkpt><trkpt lat="45.58183227611115" lon="11.06298457982595"><ele>687.0</ele><time>2026-04-08T09:23:18Z</time></trkpt><trkpt lat="45.58186045333157" lon="11.062886346987673"><ele>687.0</ele><time>2026-04-08T09:23:19Z</time></trkpt><trkpt lat="45.581891473208486" lon="11.062745770111263"><ele>687.0</ele><time>2026-04-08T09:23:21Z</time></trkpt><trkpt lat="45.581947866709456" lon="11.062602563249964"><ele>687.0</ele><time>2026-04-08T09:23:23Z</time></trkpt><trkpt lat="45.58198620963873" lon="11.062512699631556"><ele>687.0</ele><time>2026-04-08T09:23:24Z</time></trkpt><trkpt lat="45.58199882740638" lon="11.062420700715599"><ele>687.0</ele><time>2026-04-08T09:23:25Z</time></trkpt><trkpt lat="45.582015622417565" lon="11.062317101200899"><ele>687.0</ele><time>2026-04-08T09:23:26Z</time></trkpt><trkpt lat="45.58203536799418" lon="11.062222868697072"><ele>687.0</ele><time>2026-04-08T09:23:27Z</time></trkpt><trkpt lat="45.58204621495716" lon="11.062111138057604"><ele>687.0</ele><time>2026-04-08T09:23:28Z</time></trkpt><trkpt lat="45.58205866212149" lon="11.062017835274947"><ele>687.0</ele><time>2026-04-08T09:23:29Z</time></trkpt><trkpt lat="45.582069697640236" lon="11.061848627792392"><ele>693.6666666666666</ele><time>2026-04-08T09:23:31Z</time></trkpt><trkpt lat="45.582075587317355" lon="11.061682782237048"><ele>700.3333333333334</ele><time>2026-04-08T09:23:33Z</time></trkpt><trkpt lat="45.58207905237605" lon="11.061562543954178"><ele>707.0</ele><time>2026-04-08T09:23:34Z</time></trkpt><trkpt lat="45.58207041309883" lon="11.061446245292506"><ele>713.6666666666667</ele><time>2026-04-08T09:23:35Z</time></trkpt><trkpt lat="45.58203928406092" lon="11.061335914799612"><ele>720.3333333333334</ele><time>2026-04-08T09:23:36Z</time></trkpt><trkpt lat="45.5820320148752" lon="11.061240506843085"><ele>727.0</ele><time>2026-04-08T09:23:37Z</time></trkpt><trkpt lat="45.58203592851921" lon="11.061133872654247"><ele>727.2</ele><time>2026-04-08T09:23:38Z</time></trkpt><trkpt lat="45.58202281260823" lon="11.061027353491799"><ele>727.4000000000001</ele><time>2026-04-08T09:23:39Z</time></trkpt><trkpt lat="45.58199582497397" lon="11.060890535892167"><ele>727.5999999999999</ele><time>2026-04-08T09:23:40Z</time></trkpt><trkpt lat="45.58196550289912" lon="11.060782768006943"><ele>727.8</ele><time>2026-04-08T09:23:41Z</time></trkpt><trkpt lat="45.58191706936118" lon="11.06062755313231"><ele>728.0</ele><time>2026-04-08T09:23:43Z</time></trkpt><trkpt lat="45.58192545223611" lon="11.060472129966806"><ele>728.0</ele><time>2026-04-08T09:23:45Z</time></trkpt><trkpt lat="45.58201801838066" lon="11.060471475164999"><ele>728.0</ele><time>2026-04-08T09:23:48Z</time></trkpt><trkpt lat="45.58210967492166" lon="11.060552186308373"><ele>728.0</ele><time>2026-04-08T09:23:50Z</time></trkpt><trkpt lat="45.58217499694403" lon="11.0606256456134"><ele>728.0</ele><time>2026-04-08T09:23:52Z</time></trkpt><trkpt lat="45.582241920400705" lon="11.060724660285404"><ele>728.0</ele><time>2026-04-08T09:23:56Z</time></trkpt><trkpt lat="45.582308188829664" lon="11.060751269370368"><ele>728.0</ele><time>2026-04-08T09:23:59Z</time></trkpt><trkpt lat="45.58236676659282" lon="11.06079621343196"><ele>728.0</ele><time>2026-04-08T09:24:02Z</time></trkpt><trkpt lat="45.58242662783555" lon="11.060860269532522"><ele>728.0</ele><time>2026-04-08T09:24:04Z</time></trkpt><trkpt lat="45.58249480636506" lon="11.060911674075358"><ele>728.0</ele><time>2026-04-08T09:24:06Z</time></trkpt><trkpt lat="45.58252665677271" lon="11.061047747868285"><ele>728.0</ele><time>2026-04-08T09:24:08Z</time></trkpt><trkpt lat="45.582602664363755" lon="11.061067331341627"><ele>728.0</ele><time>2026-04-08T09:24:10Z</time></trkpt><trkpt lat="45.5826952357268" lon="11.06108007388582"><ele>728.0</ele><time>2026-04-08T09:24:12Z</time></trkpt><trkpt lat="45.582775595004925" lon="11.061081570701235"><ele>728.0</ele><time>2026-04-08T09:24:14Z</time></trkpt><trkpt lat="45.58283068574088" lon="11.06103241746029"><ele>728.0</ele><time>2026-04-08T09:24:37Z</time></trkpt><trkpt lat="45.582931648284635" lon="11.06090018915379"><ele>728.0</ele><time>2026-04-08T09:24:39Z</time></trkpt><trkpt lat="45.58298448864125" lon="11.060816682334156"><ele>728.0</ele><time>2026-04-08T09:24:40Z</time></trkpt><trkpt lat="45.58304927186586" lon="11.060701338773038"><ele>728.0</ele><time>2026-04-08T09:24:41Z</time></trkpt><trkpt lat="45.583139658097714" lon="11.060598511806777"><ele>726.75</ele><time>2026-04-08T09:24:42Z</time></trkpt><trkpt lat="45.583255657613826" lon="11.060515679638632"><ele>725.5</ele><time>2026-04-08T09:24:43Z</time></trkpt><trkpt lat="45.58339143995053" lon="11.060457090324158"><ele>724.25</ele><time>2026-04-08T09:24:44Z</time></trkpt><trkpt lat="45.58353068123976" lon="11.060413471173508"><ele>723.0</ele><time>2026-04-08T09:24:45Z</time></trkpt><trkpt lat="45.583661573127806" lon="11.060377912847722"><ele>723.75</ele><time>2026-04-08T09:24:46Z</time></trkpt><trkpt lat="45.583784565395504" lon="11.06033879644754"><ele>724.5</ele><time>2026-04-08T09:24:47Z</time></trkpt><trkpt lat="45.58390610151054" lon="11.060293448389684"><ele>725.25</ele><time>2026-04-08T09:24:48.001Z</time></trkpt><trkpt lat="45.584021154279014" lon="11.060254349291467"><ele>726.0</ele><time>2026-04-08T09:24:49.001Z</time></trkpt><trkpt lat="45.58413329866526" lon="11.060214711246882"><ele>726.0</ele><time>2026-04-08T09:24:50.001Z</time></trkpt><trkpt lat="45.58425069753018" lon="11.060171343804823"><ele>726.0</ele><time>2026-04-08T09:24:51.001Z</time></trkpt><trkpt lat="45.58437598700127" lon="11.060128081946761"><ele>726.0</ele><time>2026-04-08T09:24:52.001Z</time></trkpt><trkpt lat="45.584496856939126" lon="11.060111728354356"><ele>726.0</ele><time>2026-04-08T09:24:53.001Z</time></trkpt><trkpt lat="45.58461497738979" lon="11.06012546438587"><ele>724.3333333333334</ele><time>2026-04-08T09:24:54.001Z</time></trkpt><trkpt lat="45.58474755785141" lon="11.060153437004695"><ele>722.6666666666667</ele><time>2026-04-08T09:24:55.001Z</time></trkpt><trkpt lat="45.584907826327154" lon="11.060191438230952"><ele>721.0</ele><time>2026-04-08T09:24:56.001Z</time></trkpt><trkpt lat="45.5850623621863" lon="11.060222661409673"><ele>721.0</ele><time>2026-04-08T09:24:57.001Z</time></trkpt><trkpt lat="45.58519956359374" lon="11.060242538083015"><ele>721.0</ele><time>2026-04-08T09:24:58.001Z</time></trkpt><trkpt lat="45.585312615163865" lon="11.060271754343022"><ele>721.0</ele><time>2026-04-08T09:24:59Z</time></trkpt><trkpt lat="45.585403473142335" lon="11.06034101124926"><ele>721.0</ele><time>2026-04-08T09:25:00Z</time></trkpt><trkpt lat="45.58547232033524" lon="11.06041163202477"><ele>721.0</ele><time>2026-04-08T09:25:01Z</time></trkpt><trkpt lat="45.58554830763982" lon="11.060509306262263"><ele>719.75</ele><time>2026-04-08T09:25:03Z</time></trkpt><trkpt lat="45.58555016146521" lon="11.060278162809789"><ele>718.5</ele><time>2026-04-08T09:25:07Z</time></trkpt><trkpt lat="45.58548027862502" lon="11.060176546313086"><ele>717.25</ele><time>2026-04-08T09:25:08Z</time></trkpt><trkpt lat="45.585412964625135" lon="11.060052028652875"><ele>716.0</ele><time>2026-04-08T09:25:09Z</time></trkpt><trkpt lat="45.58535077973487" lon="11.059919766508674"><ele>715.4</ele><time>2026-04-08T09:25:10Z</time></trkpt><trkpt lat="45.58527636801863" lon="11.059778915897082"><ele>714.8</ele><time>2026-04-08T09:25:11Z</time></trkpt><trkpt lat="45.58521517782943" lon="11.05963798217556"><ele>714.1999999999999</ele><time>2026-04-08T09:25:12Z</time></trkpt><trkpt lat="45.585172050737796" lon="11.059505159726884"><ele>713.5999999999999</ele><time>2026-04-08T09:25:13Z</time></trkpt><trkpt lat="45.58511606487171" lon="11.059411749148845"><ele>713.0</ele><time>2026-04-08T09:25:14Z</time></trkpt><trkpt lat="45.585071825447976" lon="11.05934774759948"><ele>713.0</ele><time>2026-04-08T09:25:15Z</time></trkpt><trkpt lat="45.58514102258996" lon="11.059119607605657"><ele>713.0</ele><time>2026-04-08T09:25:19Z</time></trkpt><trkpt lat="45.58518300163417" lon="11.058998324152098"><ele>713.0</ele><time>2026-04-08T09:25:21Z</time></trkpt><trkpt lat="45.585221514807515" lon="11.058859961298598"><ele>713.0</ele><time>2026-04-08T09:25:23Z</time></trkpt><trkpt lat="45.585270346475006" lon="11.058703872470723"><ele>713.1666666666666</ele><time>2026-04-08T09:25:25Z</time></trkpt><trkpt lat="45.585303264988184" lon="11.058618918823669"><ele>713.3333333333333</ele><time>2026-04-08T09:25:26Z</time></trkpt><trkpt lat="45.58534363199301" lon="11.05853155317271"><ele>713.5</ele><time>2026-04-08T09:25:27Z</time></trkpt><trkpt lat="45.585378200122854" lon="11.058443892967036"><ele>713.6666666666666</ele><time>2026-04-08T09:25:28Z</time></trkpt><trkpt lat="45.5854248533531" lon="11.05832364363332"><ele>713.8333333333334</ele><time>2026-04-08T09:25:30Z</time></trkpt><trkpt lat="45.58544418753153" lon="11.058210298122894"><ele>714.0</ele><time>2026-04-08T09:25:32Z</time></trkpt><trkpt lat="45.585458500272836" lon="11.058108389418244"><ele>712.2</ele><time>2026-04-08T09:25:35Z</time></trkpt><trkpt lat="45.585567040719525" lon="11.058083869305486"><ele>710.4000000000001</ele><time>2026-04-08T09:25:38Z</time></trkpt><trkpt lat="45.585631511857024" lon="11.058090728360447"><ele>708.6</ele><time>2026-04-08T09:25:40Z</time></trkpt><trkpt lat="45.58560209439372" lon="11.057989758027334"><ele>706.8</ele><time>2026-04-08T09:25:43Z</time></trkpt><trkpt lat="45.585573206296516" lon="11.057824380474946"><ele>705.0</ele><time>2026-04-08T09:25:45Z</time></trkpt><trkpt lat="45.585577837288945" lon="11.057706062481103"><ele>705.0</ele><time>2026-04-08T09:25:47Z</time></trkpt><trkpt lat="45.585611288080685" lon="11.057625126284673"><ele>705.0</ele><time>2026-04-08T09:25:50Z</time></trkpt><trkpt lat="45.58559104504468" lon="11.057490079958393"><ele>705.0</ele><time>2026-04-08T09:25:53Z</time></trkpt><trkpt lat="45.58561432774346" lon="11.05738298464139"><ele>705.0</ele><time>2026-04-08T09:25:56Z</time></trkpt><trkpt lat="45.585662079469984" lon="11.05728418815527"><ele>705.0</ele><time>2026-04-08T09:26:00Z</time></trkpt><trkpt lat="45.585682954563865" lon="11.057187937302752"><ele>705.0</ele><time>2026-04-08T09:26:05Z</time></trkpt><trkpt lat="45.58570385316301" lon="11.05707942839394"><ele>703.4</ele><time>2026-04-08T09:26:09Z</time></trkpt><trkpt lat="45.58577772741989" lon="11.056993703255754"><ele>701.8</ele><time>2026-04-08T09:26:12Z</time></trkpt><trkpt lat="45.58586397435188" lon="11.056874864327563"><ele>700.2</ele><time>2026-04-08T09:26:14Z</time></trkpt><trkpt lat="45.58592669797107" lon="11.056740255145556"><ele>698.6</ele><time>2026-04-08T09:26:16Z</time></trkpt><trkpt lat="45.5859824162649" lon="11.056641441664246"><ele>697.0</ele><time>2026-04-08T09:26:18Z</time></trkpt><trkpt lat="45.58604526652822" lon="11.056512226817526"><ele>696.0</ele><time>2026-04-08T09:26:20Z</time></trkpt><trkpt lat="45.58609244799136" lon="11.056402407582365"><ele>695.0</ele><time>2026-04-08T09:26:22Z</time></trkpt><trkpt lat="45.58611267757397" lon="11.05625613178925"><ele>694.0</ele><time>2026-04-08T09:26:24Z</time></trkpt><trkpt lat="45.58614408980514" lon="11.056114723737018"><ele>693.0</ele><time>2026-04-08T09:26:26Z</time></trkpt><trkpt lat="45.58613800373766" lon="11.055965231223036"><ele>692.0</ele><time>2026-04-08T09:26:27.999Z</time></trkpt><trkpt lat="45.586158779435955" lon="11.055830704474115"><ele>689.2</ele><time>2026-04-08T09:26:29.999Z</time></trkpt><trkpt lat="45.58618863296438" lon="11.055665157690909"><ele>686.4000000000001</ele><time>2026-04-08T09:26:31.999Z</time></trkpt><trkpt lat="45.58617752302728" lon="11.055556165823168"><ele>683.5999999999999</ele><time>2026-04-08T09:26:32.999Z</time></trkpt><trkpt lat="45.586138775301876" lon="11.055372379360929"><ele>680.8</ele><time>2026-04-08T09:26:34.999Z</time></trkpt><trkpt lat="45.58611627604835" lon="11.055286222775251"><ele>678.0</ele><time>2026-04-08T09:26:35.999Z</time></trkpt><trkpt lat="45.586121965791804" lon="11.055131412878513"><ele>678.0</ele><time>2026-04-08T09:26:37.999Z</time></trkpt><trkpt lat="45.586104536080825" lon="11.055024449206936"><ele>678.0</ele><time>2026-04-08T09:26:38.999Z</time></trkpt><trkpt lat="45.586063070976635" lon="11.05488568576776"><ele>678.0</ele><time>2026-04-08T09:26:40.999Z</time></trkpt><trkpt lat="45.58602147211215" lon="11.054789570412034"><ele>678.0</ele><time>2026-04-08T09:26:42.999Z</time></trkpt><trkpt lat="45.58600940811317" lon="11.054655533938556"><ele>678.0</ele><time>2026-04-08T09:26:44.999Z</time></trkpt><trkpt lat="45.585990850967555" lon="11.054568427044156"><ele>678.0</ele><time>2026-04-08T09:26:46.999Z</time></trkpt><trkpt lat="45.58595130934695" lon="11.05449009852343"><ele>673.5</ele><time>2026-04-08T09:26:50.999Z</time></trkpt><trkpt lat="45.58602020550839" lon="11.054468360654608"><ele>669.0</ele><time>2026-04-08T09:26:58Z</time></trkpt><trkpt lat="45.58607072539106" lon="11.054533864970098"><ele>664.5</ele><time>2026-04-08T09:27:00Z</time></trkpt><trkpt lat="45.586136894593686" lon="11.054611734331429"><ele>660.0</ele><time>2026-04-08T09:27:02Z</time></trkpt><trkpt lat="45.58621523990001" lon="11.054664742449622"><ele>655.5</ele><time>2026-04-08T09:27:04Z</time></trkpt><trkpt lat="45.58627198140866" lon="11.054779431845816"><ele>651.0</ele><time>2026-04-08T09:27:06Z</time></trkpt><trkpt lat="45.58634565437961" lon="11.054881643847295"><ele>651.6666666666666</ele><time>2026-04-08T09:27:08Z</time></trkpt><trkpt lat="45.58638651931033" lon="11.054998382617768"><ele>652.3333333333334</ele><time>2026-04-08T09:27:10Z</time></trkpt><trkpt lat="45.58641491467426" lon="11.055130313733992"><ele>653.0</ele><time>2026-04-08T09:27:12Z</time></trkpt><trkpt lat="45.58643347507764" lon="11.055248736279951"><ele>653.6666666666667</ele><time>2026-04-08T09:27:14Z</time></trkpt><trkpt lat="45.58651718973636" lon="11.055247332833915"><ele>654.3333333333334</ele><time>2026-04-08T09:27:18Z</time></trkpt><trkpt lat="45.586549650576096" lon="11.055160914398392"><ele>655.0</ele><time>2026-04-08T09:27:20Z</time></trkpt><trkpt lat="45.58670156245154" lon="11.054986453463222"><ele>651.8</ele><time>2026-04-08T09:29:29Z</time></trkpt><trkpt lat="45.5867522946931" lon="11.054819932519543"><ele>648.6</ele><time>2026-04-08T09:29:31Z</time></trkpt><trkpt lat="45.586800354472516" lon="11.054630184676267"><ele>645.4</ele><time>2026-04-08T09:29:33Z</time></trkpt><trkpt lat="45.58683634878056" lon="11.054492795806896"><ele>642.2</ele><time>2026-04-08T09:29:34Z</time></trkpt><trkpt lat="45.58685969424909" lon="11.054408363709404"><ele>639.0</ele><time>2026-04-08T09:29:35Z</time></trkpt><trkpt lat="45.586870774681586" lon="11.054316697777175"><ele>639.0</ele><time>2026-04-08T09:29:36Z</time></trkpt><trkpt lat="45.58689783493225" lon="11.054234464530243"><ele>639.0</ele><time>2026-04-08T09:29:37Z</time></trkpt><trkpt lat="45.58691553799057" lon="11.054147729521281"><ele>639.0</ele><time>2026-04-08T09:29:38Z</time></trkpt><trkpt lat="45.5869647573988" lon="11.054042844986881"><ele>639.0</ele><time>2026-04-08T09:29:40Z</time></trkpt><trkpt lat="45.58695366383968" lon="11.053910234993266"><ele>639.0</ele><time>2026-04-08T09:29:42Z</time></trkpt><trkpt lat="45.58696134170476" lon="11.053814752658996"><ele>639.0</ele><time>2026-04-08T09:29:43Z</time></trkpt><trkpt lat="45.58697953318861" lon="11.053688170973576"><ele>638.5</ele><time>2026-04-08T09:29:44Z</time></trkpt><trkpt lat="45.586982957081425" lon="11.053574145752457"><ele>638.0</ele><time>2026-04-08T09:29:45Z</time></trkpt><trkpt lat="45.58700303550217" lon="11.05345620118391"><ele>637.5</ele><time>2026-04-08T09:29:46Z</time></trkpt><trkpt lat="45.58704048908199" lon="11.053373200182154"><ele>637.0</ele><time>2026-04-08T09:29:47Z</time></trkpt><trkpt lat="45.58705169039323" lon="11.053254516514155"><ele>636.5</ele><time>2026-04-08T09:29:48Z</time></trkpt><trkpt lat="45.58706270495789" lon="11.053127850762966"><ele>636.0</ele><time>2026-04-08T09:29:49Z</time></trkpt><trkpt lat="45.58706933190529" lon="11.053020717418674"><ele>636.0</ele><time>2026-04-08T09:29:50Z</time></trkpt><trkpt lat="45.58709691777079" lon="11.05292484417306"><ele>636.0</ele><time>2026-04-08T09:29:51Z</time></trkpt><trkpt lat="45.58716689877233" lon="11.052732193425678"><ele>636.0</ele><time>2026-04-08T09:29:53Z</time></trkpt><trkpt lat="45.58721961873338" lon="11.052594331665155"><ele>636.0</ele><time>2026-04-08T09:29:54Z</time></trkpt><trkpt lat="45.58729668792504" lon="11.052478520392523"><ele>636.0</ele><time>2026-04-08T09:29:55Z</time></trkpt><trkpt lat="45.58734188815244" lon="11.052343564956542"><ele>630.6</ele><time>2026-04-08T09:29:56Z</time></trkpt><trkpt lat="45.58738247001079" lon="11.052240574752146"><ele>625.2</ele><time>2026-04-08T09:29:57Z</time></trkpt><trkpt lat="45.58744226563873" lon="11.052135358648263"><ele>619.8</ele><time>2026-04-08T09:29:58Z</time></trkpt><trkpt lat="45.5875147656709" lon="11.052037718181122"><ele>614.4</ele><time>2026-04-08T09:29:59Z</time></trkpt><trkpt lat="45.587583740359605" lon="11.05194001878943"><ele>609.0</ele><time>2026-04-08T09:30:00Z</time></trkpt><trkpt lat="45.587669687189084" lon="11.051890777917171"><ele>609.0</ele><time>2026-04-08T09:30:01Z</time></trkpt><trkpt lat="45.587742791886924" lon="11.051805004724075"><ele>609.0</ele><time>2026-04-08T09:30:02Z</time></trkpt><trkpt lat="45.58784146254445" lon="11.051711726730975"><ele>609.0</ele><time>2026-04-08T09:30:03Z</time></trkpt><trkpt lat="45.587928539388386" lon="11.051656531508772"><ele>609.0</ele><time>2026-04-08T09:30:04Z</time></trkpt><trkpt lat="45.588016057128804" lon="11.051612447192339"><ele>609.0</ele><time>2026-04-08T09:30:05Z</time></trkpt><trkpt lat="45.58808735372073" lon="11.051569817928808"><ele>608.3333333333334</ele><time>2026-04-08T09:30:06Z</time></trkpt><trkpt lat="45.58814576208339" lon="11.051476288217088"><ele>607.6666666666666</ele><time>2026-04-08T09:30:08Z</time></trkpt><trkpt lat="45.58810908919644" lon="11.051394153055217"><ele>607.0</ele><time>2026-04-08T09:30:10Z</time></trkpt><trkpt lat="45.58801880131137" lon="11.05142736740832"><ele>606.3333333333333</ele><time>2026-04-08T09:30:12Z</time></trkpt><trkpt lat="45.58795450182862" lon="11.05149244092577"><ele>605.6666666666666</ele><time>2026-04-08T09:30:12.999Z</time></trkpt><trkpt lat="45.587863761027506" lon="11.051552887426531"><ele>605.0</ele><time>2026-04-08T09:30:13.999Z</time></trkpt><trkpt lat="45.58776182621306" lon="11.05161924835256"><ele>605.6666666666666</ele><time>2026-04-08T09:30:14.999Z</time></trkpt><trkpt lat="45.587686496269605" lon="11.0516919021061"><ele>606.3333333333333</ele><time>2026-04-08T09:30:15.999Z</time></trkpt><trkpt lat="45.5876100131097" lon="11.051748788754132"><ele>607.0</ele><time>2026-04-08T09:30:16.999Z</time></trkpt><trkpt lat="45.58752672808299" lon="11.051790535436629"><ele>607.6666666666666</ele><time>2026-04-08T09:30:17.999Z</time></trkpt><trkpt lat="45.587442092619156" lon="11.051830345073189"><ele>608.3333333333334</ele><time>2026-04-08T09:30:18.999Z</time></trkpt><trkpt lat="45.58738556396213" lon="11.051886783925166"><ele>609.0</ele><time>2026-04-08T09:30:19.999Z</time></trkpt><trkpt lat="45.58730921095439" lon="11.051926351405658"><ele>609.0</ele><time>2026-04-08T09:30:20.999Z</time></trkpt><trkpt lat="45.587178292703925" lon="11.05198898615417"><ele>609.0</ele><time>2026-04-08T09:30:22.999Z</time></trkpt><trkpt lat="45.587113864908154" lon="11.052090539249349"><ele>609.0</ele><time>2026-04-08T09:30:23.999Z</time></trkpt><trkpt lat="45.58704658854099" lon="11.052216319282671"><ele>609.0</ele><time>2026-04-08T09:30:24.999Z</time></trkpt><trkpt lat="45.58696228195073" lon="11.052339284670254"><ele>604.8</ele><time>2026-04-08T09:30:25.999Z</time></trkpt><trkpt lat="45.58690729493234" lon="11.052450891749011"><ele>600.5999999999999</ele><time>2026-04-08T09:30:27.999Z</time></trkpt><trkpt lat="45.586820031962645" lon="11.052377044698778"><ele>596.4</ele><time>2026-04-08T09:30:30.999Z</time></trkpt><trkpt lat="45.58686162133626" lon="11.052195959270628"><ele>592.1999999999999</ele><time>2026-04-08T09:30:32.999Z</time></trkpt><trkpt lat="45.58688570620129" lon="11.052107833623705"><ele>588.0</ele><time>2026-04-08T09:30:33.999Z</time></trkpt><trkpt lat="45.586921893509704" lon="11.052015261332558"><ele>588.0</ele><time>2026-04-08T09:30:34.999Z</time></trkpt><trkpt lat="45.58697278843043" lon="11.051922874237466"><ele>588.0</ele><time>2026-04-08T09:30:35.999Z</time></trkpt><trkpt lat="45.5870403544625" lon="11.051865820158538"><ele>588.0</ele><time>2026-04-08T09:30:36.999Z</time></trkpt><trkpt lat="45.58712935304321" lon="11.051834508433684"><ele>588.0</ele><time>2026-04-08T09:30:37.999Z</time></trkpt><trkpt lat="45.58723149587513" lon="11.051773981563365"><ele>588.0</ele><time>2026-04-08T09:30:38.999Z</time></trkpt><trkpt lat="45.58732493506443" lon="11.051714187249335"><ele>591.1999999999999</ele><time>2026-04-08T09:30:39.999Z</time></trkpt><trkpt lat="45.587414235545644" lon="11.051651278802375"><ele>594.4</ele><time>2026-04-08T09:30:40.999Z</time></trkpt><trkpt lat="45.58751234458467" lon="11.051572545793118"><ele>597.5999999999999</ele><time>2026-04-08T09:30:41.999Z</time></trkpt><trkpt lat="45.58761074860677" lon="11.051484992699368"><ele>600.8</ele><time>2026-04-08T09:30:42.999Z</time></trkpt><trkpt lat="45.58770430613091" lon="11.051407890018734"><ele>604.0</ele><time>2026-04-08T09:30:43.999Z</time></trkpt><trkpt lat="45.587793489690206" lon="11.051329311016602"><ele>604.0</ele><time>2026-04-08T09:30:44.999Z</time></trkpt><trkpt lat="45.587842334847956" lon="11.051076290955722"><ele>604.0</ele><time>2026-04-08T09:30:45.999Z</time></trkpt><trkpt lat="45.587947917882374" lon="11.051024891441543"><ele>604.0</ele><time>2026-04-08T09:30:46.999Z</time></trkpt><trkpt lat="45.58805391173219" lon="11.050955940570875"><ele>604.0</ele><time>2026-04-08T09:30:47.999Z</time></trkpt><trkpt lat="45.58815416511487" lon="11.050878295967763"><ele>604.2</ele><time>2026-04-08T09:30:48.999Z</time></trkpt><trkpt lat="45.58825243265618" lon="11.050801951145186"><ele>604.4</ele><time>2026-04-08T09:30:49.999Z</time></trkpt><trkpt lat="45.58835352131268" lon="11.050745712761714"><ele>604.6</ele><time>2026-04-08T09:30:50.999Z</time></trkpt><trkpt lat="45.588426509560016" lon="11.0506692823319"><ele>604.8</ele><time>2026-04-08T09:30:51.999Z</time></trkpt><trkpt lat="45.588508500577866" lon="11.050610645315604"><ele>605.0</ele><time>2026-04-08T09:30:52.999Z</time></trkpt><trkpt lat="45.588573135828035" lon="11.050558190662134"><ele>605.6</ele><time>2026-04-08T09:30:53.999Z</time></trkpt><trkpt lat="45.58864943805442" lon="11.05047993627529"><ele>606.2</ele><time>2026-04-08T09:30:55.999Z</time></trkpt><trkpt lat="45.588706360945835" lon="11.05032482883434"><ele>606.8</ele><time>2026-04-08T09:31:00.999Z</time></trkpt><trkpt lat="45.58873516193888" lon="11.050230659400116"><ele>607.4</ele><time>2026-04-08T09:31:01.999Z</time></trkpt><trkpt lat="45.58877807489375" lon="11.050081308673708"><ele>608.0</ele><time>2026-04-08T09:31:02.999Z</time></trkpt><trkpt lat="45.58882821188188" lon="11.04992251910214"><ele>608.0</ele><time>2026-04-08T09:31:03.999Z</time></trkpt><trkpt lat="45.58888979885166" lon="11.04976322003047"><ele>608.0</ele><time>2026-04-08T09:31:04.999Z</time></trkpt><trkpt lat="45.588967012487444" lon="11.04962404938241"><ele>608.0</ele><time>2026-04-08T09:31:06Z</time></trkpt><trkpt lat="45.58908498247759" lon="11.049593598567375"><ele>608.0</ele><time>2026-04-08T09:31:07Z</time></trkpt><trkpt lat="45.589189376282214" lon="11.049534479359416"><ele>608.0</ele><time>2026-04-08T09:31:08Z</time></trkpt><trkpt lat="45.58929090584549" lon="11.049466937332049"><ele>608.0</ele><time>2026-04-08T09:31:09Z</time></trkpt><trkpt lat="45.589389574228996" lon="11.049389641729643"><ele>608.0</ele><time>2026-04-08T09:31:10Z</time></trkpt><trkpt lat="45.58948330306574" lon="11.04929779638234"><ele>608.0</ele><time>2026-04-08T09:31:11Z</time></trkpt><trkpt lat="45.589544802710876" lon="11.049159367684203"><ele>608.6666666666666</ele><time>2026-04-08T09:31:12Z</time></trkpt><trkpt lat="45.5896131834888" lon="11.049047772938756"><ele>609.3333333333333</ele><time>2026-04-08T09:31:13Z</time></trkpt><trkpt lat="45.589659395577876" lon="11.048943432071535"><ele>610.0</ele><time>2026-04-08T09:31:14Z</time></trkpt><trkpt lat="45.5896926417466" lon="11.048862883259554"><ele>610.6666666666666</ele><time>2026-04-08T09:31:15Z</time></trkpt><trkpt lat="45.589745354359685" lon="11.048732913446347"><ele>611.3333333333334</ele><time>2026-04-08T09:31:17Z</time></trkpt><trkpt lat="45.58978589060082" lon="11.048647037989848"><ele>612.0</ele><time>2026-04-08T09:31:19Z</time></trkpt><trkpt lat="45.58959886884855" lon="11.04848421936519"><ele>618.0</ele><time>2026-04-08T09:31:20Z</time></trkpt><trkpt lat="45.58948455120113" lon="11.048516719562281"><ele>624.0</ele><time>2026-04-08T09:31:22Z</time></trkpt><trkpt lat="45.58942051810517" lon="11.048684127647089"><ele>630.0</ele><time>2026-04-08T09:31:24Z</time></trkpt><trkpt lat="45.5893727747083" lon="11.048779619895887"><ele>636.0</ele><time>2026-04-08T09:31:25Z</time></trkpt><trkpt lat="45.58931939777833" lon="11.048930984799902"><ele>636.0</ele><time>2026-04-08T09:31:27Z</time></trkpt><trkpt lat="45.5892228636496" lon="11.049028002573756"><ele>636.0</ele><time>2026-04-08T09:31:29Z</time></trkpt><trkpt lat="45.58914743710378" lon="11.049059418836713"><ele>636.0</ele><time>2026-04-08T09:31:30Z</time></trkpt><trkpt lat="45.58905931822693" lon="11.049091074516388"><ele>636.0</ele><time>2026-04-08T09:31:31Z</time></trkpt><trkpt lat="45.58897426410915" lon="11.049128910091957"><ele>636.0</ele><time>2026-04-08T09:31:32Z</time></trkpt><trkpt lat="45.58889135241226" lon="11.049170333108457"><ele>637.6</ele><time>2026-04-08T09:31:33Z</time></trkpt><trkpt lat="45.58879835256578" lon="11.049244660773889"><ele>639.2</ele><time>2026-04-08T09:31:34Z</time></trkpt><trkpt lat="45.588732458986435" lon="11.049289617454413"><ele>640.8000000000001</ele><time>2026-04-08T09:31:35Z</time></trkpt><trkpt lat="45.588664564269315" lon="11.049334231919534"><ele>642.4000000000001</ele><time>2026-04-08T09:31:36Z</time></trkpt><trkpt lat="45.58859901501443" lon="11.049408456194774"><ele>644.0</ele><time>2026-04-08T09:31:37Z</time></trkpt><trkpt lat="45.58853785381055" lon="11.049569453272712"><ele>644.0</ele><time>2026-04-08T09:31:39Z</time></trkpt><trkpt lat="45.588516587337274" lon="11.049662126287824"><ele>644.0</ele><time>2026-04-08T09:31:40Z</time></trkpt><trkpt lat="45.588471216677064" lon="11.049766416083285"><ele>644.0</ele><time>2026-04-08T09:31:41Z</time></trkpt><trkpt lat="45.5884140199567" lon="11.049841072485624"><ele>644.0</ele><time>2026-04-08T09:31:42Z</time></trkpt><trkpt lat="45.58831683081589" lon="11.049916519635016"><ele>644.0</ele><time>2026-04-08T09:31:44Z</time></trkpt><trkpt lat="45.58821797424784" lon="11.049944080030745"><ele>644.0</ele><time>2026-04-08T09:31:46Z</time></trkpt><trkpt lat="45.58814808607033" lon="11.049973689651715"><ele>642.3333333333333</ele><time>2026-04-08T09:31:47Z</time></trkpt><trkpt lat="45.58808085115611" lon="11.050004960097548"><ele>640.6666666666666</ele><time>2026-04-08T09:31:48Z</time></trkpt><trkpt lat="45.58801308481348" lon="11.050038161424002"><ele>639.0</ele><time>2026-04-08T09:31:49Z</time></trkpt><trkpt lat="45.58791281547622" lon="11.050087697520901"><ele>637.3333333333334</ele><time>2026-04-08T09:31:51Z</time></trkpt><trkpt lat="45.58783802880328" lon="11.050116652367318"><ele>635.6666666666667</ele><time>2026-04-08T09:31:52Z</time></trkpt><trkpt lat="45.58777283349244" lon="11.050146750018454"><ele>634.0</ele><time>2026-04-08T09:31:53Z</time></trkpt><trkpt lat="45.587657056395045" lon="11.05019284193734"><ele>634.0</ele><time>2026-04-08T09:31:55Z</time></trkpt><trkpt lat="45.58754106121048" lon="11.05021759058541"><ele>634.0</ele><time>2026-04-08T09:31:57Z</time></trkpt><trkpt lat="45.58746642467666" lon="11.050246733318925"><ele>634.0</ele><time>2026-04-08T09:31:58Z</time></trkpt><trkpt lat="45.58739340557324" lon="11.050275272140066"><ele>634.0</ele><time>2026-04-08T09:31:59Z</time></trkpt><trkpt lat="45.587314965158335" lon="11.050288814933204"><ele>634.0</ele><time>2026-04-08T09:32:00Z</time></trkpt><trkpt lat="45.5872438262389" lon="11.050289672262636"><ele>634.0</ele><time>2026-04-08T09:32:01Z</time></trkpt><trkpt lat="45.587147242809515" lon="11.050294294890024"><ele>634.0</ele><time>2026-04-08T09:32:03Z</time></trkpt><trkpt lat="45.58707149331905" lon="11.050274726950141"><ele>634.0</ele><time>2026-04-08T09:32:05Z</time></trkpt><trkpt lat="45.58698504896401" lon="11.050244346424195"><ele>634.0</ele><time>2026-04-08T09:32:07Z</time></trkpt><trkpt lat="45.5868604994002" lon="11.050201890846887"><ele>634.0</ele><time>2026-04-08T09:32:09.999Z</time></trkpt><trkpt lat="45.58676249889983" lon="11.050144072939078"><ele>634.0</ele><time>2026-04-08T09:32:11.999Z</time></trkpt><trkpt lat="45.58669582213443" lon="11.050140957843043"><ele>635.8333333333334</ele><time>2026-04-08T09:32:13.999Z</time></trkpt><trkpt lat="45.5866199179759" lon="11.050107639614813"><ele>637.6666666666667</ele><time>2026-04-08T09:32:15.999Z</time></trkpt><trkpt lat="45.586498322997954" lon="11.050089657079099"><ele>639.5</ele><time>2026-04-08T09:32:17.999Z</time></trkpt><trkpt lat="45.586434894302236" lon="11.050063319910224"><ele>641.3333333333334</ele><time>2026-04-08T09:32:18.999Z</time></trkpt><trkpt lat="45.586372172047916" lon="11.050049774672347"><ele>643.1666666666666</ele><time>2026-04-08T09:32:19.999Z</time></trkpt><trkpt lat="45.58628510245177" lon="11.050066065948004"><ele>645.0</ele><time>2026-04-08T09:32:21.999Z</time></trkpt><trkpt lat="45.58619781106298" lon="11.050066962060988"><ele>647.2</ele><time>2026-04-08T09:32:23.999Z</time></trkpt><trkpt lat="45.586092033085116" lon="11.050125971020336"><ele>649.4</ele><time>2026-04-08T09:32:25.999Z</time></trkpt><trkpt lat="45.58601687575086" lon="11.05016436830207"><ele>651.5999999999999</ele><time>2026-04-08T09:32:26.999Z</time></trkpt><trkpt lat="45.58595570091019" lon="11.050195233762235"><ele>653.8</ele><time>2026-04-08T09:32:27.999Z</time></trkpt><trkpt lat="45.58585036186821" lon="11.050247813337535"><ele>656.0</ele><time>2026-04-08T09:32:29.999Z</time></trkpt><trkpt lat="45.58573337202752" lon="11.050304660695025"><ele>656.0</ele><time>2026-04-08T09:32:31.999Z</time></trkpt><trkpt lat="45.5856696164126" lon="11.0503326007085"><ele>656.0</ele><time>2026-04-08T09:32:32.999Z</time></trkpt><trkpt lat="45.585549418259795" lon="11.050399481076175"><ele>656.0</ele><time>2026-04-08T09:32:34.999Z</time></trkpt><trkpt lat="45.58548102679514" lon="11.05044617477595"><ele>656.0</ele><time>2026-04-08T09:32:35.999Z</time></trkpt><trkpt lat="45.58540779565897" lon="11.050496692036923"><ele>656.0</ele><time>2026-04-08T09:32:36.999Z</time></trkpt><trkpt lat="45.585302260108755" lon="11.050488580324757"><ele>656.6666666666666</ele><time>2026-04-08T09:32:38.999Z</time></trkpt><trkpt lat="45.58520851217214" lon="11.050419778592737"><ele>657.3333333333334</ele><time>2026-04-08T09:32:40.999Z</time></trkpt><trkpt lat="45.5852745236386" lon="11.050057645032304"><ele>658.0</ele><time>2026-04-08T09:32:41.999Z</time></trkpt><trkpt lat="45.58517944958061" lon="11.04999236654493"><ele>662.2</ele><time>2026-04-08T09:32:43.999Z</time></trkpt><trkpt lat="45.58508191111058" lon="11.049890013305376"><ele>666.4</ele><time>2026-04-08T09:32:45.999Z</time></trkpt><trkpt lat="45.58500104196681" lon="11.049752669129749"><ele>670.6</ele><time>2026-04-08T09:32:47.999Z</time></trkpt><trkpt lat="45.584932313006775" lon="11.049628225321888"><ele>674.8000000000001</ele><time>2026-04-08T09:32:49.999Z</time></trkpt><trkpt lat="45.58489207322162" lon="11.049554741806277"><ele>679.0</ele><time>2026-04-08T09:32:50.999Z</time></trkpt><trkpt lat="45.58483852503759" lon="11.049423588846313"><ele>679.0</ele><time>2026-04-08T09:32:52.999Z</time></trkpt><trkpt lat="45.58479813626239" lon="11.04927336304079"><ele>679.0</ele><time>2026-04-08T09:32:54.999Z</time></trkpt><trkpt lat="45.58477863323451" lon="11.049185564978865"><ele>679.0</ele><time>2026-04-08T09:32:55.999Z</time></trkpt><trkpt lat="45.5847477992293" lon="11.049019388428333"><ele>679.0</ele><time>2026-04-08T09:32:57.999Z</time></trkpt><trkpt lat="45.58472077548342" lon="11.048873669585756"><ele>679.0</ele><time>2026-04-08T09:32:59.999Z</time></trkpt><trkpt lat="45.584695568018304" lon="11.048736197500263"><ele>674.6666666666667</ele><time>2026-04-08T09:33:01.999Z</time></trkpt><trkpt lat="45.584676059042096" lon="11.048629738906719"><ele>670.3333333333334</ele><time>2026-04-08T09:33:02.999Z</time></trkpt><trkpt lat="45.58465998070406" lon="11.048542000960524"><ele>666.0</ele><time>2026-04-08T09:33:03.999Z</time></trkpt><trkpt lat="45.58429160571476" lon="11.048625490285632"><ele>666.0</ele><time>2026-04-08T09:33:04.999Z</time></trkpt><trkpt lat="45.584273205222" lon="11.048519472643134"><ele>666.0</ele><time>2026-04-08T09:33:06.999Z</time></trkpt><trkpt lat="45.58422675124608" lon="11.048457556841484"><ele>666.0</ele><time>2026-04-08T09:33:07.999Z</time></trkpt><trkpt lat="45.58416061645674" lon="11.048315920859038"><ele>666.0</ele><time>2026-04-08T09:33:09.999Z</time></trkpt><trkpt lat="45.58409226582934" lon="11.048175897463894"><ele>666.0</ele><time>2026-04-08T09:33:12Z</time></trkpt><trkpt lat="45.58407986183103" lon="11.048025427118873"><ele>667.8</ele><time>2026-04-08T09:33:14Z</time></trkpt><trkpt lat="45.584066014066075" lon="11.047876273792554"><ele>669.5999999999999</ele><time>2026-04-08T09:33:17Z</time></trkpt><trkpt lat="45.584060148045175" lon="11.047777188598078"><ele>671.4</ele><time>2026-04-08T09:33:18Z</time></trkpt><trkpt lat="45.5840634563823" lon="11.047628699610513"><ele>673.2</ele><time>2026-04-08T09:33:20Z</time></trkpt><trkpt lat="45.58405140948194" lon="11.047469140954135"><ele>675.0</ele><time>2026-04-08T09:33:22Z</time></trkpt><trkpt lat="45.58405796877331" lon="11.047376442247582"><ele>677.0</ele><time>2026-04-08T09:33:23Z</time></trkpt><trkpt lat="45.58407308149057" lon="11.047284704315347"><ele>679.0</ele><time>2026-04-08T09:33:24Z</time></trkpt><trkpt lat="45.58408096770643" lon="11.047181822996432"><ele>681.0</ele><time>2026-04-08T09:33:25Z</time></trkpt><trkpt lat="45.584105177775285" lon="11.04702247733564"><ele>683.0</ele><time>2026-04-08T09:33:27Z</time></trkpt><trkpt lat="45.58414032528416" lon="11.046858423040904"><ele>685.0</ele><time>2026-04-08T09:33:29Z</time></trkpt><trkpt lat="45.584386505164126" lon="11.04680984806227"><ele>685.0</ele><time>2026-04-08T09:33:30Z</time></trkpt><trkpt lat="45.58440109373538" lon="11.046654905185791"><ele>685.0</ele><time>2026-04-08T09:33:32Z</time></trkpt><trkpt lat="45.58441116440901" lon="11.046564268266684"><ele>685.0</ele><time>2026-04-08T09:33:33Z</time></trkpt><trkpt lat="45.584424399852715" lon="11.046420311845667"><ele>685.0</ele><time>2026-04-08T09:33:35Z</time></trkpt><trkpt lat="45.584430687139836" lon="11.046297198072354"><ele>685.0</ele><time>2026-04-08T09:33:37Z</time></trkpt><trkpt lat="45.58443196591199" lon="11.046164289450775"><ele>687.0</ele><time>2026-04-08T09:33:38Z</time></trkpt><trkpt lat="45.58415641380198" lon="11.04618590019331"><ele>689.0</ele><time>2026-04-08T09:33:40Z</time></trkpt><trkpt lat="45.58407278113564" lon="11.046179116111716"><ele>691.0</ele><time>2026-04-08T09:33:43Z</time></trkpt><trkpt lat="45.58399993630815" lon="11.046154918969195"><ele>693.0</ele><time>2026-04-08T09:33:45Z</time></trkpt><trkpt lat="45.58392879633215" lon="11.04618508319776"><ele>693.0</ele><time>2026-04-08T09:33:48Z</time></trkpt><trkpt lat="45.58383975476012" lon="11.04621384412399"><ele>693.0</ele><time>2026-04-08T09:33:53Z</time></trkpt><trkpt lat="45.5839022342738" lon="11.046167473997235"><ele>693.0</ele><time>2026-04-08T09:36:45.999Z</time></trkpt><trkpt lat="45.58397596921318" lon="11.046142326743448"><ele>693.0</ele><time>2026-04-08T09:36:48.999Z</time></trkpt><trkpt lat="45.58404379372701" lon="11.046149722884289"><ele>693.0</ele><time>2026-04-08T09:36:51.999Z</time></trkpt><trkpt lat="45.58410933631639" lon="11.046153215422683"><ele>693.0</ele><time>2026-04-08T09:36:53.999Z</time></trkpt><trkpt lat="45.584178124878626" lon="11.046240310216467"><ele>693.0</ele><time>2026-04-08T09:36:56.999Z</time></trkpt><trkpt lat="45.58419834581977" lon="11.046327620380291"><ele>693.0</ele><time>2026-04-08T09:36:59.999Z</time></trkpt><trkpt lat="45.58420176772893" lon="11.046463004852264"><ele>693.0</ele><time>2026-04-08T09:37:02.999Z</time></trkpt><trkpt lat="45.5841944755685" lon="11.046565455338198"><ele>693.0</ele><time>2026-04-08T09:37:04.999Z</time></trkpt><trkpt lat="45.58419000483675" lon="11.046664533195736"><ele>693.0</ele><time>2026-04-08T09:37:06.999Z</time></trkpt><trkpt lat="45.584173012313656" lon="11.046768656217113"><ele>693.0</ele><time>2026-04-08T09:37:08.999Z</time></trkpt><trkpt lat="45.584150301639184" lon="11.04689341290342"><ele>691.6666666666666</ele><time>2026-04-08T09:37:10.999Z</time></trkpt><trkpt lat="45.584132562110995" lon="11.04701498399892"><ele>690.3333333333334</ele><time>2026-04-08T09:37:12.999Z</time></trkpt><trkpt lat="45.58412424176557" lon="11.047104299547575"><ele>689.0</ele><time>2026-04-08T09:37:14.999Z</time></trkpt><trkpt lat="45.58417006282675" lon="11.047255091605741"><ele>687.6666666666667</ele><time>2026-04-08T09:37:16.999Z</time></trkpt><trkpt lat="45.58420475922383" lon="11.04736229188238"><ele>686.3333333333334</ele><time>2026-04-08T09:37:17.999Z</time></trkpt><trkpt lat="45.58427519576055" lon="11.04743307741903"><ele>685.0</ele><time>2026-04-08T09:37:19.999Z</time></trkpt><trkpt lat="45.58434968634396" lon="11.047385494483278"><ele>685.0</ele><time>2026-04-08T09:37:21.999Z</time></trkpt><trkpt lat="45.58439722999789" lon="11.047277853998631"><ele>685.0</ele><time>2026-04-08T09:37:24Z</time></trkpt><trkpt lat="45.58444479566903" lon="11.047148299972104"><ele>685.0</ele><time>2026-04-08T09:37:36Z</time></trkpt><trkpt lat="45.58442792251722" lon="11.04702130672187"><ele>685.0</ele><time>2026-04-08T09:37:37Z</time></trkpt><trkpt lat="45.584405001773725" lon="11.046876399870246"><ele>685.0</ele><time>2026-04-08T09:37:38Z</time></trkpt><trkpt lat="45.58440569938394" lon="11.046720407699265"><ele>687.0</ele><time>2026-04-08T09:37:39Z</time></trkpt><trkpt lat="45.58443262674676" lon="11.046548208386165"><ele>689.0</ele><time>2026-04-08T09:37:40Z</time></trkpt><trkpt lat="45.584454367401435" lon="11.046378495435235"><ele>691.0</ele><time>2026-04-08T09:37:41Z</time></trkpt><trkpt lat="45.58445610780952" lon="11.04620294128527"><ele>693.0</ele><time>2026-04-08T09:37:42Z</time></trkpt><trkpt lat="45.58443133886879" lon="11.046049988295751"><ele>693.0</ele><time>2026-04-08T09:37:43Z</time></trkpt><trkpt lat="45.584385533950055" lon="11.045907771124913"><ele>693.0</ele><time>2026-04-08T09:37:44Z</time></trkpt><trkpt lat="45.58431647583194" lon="11.045771676346906"><ele>693.0</ele><time>2026-04-08T09:37:45Z</time></trkpt><trkpt lat="45.584225959675805" lon="11.045645415340609"><ele>693.0</ele><time>2026-04-08T09:37:46Z</time></trkpt><trkpt lat="45.58410984972815" lon="11.045540939029518"><ele>696.5</ele><time>2026-04-08T09:37:47Z</time></trkpt><trkpt lat="45.583995745659976" lon="11.045469344053249"><ele>700.0</ele><time>2026-04-08T09:37:48Z</time></trkpt><trkpt lat="45.58389608493979" lon="11.045385297692718"><ele>703.5</ele><time>2026-04-08T09:37:49Z</time></trkpt><trkpt lat="45.58380121523054" lon="11.045286757777072"><ele>707.0</ele><time>2026-04-08T09:37:50Z</time></trkpt><trkpt lat="45.583708760666674" lon="11.045179649131889"><ele>706.5</ele><time>2026-04-08T09:37:51Z</time></trkpt><trkpt lat="45.58363040296727" lon="11.045054146981904"><ele>706.0</ele><time>2026-04-08T09:37:52Z</time></trkpt><trkpt lat="45.58357143946573" lon="11.044918342030172"><ele>705.5</ele><time>2026-04-08T09:37:53Z</time></trkpt><trkpt lat="45.58352411086792" lon="11.044776160324467"><ele>705.0</ele><time>2026-04-08T09:37:54Z</time></trkpt><trkpt lat="45.58347931032496" lon="11.044624920234558"><ele>706.0</ele><time>2026-04-08T09:37:55Z</time></trkpt><trkpt lat="45.58343043693305" lon="11.044474358623596"><ele>707.0</ele><time>2026-04-08T09:37:56Z</time></trkpt><trkpt lat="45.58338377824311" lon="11.044333818249479"><ele>708.0</ele><time>2026-04-08T09:37:57Z</time></trkpt><trkpt lat="45.58333580519482" lon="11.04421204949737"><ele>709.0</ele><time>2026-04-08T09:37:58Z</time></trkpt><trkpt lat="45.58327909355845" lon="11.044102362356707"><ele>710.0</ele><time>2026-04-08T09:37:59Z</time></trkpt><trkpt lat="45.58321662070232" lon="11.044010358646007"><ele>711.4</ele><time>2026-04-08T09:38:00Z</time></trkpt><trkpt lat="45.58314758288952" lon="11.04392076289656"><ele>712.8</ele><time>2026-04-08T09:38:01Z</time></trkpt><trkpt lat="45.58306483897762" lon="11.043836129311137"><ele>714.2</ele><time>2026-04-08T09:38:02Z</time></trkpt><trkpt lat="45.582969440039705" lon="11.043760871951545"><ele>715.6</ele><time>2026-04-08T09:38:03Z</time></trkpt><trkpt lat="45.58286289948269" lon="11.043706463027593"><ele>717.0</ele><time>2026-04-08T09:38:04Z</time></trkpt><trkpt lat="45.582760792147326" lon="11.04366536387073"><ele>717.75</ele><time>2026-04-08T09:38:05Z</time></trkpt><trkpt lat="45.582652733995126" lon="11.043633262761206"><ele>718.5</ele><time>2026-04-08T09:38:06Z</time></trkpt><trkpt lat="45.58253214751039" lon="11.043588322378863"><ele>719.25</ele><time>2026-04-08T09:38:07Z</time></trkpt><trkpt lat="45.58240393216454" lon="11.043539314404075"><ele>720.0</ele><time>2026-04-08T09:38:08Z</time></trkpt><trkpt lat="45.58228463114936" lon="11.04349211909224"><ele>720.0</ele><time>2026-04-08T09:38:09Z</time></trkpt><trkpt lat="45.58216331126624" lon="11.043442430204042"><ele>720.0</ele><time>2026-04-08T09:38:10Z</time></trkpt><trkpt lat="45.58203725867635" lon="11.043391530201829"><ele>720.0</ele><time>2026-04-08T09:38:11Z</time></trkpt><trkpt lat="45.58190510488602" lon="11.043341252241246"><ele>720.0</ele><time>2026-04-08T09:38:12Z</time></trkpt><trkpt lat="45.58176771132876" lon="11.043289183426987"><ele>724.25</ele><time>2026-04-08T09:38:13Z</time></trkpt><trkpt lat="45.581625969581886" lon="11.043231742849668"><ele>728.5</ele><time>2026-04-08T09:38:14Z</time></trkpt><trkpt lat="45.581479683081945" lon="11.04317466237455"><ele>732.75</ele><time>2026-04-08T09:38:15Z</time></trkpt><trkpt lat="45.58134414236891" lon="11.043121283712047"><ele>737.0</ele><time>2026-04-08T09:38:16Z</time></trkpt><trkpt lat="45.58121397831482" lon="11.043066248468506"><ele>736.6</ele><time>2026-04-08T09:38:17Z</time></trkpt><trkpt lat="45.581108412390456" lon="11.043019013854545"><ele>736.2</ele><time>2026-04-08T09:38:18Z</time></trkpt><trkpt lat="45.5810210982574" lon="11.042990393209795"><ele>735.8</ele><time>2026-04-08T09:38:19Z</time></trkpt><trkpt lat="45.5809362208469" lon="11.042968910887426"><ele>735.4</ele><time>2026-04-08T09:38:20Z</time></trkpt><trkpt lat="45.58086033095379" lon="11.042958066225635"><ele>735.0</ele><time>2026-04-08T09:38:21Z</time></trkpt><trkpt lat="45.58077069184262" lon="11.042929688425993"><ele>735.0</ele><time>2026-04-08T09:38:21.999Z</time></trkpt><trkpt lat="45.58068620585044" lon="11.042954475317208"><ele>735.0</ele><time>2026-04-08T09:38:22.999Z</time></trkpt><trkpt lat="45.58059544907984" lon="11.042958840811101"><ele>735.0</ele><time>2026-04-08T09:38:23.999Z</time></trkpt><trkpt lat="45.58049321868059" lon="11.042968164048819"><ele>735.0</ele><time>2026-04-08T09:38:24.999Z</time></trkpt><trkpt lat="45.580394278772026" lon="11.042976472359143"><ele>735.0</ele><time>2026-04-08T09:38:25.999Z</time></trkpt><trkpt lat="45.58031083017777" lon="11.042985428248384"><ele>735.5</ele><time>2026-04-08T09:38:26.999Z</time></trkpt><trkpt lat="45.58023315132692" lon="11.042970836431854"><ele>736.0</ele><time>2026-04-08T09:38:27.999Z</time></trkpt><trkpt lat="45.58016991990208" lon="11.042976650156419"><ele>736.5</ele><time>2026-04-08T09:38:28.999Z</time></trkpt><trkpt lat="45.580072868630324" lon="11.043006277508386"><ele>737.0</ele><time>2026-04-08T09:38:30.999Z</time></trkpt><trkpt lat="45.57997937920681" lon="11.043001697210492"><ele>737.5</ele><time>2026-04-08T09:38:32.999Z</time></trkpt><trkpt lat="45.57987496347801" lon="11.042996449229243"><ele>738.0</ele><time>2026-04-08T09:38:35.999Z</time></trkpt><trkpt lat="45.57979893671488" lon="11.042942806087146"><ele>738.0</ele><time>2026-04-08T09:38:37.999Z</time></trkpt><trkpt lat="45.579703408028635" lon="11.042808200559858"><ele>738.0</ele><time>2026-04-08T09:38:39.999Z</time></trkpt><trkpt lat="45.57964342061301" lon="11.04269496932776"><ele>738.0</ele><time>2026-04-08T09:38:41.999Z</time></trkpt><trkpt lat="45.57961729273508" lon="11.04258316326133"><ele>738.0</ele><time>2026-04-08T09:38:44.999Z</time></trkpt><trkpt lat="45.579453832346005" lon="11.04262048766721"><ele>737.4</ele><time>2026-04-08T09:38:47.999Z</time></trkpt><trkpt lat="45.57934700386928" lon="11.042718673538948"><ele>736.8</ele><time>2026-04-08T09:38:49.999Z</time></trkpt><trkpt lat="45.57927399201022" lon="11.042785650119761"><ele>736.2</ele><time>2026-04-08T09:38:50.999Z</time></trkpt><trkpt lat="45.57920039877684" lon="11.042853094816698"><ele>735.6</ele><time>2026-04-08T09:38:51.999Z</time></trkpt><trkpt lat="45.57912404077034" lon="11.042923291022658"><ele>735.0</ele><time>2026-04-08T09:38:52.999Z</time></trkpt><trkpt lat="45.57904044668365" lon="11.042999712953211"><ele>735.0</ele><time>2026-04-08T09:38:53.999Z</time></trkpt><trkpt lat="45.578959622785916" lon="11.043073048368804"><ele>735.0</ele><time>2026-04-08T09:38:54.999Z</time></trkpt><trkpt lat="45.57886983774479" lon="11.04315414113712"><ele>735.0</ele><time>2026-04-08T09:38:55.999Z</time></trkpt><trkpt lat="45.57877671027206" lon="11.043262846787561"><ele>735.0</ele><time>2026-04-08T09:38:56.999Z</time></trkpt><trkpt lat="45.57867282110917" lon="11.043309393398363"><ele>735.0</ele><time>2026-04-08T09:38:57.999Z</time></trkpt><trkpt lat="45.57856656916243" lon="11.043329375937896"><ele>735.75</ele><time>2026-04-08T09:38:58.999Z</time></trkpt><trkpt lat="45.578440099175985" lon="11.043336381024478"><ele>736.5</ele><time>2026-04-08T09:38:59.999Z</time></trkpt><trkpt lat="45.57830765592055" lon="11.043323458371745"><ele>737.25</ele><time>2026-04-08T09:39:00.999Z</time></trkpt><trkpt lat="45.57818293609335" lon="11.043274891574931"><ele>738.0</ele><time>2026-04-08T09:39:01.999Z</time></trkpt><trkpt lat="45.578073656302465" lon="11.043201061370596"><ele>736.8</ele><time>2026-04-08T09:39:02.999Z</time></trkpt><trkpt lat="45.57797950357225" lon="11.04310427593008"><ele>735.5999999999999</ele><time>2026-04-08T09:39:03.999Z</time></trkpt><trkpt lat="45.577899975942586" lon="11.042990779441975"><ele>734.4000000000001</ele><time>2026-04-08T09:39:04.999Z</time></trkpt><trkpt lat="45.57782951268622" lon="11.042877855728552"><ele>733.2</ele><time>2026-04-08T09:39:05.999Z</time></trkpt><trkpt lat="45.57778039550633" lon="11.04278728524244"><ele>732.0</ele><time>2026-04-08T09:39:06.999Z</time></trkpt><trkpt lat="45.57773384662329" lon="11.042645953477729"><ele>732.0</ele><time>2026-04-08T09:39:08.999Z</time></trkpt><trkpt lat="45.577686106318566" lon="11.04249399971315"><ele>732.0</ele><time>2026-04-08T09:39:10.999Z</time></trkpt><trkpt lat="45.57765861890496" lon="11.042377026233327"><ele>732.0</ele><time>2026-04-08T09:39:11.999Z</time></trkpt><trkpt lat="45.5776253434947" lon="11.042246208300181"><ele>732.0</ele><time>2026-04-08T09:39:12.999Z</time></trkpt><trkpt lat="45.57759255826244" lon="11.042136569617583"><ele>732.0</ele><time>2026-04-08T09:39:13.999Z</time></trkpt><trkpt lat="45.57756513283814" lon="11.042037605100097"><ele>730.8333333333334</ele><time>2026-04-08T09:39:14.999Z</time></trkpt><trkpt lat="45.57753742357984" lon="11.041937228880263"><ele>729.6666666666666</ele><time>2026-04-08T09:39:15.999Z</time></trkpt><trkpt lat="45.57750449132086" lon="11.04182511348432"><ele>728.5</ele><time>2026-04-08T09:39:16.999Z</time></trkpt><trkpt lat="45.57746610183801" lon="11.041717922149857"><ele>727.3333333333333</ele><time>2026-04-08T09:39:17.999Z</time></trkpt><trkpt lat="45.577416890259855" lon="11.041601828122298"><ele>726.1666666666666</ele><time>2026-04-08T09:39:18.999Z</time></trkpt><trkpt lat="45.57734201342797" lon="11.041488125122065"><ele>725.0</ele><time>2026-04-08T09:39:19.999Z</time></trkpt><trkpt lat="45.577251366900214" lon="11.041385056352427"><ele>723.8</ele><time>2026-04-08T09:39:20.999Z</time></trkpt><trkpt lat="45.5771577770345" lon="11.04132114619224"><ele>722.6</ele><time>2026-04-08T09:39:21.999Z</time></trkpt><trkpt lat="45.577070977343936" lon="11.041281965236067"><ele>721.4000000000001</ele><time>2026-04-08T09:39:22.999Z</time></trkpt><trkpt lat="45.57699530451869" lon="11.041232019582871"><ele>720.2</ele><time>2026-04-08T09:39:23.999Z</time></trkpt><trkpt lat="45.57691367130932" lon="11.041220367558394"><ele>719.0</ele><time>2026-04-08T09:39:24.999Z</time></trkpt><trkpt lat="45.5768192708954" lon="11.041218636615957"><ele>719.0</ele><time>2026-04-08T09:39:25.999Z</time></trkpt><trkpt lat="45.57671774384353" lon="11.04122923961803"><ele>719.0</ele><time>2026-04-08T09:39:26.999Z</time></trkpt><trkpt lat="45.57661313431287" lon="11.041241861957376"><ele>719.0</ele><time>2026-04-08T09:39:27.999Z</time></trkpt><trkpt lat="45.57650967759343" lon="11.041255899219314"><ele>719.0</ele><time>2026-04-08T09:39:28.999Z</time></trkpt><trkpt lat="45.57641854447755" lon="11.041268264383941"><ele>719.0</ele><time>2026-04-08T09:39:30Z</time></trkpt><trkpt lat="45.57633203858802" lon="11.041280118737458"><ele>719.0</ele><time>2026-04-08T09:39:31Z</time></trkpt><trkpt lat="45.57625172993706" lon="11.04129113907433"><ele>719.0</ele><time>2026-04-08T09:39:32Z</time></trkpt><trkpt lat="45.57617128056041" lon="11.041302180654919"><ele>719.0</ele><time>2026-04-08T09:39:33Z</time></trkpt><trkpt lat="45.57609453906638" lon="11.041312711518188"><ele>719.0</ele><time>2026-04-08T09:39:34Z</time></trkpt><trkpt lat="45.57602407444854" lon="11.041345055656347"><ele>719.0</ele><time>2026-04-08T09:39:35Z</time></trkpt><trkpt lat="45.57595872056423" lon="11.041329950764839"><ele>719.0</ele><time>2026-04-08T09:39:36Z</time></trkpt><trkpt lat="45.575871335424345" lon="11.041354893841632"><ele>718.5714285714286</ele><time>2026-04-08T09:39:38Z</time></trkpt><trkpt lat="45.57594091892764" lon="11.041394431939098"><ele>718.1428571428571</ele><time>2026-04-08T09:40:01Z</time></trkpt><trkpt lat="45.57596770315929" lon="11.04147815661475"><ele>717.7142857142858</ele><time>2026-04-08T09:40:09Z</time></trkpt><trkpt lat="45.575968724664456" lon="11.041378557942258"><ele>717.2857142857142</ele><time>2026-04-08T09:41:11.999Z</time></trkpt><trkpt lat="45.575910863207525" lon="11.041328741025517"><ele>716.8571428571429</ele><time>2026-04-08T09:41:22.999Z</time></trkpt><trkpt lat="45.575840577941456" lon="11.041324972733534"><ele>716.4285714285714</ele><time>2026-04-08T09:41:29.999Z</time></trkpt><trkpt lat="45.57583111965187" lon="11.041421836231837"><ele>716.0</ele><time>2026-04-08T09:41:37Z</time></trkpt><trkpt lat="45.575799792094145" lon="11.041511419534924"><ele>716.0</ele><time>2026-04-08T09:41:43Z</time></trkpt><trkpt lat="45.575754462184385" lon="11.041591380394008"><ele>716.0</ele><time>2026-04-08T09:41:50Z</time></trkpt><trkpt lat="45.57569766628013" lon="11.041464268137643"><ele>716.0</ele><time>2026-04-08T09:41:58Z</time></trkpt><trkpt lat="45.57581170984461" lon="11.041416600758982"><ele>716.0</ele><time>2026-04-08T09:42:03Z</time></trkpt><trkpt lat="45.57587159916384" lon="11.04145461704998"><ele>716.0</ele><time>2026-04-08T09:42:46.999Z</time></trkpt><trkpt lat="45.57593674991206" lon="11.041462724120832"><ele>716.0</ele><time>2026-04-08T09:42:53.999Z</time></trkpt><trkpt lat="45.57596987049951" lon="11.04138043222755"><ele>716.0</ele><time>2026-04-08T09:43:21.999Z</time></trkpt><trkpt lat="45.57590725896148" lon="11.041352266903834"><ele>716.0</ele><time>2026-04-08T09:43:33.999Z</time></trkpt><trkpt lat="45.575851480850616" lon="11.041404223511558"><ele>716.0</ele><time>2026-04-08T09:45:01.999Z</time></trkpt><trkpt lat="45.57579418438666" lon="11.041491195599267"><ele>716.0</ele><time>2026-04-08T09:49:29.999Z</time></trkpt><trkpt lat="45.57584962873353" lon="11.041401930975765"><ele>716.0</ele><time>2026-04-08T10:10:06.999Z</time></trkpt><trkpt lat="45.57599493679651" lon="11.04122835199598"><ele>716.0000000000001</ele><time>2026-04-08T10:24:43Z</time></trkpt><trkpt lat="45.57594510559766" lon="11.04129926035291"><ele>716.0</ele><time>2026-04-08T10:24:45Z</time></trkpt><trkpt lat="45.5758895651286" lon="11.041357105674976"><ele>716.0</ele><time>2026-04-08T10:24:47Z</time></trkpt><trkpt lat="45.575829686715906" lon="11.041443479747285"><ele>716.0</ele><time>2026-04-08T10:28:52Z</time></trkpt><trkpt lat="45.575884628568836" lon="11.04138404843766"><ele>716.0</ele><time>2026-04-08T10:29:03Z</time></trkpt><trkpt lat="45.57581169552259" lon="11.041318595651619"><ele>716.0000000000001</ele><time>2026-04-08T10:29:04Z</time></trkpt><trkpt lat="45.57579014481268" lon="11.041233773717005"><ele>716.0</ele><time>2026-04-08T10:29:07Z</time></trkpt><trkpt lat="45.575776761787445" lon="11.041130665863106"><ele>716.0</ele><time>2026-04-08T10:29:11Z</time></trkpt><trkpt lat="45.57573151313315" lon="11.041360683749467"><ele>716.0</ele><time>2026-04-08T10:29:12Z</time></trkpt><trkpt lat="45.57575183478511" lon="11.041500565996001"><ele>716.0</ele><time>2026-04-08T10:29:16Z</time></trkpt><trkpt lat="45.57577230580243" lon="11.04161967687639"><ele>716.0</ele><time>2026-04-08T10:29:19Z</time></trkpt><trkpt lat="45.575827754194066" lon="11.041745116090805"><ele>716.0</ele><time>2026-04-08T10:29:23Z</time></trkpt><trkpt lat="45.575871355456826" lon="11.04134169117844"><ele>716.0</ele><time>2026-04-08T10:29:52.551Z</time></trkpt><trkpt lat="45.57579599710881" lon="11.041341941040484"><ele>716.0</ele><time>2026-04-08T10:30:11.018Z</time></trkpt><trkpt lat="45.57581088507234" lon="11.041429984058341"><ele>716.0</ele><time>2026-04-08T10:30:18.999Z</time></trkpt><trkpt lat="45.575899995660436" lon="11.04144466210821"><ele>716.0</ele><time>2026-04-08T10:30:57Z</time></trkpt><trkpt lat="45.575967199534475" lon="11.041380880596185"><ele>716.0</ele><time>2026-04-08T10:32:48.999Z</time></trkpt><trkpt lat="45.575888405327596" lon="11.041348969683572"><ele>716.0</ele><time>2026-04-08T10:33:09Z</time></trkpt><trkpt lat="45.575753225907256" lon="11.041342236156282"><ele>716.0</ele><time>2026-04-08T10:33:11Z</time></trkpt><trkpt lat="45.57565764185058" lon="11.041350338682376"><ele>716.0</ele><time>2026-04-08T10:33:12Z</time></trkpt><trkpt lat="45.57555230256105" lon="11.04133719449489"><ele>716.0</ele><time>2026-04-08T10:33:13Z</time></trkpt><trkpt lat="45.57545388135684" lon="11.041304491493014"><ele>716.0</ele><time>2026-04-08T10:33:14Z</time></trkpt><trkpt lat="45.5753676645217" lon="11.04124834577601"><ele>716.0</ele><time>2026-04-08T10:33:15Z</time></trkpt><trkpt lat="45.57529998056169" lon="11.041191650347368"><ele>716.0</ele><time>2026-04-08T10:33:16Z</time></trkpt><trkpt lat="45.575248580655035" lon="11.041050501883893"><ele>716.0</ele><time>2026-04-08T10:33:17Z</time></trkpt><trkpt lat="45.57519314505821" lon="11.040892290838888"><ele>715.25</ele><time>2026-04-08T10:33:18Z</time></trkpt><trkpt lat="45.575149722581514" lon="11.040737255575564"><ele>714.5</ele><time>2026-04-08T10:33:19Z</time></trkpt><trkpt lat="45.575101177818226" lon="11.040584095823323"><ele>713.75</ele><time>2026-04-08T10:33:20Z</time></trkpt><trkpt lat="45.575050242485155" lon="11.040446488901628"><ele>713.0</ele><time>2026-04-08T10:33:21Z</time></trkpt><trkpt lat="45.57501096485188" lon="11.040283886523513"><ele>713.0</ele><time>2026-04-08T10:33:22Z</time></trkpt><trkpt lat="45.574947548735224" lon="11.040149480038869"><ele>713.0</ele><time>2026-04-08T10:33:23Z</time></trkpt><trkpt lat="45.57490839382811" lon="11.039996639661076"><ele>713.0</ele><time>2026-04-08T10:33:24Z</time></trkpt><trkpt lat="45.57485725104234" lon="11.039847756193518"><ele>713.0</ele><time>2026-04-08T10:33:25Z</time></trkpt><trkpt lat="45.57480395517445" lon="11.039698715315229"><ele>712.5</ele><time>2026-04-08T10:33:26Z</time></trkpt><trkpt lat="45.57475519376928" lon="11.039549217758218"><ele>712.0</ele><time>2026-04-08T10:33:27Z</time></trkpt><trkpt lat="45.57470749485486" lon="11.039401120421099"><ele>711.5</ele><time>2026-04-08T10:33:28Z</time></trkpt><trkpt lat="45.57465446308496" lon="11.03924179986316"><ele>711.0</ele><time>2026-04-08T10:33:29Z</time></trkpt><trkpt lat="45.57459833045864" lon="11.039098108843854"><ele>711.0</ele><time>2026-04-08T10:33:30Z</time></trkpt><trkpt lat="45.57454232189951" lon="11.038962086348947"><ele>711.0</ele><time>2026-04-08T10:33:31Z</time></trkpt><trkpt lat="45.57447578856468" lon="11.038836454772701"><ele>711.0</ele><time>2026-04-08T10:33:32Z</time></trkpt><trkpt lat="45.57438413527216" lon="11.038724082578657"><ele>711.0</ele><time>2026-04-08T10:33:33Z</time></trkpt><trkpt lat="45.574275808172466" lon="11.038658700421825"><ele>711.25</ele><time>2026-04-08T10:33:34Z</time></trkpt><trkpt lat="45.57415075830977" lon="11.038596106700064"><ele>711.5</ele><time>2026-04-08T10:33:35Z</time></trkpt><trkpt lat="45.57403497873461" lon="11.038558894360055"><ele>711.75</ele><time>2026-04-08T10:33:36Z</time></trkpt><trkpt lat="45.5739151272187" lon="11.038556735393733"><ele>712.0</ele><time>2026-04-08T10:33:37Z</time></trkpt><trkpt lat="45.57379519263764" lon="11.038579431019144"><ele>709.75</ele><time>2026-04-08T10:33:38Z</time></trkpt><trkpt lat="45.5736769180057" lon="11.038631645004838"><ele>707.5</ele><time>2026-04-08T10:33:39Z</time></trkpt><trkpt lat="45.57355990383582" lon="11.03870832934047"><ele>705.25</ele><time>2026-04-08T10:33:39.999Z</time></trkpt><trkpt lat="45.57345318033029" lon="11.03880103760813"><ele>703.0</ele><time>2026-04-08T10:33:40.999Z</time></trkpt><trkpt lat="45.573355869500226" lon="11.0389210188376"><ele>703.0</ele><time>2026-04-08T10:33:41.999Z</time></trkpt><trkpt lat="45.57327742277368" lon="11.039065921610126"><ele>703.0</ele><time>2026-04-08T10:33:42.999Z</time></trkpt><trkpt lat="45.57320052038565" lon="11.039201204371324"><ele>703.0</ele><time>2026-04-08T10:33:43.999Z</time></trkpt><trkpt lat="45.573155913601354" lon="11.039373325054736"><ele>703.0</ele><time>2026-04-08T10:33:44.999Z</time></trkpt><trkpt lat="45.57309786536844" lon="11.039542565091947"><ele>702.0</ele><time>2026-04-08T10:33:45.999Z</time></trkpt><trkpt lat="45.57303561369156" lon="11.039714344992962"><ele>701.0</ele><time>2026-04-08T10:33:46.999Z</time></trkpt><trkpt lat="45.572967667257224" lon="11.039880508266625"><ele>700.0</ele><time>2026-04-08T10:33:47.999Z</time></trkpt><trkpt lat="45.57289459912514" lon="11.040023931762736"><ele>699.0</ele><time>2026-04-08T10:33:48.999Z</time></trkpt><trkpt lat="45.57280491562888" lon="11.040121299588755"><ele>699.0</ele><time>2026-04-08T10:33:49.999Z</time></trkpt><trkpt lat="45.572719399768154" lon="11.040228071792777"><ele>699.0</ele><time>2026-04-08T10:33:50.999Z</time></trkpt><trkpt lat="45.57263577941174" lon="11.040326249342703"><ele>699.0</ele><time>2026-04-08T10:33:51.999Z</time></trkpt><trkpt lat="45.57255874617706" lon="11.040416228252322"><ele>699.0</ele><time>2026-04-08T10:33:52.999Z</time></trkpt><trkpt lat="45.57249024381225" lon="11.040496243025757"><ele>699.0</ele><time>2026-04-08T10:33:53.999Z</time></trkpt><trkpt lat="45.572431990883004" lon="11.040564619974324"><ele>699.0</ele><time>2026-04-08T10:33:54.999Z</time></trkpt><trkpt lat="45.57233960876636" lon="11.040673917461145"><ele>699.0</ele><time>2026-04-08T10:33:56.999Z</time></trkpt><trkpt lat="45.57239564052017" lon="11.04092972282775"><ele>699.0</ele><time>2026-04-08T10:33:57.999Z</time></trkpt><trkpt lat="45.57231313932526" lon="11.040991768536307"><ele>699.0</ele><time>2026-04-08T10:33:58.999Z</time></trkpt><trkpt lat="45.57223881078219" lon="11.041072310915418"><ele>699.5</ele><time>2026-04-08T10:33:59.999Z</time></trkpt><trkpt lat="45.57217665887424" lon="11.04118274957848"><ele>700.0</ele><time>2026-04-08T10:34:00.999Z</time></trkpt><trkpt lat="45.57214298109507" lon="11.041302125603204"><ele>700.5</ele><time>2026-04-08T10:34:01.999Z</time></trkpt><trkpt lat="45.57213531684045" lon="11.041428598441737"><ele>701.0</ele><time>2026-04-08T10:34:02.999Z</time></trkpt><trkpt lat="45.571930401367325" lon="11.041504604598979"><ele>699.3333333333333</ele><time>2026-04-08T10:34:03.999Z</time></trkpt><trkpt lat="45.5721909764083" lon="11.041699587943427"><ele>697.6666666666666</ele><time>2026-04-08T10:34:04.999Z</time></trkpt><trkpt lat="45.57224322257809" lon="11.04183606803519"><ele>696.0</ele><time>2026-04-08T10:34:05.999Z</time></trkpt><trkpt lat="45.572279586954544" lon="11.042003111984126"><ele>696.0</ele><time>2026-04-08T10:34:06.999Z</time></trkpt><trkpt lat="45.572342316162135" lon="11.042146981261045"><ele>696.0</ele><time>2026-04-08T10:34:07.999Z</time></trkpt><trkpt lat="45.57237644814531" lon="11.042311506220532"><ele>696.0</ele><time>2026-04-08T10:34:08.999Z</time></trkpt><trkpt lat="45.572427740404535" lon="11.042456394524145"><ele>696.0</ele><time>2026-04-08T10:34:09.999Z</time></trkpt><trkpt lat="45.57243848046851" lon="11.042618853350156"><ele>694.75</ele><time>2026-04-08T10:34:10.999Z</time></trkpt><trkpt lat="45.57244616693361" lon="11.042783459280406"><ele>693.5</ele><time>2026-04-08T10:34:11.999Z</time></trkpt><trkpt lat="45.57244650706238" lon="11.042943901258335"><ele>692.25</ele><time>2026-04-08T10:34:12.999Z</time></trkpt><trkpt lat="45.5724342180767" lon="11.043096218111879"><ele>691.0</ele><time>2026-04-08T10:34:13.999Z</time></trkpt><trkpt lat="45.57240909886321" lon="11.043260937894857"><ele>689.25</ele><time>2026-04-08T10:34:14.999Z</time></trkpt><trkpt lat="45.572378357005036" lon="11.043429556428107"><ele>687.5</ele><time>2026-04-08T10:34:15.999Z</time></trkpt><trkpt lat="45.57234849630852" lon="11.043598554764019"><ele>685.75</ele><time>2026-04-08T10:34:16.999Z</time></trkpt><trkpt lat="45.57233694579491" lon="11.043773404192937"><ele>684.0</ele><time>2026-04-08T10:34:17.999Z</time></trkpt><trkpt lat="45.5723108787315" lon="11.04392886520256"><ele>684.0</ele><time>2026-04-08T10:34:18.999Z</time></trkpt><trkpt lat="45.57227553211443" lon="11.044106189373997"><ele>684.0</ele><time>2026-04-08T10:34:19.999Z</time></trkpt><trkpt lat="45.572262022110195" lon="11.044273340775364"><ele>684.0</ele><time>2026-04-08T10:34:20.999Z</time></trkpt><trkpt lat="45.57225478086044" lon="11.044441981331033"><ele>684.0</ele><time>2026-04-08T10:34:21.999Z</time></trkpt><trkpt lat="45.57226656281314" lon="11.044613092649014"><ele>681.75</ele><time>2026-04-08T10:34:22.999Z</time></trkpt><trkpt lat="45.57224804522794" lon="11.044781576498673"><ele>679.5</ele><time>2026-04-08T10:34:23.999Z</time></trkpt><trkpt lat="45.572239378198546" lon="11.044946545399831"><ele>677.25</ele><time>2026-04-08T10:34:24.999Z</time></trkpt><trkpt lat="45.572184344873314" lon="11.045090056922756"><ele>675.0</ele><time>2026-04-08T10:34:25.999Z</time></trkpt><trkpt lat="45.57214952799844" lon="11.045256442834614"><ele>674.0</ele><time>2026-04-08T10:34:26.999Z</time></trkpt><trkpt lat="45.572094084742226" lon="11.0454157633377"><ele>673.0</ele><time>2026-04-08T10:34:27.999Z</time></trkpt><trkpt lat="45.57204215220818" lon="11.045582781746177"><ele>672.0</ele><time>2026-04-08T10:34:28.999Z</time></trkpt><trkpt lat="45.57199722434142" lon="11.045749088773514"><ele>671.0</ele><time>2026-04-08T10:34:29.999Z</time></trkpt><trkpt lat="45.571959751504544" lon="11.045906673729812"><ele>669.8</ele><time>2026-04-08T10:34:30.999Z</time></trkpt><trkpt lat="45.57191618280309" lon="11.046049532064874"><ele>668.5999999999999</ele><time>2026-04-08T10:34:31.999Z</time></trkpt><trkpt lat="45.57187912582898" lon="11.046187285606099"><ele>667.4</ele><time>2026-04-08T10:34:32.999Z</time></trkpt><trkpt lat="45.57183256717067" lon="11.046326326835125"><ele>666.2</ele><time>2026-04-08T10:34:33.999Z</time></trkpt><trkpt lat="45.57181880746994" lon="11.046471940977623"><ele>665.0</ele><time>2026-04-08T10:34:34.999Z</time></trkpt><trkpt lat="45.57182678423369" lon="11.04663379328595"><ele>662.6666666666666</ele><time>2026-04-08T10:34:35.999Z</time></trkpt><trkpt lat="45.57182415024046" lon="11.046767800298495"><ele>660.3333333333333</ele><time>2026-04-08T10:34:36.999Z</time></trkpt><trkpt lat="45.57180233282404" lon="11.046887896994487"><ele>658.0</ele><time>2026-04-08T10:34:37.999Z</time></trkpt><trkpt lat="45.571794595465995" lon="11.047018480683823"><ele>655.6666666666666</ele><time>2026-04-08T10:34:38.999Z</time></trkpt><trkpt lat="45.57178770703152" lon="11.047134737028287"><ele>653.3333333333334</ele><time>2026-04-08T10:34:39.999Z</time></trkpt><trkpt lat="45.57178208306189" lon="11.047229653061446"><ele>651.0</ele><time>2026-04-08T10:34:40.999Z</time></trkpt><trkpt lat="45.57178565434145" lon="11.047359237581688"><ele>649.0</ele><time>2026-04-08T10:34:42.999Z</time></trkpt><trkpt lat="45.57170219023076" lon="11.04747068191547"><ele>647.0</ele><time>2026-04-08T10:34:44.999Z</time></trkpt><trkpt lat="45.57167471287258" lon="11.04761364876533"><ele>645.0</ele><time>2026-04-08T10:34:46.999Z</time></trkpt><trkpt lat="45.571683752638165" lon="11.047749533965334"><ele>643.0</ele><time>2026-04-08T10:34:48.999Z</time></trkpt><trkpt lat="45.57155142513278" lon="11.047759615040949"><ele>641.0</ele><time>2026-04-08T10:34:50.999Z</time></trkpt><trkpt lat="45.57146080100674" lon="11.047778800538554"><ele>641.0</ele><time>2026-04-08T10:34:52.999Z</time></trkpt><trkpt lat="45.571372124050136" lon="11.047850319510125"><ele>641.0</ele><time>2026-04-08T10:34:53.999Z</time></trkpt><trkpt lat="45.57129228149372" lon="11.047895796989538"><ele>641.0</ele><time>2026-04-08T10:34:54.999Z</time></trkpt><trkpt lat="45.571201256999714" lon="11.047941092917819"><ele>641.0</ele><time>2026-04-08T10:34:55.999Z</time></trkpt><trkpt lat="45.57112710655878" lon="11.047968330535753"><ele>641.0</ele><time>2026-04-08T10:34:57Z</time></trkpt><trkpt lat="45.57104272853478" lon="11.04798174564812"><ele>641.0</ele><time>2026-04-08T10:34:58Z</time></trkpt><trkpt lat="45.57096743542032" lon="11.048001333497968"><ele>641.5</ele><time>2026-04-08T10:34:59Z</time></trkpt><trkpt lat="45.57089789044287" lon="11.04796826630978"><ele>642.0</ele><time>2026-04-08T10:35:00Z</time></trkpt><trkpt lat="45.57083072355888" lon="11.047938476336704"><ele>642.5</ele><time>2026-04-08T10:35:01Z</time></trkpt><trkpt lat="45.57075826588288" lon="11.047905983930464"><ele>643.0</ele><time>2026-04-08T10:35:02Z</time></trkpt><trkpt lat="45.5706998347765" lon="11.04780715771933"><ele>643.5</ele><time>2026-04-08T10:35:03Z</time></trkpt><trkpt lat="45.57063435845816" lon="11.047720820582704"><ele>644.0</ele><time>2026-04-08T10:35:04Z</time></trkpt><trkpt lat="45.570545825076024" lon="11.047631093682083"><ele>644.0</ele><time>2026-04-08T10:35:05Z</time></trkpt><trkpt lat="45.57046107428124" lon="11.047531084777628"><ele>644.0</ele><time>2026-04-08T10:35:06Z</time></trkpt><trkpt lat="45.57038793716304" lon="11.047438752543956"><ele>644.0</ele><time>2026-04-08T10:35:07Z</time></trkpt><trkpt lat="45.57030160547763" lon="11.047378646608115"><ele>644.0</ele><time>2026-04-08T10:35:08Z</time></trkpt><trkpt lat="45.57020924819849" lon="11.047295009892492"><ele>644.0</ele><time>2026-04-08T10:35:09Z</time></trkpt><trkpt lat="45.570130817270666" lon="11.047206310464842"><ele>645.6</ele><time>2026-04-08T10:35:10Z</time></trkpt><trkpt lat="45.570058833462525" lon="11.047118469323445"><ele>647.2</ele><time>2026-04-08T10:35:11Z</time></trkpt><trkpt lat="45.5699808849434" lon="11.047056117698785"><ele>648.8000000000001</ele><time>2026-04-08T10:35:12Z</time></trkpt><trkpt lat="45.56987672199657" lon="11.047071271047754"><ele>650.4000000000001</ele><time>2026-04-08T10:35:13Z</time></trkpt><trkpt lat="45.56977911508412" lon="11.047087361159017"><ele>652.0</ele><time>2026-04-08T10:35:14Z</time></trkpt><trkpt lat="45.569675952062006" lon="11.04707860259366"><ele>652.0</ele><time>2026-04-08T10:35:15Z</time></trkpt><trkpt lat="45.56957381034646" lon="11.047070731676637"><ele>652.0</ele><time>2026-04-08T10:35:16Z</time></trkpt><trkpt lat="45.56947920850504" lon="11.0470410736446"><ele>652.0</ele><time>2026-04-08T10:35:17Z</time></trkpt><trkpt lat="45.56938877312961" lon="11.047031995282351"><ele>652.0</ele><time>2026-04-08T10:35:18Z</time></trkpt><trkpt lat="45.56932754414455" lon="11.046983575388815"><ele>652.0</ele><time>2026-04-08T10:35:19Z</time></trkpt><trkpt lat="45.56923125282765" lon="11.046929087593169"><ele>650.8</ele><time>2026-04-08T10:35:21Z</time></trkpt><trkpt lat="45.569135978943734" lon="11.046985064991924"><ele>649.6</ele><time>2026-04-08T10:35:23Z</time></trkpt><trkpt lat="45.569135715346576" lon="11.047115143066105"><ele>648.4</ele><time>2026-04-08T10:35:24Z</time></trkpt><trkpt lat="45.569201525562846" lon="11.04724547864879"><ele>647.1999999999999</ele><time>2026-04-08T10:35:25Z</time></trkpt><trkpt lat="45.569276275566885" lon="11.04735389351648"><ele>646.0</ele><time>2026-04-08T10:35:26Z</time></trkpt><trkpt lat="45.569358619502054" lon="11.0474637335614"><ele>645.5999999999999</ele><time>2026-04-08T10:35:27Z</time></trkpt><trkpt lat="45.56945299181418" lon="11.047561006325878"><ele>645.2</ele><time>2026-04-08T10:35:28Z</time></trkpt><trkpt lat="45.56956410733604" lon="11.04764400488686"><ele>644.8</ele><time>2026-04-08T10:35:29Z</time></trkpt><trkpt lat="45.56967028182621" lon="11.04771108029223"><ele>644.4000000000001</ele><time>2026-04-08T10:35:30Z</time></trkpt><trkpt lat="45.5697271563889" lon="11.047802150458113"><ele>644.0</ele><time>2026-04-08T10:35:31Z</time></trkpt><trkpt lat="45.569792848461205" lon="11.047908719161505"><ele>643.8571428571429</ele><time>2026-04-08T10:35:32Z</time></trkpt><trkpt lat="45.56983620964094" lon="11.04798206697635"><ele>643.7142857142858</ele><time>2026-04-08T10:35:33Z</time></trkpt><trkpt lat="45.56989885134658" lon="11.048097576419714"><ele>643.5714285714286</ele><time>2026-04-08T10:35:35Z</time></trkpt><trkpt lat="45.56993677802664" lon="11.048176452742302"><ele>643.4285714285714</ele><time>2026-04-08T10:35:36Z</time></trkpt><trkpt lat="45.56997935031212" lon="11.048270017168333"><ele>643.2857142857143</ele><time>2026-04-08T10:35:37Z</time></trkpt><trkpt lat="45.570025455742616" lon="11.048339723672887"><ele>643.1428571428571</ele><time>2026-04-08T10:35:38Z</time></trkpt><trkpt lat="45.57002749603328" lon="11.048435505863601"><ele>643.0</ele><time>2026-04-08T10:35:39Z</time></trkpt><trkpt lat="45.57003405082598" lon="11.04852716643724"><ele>643.3333333333334</ele><time>2026-04-08T10:35:40Z</time></trkpt><trkpt lat="45.57001579559144" lon="11.048616381898277"><ele>643.6666666666667</ele><time>2026-04-08T10:35:41Z</time></trkpt><trkpt lat="45.56998305180896" lon="11.048707127587997"><ele>644.0</ele><time>2026-04-08T10:35:41.999Z</time></trkpt><trkpt lat="45.56996005044234" lon="11.048828794219176"><ele>644.3333333333334</ele><time>2026-04-08T10:35:42.999Z</time></trkpt><trkpt lat="45.5699415419128" lon="11.048926695804909"><ele>644.6666666666666</ele><time>2026-04-08T10:35:43.999Z</time></trkpt><trkpt lat="45.569921228737364" lon="11.049034143142892"><ele>645.0</ele><time>2026-04-08T10:35:44.999Z</time></trkpt><trkpt lat="45.56997236836547" lon="11.049141463947686"><ele>646.6666666666666</ele><time>2026-04-08T10:35:45.999Z</time></trkpt><trkpt lat="45.570016169497556" lon="11.049229311826574"><ele>648.3333333333334</ele><time>2026-04-08T10:35:46.999Z</time></trkpt><trkpt lat="45.57005861646298" lon="11.049323738800854"><ele>650.0</ele><time>2026-04-08T10:35:47.999Z</time></trkpt><trkpt lat="45.57008500182167" lon="11.049419824934157"><ele>651.6666666666667</ele><time>2026-04-08T10:35:49.999Z</time></trkpt><trkpt lat="45.5699984133303" lon="11.049459141574257"><ele>653.3333333333334</ele><time>2026-04-08T10:35:51.999Z</time></trkpt><trkpt lat="45.56993673777377" lon="11.04940270808743"><ele>655.0</ele><time>2026-04-08T10:35:52.999Z</time></trkpt><trkpt lat="45.56988344342189" lon="11.049343910039742"><ele>655.0</ele><time>2026-04-08T10:35:53.999Z</time></trkpt><trkpt lat="45.56981924099876" lon="11.049445621909046"><ele>655.0</ele><time>2026-04-08T10:35:55.999Z</time></trkpt><trkpt lat="45.569805183112514" lon="11.04955398114353"><ele>655.0</ele><time>2026-04-08T10:35:56.999Z</time></trkpt><trkpt lat="45.56983690176976" lon="11.04964800600457"><ele>655.0</ele><time>2026-04-08T10:35:57.999Z</time></trkpt><trkpt lat="45.569917501943685" lon="11.049778609258475"><ele>655.0</ele><time>2026-04-08T10:35:59.999Z</time></trkpt><trkpt lat="45.56994430516487" lon="11.049867442572276"><ele>655.0</ele><time>2026-04-08T10:36:00.999Z</time></trkpt><trkpt lat="45.56995270839451" lon="11.050047651480076"><ele>655.0</ele><time>2026-04-08T10:36:02.999Z</time></trkpt><trkpt lat="45.56991265449448" lon="11.050149890244434"><ele>655.0</ele><time>2026-04-08T10:36:04.999Z</time></trkpt><trkpt lat="45.56980925019994" lon="11.050098576872495"><ele>655.0</ele><time>2026-04-08T10:36:06.999Z</time></trkpt><trkpt lat="45.56975892098916" lon="11.0500299769352"><ele>655.0</ele><time>2026-04-08T10:36:07.999Z</time></trkpt><trkpt lat="45.56965352010085" lon="11.049949983044868"><ele>655.0</ele><time>2026-04-08T10:36:09.999Z</time></trkpt><trkpt lat="45.56955371207822" lon="11.049957615642674"><ele>656.2</ele><time>2026-04-08T10:36:11.999Z</time></trkpt><trkpt lat="45.56954851278966" lon="11.05009275297336"><ele>657.4</ele><time>2026-04-08T10:36:13.999Z</time></trkpt><trkpt lat="45.56955772356438" lon="11.050256259490768"><ele>658.5999999999999</ele><time>2026-04-08T10:36:15.999Z</time></trkpt><trkpt lat="45.56953710537769" lon="11.050381947645384"><ele>659.8</ele><time>2026-04-08T10:36:16.999Z</time></trkpt><trkpt lat="45.5695238244884" lon="11.050492963011324"><ele>661.0</ele><time>2026-04-08T10:36:17.999Z</time></trkpt><trkpt lat="45.569512647894875" lon="11.050607517511756"><ele>664.8333333333334</ele><time>2026-04-08T10:36:18.999Z</time></trkpt><trkpt lat="45.5695053186482" lon="11.050721540706222"><ele>668.6666666666667</ele><time>2026-04-08T10:36:19.999Z</time></trkpt><trkpt lat="45.56948715131325" lon="11.050837551640457"><ele>672.5</ele><time>2026-04-08T10:36:20.999Z</time></trkpt><trkpt lat="45.56945917181591" lon="11.050951802995232"><ele>676.3333333333334</ele><time>2026-04-08T10:36:21.999Z</time></trkpt><trkpt lat="45.5694192641299" lon="11.051066688039997"><ele>680.1666666666666</ele><time>2026-04-08T10:36:22.999Z</time></trkpt><trkpt lat="45.569368429524964" lon="11.051178872746453"><ele>684.0</ele><time>2026-04-08T10:36:23.999Z</time></trkpt><trkpt lat="45.56930111891899" lon="11.051294441783734"><ele>685.0</ele><time>2026-04-08T10:36:24.999Z</time></trkpt><trkpt lat="45.569229901618506" lon="11.051398560852904"><ele>686.0</ele><time>2026-04-08T10:36:25.999Z</time></trkpt><trkpt lat="45.56915441817426" lon="11.051496274718302"><ele>687.0</ele><time>2026-04-08T10:36:26.999Z</time></trkpt><trkpt lat="45.56908893864273" lon="11.051587086103002"><ele>688.0</ele><time>2026-04-08T10:36:27.999Z</time></trkpt><trkpt lat="45.569011133716806" lon="11.05168305241294"><ele>689.0</ele><time>2026-04-08T10:36:28.999Z</time></trkpt><trkpt lat="45.568934894306324" lon="11.051774931024994"><ele>689.0</ele><time>2026-04-08T10:36:29.999Z</time></trkpt><trkpt lat="45.568854913260694" lon="11.051852480001212"><ele>689.0</ele><time>2026-04-08T10:36:30.999Z</time></trkpt><trkpt lat="45.56877718863743" lon="11.05194362510541"><ele>689.0</ele><time>2026-04-08T10:36:31.999Z</time></trkpt><trkpt lat="45.56870108163742" lon="11.052051546220806"><ele>689.0</ele><time>2026-04-08T10:36:32.999Z</time></trkpt><trkpt lat="45.56862221522666" lon="11.052137486215361"><ele>689.0</ele><time>2026-04-08T10:36:33.999Z</time></trkpt><trkpt lat="45.568527780688285" lon="11.052202025769338"><ele>692.0</ele><time>2026-04-08T10:36:34.999Z</time></trkpt><trkpt lat="45.568428416523574" lon="11.052273586828003"><ele>695.0</ele><time>2026-04-08T10:36:35.999Z</time></trkpt><trkpt lat="45.56833214792036" lon="11.052353703228674"><ele>698.0</ele><time>2026-04-08T10:36:36.999Z</time></trkpt><trkpt lat="45.56823628397417" lon="11.052435004246494"><ele>701.0</ele><time>2026-04-08T10:36:37.999Z</time></trkpt><trkpt lat="45.56815013020362" lon="11.052537301593148"><ele>704.0</ele><time>2026-04-08T10:36:38.999Z</time></trkpt><trkpt lat="45.56807636780544" lon="11.05262425600515"><ele>704.0</ele><time>2026-04-08T10:36:39.999Z</time></trkpt><trkpt lat="45.568019278728535" lon="11.052685768074996"><ele>704.0</ele><time>2026-04-08T10:36:40.999Z</time></trkpt><trkpt lat="45.56795422280674" lon="11.052746337036693"><ele>704.0</ele><time>2026-04-08T10:36:41.999Z</time></trkpt><trkpt lat="45.56788254620353" lon="11.052803964742912"><ele>704.0</ele><time>2026-04-08T10:36:43.999Z</time></trkpt><trkpt lat="45.56777133942729" lon="11.052801386750918"><ele>704.0</ele><time>2026-04-08T10:36:50.999Z</time></trkpt><trkpt lat="45.56768461611659" lon="11.052796281170092"><ele>704.0</ele><time>2026-04-08T10:36:51.999Z</time></trkpt><trkpt lat="45.567575732748274" lon="11.052790540831564"><ele>706.25</ele><time>2026-04-08T10:36:52.999Z</time></trkpt><trkpt lat="45.56745103461646" lon="11.05278595634034"><ele>708.5</ele><time>2026-04-08T10:36:53.999Z</time></trkpt><trkpt lat="45.56731781178798" lon="11.052798781002025"><ele>710.75</ele><time>2026-04-08T10:36:54.999Z</time></trkpt><trkpt lat="45.567182661226" lon="11.052793139686155"><ele>713.0</ele><time>2026-04-08T10:36:55.999Z</time></trkpt><trkpt lat="45.567056301883376" lon="11.052791194309169"><ele>711.0</ele><time>2026-04-08T10:36:56.999Z</time></trkpt><trkpt lat="45.56693769223534" lon="11.052796769237514"><ele>709.0</ele><time>2026-04-08T10:36:57.999Z</time></trkpt><trkpt lat="45.56681628576852" lon="11.052805274226527"><ele>707.0</ele><time>2026-04-08T10:36:58.999Z</time></trkpt><trkpt lat="45.566708457031794" lon="11.052787232513799"><ele>705.0</ele><time>2026-04-08T10:36:59.998Z</time></trkpt><trkpt lat="45.56659595988991" lon="11.052747180426344"><ele>705.0</ele><time>2026-04-08T10:37:00.998Z</time></trkpt><trkpt lat="45.56649088157152" lon="11.052689645887371"><ele>705.0</ele><time>2026-04-08T10:37:01.998Z</time></trkpt><trkpt lat="45.566399181203955" lon="11.052628860674194"><ele>705.0</ele><time>2026-04-08T10:37:03Z</time></trkpt><trkpt lat="45.56632929291259" lon="11.052579252204806"><ele>705.0</ele><time>2026-04-08T10:37:04Z</time></trkpt><trkpt lat="45.56626532207772" lon="11.05253160519562"><ele>705.0</ele><time>2026-04-08T10:37:05Z</time></trkpt><trkpt lat="45.56619210811283" lon="11.052469216452314"><ele>705.0</ele><time>2026-04-08T10:37:06Z</time></trkpt><trkpt lat="45.566122964229386" lon="11.05241065525282"><ele>704.1428571428571</ele><time>2026-04-08T10:37:07Z</time></trkpt><trkpt lat="45.56606335437158" lon="11.052341282841242"><ele>703.2857142857142</ele><time>2026-04-08T10:37:08Z</time></trkpt><trkpt lat="45.56601265354661" lon="11.052282504856645"><ele>702.4285714285713</ele><time>2026-04-08T10:37:09Z</time></trkpt><trkpt lat="45.565945302102755" lon="11.052241317531733"><ele>701.5714285714286</ele><time>2026-04-08T10:37:10Z</time></trkpt><trkpt lat="45.565884784649676" lon="11.052200710038614"><ele>700.7142857142858</ele><time>2026-04-08T10:37:11Z</time></trkpt><trkpt lat="45.565812418599414" lon="11.052144876584139"><ele>699.8571428571428</ele><time>2026-04-08T10:37:13Z</time></trkpt><trkpt lat="45.56575359565627" lon="11.052107593843203"><ele>699.0</ele><time>2026-04-08T10:37:15Z</time></trkpt><trkpt lat="45.565678159931366" lon="11.05210601582598"><ele>699.0</ele><time>2026-04-08T10:37:17Z</time></trkpt><trkpt lat="45.56558014032766" lon="11.052395484251397"><ele>699.0</ele><time>2026-04-08T10:37:18Z</time></trkpt><trkpt lat="45.565522648644304" lon="11.052479006557922"><ele>699.0</ele><time>2026-04-08T10:37:19Z</time></trkpt><trkpt lat="45.56545880978637" lon="11.052533972831622"><ele>699.0</ele><time>2026-04-08T10:37:20Z</time></trkpt><trkpt lat="45.56536267341857" lon="11.05255142242907"><ele>696.5</ele><time>2026-04-08T10:37:22Z</time></trkpt><trkpt lat="45.56528923256344" lon="11.052522911890993"><ele>694.0</ele><time>2026-04-08T10:37:24Z</time></trkpt><trkpt lat="45.56523334460914" lon="11.052467161100399"><ele>691.5</ele><time>2026-04-08T10:37:25Z</time></trkpt><trkpt lat="45.565175766662094" lon="11.052408527744282"><ele>689.0</ele><time>2026-04-08T10:37:26Z</time></trkpt><trkpt lat="45.5650741058757" lon="11.05232515269458"><ele>686.5</ele><time>2026-04-08T10:37:28Z</time></trkpt><trkpt lat="45.564978717226936" lon="11.052245828620022"><ele>684.0</ele><time>2026-04-08T10:37:30Z</time></trkpt><trkpt lat="45.564902733611426" lon="11.052212373304174"><ele>684.0</ele><time>2026-04-08T10:37:32Z</time></trkpt><trkpt lat="45.56479687832005" lon="11.052221004884387"><ele>684.0</ele><time>2026-04-08T10:37:34Z</time></trkpt><trkpt lat="45.5646741121648" lon="11.052255590990546"><ele>684.0</ele><time>2026-04-08T10:37:36Z</time></trkpt><trkpt lat="45.56460876063787" lon="11.052244152130381"><ele>684.0</ele><time>2026-04-08T10:37:37Z</time></trkpt><trkpt lat="45.564544031729966" lon="11.052243604689979"><ele>684.0</ele><time>2026-04-08T10:37:38Z</time></trkpt><trkpt lat="45.56445993099197" lon="11.052282136057395"><ele>681.6</ele><time>2026-04-08T10:37:40Z</time></trkpt><trkpt lat="45.56437787956366" lon="11.05240798056328"><ele>679.2</ele><time>2026-04-08T10:37:42Z</time></trkpt><trkpt lat="45.564360533180675" lon="11.052546171972441"><ele>676.8000000000001</ele><time>2026-04-08T10:37:44Z</time></trkpt><trkpt lat="45.56430901488587" lon="11.052728552661225"><ele>674.4000000000001</ele><time>2026-04-08T10:37:46Z</time></trkpt><trkpt lat="45.56427735704564" lon="11.052831179494977"><ele>672.0</ele><time>2026-04-08T10:37:47Z</time></trkpt><trkpt lat="45.56425568251441" lon="11.052918720227074"><ele>670.8333333333334</ele><time>2026-04-08T10:37:48Z</time></trkpt><trkpt lat="45.564221985647336" lon="11.053014766751852"><ele>669.6666666666666</ele><time>2026-04-08T10:37:49Z</time></trkpt><trkpt lat="45.56418887846662" lon="11.053126221857088"><ele>668.5</ele><time>2026-04-08T10:37:49.999Z</time></trkpt><trkpt lat="45.56415030189416" lon="11.053232270857249"><ele>667.3333333333333</ele><time>2026-04-08T10:37:50.999Z</time></trkpt><trkpt lat="45.564113883195716" lon="11.053311075449312"><ele>666.1666666666666</ele><time>2026-04-08T10:37:51.999Z</time></trkpt><trkpt lat="45.564084039212986" lon="11.053410470034564"><ele>665.0</ele><time>2026-04-08T10:37:53.999Z</time></trkpt><trkpt lat="45.56407866551578" lon="11.053528605339327"><ele>664.3333333333333</ele><time>2026-04-08T10:37:55.999Z</time></trkpt><trkpt lat="45.56409102987924" lon="11.053703491600615"><ele>663.6666666666666</ele><time>2026-04-08T10:37:57.999Z</time></trkpt><trkpt lat="45.56411231229051" lon="11.053808306270662"><ele>663.0</ele><time>2026-04-08T10:37:58.999Z</time></trkpt><trkpt lat="45.56413616584905" lon="11.053920606465956"><ele>662.3333333333334</ele><time>2026-04-08T10:37:59.999Z</time></trkpt><trkpt lat="45.5641540628726" lon="11.05402969005367"><ele>661.6666666666667</ele><time>2026-04-08T10:38:00.999Z</time></trkpt><trkpt lat="45.56417213669834" lon="11.05413879190861"><ele>661.0</ele><time>2026-04-08T10:38:01.999Z</time></trkpt><trkpt lat="45.56419050781662" lon="11.054242587351272"><ele>659.6666666666667</ele><time>2026-04-08T10:38:02.999Z</time></trkpt><trkpt lat="45.56421562852137" lon="11.054360472726861"><ele>658.3333333333334</ele><time>2026-04-08T10:38:03.999Z</time></trkpt><trkpt lat="45.56424160232934" lon="11.054456245250472"><ele>657.0</ele><time>2026-04-08T10:38:04.999Z</time></trkpt><trkpt lat="45.564271934275034" lon="11.054557730766968"><ele>655.6666666666666</ele><time>2026-04-08T10:38:05.999Z</time></trkpt><trkpt lat="45.56430338526975" lon="11.054661844267105"><ele>654.3333333333333</ele><time>2026-04-08T10:38:06.999Z</time></trkpt><trkpt lat="45.56433659760143" lon="11.054767208584202"><ele>653.0</ele><time>2026-04-08T10:38:07.999Z</time></trkpt><trkpt lat="45.56436818789601" lon="11.054860842954378"><ele>654.3333333333333</ele><time>2026-04-08T10:38:08.999Z</time></trkpt><trkpt lat="45.56441162503789" lon="11.054968740637653"><ele>655.6666666666666</ele><time>2026-04-08T10:38:09.999Z</time></trkpt><trkpt lat="45.564449617473244" lon="11.055064782058508"><ele>657.0</ele><time>2026-04-08T10:38:10.999Z</time></trkpt><trkpt lat="45.56448653269582" lon="11.055165462913555"><ele>658.3333333333334</ele><time>2026-04-08T10:38:11.999Z</time></trkpt><trkpt lat="45.56452868413537" lon="11.055254943034805"><ele>659.6666666666667</ele><time>2026-04-08T10:38:12.999Z</time></trkpt><trkpt lat="45.56457550768959" lon="11.055336243511004"><ele>661.0</ele><time>2026-04-08T10:38:13.999Z</time></trkpt><trkpt lat="45.564626684980695" lon="11.055403459717036"><ele>661.0</ele><time>2026-04-08T10:38:14.999Z</time></trkpt><trkpt lat="45.564678044426095" lon="11.055471722138122"><ele>661.0</ele><time>2026-04-08T10:38:15.999Z</time></trkpt><trkpt lat="45.56471836384905" lon="11.055552778810949"><ele>661.0</ele><time>2026-04-08T10:38:16.999Z</time></trkpt><trkpt lat="45.56473173806441" lon="11.055664954778269"><ele>661.0</ele><time>2026-04-08T10:38:17.999Z</time></trkpt><trkpt lat="45.564717389031046" lon="11.055761603307907"><ele>661.0</ele><time>2026-04-08T10:38:18.999Z</time></trkpt><trkpt lat="45.56471691797126" lon="11.055903265696195"><ele>661.0</ele><time>2026-04-08T10:38:20.999Z</time></trkpt><trkpt lat="45.564776087785575" lon="11.056034270493914"><ele>658.1666666666667</ele><time>2026-04-08T10:38:22.999Z</time></trkpt><trkpt lat="45.564819420329314" lon="11.05614223603823"><ele>655.3333333333334</ele><time>2026-04-08T10:38:23.999Z</time></trkpt><trkpt lat="45.56486899171532" lon="11.05622199516949"><ele>652.5</ele><time>2026-04-08T10:38:24.999Z</time></trkpt><trkpt lat="45.56495026069782" lon="11.05632071100744"><ele>649.6666666666666</ele><time>2026-04-08T10:38:25.999Z</time></trkpt><trkpt lat="45.56500288816663" lon="11.056409145492953"><ele>646.8333333333333</ele><time>2026-04-08T10:38:26.999Z</time></trkpt><trkpt lat="45.56504624005641" lon="11.056516953464802"><ele>644.0</ele><time>2026-04-08T10:38:27.999Z</time></trkpt><trkpt lat="45.56507570201954" lon="11.056599824574707"><ele>643.0</ele><time>2026-04-08T10:38:28.999Z</time></trkpt><trkpt lat="45.565127556450385" lon="11.056737384748093"><ele>642.0</ele><time>2026-04-08T10:38:30.999Z</time></trkpt><trkpt lat="45.565182869969476" lon="11.056785183218354"><ele>641.0</ele><time>2026-04-08T10:38:31.999Z</time></trkpt><trkpt lat="45.56524316116534" lon="11.05682796431942"><ele>640.0</ele><time>2026-04-08T10:38:32.999Z</time></trkpt><trkpt lat="45.565316855594055" lon="11.05686334901907"><ele>639.0</ele><time>2026-04-08T10:38:33.999Z</time></trkpt><trkpt lat="45.565379595288924" lon="11.056891684245121"><ele>638.0</ele><time>2026-04-08T10:38:34.999Z</time></trkpt><trkpt lat="45.56545337872325" lon="11.05693326234009"><ele>638.0</ele><time>2026-04-08T10:38:36.999Z</time></trkpt><trkpt lat="45.56548393586659" lon="11.057025770678868"><ele>638.0</ele><time>2026-04-08T10:38:39.999Z</time></trkpt><trkpt lat="45.5654599948804" lon="11.05712992746205"><ele>638.0</ele><time>2026-04-08T10:38:41.999Z</time></trkpt><trkpt lat="45.565419793505114" lon="11.057256651952251"><ele>638.0</ele><time>2026-04-08T10:38:44.999Z</time></trkpt><trkpt lat="45.565370836420314" lon="11.057397753436966"><ele>638.0</ele><time>2026-04-08T10:38:46.999Z</time></trkpt><trkpt lat="45.5653378091366" lon="11.057523047594632"><ele>635.8333333333333</ele><time>2026-04-08T10:38:49.999Z</time></trkpt><trkpt lat="45.56534014517769" lon="11.05766769870501"><ele>633.6666666666666</ele><time>2026-04-08T10:38:51.999Z</time></trkpt><trkpt lat="45.565328072350106" lon="11.057769884759635"><ele>631.5</ele><time>2026-04-08T10:38:55.999Z</time></trkpt><trkpt lat="45.56530854155984" lon="11.05786257801996"><ele>629.3333333333334</ele><time>2026-04-08T10:38:57.999Z</time></trkpt><trkpt lat="45.56523002296063" lon="11.057922568610875"><ele>627.1666666666667</ele><time>2026-04-08T10:38:59.999Z</time></trkpt><trkpt lat="45.56516209060625" lon="11.057869713128236"><ele>625.0</ele><time>2026-04-08T10:39:02.999Z</time></trkpt><trkpt lat="45.5650899393972" lon="11.057812335517742"><ele>625.0</ele><time>2026-04-08T10:39:09Z</time></trkpt><trkpt lat="45.56500680594305" lon="11.057745563871586"><ele>625.0</ele><time>2026-04-08T10:39:13Z</time></trkpt><trkpt lat="45.5649586834923" lon="11.057668303968706"><ele>625.0</ele><time>2026-04-08T10:39:16Z</time></trkpt><trkpt lat="45.564890510656056" lon="11.05760643452031"><ele>625.0</ele><time>2026-04-08T10:39:19Z</time></trkpt><trkpt lat="45.564828291426714" lon="11.057542933025134"><ele>625.0</ele><time>2026-04-08T10:39:26Z</time></trkpt><trkpt lat="45.56476549894716" lon="11.057485646482515"><ele>625.0</ele><time>2026-04-08T10:39:29Z</time></trkpt><trkpt lat="45.564748084810205" lon="11.057374518503327"><ele>626.3333333333334</ele><time>2026-04-08T10:39:32Z</time></trkpt><trkpt lat="45.56468644802781" lon="11.057289222822401"><ele>627.6666666666667</ele><time>2026-04-08T10:39:35Z</time></trkpt><trkpt lat="45.56463165804406" lon="11.057219615362436"><ele>629.0</ele><time>2026-04-08T10:39:40Z</time></trkpt><trkpt lat="45.564569477334594" lon="11.057158022492684"><ele>630.3333333333334</ele><time>2026-04-08T10:39:43Z</time></trkpt><trkpt lat="45.56453330643744" lon="11.057060306681784"><ele>631.6666666666666</ele><time>2026-04-08T10:39:48Z</time></trkpt><trkpt lat="45.56450663324681" lon="11.05697347616035"><ele>633.0</ele><time>2026-04-08T10:40:11.999Z</time></trkpt><trkpt lat="45.564488750680624" lon="11.056871415729468"><ele>633.0</ele><time>2026-04-08T10:40:15.999Z</time></trkpt><trkpt lat="45.56440876848234" lon="11.056894995777382"><ele>633.0</ele><time>2026-04-08T10:40:19.999Z</time></trkpt><trkpt lat="45.564426853826" lon="11.057036841242079"><ele>633.0</ele><time>2026-04-08T10:40:22.999Z</time></trkpt><trkpt lat="45.56441172346765" lon="11.05716071475308"><ele>633.0</ele><time>2026-04-08T10:40:24.999Z</time></trkpt><trkpt lat="45.5644786226798" lon="11.057229666728007"><ele>633.0</ele><time>2026-04-08T10:40:26.999Z</time></trkpt><trkpt lat="45.564538044012295" lon="11.057281262924505"><ele>633.0</ele><time>2026-04-08T10:40:28.999Z</time></trkpt><trkpt lat="45.56459165411225" lon="11.057343028950129"><ele>631.6666666666666</ele><time>2026-04-08T10:40:30.999Z</time></trkpt><trkpt lat="45.56463217329593" lon="11.057456131111703"><ele>630.3333333333334</ele><time>2026-04-08T10:40:32.999Z</time></trkpt><trkpt lat="45.56467863152328" lon="11.057521196811456"><ele>629.0</ele><time>2026-04-08T10:40:33.999Z</time></trkpt><trkpt lat="45.564736592622175" lon="11.057591513994932"><ele>627.6666666666667</ele><time>2026-04-08T10:40:36.999Z</time></trkpt><trkpt lat="45.564754063237785" lon="11.05770382698258"><ele>626.3333333333334</ele><time>2026-04-08T10:40:40.999Z</time></trkpt><trkpt lat="45.56474011793709" lon="11.057815907707186"><ele>625.0</ele><time>2026-04-08T10:40:45.999Z</time></trkpt><trkpt lat="45.56473057400138" lon="11.057909332332455"><ele>625.0</ele><time>2026-04-08T10:40:46.999Z</time></trkpt><trkpt lat="45.56465944629579" lon="11.057931069644233"><ele>625.0</ele><time>2026-04-08T10:40:50.999Z</time></trkpt><trkpt lat="45.56457209112122" lon="11.057947634615001"><ele>625.0</ele><time>2026-04-08T10:43:51Z</time></trkpt><trkpt lat="45.5644914557871" lon="11.057976157953236"><ele>625.0</ele><time>2026-04-08T10:43:53Z</time></trkpt><trkpt lat="45.56442539629802" lon="11.057973043027584"><ele>625.0</ele><time>2026-04-08T10:43:55Z</time></trkpt><trkpt lat="45.56433318745424" lon="11.057996052014492"><ele>625.0</ele><time>2026-04-08T10:43:58Z</time></trkpt><trkpt lat="45.56426233999599" lon="11.057993891413025"><ele>627.8333333333334</ele><time>2026-04-08T10:44:01Z</time></trkpt><trkpt lat="45.56423713994686" lon="11.058107477294952"><ele>630.6666666666667</ele><time>2026-04-08T10:44:04Z</time></trkpt><trkpt lat="45.56415749514482" lon="11.05818682967083"><ele>633.5</ele><time>2026-04-08T10:44:07Z</time></trkpt><trkpt lat="45.56406787661551" lon="11.05823465520795"><ele>636.3333333333334</ele><time>2026-04-08T10:44:08.999Z</time></trkpt><trkpt lat="45.56399941456375" lon="11.058236141163958"><ele>639.1666666666666</ele><time>2026-04-08T10:44:10.999Z</time></trkpt><trkpt lat="45.56391249342576" lon="11.058197186939005"><ele>642.0</ele><time>2026-04-08T10:44:13.999Z</time></trkpt><trkpt lat="45.5638519873544" lon="11.05810308802215"><ele>642.0</ele><time>2026-04-08T10:44:16.999Z</time></trkpt><trkpt lat="45.5637890040027" lon="11.058065883060605"><ele>642.0</ele><time>2026-04-08T10:44:19.999Z</time></trkpt><trkpt lat="45.56370618392627" lon="11.058012585398364"><ele>642.0</ele><time>2026-04-08T10:44:22.999Z</time></trkpt><trkpt lat="45.56364033222966" lon="11.057980393488945"><ele>642.0</ele><time>2026-04-08T10:44:25.999Z</time></trkpt><trkpt lat="45.56358023517982" lon="11.05793332524855"><ele>642.0</ele><time>2026-04-08T10:44:27.999Z</time></trkpt><trkpt lat="45.56348965833248" lon="11.057904585797552"><ele>642.0</ele><time>2026-04-08T10:44:30.999Z</time></trkpt><trkpt lat="45.56338967606756" lon="11.05793266395472"><ele>645.1666666666666</ele><time>2026-04-08T10:44:32.999Z</time></trkpt><trkpt lat="45.563321124570955" lon="11.057956734495006"><ele>648.3333333333334</ele><time>2026-04-08T10:44:34.999Z</time></trkpt><trkpt lat="45.56323359848545" lon="11.057957907748287"><ele>651.5</ele><time>2026-04-08T10:44:36.999Z</time></trkpt><trkpt lat="45.56312553780124" lon="11.057926762195363"><ele>654.6666666666667</ele><time>2026-04-08T10:44:38.999Z</time></trkpt><trkpt lat="45.56304777998037" lon="11.057898382716745"><ele>657.8333333333334</ele><time>2026-04-08T10:44:40.999Z</time></trkpt><trkpt lat="45.562980065871194" lon="11.057879509881285"><ele>661.0</ele><time>2026-04-08T10:44:43.999Z</time></trkpt><trkpt lat="45.5629167208954" lon="11.057879763615972"><ele>662.8333333333334</ele><time>2026-04-08T10:44:47.999Z</time></trkpt><trkpt lat="45.56284204758856" lon="11.057882811196528"><ele>664.6666666666667</ele><time>2026-04-08T10:44:55.999Z</time></trkpt><trkpt lat="45.56276519723835" lon="11.057843287073883"><ele>666.5</ele><time>2026-04-08T10:44:58.999Z</time></trkpt><trkpt lat="45.56267387419482" lon="11.057813228004438"><ele>668.3333333333334</ele><time>2026-04-08T10:45:01.999Z</time></trkpt><trkpt lat="45.56259969413163" lon="11.057785188223558"><ele>670.1666666666666</ele><time>2026-04-08T10:45:02.999Z</time></trkpt><trkpt lat="45.56253213295481" lon="11.05777268823128"><ele>672.0</ele><time>2026-04-08T10:45:04.999Z</time></trkpt><trkpt lat="45.56244337897389" lon="11.057766117695172"><ele>672.0</ele><time>2026-04-08T10:45:07.999Z</time></trkpt><trkpt lat="45.56215399291174" lon="11.057756346547537"><ele>672.0</ele><time>2026-04-08T10:45:09.999Z</time></trkpt><trkpt lat="45.562041047727284" lon="11.057777102245753"><ele>672.0</ele><time>2026-04-08T10:45:11.999Z</time></trkpt><trkpt lat="45.561902638676166" lon="11.057756588252385"><ele>673.6666666666666</ele><time>2026-04-08T10:45:13.999Z</time></trkpt><trkpt lat="45.561839941941926" lon="11.057738859071529"><ele>675.3333333333334</ele><time>2026-04-08T10:45:14.999Z</time></trkpt><trkpt lat="45.56175574806966" lon="11.057717373994347"><ele>677.0</ele><time>2026-04-08T10:45:16.999Z</time></trkpt><trkpt lat="45.561693474138536" lon="11.057742440815174"><ele>678.6666666666667</ele><time>2026-04-08T10:45:18.999Z</time></trkpt><trkpt lat="45.5616235154157" lon="11.057771028147426"><ele>680.3333333333334</ele><time>2026-04-08T10:45:19.999Z</time></trkpt><trkpt lat="45.56153259213488" lon="11.057856796896255"><ele>682.0</ele><time>2026-04-08T10:45:23.999Z</time></trkpt><trkpt lat="45.56144514013377" lon="11.05791977939155"><ele>682.0</ele><time>2026-04-08T10:45:26Z</time></trkpt><trkpt lat="45.56134826070059" lon="11.057964439881413"><ele>682.0</ele><time>2026-04-08T10:45:28Z</time></trkpt><trkpt lat="45.56126088866202" lon="11.057951540886773"><ele>682.0</ele><time>2026-04-08T10:45:30Z</time></trkpt><trkpt lat="45.561200568104056" lon="11.057903261932836"><ele>682.0</ele><time>2026-04-08T10:45:32Z</time></trkpt><trkpt lat="45.56115211799473" lon="11.057833396533415"><ele>682.0</ele><time>2026-04-08T10:45:33Z</time></trkpt><trkpt lat="45.561096341922095" lon="11.05775293153334"><ele>682.0</ele><time>2026-04-08T10:45:34Z</time></trkpt><trkpt lat="45.56100166151692" lon="11.057646341743398"><ele>683.2</ele><time>2026-04-08T10:45:35Z</time></trkpt><trkpt lat="45.560910898184055" lon="11.057579193425655"><ele>684.4000000000001</ele><time>2026-04-08T10:45:36Z</time></trkpt><trkpt lat="45.56082087447004" lon="11.057544508353892"><ele>685.5999999999999</ele><time>2026-04-08T10:45:37Z</time></trkpt><trkpt lat="45.56073838638726" lon="11.057515276304768"><ele>686.8</ele><time>2026-04-08T10:45:38Z</time></trkpt><trkpt lat="45.560656654913124" lon="11.057494184727844"><ele>688.0</ele><time>2026-04-08T10:45:39Z</time></trkpt><trkpt lat="45.560555535059386" lon="11.05747268434149"><ele>690.0</ele><time>2026-04-08T10:45:40Z</time></trkpt><trkpt lat="45.56046050664086" lon="11.057449818438876"><ele>692.0</ele><time>2026-04-08T10:45:41Z</time></trkpt><trkpt lat="45.56037741785345" lon="11.057435245010115"><ele>694.0</ele><time>2026-04-08T10:45:42Z</time></trkpt><trkpt lat="45.56029181371877" lon="11.05741150592688"><ele>696.0</ele><time>2026-04-08T10:45:43Z</time></trkpt><trkpt lat="45.56020373000928" lon="11.057376972549859"><ele>698.0</ele><time>2026-04-08T10:45:44Z</time></trkpt><trkpt lat="45.56001230272087" lon="11.057305947310123"><ele>698.0</ele><time>2026-04-08T10:45:46Z</time></trkpt><trkpt lat="45.559911680100065" lon="11.057274594757999"><ele>698.0</ele><time>2026-04-08T10:45:47Z</time></trkpt><trkpt lat="45.559820523693155" lon="11.057242256081155"><ele>698.0</ele><time>2026-04-08T10:45:48Z</time></trkpt><trkpt lat="45.55973203166398" lon="11.057226958007268"><ele>698.0</ele><time>2026-04-08T10:45:49Z</time></trkpt><trkpt lat="45.559637434443914" lon="11.057206175810231"><ele>698.0</ele><time>2026-04-08T10:45:50Z</time></trkpt><trkpt lat="45.559556014974675" lon="11.05719472760577"><ele>697.0</ele><time>2026-04-08T10:45:51Z</time></trkpt><trkpt lat="45.55948666767375" lon="11.05718702872085"><ele>696.0</ele><time>2026-04-08T10:45:52Z</time></trkpt><trkpt lat="45.55941875206624" lon="11.057161897953659"><ele>695.0</ele><time>2026-04-08T10:45:53Z</time></trkpt><trkpt lat="45.55935064555122" lon="11.057084279645233"><ele>694.0</ele><time>2026-04-08T10:45:54Z</time></trkpt><trkpt lat="45.55929618343088" lon="11.056943594174859"><ele>693.0</ele><time>2026-04-08T10:45:55Z</time></trkpt><trkpt lat="45.55922480487081" lon="11.056864121113858"><ele>692.0</ele><time>2026-04-08T10:45:56Z</time></trkpt><trkpt lat="45.55915537864186" lon="11.056814455185558"><ele>692.0</ele><time>2026-04-08T10:45:57Z</time></trkpt><trkpt lat="45.559103454889694" lon="11.05675314618505"><ele>692.0</ele><time>2026-04-08T10:45:58Z</time></trkpt><trkpt lat="45.559058357233766" lon="11.056682755239613"><ele>692.0</ele><time>2026-04-08T10:45:59Z</time></trkpt><trkpt lat="45.558973638991965" lon="11.056602592484415"><ele>692.0</ele><time>2026-04-08T10:46:01Z</time></trkpt><trkpt lat="45.55889454751134" lon="11.056531795719456"><ele>692.0</ele><time>2026-04-08T10:46:03Z</time></trkpt><trkpt lat="45.55883565068482" lon="11.056483349651991"><ele>692.0</ele><time>2026-04-08T10:46:05Z</time></trkpt><trkpt lat="45.558780919959204" lon="11.056438200824468"><ele>698.5</ele><time>2026-04-08T10:46:16Z</time></trkpt><trkpt lat="45.55864608525895" lon="11.05635078331509"><ele>705.0</ele><time>2026-04-08T10:46:17.999Z</time></trkpt><trkpt lat="45.55854664493092" lon="11.056307807830295"><ele>711.5</ele><time>2026-04-08T10:46:18.999Z</time></trkpt><trkpt lat="45.55843643432143" lon="11.056268615533465"><ele>718.0</ele><time>2026-04-08T10:46:19.999Z</time></trkpt><trkpt lat="45.558315258617434" lon="11.05624425611776"><ele>718.0</ele><time>2026-04-08T10:46:20.999Z</time></trkpt><trkpt lat="45.55819687629621" lon="11.056242166125301"><ele>718.0</ele><time>2026-04-08T10:46:21.999Z</time></trkpt><trkpt lat="45.558103502722176" lon="11.056251775733342"><ele>718.0</ele><time>2026-04-08T10:46:22.999Z</time></trkpt><trkpt lat="45.55802837785339" lon="11.056251738184208"><ele>718.0</ele><time>2026-04-08T10:46:23.999Z</time></trkpt><trkpt lat="45.55794396258238" lon="11.056265100743634"><ele>718.0</ele><time>2026-04-08T10:46:24.999Z</time></trkpt><trkpt lat="45.557870812265755" lon="11.056295093153727"><ele>718.0</ele><time>2026-04-08T10:46:25.999Z</time></trkpt><trkpt lat="45.55778150564355" lon="11.056231127293852"><ele>718.0</ele><time>2026-04-08T10:46:26.999Z</time></trkpt><trkpt lat="45.557710927278755" lon="11.056234835638007"><ele>718.0</ele><time>2026-04-08T10:46:27.999Z</time></trkpt><trkpt lat="45.55761763341107" lon="11.056240309208768"><ele>718.0</ele><time>2026-04-08T10:46:28.999Z</time></trkpt><trkpt lat="45.55750770782178" lon="11.0562442502699"><ele>718.0</ele><time>2026-04-08T10:46:29.999Z</time></trkpt><trkpt lat="45.557398297857574" lon="11.056264933810173"><ele>718.0</ele><time>2026-04-08T10:46:30.999Z</time></trkpt><trkpt lat="45.557283564004805" lon="11.056260862575561"><ele>718.0</ele><time>2026-04-08T10:46:31.999Z</time></trkpt><trkpt lat="45.55717259520702" lon="11.056287104433427"><ele>718.0</ele><time>2026-04-08T10:46:32.999Z</time></trkpt><trkpt lat="45.55705769906453" lon="11.056288684833156"><ele>718.0</ele><time>2026-04-08T10:46:33.999Z</time></trkpt><trkpt lat="45.556957783789755" lon="11.056299731590524"><ele>718.0</ele><time>2026-04-08T10:46:34.999Z</time></trkpt><trkpt lat="45.55686130144082" lon="11.05630250756575"><ele>718.0</ele><time>2026-04-08T10:46:35.999Z</time></trkpt><trkpt lat="45.55677620971802" lon="11.056302507566647"><ele>718.4</ele><time>2026-04-08T10:46:36.999Z</time></trkpt><trkpt lat="45.556675664516156" lon="11.056327332485047"><ele>718.8</ele><time>2026-04-08T10:46:37.999Z</time></trkpt><trkpt lat="45.5565823901566" lon="11.056331292771965"><ele>719.2</ele><time>2026-04-08T10:46:38.999Z</time></trkpt><trkpt lat="45.55647184529813" lon="11.056331650230483"><ele>719.6</ele><time>2026-04-08T10:46:39.999Z</time></trkpt><trkpt lat="45.5563663340324" lon="11.056363462862743"><ele>720.0</ele><time>2026-04-08T10:46:40.999Z</time></trkpt><trkpt lat="45.55626786625459" lon="11.056376378735632"><ele>720.1666666666666</ele><time>2026-04-08T10:46:41.999Z</time></trkpt><trkpt lat="45.5561825260349" lon="11.056398990598698"><ele>720.3333333333334</ele><time>2026-04-08T10:46:42.999Z</time></trkpt><trkpt lat="45.556100726753286" lon="11.056363631740343"><ele>720.5</ele><time>2026-04-08T10:46:43.999Z</time></trkpt><trkpt lat="45.556004867580185" lon="11.05633379250331"><ele>720.6666666666667</ele><time>2026-04-08T10:46:44.999Z</time></trkpt><trkpt lat="45.55591263731426" lon="11.056331762880879"><ele>720.8333333333334</ele><time>2026-04-08T10:46:45.999Z</time></trkpt><trkpt lat="45.55583293603493" lon="11.056296756503937"><ele>721.0</ele><time>2026-04-08T10:46:46.999Z</time></trkpt><trkpt lat="45.55573295076961" lon="11.056242587222389"><ele>721.0</ele><time>2026-04-08T10:46:47.999Z</time></trkpt><trkpt lat="45.55564902396364" lon="11.056192155642883"><ele>721.0</ele><time>2026-04-08T10:46:48.999Z</time></trkpt><trkpt lat="45.55556564794916" lon="11.05612279193043"><ele>721.0</ele><time>2026-04-08T10:46:49.999Z</time></trkpt><trkpt lat="45.55549395425441" lon="11.056051446888732"><ele>721.0</ele><time>2026-04-08T10:46:50.999Z</time></trkpt><trkpt lat="45.5554024933852" lon="11.055988651320535"><ele>721.0</ele><time>2026-04-08T10:46:51.999Z</time></trkpt><trkpt lat="45.55533435109027" lon="11.055875231212143"><ele>723.5999999999999</ele><time>2026-04-08T10:46:52.999Z</time></trkpt><trkpt lat="45.55525679074286" lon="11.055772928480117"><ele>726.2</ele><time>2026-04-08T10:46:53.999Z</time></trkpt><trkpt lat="45.55517915926412" lon="11.055670531815743"><ele>728.8</ele><time>2026-04-08T10:46:54.999Z</time></trkpt><trkpt lat="45.55509004753132" lon="11.05557360798131"><ele>731.4000000000001</ele><time>2026-04-08T10:46:55.999Z</time></trkpt><trkpt lat="45.555006812597455" lon="11.055467472733264"><ele>734.0</ele><time>2026-04-08T10:46:56.999Z</time></trkpt><trkpt lat="45.55493931793703" lon="11.055367046891496"><ele>734.0</ele><time>2026-04-08T10:46:57.999Z</time></trkpt><trkpt lat="45.55487145723267" lon="11.05527237877528"><ele>734.0</ele><time>2026-04-08T10:46:58.999Z</time></trkpt><trkpt lat="45.55481453209308" lon="11.055198404094241"><ele>734.0</ele><time>2026-04-08T10:46:59.999Z</time></trkpt><trkpt lat="45.55474061000811" lon="11.055148637309427"><ele>734.0</ele><time>2026-04-08T10:47:00.999Z</time></trkpt><trkpt lat="45.55464396451487" lon="11.05511938898876"><ele>734.0</ele><time>2026-04-08T10:47:01.999Z</time></trkpt><trkpt lat="45.55453676186588" lon="11.055062180483507"><ele>732.25</ele><time>2026-04-08T10:47:02.999Z</time></trkpt><trkpt lat="45.554421231338985" lon="11.055019857701286"><ele>730.5</ele><time>2026-04-08T10:47:03.999Z</time></trkpt><trkpt lat="45.554297636800186" lon="11.055000706037166"><ele>728.75</ele><time>2026-04-08T10:47:04.999Z</time></trkpt><trkpt lat="45.554182382300475" lon="11.055012932390762"><ele>727.0</ele><time>2026-04-08T10:47:05.999Z</time></trkpt><trkpt lat="45.55407071537043" lon="11.055039751403237"><ele>727.0</ele><time>2026-04-08T10:47:06.999Z</time></trkpt><trkpt lat="45.55395825202453" lon="11.055062229370916"><ele>727.0</ele><time>2026-04-08T10:47:07.999Z</time></trkpt><trkpt lat="45.553843423046644" lon="11.055106382738806"><ele>727.0</ele><time>2026-04-08T10:47:08.999Z</time></trkpt><trkpt lat="45.55372516006657" lon="11.05516153184148"><ele>727.0</ele><time>2026-04-08T10:47:09.999Z</time></trkpt><trkpt lat="45.55361423373515" lon="11.0552151458204"><ele>727.8</ele><time>2026-04-08T10:47:10.999Z</time></trkpt><trkpt lat="45.553505890124065" lon="11.055232734031113"><ele>728.6</ele><time>2026-04-08T10:47:11.999Z</time></trkpt><trkpt lat="45.5533970331736" lon="11.05526131899517"><ele>729.4</ele><time>2026-04-08T10:47:12.999Z</time></trkpt><trkpt lat="45.553287501874316" lon="11.055267109724683"><ele>730.1999999999999</ele><time>2026-04-08T10:47:13.999Z</time></trkpt><trkpt lat="45.55317171097343" lon="11.055254006332074"><ele>731.0</ele><time>2026-04-08T10:47:14.999Z</time></trkpt><trkpt lat="45.55305278854386" lon="11.055228612161006"><ele>731.0</ele><time>2026-04-08T10:47:15.999Z</time></trkpt><trkpt lat="45.5529437650281" lon="11.055201754580317"><ele>731.0</ele><time>2026-04-08T10:47:16.999Z</time></trkpt><trkpt lat="45.55287087941118" lon="11.055183799450266"><ele>731.0</ele><time>2026-04-08T10:47:17.999Z</time></trkpt><trkpt lat="45.55275672380051" lon="11.055144466807558"><ele>731.0</ele><time>2026-04-08T10:47:19.999Z</time></trkpt><trkpt lat="45.55268815677062" lon="11.055136232668051"><ele>731.0</ele><time>2026-04-08T10:47:20.999Z</time></trkpt><trkpt lat="45.55261716996234" lon="11.055101830525256"><ele>731.0</ele><time>2026-04-08T10:47:21.999Z</time></trkpt><trkpt lat="45.552539934516396" lon="11.05510202732747"><ele>731.0</ele><time>2026-04-08T10:47:22.999Z</time></trkpt><trkpt lat="45.552412233390015" lon="11.055086590533227"><ele>731.0</ele><time>2026-04-08T10:47:24.999Z</time></trkpt><trkpt lat="45.552310748564274" lon="11.055037729182128"><ele>731.0</ele><time>2026-04-08T10:47:26.999Z</time></trkpt><trkpt lat="45.5521887337212" lon="11.054922564919993"><ele>731.0</ele><time>2026-04-08T10:47:28.999Z</time></trkpt><trkpt lat="45.55213482027386" lon="11.05486684239883"><ele>731.0</ele><time>2026-04-08T10:47:29.999Z</time></trkpt><trkpt lat="45.55204919487532" lon="11.054800728548699"><ele>732.3333333333333</ele><time>2026-04-08T10:47:31Z</time></trkpt><trkpt lat="45.55196432145967" lon="11.054737820656733"><ele>733.6666666666666</ele><time>2026-04-08T10:47:32Z</time></trkpt><trkpt lat="45.55189317588991" lon="11.054685307510011"><ele>735.0</ele><time>2026-04-08T10:47:33Z</time></trkpt><trkpt lat="45.5514778537219" lon="11.055173167557854"><ele>735.0</ele><time>2026-04-08T10:47:34Z</time></trkpt><trkpt lat="45.551359710956774" lon="11.05518010230843"><ele>735.0</ele><time>2026-04-08T10:47:35Z</time></trkpt><trkpt lat="45.55125934383381" lon="11.055183389449523"><ele>735.0</ele><time>2026-04-08T10:47:36Z</time></trkpt><trkpt lat="45.55115383429396" lon="11.055187184060403"><ele>735.0</ele><time>2026-04-08T10:47:37Z</time></trkpt><trkpt lat="45.55104587125045" lon="11.055185319402852"><ele>735.0</ele><time>2026-04-08T10:47:38Z</time></trkpt><trkpt lat="45.55093224125377" lon="11.055188449188094"><ele>735.0</ele><time>2026-04-08T10:47:39Z</time></trkpt><trkpt lat="45.550812779729654" lon="11.055190506707254"><ele>735.0</ele><time>2026-04-08T10:47:40Z</time></trkpt><trkpt lat="45.55069135779105" lon="11.055166623046055"><ele>735.0</ele><time>2026-04-08T10:47:41Z</time></trkpt><trkpt lat="45.55056796788775" lon="11.055142542540342"><ele>735.0</ele><time>2026-04-08T10:47:42Z</time></trkpt><trkpt lat="45.55044623147705" lon="11.055111528524408"><ele>734.0</ele><time>2026-04-08T10:47:43Z</time></trkpt><trkpt lat="45.55032450558247" lon="11.055075976245488"><ele>733.0</ele><time>2026-04-08T10:47:44Z</time></trkpt><trkpt lat="45.550211352076296" lon="11.055033987614971"><ele>732.0</ele><time>2026-04-08T10:47:45Z</time></trkpt><trkpt lat="45.55010661980848" lon="11.055005846843319"><ele>731.0</ele><time>2026-04-08T10:47:46Z</time></trkpt><trkpt lat="45.54999317617018" lon="11.05498401387508"><ele>731.0</ele><time>2026-04-08T10:47:47Z</time></trkpt><trkpt lat="45.549875855602366" lon="11.054961451245504"><ele>731.0</ele><time>2026-04-08T10:47:48Z</time></trkpt><trkpt lat="45.54975225625123" lon="11.054933224429057"><ele>731.0</ele><time>2026-04-08T10:47:49Z</time></trkpt><trkpt lat="45.54962313921771" lon="11.054895612301275"><ele>731.0</ele><time>2026-04-08T10:47:50Z</time></trkpt><trkpt lat="45.54948386656646" lon="11.05485477578083"><ele>730.75</ele><time>2026-04-08T10:47:51Z</time></trkpt><trkpt lat="45.54935614352543" lon="11.054818066336805"><ele>730.5</ele><time>2026-04-08T10:47:52Z</time></trkpt><trkpt lat="45.549235621317834" lon="11.054780745445065"><ele>730.25</ele><time>2026-04-08T10:47:53Z</time></trkpt><trkpt lat="45.549135141688765" lon="11.054718544203938"><ele>730.0</ele><time>2026-04-08T10:47:54Z</time></trkpt><trkpt lat="45.54904028259041" lon="11.054648781704614"><ele>730.0</ele><time>2026-04-08T10:47:55Z</time></trkpt><trkpt lat="45.54895629655147" lon="11.054580270260608"><ele>730.0</ele><time>2026-04-08T10:47:56Z</time></trkpt><trkpt lat="45.54886069761161" lon="11.054504022672035"><ele>730.0</ele><time>2026-04-08T10:47:57Z</time></trkpt><trkpt lat="45.54876383534886" lon="11.054419259280232"><ele>730.0</ele><time>2026-04-08T10:47:58Z</time></trkpt><trkpt lat="45.54866381063021" lon="11.054335212266846"><ele>730.0</ele><time>2026-04-08T10:47:59Z</time></trkpt><trkpt lat="45.548577508513674" lon="11.054252937384305"><ele>728.2</ele><time>2026-04-08T10:48:00Z</time></trkpt><trkpt lat="45.54849404397125" lon="11.054158227761194"><ele>726.4</ele><time>2026-04-08T10:48:01Z</time></trkpt><trkpt lat="45.54841092564672" lon="11.05403753372062"><ele>724.5999999999999</ele><time>2026-04-08T10:48:02Z</time></trkpt><trkpt lat="45.548336522653194" lon="11.05390946085132"><ele>722.8</ele><time>2026-04-08T10:48:03Z</time></trkpt><trkpt lat="45.548276655805" lon="11.053791641773014"><ele>721.0</ele><time>2026-04-08T10:48:04Z</time></trkpt><trkpt lat="45.54822288024521" lon="11.053666774886517"><ele>721.0</ele><time>2026-04-08T10:48:05Z</time></trkpt><trkpt lat="45.54818832336351" lon="11.053541246614484"><ele>721.0</ele><time>2026-04-08T10:48:06Z</time></trkpt><trkpt lat="45.548166798159144" lon="11.053376933868492"><ele>721.0</ele><time>2026-04-08T10:48:07Z</time></trkpt><trkpt lat="45.54815569825613" lon="11.053217028325022"><ele>721.0</ele><time>2026-04-08T10:48:08Z</time></trkpt><trkpt lat="45.54815812475013" lon="11.053063496336485"><ele>721.0</ele><time>2026-04-08T10:48:09Z</time></trkpt><trkpt lat="45.54815188540462" lon="11.05292093342222"><ele>719.6666666666667</ele><time>2026-04-08T10:48:10Z</time></trkpt><trkpt lat="45.548133441734706" lon="11.052782517544054"><ele>718.3333333333334</ele><time>2026-04-08T10:48:11Z</time></trkpt><trkpt lat="45.54809867003428" lon="11.052662568521766"><ele>717.0</ele><time>2026-04-08T10:48:12Z</time></trkpt><trkpt lat="45.54804487120644" lon="11.052574891289131"><ele>715.6666666666666</ele><time>2026-04-08T10:48:13Z</time></trkpt><trkpt lat="45.547988706870036" lon="11.052503311873512"><ele>714.3333333333333</ele><time>2026-04-08T10:48:14Z</time></trkpt><trkpt lat="45.547896189072794" lon="11.0524602390192"><ele>713.0</ele><time>2026-04-08T10:48:15Z</time></trkpt><trkpt lat="45.547791481345364" lon="11.052429526901847"><ele>705.25</ele><time>2026-04-08T10:48:16Z</time></trkpt><trkpt lat="45.54769032280334" lon="11.05238414233417"><ele>697.5</ele><time>2026-04-08T10:48:17Z</time></trkpt><trkpt lat="45.54758576726407" lon="11.05235922528976"><ele>689.75</ele><time>2026-04-08T10:48:18Z</time></trkpt><trkpt lat="45.54746466845984" lon="11.05236375193366"><ele>682.0</ele><time>2026-04-08T10:48:19Z</time></trkpt><trkpt lat="45.54733332339238" lon="11.052396346281128"><ele>682.0</ele><time>2026-04-08T10:48:20Z</time></trkpt><trkpt lat="45.54721386227565" lon="11.052429035415765"><ele>682.0</ele><time>2026-04-08T10:48:21Z</time></trkpt><trkpt lat="45.547094063931965" lon="11.052448469798664"><ele>682.0</ele><time>2026-04-08T10:48:22Z</time></trkpt><trkpt lat="45.54698454978261" lon="11.052446882711584"><ele>682.0</ele><time>2026-04-08T10:48:23Z</time></trkpt><trkpt lat="45.54686939911683" lon="11.052444800955676"><ele>684.5</ele><time>2026-04-08T10:48:24Z</time></trkpt><trkpt lat="45.5467514031866" lon="11.052484050659396"><ele>687.0</ele><time>2026-04-08T10:48:25Z</time></trkpt><trkpt lat="45.5466518999827" lon="11.052561372263927"><ele>689.5</ele><time>2026-04-08T10:48:26Z</time></trkpt><trkpt lat="45.54656092848544" lon="11.05265204149525"><ele>692.0</ele><time>2026-04-08T10:48:27Z</time></trkpt><trkpt lat="45.54647579580677" lon="11.052751594533813"><ele>692.0</ele><time>2026-04-08T10:48:28Z</time></trkpt><trkpt lat="45.546392321666254" lon="11.052857758366153"><ele>692.0</ele><time>2026-04-08T10:48:29Z</time></trkpt><trkpt lat="45.54630866208258" lon="11.052984937637675"><ele>692.0</ele><time>2026-04-08T10:48:29.999Z</time></trkpt><trkpt lat="45.54624421520865" lon="11.05313234374303"><ele>692.0</ele><time>2026-04-08T10:48:30.999Z</time></trkpt><trkpt lat="45.54616205984572" lon="11.053288104049523"><ele>687.5</ele><time>2026-04-08T10:48:31.999Z</time></trkpt><trkpt lat="45.546070583902846" lon="11.05342086434007"><ele>683.0</ele><time>2026-04-08T10:48:32.999Z</time></trkpt><trkpt lat="45.54595583728199" lon="11.053547651088662"><ele>678.5</ele><time>2026-04-08T10:48:33.999Z</time></trkpt><trkpt lat="45.54584384369108" lon="11.053662722673808"><ele>674.0</ele><time>2026-04-08T10:48:34.999Z</time></trkpt><trkpt lat="45.545703501187056" lon="11.05374773167705"><ele>674.0</ele><time>2026-04-08T10:48:35.999Z</time></trkpt><trkpt lat="45.54559790348471" lon="11.053870172175788"><ele>674.0</ele><time>2026-04-08T10:48:36.999Z</time></trkpt><trkpt lat="45.54550494186341" lon="11.053982413566967"><ele>674.0</ele><time>2026-04-08T10:48:37.999Z</time></trkpt><trkpt lat="45.54542920747195" lon="11.054074950874634"><ele>674.0</ele><time>2026-04-08T10:48:38.999Z</time></trkpt><trkpt lat="45.54535450488345" lon="11.054166227320996"><ele>671.8333333333333</ele><time>2026-04-08T10:48:39.999Z</time></trkpt><trkpt lat="45.54529211465522" lon="11.054242459784902"><ele>669.6666666666666</ele><time>2026-04-08T10:48:40.999Z</time></trkpt><trkpt lat="45.545235566901916" lon="11.054299160635402"><ele>667.5</ele><time>2026-04-08T10:48:48.999Z</time></trkpt><trkpt lat="45.5451575843873" lon="11.054376088074354"><ele>665.3333333333334</ele><time>2026-04-08T10:48:50.999Z</time></trkpt><trkpt lat="45.5450997417723" lon="11.054435912004688"><ele>663.1666666666667</ele><time>2026-04-08T10:48:51.999Z</time></trkpt><trkpt lat="45.54502595095052" lon="11.054508567141133"><ele>661.0</ele><time>2026-04-08T10:48:52.999Z</time></trkpt><trkpt lat="45.54495311302075" lon="11.05458282728426"><ele>661.0</ele><time>2026-04-08T10:48:53.999Z</time></trkpt><trkpt lat="45.54489350917666" lon="11.054650536654902"><ele>661.0</ele><time>2026-04-08T10:48:54.999Z</time></trkpt><trkpt lat="45.54483282566214" lon="11.05471331566345"><ele>661.0</ele><time>2026-04-08T10:48:55.999Z</time></trkpt><trkpt lat="45.54469930859906" lon="11.054671701135712"><ele>661.0</ele><time>2026-04-08T10:48:57.999Z</time></trkpt><trkpt lat="45.54461578273795" lon="11.054620786137699"><ele>661.0</ele><time>2026-04-08T10:48:58.999Z</time></trkpt><trkpt lat="45.54453546563531" lon="11.05454101590736"><ele>660.5999999999999</ele><time>2026-04-08T10:48:59.999Z</time></trkpt><trkpt lat="45.5444853798852" lon="11.054426071231484"><ele>660.2</ele><time>2026-04-08T10:49:00.999Z</time></trkpt><trkpt lat="45.544427239175974" lon="11.054297292056358"><ele>659.8</ele><time>2026-04-08T10:49:01.999Z</time></trkpt><trkpt lat="45.54437142860058" lon="11.054161205757497"><ele>659.4000000000001</ele><time>2026-04-08T10:49:02.999Z</time></trkpt><trkpt lat="45.544315051833344" lon="11.05402214290678"><ele>659.0</ele><time>2026-04-08T10:49:03.999Z</time></trkpt><trkpt lat="45.544273368789746" lon="11.053896755400757"><ele>659.0</ele><time>2026-04-08T10:49:04.999Z</time></trkpt><trkpt lat="45.544202329917084" lon="11.05377849154037"><ele>659.0</ele><time>2026-04-08T10:49:05.999Z</time></trkpt><trkpt lat="45.5441328419692" lon="11.053644171163448"><ele>659.0</ele><time>2026-04-08T10:49:06.999Z</time></trkpt><trkpt lat="45.54403873077483" lon="11.05350822652221"><ele>659.0</ele><time>2026-04-08T10:49:07.999Z</time></trkpt><trkpt lat="45.54393141992831" lon="11.053375530231683"><ele>660.4000000000001</ele><time>2026-04-08T10:49:08.999Z</time></trkpt><trkpt lat="45.54383834713288" lon="11.053276504690086"><ele>661.8</ele><time>2026-04-08T10:49:09.999Z</time></trkpt><trkpt lat="45.54374132729202" lon="11.053177101560626"><ele>663.2</ele><time>2026-04-08T10:49:10.999Z</time></trkpt><trkpt lat="45.54365407964739" lon="11.053086668479422"><ele>664.5999999999999</ele><time>2026-04-08T10:49:11.999Z</time></trkpt><trkpt lat="45.54357044025726" lon="11.052997656789747"><ele>666.0</ele><time>2026-04-08T10:49:12.999Z</time></trkpt><trkpt lat="45.54348287365296" lon="11.052909969576858"><ele>666.0</ele><time>2026-04-08T10:49:13.999Z</time></trkpt><trkpt lat="45.54338785963544" lon="11.052853886086005"><ele>666.0</ele><time>2026-04-08T10:49:14.999Z</time></trkpt><trkpt lat="45.543292010501" lon="11.052795341125428"><ele>666.0</ele><time>2026-04-08T10:49:15.999Z</time></trkpt><trkpt lat="45.54321649396982" lon="11.0527685979246"><ele>666.0</ele><time>2026-04-08T10:49:16.999Z</time></trkpt><trkpt lat="45.54307951273348" lon="11.052699107144491"><ele>666.0</ele><time>2026-04-08T10:49:18.999Z</time></trkpt><trkpt lat="45.54300436403945" lon="11.052674739648"><ele>666.0</ele><time>2026-04-08T10:49:19.999Z</time></trkpt><trkpt lat="45.54291603155836" lon="11.052620285975383"><ele>666.0</ele><time>2026-04-08T10:49:20.999Z</time></trkpt><trkpt lat="45.54283271397936" lon="11.052503894487531"><ele>666.0</ele><time>2026-04-08T10:49:21.999Z</time></trkpt><trkpt lat="45.54272109103244" lon="11.05238824697316"><ele>666.0</ele><time>2026-04-08T10:49:22.999Z</time></trkpt><trkpt lat="45.54262025259557" lon="11.052294707194225"><ele>662.5</ele><time>2026-04-08T10:49:23.999Z</time></trkpt><trkpt lat="45.54251307848971" lon="11.052246486851189"><ele>659.0</ele><time>2026-04-08T10:49:24.999Z</time></trkpt><trkpt lat="45.54240386068145" lon="11.052192099279132"><ele>655.5</ele><time>2026-04-08T10:49:25.999Z</time></trkpt><trkpt lat="45.542294474397345" lon="11.052160424986122"><ele>652.0</ele><time>2026-04-08T10:49:26.999Z</time></trkpt><trkpt lat="45.54217586605946" lon="11.052111988466063"><ele>651.5</ele><time>2026-04-08T10:49:27.999Z</time></trkpt><trkpt lat="45.54204557355483" lon="11.05210291229394"><ele>651.0</ele><time>2026-04-08T10:49:28.999Z</time></trkpt><trkpt lat="45.541916349492446" lon="11.052110949795324"><ele>650.5</ele><time>2026-04-08T10:49:29.999Z</time></trkpt><trkpt lat="45.541794907325865" lon="11.05212378803558"><ele>650.0</ele><time>2026-04-08T10:49:30.999Z</time></trkpt><trkpt lat="45.5416906251705" lon="11.052143628087112"><ele>650.0</ele><time>2026-04-08T10:49:31.999Z</time></trkpt><trkpt lat="45.54159198709766" lon="11.052161899799795"><ele>650.0</ele><time>2026-04-08T10:49:32.999Z</time></trkpt><trkpt lat="45.54148674301409" lon="11.052179532448188"><ele>650.0</ele><time>2026-04-08T10:49:33.999Z</time></trkpt><trkpt lat="45.54137245610408" lon="11.052194779638183"><ele>650.0</ele><time>2026-04-08T10:49:34.999Z</time></trkpt><trkpt lat="45.54125673970005" lon="11.052205903343383"><ele>650.0</ele><time>2026-04-08T10:49:35.999Z</time></trkpt><trkpt lat="45.54113784156605" lon="11.05220281899328"><ele>649.4</ele><time>2026-04-08T10:49:37Z</time></trkpt><trkpt lat="45.54103154498893" lon="11.052209526278613"><ele>648.8</ele><time>2026-04-08T10:49:38Z</time></trkpt><trkpt lat="45.54092923791716" lon="11.052251029944403"><ele>648.2</ele><time>2026-04-08T10:49:39Z</time></trkpt><trkpt lat="45.540847076210746" lon="11.052268115155952"><ele>647.6</ele><time>2026-04-08T10:49:40Z</time></trkpt><trkpt lat="45.54073848761946" lon="11.052264070300923"><ele>647.0</ele><time>2026-04-08T10:49:41Z</time></trkpt><trkpt lat="45.54061839986064" lon="11.052247074861274"><ele>647.0</ele><time>2026-04-08T10:49:42Z</time></trkpt><trkpt lat="45.540509780474956" lon="11.052230111292998"><ele>647.0</ele><time>2026-04-08T10:49:43Z</time></trkpt><trkpt lat="45.54037325060809" lon="11.052222413692482"><ele>647.0</ele><time>2026-04-08T10:49:44Z</time></trkpt><trkpt lat="45.54022981945499" lon="11.05222954800096"><ele>647.0</ele><time>2026-04-08T10:49:45Z</time></trkpt><trkpt lat="45.540103813522805" lon="11.052237127931129"><ele>646.0</ele><time>2026-04-08T10:49:46Z</time></trkpt><trkpt lat="45.53998748654754" lon="11.052245371283313"><ele>645.0</ele><time>2026-04-08T10:49:47Z</time></trkpt><trkpt lat="45.539863650403014" lon="11.052254146737443"><ele>644.0</ele><time>2026-04-08T10:49:48Z</time></trkpt><trkpt lat="45.53973249655939" lon="11.052265734118736"><ele>643.0</ele><time>2026-04-08T10:49:49Z</time></trkpt><trkpt lat="45.539588959621966" lon="11.052290135387446"><ele>642.75</ele><time>2026-04-08T10:49:50Z</time></trkpt><trkpt lat="45.53945042638644" lon="11.052306789738335"><ele>642.5</ele><time>2026-04-08T10:49:51Z</time></trkpt><trkpt lat="45.53932316024719" lon="11.052317466074078"><ele>642.25</ele><time>2026-04-08T10:49:52Z</time></trkpt><trkpt lat="45.53919401423092" lon="11.052327124241984"><ele>642.0</ele><time>2026-04-08T10:49:53Z</time></trkpt><trkpt lat="45.53906757849966" lon="11.052334577871438"><ele>642.0</ele><time>2026-04-08T10:49:54Z</time></trkpt><trkpt lat="45.53894731694885" lon="11.05235007916722"><ele>642.0</ele><time>2026-04-08T10:49:55Z</time></trkpt><trkpt lat="45.538831255904135" lon="11.052362930504136"><ele>642.0</ele><time>2026-04-08T10:49:56Z</time></trkpt><trkpt lat="45.538715880230235" lon="11.052363571888357"><ele>642.0</ele><time>2026-04-08T10:49:57Z</time></trkpt><trkpt lat="45.53859724953961" lon="11.052346715730074"><ele>642.2</ele><time>2026-04-08T10:49:58Z</time></trkpt><trkpt lat="45.53847848642337" lon="11.052317329368558"><ele>642.4000000000001</ele><time>2026-04-08T10:49:59Z</time></trkpt><trkpt lat="45.538374666333155" lon="11.052314064412098"><ele>642.5999999999999</ele><time>2026-04-08T10:50:00Z</time></trkpt><trkpt lat="45.53827910218338" lon="11.052294538738202"><ele>642.8</ele><time>2026-04-08T10:50:01Z</time></trkpt><trkpt lat="45.53818933340897" lon="11.052267582541393"><ele>643.0</ele><time>2026-04-08T10:50:02Z</time></trkpt><trkpt lat="45.538095824154794" lon="11.052292252074517"><ele>643.0</ele><time>2026-04-08T10:50:03Z</time></trkpt><trkpt lat="45.53798674991438" lon="11.052284875815094"><ele>643.0</ele><time>2026-04-08T10:50:04Z</time></trkpt><trkpt lat="45.53786833580717" lon="11.052278922120133"><ele>643.0</ele><time>2026-04-08T10:50:05Z</time></trkpt><trkpt lat="45.537762360549756" lon="11.052280338022907"><ele>643.0</ele><time>2026-04-08T10:50:06Z</time></trkpt><trkpt lat="45.537670812775346" lon="11.052264711443161"><ele>643.0</ele><time>2026-04-08T10:50:07Z</time></trkpt><trkpt lat="45.53753496850012" lon="11.05226035786619"><ele>642.25</ele><time>2026-04-08T10:50:08Z</time></trkpt><trkpt lat="45.53741722890944" lon="11.052246747998783"><ele>641.5</ele><time>2026-04-08T10:50:09Z</time></trkpt><trkpt lat="45.53730002949315" lon="11.052233583170322"><ele>640.75</ele><time>2026-04-08T10:50:10Z</time></trkpt><trkpt lat="45.53719242877684" lon="11.05219629568733"><ele>640.0</ele><time>2026-04-08T10:50:11Z</time></trkpt><trkpt lat="45.53707732577081" lon="11.052118371217487"><ele>636.5</ele><time>2026-04-08T10:50:12Z</time></trkpt><trkpt lat="45.536946553927834" lon="11.052037887618823"><ele>633.0</ele><time>2026-04-08T10:50:13Z</time></trkpt><trkpt lat="45.536829021870076" lon="11.051969991329274"><ele>629.5</ele><time>2026-04-08T10:50:14Z</time></trkpt><trkpt lat="45.53670658159299" lon="11.051940669778311"><ele>626.0</ele><time>2026-04-08T10:50:15Z</time></trkpt><trkpt lat="45.53658243565268" lon="11.051896339442088"><ele>626.0</ele><time>2026-04-08T10:50:16Z</time></trkpt><trkpt lat="45.536467827462694" lon="11.051843187376994"><ele>626.0</ele><time>2026-04-08T10:50:17Z</time></trkpt><trkpt lat="45.536355692486154" lon="11.051799835286834"><ele>626.0</ele><time>2026-04-08T10:50:18Z</time></trkpt><trkpt lat="45.53623748161302" lon="11.051770717878536"><ele>626.0</ele><time>2026-04-08T10:50:19Z</time></trkpt><trkpt lat="45.53611370998516" lon="11.051762255744437"><ele>624.0</ele><time>2026-04-08T10:50:20Z</time></trkpt><trkpt lat="45.53599231154693" lon="11.051767216263297"><ele>622.0</ele><time>2026-04-08T10:50:21Z</time></trkpt><trkpt lat="45.53587883870316" lon="11.051734940257306"><ele>620.0</ele><time>2026-04-08T10:50:22Z</time></trkpt><trkpt lat="45.53577666797491" lon="11.051687963464145"><ele>618.0</ele><time>2026-04-08T10:50:23Z</time></trkpt><trkpt lat="45.535684249880354" lon="11.051621604774109"><ele>616.0</ele><time>2026-04-08T10:50:24Z</time></trkpt><trkpt lat="45.53557739178645" lon="11.051537861645759"><ele>614.75</ele><time>2026-04-08T10:50:25Z</time></trkpt><trkpt lat="45.53545027965267" lon="11.051444620717861"><ele>613.5</ele><time>2026-04-08T10:50:26Z</time></trkpt><trkpt lat="45.535335117813375" lon="11.051330870892746"><ele>612.25</ele><time>2026-04-08T10:50:27Z</time></trkpt><trkpt lat="45.53523497437348" lon="11.051229646146748"><ele>611.0</ele><time>2026-04-08T10:50:28Z</time></trkpt><trkpt lat="45.535140871238276" lon="11.051134190698894"><ele>609.25</ele><time>2026-04-08T10:50:29Z</time></trkpt><trkpt lat="45.53503811541341" lon="11.051071722440277"><ele>607.5</ele><time>2026-04-08T10:50:30Z</time></trkpt><trkpt lat="45.53493574398988" lon="11.051001003134237"><ele>605.75</ele><time>2026-04-08T10:50:31Z</time></trkpt><trkpt lat="45.53482907425048" lon="11.050943041042993"><ele>604.0</ele><time>2026-04-08T10:50:32Z</time></trkpt><trkpt lat="45.53472059629842" lon="11.050896580229162"><ele>604.0</ele><time>2026-04-08T10:50:33Z</time></trkpt><trkpt lat="45.53459256305921" lon="11.050855412112142"><ele>604.0</ele><time>2026-04-08T10:50:34Z</time></trkpt><trkpt lat="45.53444892865057" lon="11.050789646420448"><ele>604.0</ele><time>2026-04-08T10:50:35Z</time></trkpt><trkpt lat="45.53430457834134" lon="11.05072749029044"><ele>604.0</ele><time>2026-04-08T10:50:35.999Z</time></trkpt><trkpt lat="45.53418240304859" lon="11.050665762153042"><ele>599.75</ele><time>2026-04-08T10:50:36.999Z</time></trkpt><trkpt lat="45.53405618805562" lon="11.050596163330628"><ele>595.5</ele><time>2026-04-08T10:50:37.999Z</time></trkpt><trkpt lat="45.53393948464608" lon="11.050530002082036"><ele>591.25</ele><time>2026-04-08T10:50:38.999Z</time></trkpt><trkpt lat="45.53382979886832" lon="11.050477494825076"><ele>587.0</ele><time>2026-04-08T10:50:39.999Z</time></trkpt><trkpt lat="45.533727583428536" lon="11.050400711301254"><ele>586.6</ele><time>2026-04-08T10:50:40.999Z</time></trkpt><trkpt lat="45.53362023256475" lon="11.050360883295456"><ele>586.2</ele><time>2026-04-08T10:50:41.999Z</time></trkpt><trkpt lat="45.53351846823024" lon="11.050300118241024"><ele>585.8</ele><time>2026-04-08T10:50:42.999Z</time></trkpt><trkpt lat="45.53341458162441" lon="11.05025826043374"><ele>585.4</ele><time>2026-04-08T10:50:43.999Z</time></trkpt><trkpt lat="45.533301436218" lon="11.050237524839309"><ele>585.0</ele><time>2026-04-08T10:50:44.999Z</time></trkpt><trkpt lat="45.53318712949245" lon="11.050182450845739"><ele>585.0</ele><time>2026-04-08T10:50:45.999Z</time></trkpt><trkpt lat="45.53312228121437" lon="11.050158222171829"><ele>585.0</ele><time>2026-04-08T10:50:46.999Z</time></trkpt><trkpt lat="45.533058062937734" lon="11.050127327929708"><ele>585.0</ele><time>2026-04-08T10:50:47.999Z</time></trkpt><trkpt lat="45.53298849819894" lon="11.050089045730838"><ele>585.0</ele><time>2026-04-08T10:50:48.999Z</time></trkpt><trkpt lat="45.532923551675054" lon="11.049994152897417"><ele>585.0</ele><time>2026-04-08T10:50:49.999Z</time></trkpt><trkpt lat="45.53286933896584" lon="11.04988711060175"><ele>585.0</ele><time>2026-04-08T10:50:50.999Z</time></trkpt><trkpt lat="45.53284224834242" lon="11.049777606814033"><ele>581.8333333333334</ele><time>2026-04-08T10:50:51.999Z</time></trkpt><trkpt lat="45.53280097456013" lon="11.049700249221404"><ele>578.6666666666666</ele><time>2026-04-08T10:50:52.999Z</time></trkpt><trkpt lat="45.53275011553903" lon="11.049634403237327"><ele>575.5</ele><time>2026-04-08T10:50:53.999Z</time></trkpt><trkpt lat="45.53268825184398" lon="11.04960251578359"><ele>572.3333333333333</ele><time>2026-04-08T10:50:54.999Z</time></trkpt><trkpt lat="45.53258030635714" lon="11.049600970288042"><ele>569.1666666666666</ele><time>2026-04-08T10:51:05.999Z</time></trkpt><trkpt lat="45.53250485369298" lon="11.049574462059276"><ele>566.0</ele><time>2026-04-08T10:51:06.999Z</time></trkpt><trkpt lat="45.532409168350505" lon="11.049577793155644"><ele>566.0</ele><time>2026-04-08T10:51:07.999Z</time></trkpt><trkpt lat="45.53229188195005" lon="11.049595571042389"><ele>566.0</ele><time>2026-04-08T10:51:08.999Z</time></trkpt><trkpt lat="45.53220520372288" lon="11.049564761861436"><ele>566.0</ele><time>2026-04-08T10:51:09.999Z</time></trkpt><trkpt lat="45.532102906154" lon="11.04955877944286"><ele>566.0</ele><time>2026-04-08T10:51:10.999Z</time></trkpt><trkpt lat="45.5319895842626" lon="11.04956238219573"><ele>566.0</ele><time>2026-04-08T10:51:11.999Z</time></trkpt><trkpt lat="45.5318592794764" lon="11.049557976157372"><ele>565.25</ele><time>2026-04-08T10:51:12.999Z</time></trkpt><trkpt lat="45.531727541583265" lon="11.049548600037001"><ele>564.5</ele><time>2026-04-08T10:51:13.999Z</time></trkpt><trkpt lat="45.531599084553854" lon="11.049530806942819"><ele>563.75</ele><time>2026-04-08T10:51:14.999Z</time></trkpt><trkpt lat="45.53146928196533" lon="11.049503461667548"><ele>563.0</ele><time>2026-04-08T10:51:15.999Z</time></trkpt><trkpt lat="45.53134033924556" lon="11.049476258750655"><ele>563.0</ele><time>2026-04-08T10:51:16.999Z</time></trkpt><trkpt lat="45.531232624972084" lon="11.049454278273199"><ele>563.0</ele><time>2026-04-08T10:51:17.999Z</time></trkpt><trkpt lat="45.531131673388145" lon="11.04943379186371"><ele>563.0</ele><time>2026-04-08T10:51:18.999Z</time></trkpt><trkpt lat="45.531034674545914" lon="11.049411590407155"><ele>563.0</ele><time>2026-04-08T10:51:19.999Z</time></trkpt><trkpt lat="45.53091999846451" lon="11.049380548854634"><ele>563.0</ele><time>2026-04-08T10:51:20.999Z</time></trkpt><trkpt lat="45.530815845215216" lon="11.049345331637827"><ele>562.75</ele><time>2026-04-08T10:51:21.999Z</time></trkpt><trkpt lat="45.53069825904488" lon="11.04929582186025"><ele>562.5</ele><time>2026-04-08T10:51:22.999Z</time></trkpt><trkpt lat="45.530572481562444" lon="11.049271435811935"><ele>562.25</ele><time>2026-04-08T10:51:23.999Z</time></trkpt><trkpt lat="45.53045626115114" lon="11.049239024265226"><ele>562.0</ele><time>2026-04-08T10:51:24.999Z</time></trkpt><trkpt lat="45.530334137855114" lon="11.049225872814432"><ele>560.5</ele><time>2026-04-08T10:51:25.999Z</time></trkpt><trkpt lat="45.53020717268397" lon="11.049201846801585"><ele>559.0</ele><time>2026-04-08T10:51:26.999Z</time></trkpt><trkpt lat="45.53007482392956" lon="11.049210807272479"><ele>557.5</ele><time>2026-04-08T10:51:27.999Z</time></trkpt><trkpt lat="45.52994273983292" lon="11.04923793686665"><ele>556.0</ele><time>2026-04-08T10:51:28.999Z</time></trkpt><trkpt lat="45.529803791461255" lon="11.049268438344853"><ele>556.0</ele><time>2026-04-08T10:51:29.999Z</time></trkpt><trkpt lat="45.52967204357943" lon="11.049316488610284"><ele>556.0</ele><time>2026-04-08T10:51:30.999Z</time></trkpt><trkpt lat="45.529536171298126" lon="11.049305490204823"><ele>556.0</ele><time>2026-04-08T10:51:31.999Z</time></trkpt><trkpt lat="45.52940020172469" lon="11.04931335642634"><ele>556.0</ele><time>2026-04-08T10:51:32.999Z</time></trkpt><trkpt lat="45.52926626296014" lon="11.049326147521843"><ele>553.0</ele><time>2026-04-08T10:51:33.999Z</time></trkpt><trkpt lat="45.52913317906084" lon="11.04936235691616"><ele>550.0</ele><time>2026-04-08T10:51:34.999Z</time></trkpt><trkpt lat="45.52899935182558" lon="11.049376348745897"><ele>547.0</ele><time>2026-04-08T10:51:35.999Z</time></trkpt><trkpt lat="45.52886706174781" lon="11.049387063666519"><ele>544.0</ele><time>2026-04-08T10:51:36.999Z</time></trkpt><trkpt lat="45.528730531747314" lon="11.049414343618558"><ele>541.25</ele><time>2026-04-08T10:51:37.999Z</time></trkpt><trkpt lat="45.52860409253908" lon="11.049424889248295"><ele>538.5</ele><time>2026-04-08T10:51:38.999Z</time></trkpt><trkpt lat="45.528494665879286" lon="11.049440187744928"><ele>535.75</ele><time>2026-04-08T10:51:39.999Z</time></trkpt><trkpt lat="45.52839030443645" lon="11.04945402515479"><ele>533.0</ele><time>2026-04-08T10:51:40.999Z</time></trkpt><trkpt lat="45.52827280765575" lon="11.049448536357803"><ele>533.0</ele><time>2026-04-08T10:51:41.999Z</time></trkpt><trkpt lat="45.52816965696403" lon="11.049441182575258"><ele>533.0</ele><time>2026-04-08T10:51:43Z</time></trkpt><trkpt lat="45.528070289521196" lon="11.049447368503515"><ele>533.0</ele><time>2026-04-08T10:51:44Z</time></trkpt><trkpt lat="45.52796802734938" lon="11.049411968115878"><ele>533.0</ele><time>2026-04-08T10:51:45Z</time></trkpt><trkpt lat="45.52784659456166" lon="11.049388393838528"><ele>533.0</ele><time>2026-04-08T10:51:46Z</time></trkpt><trkpt lat="45.52771965674585" lon="11.04939642298531"><ele>528.3333333333333</ele><time>2026-04-08T10:51:47Z</time></trkpt><trkpt lat="45.5275742308" lon="11.049421932631118"><ele>523.6666666666666</ele><time>2026-04-08T10:51:48Z</time></trkpt><trkpt lat="45.52741456810786" lon="11.049449663954137"><ele>519.0</ele><time>2026-04-08T10:51:49Z</time></trkpt><trkpt lat="45.52726166289177" lon="11.049480573804916"><ele>519.0</ele><time>2026-04-08T10:51:50Z</time></trkpt><trkpt lat="45.52710753907854" lon="11.049537294087697"><ele>519.0</ele><time>2026-04-08T10:51:51Z</time></trkpt><trkpt lat="45.52694876112841" lon="11.049582414805453"><ele>519.0</ele><time>2026-04-08T10:51:52Z</time></trkpt><trkpt lat="45.526796272220295" lon="11.049647480935935"><ele>515.3333333333334</ele><time>2026-04-08T10:51:53Z</time></trkpt><trkpt lat="45.52663739722691" lon="11.049715287055378"><ele>511.6666666666667</ele><time>2026-04-08T10:51:54Z</time></trkpt><trkpt lat="45.526475270231856" lon="11.04978000291698"><ele>508.0</ele><time>2026-04-08T10:51:55Z</time></trkpt><trkpt lat="45.52631478128349" lon="11.049842511361087"><ele>502.0</ele><time>2026-04-08T10:51:56Z</time></trkpt><trkpt lat="45.526162015318896" lon="11.049924142122837"><ele>496.0</ele><time>2026-04-08T10:51:57Z</time></trkpt><trkpt lat="45.525989992359825" lon="11.04997137112769"><ele>490.0</ele><time>2026-04-08T10:51:58Z</time></trkpt><trkpt lat="45.525826945836684" lon="11.050025494825771"><ele>488.5</ele><time>2026-04-08T10:51:59Z</time></trkpt><trkpt lat="45.525678922040456" lon="11.050052768001622"><ele>487.0</ele><time>2026-04-08T10:52:00Z</time></trkpt><trkpt lat="45.525546234396586" lon="11.050060321076357"><ele>485.5</ele><time>2026-04-08T10:52:01Z</time></trkpt><trkpt lat="45.52542210307858" lon="11.050050486461343"><ele>484.0</ele><time>2026-04-08T10:52:02Z</time></trkpt><trkpt lat="45.52528812049485" lon="11.050039385203801"><ele>480.6666666666667</ele><time>2026-04-08T10:52:03Z</time></trkpt><trkpt lat="45.525134117677766" lon="11.050033123875249"><ele>477.33333333333337</ele><time>2026-04-08T10:52:04Z</time></trkpt><trkpt lat="45.52498094338435" lon="11.050026532709316"><ele>474.0</ele><time>2026-04-08T10:52:05Z</time></trkpt><trkpt lat="45.524823165822866" lon="11.05001908119757"><ele>474.0</ele><time>2026-04-08T10:52:06Z</time></trkpt><trkpt lat="45.52468375324307" lon="11.050007740959138"><ele>474.0</ele><time>2026-04-08T10:52:07Z</time></trkpt><trkpt lat="45.52453666553294" lon="11.049990530658983"><ele>474.0</ele><time>2026-04-08T10:52:08Z</time></trkpt><trkpt lat="45.524419076375054" lon="11.049978949568949"><ele>474.0</ele><time>2026-04-08T10:52:09Z</time></trkpt><trkpt lat="45.52432154434892" lon="11.049988014618902"><ele>472.8571428571428</ele><time>2026-04-08T10:52:10Z</time></trkpt><trkpt lat="45.52425232209427" lon="11.05004185316732"><ele>471.71428571428567</ele><time>2026-04-08T10:52:11Z</time></trkpt><trkpt lat="45.524208267396006" lon="11.05014182389608"><ele>470.57142857142856</ele><time>2026-04-08T10:52:12Z</time></trkpt><trkpt lat="45.52414870247102" lon="11.050202176775402"><ele>469.4285714285714</ele><time>2026-04-08T10:52:13Z</time></trkpt><trkpt lat="45.52410223668405" lon="11.050268233555297"><ele>468.2857142857142</ele><time>2026-04-08T10:52:14Z</time></trkpt><trkpt lat="45.5240553481517" lon="11.050334511939031"><ele>467.14285714285717</ele><time>2026-04-08T10:52:15Z</time></trkpt><trkpt lat="45.524006220212875" lon="11.050416004648294"><ele>466.0</ele><time>2026-04-08T10:52:17Z</time></trkpt><trkpt lat="45.523951281579876" lon="11.050507135225239"><ele>466.0</ele><time>2026-04-08T10:52:21Z</time></trkpt><trkpt lat="45.52404405337464" lon="11.05062582644926"><ele>466.0</ele><time>2026-04-08T10:52:22Z</time></trkpt><trkpt lat="45.52414473968561" lon="11.050738282934429"><ele>466.0</ele><time>2026-04-08T10:52:24Z</time></trkpt><trkpt lat="45.52418816457356" lon="11.050811845721489"><ele>466.0</ele><time>2026-04-08T10:52:25Z</time></trkpt><trkpt lat="45.524231290712066" lon="11.050887012292957"><ele>466.0</ele><time>2026-04-08T10:52:26Z</time></trkpt><trkpt lat="45.52430600688354" lon="11.050994644139564"><ele>465.75</ele><time>2026-04-08T10:52:27Z</time></trkpt><trkpt lat="45.52441814318042" lon="11.051092882604655"><ele>465.5</ele><time>2026-04-08T10:52:28Z</time></trkpt><trkpt lat="45.52454759702042" lon="11.051168775406158"><ele>465.25</ele><time>2026-04-08T10:52:29Z</time></trkpt><trkpt lat="45.524701309689505" lon="11.051279153474983"><ele>465.0</ele><time>2026-04-08T10:52:30Z</time></trkpt><trkpt lat="45.52486072202877" lon="11.051371667268612"><ele>466.0</ele><time>2026-04-08T10:52:31Z</time></trkpt><trkpt lat="45.52499955823942" lon="11.051464443912051"><ele>467.0</ele><time>2026-04-08T10:52:32Z</time></trkpt><trkpt lat="45.525134571155746" lon="11.051547496168054"><ele>468.0</ele><time>2026-04-08T10:52:32.999Z</time></trkpt><trkpt lat="45.525281504531605" lon="11.051631175649158"><ele>465.75</ele><time>2026-04-08T10:52:33.999Z</time></trkpt><trkpt lat="45.52542004965425" lon="11.051709205551786"><ele>463.5</ele><time>2026-04-08T10:52:34.999Z</time></trkpt><trkpt lat="45.52555623159122" lon="11.051789301417921"><ele>461.25</ele><time>2026-04-08T10:52:35.999Z</time></trkpt><trkpt lat="45.52569163590936" lon="11.051868134102385"><ele>459.0</ele><time>2026-04-08T10:52:36.999Z</time></trkpt><trkpt lat="45.525827320266295" lon="11.051937539982726"><ele>459.0</ele><time>2026-04-08T10:52:37.999Z</time></trkpt><trkpt lat="45.52596064361118" lon="11.052007566055838"><ele>459.0</ele><time>2026-04-08T10:52:38.999Z</time></trkpt><trkpt lat="45.52609273855757" lon="11.052081807231412"><ele>459.0</ele><time>2026-04-08T10:52:39.999Z</time></trkpt><trkpt lat="45.52622405738472" lon="11.052147582431358"><ele>459.0</ele><time>2026-04-08T10:52:40.999Z</time></trkpt><trkpt lat="45.5263524469628" lon="11.05221590957666"><ele>460.25</ele><time>2026-04-08T10:52:41.999Z</time></trkpt><trkpt lat="45.526476010029086" lon="11.052292428490027"><ele>461.5</ele><time>2026-04-08T10:52:42.999Z</time></trkpt><trkpt lat="45.526597579007415" lon="11.052376605341244"><ele>462.75</ele><time>2026-04-08T10:52:43.999Z</time></trkpt><trkpt lat="45.5267138681524" lon="11.052473836522434"><ele>464.0</ele><time>2026-04-08T10:52:44.999Z</time></trkpt><trkpt lat="45.526816982168775" lon="11.052582294078782"><ele>461.0</ele><time>2026-04-08T10:52:45.999Z</time></trkpt><trkpt lat="45.526908594313234" lon="11.052688518594538"><ele>458.0</ele><time>2026-04-08T10:52:46.999Z</time></trkpt><trkpt lat="45.526991587534845" lon="11.052814612319091"><ele>455.0</ele><time>2026-04-08T10:52:47.999Z</time></trkpt><trkpt lat="45.527060865027416" lon="11.052950202490115"><ele>452.0</ele><time>2026-04-08T10:52:48.999Z</time></trkpt><trkpt lat="45.527103660840474" lon="11.053080149696717"><ele>451.99999999999994</ele><time>2026-04-08T10:52:49.999Z</time></trkpt><trkpt lat="45.52711464597405" lon="11.053193566133325"><ele>452.0</ele><time>2026-04-08T10:52:50.999Z</time></trkpt><trkpt lat="45.52710399327372" lon="11.053291416358551"><ele>452.0</ele><time>2026-04-08T10:52:51.999Z</time></trkpt><trkpt lat="45.52706379785317" lon="11.053374439181813"><ele>452.0</ele><time>2026-04-08T10:52:52.999Z</time></trkpt><trkpt lat="45.526976448553064" lon="11.05338067176252"><ele>451.99999999999994</ele><time>2026-04-08T10:52:53.999Z</time></trkpt><trkpt lat="45.526881608290935" lon="11.053426331972387"><ele>452.0</ele><time>2026-04-08T10:52:54.999Z</time></trkpt><trkpt lat="45.52677004896712" lon="11.053479383202133"><ele>447.25</ele><time>2026-04-08T10:52:55.999Z</time></trkpt><trkpt lat="45.5266509180634" lon="11.053579804637948"><ele>442.5</ele><time>2026-04-08T10:52:56.999Z</time></trkpt><trkpt lat="45.52651940044364" lon="11.053661763294897"><ele>437.75</ele><time>2026-04-08T10:52:57.999Z</time></trkpt><trkpt lat="45.526393737262545" lon="11.053750658926292"><ele>433.0</ele><time>2026-04-08T10:52:58.999Z</time></trkpt><trkpt lat="45.52628035395012" lon="11.053874110873922"><ele>434.5</ele><time>2026-04-08T10:52:59.999Z</time></trkpt><trkpt lat="45.52617119632368" lon="11.053996541547939"><ele>436.0</ele><time>2026-04-08T10:53:00.999Z</time></trkpt><trkpt lat="45.52605115304601" lon="11.054076952862351"><ele>437.5</ele><time>2026-04-08T10:53:01.999Z</time></trkpt><trkpt lat="45.525947841573014" lon="11.054147521470338"><ele>439.0</ele><time>2026-04-08T10:53:02.999Z</time></trkpt><trkpt lat="45.52586279957542" lon="11.054202053841644"><ele>439.00000000000006</ele><time>2026-04-08T10:53:03.999Z</time></trkpt><trkpt lat="45.52579360533359" lon="11.054243708444544"><ele>439.0</ele><time>2026-04-08T10:53:04.999Z</time></trkpt><trkpt lat="45.525728663741816" lon="11.054347952788063"><ele>439.0</ele><time>2026-04-08T10:53:06.999Z</time></trkpt><trkpt lat="45.52574479415526" lon="11.054449488772141"><ele>439.0</ele><time>2026-04-08T10:53:07.999Z</time></trkpt><trkpt lat="45.52577091139794" lon="11.054544907440613"><ele>439.00000000000006</ele><time>2026-04-08T10:53:08.999Z</time></trkpt><trkpt lat="45.52580348750632" lon="11.054658641186949"><ele>439.0</ele><time>2026-04-08T10:53:09.999Z</time></trkpt><trkpt lat="45.52583966891395" lon="11.054767677914782"><ele>439.00000000000006</ele><time>2026-04-08T10:53:10.999Z</time></trkpt><trkpt lat="45.52589481183014" lon="11.054841147638738"><ele>439.0</ele><time>2026-04-08T10:53:11.999Z</time></trkpt><trkpt lat="45.52596344258907" lon="11.054901070573383"><ele>439.0</ele><time>2026-04-08T10:53:12.999Z</time></trkpt><trkpt lat="45.526043192615795" lon="11.054973650062978"><ele>439.0</ele><time>2026-04-08T10:53:13.999Z</time></trkpt><trkpt lat="45.52612213203367" lon="11.055057566937759"><ele>439.00000000000006</ele><time>2026-04-08T10:53:14.999Z</time></trkpt><trkpt lat="45.52618253863015" lon="11.055152605652912"><ele>439.0</ele><time>2026-04-08T10:53:15.999Z</time></trkpt><trkpt lat="45.526215929465884" lon="11.055250070369864"><ele>442.2</ele><time>2026-04-08T10:53:16.999Z</time></trkpt><trkpt lat="45.52624316775999" lon="11.055355573714445"><ele>445.4</ele><time>2026-04-08T10:53:17.999Z</time></trkpt><trkpt lat="45.5262714339094" lon="11.05548069674239"><ele>448.6</ele><time>2026-04-08T10:53:18.999Z</time></trkpt><trkpt lat="45.526293035920915" lon="11.055587517811297"><ele>451.8</ele><time>2026-04-08T10:53:19.999Z</time></trkpt><trkpt lat="45.526297955820255" lon="11.055726728710418"><ele>455.0</ele><time>2026-04-08T10:53:21.999Z</time></trkpt><trkpt lat="45.52621583655558" lon="11.055840307591534"><ele>455.0</ele><time>2026-04-08T10:53:23.999Z</time></trkpt><trkpt lat="45.52611514368205" lon="11.055788183261676"><ele>455.0</ele><time>2026-04-08T10:53:24.999Z</time></trkpt><trkpt lat="45.52600561907193" lon="11.055815193456253"><ele>455.0</ele><time>2026-04-08T10:53:25.999Z</time></trkpt><trkpt lat="45.52590666632038" lon="11.055885998095805"><ele>455.0</ele><time>2026-04-08T10:53:26.999Z</time></trkpt><trkpt lat="45.52581532051842" lon="11.05593194246209"><ele>455.0</ele><time>2026-04-08T10:53:27.999Z</time></trkpt><trkpt lat="45.525740820575734" lon="11.055974376678606"><ele>455.0</ele><time>2026-04-08T10:53:28.999Z</time></trkpt><trkpt lat="45.525635004951425" lon="11.055868670789918"><ele>455.0</ele><time>2026-04-08T10:53:29.999Z</time></trkpt><trkpt lat="45.525524193459844" lon="11.05583097708416"><ele>455.0</ele><time>2026-04-08T10:53:30.999Z</time></trkpt><trkpt lat="45.52540979770761" lon="11.055822764515362"><ele>455.0</ele><time>2026-04-08T10:53:31.999Z</time></trkpt><trkpt lat="45.52531008122582" lon="11.055869626259344"><ele>455.8</ele><time>2026-04-08T10:53:32.999Z</time></trkpt><trkpt lat="45.52519652752554" lon="11.055861320992435"><ele>456.6</ele><time>2026-04-08T10:53:33.999Z</time></trkpt><trkpt lat="45.52508764154821" lon="11.055847712901755"><ele>457.4</ele><time>2026-04-08T10:53:34.999Z</time></trkpt><trkpt lat="45.52499923359244" lon="11.055792049947168"><ele>458.2</ele><time>2026-04-08T10:53:35.999Z</time></trkpt><trkpt lat="45.5249076102615" lon="11.055738537741409"><ele>459.0</ele><time>2026-04-08T10:53:36.999Z</time></trkpt><trkpt lat="45.524825914963756" lon="11.0556923282872"><ele>458.2</ele><time>2026-04-08T10:53:37.999Z</time></trkpt><trkpt lat="45.52473692329138" lon="11.055682426973338"><ele>457.4</ele><time>2026-04-08T10:53:38.999Z</time></trkpt><trkpt lat="45.52463545926013" lon="11.055721614347291"><ele>456.6</ele><time>2026-04-08T10:53:39.999Z</time></trkpt><trkpt lat="45.52454180715707" lon="11.055765809403566"><ele>455.8</ele><time>2026-04-08T10:53:40.999Z</time></trkpt><trkpt lat="45.524455199133726" lon="11.055837753918372"><ele>455.0</ele><time>2026-04-08T10:53:41.999Z</time></trkpt><trkpt lat="45.524371489042906" lon="11.055928289553016"><ele>455.0</ele><time>2026-04-08T10:53:42.999Z</time></trkpt><trkpt lat="45.52428841535849" lon="11.056036860461989"><ele>455.0</ele><time>2026-04-08T10:53:43.999Z</time></trkpt><trkpt lat="45.524184965739856" lon="11.05613263708183"><ele>455.0</ele><time>2026-04-08T10:53:44.999Z</time></trkpt><trkpt lat="45.52409101653606" lon="11.056244037042509"><ele>455.0</ele><time>2026-04-08T10:53:45.999Z</time></trkpt><trkpt lat="45.52398764028465" lon="11.056314897913484"><ele>455.0</ele><time>2026-04-08T10:53:46.999Z</time></trkpt><trkpt lat="45.52389180679086" lon="11.05641588934336"><ele>455.0</ele><time>2026-04-08T10:53:47.999Z</time></trkpt><trkpt lat="45.5238010640186" lon="11.056493004350285"><ele>455.0</ele><time>2026-04-08T10:53:49Z</time></trkpt><trkpt lat="45.523720019178086" lon="11.056566480404276"><ele>455.0</ele><time>2026-04-08T10:53:50Z</time></trkpt><trkpt lat="45.52364094817196" lon="11.05662814463654"><ele>455.0</ele><time>2026-04-08T10:53:51Z</time></trkpt><trkpt lat="45.52358744825179" lon="11.056727446690282"><ele>453.8</ele><time>2026-04-08T10:53:52Z</time></trkpt><trkpt lat="45.52352459883979" lon="11.056822018389703"><ele>452.6</ele><time>2026-04-08T10:53:53Z</time></trkpt><trkpt lat="45.52348397714507" lon="11.056946009126017"><ele>451.4</ele><time>2026-04-08T10:53:54Z</time></trkpt><trkpt lat="45.52345707292738" lon="11.057072064263572"><ele>450.2</ele><time>2026-04-08T10:53:55Z</time></trkpt><trkpt lat="45.52344637850736" lon="11.057204941996426"><ele>449.0</ele><time>2026-04-08T10:53:56Z</time></trkpt><trkpt lat="45.52343643233546" lon="11.057348353197424"><ele>450.2</ele><time>2026-04-08T10:53:57Z</time></trkpt><trkpt lat="45.5234391118866" lon="11.057506528524065"><ele>451.4</ele><time>2026-04-08T10:53:58Z</time></trkpt><trkpt lat="45.523438689422605" lon="11.05764474370646"><ele>452.6</ele><time>2026-04-08T10:53:59Z</time></trkpt><trkpt lat="45.52341847821457" lon="11.057780863173369"><ele>453.8</ele><time>2026-04-08T10:54:00Z</time></trkpt><trkpt lat="45.52342955433971" lon="11.05790513388714"><ele>455.0</ele><time>2026-04-08T10:54:01Z</time></trkpt><trkpt lat="45.52342264819626" lon="11.058028859301452"><ele>455.0</ele><time>2026-04-08T10:54:02Z</time></trkpt><trkpt lat="45.52343982661867" lon="11.058153574248362"><ele>455.0</ele><time>2026-04-08T10:54:03Z</time></trkpt><trkpt lat="45.5234628432984" lon="11.058282912979479"><ele>455.0</ele><time>2026-04-08T10:54:04Z</time></trkpt><trkpt lat="45.52349475808662" lon="11.058413910955473"><ele>455.0</ele><time>2026-04-08T10:54:05Z</time></trkpt><trkpt lat="45.52352156669049" lon="11.058547566393218"><ele>455.0</ele><time>2026-04-08T10:54:06Z</time></trkpt><trkpt lat="45.523555848328165" lon="11.058681014942128"><ele>454.8333333333333</ele><time>2026-04-08T10:54:07Z</time></trkpt><trkpt lat="45.52360764216282" lon="11.058801173334718"><ele>454.66666666666663</ele><time>2026-04-08T10:54:08Z</time></trkpt><trkpt lat="45.52365171814878" lon="11.058912984114313"><ele>454.5</ele><time>2026-04-08T10:54:09Z</time></trkpt><trkpt lat="45.52369223287224" lon="11.059000791276194"><ele>454.33333333333337</ele><time>2026-04-08T10:54:10Z</time></trkpt><trkpt lat="45.52370113345072" lon="11.059099120836468"><ele>454.1666666666667</ele><time>2026-04-08T10:54:11Z</time></trkpt><trkpt lat="45.52361805202695" lon="11.059196972311202"><ele>454.0</ele><time>2026-04-08T10:54:13Z</time></trkpt><trkpt lat="45.52353399152908" lon="11.059239895050913"><ele>454.0</ele><time>2026-04-08T10:54:15Z</time></trkpt><trkpt lat="45.523438669779836" lon="11.059387536584655"><ele>454.0</ele><time>2026-04-08T10:54:17Z</time></trkpt><trkpt lat="45.523357973002085" lon="11.059504389925271"><ele>454.0</ele><time>2026-04-08T10:54:18Z</time></trkpt><trkpt lat="45.523274122755645" lon="11.05958981669585"><ele>454.0</ele><time>2026-04-08T10:54:19Z</time></trkpt><trkpt lat="45.52320132722408" lon="11.059679316069163"><ele>454.0</ele><time>2026-04-08T10:54:20Z</time></trkpt><trkpt lat="45.52313631069898" lon="11.059788310114747"><ele>454.0</ele><time>2026-04-08T10:54:21Z</time></trkpt><trkpt lat="45.52306053510232" lon="11.059895260173795"><ele>454.0</ele><time>2026-04-08T10:54:22Z</time></trkpt><trkpt lat="45.522986286230164" lon="11.059991316576566"><ele>454.0</ele><time>2026-04-08T10:54:23Z</time></trkpt><trkpt lat="45.522906664159486" lon="11.060090519999317"><ele>454.0</ele><time>2026-04-08T10:54:24Z</time></trkpt><trkpt lat="45.52283774527049" lon="11.060198643288311"><ele>451.75</ele><time>2026-04-08T10:54:25Z</time></trkpt><trkpt lat="45.52277075716673" lon="11.06030911806133"><ele>449.5</ele><time>2026-04-08T10:54:26Z</time></trkpt><trkpt lat="45.52269599088546" lon="11.060429629589049"><ele>447.25</ele><time>2026-04-08T10:54:27Z</time></trkpt><trkpt lat="45.52261583533204" lon="11.060558157940035"><ele>445.0</ele><time>2026-04-08T10:54:28Z</time></trkpt><trkpt lat="45.5225248161676" lon="11.060697770269003"><ele>447.0</ele><time>2026-04-08T10:54:29Z</time></trkpt><trkpt lat="45.52243336759191" lon="11.060818153332036"><ele>449.0</ele><time>2026-04-08T10:54:30Z</time></trkpt><trkpt lat="45.52234186316378" lon="11.060923547084203"><ele>451.0</ele><time>2026-04-08T10:54:31Z</time></trkpt><trkpt lat="45.522257396934826" lon="11.06101561165527"><ele>453.0</ele><time>2026-04-08T10:54:32Z</time></trkpt><trkpt lat="45.52218244117977" lon="11.061096058511763"><ele>455.0</ele><time>2026-04-08T10:54:33Z</time></trkpt><trkpt lat="45.522135599301464" lon="11.061176311640848"><ele>454.99999999999994</ele><time>2026-04-08T10:54:34Z</time></trkpt><trkpt lat="45.522073260959075" lon="11.06124513527746"><ele>455.0</ele><time>2026-04-08T10:54:35Z</time></trkpt><trkpt lat="45.52201192645777" lon="11.061335033289621"><ele>455.0</ele><time>2026-04-08T10:54:36Z</time></trkpt><trkpt lat="45.521951671493895" lon="11.061414712545906"><ele>455.0</ele><time>2026-04-08T10:54:36.999Z</time></trkpt><trkpt lat="45.52189078691638" lon="11.061459980573149"><ele>454.99999999999994</ele><time>2026-04-08T10:54:41.999Z</time></trkpt><trkpt lat="45.52183078817926" lon="11.061523228150662"><ele>455.0</ele><time>2026-04-08T10:54:43.999Z</time></trkpt><trkpt lat="45.52176799939612" lon="11.061555355047547"><ele>451.75</ele><time>2026-04-08T10:54:45.999Z</time></trkpt><trkpt lat="45.52168566187096" lon="11.061619310489476"><ele>448.5</ele><time>2026-04-08T10:54:47.999Z</time></trkpt><trkpt lat="45.52164922449656" lon="11.061506143171227"><ele>445.25</ele><time>2026-04-08T10:54:48.999Z</time></trkpt><trkpt lat="45.52164012041973" lon="11.061824214912452"><ele>442.0</ele><time>2026-04-08T10:54:49.999Z</time></trkpt><trkpt lat="45.521587086352774" lon="11.061881151000104"><ele>442.0</ele><time>2026-04-08T10:54:51.999Z</time></trkpt><trkpt lat="45.521569347971464" lon="11.061770740326876"><ele>442.00000000000006</ele><time>2026-04-08T10:54:54.999Z</time></trkpt><trkpt lat="45.52160130092044" lon="11.061622101820381"><ele>442.00000000000006</ele><time>2026-04-08T10:54:56.999Z</time></trkpt><trkpt lat="45.52159190080389" lon="11.061516637495613"><ele>442.0</ele><time>2026-04-08T10:54:58.999Z</time></trkpt><trkpt lat="45.5216254666347" lon="11.06136929223613"><ele>442.0</ele><time>2026-04-08T10:55:00.999Z</time></trkpt><trkpt lat="45.52165829377863" lon="11.061174298905714"><ele>440.50000000000006</ele><time>2026-04-08T10:55:02.999Z</time></trkpt><trkpt lat="45.52168219657399" lon="11.061025983786596"><ele>439.0</ele><time>2026-04-08T10:55:04.999Z</time></trkpt><trkpt lat="45.521717437902026" lon="11.060907223726517"><ele>437.5</ele><time>2026-04-08T10:55:06.999Z</time></trkpt><trkpt lat="45.52175272613035" lon="11.060786902857037"><ele>436.0</ele><time>2026-04-08T10:55:08.999Z</time></trkpt><trkpt lat="45.52172894470459" lon="11.060694681364781"><ele>434.50000000000006</ele><time>2026-04-08T10:55:12.999Z</time></trkpt><trkpt lat="45.52166806317558" lon="11.060604054556569"><ele>433.0</ele><time>2026-04-08T10:55:14.999Z</time></trkpt><trkpt lat="45.52170080479476" lon="11.060470509415346"><ele>431.33333333333337</ele><time>2026-04-08T10:55:16.999Z</time></trkpt><trkpt lat="45.521726845969845" lon="11.060356556687083"><ele>429.6666666666667</ele><time>2026-04-08T10:55:17.999Z</time></trkpt><trkpt lat="45.521747309075906" lon="11.060259216743358"><ele>428.0</ele><time>2026-04-08T10:55:18.999Z</time></trkpt><trkpt lat="45.52175287199773" lon="11.060145320644855"><ele>426.33333333333337</ele><time>2026-04-08T10:55:19.999Z</time></trkpt><trkpt lat="45.52176998080776" lon="11.060039872857077"><ele>424.6666666666667</ele><time>2026-04-08T10:55:20.999Z</time></trkpt><trkpt lat="45.52179132700237" lon="11.059950956714307"><ele>423.0</ele><time>2026-04-08T10:55:21.999Z</time></trkpt><trkpt lat="45.521847890630745" lon="11.059775569350972"><ele>421.4</ele><time>2026-04-08T10:55:23.999Z</time></trkpt><trkpt lat="45.52184162092377" lon="11.059662626419982"><ele>419.79999999999995</ele><time>2026-04-08T10:55:24.999Z</time></trkpt><trkpt lat="45.521871403143095" lon="11.05948883656867"><ele>418.2</ele><time>2026-04-08T10:55:26.999Z</time></trkpt><trkpt lat="45.52189748567621" lon="11.059391238548395"><ele>416.6</ele><time>2026-04-08T10:55:27.999Z</time></trkpt><trkpt lat="45.52192573294715" lon="11.05929839564255"><ele>415.0</ele><time>2026-04-08T10:55:28.999Z</time></trkpt><trkpt lat="45.52195691442661" lon="11.05916152720516"><ele>413.50000000000006</ele><time>2026-04-08T10:55:30.999Z</time></trkpt><trkpt lat="45.52202833036458" lon="11.059041162630066"><ele>412.0</ele><time>2026-04-08T10:55:32.999Z</time></trkpt><trkpt lat="45.52208341192129" lon="11.058993171113359"><ele>410.5</ele><time>2026-04-08T10:55:33.999Z</time></trkpt><trkpt lat="45.522120286561105" lon="11.05889931926786"><ele>409.0</ele><time>2026-04-08T10:55:35.999Z</time></trkpt><trkpt lat="45.5220965062378" lon="11.058809037974346"><ele>407.50000000000006</ele><time>2026-04-08T10:55:36.999Z</time></trkpt><trkpt lat="45.52208701258409" lon="11.05868796094621"><ele>406.0</ele><time>2026-04-08T10:55:38.999Z</time></trkpt><trkpt lat="45.522019950400995" lon="11.058607221277198"><ele>406.0</ele><time>2026-04-08T10:55:44.999Z</time></trkpt><trkpt lat="45.52195921127445" lon="11.058632969354845"><ele>406.0</ele><time>2026-04-08T10:55:48.999Z</time></trkpt><trkpt lat="45.52186885338163" lon="11.058678075035434"><ele>406.0</ele><time>2026-04-08T10:55:50.999Z</time></trkpt><trkpt lat="45.52178917359388" lon="11.058698334469472"><ele>406.0</ele><time>2026-04-08T10:55:52.999Z</time></trkpt><trkpt lat="45.52168712420217" lon="11.058716909039674"><ele>406.0</ele><time>2026-04-08T10:55:55Z</time></trkpt><trkpt lat="45.5215868077882" lon="11.058793866111424"><ele>406.0</ele><time>2026-04-08T10:55:57Z</time></trkpt><trkpt lat="45.521480078885126" lon="11.058887088723436"><ele>406.0</ele><time>2026-04-08T10:55:59Z</time></trkpt><trkpt lat="45.521418184879714" lon="11.058925605533357"><ele>406.0</ele><time>2026-04-08T10:56:00Z</time></trkpt><trkpt lat="45.52133448237228" lon="11.05900230460836"><ele>406.0</ele><time>2026-04-08T10:56:02Z</time></trkpt><trkpt lat="45.521241552632546" lon="11.058987800962232"><ele>406.0</ele><time>2026-04-08T10:56:04Z</time></trkpt><trkpt lat="45.52117223346489" lon="11.059054607960976"><ele>403.33333333333337</ele><time>2026-04-08T10:56:06Z</time></trkpt><trkpt lat="45.52111385911068" lon="11.05914692249374"><ele>400.6666666666667</ele><time>2026-04-08T10:56:08Z</time></trkpt><trkpt lat="45.52102158140663" lon="11.059255438545671"><ele>398.0</ele><time>2026-04-08T10:56:10Z</time></trkpt><trkpt lat="45.52097952171478" lon="11.059325765122123"><ele>395.33333333333337</ele><time>2026-04-08T10:56:11Z</time></trkpt><trkpt lat="45.52092036247904" lon="11.059424341868903"><ele>392.6666666666667</ele><time>2026-04-08T10:56:13Z</time></trkpt><trkpt lat="45.520881660675414" lon="11.059519271952695"><ele>390.0</ele><time>2026-04-08T10:56:15Z</time></trkpt><trkpt lat="45.520818930145246" lon="11.059451481517065"><ele>390.0</ele><time>2026-04-08T10:56:22Z</time></trkpt><trkpt lat="45.52074152964315" lon="11.05945241824681"><ele>390.0</ele><time>2026-04-08T10:56:28Z</time></trkpt><trkpt lat="45.52069785461298" lon="11.05957570097082"><ele>390.0</ele><time>2026-04-08T10:56:30Z</time></trkpt><trkpt lat="45.52064913837895" lon="11.059707488603626"><ele>390.0</ele><time>2026-04-08T10:56:32Z</time></trkpt><trkpt lat="45.52058511055656" lon="11.059858003508765"><ele>390.0</ele><time>2026-04-08T10:56:35Z</time></trkpt><trkpt lat="45.520556116563945" lon="11.059945933634154"><ele>390.5</ele><time>2026-04-08T10:56:38Z</time></trkpt><trkpt lat="45.52053483406434" lon="11.060034463748588"><ele>391.0</ele><time>2026-04-08T10:56:40Z</time></trkpt><trkpt lat="45.52049627761577" lon="11.060143435207625"><ele>391.5</ele><time>2026-04-08T10:56:41Z</time></trkpt><trkpt lat="45.52044080312036" lon="11.06024452134328"><ele>392.0</ele><time>2026-04-08T10:56:42.999Z</time></trkpt><trkpt lat="45.52037982680682" lon="11.06034822435186"><ele>392.5</ele><time>2026-04-08T10:56:44.999Z</time></trkpt><trkpt lat="45.520321183766676" lon="11.06047017449853"><ele>393.0</ele><time>2026-04-08T10:56:46.999Z</time></trkpt><trkpt lat="45.52026088565509" lon="11.060584206740137"><ele>386.25</ele><time>2026-04-08T10:56:48.999Z</time></trkpt><trkpt lat="45.520110385733204" lon="11.060843225361005"><ele>379.5</ele><time>2026-04-08T10:56:49.999Z</time></trkpt><trkpt lat="45.52004989385602" lon="11.061007266073416"><ele>372.75</ele><time>2026-04-08T10:56:51.999Z</time></trkpt><trkpt lat="45.52000674674501" lon="11.061073483687684"><ele>366.0</ele><time>2026-04-08T10:56:52.999Z</time></trkpt><trkpt lat="45.51996276908144" lon="11.061207941838854"><ele>366.0</ele><time>2026-04-08T10:56:55.999Z</time></trkpt><trkpt lat="45.51991394486527" lon="11.061310118055841"><ele>366.0</ele><time>2026-04-08T10:56:57.999Z</time></trkpt><trkpt lat="45.51990443478558" lon="11.061407011000194"><ele>366.0</ele><time>2026-04-08T10:56:59.999Z</time></trkpt><trkpt lat="45.51983380790093" lon="11.061428518772109"><ele>366.0</ele><time>2026-04-08T10:57:03.999Z</time></trkpt><trkpt lat="45.519777046666846" lon="11.061546432488285"><ele>366.0</ele><time>2026-04-08T10:57:06.999Z</time></trkpt><trkpt lat="45.51974602474557" lon="11.061628902857702"><ele>366.0</ele><time>2026-04-08T10:57:09.999Z</time></trkpt><trkpt lat="45.51970254204293" lon="11.061707628405523"><ele>366.57142857142856</ele><time>2026-04-08T10:57:11.999Z</time></trkpt><trkpt lat="45.519675703005014" lon="11.061790682760405"><ele>367.14285714285717</ele><time>2026-04-08T10:57:18.999Z</time></trkpt><trkpt lat="45.51960938699374" lon="11.061839007717966"><ele>367.71428571428567</ele><time>2026-04-08T10:57:44.999Z</time></trkpt><trkpt lat="45.51957809157546" lon="11.061940147651745"><ele>368.2857142857143</ele><time>2026-04-08T10:57:56.999Z</time></trkpt><trkpt lat="45.5195159607252" lon="11.062000140327973"><ele>368.85714285714283</ele><time>2026-04-08T10:58:22Z</time></trkpt><trkpt lat="45.51945604248973" lon="11.06204387707876"><ele>369.4285714285714</ele><time>2026-04-08T10:58:43Z</time></trkpt><trkpt lat="45.51938612417301" lon="11.06210051799703"><ele>370.0</ele><time>2026-04-08T10:58:46Z</time></trkpt><trkpt lat="45.51933489994541" lon="11.062168634658214"><ele>366.0</ele><time>2026-04-08T10:58:49Z</time></trkpt><trkpt lat="45.519267614403866" lon="11.06219409683204"><ele>362.0</ele><time>2026-04-08T10:58:51Z</time></trkpt><trkpt lat="45.51920903800898" lon="11.062231312618454"><ele>358.0</ele><time>2026-04-08T10:58:53Z</time></trkpt><trkpt lat="45.519133517506596" lon="11.062302783613442"><ele>354.0</ele><time>2026-04-08T10:58:56Z</time></trkpt><trkpt lat="45.51904824121337" lon="11.062377493152152"><ele>350.0</ele><time>2026-04-08T10:58:58.999Z</time></trkpt><trkpt lat="45.5189852306792" lon="11.062425145451602"><ele>346.0</ele><time>2026-04-08T10:59:00.999Z</time></trkpt><trkpt lat="45.51890698500424" lon="11.062460694699512"><ele>346.0</ele><time>2026-04-08T10:59:03.999Z</time></trkpt><trkpt lat="45.51885507008834" lon="11.062533643579561"><ele>346.0</ele><time>2026-04-08T10:59:07.999Z</time></trkpt><trkpt lat="45.518780019834935" lon="11.062583556126686"><ele>346.0</ele><time>2026-04-08T10:59:12.999Z</time></trkpt><trkpt lat="45.51871783234314" lon="11.062656577385175"><ele>346.0</ele><time>2026-04-08T10:59:15.999Z</time></trkpt><trkpt lat="45.51866148817921" lon="11.06273589774478"><ele>346.0</ele><time>2026-04-08T10:59:18.999Z</time></trkpt><trkpt lat="45.51859675279715" lon="11.062778529124396"><ele>346.0</ele><time>2026-04-08T10:59:22.999Z</time></trkpt><trkpt lat="45.518529995150196" lon="11.062844891139406"><ele>341.1428571428571</ele><time>2026-04-08T10:59:25.999Z</time></trkpt><trkpt lat="45.51846881444077" lon="11.062889928307355"><ele>336.28571428571433</ele><time>2026-04-08T10:59:27.999Z</time></trkpt><trkpt lat="45.51840893299118" lon="11.062930929413804"><ele>331.42857142857144</ele><time>2026-04-08T10:59:29.999Z</time></trkpt><trkpt lat="45.51835035121466" lon="11.063039955180525"><ele>326.57142857142856</ele><time>2026-04-08T10:59:32.999Z</time></trkpt><trkpt lat="45.518299510407005" lon="11.063096124270773"><ele>321.71428571428567</ele><time>2026-04-08T10:59:34.999Z</time></trkpt><trkpt lat="45.51825308723823" lon="11.063184185905772"><ele>316.8571428571429</ele><time>2026-04-08T10:59:42.999Z</time></trkpt><trkpt lat="45.518186220849365" lon="11.063209218059749"><ele>312.0</ele><time>2026-04-08T10:59:46.999Z</time></trkpt><trkpt lat="45.518121040392174" lon="11.06326064815278"><ele>312.0</ele><time>2026-04-08T10:59:52.999Z</time></trkpt><trkpt lat="45.518050727693186" lon="11.063279191690095"><ele>312.0</ele><time>2026-04-08T11:00:01.999Z</time></trkpt><trkpt lat="45.51798909998855" lon="11.06331804383725"><ele>312.0</ele><time>2026-04-08T11:00:04.999Z</time></trkpt><trkpt lat="45.517923605925006" lon="11.063362568358137"><ele>312.0</ele><time>2026-04-08T11:00:08Z</time></trkpt><trkpt lat="45.517848594937426" lon="11.063405931955103"><ele>312.0</ele><time>2026-04-08T11:00:11Z</time></trkpt><trkpt lat="45.517769676919954" lon="11.063434223790923"><ele>312.0</ele><time>2026-04-08T11:00:16Z</time></trkpt><trkpt lat="45.51770832393657" lon="11.063496481499085"><ele>312.0</ele><time>2026-04-08T11:00:19Z</time></trkpt><trkpt lat="45.51762486012625" lon="11.063542364262313"><ele>307.3333333333333</ele><time>2026-04-08T11:00:22Z</time></trkpt><trkpt lat="45.51755806621145" lon="11.063588534957827"><ele>302.6666666666667</ele><time>2026-04-08T11:00:24Z</time></trkpt><trkpt lat="45.517480557300225" lon="11.063659709341577"><ele>298.0</ele><time>2026-04-08T11:00:28Z</time></trkpt><trkpt lat="45.51740148335369" lon="11.06373320719155"><ele>293.33333333333337</ele><time>2026-04-08T11:00:31Z</time></trkpt><trkpt lat="45.5173149125353" lon="11.063762138926512"><ele>288.6666666666667</ele><time>2026-04-08T11:00:33Z</time></trkpt><trkpt lat="45.5172559191153" lon="11.063816788569474"><ele>284.0</ele><time>2026-04-08T11:00:35Z</time></trkpt><trkpt lat="45.517173127757744" lon="11.063899627826324"><ele>284.0</ele><time>2026-04-08T11:00:37Z</time></trkpt><trkpt lat="45.517112677751086" lon="11.063956954528718"><ele>284.0</ele><time>2026-04-08T11:00:39Z</time></trkpt><trkpt lat="45.517035298938524" lon="11.063984497291235"><ele>284.0</ele><time>2026-04-08T11:00:51Z</time></trkpt><trkpt lat="45.5169655711237" lon="11.064036346328512"><ele>284.0</ele><time>2026-04-08T11:00:54Z</time></trkpt><trkpt lat="45.51689128818458" lon="11.064058869800858"><ele>284.0</ele><time>2026-04-08T11:00:57Z</time></trkpt><trkpt lat="45.51682333103574" lon="11.064056871719655"><ele>284.0</ele><time>2026-04-08T11:01:01.999Z</time></trkpt><trkpt lat="45.51676186891695" lon="11.064097233708509"><ele>284.0</ele><time>2026-04-08T11:01:06.999Z</time></trkpt><trkpt lat="45.51669536427495" lon="11.064152409507702"><ele>282.1428571428571</ele><time>2026-04-08T11:01:09.999Z</time></trkpt><trkpt lat="45.51664189888647" lon="11.06420215438525"><ele>280.2857142857143</ele><time>2026-04-08T11:01:12.999Z</time></trkpt><trkpt lat="45.516577513371786" lon="11.064220753977608"><ele>278.42857142857144</ele><time>2026-04-08T11:01:16.999Z</time></trkpt><trkpt lat="45.516509543884325" lon="11.06425005564542"><ele>276.57142857142856</ele><time>2026-04-08T11:01:21.999Z</time></trkpt><trkpt lat="45.51649915736962" lon="11.064158051438904"><ele>274.7142857142857</ele><time>2026-04-08T11:01:27.999Z</time></trkpt><trkpt lat="45.51649526066505" lon="11.064064008355396"><ele>272.85714285714283</ele><time>2026-04-08T11:01:33.999Z</time></trkpt><trkpt lat="45.51643312609385" lon="11.063990454274544"><ele>271.0</ele><time>2026-04-08T11:01:42.999Z</time></trkpt><trkpt lat="45.5163533518223" lon="11.064007273431846"><ele>271.0</ele><time>2026-04-08T11:01:45.999Z</time></trkpt><trkpt lat="45.51628463581535" lon="11.064046195819198"><ele>271.0</ele><time>2026-04-08T11:02:03.999Z</time></trkpt><trkpt lat="45.51621210760381" lon="11.06405262905806"><ele>271.0</ele><time>2026-04-08T11:02:06.999Z</time></trkpt><trkpt lat="45.51613611290429" lon="11.064076806144593"><ele>271.0</ele><time>2026-04-08T11:02:11.999Z</time></trkpt><trkpt lat="45.51610234641287" lon="11.064153079129193"><ele>271.0</ele><time>2026-04-08T11:02:14Z</time></trkpt><trkpt lat="45.51603752333161" lon="11.064159493538776"><ele>271.0</ele><time>2026-04-08T11:02:16Z</time></trkpt><trkpt lat="45.51597368569232" lon="11.064219296752547"><ele>271.0</ele><time>2026-04-08T11:02:22Z</time></trkpt><trkpt lat="45.51589894219923" lon="11.064210485705283"><ele>266.42857142857144</ele><time>2026-04-08T11:02:27Z</time></trkpt><trkpt lat="45.51583110056372" lon="11.064215177080865"><ele>261.8571428571429</ele><time>2026-04-08T11:02:31Z</time></trkpt><trkpt lat="45.51576894367031" lon="11.064266911768858"><ele>257.28571428571433</ele><time>2026-04-08T11:02:37Z</time></trkpt><trkpt lat="45.5156914963001" lon="11.064239640314646"><ele>252.71428571428572</ele><time>2026-04-08T11:02:41Z</time></trkpt><trkpt lat="45.515620449267594" lon="11.06424872732359"><ele>248.14285714285717</ele><time>2026-04-08T11:02:44Z</time></trkpt><trkpt lat="45.51555113942952" lon="11.064230441929249"><ele>243.5714285714286</ele><time>2026-04-08T11:02:47Z</time></trkpt><trkpt lat="45.515482616281865" lon="11.064260990884788"><ele>239.00000000000003</ele><time>2026-04-08T11:02:52Z</time></trkpt><trkpt lat="45.51541484466272" lon="11.064313399078634"><ele>236.33333333333334</ele><time>2026-04-08T11:02:57Z</time></trkpt><trkpt lat="45.515348881897786" lon="11.064321615511968"><ele>233.66666666666669</ele><time>2026-04-08T11:03:01Z</time></trkpt><trkpt lat="45.51530020755893" lon="11.06438909346979"><ele>231.0</ele><time>2026-04-08T11:03:04Z</time></trkpt><trkpt lat="45.51527999296504" lon="11.064504665838028"><ele>228.33333333333331</ele><time>2026-04-08T11:03:07Z</time></trkpt><trkpt lat="45.51522501147461" lon="11.064615221643363"><ele>225.66666666666666</ele><time>2026-04-08T11:04:01.999Z</time></trkpt><trkpt lat="45.5152031906623" lon="11.064744097402102"><ele>223.0</ele><time>2026-04-08T11:04:03.999Z</time></trkpt><trkpt lat="45.5152133643007" lon="11.06493782742249"><ele>221.33333333333331</ele><time>2026-04-08T11:04:05.999Z</time></trkpt><trkpt lat="45.51525572065308" lon="11.065131273909104"><ele>219.66666666666666</ele><time>2026-04-08T11:04:07.999Z</time></trkpt><trkpt lat="45.515269333474954" lon="11.065235510610705"><ele>218.0</ele><time>2026-04-08T11:04:08.999Z</time></trkpt><trkpt lat="45.51527558761816" lon="11.065346942463169"><ele>216.33333333333331</ele><time>2026-04-08T11:04:09.999Z</time></trkpt><trkpt lat="45.51526950998915" lon="11.065461516482367"><ele>214.66666666666666</ele><time>2026-04-08T11:04:10.999Z</time></trkpt><trkpt lat="45.51526830393011" lon="11.065561447044718"><ele>213.0</ele><time>2026-04-08T11:04:11.999Z</time></trkpt><trkpt lat="45.51526436153291" lon="11.065654944821258"><ele>213.4</ele><time>2026-04-08T11:04:12.999Z</time></trkpt><trkpt lat="45.515261716162584" lon="11.065780700173622"><ele>213.8</ele><time>2026-04-08T11:04:14.999Z</time></trkpt><trkpt lat="45.5153372627533" lon="11.06595881909321"><ele>214.2</ele><time>2026-04-08T11:04:16.999Z</time></trkpt><trkpt lat="45.51537662363356" lon="11.066074781231046"><ele>214.6</ele><time>2026-04-08T11:04:17.999Z</time></trkpt><trkpt lat="45.51542386285539" lon="11.066156099696554"><ele>215.0</ele><time>2026-04-08T11:04:19Z</time></trkpt><trkpt lat="45.51547013262441" lon="11.066219106464624"><ele>215.0</ele><time>2026-04-08T11:04:20Z</time></trkpt><trkpt lat="45.515565980898835" lon="11.066306823843785"><ele>215.0</ele><time>2026-04-08T11:04:22Z</time></trkpt><trkpt lat="45.51553609350523" lon="11.066447344960746"><ele>215.0</ele><time>2026-04-08T11:04:24Z</time></trkpt><trkpt lat="45.51548441806816" lon="11.066517603722522"><ele>215.0</ele><time>2026-04-08T11:04:25Z</time></trkpt><trkpt lat="45.515419358762486" lon="11.066565794811744"><ele>215.0</ele><time>2026-04-08T11:04:26Z</time></trkpt><trkpt lat="45.515310494733946" lon="11.066570477638749"><ele>212.66666666666669</ele><time>2026-04-08T11:04:28Z</time></trkpt><trkpt lat="45.515271702663505" lon="11.066497139105316"><ele>210.33333333333334</ele><time>2026-04-08T11:04:29Z</time></trkpt><trkpt lat="45.51521658719828" lon="11.066368157052791"><ele>208.0</ele><time>2026-04-08T11:04:31Z</time></trkpt><trkpt lat="45.515145216953314" lon="11.066327204316723"><ele>205.66666666666669</ele><time>2026-04-08T11:04:33Z</time></trkpt><trkpt lat="45.515067308873135" lon="11.066303561722558"><ele>203.33333333333334</ele><time>2026-04-08T11:04:35Z</time></trkpt><trkpt lat="45.515013160301585" lon="11.066358993744391"><ele>201.0</ele><time>2026-04-08T11:04:43Z</time></trkpt><trkpt lat="45.51501361692507" lon="11.066497971233623"><ele>197.5</ele><time>2026-04-08T11:05:08Z</time></trkpt><trkpt lat="45.51503573219148" lon="11.066646181465323"><ele>194.0</ele><time>2026-04-08T11:05:12Z</time></trkpt><trkpt lat="45.51500952164511" lon="11.066822550821595"><ele>190.5</ele><time>2026-04-08T11:07:17Z</time></trkpt><trkpt lat="45.51491591170939" lon="11.066853222254375"><ele>187.0</ele><time>2026-04-08T11:07:23Z</time></trkpt><trkpt lat="45.51478457351578" lon="11.066867096971054"><ele>187.0</ele><time>2026-04-08T11:07:25Z</time></trkpt><trkpt lat="45.51469218252365" lon="11.066902606909704"><ele>187.0</ele><time>2026-04-08T11:07:26Z</time></trkpt><trkpt lat="45.51458179263759" lon="11.066948605788742"><ele>187.0</ele><time>2026-04-08T11:07:27Z</time></trkpt><trkpt lat="45.51444970572806" lon="11.066985422580546"><ele>187.0</ele><time>2026-04-08T11:07:28Z</time></trkpt><trkpt lat="45.51430530554851" lon="11.067007870895388"><ele>184.75</ele><time>2026-04-08T11:07:29Z</time></trkpt><trkpt lat="45.51416771662992" lon="11.067028424740027"><ele>182.5</ele><time>2026-04-08T11:07:30Z</time></trkpt><trkpt lat="45.51404439270215" lon="11.067056010871022"><ele>180.25</ele><time>2026-04-08T11:07:31Z</time></trkpt><trkpt lat="45.51392411197036" lon="11.067087040394595"><ele>178.0</ele><time>2026-04-08T11:07:32Z</time></trkpt><trkpt lat="45.51379996329205" lon="11.06711467725913"><ele>177.0</ele><time>2026-04-08T11:07:33Z</time></trkpt><trkpt lat="45.51365650950064" lon="11.067140407332074"><ele>176.0</ele><time>2026-04-08T11:07:34Z</time></trkpt><trkpt lat="45.51351865540293" lon="11.067139428062111"><ele>175.0</ele><time>2026-04-08T11:07:35Z</time></trkpt><trkpt lat="45.51337724515867" lon="11.067117024525393"><ele>174.0</ele><time>2026-04-08T11:07:36Z</time></trkpt><trkpt lat="45.5132336358976" lon="11.067070274997105"><ele>174.0</ele><time>2026-04-08T11:07:37Z</time></trkpt><trkpt lat="45.51310115082013" lon="11.067004276163445"><ele>174.0</ele><time>2026-04-08T11:07:38Z</time></trkpt><trkpt lat="45.5129810513774" lon="11.066928706074146"><ele>174.0</ele><time>2026-04-08T11:07:39Z</time></trkpt><trkpt lat="45.51285804285637" lon="11.066830883501279"><ele>174.0</ele><time>2026-04-08T11:07:40Z</time></trkpt><trkpt lat="45.51273521542994" lon="11.06671465716173"><ele>175.0</ele><time>2026-04-08T11:07:41Z</time></trkpt><trkpt lat="45.512615595867665" lon="11.066581183240674"><ele>176.0</ele><time>2026-04-08T11:07:42Z</time></trkpt><trkpt lat="45.512493806556094" lon="11.066432685767923"><ele>177.0</ele><time>2026-04-08T11:07:43Z</time></trkpt><trkpt lat="45.51238458013727" lon="11.06628295073459"><ele>177.0</ele><time>2026-04-08T11:07:44Z</time></trkpt><trkpt lat="45.512293491350775" lon="11.066126160682531"><ele>177.0</ele><time>2026-04-08T11:07:45Z</time></trkpt><trkpt lat="45.51223615557061" lon="11.065945613433446"><ele>177.0</ele><time>2026-04-08T11:07:46Z</time></trkpt><trkpt lat="45.51219073282141" lon="11.065754239026818"><ele>177.0</ele><time>2026-04-08T11:07:47Z</time></trkpt><trkpt lat="45.51214821534846" lon="11.065583582785832"><ele>180.0</ele><time>2026-04-08T11:07:48Z</time></trkpt><trkpt lat="45.512064689895645" lon="11.065455102990825"><ele>183.0</ele><time>2026-04-08T11:07:49Z</time></trkpt><trkpt lat="45.511968730783195" lon="11.065370590043182"><ele>186.0</ele><time>2026-04-08T11:07:50Z</time></trkpt><trkpt lat="45.51186039358984" lon="11.065334531404106"><ele>189.0</ele><time>2026-04-08T11:07:51Z</time></trkpt><trkpt lat="45.51172858035998" lon="11.065328654459199"><ele>189.0</ele><time>2026-04-08T11:07:52Z</time></trkpt><trkpt lat="45.51157432685798" lon="11.065334599856858"><ele>189.0</ele><time>2026-04-08T11:07:53Z</time></trkpt><trkpt lat="45.511408375827244" lon="11.06533189509155"><ele>189.0</ele><time>2026-04-08T11:07:53.999Z</time></trkpt><trkpt lat="45.51125046619161" lon="11.065319516705973"><ele>186.5</ele><time>2026-04-08T11:07:54.999Z</time></trkpt><trkpt lat="45.511112203391214" lon="11.065313858517875"><ele>184.0</ele><time>2026-04-08T11:07:55.999Z</time></trkpt><trkpt lat="45.510981963464715" lon="11.065308992016188"><ele>181.5</ele><time>2026-04-08T11:07:56.999Z</time></trkpt><trkpt lat="45.510860165368356" lon="11.06530043756093"><ele>179.0</ele><time>2026-04-08T11:07:57.999Z</time></trkpt><trkpt lat="45.51074002511247" lon="11.065294517824437"><ele>179.0</ele><time>2026-04-08T11:07:58.999Z</time></trkpt><trkpt lat="45.51062115005764" lon="11.065277483535121"><ele>179.0</ele><time>2026-04-08T11:07:59.999Z</time></trkpt><trkpt lat="45.5104962645981" lon="11.065237780311577"><ele>179.0</ele><time>2026-04-08T11:08:00.999Z</time></trkpt><trkpt lat="45.510368339035544" lon="11.065178310617393"><ele>179.0</ele><time>2026-04-08T11:08:01.999Z</time></trkpt><trkpt lat="45.510242056312265" lon="11.065085144287947"><ele>177.0</ele><time>2026-04-08T11:08:02.999Z</time></trkpt><trkpt lat="45.5101051892198" lon="11.0649798966133"><ele>175.0</ele><time>2026-04-08T11:08:03.999Z</time></trkpt><trkpt lat="45.50996555835943" lon="11.06488812133493"><ele>173.0</ele><time>2026-04-08T11:08:04.999Z</time></trkpt><trkpt lat="45.50982236942804" lon="11.064796918243752"><ele>175.66666666666666</ele><time>2026-04-08T11:08:05.999Z</time></trkpt><trkpt lat="45.509656423568785" lon="11.064729333941651"><ele>178.33333333333334</ele><time>2026-04-08T11:08:06.999Z</time></trkpt><trkpt lat="45.50949770190002" lon="11.064660296529553"><ele>181.0</ele><time>2026-04-08T11:08:07.999Z</time></trkpt><trkpt lat="45.5093464394983" lon="11.064613160571264"><ele>181.0</ele><time>2026-04-08T11:08:08.999Z</time></trkpt><trkpt lat="45.509194703899105" lon="11.064583545008977"><ele>181.0</ele><time>2026-04-08T11:08:09.999Z</time></trkpt><trkpt lat="45.509046814451764" lon="11.064557100653122"><ele>181.0</ele><time>2026-04-08T11:08:10.999Z</time></trkpt><trkpt lat="45.50888906235873" lon="11.064526720280153"><ele>181.0</ele><time>2026-04-08T11:08:11.999Z</time></trkpt><trkpt lat="45.50875266219283" lon="11.064502866242668"><ele>181.0</ele><time>2026-04-08T11:08:12.999Z</time></trkpt><trkpt lat="45.50861728371368" lon="11.064480827189445"><ele>181.0</ele><time>2026-04-08T11:08:13.999Z</time></trkpt><trkpt lat="45.50848748908036" lon="11.064413470011573"><ele>181.0</ele><time>2026-04-08T11:08:14.999Z</time></trkpt><trkpt lat="45.508355866897375" lon="11.064358985144185"><ele>178.0</ele><time>2026-04-08T11:08:15.999Z</time></trkpt><trkpt lat="45.50822477596153" lon="11.064285506569043"><ele>175.0</ele><time>2026-04-08T11:08:16.999Z</time></trkpt><trkpt lat="45.508086485793214" lon="11.06420168084534"><ele>172.0</ele><time>2026-04-08T11:08:17.999Z</time></trkpt><trkpt lat="45.50794854414065" lon="11.064106132518472"><ele>169.0</ele><time>2026-04-08T11:08:18.999Z</time></trkpt><trkpt lat="45.50782042149287" lon="11.064015152287293"><ele>169.0</ele><time>2026-04-08T11:08:19.999Z</time></trkpt><trkpt lat="45.50768872032912" lon="11.063922169583243"><ele>169.0</ele><time>2026-04-08T11:08:20.999Z</time></trkpt><trkpt lat="45.50756188084509" lon="11.063824733968213"><ele>169.0</ele><time>2026-04-08T11:08:21.999Z</time></trkpt><trkpt lat="45.507441478025925" lon="11.063734929809954"><ele>169.0</ele><time>2026-04-08T11:08:22.999Z</time></trkpt><trkpt lat="45.5073180381776" lon="11.063667633867992"><ele>169.0</ele><time>2026-04-08T11:08:23.999Z</time></trkpt><trkpt lat="45.50719599673126" lon="11.063618504966904"><ele>169.0</ele><time>2026-04-08T11:08:24.999Z</time></trkpt><trkpt lat="45.507075589999396" lon="11.06357102953885"><ele>169.0</ele><time>2026-04-08T11:08:25.999Z</time></trkpt><trkpt lat="45.506941202608154" lon="11.063517709802602"><ele>169.0</ele><time>2026-04-08T11:08:26.999Z</time></trkpt><trkpt lat="45.50680391184955" lon="11.063449558600471"><ele>170.33333333333334</ele><time>2026-04-08T11:08:27.999Z</time></trkpt><trkpt lat="45.50666159584388" lon="11.063362809624302"><ele>171.66666666666666</ele><time>2026-04-08T11:08:28.999Z</time></trkpt><trkpt lat="45.50652305094087" lon="11.063275214826218"><ele>173.0</ele><time>2026-04-08T11:08:29.999Z</time></trkpt><trkpt lat="45.50638015933291" lon="11.063189227853305"><ele>168.0</ele><time>2026-04-08T11:08:31Z</time></trkpt><trkpt lat="45.506238763879466" lon="11.063109499472194"><ele>163.0</ele><time>2026-04-08T11:08:32Z</time></trkpt><trkpt lat="45.50610222621005" lon="11.063032775921027"><ele>158.0</ele><time>2026-04-08T11:08:33Z</time></trkpt><trkpt lat="45.505964449443205" lon="11.062952550792653"><ele>153.0</ele><time>2026-04-08T11:08:34Z</time></trkpt><trkpt lat="45.505831779806726" lon="11.062872763903034"><ele>153.0</ele><time>2026-04-08T11:08:35Z</time></trkpt><trkpt lat="45.505693412744456" lon="11.062786444850255"><ele>153.0</ele><time>2026-04-08T11:08:36Z</time></trkpt><trkpt lat="45.50555682760219" lon="11.062703425868413"><ele>153.0</ele><time>2026-04-08T11:08:37Z</time></trkpt><trkpt lat="45.50541291440133" lon="11.062626271393029"><ele>151.66666666666666</ele><time>2026-04-08T11:08:38Z</time></trkpt><trkpt lat="45.50526482913098" lon="11.06255415528305"><ele>150.33333333333331</ele><time>2026-04-08T11:08:39Z</time></trkpt><trkpt lat="45.505116648275894" lon="11.062481821778219"><ele>149.0</ele><time>2026-04-08T11:08:40Z</time></trkpt><trkpt lat="45.504967297188216" lon="11.062410071361196"><ele>149.0</ele><time>2026-04-08T11:08:41Z</time></trkpt><trkpt lat="45.504817722661166" lon="11.062336543547223"><ele>149.0</ele><time>2026-04-08T11:08:42Z</time></trkpt><trkpt lat="45.5046630055038" lon="11.062251636396722"><ele>149.0</ele><time>2026-04-08T11:08:43Z</time></trkpt><trkpt lat="45.50450634701836" lon="11.062175218389116"><ele>147.66666666666666</ele><time>2026-04-08T11:08:44Z</time></trkpt><trkpt lat="45.504351642398774" lon="11.06211586586964"><ele>146.33333333333334</ele><time>2026-04-08T11:08:45Z</time></trkpt><trkpt lat="45.50418756669187" lon="11.062055651339623"><ele>145.0</ele><time>2026-04-08T11:08:46Z</time></trkpt><trkpt lat="45.504040598439396" lon="11.062000355738723"><ele>145.0</ele><time>2026-04-08T11:08:47Z</time></trkpt><trkpt lat="45.50390241443718" lon="11.061944871981225"><ele>145.0</ele><time>2026-04-08T11:08:48Z</time></trkpt><trkpt lat="45.503771854975575" lon="11.06188830325828"><ele>145.0</ele><time>2026-04-08T11:08:49Z</time></trkpt><trkpt lat="45.50364904422653" lon="11.061835884188351"><ele>145.0</ele><time>2026-04-08T11:08:50Z</time></trkpt><trkpt lat="45.503510746751324" lon="11.06177277445954"><ele>145.0</ele><time>2026-04-08T11:08:51Z</time></trkpt><trkpt lat="45.50335737743334" lon="11.061705619965895"><ele>145.0</ele><time>2026-04-08T11:08:52Z</time></trkpt><trkpt lat="45.503210226346894" lon="11.061647150839693"><ele>145.0</ele><time>2026-04-08T11:08:53Z</time></trkpt><trkpt lat="45.503083683372594" lon="11.061596482013625"><ele>145.0</ele><time>2026-04-08T11:08:54Z</time></trkpt><trkpt lat="45.5029753330598" lon="11.061543024450335"><ele>144.33333333333334</ele><time>2026-04-08T11:08:55Z</time></trkpt><trkpt lat="45.50289858616161" lon="11.061481412318718"><ele>143.66666666666669</ele><time>2026-04-08T11:08:56Z</time></trkpt><trkpt lat="45.502857998789906" lon="11.061401884795247"><ele>143.0</ele><time>2026-04-08T11:08:57Z</time></trkpt><trkpt lat="45.50284357392911" lon="11.061295556977845"><ele>142.33333333333334</ele><time>2026-04-08T11:08:58Z</time></trkpt><trkpt lat="45.50285397933409" lon="11.061159176644134"><ele>141.66666666666666</ele><time>2026-04-08T11:08:59Z</time></trkpt><trkpt lat="45.50286303355887" lon="11.06099992743143"><ele>141.0</ele><time>2026-04-08T11:09:00Z</time></trkpt><trkpt lat="45.50285700440039" lon="11.060828902368812"><ele>141.6</ele><time>2026-04-08T11:09:01Z</time></trkpt><trkpt lat="45.50282627818256" lon="11.06069048070532"><ele>142.2</ele><time>2026-04-08T11:09:02Z</time></trkpt><trkpt lat="45.502764035583986" lon="11.060585036897246"><ele>142.8</ele><time>2026-04-08T11:09:03Z</time></trkpt><trkpt lat="45.50267773287094" lon="11.060492776236227"><ele>143.4</ele><time>2026-04-08T11:09:04Z</time></trkpt><trkpt lat="45.50255382446012" lon="11.060423094213675"><ele>144.0</ele><time>2026-04-08T11:09:05Z</time></trkpt><trkpt lat="45.50241401593207" lon="11.060354487509615"><ele>144.0</ele><time>2026-04-08T11:09:06Z</time></trkpt><trkpt lat="45.50225916193963" lon="11.060276389467646"><ele>144.0</ele><time>2026-04-08T11:09:07Z</time></trkpt><trkpt lat="45.50210813168792" lon="11.06020336840568"><ele>144.0</ele><time>2026-04-08T11:09:08Z</time></trkpt><trkpt lat="45.50197329735283" lon="11.060137617599153"><ele>144.0</ele><time>2026-04-08T11:09:09Z</time></trkpt><trkpt lat="45.50183247479909" lon="11.060081850226021"><ele>144.0</ele><time>2026-04-08T11:09:10Z</time></trkpt><trkpt lat="45.50169797453694" lon="11.060029446377587"><ele>144.0</ele><time>2026-04-08T11:09:11Z</time></trkpt><trkpt lat="45.5015694865685" lon="11.059973374268367"><ele>144.0</ele><time>2026-04-08T11:09:12Z</time></trkpt><trkpt lat="45.50144831163292" lon="11.059917279487957"><ele>144.0</ele><time>2026-04-08T11:09:13Z</time></trkpt><trkpt lat="45.501321067888156" lon="11.059863011886213"><ele>144.0</ele><time>2026-04-08T11:09:14Z</time></trkpt><trkpt lat="45.50118901442297" lon="11.059810450239578"><ele>144.0</ele><time>2026-04-08T11:09:15Z</time></trkpt><trkpt lat="45.501049735798354" lon="11.059760295395858"><ele>144.0</ele><time>2026-04-08T11:09:16Z</time></trkpt><trkpt lat="45.50091611203501" lon="11.059718404525597"><ele>142.0</ele><time>2026-04-08T11:09:17Z</time></trkpt><trkpt lat="45.50077138870011" lon="11.059691047769512"><ele>140.0</ele><time>2026-04-08T11:09:18Z</time></trkpt><trkpt lat="45.500624986532145" lon="11.059677498738852"><ele>138.0</ele><time>2026-04-08T11:09:19Z</time></trkpt><trkpt lat="45.50046910263824" lon="11.059652952364424"><ele>136.75</ele><time>2026-04-08T11:09:20Z</time></trkpt><trkpt lat="45.50032494907559" lon="11.05963170014828"><ele>135.5</ele><time>2026-04-08T11:09:21Z</time></trkpt><trkpt lat="45.500174779015865" lon="11.05960430030156"><ele>134.25</ele><time>2026-04-08T11:09:22Z</time></trkpt><trkpt lat="45.500029780399416" lon="11.059577056322645"><ele>133.0</ele><time>2026-04-08T11:09:23Z</time></trkpt><trkpt lat="45.49988681360422" lon="11.059560053663809"><ele>133.0</ele><time>2026-04-08T11:09:24Z</time></trkpt><trkpt lat="45.49974195030423" lon="11.059550276205007"><ele>133.0</ele><time>2026-04-08T11:09:25Z</time></trkpt><trkpt lat="45.49959269869521" lon="11.059537582662053"><ele>133.0</ele><time>2026-04-08T11:09:26Z</time></trkpt><trkpt lat="45.49943887618447" lon="11.059517147264291"><ele>133.0</ele><time>2026-04-08T11:09:27Z</time></trkpt><trkpt lat="45.49928360042845" lon="11.059498514003415"><ele>133.33333333333334</ele><time>2026-04-08T11:09:28Z</time></trkpt><trkpt lat="45.49914223909659" lon="11.059419838370047"><ele>133.66666666666666</ele><time>2026-04-08T11:09:29Z</time></trkpt><trkpt lat="45.49899075434895" lon="11.059402334249882"><ele>134.0</ele><time>2026-04-08T11:09:30Z</time></trkpt><trkpt lat="45.49884113060724" lon="11.059385045150018"><ele>133.25</ele><time>2026-04-08T11:09:31Z</time></trkpt><trkpt lat="45.49869435800326" lon="11.059368588376984"><ele>132.5</ele><time>2026-04-08T11:09:32Z</time></trkpt><trkpt lat="45.49854630591184" lon="11.059351357450401"><ele>131.75</ele><time>2026-04-08T11:09:33Z</time></trkpt><trkpt lat="45.49840630488745" lon="11.05933288062396"><ele>131.0</ele><time>2026-04-08T11:09:34Z</time></trkpt><trkpt lat="45.49826080355603" lon="11.059312944126352"><ele>131.0</ele><time>2026-04-08T11:09:35Z</time></trkpt><trkpt lat="45.498118945014795" lon="11.059292221053688"><ele>131.0</ele><time>2026-04-08T11:09:36Z</time></trkpt><trkpt lat="45.49797645154007" lon="11.059271405217933"><ele>131.0</ele><time>2026-04-08T11:09:37Z</time></trkpt><trkpt lat="45.497832027799895" lon="11.05925490841759"><ele>131.0</ele><time>2026-04-08T11:09:38Z</time></trkpt><trkpt lat="45.49768271821242" lon="11.059239174239098"><ele>130.0</ele><time>2026-04-08T11:09:39Z</time></trkpt><trkpt lat="45.49753516371316" lon="11.059223695651566"><ele>129.0</ele><time>2026-04-08T11:09:40Z</time></trkpt><trkpt lat="45.49740344705175" lon="11.059213700129261"><ele>128.0</ele><time>2026-04-08T11:09:41Z</time></trkpt><trkpt lat="45.4972682585841" lon="11.059207270696165"><ele>127.0</ele><time>2026-04-08T11:09:42Z</time></trkpt><trkpt lat="45.49713318061199" lon="11.059216960773522"><ele>126.75</ele><time>2026-04-08T11:09:43Z</time></trkpt><trkpt lat="45.49701304984683" lon="11.059218238064354"><ele>126.5</ele><time>2026-04-08T11:09:44Z</time></trkpt><trkpt lat="45.496904247777906" lon="11.059197854864713"><ele>126.25</ele><time>2026-04-08T11:09:45Z</time></trkpt><trkpt lat="45.4968166707291" lon="11.05912852422799"><ele>126.0</ele><time>2026-04-08T11:09:46Z</time></trkpt><trkpt lat="45.49671046367068" lon="11.05904423444354"><ele>126.25</ele><time>2026-04-08T11:09:47Z</time></trkpt><trkpt lat="45.49658579859746" lon="11.058978850527478"><ele>126.5</ele><time>2026-04-08T11:09:48Z</time></trkpt><trkpt lat="45.496433169751256" lon="11.05898295350444"><ele>126.75</ele><time>2026-04-08T11:09:49Z</time></trkpt><trkpt lat="45.49627315494793" lon="11.058981119141889"><ele>127.0</ele><time>2026-04-08T11:09:50Z</time></trkpt><trkpt lat="45.49611096533752" lon="11.059050623801694"><ele>125.75</ele><time>2026-04-08T11:09:51Z</time></trkpt><trkpt lat="45.4959631373772" lon="11.059123440931772"><ele>124.5</ele><time>2026-04-08T11:09:52Z</time></trkpt><trkpt lat="45.495822405665564" lon="11.059167739185128"><ele>123.25</ele><time>2026-04-08T11:09:53Z</time></trkpt><trkpt lat="45.495679080453606" lon="11.059208046637963"><ele>122.0</ele><time>2026-04-08T11:09:54Z</time></trkpt><trkpt lat="45.49553157945913" lon="11.059224848869544"><ele>121.75</ele><time>2026-04-08T11:09:55Z</time></trkpt><trkpt lat="45.49537904869818" lon="11.059234131871051"><ele>121.5</ele><time>2026-04-08T11:09:56Z</time></trkpt><trkpt lat="45.495233059638274" lon="11.05924285891848"><ele>121.25</ele><time>2026-04-08T11:09:57Z</time></trkpt><trkpt lat="45.49509240971635" lon="11.059251582065109"><ele>121.0</ele><time>2026-04-08T11:09:58Z</time></trkpt><trkpt lat="45.49495053593795" lon="11.059264487625606"><ele>121.0</ele><time>2026-04-08T11:09:59Z</time></trkpt><trkpt lat="45.494817232859795" lon="11.059276417629825"><ele>121.0</ele><time>2026-04-08T11:10:00Z</time></trkpt><trkpt lat="45.49470305323821" lon="11.059283024015322"><ele>121.0</ele><time>2026-04-08T11:10:01Z</time></trkpt><trkpt lat="45.49460963930606" lon="11.05929053170439"><ele>121.0</ele><time>2026-04-08T11:10:02Z</time></trkpt><trkpt lat="45.49453751978719" lon="11.059298279358723"><ele>121.0</ele><time>2026-04-08T11:10:03Z</time></trkpt><trkpt lat="45.49445377711423" lon="11.059377097141121"><ele>121.0</ele><time>2026-04-08T11:10:05Z</time></trkpt><trkpt lat="45.49456198627241" lon="11.059528871338577"><ele>121.0</ele><time>2026-04-08T11:10:08Z</time></trkpt><trkpt lat="45.49466560934554" lon="11.05952507555575"><ele>121.0</ele><time>2026-04-08T11:10:09Z</time></trkpt><trkpt lat="45.494762450775205" lon="11.059625858510127"><ele>121.0</ele><time>2026-04-08T11:10:10.999Z</time></trkpt><trkpt lat="45.494765739916666" lon="11.059807171946261"><ele>121.00000000000001</ele><time>2026-04-08T11:10:12.999Z</time></trkpt><trkpt lat="45.494767358075535" lon="11.059907224303206"><ele>121.0</ele><time>2026-04-08T11:10:13.999Z</time></trkpt><trkpt lat="45.49476870172462" lon="11.060005601218087"><ele>121.0</ele><time>2026-04-08T11:10:14.999Z</time></trkpt><trkpt lat="45.49477020115906" lon="11.060115383606199"><ele>121.0</ele><time>2026-04-08T11:10:15.999Z</time></trkpt><trkpt lat="45.494859133513955" lon="11.060227146253428"><ele>121.00000000000001</ele><time>2026-04-08T11:10:16.999Z</time></trkpt><trkpt lat="45.494894693091474" lon="11.060347937424211"><ele>121.0</ele><time>2026-04-08T11:10:17.999Z</time></trkpt><trkpt lat="45.49490700723285" lon="11.060444214577446"><ele>121.4</ele><time>2026-04-08T11:10:18.999Z</time></trkpt><trkpt lat="45.49483297980172" lon="11.060526022983813"><ele>121.8</ele><time>2026-04-08T11:10:20.999Z</time></trkpt><trkpt lat="45.49477519277598" lon="11.06065649195585"><ele>122.20000000000002</ele><time>2026-04-08T11:10:22.999Z</time></trkpt><trkpt lat="45.49474672250324" lon="11.060775620112482"><ele>122.60000000000001</ele><time>2026-04-08T11:10:23.999Z</time></trkpt><trkpt lat="45.494714838854485" lon="11.060900569648924"><ele>123.0</ele><time>2026-04-08T11:10:24.999Z</time></trkpt><trkpt lat="45.49468682769905" lon="11.061038033986524"><ele>123.33333333333333</ele><time>2026-04-08T11:10:25.999Z</time></trkpt><trkpt lat="45.49468009678962" lon="11.061157965127101"><ele>123.66666666666666</ele><time>2026-04-08T11:10:26.999Z</time></trkpt><trkpt lat="45.49471224053075" lon="11.061269681906616"><ele>124.0</ele><time>2026-04-08T11:10:27.999Z</time></trkpt><trkpt lat="45.49472357086783" lon="11.061372071282056"><ele>124.33333333333333</ele><time>2026-04-08T11:10:28.999Z</time></trkpt><trkpt lat="45.49476381156013" lon="11.061482592547948"><ele>124.66666666666666</ele><time>2026-04-08T11:10:29.999Z</time></trkpt><trkpt lat="45.49479824376788" lon="11.061592176371159"><ele>125.0</ele><time>2026-04-08T11:10:30.999Z</time></trkpt><trkpt lat="45.49483890063095" lon="11.061702442215267"><ele>125.8</ele><time>2026-04-08T11:10:31.999Z</time></trkpt><trkpt lat="45.49488099224187" lon="11.061821299976156"><ele>126.6</ele><time>2026-04-08T11:10:32.999Z</time></trkpt><trkpt lat="45.49490617541993" lon="11.061940136043061"><ele>127.4</ele><time>2026-04-08T11:10:33.999Z</time></trkpt><trkpt lat="45.4949279741114" lon="11.062081554739692"><ele>128.2</ele><time>2026-04-08T11:10:35.999Z</time></trkpt><trkpt lat="45.49498461828958" lon="11.062149457145612"><ele>129.0</ele><time>2026-04-08T11:10:37Z</time></trkpt><trkpt lat="45.49515404589404" lon="11.062234759782067"><ele>129.0</ele><time>2026-04-08T11:10:39Z</time></trkpt><trkpt lat="45.49521576545706" lon="11.062317725590713"><ele>129.0</ele><time>2026-04-08T11:10:40Z</time></trkpt><trkpt lat="45.495274900773715" lon="11.062405631571767"><ele>129.0</ele><time>2026-04-08T11:10:41Z</time></trkpt><trkpt lat="45.49532014919966" lon="11.062470813923978"><ele>129.0</ele><time>2026-04-08T11:10:42Z</time></trkpt><trkpt lat="45.495434480693255" lon="11.062624310653026"><ele>129.0</ele><time>2026-04-08T11:10:44Z</time></trkpt><trkpt lat="45.49548579038852" lon="11.062717194083067"><ele>129.66666666666666</ele><time>2026-04-08T11:10:45Z</time></trkpt><trkpt lat="45.49553034821703" lon="11.062796801049245"><ele>130.33333333333334</ele><time>2026-04-08T11:10:46Z</time></trkpt><trkpt lat="45.49559002609298" lon="11.062882350870598"><ele>131.0</ele><time>2026-04-08T11:10:47Z</time></trkpt><trkpt lat="45.495630610811794" lon="11.062958000096181"><ele>131.66666666666669</ele><time>2026-04-08T11:10:48Z</time></trkpt><trkpt lat="45.495706755371145" lon="11.063136167380163"><ele>132.33333333333334</ele><time>2026-04-08T11:10:50Z</time></trkpt><trkpt lat="45.49574881165388" lon="11.063232808213534"><ele>133.0</ele><time>2026-04-08T11:10:51Z</time></trkpt><trkpt lat="45.495799355224165" lon="11.063320207372668"><ele>137.20000000000002</ele><time>2026-04-08T11:10:52Z</time></trkpt><trkpt lat="45.495853010851334" lon="11.063431626223158"><ele>141.4</ele><time>2026-04-08T11:10:54Z</time></trkpt><trkpt lat="45.49592888711902" lon="11.063433423319816"><ele>145.60000000000002</ele><time>2026-04-08T11:10:56Z</time></trkpt><trkpt lat="45.49604962250114" lon="11.06341390662686"><ele>149.8</ele><time>2026-04-08T11:10:58Z</time></trkpt><trkpt lat="45.496147365933005" lon="11.063414765595308"><ele>154.0</ele><time>2026-04-08T11:11:00Z</time></trkpt><trkpt lat="45.49624289367107" lon="11.063401235781244"><ele>155.33333333333334</ele><time>2026-04-08T11:11:03Z</time></trkpt><trkpt lat="45.4963366764987" lon="11.063416665365546"><ele>156.66666666666669</ele><time>2026-04-08T11:11:05Z</time></trkpt><trkpt lat="45.496417884015194" lon="11.063454996048582"><ele>158.0</ele><time>2026-04-08T11:11:09Z</time></trkpt><trkpt lat="45.496502101376535" lon="11.06346214510861"><ele>159.33333333333334</ele><time>2026-04-08T11:11:18Z</time></trkpt><trkpt lat="45.49657862702521" lon="11.063482814941606"><ele>160.66666666666666</ele><time>2026-04-08T11:11:23Z</time></trkpt><trkpt lat="45.49667842810919" lon="11.063508337264835"><ele>162.0</ele><time>2026-04-08T11:11:28Z</time></trkpt><trkpt lat="45.496785863566245" lon="11.063525225507536"><ele>162.0</ele><time>2026-04-08T11:11:30Z</time></trkpt><trkpt lat="45.49686685230903" lon="11.063533029430783"><ele>162.0</ele><time>2026-04-08T11:11:32Z</time></trkpt><trkpt lat="45.496950975235926" lon="11.063557342741039"><ele>162.0</ele><time>2026-04-08T11:11:34Z</time></trkpt><trkpt lat="45.49703941914478" lon="11.063590047122116"><ele>162.0</ele><time>2026-04-08T11:11:36Z</time></trkpt><trkpt lat="45.497126381847146" lon="11.063614683627835"><ele>162.0</ele><time>2026-04-08T11:11:38Z</time></trkpt><trkpt lat="45.49722727332062" lon="11.063622645041981"><ele>162.0</ele><time>2026-04-08T11:11:40Z</time></trkpt><trkpt lat="45.497292285502645" lon="11.063619655310701"><ele>165.0</ele><time>2026-04-08T11:11:41Z</time></trkpt><trkpt lat="45.497384653784835" lon="11.063660022636222"><ele>168.0</ele><time>2026-04-08T11:11:43Z</time></trkpt><trkpt lat="45.49745547091031" lon="11.063681473955945"><ele>171.0</ele><time>2026-04-08T11:11:45Z</time></trkpt><trkpt lat="45.497569669368644" lon="11.063704668874427"><ele>174.0</ele><time>2026-04-08T11:11:47Z</time></trkpt><trkpt lat="45.49768008235142" lon="11.063734958493109"><ele>177.0</ele><time>2026-04-08T11:11:49Z</time></trkpt><trkpt lat="45.497779806925045" lon="11.063802869174385"><ele>177.0</ele><time>2026-04-08T11:11:51Z</time></trkpt><trkpt lat="45.497882942336474" lon="11.06383777022209"><ele>177.0</ele><time>2026-04-08T11:11:53Z</time></trkpt><trkpt lat="45.49799578389401" lon="11.063889027252053"><ele>177.0</ele><time>2026-04-08T11:11:55Z</time></trkpt><trkpt lat="45.49806188226085" lon="11.063918414396706"><ele>177.0</ele><time>2026-04-08T11:11:56Z</time></trkpt><trkpt lat="45.49816864517015" lon="11.0639282660928"><ele>177.0</ele><time>2026-04-08T11:11:58Z</time></trkpt><trkpt lat="45.498233184164896" lon="11.063963769585843"><ele>177.83333333333334</ele><time>2026-04-08T11:11:59Z</time></trkpt><trkpt lat="45.49830735615439" lon="11.063971269291237"><ele>178.66666666666666</ele><time>2026-04-08T11:12:00Z</time></trkpt><trkpt lat="45.49841678494747" lon="11.064018701554872"><ele>179.5</ele><time>2026-04-08T11:12:01.999Z</time></trkpt><trkpt lat="45.49847164253969" lon="11.064064110593577"><ele>180.33333333333331</ele><time>2026-04-08T11:12:02.999Z</time></trkpt><trkpt lat="45.49855801479193" lon="11.064120589494003"><ele>181.16666666666666</ele><time>2026-04-08T11:12:04.999Z</time></trkpt><trkpt lat="45.49864624509619" lon="11.064131684300767"><ele>182.0</ele><time>2026-04-08T11:12:06.999Z</time></trkpt><trkpt lat="45.49873652943821" lon="11.064089988388021"><ele>184.66666666666666</ele><time>2026-04-08T11:12:10.999Z</time></trkpt><trkpt lat="45.498805810557116" lon="11.064027959318695"><ele>187.33333333333331</ele><time>2026-04-08T11:12:12.999Z</time></trkpt><trkpt lat="45.498867776032924" lon="11.06400653389546"><ele>190.0</ele><time>2026-04-08T11:12:23.999Z</time></trkpt><trkpt lat="45.49895476497976" lon="11.064010310193646"><ele>192.66666666666666</ele><time>2026-04-08T11:12:26.999Z</time></trkpt><trkpt lat="45.499046192471255" lon="11.064027609158437"><ele>195.33333333333334</ele><time>2026-04-08T11:12:28.999Z</time></trkpt><trkpt lat="45.49913155940473" lon="11.063989904861392"><ele>198.0</ele><time>2026-04-08T11:12:32.999Z</time></trkpt><trkpt lat="45.499216177328414" lon="11.064042922153766"><ele>202.57142857142858</ele><time>2026-04-08T11:12:34.999Z</time></trkpt><trkpt lat="45.499246009897625" lon="11.064126595152585"><ele>207.1428571428571</ele><time>2026-04-08T11:12:38.999Z</time></trkpt><trkpt lat="45.499316824736475" lon="11.064163075692804"><ele>211.7142857142857</ele><time>2026-04-08T11:12:40.999Z</time></trkpt><trkpt lat="45.49936772156534" lon="11.064231586254015"><ele>216.28571428571428</ele><time>2026-04-08T11:12:43Z</time></trkpt><trkpt lat="45.499401704215714" lon="11.064336079150651"><ele>220.85714285714283</ele><time>2026-04-08T11:12:45Z</time></trkpt><trkpt lat="45.49946413501576" lon="11.064347763302909"><ele>225.4285714285714</ele><time>2026-04-08T11:12:47Z</time></trkpt><trkpt lat="45.49953340308057" lon="11.064351017901211"><ele>229.99999999999997</ele><time>2026-04-08T11:12:49Z</time></trkpt><trkpt lat="45.499595131562316" lon="11.064368819324171"><ele>232.33333333333334</ele><time>2026-04-08T11:12:52Z</time></trkpt><trkpt lat="45.49967245319453" lon="11.064367136873168"><ele>234.66666666666669</ele><time>2026-04-08T11:12:54Z</time></trkpt><trkpt lat="45.49969003753245" lon="11.064469497735107"><ele>237.0</ele><time>2026-04-08T11:12:58Z</time></trkpt><trkpt lat="45.499742517635035" lon="11.064556573279496"><ele>239.33333333333331</ele><time>2026-04-08T11:13:01Z</time></trkpt><trkpt lat="45.49975271160277" lon="11.064669247554386"><ele>241.66666666666666</ele><time>2026-04-08T11:13:03Z</time></trkpt><trkpt lat="45.49980456739785" lon="11.064760446586613"><ele>244.0</ele><time>2026-04-08T11:13:06Z</time></trkpt><trkpt lat="45.499853475371644" lon="11.064875417757795"><ele>247.0</ele><time>2026-04-08T11:13:09Z</time></trkpt><trkpt lat="45.499877013785245" lon="11.064971702526318"><ele>249.99999999999997</ele><time>2026-04-08T11:13:11Z</time></trkpt><trkpt lat="45.49988613099485" lon="11.065115194162887"><ele>252.99999999999997</ele><time>2026-04-08T11:13:14Z</time></trkpt><trkpt lat="45.49993277402442" lon="11.065248536812073"><ele>256.0</ele><time>2026-04-08T11:13:17Z</time></trkpt><trkpt lat="45.49994204651086" lon="11.065403922248086"><ele>259.0</ele><time>2026-04-08T11:13:19Z</time></trkpt><trkpt lat="45.499930017465715" lon="11.06549502873497"><ele>259.0</ele><time>2026-04-08T11:13:21Z</time></trkpt><trkpt lat="45.49988305032953" lon="11.0655943737788"><ele>259.0</ele><time>2026-04-08T11:13:24Z</time></trkpt><trkpt lat="45.49985458585315" lon="11.06569523432447"><ele>259.0</ele><time>2026-04-08T11:13:25Z</time></trkpt><trkpt lat="45.499812364592465" lon="11.06579897186844"><ele>259.0</ele><time>2026-04-08T11:13:26Z</time></trkpt><trkpt lat="45.49976072558324" lon="11.065927066499741"><ele>259.0</ele><time>2026-04-08T11:13:28Z</time></trkpt><trkpt lat="45.4997664079956" lon="11.06604881973206"><ele>259.0</ele><time>2026-04-08T11:13:30Z</time></trkpt><trkpt lat="45.499813970501954" lon="11.06614060509776"><ele>260.0</ele><time>2026-04-08T11:13:32Z</time></trkpt><trkpt lat="45.49980797670807" lon="11.066294380398263"><ele>261.0</ele><time>2026-04-08T11:13:34Z</time></trkpt><trkpt lat="45.499829370248364" lon="11.066407470421415"><ele>262.0</ele><time>2026-04-08T11:13:36Z</time></trkpt><trkpt lat="45.49980332172547" lon="11.06649343630544"><ele>263.0</ele><time>2026-04-08T11:13:39Z</time></trkpt><trkpt lat="45.49979426271346" lon="11.066605437103984"><ele>264.0</ele><time>2026-04-08T11:13:41Z</time></trkpt><trkpt lat="45.49973811836695" lon="11.066712020088971"><ele>265.0</ele><time>2026-04-08T11:13:44Z</time></trkpt><trkpt lat="45.499706644258374" lon="11.066828208178807"><ele>266.16666666666663</ele><time>2026-04-08T11:13:46Z</time></trkpt><trkpt lat="45.49970059074392" lon="11.066963877948314"><ele>267.3333333333333</ele><time>2026-04-08T11:13:49Z</time></trkpt><trkpt lat="45.499688433734" lon="11.067072431759149"><ele>268.5</ele><time>2026-04-08T11:13:51Z</time></trkpt><trkpt lat="45.499615423005565" lon="11.067111924163154"><ele>269.6666666666667</ele><time>2026-04-08T11:13:54Z</time></trkpt><trkpt lat="45.499564442359656" lon="11.067184297366252"><ele>270.83333333333337</ele><time>2026-04-08T11:13:58Z</time></trkpt><trkpt lat="45.49951239536778" lon="11.067297467620179"><ele>272.0</ele><time>2026-04-08T11:14:01Z</time></trkpt><trkpt lat="45.49953433633967" lon="11.067397022714141"><ele>273.6666666666667</ele><time>2026-04-08T11:14:06Z</time></trkpt><trkpt lat="45.49958572258329" lon="11.06745640681025"><ele>275.33333333333337</ele><time>2026-04-08T11:14:08Z</time></trkpt><trkpt lat="45.499658629808515" lon="11.067556297687691"><ele>277.0</ele><time>2026-04-08T11:14:10Z</time></trkpt><trkpt lat="45.49972509875319" lon="11.067647461749193"><ele>278.6666666666667</ele><time>2026-04-08T11:14:12Z</time></trkpt><trkpt lat="45.49972976541625" lon="11.067747111825918"><ele>280.3333333333333</ele><time>2026-04-08T11:14:14Z</time></trkpt><trkpt lat="45.49966296975208" lon="11.067817809232613"><ele>282.0</ele><time>2026-04-08T11:14:15.999Z</time></trkpt><trkpt lat="45.49958686248967" lon="11.06783417694526"><ele>284.0</ele><time>2026-04-08T11:14:17.999Z</time></trkpt><trkpt lat="45.49952315496209" lon="11.067881477351087"><ele>286.0</ele><time>2026-04-08T11:14:19.999Z</time></trkpt><trkpt lat="45.499453673421726" lon="11.067934850322654"><ele>288.0</ele><time>2026-04-08T11:14:21.999Z</time></trkpt><trkpt lat="45.499406607644914" lon="11.068038485662687"><ele>290.0</ele><time>2026-04-08T11:14:24.999Z</time></trkpt><trkpt lat="45.49935029570383" lon="11.068084798309622"><ele>292.0</ele><time>2026-04-08T11:14:27.999Z</time></trkpt><trkpt lat="45.49932292303251" lon="11.068194414855483"><ele>294.0</ele><time>2026-04-08T11:14:30.999Z</time></trkpt><trkpt lat="45.499342493924274" lon="11.068316638460766"><ele>295.3333333333333</ele><time>2026-04-08T11:14:33.999Z</time></trkpt><trkpt lat="45.49929766903133" lon="11.0684318244549"><ele>296.6666666666667</ele><time>2026-04-08T11:14:36.999Z</time></trkpt><trkpt lat="45.49928211168727" lon="11.068540631841993"><ele>298.0</ele><time>2026-04-08T11:14:39.999Z</time></trkpt><trkpt lat="45.49928954591127" lon="11.068660470180735"><ele>299.33333333333337</ele><time>2026-04-08T11:14:41.999Z</time></trkpt><trkpt lat="45.499297499200125" lon="11.068787187915333"><ele>300.6666666666667</ele><time>2026-04-08T11:14:43.999Z</time></trkpt><trkpt lat="45.49931947996131" lon="11.068897155041611"><ele>302.0</ele><time>2026-04-08T11:14:44.999Z</time></trkpt><trkpt lat="45.499285225883376" lon="11.068983654209624"><ele>302.5</ele><time>2026-04-08T11:14:46.999Z</time></trkpt><trkpt lat="45.49928960214127" lon="11.069120542336599"><ele>303.0</ele><time>2026-04-08T11:14:49Z</time></trkpt><trkpt lat="45.49931788180647" lon="11.069231531526686"><ele>303.5</ele><time>2026-04-08T11:14:51Z</time></trkpt><trkpt lat="45.49933391079908" lon="11.069345674764405"><ele>304.0</ele><time>2026-04-08T11:14:53Z</time></trkpt><trkpt lat="45.49938980457311" lon="11.069461297019815"><ele>304.5</ele><time>2026-04-08T11:14:57Z</time></trkpt><trkpt lat="45.49939188884526" lon="11.069583143476049"><ele>305.0</ele><time>2026-04-08T11:15:42Z</time></trkpt><trkpt lat="45.49939961107874" lon="11.069741153267113"><ele>305.0</ele><time>2026-04-08T11:15:44Z</time></trkpt><trkpt lat="45.49934884756235" lon="11.069851190831596"><ele>305.0</ele><time>2026-04-08T11:15:46Z</time></trkpt><trkpt lat="45.49930640895718" lon="11.069936360575515"><ele>305.0</ele><time>2026-04-08T11:15:47Z</time></trkpt><trkpt lat="45.499289286853916" lon="11.070031561000144"><ele>305.0</ele><time>2026-04-08T11:15:48Z</time></trkpt><trkpt lat="45.49928954299221" lon="11.070133013961106"><ele>305.0</ele><time>2026-04-08T11:15:49Z</time></trkpt><trkpt lat="45.499305346907285" lon="11.07025388161624"><ele>305.0</ele><time>2026-04-08T11:15:50Z</time></trkpt><trkpt lat="45.49932052449638" lon="11.070362055252112"><ele>306.0</ele><time>2026-04-08T11:15:51Z</time></trkpt><trkpt lat="45.49934570156283" lon="11.070534084251003"><ele>307.0</ele><time>2026-04-08T11:15:53Z</time></trkpt><trkpt lat="45.4993861460761" lon="11.07065336068077"><ele>308.0</ele><time>2026-04-08T11:15:55Z</time></trkpt><trkpt lat="45.49940807202985" lon="11.070746083502938"><ele>309.0</ele><time>2026-04-08T11:15:56Z</time></trkpt><trkpt lat="45.49942997834654" lon="11.070860346013566"><ele>310.0</ele><time>2026-04-08T11:15:57Z</time></trkpt><trkpt lat="45.49944379395515" lon="11.070994603019772"><ele>310.5</ele><time>2026-04-08T11:15:58Z</time></trkpt><trkpt lat="45.499458456183035" lon="11.071092249498847"><ele>311.0</ele><time>2026-04-08T11:15:59Z</time></trkpt><trkpt lat="45.499478554633775" lon="11.07119281429132"><ele>311.5</ele><time>2026-04-08T11:16:00Z</time></trkpt><trkpt lat="45.49950774415409" lon="11.071315502191222"><ele>312.0</ele><time>2026-04-08T11:16:01Z</time></trkpt><trkpt lat="45.49955404872609" lon="11.071409156932535"><ele>312.5</ele><time>2026-04-08T11:16:02Z</time></trkpt><trkpt lat="45.499617586599925" lon="11.071520580951526"><ele>313.0</ele><time>2026-04-08T11:16:03Z</time></trkpt><trkpt lat="45.49969092360018" lon="11.071652393570979"><ele>314.4</ele><time>2026-04-08T11:16:04Z</time></trkpt><trkpt lat="45.49974190045341" lon="11.07180281848394"><ele>315.8</ele><time>2026-04-08T11:16:05Z</time></trkpt><trkpt lat="45.49978827310665" lon="11.071937113686952"><ele>317.2</ele><time>2026-04-08T11:16:06Z</time></trkpt><trkpt lat="45.49979427530142" lon="11.072067136859985"><ele>318.6</ele><time>2026-04-08T11:16:07Z</time></trkpt><trkpt lat="45.49985038869948" lon="11.072216963930648"><ele>320.0</ele><time>2026-04-08T11:16:08Z</time></trkpt><trkpt lat="45.499914387244374" lon="11.07238269858386"><ele>321.5</ele><time>2026-04-08T11:16:09Z</time></trkpt><trkpt lat="45.49998475209862" lon="11.072554356243216"><ele>323.0</ele><time>2026-04-08T11:16:10Z</time></trkpt><trkpt lat="45.50003466511891" lon="11.072704123035074"><ele>324.5</ele><time>2026-04-08T11:16:11Z</time></trkpt><trkpt lat="45.5000884673404" lon="11.07283816888868"><ele>326.0</ele><time>2026-04-08T11:16:12Z</time></trkpt><trkpt lat="45.500141022412016" lon="11.072960295334703"><ele>326.0</ele><time>2026-04-08T11:16:13Z</time></trkpt><trkpt lat="45.50018491194173" lon="11.07307483015333"><ele>326.0</ele><time>2026-04-08T11:16:14Z</time></trkpt><trkpt lat="45.500215007018056" lon="11.073181969767795"><ele>326.0</ele><time>2026-04-08T11:16:15Z</time></trkpt><trkpt lat="45.50023304414553" lon="11.073279047685263"><ele>326.0</ele><time>2026-04-08T11:16:16Z</time></trkpt><trkpt lat="45.50029141485371" lon="11.073365961958425"><ele>326.0</ele><time>2026-04-08T11:16:18Z</time></trkpt><trkpt lat="45.50034756614932" lon="11.07341891702169"><ele>326.0</ele><time>2026-04-08T11:16:22.999Z</time></trkpt><trkpt lat="45.500387436300166" lon="11.073540727600042"><ele>327.5</ele><time>2026-04-08T11:16:26.999Z</time></trkpt><trkpt lat="45.50042881242959" lon="11.07366252197294"><ele>329.0</ele><time>2026-04-08T11:16:30.999Z</time></trkpt><trkpt lat="45.500387847177045" lon="11.073966540156759"><ele>330.5</ele><time>2026-04-08T11:16:36.999Z</time></trkpt><trkpt lat="45.50040880149467" lon="11.074077040222383"><ele>332.0</ele><time>2026-04-08T11:16:52.999Z</time></trkpt><trkpt lat="45.500447841168146" lon="11.07416608725059"><ele>332.8</ele><time>2026-04-08T11:17:27Z</time></trkpt><trkpt lat="45.500516671429274" lon="11.074155993152024"><ele>333.6</ele><time>2026-04-08T11:17:35Z</time></trkpt><trkpt lat="45.5005281068672" lon="11.07428759336866"><ele>334.40000000000003</ele><time>2026-04-08T11:17:37Z</time></trkpt><trkpt lat="45.50054225720577" lon="11.074442077553377"><ele>335.20000000000005</ele><time>2026-04-08T11:17:39Z</time></trkpt><trkpt lat="45.50055408288291" lon="11.074592269170514"><ele>336.0</ele><time>2026-04-08T11:17:41Z</time></trkpt><trkpt lat="45.50056346304921" lon="11.074748952699942"><ele>336.0</ele><time>2026-04-08T11:17:43Z</time></trkpt><trkpt lat="45.50058433462131" lon="11.074872310139634"><ele>336.0</ele><time>2026-04-08T11:17:45Z</time></trkpt><trkpt lat="45.50060311474874" lon="11.07496210443905"><ele>336.0</ele><time>2026-04-08T11:17:46Z</time></trkpt><trkpt lat="45.500629814615834" lon="11.075097905892466"><ele>336.0</ele><time>2026-04-08T11:17:47Z</time></trkpt><trkpt lat="45.500658480332135" lon="11.075216574086978"><ele>336.0</ele><time>2026-04-08T11:17:48Z</time></trkpt><trkpt lat="45.50068683399846" lon="11.075316597141034"><ele>336.0</ele><time>2026-04-08T11:17:49Z</time></trkpt><trkpt lat="45.500717546301004" lon="11.075405241184905"><ele>336.20000000000005</ele><time>2026-04-08T11:17:50Z</time></trkpt><trkpt lat="45.50076779974655" lon="11.075513671360845"><ele>336.40000000000003</ele><time>2026-04-08T11:17:51Z</time></trkpt><trkpt lat="45.50080195293672" lon="11.075621931012432"><ele>336.6</ele><time>2026-04-08T11:17:52Z</time></trkpt><trkpt lat="45.500788456840034" lon="11.075795948793866"><ele>336.8</ele><time>2026-04-08T11:17:54Z</time></trkpt><trkpt lat="45.5007767307915" lon="11.075888845464188"><ele>337.0</ele><time>2026-04-08T11:17:55Z</time></trkpt><trkpt lat="45.50072928611023" lon="11.076060691128133"><ele>336.66666666666663</ele><time>2026-04-08T11:17:57Z</time></trkpt><trkpt lat="45.50071432182693" lon="11.076162604641935"><ele>336.3333333333333</ele><time>2026-04-08T11:17:58Z</time></trkpt><trkpt lat="45.500703068791694" lon="11.076259859344585"><ele>336.0</ele><time>2026-04-08T11:17:59Z</time></trkpt><trkpt lat="45.50070990593261" lon="11.076377380692456"><ele>335.6666666666667</ele><time>2026-04-08T11:18:01Z</time></trkpt><trkpt lat="45.50080964275317" lon="11.076346936134044"><ele>335.33333333333337</ele><time>2026-04-08T11:18:03Z</time></trkpt><trkpt lat="45.50087889701424" lon="11.076216993006371"><ele>335.0</ele><time>2026-04-08T11:18:05Z</time></trkpt><trkpt lat="45.50090772561357" lon="11.076115330624098"><ele>335.0</ele><time>2026-04-08T11:18:06Z</time></trkpt><trkpt lat="45.50093930285879" lon="11.076032917092597"><ele>335.0</ele><time>2026-04-08T11:18:07Z</time></trkpt><trkpt lat="45.50098893681658" lon="11.075963907084038"><ele>335.0</ele><time>2026-04-08T11:18:08Z</time></trkpt><trkpt lat="45.50105198343884" lon="11.075924694122316"><ele>335.0</ele><time>2026-04-08T11:18:09Z</time></trkpt><trkpt lat="45.50112808270153" lon="11.07590669559505"><ele>335.0</ele><time>2026-04-08T11:18:10Z</time></trkpt><trkpt lat="45.50121738396458" lon="11.075935068531887"><ele>335.0</ele><time>2026-04-08T11:18:11Z</time></trkpt><trkpt lat="45.501315332067726" lon="11.07592495519388"><ele>337.2</ele><time>2026-04-08T11:18:12Z</time></trkpt><trkpt lat="45.50142269840854" lon="11.075940586370105"><ele>339.4</ele><time>2026-04-08T11:18:13Z</time></trkpt><trkpt lat="45.50153929266323" lon="11.075970054394743"><ele>341.6</ele><time>2026-04-08T11:18:14Z</time></trkpt><trkpt lat="45.50163966332268" lon="11.07601849482984"><ele>343.8</ele><time>2026-04-08T11:18:15Z</time></trkpt><trkpt lat="45.501721069934554" lon="11.07601583068682"><ele>346.0</ele><time>2026-04-08T11:18:16Z</time></trkpt><trkpt lat="45.50180152164554" lon="11.076007987467994"><ele>346.0</ele><time>2026-04-08T11:18:18Z</time></trkpt><trkpt lat="45.501821582073774" lon="11.075874692181563"><ele>346.0</ele><time>2026-04-08T11:18:20Z</time></trkpt><trkpt lat="45.5017599501583" lon="11.07579839516747"><ele>346.0</ele><time>2026-04-08T11:18:21Z</time></trkpt><trkpt lat="45.501689352533525" lon="11.075752796115166"><ele>346.0</ele><time>2026-04-08T11:18:22Z</time></trkpt><trkpt lat="45.50161234545577" lon="11.07567414570218"><ele>346.0</ele><time>2026-04-08T11:18:23Z</time></trkpt><trkpt lat="45.50153233538076" lon="11.075581215351393"><ele>347.4</ele><time>2026-04-08T11:18:24Z</time></trkpt><trkpt lat="45.501457809776866" lon="11.075469067079222"><ele>348.8</ele><time>2026-04-08T11:18:25Z</time></trkpt><trkpt lat="45.50140129020147" lon="11.075366823177967"><ele>350.2</ele><time>2026-04-08T11:18:26Z</time></trkpt><trkpt lat="45.50134685883379" lon="11.075251965074832"><ele>351.59999999999997</ele><time>2026-04-08T11:18:27Z</time></trkpt><trkpt lat="45.501307563673784" lon="11.075153567118294"><ele>353.0</ele><time>2026-04-08T11:18:28Z</time></trkpt><trkpt lat="45.50126267213458" lon="11.07504804872653"><ele>353.79999999999995</ele><time>2026-04-08T11:18:29Z</time></trkpt><trkpt lat="45.50124553682471" lon="11.074936488497427"><ele>354.6</ele><time>2026-04-08T11:18:30Z</time></trkpt><trkpt lat="45.50122080114769" lon="11.074797821881068"><ele>355.4</ele><time>2026-04-08T11:18:31.999Z</time></trkpt><trkpt lat="45.50121904903439" lon="11.074698737172335"><ele>356.20000000000005</ele><time>2026-04-08T11:18:33.999Z</time></trkpt><trkpt lat="45.50135753159526" lon="11.074609427803917"><ele>357.0</ele><time>2026-04-08T11:18:35.999Z</time></trkpt><trkpt lat="45.50141480248225" lon="11.074665072764226"><ele>357.0</ele><time>2026-04-08T11:18:36.999Z</time></trkpt><trkpt lat="45.50145034751566" lon="11.074751459367874"><ele>357.0</ele><time>2026-04-08T11:18:37.999Z</time></trkpt><trkpt lat="45.50152320152999" lon="11.074781262260505"><ele>357.0</ele><time>2026-04-08T11:18:38.999Z</time></trkpt><trkpt lat="45.50160093411243" lon="11.074813060919766"><ele>357.0</ele><time>2026-04-08T11:18:39.999Z</time></trkpt><trkpt lat="45.501711757499685" lon="11.074694561998024"><ele>357.0</ele><time>2026-04-08T11:18:40.999Z</time></trkpt><trkpt lat="45.50178445852085" lon="11.074690621813534"><ele>357.0</ele><time>2026-04-08T11:18:41.999Z</time></trkpt><trkpt lat="45.501881127092666" lon="11.074763112640268"><ele>357.0</ele><time>2026-04-08T11:18:43.999Z</time></trkpt><trkpt lat="45.501933507025015" lon="11.074816527385476"><ele>357.0</ele><time>2026-04-08T11:18:44.999Z</time></trkpt><trkpt lat="45.50199532915141" lon="11.074835723248983"><ele>357.0</ele><time>2026-04-08T11:18:45.999Z</time></trkpt><trkpt lat="45.50206801983026" lon="11.074860377353234"><ele>357.0</ele><time>2026-04-08T11:18:46.999Z</time></trkpt><trkpt lat="45.50214232261481" lon="11.074912203232254"><ele>357.0</ele><time>2026-04-08T11:18:47.999Z</time></trkpt><trkpt lat="45.50220769411536" lon="11.07494346041378"><ele>357.0</ele><time>2026-04-08T11:18:48.999Z</time></trkpt><trkpt lat="45.50229062164441" lon="11.074960698745116"><ele>357.0</ele><time>2026-04-08T11:18:49.999Z</time></trkpt><trkpt lat="45.50237640971379" lon="11.075011553495987"><ele>359.3333333333333</ele><time>2026-04-08T11:18:50.999Z</time></trkpt><trkpt lat="45.502456019304844" lon="11.075074954578584"><ele>361.6666666666667</ele><time>2026-04-08T11:18:51.999Z</time></trkpt><trkpt lat="45.502517963944044" lon="11.075122442274488"><ele>364.0</ele><time>2026-04-08T11:18:52.999Z</time></trkpt><trkpt lat="45.50261309103746" lon="11.075142208379344"><ele>366.33333333333337</ele><time>2026-04-08T11:18:54.999Z</time></trkpt><trkpt lat="45.50265621816714" lon="11.075067591451784"><ele>368.6666666666667</ele><time>2026-04-08T11:18:56.999Z</time></trkpt><trkpt lat="45.502684006449975" lon="11.07496257692604"><ele>371.0</ele><time>2026-04-08T11:18:58.999Z</time></trkpt><trkpt lat="45.50262336104045" lon="11.07479263681909"><ele>371.6666666666667</ele><time>2026-04-08T11:19:01Z</time></trkpt><trkpt lat="45.50257872169951" lon="11.074686647224055"><ele>372.33333333333337</ele><time>2026-04-08T11:19:02Z</time></trkpt><trkpt lat="45.50254188715916" lon="11.074591900570589"><ele>373.0</ele><time>2026-04-08T11:19:03Z</time></trkpt><trkpt lat="45.50251581689555" lon="11.074504782541931"><ele>373.6666666666667</ele><time>2026-04-08T11:19:04Z</time></trkpt><trkpt lat="45.5025039653959" lon="11.074354192207311"><ele>374.3333333333333</ele><time>2026-04-08T11:19:06Z</time></trkpt><trkpt lat="45.50250520390949" lon="11.074258991527358"><ele>375.0</ele><time>2026-04-08T11:19:07Z</time></trkpt><trkpt lat="45.50251396668016" lon="11.074137923279755"><ele>373.8333333333333</ele><time>2026-04-08T11:19:08Z</time></trkpt><trkpt lat="45.50251717214841" lon="11.074029080053664"><ele>372.6666666666667</ele><time>2026-04-08T11:19:09Z</time></trkpt><trkpt lat="45.5025230294894" lon="11.073937377442766"><ele>371.5</ele><time>2026-04-08T11:19:10Z</time></trkpt><trkpt lat="45.50255449722652" lon="11.073840644853616"><ele>370.33333333333337</ele><time>2026-04-08T11:19:12Z</time></trkpt><trkpt lat="45.50263615273731" lon="11.073851726065675"><ele>369.1666666666667</ele><time>2026-04-08T11:19:14Z</time></trkpt><trkpt lat="45.50269921202995" lon="11.073895390253348"><ele>368.0</ele><time>2026-04-08T11:19:15Z</time></trkpt><trkpt lat="45.50276962514104" lon="11.07395544601211"><ele>368.0</ele><time>2026-04-08T11:19:16Z</time></trkpt><trkpt lat="45.50285345063244" lon="11.074000999783058"><ele>368.0</ele><time>2026-04-08T11:19:17Z</time></trkpt><trkpt lat="45.50294677799631" lon="11.074045330080335"><ele>368.0</ele><time>2026-04-08T11:19:18Z</time></trkpt><trkpt lat="45.503030188310674" lon="11.07410865053608"><ele>368.0</ele><time>2026-04-08T11:19:19Z</time></trkpt><trkpt lat="45.5031184042232" lon="11.074164401344547"><ele>368.0</ele><time>2026-04-08T11:19:20Z</time></trkpt><trkpt lat="45.50321983771303" lon="11.074205941927223"><ele>371.33333333333337</ele><time>2026-04-08T11:19:21Z</time></trkpt><trkpt lat="45.50332551844715" lon="11.074244555525988"><ele>374.6666666666667</ele><time>2026-04-08T11:19:22Z</time></trkpt><trkpt lat="45.50340884949284" lon="11.074287816464087"><ele>378.0</ele><time>2026-04-08T11:19:23Z</time></trkpt><trkpt lat="45.50347382115588" lon="11.07430102590239"><ele>381.33333333333337</ele><time>2026-04-08T11:19:24Z</time></trkpt><trkpt lat="45.50353980470411" lon="11.074293482778659"><ele>384.6666666666667</ele><time>2026-04-08T11:19:25Z</time></trkpt><trkpt lat="45.50362127330288" lon="11.07427718865536"><ele>388.0</ele><time>2026-04-08T11:19:26Z</time></trkpt><trkpt lat="45.503699219276854" lon="11.074530924969192"><ele>388.0</ele><time>2026-04-08T11:19:27Z</time></trkpt><trkpt lat="45.50381947246048" lon="11.07457444967043"><ele>388.0</ele><time>2026-04-08T11:19:29Z</time></trkpt><trkpt lat="45.503867168135784" lon="11.07463388550118"><ele>388.0</ele><time>2026-04-08T11:19:30Z</time></trkpt><trkpt lat="45.50393413638568" lon="11.07478890938002"><ele>388.0</ele><time>2026-04-08T11:19:32Z</time></trkpt><trkpt lat="45.503965581350286" lon="11.074986798034217"><ele>390.0</ele><time>2026-04-08T11:19:34Z</time></trkpt><trkpt lat="45.50400051640286" lon="11.07512699818051"><ele>392.0</ele><time>2026-04-08T11:19:35Z</time></trkpt><trkpt lat="45.504019897227614" lon="11.075292173624328"><ele>394.0</ele><time>2026-04-08T11:19:36Z</time></trkpt><trkpt lat="45.50404064293256" lon="11.075455598377518"><ele>396.0</ele><time>2026-04-08T11:19:37Z</time></trkpt><trkpt lat="45.50406236479971" lon="11.075615039425724"><ele>396.0</ele><time>2026-04-08T11:19:38Z</time></trkpt><trkpt lat="45.504082933602945" lon="11.075768569920632"><ele>396.0</ele><time>2026-04-08T11:19:39Z</time></trkpt><trkpt lat="45.50410186409561" lon="11.075923132195985"><ele>396.0</ele><time>2026-04-08T11:19:40Z</time></trkpt><trkpt lat="45.50411925405463" lon="11.076057998864693"><ele>396.0</ele><time>2026-04-08T11:19:41Z</time></trkpt><trkpt lat="45.50414024037255" lon="11.076195816556451"><ele>396.0</ele><time>2026-04-08T11:19:42Z</time></trkpt><trkpt lat="45.50415530599972" lon="11.076309042041068"><ele>396.5</ele><time>2026-04-08T11:19:43Z</time></trkpt><trkpt lat="45.50417590675034" lon="11.076419081669217"><ele>397.0</ele><time>2026-04-08T11:19:44Z</time></trkpt><trkpt lat="45.504192872599276" lon="11.076518296114825"><ele>397.5</ele><time>2026-04-08T11:19:45Z</time></trkpt><trkpt lat="45.504216130430954" lon="11.07663307492635"><ele>398.0</ele><time>2026-04-08T11:19:46Z</time></trkpt><trkpt lat="45.50421980175331" lon="11.076755177410092"><ele>398.5</ele><time>2026-04-08T11:19:47Z</time></trkpt><trkpt lat="45.50423135810013" lon="11.0768891354412"><ele>399.0</ele><time>2026-04-08T11:19:48Z</time></trkpt><trkpt lat="45.504240636567495" lon="11.077011402908191"><ele>399.0</ele><time>2026-04-08T11:19:49Z</time></trkpt><trkpt lat="45.504262159396944" lon="11.077123246895422"><ele>399.0</ele><time>2026-04-08T11:19:50Z</time></trkpt><trkpt lat="45.50426161313483" lon="11.077245702721905"><ele>399.0</ele><time>2026-04-08T11:19:51Z</time></trkpt><trkpt lat="45.50422624859621" lon="11.07736536821966"><ele>399.0</ele><time>2026-04-08T11:19:52Z</time></trkpt><trkpt lat="45.50419520363139" lon="11.077488748067742"><ele>399.0</ele><time>2026-04-08T11:19:53Z</time></trkpt><trkpt lat="45.50416326306845" lon="11.077617932630673"><ele>399.0</ele><time>2026-04-08T11:19:54Z</time></trkpt><trkpt lat="45.504141099034065" lon="11.077736074159441"><ele>399.3333333333333</ele><time>2026-04-08T11:19:55Z</time></trkpt><trkpt lat="45.50413824974968" lon="11.077863370727428"><ele>399.66666666666663</ele><time>2026-04-08T11:19:56Z</time></trkpt><trkpt lat="45.50411333800803" lon="11.077971651603773"><ele>400.0</ele><time>2026-04-08T11:19:57Z</time></trkpt><trkpt lat="45.50410301614522" lon="11.078060882859383"><ele>400.3333333333333</ele><time>2026-04-08T11:19:58Z</time></trkpt><trkpt lat="45.50421269959518" lon="11.078163059590652"><ele>400.66666666666663</ele><time>2026-04-08T11:19:59Z</time></trkpt><trkpt lat="45.50424896173911" lon="11.0782591730561"><ele>401.0</ele><time>2026-04-08T11:20:00Z</time></trkpt><trkpt lat="45.50427466597329" lon="11.078354982202356"><ele>401.4</ele><time>2026-04-08T11:20:01Z</time></trkpt><trkpt lat="45.50425556306206" lon="11.078532382175585"><ele>401.8</ele><time>2026-04-08T11:20:03Z</time></trkpt><trkpt lat="45.50419645203586" lon="11.078636736810944"><ele>402.2</ele><time>2026-04-08T11:20:04Z</time></trkpt><trkpt lat="45.50415644767771" lon="11.078767172826806"><ele>402.59999999999997</ele><time>2026-04-08T11:20:05Z</time></trkpt><trkpt lat="45.50412292150556" lon="11.078913556255443"><ele>403.0</ele><time>2026-04-08T11:20:06Z</time></trkpt><trkpt lat="45.50410002403949" lon="11.079025537952845"><ele>404.4</ele><time>2026-04-08T11:20:07Z</time></trkpt><trkpt lat="45.50408570539408" lon="11.079150150686713"><ele>405.79999999999995</ele><time>2026-04-08T11:20:09Z</time></trkpt><trkpt lat="45.50413484176553" lon="11.079315484672446"><ele>407.2</ele><time>2026-04-08T11:20:23Z</time></trkpt><trkpt lat="45.50416086076372" lon="11.07941089302759"><ele>408.6</ele><time>2026-04-08T11:20:24Z</time></trkpt><trkpt lat="45.504136416966325" lon="11.079587560184809"><ele>410.0</ele><time>2026-04-08T11:20:26Z</time></trkpt><trkpt lat="45.50413761828996" lon="11.079679632391569"><ele>410.0</ele><time>2026-04-08T11:20:27Z</time></trkpt><trkpt lat="45.50446002074852" lon="11.079761464868348"><ele>410.0</ele><time>2026-04-08T11:20:29Z</time></trkpt><trkpt lat="45.504468809519366" lon="11.079933781989052"><ele>410.0</ele><time>2026-04-08T11:20:31Z</time></trkpt><trkpt lat="45.50447582695832" lon="11.080029484614553"><ele>411.75</ele><time>2026-04-08T11:20:32Z</time></trkpt><trkpt lat="45.504485854754016" lon="11.080151994403808"><ele>413.5</ele><time>2026-04-08T11:20:33Z</time></trkpt><trkpt lat="45.50432127411861" lon="11.080308863695121"><ele>415.25</ele><time>2026-04-08T11:20:34Z</time></trkpt><trkpt lat="45.5042912473312" lon="11.080431958947624"><ele>417.0</ele><time>2026-04-08T11:20:35Z</time></trkpt><trkpt lat="45.504269775090116" lon="11.08057065885125"><ele>417.0</ele><time>2026-04-08T11:20:36Z</time></trkpt><trkpt lat="45.50426104298958" lon="11.080717364387125"><ele>417.0</ele><time>2026-04-08T11:20:37Z</time></trkpt><trkpt lat="45.504238519584185" lon="11.08086507972718"><ele>417.0</ele><time>2026-04-08T11:20:38Z</time></trkpt><trkpt lat="45.50423168576081" lon="11.081018262828163"><ele>417.0</ele><time>2026-04-08T11:20:39Z</time></trkpt><trkpt lat="45.50422464795022" lon="11.081176018994258"><ele>417.0</ele><time>2026-04-08T11:20:40Z</time></trkpt><trkpt lat="45.504218693776" lon="11.081326692242461"><ele>417.8</ele><time>2026-04-08T11:20:41Z</time></trkpt><trkpt lat="45.50421287489916" lon="11.081489543086922"><ele>418.6</ele><time>2026-04-08T11:20:42Z</time></trkpt><trkpt lat="45.50422359531692" lon="11.081649803978717"><ele>419.40000000000003</ele><time>2026-04-08T11:20:43Z</time></trkpt><trkpt lat="45.504201155708884" lon="11.081798052365235"><ele>420.20000000000005</ele><time>2026-04-08T11:20:44Z</time></trkpt><trkpt lat="45.50422368580193" lon="11.081926999700054"><ele>421.0</ele><time>2026-04-08T11:20:45Z</time></trkpt><trkpt lat="45.504318396405495" lon="11.08201601905829"><ele>422.6</ele><time>2026-04-08T11:20:46Z</time></trkpt><trkpt lat="45.5043956782107" lon="11.08211585175398"><ele>424.20000000000005</ele><time>2026-04-08T11:20:47Z</time></trkpt><trkpt lat="45.50447439118522" lon="11.082230123209033"><ele>425.79999999999995</ele><time>2026-04-08T11:20:48Z</time></trkpt><trkpt lat="45.50455346024284" lon="11.082353908259067"><ele>427.4</ele><time>2026-04-08T11:20:49Z</time></trkpt><trkpt lat="45.504627971179474" lon="11.082470487371838"><ele>429.0</ele><time>2026-04-08T11:20:50Z</time></trkpt><trkpt lat="45.50469907713594" lon="11.082581739163617"><ele>429.5</ele><time>2026-04-08T11:20:51Z</time></trkpt><trkpt lat="45.504777060055844" lon="11.082685065805759"><ele>430.0</ele><time>2026-04-08T11:20:52Z</time></trkpt><trkpt lat="45.504840176860014" lon="11.082780637040939"><ele>430.5</ele><time>2026-04-08T11:20:53Z</time></trkpt><trkpt lat="45.50490377845743" lon="11.082855278570529"><ele>431.0</ele><time>2026-04-08T11:20:54Z</time></trkpt><trkpt lat="45.50497392861569" lon="11.082936914025236"><ele>431.5</ele><time>2026-04-08T11:20:55Z</time></trkpt><trkpt lat="45.505012342385875" lon="11.083023100640109"><ele>432.0</ele><time>2026-04-08T11:20:56Z</time></trkpt><trkpt lat="45.5050562248253" lon="11.083093663315776"><ele>432.0</ele><time>2026-04-08T11:20:57Z</time></trkpt><trkpt lat="45.5049986800204" lon="11.083199705576133"><ele>432.0</ele><time>2026-04-08T11:20:58Z</time></trkpt><trkpt lat="45.50498197225682" lon="11.083291026160726"><ele>432.0</ele><time>2026-04-08T11:20:58.999Z</time></trkpt><trkpt lat="45.504911862362775" lon="11.083322111434843"><ele>432.0</ele><time>2026-04-08T11:20:59.999Z</time></trkpt><trkpt lat="45.50486332076467" lon="11.083425297656664"><ele>432.0</ele><time>2026-04-08T11:21:00.999Z</time></trkpt><trkpt lat="45.504819577433885" lon="11.083539290892174"><ele>432.0</ele><time>2026-04-08T11:21:01.999Z</time></trkpt><trkpt lat="45.50478060979432" lon="11.083657351138664"><ele>433.8</ele><time>2026-04-08T11:21:02.999Z</time></trkpt><trkpt lat="45.50474814923263" lon="11.083779802486488"><ele>435.6</ele><time>2026-04-08T11:21:03.999Z</time></trkpt><trkpt lat="45.50472429084577" lon="11.083907650709456"><ele>437.40000000000003</ele><time>2026-04-08T11:21:04.999Z</time></trkpt><trkpt lat="45.50468938625816" lon="11.08406009782527"><ele>439.20000000000005</ele><time>2026-04-08T11:21:05.999Z</time></trkpt><trkpt lat="45.50466394350985" lon="11.08419993466696"><ele>441.0</ele><time>2026-04-08T11:21:07Z</time></trkpt><trkpt lat="45.50461305607624" lon="11.084304366435225"><ele>442.75</ele><time>2026-04-08T11:21:08Z</time></trkpt><trkpt lat="45.50456635983931" lon="11.084398504299799"><ele>444.5</ele><time>2026-04-08T11:21:09Z</time></trkpt><trkpt lat="45.50449921816465" lon="11.084527942427805"><ele>446.25</ele><time>2026-04-08T11:21:10Z</time></trkpt><trkpt lat="45.50441034420253" lon="11.084769659775011"><ele>448.0</ele><time>2026-04-08T11:21:11Z</time></trkpt><trkpt lat="45.504382965158094" lon="11.084952649470475"><ele>450.25</ele><time>2026-04-08T11:21:12Z</time></trkpt><trkpt lat="45.50436616046781" lon="11.085110079678032"><ele>452.5</ele><time>2026-04-08T11:21:13Z</time></trkpt><trkpt lat="45.50435457795021" lon="11.085228539203348"><ele>454.75</ele><time>2026-04-08T11:21:14Z</time></trkpt><trkpt lat="45.50432300576565" lon="11.085532129647664"><ele>457.0</ele><time>2026-04-08T11:21:16Z</time></trkpt><trkpt lat="45.50433214769133" lon="11.08569117093024"><ele>457.0</ele><time>2026-04-08T11:21:17Z</time></trkpt><trkpt lat="45.504458778104244" lon="11.085743738762856"><ele>457.00000000000006</ele><time>2026-04-08T11:21:18Z</time></trkpt><trkpt lat="45.50444033100051" lon="11.08588886544631"><ele>457.00000000000006</ele><time>2026-04-08T11:21:19Z</time></trkpt><trkpt lat="45.50442140949629" lon="11.086044378975604"><ele>457.0</ele><time>2026-04-08T11:21:20Z</time></trkpt><trkpt lat="45.504399954171824" lon="11.086182972345595"><ele>457.0</ele><time>2026-04-08T11:21:21Z</time></trkpt><trkpt lat="45.50437539748983" lon="11.086330895207977"><ele>458.75</ele><time>2026-04-08T11:21:22Z</time></trkpt><trkpt lat="45.50434982276413" lon="11.08648844633593"><ele>460.5</ele><time>2026-04-08T11:21:23Z</time></trkpt><trkpt lat="45.50433279414895" lon="11.086658392836345"><ele>462.25</ele><time>2026-04-08T11:21:24Z</time></trkpt><trkpt lat="45.504319406742276" lon="11.086826564129005"><ele>464.0</ele><time>2026-04-08T11:21:25Z</time></trkpt><trkpt lat="45.50431000237322" lon="11.086987882808641"><ele>465.79999999999995</ele><time>2026-04-08T11:21:26Z</time></trkpt><trkpt lat="45.50430849575849" lon="11.087125813217245"><ele>467.59999999999997</ele><time>2026-04-08T11:21:27Z</time></trkpt><trkpt lat="45.50434784621002" lon="11.087247828447316"><ele>469.4</ele><time>2026-04-08T11:21:28Z</time></trkpt><trkpt lat="45.50437351208912" lon="11.087378090349748"><ele>471.2</ele><time>2026-04-08T11:21:29Z</time></trkpt><trkpt lat="45.5044043549664" lon="11.087508050215906"><ele>473.0</ele><time>2026-04-08T11:21:30Z</time></trkpt><trkpt lat="45.50445013800924" lon="11.087629169721039"><ele>475.4</ele><time>2026-04-08T11:21:31Z</time></trkpt><trkpt lat="45.504490504355736" lon="11.08776672847573"><ele>477.79999999999995</ele><time>2026-04-08T11:21:32Z</time></trkpt><trkpt lat="45.50455561617104" lon="11.08787925884927"><ele>480.2</ele><time>2026-04-08T11:21:33Z</time></trkpt><trkpt lat="45.50461199849306" lon="11.08799276275055"><ele>482.6</ele><time>2026-04-08T11:21:34Z</time></trkpt><trkpt lat="45.504672658903324" lon="11.088111848743173"><ele>485.0</ele><time>2026-04-08T11:21:35Z</time></trkpt><trkpt lat="45.50473124724291" lon="11.088223874704898"><ele>487.49999999999994</ele><time>2026-04-08T11:21:36Z</time></trkpt><trkpt lat="45.50479854444156" lon="11.088337578086213"><ele>490.0</ele><time>2026-04-08T11:21:37Z</time></trkpt><trkpt lat="45.5048564885618" lon="11.088443141941031"><ele>492.5</ele><time>2026-04-08T11:21:38Z</time></trkpt><trkpt lat="45.504878523288674" lon="11.08853788774371"><ele>495.0</ele><time>2026-04-08T11:21:39Z</time></trkpt><trkpt lat="45.50489365602456" lon="11.088633247968794"><ele>497.49999999999994</ele><time>2026-04-08T11:21:41Z</time></trkpt><trkpt lat="45.50481421360506" lon="11.08862132884533"><ele>500.0</ele><time>2026-04-08T11:21:43Z</time></trkpt><trkpt lat="45.50474744714021" lon="11.088623201547517"><ele>500.0</ele><time>2026-04-08T11:21:44Z</time></trkpt><trkpt lat="45.50460038823838" lon="11.088730567932126"><ele>500.0</ele><time>2026-04-08T11:21:46Z</time></trkpt><trkpt lat="45.504540802620745" lon="11.088792566209086"><ele>500.0</ele><time>2026-04-08T11:21:47Z</time></trkpt><trkpt lat="45.5045066299643" lon="11.08887107121013"><ele>500.0</ele><time>2026-04-08T11:21:48Z</time></trkpt><trkpt lat="45.50448378469304" lon="11.08896147174717"><ele>500.0</ele><time>2026-04-08T11:21:49Z</time></trkpt><trkpt lat="45.50450597377254" lon="11.089078110458784"><ele>502.16666666666663</ele><time>2026-04-08T11:21:50Z</time></trkpt><trkpt lat="45.504503312625374" lon="11.08916922428694"><ele>504.3333333333333</ele><time>2026-04-08T11:21:51Z</time></trkpt><trkpt lat="45.50448810086268" lon="11.089263150520434"><ele>506.5</ele><time>2026-04-08T11:21:52Z</time></trkpt><trkpt lat="45.5044463913902" lon="11.089357990605329"><ele>508.66666666666663</ele><time>2026-04-08T11:21:53Z</time></trkpt><trkpt lat="45.50449664369941" lon="11.089523387889823"><ele>510.8333333333333</ele><time>2026-04-08T11:21:55Z</time></trkpt><trkpt lat="45.504563482909575" lon="11.089569266734301"><ele>513.0</ele><time>2026-04-08T11:21:56Z</time></trkpt><trkpt lat="45.50464110505815" lon="11.089542074733458"><ele>513.8333333333334</ele><time>2026-04-08T11:21:57Z</time></trkpt><trkpt lat="45.50469975000349" lon="11.089613368039231"><ele>514.6666666666666</ele><time>2026-04-08T11:21:58Z</time></trkpt><trkpt lat="45.50477901626899" lon="11.089693316116247"><ele>515.5</ele><time>2026-04-08T11:21:59Z</time></trkpt><trkpt lat="45.50483248655079" lon="11.089757302162564"><ele>516.3333333333333</ele><time>2026-04-08T11:22:00Z</time></trkpt><trkpt lat="45.50486239532701" lon="11.089839825239574"><ele>517.1666666666666</ele><time>2026-04-08T11:22:01Z</time></trkpt><trkpt lat="45.5048819200669" lon="11.089944015100805"><ele>518.0</ele><time>2026-04-08T11:22:02Z</time></trkpt><trkpt lat="45.50489494421535" lon="11.090045761055427"><ele>519.8333333333333</ele><time>2026-04-08T11:22:03Z</time></trkpt><trkpt lat="45.50490203537452" lon="11.090157951652673"><ele>521.6666666666666</ele><time>2026-04-08T11:22:04Z</time></trkpt><trkpt lat="45.504900871199865" lon="11.090259180339066"><ele>523.5</ele><time>2026-04-08T11:22:05Z</time></trkpt><trkpt lat="45.50489096375684" lon="11.090356851120204"><ele>525.3333333333334</ele><time>2026-04-08T11:22:06Z</time></trkpt><trkpt lat="45.50488049567797" lon="11.090461271710403"><ele>527.1666666666667</ele><time>2026-04-08T11:22:07Z</time></trkpt><trkpt lat="45.50485422158392" lon="11.090600951853352"><ele>529.0</ele><time>2026-04-08T11:22:08Z</time></trkpt><trkpt lat="45.504822491059116" lon="11.090741350468305"><ele>530.75</ele><time>2026-04-08T11:22:09Z</time></trkpt><trkpt lat="45.504785468701954" lon="11.090896785847535"><ele>532.5</ele><time>2026-04-08T11:22:10Z</time></trkpt><trkpt lat="45.50475814197122" lon="11.091045024897385"><ele>534.25</ele><time>2026-04-08T11:22:11Z</time></trkpt><trkpt lat="45.50469323170262" lon="11.091220301305636"><ele>536.0</ele><time>2026-04-08T11:22:12Z</time></trkpt><trkpt lat="45.50464551447426" lon="11.091407505547345"><ele>537.0</ele><time>2026-04-08T11:22:13Z</time></trkpt><trkpt lat="45.50461617003386" lon="11.091604745844247"><ele>538.0</ele><time>2026-04-08T11:22:14Z</time></trkpt><trkpt lat="45.504577597210854" lon="11.091804038795575"><ele>539.0</ele><time>2026-04-08T11:22:15Z</time></trkpt><trkpt lat="45.50450837155731" lon="11.092018684080749"><ele>539.25</ele><time>2026-04-08T11:22:16Z</time></trkpt><trkpt lat="45.504456693870395" lon="11.092191218155774"><ele>539.5</ele><time>2026-04-08T11:22:17Z</time></trkpt><trkpt lat="45.50441729366195" lon="11.092354687928493"><ele>539.75</ele><time>2026-04-08T11:22:18Z</time></trkpt><trkpt lat="45.504406493892745" lon="11.092518756555041"><ele>540.0</ele><time>2026-04-08T11:22:19Z</time></trkpt><trkpt lat="45.50440244837414" lon="11.092679783058585"><ele>541.25</ele><time>2026-04-08T11:22:20Z</time></trkpt><trkpt lat="45.504416304422236" lon="11.092859338538357"><ele>542.5</ele><time>2026-04-08T11:22:21Z</time></trkpt><trkpt lat="45.50440153275538" lon="11.093039445177045"><ele>543.75</ele><time>2026-04-08T11:22:22Z</time></trkpt><trkpt lat="45.504396552308954" lon="11.09322737368707"><ele>545.0</ele><time>2026-04-08T11:22:23Z</time></trkpt><trkpt lat="45.50439385601957" lon="11.093392907874373"><ele>546.2</ele><time>2026-04-08T11:22:24Z</time></trkpt><trkpt lat="45.50440004612886" lon="11.093565193211239"><ele>547.4</ele><time>2026-04-08T11:22:25Z</time></trkpt><trkpt lat="45.50444676498705" lon="11.093717017177154"><ele>548.6</ele><time>2026-04-08T11:22:26Z</time></trkpt><trkpt lat="45.50444655152946" lon="11.093851958857533"><ele>549.8</ele><time>2026-04-08T11:22:27Z</time></trkpt><trkpt lat="45.504435604935836" lon="11.093956716372396"><ele>551.0</ele><time>2026-04-08T11:22:28Z</time></trkpt><trkpt lat="45.50438983507963" lon="11.094026890946841"><ele>551.0</ele><time>2026-04-08T11:22:30Z</time></trkpt><trkpt lat="45.504494917368966" lon="11.094088892718132"><ele>551.0</ele><time>2026-04-08T11:22:31Z</time></trkpt><trkpt lat="45.50439255654866" lon="11.094016886701889"><ele>551.0</ele><time>2026-04-08T11:22:32Z</time></trkpt><trkpt lat="45.50455301529215" lon="11.094159562392747"><ele>551.0</ele><time>2026-04-08T11:22:57Z</time></trkpt><trkpt lat="45.50465385842102" lon="11.094164795861015"><ele>552.0</ele><time>2026-04-08T11:22:58.999Z</time></trkpt><trkpt lat="45.504697863217004" lon="11.09444424928138"><ele>553.0</ele><time>2026-04-08T11:23:01.999Z</time></trkpt><trkpt lat="45.50469779570512" lon="11.094575635718602"><ele>554.0</ele><time>2026-04-08T11:23:02.999Z</time></trkpt><trkpt lat="45.504697481692745" lon="11.094702957205609"><ele>555.0</ele><time>2026-04-08T11:23:03.999Z</time></trkpt><trkpt lat="45.50472053960956" lon="11.094839261300132"><ele>556.0</ele><time>2026-04-08T11:23:04.999Z</time></trkpt><trkpt lat="45.5047671182878" lon="11.094977729628303"><ele>557.0</ele><time>2026-04-08T11:23:05.999Z</time></trkpt><trkpt lat="45.50481393084878" lon="11.0951008610056"><ele>558.0</ele><time>2026-04-08T11:23:06.999Z</time></trkpt><trkpt lat="45.504854281351726" lon="11.095234476911306"><ele>559.0</ele><time>2026-04-08T11:23:07.999Z</time></trkpt><trkpt lat="45.504888245732154" lon="11.095381368102364"><ele>560.0</ele><time>2026-04-08T11:23:08.999Z</time></trkpt><trkpt lat="45.50492849949018" lon="11.09553116783381"><ele>560.0</ele><time>2026-04-08T11:23:09.999Z</time></trkpt><trkpt lat="45.50496300098155" lon="11.095687045481005"><ele>560.0</ele><time>2026-04-08T11:23:10.999Z</time></trkpt><trkpt lat="45.50499126505202" lon="11.095843736389025"><ele>560.0</ele><time>2026-04-08T11:23:11.999Z</time></trkpt><trkpt lat="45.5050106369271" lon="11.095955267916652"><ele>560.0</ele><time>2026-04-08T11:23:13Z</time></trkpt><trkpt lat="45.50504183304098" lon="11.096064772115845"><ele>560.0</ele><time>2026-04-08T11:23:15Z</time></trkpt><trkpt lat="45.505096808287725" lon="11.096124650376836"><ele>561.6</ele><time>2026-04-08T11:26:22Z</time></trkpt><trkpt lat="45.5051656323085" lon="11.096292232962808"><ele>563.2</ele><time>2026-04-08T11:26:24Z</time></trkpt><trkpt lat="45.505203343471486" lon="11.096409686514006"><ele>564.8</ele><time>2026-04-08T11:26:25Z</time></trkpt><trkpt lat="45.50522887869871" lon="11.096515841271003"><ele>566.4</ele><time>2026-04-08T11:26:26Z</time></trkpt><trkpt lat="45.50529276670565" lon="11.096624569251958"><ele>568.0</ele><time>2026-04-08T11:26:28Z</time></trkpt><trkpt lat="45.50541569060387" lon="11.096642695366084"><ele>568.8333333333334</ele><time>2026-04-08T11:26:30Z</time></trkpt><trkpt lat="45.50549588845097" lon="11.096612303751188"><ele>569.6666666666667</ele><time>2026-04-08T11:26:31Z</time></trkpt><trkpt lat="45.50557703672406" lon="11.096557895204466"><ele>570.5</ele><time>2026-04-08T11:26:32Z</time></trkpt><trkpt lat="45.50565363208487" lon="11.096506501465722"><ele>571.3333333333334</ele><time>2026-04-08T11:26:33Z</time></trkpt><trkpt lat="45.505733715270345" lon="11.096467854104601"><ele>572.1666666666666</ele><time>2026-04-08T11:26:34Z</time></trkpt><trkpt lat="45.5058227453321" lon="11.096423166671396"><ele>573.0</ele><time>2026-04-08T11:26:35Z</time></trkpt><trkpt lat="45.505911428602246" lon="11.096371604378634"><ele>573.0</ele><time>2026-04-08T11:26:36Z</time></trkpt><trkpt lat="45.505992458020515" lon="11.09634916395441"><ele>573.0</ele><time>2026-04-08T11:26:37Z</time></trkpt><trkpt lat="45.50609901700306" lon="11.096299316004545"><ele>573.0</ele><time>2026-04-08T11:26:39Z</time></trkpt><trkpt lat="45.50616381864994" lon="11.096340277722295"><ele>573.0</ele><time>2026-04-08T11:26:41Z</time></trkpt><trkpt lat="45.506199155220564" lon="11.096486528251399"><ele>573.0</ele><time>2026-04-08T11:26:43Z</time></trkpt><trkpt lat="45.506199802886755" lon="11.096665607381645"><ele>573.6666666666666</ele><time>2026-04-08T11:26:45Z</time></trkpt><trkpt lat="45.50620367745455" lon="11.096768397921807"><ele>574.3333333333334</ele><time>2026-04-08T11:26:46Z</time></trkpt><trkpt lat="45.50622913828737" lon="11.09686414379883"><ele>575.0</ele><time>2026-04-08T11:26:47Z</time></trkpt><trkpt lat="45.50621638906265" lon="11.097063686632554"><ele>575.6666666666667</ele><time>2026-04-08T11:26:49Z</time></trkpt><trkpt lat="45.506224567584496" lon="11.097156588729884"><ele>576.3333333333334</ele><time>2026-04-08T11:26:50Z</time></trkpt><trkpt lat="45.50624521251679" lon="11.09724992345682"><ele>577.0</ele><time>2026-04-08T11:26:51Z</time></trkpt><trkpt lat="45.50624292855384" lon="11.097363872143497"><ele>577.5</ele><time>2026-04-08T11:26:52Z</time></trkpt><trkpt lat="45.50621703462326" lon="11.097487087406456"><ele>578.0</ele><time>2026-04-08T11:26:53Z</time></trkpt><trkpt lat="45.506192283560466" lon="11.09759296065827"><ele>578.5</ele><time>2026-04-08T11:26:54Z</time></trkpt><trkpt lat="45.50616459194522" lon="11.097716360863465"><ele>579.0</ele><time>2026-04-08T11:26:55Z</time></trkpt><trkpt lat="45.50618012152424" lon="11.097819018964419"><ele>579.5</ele><time>2026-04-08T11:26:56Z</time></trkpt><trkpt lat="45.50619082512648" lon="11.097937209886044"><ele>580.0</ele><time>2026-04-08T11:26:57Z</time></trkpt><trkpt lat="45.50618008386496" lon="11.098034992752456"><ele>580.0</ele><time>2026-04-08T11:26:58Z</time></trkpt><trkpt lat="45.506175200314125" lon="11.098160480401763"><ele>580.0</ele><time>2026-04-08T11:26:59Z</time></trkpt><trkpt lat="45.50621431366326" lon="11.098237792822017"><ele>580.0</ele><time>2026-04-08T11:27:01Z</time></trkpt><trkpt lat="45.50619580763482" lon="11.09834279266315"><ele>580.0</ele><time>2026-04-08T11:27:04Z</time></trkpt><trkpt lat="45.50615985750003" lon="11.09842951090497"><ele>580.0</ele><time>2026-04-08T11:27:05Z</time></trkpt><trkpt lat="45.50612309835547" lon="11.09852090455869"><ele>580.0</ele><time>2026-04-08T11:27:06Z</time></trkpt><trkpt lat="45.506091799720565" lon="11.098606046159103"><ele>580.0</ele><time>2026-04-08T11:27:07Z</time></trkpt><trkpt lat="45.5060666227712" lon="11.098707996432726"><ele>581.6</ele><time>2026-04-08T11:27:08Z</time></trkpt><trkpt lat="45.5060223664044" lon="11.098788641788614"><ele>583.2</ele><time>2026-04-08T11:27:09Z</time></trkpt><trkpt lat="45.50594654499874" lon="11.098942625133583"><ele>584.8</ele><time>2026-04-08T11:27:10Z</time></trkpt><trkpt lat="45.505890364725595" lon="11.099068375981922"><ele>586.4</ele><time>2026-04-08T11:27:11Z</time></trkpt><trkpt lat="45.50584320573616" lon="11.099155387294223"><ele>588.0</ele><time>2026-04-08T11:27:12Z</time></trkpt><trkpt lat="45.505786465999115" lon="11.099291116107029"><ele>590.1666666666666</ele><time>2026-04-08T11:27:13Z</time></trkpt><trkpt lat="45.50573520576306" lon="11.099400676662606"><ele>592.3333333333334</ele><time>2026-04-08T11:27:14Z</time></trkpt><trkpt lat="45.50570702630278" lon="11.099501306028708"><ele>594.5</ele><time>2026-04-08T11:27:15Z</time></trkpt><trkpt lat="45.505690779643956" lon="11.099596392923642"><ele>596.6666666666667</ele><time>2026-04-08T11:27:16Z</time></trkpt><trkpt lat="45.505693892641624" lon="11.099715360142364"><ele>598.8333333333334</ele><time>2026-04-08T11:27:17Z</time></trkpt><trkpt lat="45.5056867507588" lon="11.099875502258106"><ele>601.0</ele><time>2026-04-08T11:27:18Z</time></trkpt><trkpt lat="45.5056727255855" lon="11.100030324810106"><ele>601.8333333333334</ele><time>2026-04-08T11:27:19Z</time></trkpt><trkpt lat="45.50567136639015" lon="11.100140462671792"><ele>602.6666666666667</ele><time>2026-04-08T11:27:20Z</time></trkpt><trkpt lat="45.505682969927086" lon="11.100246268409132"><ele>603.5</ele><time>2026-04-08T11:27:21Z</time></trkpt><trkpt lat="45.50571215866766" lon="11.10034999053472"><ele>604.3333333333334</ele><time>2026-04-08T11:27:22Z</time></trkpt><trkpt lat="45.50570721145671" lon="11.10047711199431"><ele>605.1666666666666</ele><time>2026-04-08T11:27:23Z</time></trkpt><trkpt lat="45.50566458863807" lon="11.100548745392976"><ele>606.0</ele><time>2026-04-08T11:27:37.999Z</time></trkpt><trkpt lat="45.505707570275426" lon="11.100637178045675"><ele>606.0</ele><time>2026-04-08T11:27:39.999Z</time></trkpt><trkpt lat="45.50573330844265" lon="11.100743939906183"><ele>606.0</ele><time>2026-04-08T11:27:41.999Z</time></trkpt><trkpt lat="45.50577399111867" lon="11.100886942926913"><ele>606.0</ele><time>2026-04-08T11:27:43.999Z</time></trkpt><trkpt lat="45.505805225514194" lon="11.1010427984458"><ele>606.0</ele><time>2026-04-08T11:27:45.999Z</time></trkpt><trkpt lat="45.50581291691863" lon="11.10115025714612"><ele>606.0</ele><time>2026-04-08T11:27:46.999Z</time></trkpt><trkpt lat="45.50581705087218" lon="11.101271805686828"><ele>604.8333333333334</ele><time>2026-04-08T11:27:47.999Z</time></trkpt><trkpt lat="45.505817771050054" lon="11.101399325051238"><ele>603.6666666666666</ele><time>2026-04-08T11:27:48.999Z</time></trkpt><trkpt lat="45.505810053312054" lon="11.101514898287395"><ele>602.5</ele><time>2026-04-08T11:27:49.999Z</time></trkpt><trkpt lat="45.50580381681285" lon="11.101634349012489"><ele>601.3333333333333</ele><time>2026-04-08T11:27:50.999Z</time></trkpt><trkpt lat="45.505790499077335" lon="11.101768424483597"><ele>600.1666666666666</ele><time>2026-04-08T11:27:51.999Z</time></trkpt><trkpt lat="45.50577368064561" lon="11.101892068868585"><ele>599.0</ele><time>2026-04-08T11:27:52.999Z</time></trkpt><trkpt lat="45.5057629638444" lon="11.10199105725908"><ele>597.2</ele><time>2026-04-08T11:27:53.999Z</time></trkpt><trkpt lat="45.50575412182549" lon="11.10216533597995"><ele>595.4</ele><time>2026-04-08T11:27:55.999Z</time></trkpt><trkpt lat="45.505718994009904" lon="11.1023223265521"><ele>593.6</ele><time>2026-04-08T11:27:57.999Z</time></trkpt><trkpt lat="45.50568766901436" lon="11.102427023084122"><ele>591.8</ele><time>2026-04-08T11:27:58.999Z</time></trkpt><trkpt lat="45.505641409919214" lon="11.102511867941162"><ele>590.0</ele><time>2026-04-08T11:27:59.999Z</time></trkpt><trkpt lat="45.50560701295038" lon="11.102589451071765"><ele>586.8</ele><time>2026-04-08T11:28:00.999Z</time></trkpt><trkpt lat="45.505559143208565" lon="11.102722766984508"><ele>583.6</ele><time>2026-04-08T11:28:02.999Z</time></trkpt><trkpt lat="45.50549021597484" lon="11.102867317116676"><ele>580.4</ele><time>2026-04-08T11:28:05Z</time></trkpt><trkpt lat="45.50549436193004" lon="11.103002066318705"><ele>577.2</ele><time>2026-04-08T11:28:07Z</time></trkpt><trkpt lat="45.50551067932136" lon="11.103094709785994"><ele>574.0</ele><time>2026-04-08T11:28:08Z</time></trkpt><trkpt lat="45.50552023076143" lon="11.103214087755951"><ele>571.0</ele><time>2026-04-08T11:28:09Z</time></trkpt><trkpt lat="45.50551442404517" lon="11.103357130670382"><ele>568.0</ele><time>2026-04-08T11:28:10Z</time></trkpt><trkpt lat="45.50550729953945" lon="11.103480967574882"><ele>565.0</ele><time>2026-04-08T11:28:11Z</time></trkpt><trkpt lat="45.50550872283774" lon="11.103597817615885"><ele>562.0</ele><time>2026-04-08T11:28:12Z</time></trkpt><trkpt lat="45.5055202857731" lon="11.103693196520537"><ele>559.0</ele><time>2026-04-08T11:28:13Z</time></trkpt><trkpt lat="45.50556713426935" lon="11.103610377148769"><ele>556.0</ele><time>2026-04-08T11:28:23Z</time></trkpt><trkpt lat="45.505596125983374" lon="11.103520677652085"><ele>556.0</ele><time>2026-04-08T11:28:25Z</time></trkpt><trkpt lat="45.5056605819965" lon="11.10342675816149"><ele>556.0</ele><time>2026-04-08T11:28:27Z</time></trkpt><trkpt lat="45.505719066583076" lon="11.103315580814055"><ele>556.0</ele><time>2026-04-08T11:28:30Z</time></trkpt><trkpt lat="45.50580210552701" lon="11.103263609300107"><ele>556.0</ele><time>2026-04-08T11:28:32Z</time></trkpt><trkpt lat="45.50589168089618" lon="11.10321412691209"><ele>556.0</ele><time>2026-04-08T11:28:34Z</time></trkpt><trkpt lat="45.50595553969162" lon="11.103181726971913"><ele>556.0</ele><time>2026-04-08T11:28:37Z</time></trkpt><trkpt lat="45.50591835383942" lon="11.103313241470744"><ele>556.0</ele><time>2026-04-08T11:28:52Z</time></trkpt><trkpt lat="45.50586271122989" lon="11.10344019179344"><ele>556.0</ele><time>2026-04-08T11:28:54Z</time></trkpt><trkpt lat="45.5058512269176" lon="11.103567822301851"><ele>556.0</ele><time>2026-04-08T11:28:57Z</time></trkpt><trkpt lat="45.50586222581195" lon="11.10367223980673"><ele>556.0</ele><time>2026-04-08T11:28:59Z</time></trkpt><trkpt lat="45.50588107852517" lon="11.103808575423454"><ele>556.0</ele><time>2026-04-08T11:29:01Z</time></trkpt><trkpt lat="45.505934308330666" lon="11.103918413943136"><ele>556.0</ele><time>2026-04-08T11:29:03Z</time></trkpt><trkpt lat="45.50599214827719" lon="11.104068414000809"><ele>556.0</ele><time>2026-04-08T11:29:05Z</time></trkpt><trkpt lat="45.50603641306613" lon="11.104138107118441"><ele>556.0</ele><time>2026-04-08T11:29:06Z</time></trkpt><trkpt lat="45.506064046120315" lon="11.104279839803585"><ele>556.0</ele><time>2026-04-08T11:29:08Z</time></trkpt><trkpt lat="45.50608131330828" lon="11.104379169437077"><ele>556.0</ele><time>2026-04-08T11:29:09Z</time></trkpt><trkpt lat="45.50609336392794" lon="11.104480131537063"><ele>556.0</ele><time>2026-04-08T11:29:10Z</time></trkpt><trkpt lat="45.506115561533846" lon="11.10462583751011"><ele>555.4</ele><time>2026-04-08T11:29:12Z</time></trkpt><trkpt lat="45.50612545165821" lon="11.104747354615522"><ele>554.8</ele><time>2026-04-08T11:29:14Z</time></trkpt><trkpt lat="45.50614329050259" lon="11.104898468376339"><ele>554.1999999999999</ele><time>2026-04-08T11:29:16Z</time></trkpt><trkpt lat="45.50615448566622" lon="11.105053633406385"><ele>553.6</ele><time>2026-04-08T11:29:18Z</time></trkpt><trkpt lat="45.506187551183125" lon="11.105209840498343"><ele>553.0</ele><time>2026-04-08T11:29:20Z</time></trkpt><trkpt lat="45.50620443511664" lon="11.10530368615582"><ele>552.1666666666667</ele><time>2026-04-08T11:29:22Z</time></trkpt><trkpt lat="45.50621184122363" lon="11.105421434282313"><ele>551.3333333333334</ele><time>2026-04-08T11:29:26Z</time></trkpt><trkpt lat="45.5062406121438" lon="11.105521875966893"><ele>550.5</ele><time>2026-04-08T11:29:28Z</time></trkpt><trkpt lat="45.50631576250566" lon="11.105569393356621"><ele>549.6666666666666</ele><time>2026-04-08T11:29:30.998Z</time></trkpt><trkpt lat="45.50633559040596" lon="11.10567994612746"><ele>548.8333333333333</ele><time>2026-04-08T11:29:38.998Z</time></trkpt><trkpt lat="45.50627392197304" lon="11.105802628389817"><ele>548.0</ele><time>2026-04-08T11:29:41.998Z</time></trkpt><trkpt lat="45.506223456563404" lon="11.105868789838048"><ele>545.1999999999999</ele><time>2026-04-08T11:29:43.998Z</time></trkpt><trkpt lat="45.506211325121726" lon="11.10597079448199"><ele>542.4</ele><time>2026-04-08T11:29:45.998Z</time></trkpt><trkpt lat="45.50621236358391" lon="11.106072900618885"><ele>539.5999999999999</ele><time>2026-04-08T11:29:47.998Z</time></trkpt><trkpt lat="45.50617274708861" lon="11.106231533417365"><ele>536.8</ele><time>2026-04-08T11:29:49.999Z</time></trkpt><trkpt lat="45.50608759655686" lon="11.106327157685243"><ele>534.0</ele><time>2026-04-08T11:29:51.999Z</time></trkpt><trkpt lat="45.50600035182017" lon="11.106419567947775"><ele>534.0</ele><time>2026-04-08T11:29:53.999Z</time></trkpt><trkpt lat="45.50596516689295" lon="11.1065129139025"><ele>534.0</ele><time>2026-04-08T11:31:30Z</time></trkpt><trkpt lat="45.50587968330754" lon="11.106525069328857"><ele>534.0</ele><time>2026-04-08T11:31:33Z</time></trkpt><trkpt lat="45.505813923777055" lon="11.106510508261145"><ele>534.0</ele><time>2026-04-08T11:31:35Z</time></trkpt><trkpt lat="45.50571895087401" lon="11.106511665830276"><ele>534.0</ele><time>2026-04-08T11:31:37.997Z</time></trkpt><trkpt lat="45.50564058191066" lon="11.106502922608021"><ele>534.0</ele><time>2026-04-08T11:31:39.997Z</time></trkpt><trkpt lat="45.50554030754931" lon="11.106542101031158"><ele>534.0</ele><time>2026-04-08T11:31:41.998Z</time></trkpt><trkpt lat="45.50547094360906" lon="11.106574446290361"><ele>534.0</ele><time>2026-04-08T11:31:43.998Z</time></trkpt><trkpt lat="45.50542267397499" lon="11.106497181350239"><ele>534.0</ele><time>2026-04-08T11:31:46.998Z</time></trkpt><trkpt lat="45.505374731705885" lon="11.106564218753883"><ele>534.0</ele><time>2026-04-08T11:31:49.998Z</time></trkpt><trkpt lat="45.505359698145284" lon="11.106676069531169"><ele>534.0</ele><time>2026-04-08T11:31:51.998Z</time></trkpt><trkpt lat="45.50535483485533" lon="11.106779192035525"><ele>534.0</ele><time>2026-04-08T11:31:52.998Z</time></trkpt><trkpt lat="45.5053529652168" lon="11.106903548491683"><ele>532.1428571428572</ele><time>2026-04-08T11:31:53.998Z</time></trkpt><trkpt lat="45.505357139156345" lon="11.10699946260452"><ele>530.2857142857143</ele><time>2026-04-08T11:31:54.998Z</time></trkpt><trkpt lat="45.50538560573965" lon="11.107088431091412"><ele>528.4285714285714</ele><time>2026-04-08T11:31:56.999Z</time></trkpt><trkpt lat="45.50546185972276" lon="11.107155320583102"><ele>526.5714285714287</ele><time>2026-04-08T11:31:58.999Z</time></trkpt><trkpt lat="45.50552137232058" lon="11.107208248914526"><ele>524.7142857142858</ele><time>2026-04-08T11:31:59.999Z</time></trkpt><trkpt lat="45.50557946369682" lon="11.107264795984708"><ele>522.8571428571429</ele><time>2026-04-08T11:32:00.999Z</time></trkpt><trkpt lat="45.50563375078419" lon="11.107322485156411"><ele>521.0</ele><time>2026-04-08T11:32:01.999Z</time></trkpt><trkpt lat="45.50569742367567" lon="11.10736365327571"><ele>521.0</ele><time>2026-04-08T11:32:02.999Z</time></trkpt><trkpt lat="45.505760506472726" lon="11.107405210355108"><ele>521.0</ele><time>2026-04-08T11:32:03.999Z</time></trkpt><trkpt lat="45.50585068128861" lon="11.10750857701806"><ele>521.0</ele><time>2026-04-08T11:32:05.999Z</time></trkpt><trkpt lat="45.505927888870026" lon="11.10759705317523"><ele>521.0</ele><time>2026-04-08T11:32:07.999Z</time></trkpt><trkpt lat="45.505991021111946" lon="11.107653071659108"><ele>521.0</ele><time>2026-04-08T11:32:09.999Z</time></trkpt><trkpt lat="45.506074562953955" lon="11.107697311266977"><ele>521.0</ele><time>2026-04-08T11:32:12.999Z</time></trkpt><trkpt lat="45.506139553464244" lon="11.107717392313681"><ele>517.0</ele><time>2026-04-08T11:32:15.999Z</time></trkpt><trkpt lat="45.506234923375615" lon="11.107752558406837"><ele>513.0</ele><time>2026-04-08T11:32:18.999Z</time></trkpt><trkpt lat="45.506334266114386" lon="11.10776295887663"><ele>509.0</ele><time>2026-04-08T11:32:20.999Z</time></trkpt><trkpt lat="45.506410175215635" lon="11.107808538279302"><ele>505.0</ele><time>2026-04-08T11:32:22.999Z</time></trkpt><trkpt lat="45.50644498178385" lon="11.107898555874677"><ele>500.99999999999994</ele><time>2026-04-08T11:32:25.999Z</time></trkpt><trkpt lat="45.506498884253894" lon="11.107847065196738"><ele>497.0</ele><time>2026-04-08T11:32:31Z</time></trkpt><trkpt lat="45.50639133002415" lon="11.10781792547233"><ele>496.99999999999994</ele><time>2026-04-08T11:32:37Z</time></trkpt><trkpt lat="45.50629482011211" lon="11.107788066667771"><ele>497.0</ele><time>2026-04-08T11:32:39Z</time></trkpt><trkpt lat="45.50623400626487" lon="11.107761397283205"><ele>497.0</ele><time>2026-04-08T11:32:40Z</time></trkpt><trkpt lat="45.50613013463053" lon="11.107745631072913"><ele>497.0</ele><time>2026-04-08T11:32:42Z</time></trkpt><trkpt lat="45.50602433184258" lon="11.107717763357915"><ele>496.99999999999994</ele><time>2026-04-08T11:32:44Z</time></trkpt><trkpt lat="45.50596247377075" lon="11.107673896907176"><ele>497.0</ele><time>2026-04-08T11:32:45Z</time></trkpt><trkpt lat="45.50587288952848" lon="11.107562509791663"><ele>496.99999999999994</ele><time>2026-04-08T11:32:47Z</time></trkpt><trkpt lat="45.50582905136019" lon="11.107490798405218"><ele>497.0</ele><time>2026-04-08T11:32:48Z</time></trkpt><trkpt lat="45.50578651691129" lon="11.107422486596914"><ele>497.0</ele><time>2026-04-08T11:32:49Z</time></trkpt><trkpt lat="45.505731412185426" lon="11.107359710361957"><ele>497.0</ele><time>2026-04-08T11:32:50Z</time></trkpt><trkpt lat="45.50565377682771" lon="11.107318422930643"><ele>496.99999999999994</ele><time>2026-04-08T11:32:51Z</time></trkpt><trkpt lat="45.50553710248286" lon="11.107313343131914"><ele>497.0</ele><time>2026-04-08T11:32:53Z</time></trkpt><trkpt lat="45.505423357183524" lon="11.10732065573535"><ele>499.16666666666663</ele><time>2026-04-08T11:32:55Z</time></trkpt><trkpt lat="45.50535248507603" lon="11.10733462792908"><ele>501.3333333333333</ele><time>2026-04-08T11:32:56Z</time></trkpt><trkpt lat="45.505238817288195" lon="11.10731367262805"><ele>503.5</ele><time>2026-04-08T11:32:58Z</time></trkpt><trkpt lat="45.5051732569219" lon="11.107271656514593"><ele>505.66666666666663</ele><time>2026-04-08T11:32:59Z</time></trkpt><trkpt lat="45.50511003637054" lon="11.107223919250135"><ele>507.8333333333333</ele><time>2026-04-08T11:33:00Z</time></trkpt><trkpt lat="45.50504703586143" lon="11.107174638739101"><ele>510.0</ele><time>2026-04-08T11:33:01Z</time></trkpt><trkpt lat="45.50499521560378" lon="11.107118550485453"><ele>510.0</ele><time>2026-04-08T11:33:02Z</time></trkpt><trkpt lat="45.504945577784575" lon="11.107044530284085"><ele>510.0</ele><time>2026-04-08T11:33:04Z</time></trkpt><trkpt lat="45.50489503627692" lon="11.106938821201389"><ele>510.0</ele><time>2026-04-08T11:33:06Z</time></trkpt><trkpt lat="45.50480963936342" lon="11.106904889015258"><ele>510.0</ele><time>2026-04-08T11:33:09Z</time></trkpt><trkpt lat="45.50472866437601" lon="11.106895140052151"><ele>510.0</ele><time>2026-04-08T11:33:24Z</time></trkpt><trkpt lat="45.504658593668246" lon="11.106871444623877"><ele>510.0</ele><time>2026-04-08T11:33:26Z</time></trkpt><trkpt lat="45.5045965158831" lon="11.106846072625531"><ele>510.0</ele><time>2026-04-08T11:33:31.001Z</time></trkpt><trkpt lat="45.504655102913894" lon="11.106924870332852"><ele>510.0</ele><time>2026-04-08T11:33:37.001Z</time></trkpt><trkpt lat="45.50473960403387" lon="11.106926249432469"><ele>510.0</ele><time>2026-04-08T11:33:39.001Z</time></trkpt><trkpt lat="45.50486301185549" lon="11.10693399625187"><ele>510.0</ele><time>2026-04-08T11:33:41.001Z</time></trkpt><trkpt lat="45.504929237905245" lon="11.106980469851562"><ele>510.0</ele><time>2026-04-08T11:33:42.001Z</time></trkpt><trkpt lat="45.504986733511295" lon="11.107122339133985"><ele>510.0</ele><time>2026-04-08T11:33:43.999Z</time></trkpt><trkpt lat="45.50506579477491" lon="11.107209137358778"><ele>510.0</ele><time>2026-04-08T11:33:45.999Z</time></trkpt><trkpt lat="45.50512829319636" lon="11.107247983607241"><ele>510.0</ele><time>2026-04-08T11:33:46.999Z</time></trkpt><trkpt lat="45.50520553346283" lon="11.107289263367857"><ele>510.0</ele><time>2026-04-08T11:33:47.999Z</time></trkpt><trkpt lat="45.505279471431194" lon="11.107315488736416"><ele>510.0</ele><time>2026-04-08T11:33:48.999Z</time></trkpt><trkpt lat="45.50535989697717" lon="11.107320748944158"><ele>510.0</ele><time>2026-04-08T11:33:49.999Z</time></trkpt><trkpt lat="45.50549629557124" lon="11.107313023583067"><ele>510.0</ele><time>2026-04-08T11:33:51.999Z</time></trkpt><trkpt lat="45.50556037265225" lon="11.107305956311782"><ele>510.00000000000006</ele><time>2026-04-08T11:33:52.999Z</time></trkpt><trkpt lat="45.50562427032155" lon="11.107321556513925"><ele>510.0</ele><time>2026-04-08T11:33:55.999Z</time></trkpt><trkpt lat="45.50555877587502" lon="11.107261405973466"><ele>510.0</ele><time>2026-04-08T11:34:21Z</time></trkpt><trkpt lat="45.50546807381461" lon="11.107204229655144"><ele>510.00000000000006</ele><time>2026-04-08T11:34:23Z</time></trkpt><trkpt lat="45.505418305206895" lon="11.107149215180112"><ele>510.0</ele><time>2026-04-08T11:34:24Z</time></trkpt><trkpt lat="45.50535469987085" lon="11.107109397290946"><ele>510.0</ele><time>2026-04-08T11:34:31Z</time></trkpt><trkpt lat="45.50527470791189" lon="11.107062361304271"><ele>510.0</ele><time>2026-04-08T11:34:33Z</time></trkpt><trkpt lat="45.50522453662681" lon="11.107004768791219"><ele>510.0</ele><time>2026-04-08T11:34:35Z</time></trkpt><trkpt lat="45.50515438680002" lon="11.106990313784006"><ele>510.0</ele><time>2026-04-08T11:34:38Z</time></trkpt><trkpt lat="45.505200288225055" lon="11.107094369170365"><ele>510.0</ele><time>2026-04-08T11:34:41Z</time></trkpt><trkpt lat="45.505268593760796" lon="11.107102989903646"><ele>510.0</ele><time>2026-04-08T11:34:42Z</time></trkpt><trkpt lat="45.5053542529471" lon="11.10710696987605"><ele>510.0</ele><time>2026-04-08T11:34:43Z</time></trkpt><trkpt lat="45.50545962128947" lon="11.10715971309574"><ele>511.8333333333333</ele><time>2026-04-08T11:34:45Z</time></trkpt><trkpt lat="45.505514524647594" lon="11.107208532224506"><ele>513.6666666666666</ele><time>2026-04-08T11:34:46Z</time></trkpt><trkpt lat="45.50557280978782" lon="11.10727879678482"><ele>515.5</ele><time>2026-04-08T11:34:47Z</time></trkpt><trkpt lat="45.505637319317714" lon="11.107334018928551"><ele>517.3333333333333</ele><time>2026-04-08T11:34:48Z</time></trkpt><trkpt lat="45.50569739056213" lon="11.107381146475653"><ele>519.1666666666666</ele><time>2026-04-08T11:34:49Z</time></trkpt><trkpt lat="45.50575853756767" lon="11.107420577050105"><ele>521.0</ele><time>2026-04-08T11:34:50Z</time></trkpt><trkpt lat="45.50584564132749" lon="11.107500589639308"><ele>515.0</ele><time>2026-04-08T11:34:52.001Z</time></trkpt><trkpt lat="45.50591657840525" lon="11.107601474246366"><ele>509.0</ele><time>2026-04-08T11:34:54.001Z</time></trkpt><trkpt lat="45.506013385800074" lon="11.107682657977715"><ele>503.0</ele><time>2026-04-08T11:34:56.001Z</time></trkpt><trkpt lat="45.50611080459169" lon="11.107738096816846"><ele>497.0</ele><time>2026-04-08T11:34:58.001Z</time></trkpt><trkpt lat="45.506242413874844" lon="11.107761537053767"><ele>496.3333333333333</ele><time>2026-04-08T11:35:00.001Z</time></trkpt><trkpt lat="45.50631397700817" lon="11.107767441680638"><ele>495.66666666666663</ele><time>2026-04-08T11:35:01.001Z</time></trkpt><trkpt lat="45.50641901421068" lon="11.107792179424386"><ele>495.0</ele><time>2026-04-08T11:35:03.001Z</time></trkpt><trkpt lat="45.506483721552534" lon="11.107912536374686"><ele>494.33333333333337</ele><time>2026-04-08T11:35:05.001Z</time></trkpt><trkpt lat="45.50650340626573" lon="11.108023101353158"><ele>493.6666666666667</ele><time>2026-04-08T11:35:06.001Z</time></trkpt><trkpt lat="45.50651541121663" lon="11.108137481284476"><ele>493.0</ele><time>2026-04-08T11:35:07.001Z</time></trkpt><trkpt lat="45.50653878819093" lon="11.108256641322706"><ele>490.33333333333337</ele><time>2026-04-08T11:35:08.001Z</time></trkpt><trkpt lat="45.5065648377079" lon="11.1083447470353"><ele>487.6666666666667</ele><time>2026-04-08T11:35:09.001Z</time></trkpt><trkpt lat="45.506593262451375" lon="11.108434804384263"><ele>485.0</ele><time>2026-04-08T11:35:10.001Z</time></trkpt><trkpt lat="45.50661796505549" lon="11.108523370108514"><ele>482.33333333333337</ele><time>2026-04-08T11:35:11.001Z</time></trkpt><trkpt lat="45.50663750225717" lon="11.108619766722544"><ele>479.6666666666667</ele><time>2026-04-08T11:35:12.001Z</time></trkpt><trkpt lat="45.50668262248363" lon="11.108779155537762"><ele>477.0</ele><time>2026-04-08T11:35:14.001Z</time></trkpt><trkpt lat="45.50675829664327" lon="11.108923468774208"><ele>477.0</ele><time>2026-04-08T11:35:16.001Z</time></trkpt><trkpt lat="45.50679636894568" lon="11.109003028470372"><ele>477.0</ele><time>2026-04-08T11:35:17.001Z</time></trkpt><trkpt lat="45.50684418414956" lon="11.109084342219813"><ele>477.0</ele><time>2026-04-08T11:35:18.001Z</time></trkpt><trkpt lat="45.50688218346335" lon="11.109167299209822"><ele>477.0</ele><time>2026-04-08T11:35:19.001Z</time></trkpt><trkpt lat="45.50692967606868" lon="11.10926085728063"><ele>477.0</ele><time>2026-04-08T11:35:20.001Z</time></trkpt><trkpt lat="45.5069805861221" lon="11.109340619125955"><ele>477.0</ele><time>2026-04-08T11:35:21.001Z</time></trkpt><trkpt lat="45.50703660168074" lon="11.109437619417028"><ele>472.1666666666667</ele><time>2026-04-08T11:35:22.001Z</time></trkpt><trkpt lat="45.507080138286994" lon="11.109527438951039"><ele>467.33333333333337</ele><time>2026-04-08T11:35:23.001Z</time></trkpt><trkpt lat="45.507128387459325" lon="11.10961135238588"><ele>462.5</ele><time>2026-04-08T11:35:24.001Z</time></trkpt><trkpt lat="45.50717121863544" lon="11.109702157380784"><ele>457.6666666666667</ele><time>2026-04-08T11:35:25.001Z</time></trkpt><trkpt lat="45.50719896948845" lon="11.109789841510677"><ele>452.83333333333337</ele><time>2026-04-08T11:35:26.001Z</time></trkpt><trkpt lat="45.507224927684476" lon="11.109874544190603"><ele>448.0</ele><time>2026-04-08T11:35:27.001Z</time></trkpt><trkpt lat="45.50727515482241" lon="11.110036341668128"><ele>447.59999999999997</ele><time>2026-04-08T11:35:29.001Z</time></trkpt><trkpt lat="45.50729958596923" lon="11.110200813180583"><ele>447.19999999999993</ele><time>2026-04-08T11:35:31.001Z</time></trkpt><trkpt lat="45.50729361489671" lon="11.110379860881828"><ele>446.8</ele><time>2026-04-08T11:35:33.001Z</time></trkpt><trkpt lat="45.507267455141545" lon="11.110531576330803"><ele>446.4</ele><time>2026-04-08T11:35:35.001Z</time></trkpt><trkpt lat="45.507280471522535" lon="11.11062366034805"><ele>446.0</ele><time>2026-04-08T11:35:36.001Z</time></trkpt><trkpt lat="45.50717858432536" lon="11.11066680054661"><ele>446.0</ele><time>2026-04-08T11:35:39.001Z</time></trkpt><trkpt lat="45.50712137473323" lon="11.110722601122326"><ele>446.0</ele><time>2026-04-08T11:35:40.001Z</time></trkpt><trkpt lat="45.507032271136886" lon="11.110772698656703"><ele>446.0</ele><time>2026-04-08T11:35:41.001Z</time></trkpt><trkpt lat="45.50693419218647" lon="11.110815891206371"><ele>446.0</ele><time>2026-04-08T11:35:42.001Z</time></trkpt><trkpt lat="45.50684980347124" lon="11.110871903513347"><ele>446.0</ele><time>2026-04-08T11:35:43.001Z</time></trkpt><trkpt lat="45.50676379429308" lon="11.11091633239135"><ele>448.25</ele><time>2026-04-08T11:35:44.001Z</time></trkpt><trkpt lat="45.506647356595415" lon="11.110961469066492"><ele>450.5</ele><time>2026-04-08T11:35:45.002Z</time></trkpt><trkpt lat="45.506526573927935" lon="11.110982069618123"><ele>452.75</ele><time>2026-04-08T11:35:46.002Z</time></trkpt><trkpt lat="45.50639915403177" lon="11.111022547010059"><ele>455.0</ele><time>2026-04-08T11:35:47.002Z</time></trkpt><trkpt lat="45.50627296725066" lon="11.111066752186092"><ele>455.75</ele><time>2026-04-08T11:35:48.002Z</time></trkpt><trkpt lat="45.50615050170323" lon="11.11108180548518"><ele>456.5</ele><time>2026-04-08T11:35:48.999Z</time></trkpt><trkpt lat="45.50602352304352" lon="11.111082629835764"><ele>457.25</ele><time>2026-04-08T11:35:49.999Z</time></trkpt><trkpt lat="45.50588865428302" lon="11.111053394789163"><ele>458.0</ele><time>2026-04-08T11:35:50.999Z</time></trkpt><trkpt lat="45.50574602094976" lon="11.111014537012043"><ele>458.0</ele><time>2026-04-08T11:35:51.999Z</time></trkpt><trkpt lat="45.5056062884705" lon="11.110972740175054"><ele>458.0</ele><time>2026-04-08T11:35:52.999Z</time></trkpt><trkpt lat="45.50546659430675" lon="11.110948538688739"><ele>458.0</ele><time>2026-04-08T11:35:53.999Z</time></trkpt><trkpt lat="45.50533291937067" lon="11.110902804588493"><ele>458.0</ele><time>2026-04-08T11:35:54.999Z</time></trkpt><trkpt lat="45.50518975653171" lon="11.110870542917503"><ele>459.25</ele><time>2026-04-08T11:35:55.999Z</time></trkpt><trkpt lat="45.505054895844836" lon="11.110787210333221"><ele>460.5</ele><time>2026-04-08T11:35:56.999Z</time></trkpt><trkpt lat="45.50491530389055" lon="11.110717201712774"><ele>461.75</ele><time>2026-04-08T11:35:57.999Z</time></trkpt><trkpt lat="45.50477568456328" lon="11.110642691101186"><ele>463.0</ele><time>2026-04-08T11:35:58.999Z</time></trkpt><trkpt lat="45.50465223680657" lon="11.110565883702728"><ele>460.4</ele><time>2026-04-08T11:35:59.999Z</time></trkpt><trkpt lat="45.50456660908326" lon="11.110476944161075"><ele>457.79999999999995</ele><time>2026-04-08T11:36:00.999Z</time></trkpt><trkpt lat="45.50449835150878" lon="11.110361013086736"><ele>455.2</ele><time>2026-04-08T11:36:01.999Z</time></trkpt><trkpt lat="45.504452479680594" lon="11.110224372965297"><ele>452.6</ele><time>2026-04-08T11:36:02.999Z</time></trkpt><trkpt lat="45.50439335086501" lon="11.11007636810307"><ele>450.0</ele><time>2026-04-08T11:36:03.999Z</time></trkpt><trkpt lat="45.504315934588384" lon="11.10993255871579"><ele>450.75</ele><time>2026-04-08T11:36:04.999Z</time></trkpt><trkpt lat="45.5042540639177" lon="11.109762323754662"><ele>451.5</ele><time>2026-04-08T11:36:05.999Z</time></trkpt><trkpt lat="45.50418070114777" lon="11.10962561666985"><ele>452.25</ele><time>2026-04-08T11:36:06.999Z</time></trkpt><trkpt lat="45.5041144395342" lon="11.109489423019497"><ele>453.0</ele><time>2026-04-08T11:36:07.999Z</time></trkpt><trkpt lat="45.504059261681974" lon="11.10935332892158"><ele>453.0</ele><time>2026-04-08T11:36:08.999Z</time></trkpt><trkpt lat="45.504017190601644" lon="11.109210838629304"><ele>453.0</ele><time>2026-04-08T11:36:09.999Z</time></trkpt><trkpt lat="45.50397970063128" lon="11.109075076846178"><ele>453.0</ele><time>2026-04-08T11:36:10.999Z</time></trkpt><trkpt lat="45.503900598534706" lon="11.108813437052378"><ele>453.0</ele><time>2026-04-08T11:36:13Z</time></trkpt><trkpt lat="45.50385578629366" lon="11.108694244130106"><ele>452.0</ele><time>2026-04-08T11:36:14Z</time></trkpt><trkpt lat="45.503801736305554" lon="11.108571289301622"><ele>450.99999999999994</ele><time>2026-04-08T11:36:15Z</time></trkpt><trkpt lat="45.50374873133319" lon="11.108465851739478"><ele>449.99999999999994</ele><time>2026-04-08T11:36:16Z</time></trkpt><trkpt lat="45.503675756805855" lon="11.10836232770265"><ele>449.0</ele><time>2026-04-08T11:36:17Z</time></trkpt><trkpt lat="45.50359634983925" lon="11.108291927205446"><ele>448.0</ele><time>2026-04-08T11:36:18Z</time></trkpt><trkpt lat="45.503512239001495" lon="11.108249115771194"><ele>451.79999999999995</ele><time>2026-04-08T11:36:19Z</time></trkpt><trkpt lat="45.50341951584032" lon="11.108237628294827"><ele>455.59999999999997</ele><time>2026-04-08T11:36:20Z</time></trkpt><trkpt lat="45.5033186702373" lon="11.108203198078165"><ele>459.40000000000003</ele><time>2026-04-08T11:36:21Z</time></trkpt><trkpt lat="45.50320119629068" lon="11.108182636218828"><ele>463.20000000000005</ele><time>2026-04-08T11:36:22Z</time></trkpt><trkpt lat="45.50307365210664" lon="11.108155990279844"><ele>467.0</ele><time>2026-04-08T11:36:23Z</time></trkpt><trkpt lat="45.5029377910196" lon="11.108127422034388"><ele>465.0</ele><time>2026-04-08T11:36:24Z</time></trkpt><trkpt lat="45.50279556053274" lon="11.108113525455536"><ele>463.0</ele><time>2026-04-08T11:36:25Z</time></trkpt><trkpt lat="45.50266200832689" lon="11.108087171527613"><ele>461.0</ele><time>2026-04-08T11:36:26Z</time></trkpt><trkpt lat="45.5025349373531" lon="11.108056205714664"><ele>459.0</ele><time>2026-04-08T11:36:27Z</time></trkpt><trkpt lat="45.50241487572225" lon="11.10799075484992"><ele>459.0</ele><time>2026-04-08T11:36:28Z</time></trkpt><trkpt lat="45.502300995794975" lon="11.107952452679488"><ele>459.0</ele><time>2026-04-08T11:36:29Z</time></trkpt><trkpt lat="45.50219376107857" lon="11.107951173684343"><ele>459.0</ele><time>2026-04-08T11:36:30Z</time></trkpt><trkpt lat="45.50207334380053" lon="11.107952440581043"><ele>459.0</ele><time>2026-04-08T11:36:31Z</time></trkpt><trkpt lat="45.50194406765555" lon="11.107964496281427"><ele>457.75</ele><time>2026-04-08T11:36:32Z</time></trkpt><trkpt lat="45.501808839742125" lon="11.107976994876656"><ele>456.5</ele><time>2026-04-08T11:36:33Z</time></trkpt><trkpt lat="45.50166094001022" lon="11.107954142420185"><ele>455.25</ele><time>2026-04-08T11:36:34Z</time></trkpt><trkpt lat="45.50151406946125" lon="11.10796756924079"><ele>454.0</ele><time>2026-04-08T11:36:35Z</time></trkpt><trkpt lat="45.501374743441495" lon="11.107962493986465"><ele>455.75</ele><time>2026-04-08T11:36:36Z</time></trkpt><trkpt lat="45.50124399910207" lon="11.107977608841821"><ele>457.5</ele><time>2026-04-08T11:36:37Z</time></trkpt><trkpt lat="45.50110685075468" lon="11.107991932432943"><ele>459.25</ele><time>2026-04-08T11:36:38Z</time></trkpt><trkpt lat="45.50097150958766" lon="11.108074430612362"><ele>461.0</ele><time>2026-04-08T11:36:39Z</time></trkpt><trkpt lat="45.50083314609247" lon="11.10812274471801"><ele>461.0</ele><time>2026-04-08T11:36:40Z</time></trkpt><trkpt lat="45.50070491456199" lon="11.108197300373432"><ele>461.0</ele><time>2026-04-08T11:36:41Z</time></trkpt><trkpt lat="45.500582689256454" lon="11.108276040437541"><ele>461.0</ele><time>2026-04-08T11:36:42Z</time></trkpt><trkpt lat="45.50046240561231" lon="11.108358323777706"><ele>461.0</ele><time>2026-04-08T11:36:43Z</time></trkpt><trkpt lat="45.50033911741533" lon="11.108452153560508"><ele>457.0</ele><time>2026-04-08T11:36:44Z</time></trkpt><trkpt lat="45.50022418004896" lon="11.108567510007166"><ele>453.0</ele><time>2026-04-08T11:36:45Z</time></trkpt><trkpt lat="45.50011427063344" lon="11.108682165846602"><ele>449.0</ele><time>2026-04-08T11:36:46Z</time></trkpt><trkpt lat="45.5000068724447" lon="11.108777997978095"><ele>445.0</ele><time>2026-04-08T11:36:47Z</time></trkpt><trkpt lat="45.499916846824675" lon="11.108884005645832"><ele>445.0</ele><time>2026-04-08T11:36:48.001Z</time></trkpt><trkpt lat="45.499839428056895" lon="11.108994429942884"><ele>445.0</ele><time>2026-04-08T11:36:49.001Z</time></trkpt><trkpt lat="45.499754403725944" lon="11.109071050057132"><ele>445.0</ele><time>2026-04-08T11:36:50.001Z</time></trkpt><trkpt lat="45.499662083765486" lon="11.109127669958728"><ele>445.0</ele><time>2026-04-08T11:36:51.001Z</time></trkpt><trkpt lat="45.49954954325584" lon="11.109155078768957"><ele>445.0</ele><time>2026-04-08T11:36:52.001Z</time></trkpt><trkpt lat="45.499434024699006" lon="11.109210300951103"><ele>442.5</ele><time>2026-04-08T11:36:53.001Z</time></trkpt><trkpt lat="45.499322877445074" lon="11.109298542725787"><ele>440.0</ele><time>2026-04-08T11:36:54.001Z</time></trkpt><trkpt lat="45.499209765982" lon="11.109376079928683"><ele>437.5</ele><time>2026-04-08T11:36:55.001Z</time></trkpt><trkpt lat="45.49909102334699" lon="11.109434514610491"><ele>435.0</ele><time>2026-04-08T11:36:56.001Z</time></trkpt><trkpt lat="45.49897332659421" lon="11.109443399966262"><ele>435.0</ele><time>2026-04-08T11:36:57.001Z</time></trkpt><trkpt lat="45.498852763814476" lon="11.10940758687929"><ele>435.0</ele><time>2026-04-08T11:36:58.001Z</time></trkpt><trkpt lat="45.49872413441353" lon="11.10934762764894"><ele>435.0</ele><time>2026-04-08T11:36:59.001Z</time></trkpt><trkpt lat="45.49859137415871" lon="11.109289205992344"><ele>435.0</ele><time>2026-04-08T11:37:00.001Z</time></trkpt><trkpt lat="45.49847795367115" lon="11.109255797314235"><ele>435.6</ele><time>2026-04-08T11:37:01.001Z</time></trkpt><trkpt lat="45.49837715898391" lon="11.109251461435104"><ele>436.2</ele><time>2026-04-08T11:37:02.001Z</time></trkpt><trkpt lat="45.498282489272135" lon="11.109280757382084"><ele>436.79999999999995</ele><time>2026-04-08T11:37:03.001Z</time></trkpt><trkpt lat="45.49818940799721" lon="11.10933410210331"><ele>437.4</ele><time>2026-04-08T11:37:04.001Z</time></trkpt><trkpt lat="45.498093261485735" lon="11.10937606320232"><ele>438.0</ele><time>2026-04-08T11:37:05.001Z</time></trkpt><trkpt lat="45.49800699813924" lon="11.109381854891337"><ele>438.0</ele><time>2026-04-08T11:37:06.001Z</time></trkpt><trkpt lat="45.49793148427389" lon="11.109321352559864"><ele>437.99999999999994</ele><time>2026-04-08T11:37:07.001Z</time></trkpt><trkpt lat="45.49785468929495" lon="11.10925248661062"><ele>437.99999999999994</ele><time>2026-04-08T11:37:08.001Z</time></trkpt><trkpt lat="45.49777413475287" lon="11.109162633772176"><ele>438.0</ele><time>2026-04-08T11:37:09.001Z</time></trkpt><trkpt lat="45.49771504797176" lon="11.109024206498207"><ele>438.0</ele><time>2026-04-08T11:37:10.001Z</time></trkpt><trkpt lat="45.49768176588035" lon="11.108879639743583"><ele>434.59999999999997</ele><time>2026-04-08T11:37:11.001Z</time></trkpt><trkpt lat="45.497703087474235" lon="11.108734362772822"><ele>431.19999999999993</ele><time>2026-04-08T11:37:12.001Z</time></trkpt><trkpt lat="45.49771643749377" lon="11.108609238901785"><ele>427.8</ele><time>2026-04-08T11:37:13.001Z</time></trkpt><trkpt lat="45.49771626489211" lon="11.108496952006158"><ele>424.4</ele><time>2026-04-08T11:37:14.001Z</time></trkpt><trkpt lat="45.49773374722339" lon="11.108380234250102"><ele>421.0</ele><time>2026-04-08T11:37:16.001Z</time></trkpt><trkpt lat="45.49771436878466" lon="11.108244541721513"><ele>421.6</ele><time>2026-04-08T11:37:24.001Z</time></trkpt><trkpt lat="45.497772524223855" lon="11.108165137356616"><ele>422.20000000000005</ele><time>2026-04-08T11:37:25.001Z</time></trkpt><trkpt lat="45.49779933862482" lon="11.108048572217152"><ele>422.79999999999995</ele><time>2026-04-08T11:37:26.001Z</time></trkpt><trkpt lat="45.49782100094841" lon="11.10792191251577"><ele>423.4</ele><time>2026-04-08T11:37:27.001Z</time></trkpt><trkpt lat="45.49782804252235" lon="11.107760008242025"><ele>424.0</ele><time>2026-04-08T11:37:28.001Z</time></trkpt><trkpt lat="45.49781291186331" lon="11.107589454750991"><ele>424.0</ele><time>2026-04-08T11:37:29.001Z</time></trkpt><trkpt lat="45.49776762176867" lon="11.107420662225854"><ele>424.0</ele><time>2026-04-08T11:37:30.001Z</time></trkpt><trkpt lat="45.49769483850184" lon="11.107273634149625"><ele>424.0</ele><time>2026-04-08T11:37:31.001Z</time></trkpt><trkpt lat="45.49761182949753" lon="11.10714813846476"><ele>424.0</ele><time>2026-04-08T11:37:32.001Z</time></trkpt><trkpt lat="45.497505731719286" lon="11.107045218666826"><ele>427.5</ele><time>2026-04-08T11:37:33.002Z</time></trkpt><trkpt lat="45.497386141161996" lon="11.106955649609315"><ele>431.0</ele><time>2026-04-08T11:37:34.002Z</time></trkpt><trkpt lat="45.49727527835889" lon="11.10688050389778"><ele>434.5</ele><time>2026-04-08T11:37:35.002Z</time></trkpt><trkpt lat="45.49717852380615" lon="11.106793693113628"><ele>438.0</ele><time>2026-04-08T11:37:36.002Z</time></trkpt><trkpt lat="45.497109289638686" lon="11.106683509480492"><ele>437.5</ele><time>2026-04-08T11:37:37.002Z</time></trkpt><trkpt lat="45.49706071943534" lon="11.106554171643193"><ele>437.0</ele><time>2026-04-08T11:37:38.002Z</time></trkpt><trkpt lat="45.497040531822144" lon="11.10640977452795"><ele>436.5</ele><time>2026-04-08T11:37:39.002Z</time></trkpt><trkpt lat="45.4970337021441" lon="11.106236415214719"><ele>436.0</ele><time>2026-04-08T11:37:40.002Z</time></trkpt><trkpt lat="45.49702539080448" lon="11.106053045244069"><ele>436.00000000000006</ele><time>2026-04-08T11:37:41.002Z</time></trkpt><trkpt lat="45.49699733750555" lon="11.10589221299099"><ele>436.0</ele><time>2026-04-08T11:37:42.002Z</time></trkpt><trkpt lat="45.496962687978254" lon="11.105758352928246"><ele>436.0</ele><time>2026-04-08T11:37:43.002Z</time></trkpt><trkpt lat="45.49692841083894" lon="11.105660738139163"><ele>436.0</ele><time>2026-04-08T11:37:44.002Z</time></trkpt><trkpt lat="45.49689322863636" lon="11.105580920094939"><ele>436.00000000000006</ele><time>2026-04-08T11:37:45.002Z</time></trkpt><trkpt lat="45.496833842615544" lon="11.105532530786089"><ele>436.0</ele><time>2026-04-08T11:37:46.002Z</time></trkpt><trkpt lat="45.496756086825826" lon="11.105551183377829"><ele>436.0</ele><time>2026-04-08T11:37:47.002Z</time></trkpt><trkpt lat="45.49671089183458" lon="11.10566034738833"><ele>436.0</ele><time>2026-04-08T11:37:48.002Z</time></trkpt><trkpt lat="45.49665341205445" lon="11.105779418611494"><ele>436.0</ele><time>2026-04-08T11:37:49.002Z</time></trkpt><trkpt lat="45.49659282430922" lon="11.105883654326965"><ele>436.0</ele><time>2026-04-08T11:37:50.002Z</time></trkpt><trkpt lat="45.49650044232223" lon="11.105962533192876"><ele>436.0</ele><time>2026-04-08T11:37:51.002Z</time></trkpt><trkpt lat="45.49640090725534" lon="11.106017479818805"><ele>436.0</ele><time>2026-04-08T11:37:52.002Z</time></trkpt><trkpt lat="45.49628823319197" lon="11.106059496185615"><ele>436.0</ele><time>2026-04-08T11:37:53.002Z</time></trkpt><trkpt lat="45.49616274843836" lon="11.106083410785914"><ele>436.0</ele><time>2026-04-08T11:37:54.002Z</time></trkpt><trkpt lat="45.49602289938728" lon="11.106105752167917"><ele>436.0</ele><time>2026-04-08T11:37:54.998Z</time></trkpt><trkpt lat="45.49588336376502" lon="11.10612253638262"><ele>436.25</ele><time>2026-04-08T11:37:55.998Z</time></trkpt><trkpt lat="45.49575787090661" lon="11.10611894039161"><ele>436.5</ele><time>2026-04-08T11:37:56.998Z</time></trkpt><trkpt lat="45.49562744547948" lon="11.106115381688161"><ele>436.75</ele><time>2026-04-08T11:37:57.998Z</time></trkpt><trkpt lat="45.49549008910699" lon="11.10611230481223"><ele>437.0</ele><time>2026-04-08T11:37:58.998Z</time></trkpt><trkpt lat="45.49534797994219" lon="11.106117158924949"><ele>437.0</ele><time>2026-04-08T11:37:59.998Z</time></trkpt><trkpt lat="45.49520929552022" lon="11.10612739513987"><ele>437.0</ele><time>2026-04-08T11:38:00.998Z</time></trkpt><trkpt lat="45.49507445883545" lon="11.106135213700412"><ele>437.0</ele><time>2026-04-08T11:38:01.998Z</time></trkpt><trkpt lat="45.494939910761296" lon="11.106143017600413"><ele>437.0</ele><time>2026-04-08T11:38:02.998Z</time></trkpt><trkpt lat="45.49480758042387" lon="11.106152113778835"><ele>437.0</ele><time>2026-04-08T11:38:03.999Z</time></trkpt><trkpt lat="45.49467383823627" lon="11.106168030404287"><ele>437.0</ele><time>2026-04-08T11:38:04.999Z</time></trkpt><trkpt lat="45.494546987537916" lon="11.106184170674332"><ele>437.0</ele><time>2026-04-08T11:38:05.999Z</time></trkpt><trkpt lat="45.494423941555475" lon="11.106199826811574"><ele>437.0</ele><time>2026-04-08T11:38:06.999Z</time></trkpt><trkpt lat="45.49430049037401" lon="11.10623764902398"><ele>438.5</ele><time>2026-04-08T11:38:07.999Z</time></trkpt><trkpt lat="45.494175306977894" lon="11.106244231928793"><ele>440.0</ele><time>2026-04-08T11:38:08.999Z</time></trkpt><trkpt lat="45.49405073350747" lon="11.106266487018015"><ele>441.5</ele><time>2026-04-08T11:38:09.999Z</time></trkpt><trkpt lat="45.49392889274982" lon="11.106263257349243"><ele>443.0</ele><time>2026-04-08T11:38:10.999Z</time></trkpt><trkpt lat="45.49379518539802" lon="11.10628583820514"><ele>444.5</ele><time>2026-04-08T11:38:11.999Z</time></trkpt><trkpt lat="45.49366887418347" lon="11.106331157048059"><ele>446.0</ele><time>2026-04-08T11:38:12.999Z</time></trkpt><trkpt lat="45.49354293635616" lon="11.106328396403992"><ele>447.5</ele><time>2026-04-08T11:38:13.999Z</time></trkpt><trkpt lat="45.49341780197454" lon="11.106341321652602"><ele>449.0</ele><time>2026-04-08T11:38:14.999Z</time></trkpt><trkpt lat="45.49329263127335" lon="11.10636766954784"><ele>449.0</ele><time>2026-04-08T11:38:15.999Z</time></trkpt><trkpt lat="45.493168103148435" lon="11.106359387695132"><ele>449.0</ele><time>2026-04-08T11:38:16.999Z</time></trkpt><trkpt lat="45.49304304695132" lon="11.106354293275018"><ele>449.0</ele><time>2026-04-08T11:38:17.999Z</time></trkpt><trkpt lat="45.49291980650204" lon="11.106346062787496"><ele>449.0</ele><time>2026-04-08T11:38:18.999Z</time></trkpt><trkpt lat="45.49280321220635" lon="11.106325845134151"><ele>447.8333333333333</ele><time>2026-04-08T11:38:19.999Z</time></trkpt><trkpt lat="45.492703143604935" lon="11.106294827493464"><ele>446.66666666666663</ele><time>2026-04-08T11:38:20.999Z</time></trkpt><trkpt lat="45.49262998104448" lon="11.106217965698171"><ele>445.5</ele><time>2026-04-08T11:38:21.999Z</time></trkpt><trkpt lat="45.4925544247467" lon="11.10616771709142"><ele>444.33333333333337</ele><time>2026-04-08T11:38:22.999Z</time></trkpt><trkpt lat="45.49249806801485" lon="11.106102099815732"><ele>443.1666666666667</ele><time>2026-04-08T11:38:24Z</time></trkpt><trkpt lat="45.492450666430074" lon="11.106030739140266"><ele>442.0</ele><time>2026-04-08T11:38:25Z</time></trkpt><trkpt lat="45.49239758236359" lon="11.105970824123906"><ele>442.0</ele><time>2026-04-08T11:38:26Z</time></trkpt><trkpt lat="45.49227367664257" lon="11.10618170429877"><ele>442.0</ele><time>2026-04-08T11:38:27Z</time></trkpt><trkpt lat="45.49218133516807" lon="11.106122993517355"><ele>442.0</ele><time>2026-04-08T11:38:28Z</time></trkpt><trkpt lat="45.4921018613491" lon="11.106179202139677"><ele>442.0</ele><time>2026-04-08T11:38:29Z</time></trkpt><trkpt lat="45.492021583156934" lon="11.106192524322536"><ele>441.33333333333337</ele><time>2026-04-08T11:38:30Z</time></trkpt><trkpt lat="45.49193866960898" lon="11.10615360634839"><ele>440.6666666666667</ele><time>2026-04-08T11:38:31Z</time></trkpt><trkpt lat="45.49186197418216" lon="11.10607205699588"><ele>440.0</ele><time>2026-04-08T11:38:32Z</time></trkpt><trkpt lat="45.49179838917085" lon="11.105999028065657"><ele>439.33333333333337</ele><time>2026-04-08T11:38:33Z</time></trkpt><trkpt lat="45.491744461093695" lon="11.105916372077521"><ele>438.6666666666667</ele><time>2026-04-08T11:38:34Z</time></trkpt><trkpt lat="45.491683889452446" lon="11.105821194170076"><ele>438.0</ele><time>2026-04-08T11:38:35Z</time></trkpt><trkpt lat="45.491601871158004" lon="11.10579458625799"><ele>438.0</ele><time>2026-04-08T11:38:36Z</time></trkpt><trkpt lat="45.49151997170581" lon="11.105805714733252"><ele>437.99999999999994</ele><time>2026-04-08T11:38:37Z</time></trkpt><trkpt lat="45.49142524816106" lon="11.105795914664759"><ele>437.99999999999994</ele><time>2026-04-08T11:38:38Z</time></trkpt><trkpt lat="45.491315707753" lon="11.105717693532787"><ele>438.0</ele><time>2026-04-08T11:38:39Z</time></trkpt><trkpt lat="45.49122911298709" lon="11.105626594741732"><ele>438.0</ele><time>2026-04-08T11:38:40Z</time></trkpt><trkpt lat="45.49115191091144" lon="11.1055577042725"><ele>435.79999999999995</ele><time>2026-04-08T11:38:41Z</time></trkpt><trkpt lat="45.49106767647904" lon="11.105498811786642"><ele>433.59999999999997</ele><time>2026-04-08T11:38:42Z</time></trkpt><trkpt lat="45.490983316834324" lon="11.105414671111998"><ele>431.40000000000003</ele><time>2026-04-08T11:38:43Z</time></trkpt><trkpt lat="45.490888810514704" lon="11.105346945938717"><ele>429.20000000000005</ele><time>2026-04-08T11:38:44Z</time></trkpt><trkpt lat="45.49076722722149" lon="11.10533234504871"><ele>427.0</ele><time>2026-04-08T11:38:45Z</time></trkpt><trkpt lat="45.49064028081471" lon="11.105291560381485"><ele>427.0</ele><time>2026-04-08T11:38:46Z</time></trkpt><trkpt lat="45.49052728449596" lon="11.105273651754018"><ele>427.00000000000006</ele><time>2026-04-08T11:38:47Z</time></trkpt><trkpt lat="45.49043590752453" lon="11.10529398148496"><ele>427.00000000000006</ele><time>2026-04-08T11:38:48Z</time></trkpt><trkpt lat="45.49034870202468" lon="11.105284891889106"><ele>427.0</ele><time>2026-04-08T11:38:49Z</time></trkpt><trkpt lat="45.490251686830604" lon="11.105341544121051"><ele>427.0</ele><time>2026-04-08T11:38:50Z</time></trkpt><trkpt lat="45.490160445832714" lon="11.105369448739749"><ele>426.6666666666667</ele><time>2026-04-08T11:38:51Z</time></trkpt><trkpt lat="45.490080051539735" lon="11.105419978427907"><ele>426.33333333333337</ele><time>2026-04-08T11:38:52Z</time></trkpt><trkpt lat="45.49001110501972" lon="11.10550161584453"><ele>426.0</ele><time>2026-04-08T11:38:53Z</time></trkpt><trkpt lat="45.48995674785584" lon="11.105596022881858"><ele>425.66666666666663</ele><time>2026-04-08T11:38:54Z</time></trkpt><trkpt lat="45.48989438885601" lon="11.105616217417571"><ele>425.3333333333333</ele><time>2026-04-08T11:38:55.001Z</time></trkpt><trkpt lat="45.48981455642892" lon="11.105662679260329"><ele>425.0</ele><time>2026-04-08T11:38:56.001Z</time></trkpt><trkpt lat="45.48970667693994" lon="11.105726742496003"><ele>424.25</ele><time>2026-04-08T11:38:57.001Z</time></trkpt><trkpt lat="45.48959130851604" lon="11.105798921209857"><ele>423.5</ele><time>2026-04-08T11:38:58.001Z</time></trkpt><trkpt lat="45.48949510609295" lon="11.105862773960396"><ele>422.75</ele><time>2026-04-08T11:38:59.001Z</time></trkpt><trkpt lat="45.48938000034999" lon="11.105951929607636"><ele>422.0</ele><time>2026-04-08T11:39:00.001Z</time></trkpt><trkpt lat="45.48927568838571" lon="11.10605610693854"><ele>422.0</ele><time>2026-04-08T11:39:01.001Z</time></trkpt><trkpt lat="45.48917455807262" lon="11.106159548238807"><ele>422.0</ele><time>2026-04-08T11:39:02.001Z</time></trkpt><trkpt lat="45.48907460656191" lon="11.106242439745992"><ele>422.0</ele><time>2026-04-08T11:39:03.001Z</time></trkpt><trkpt lat="45.48896940184247" lon="11.106320069698581"><ele>422.0</ele><time>2026-04-08T11:39:04.001Z</time></trkpt><trkpt lat="45.4888797626551" lon="11.106385745040011"><ele>421.99999999999994</ele><time>2026-04-08T11:39:05.001Z</time></trkpt><trkpt lat="45.488809149227194" lon="11.106447811870261"><ele>422.0</ele><time>2026-04-08T11:39:06.001Z</time></trkpt><trkpt lat="45.48873039703054" lon="11.106483817413663"><ele>422.0</ele><time>2026-04-08T11:39:07.001Z</time></trkpt><trkpt lat="45.488647440939154" lon="11.106529153068658"><ele>422.0</ele><time>2026-04-08T11:39:08.001Z</time></trkpt><trkpt lat="45.488563271126026" lon="11.106588487256923"><ele>421.99999999999994</ele><time>2026-04-08T11:39:09.001Z</time></trkpt><trkpt lat="45.48848692701727" lon="11.10666757206729"><ele>422.0</ele><time>2026-04-08T11:39:10.001Z</time></trkpt><trkpt lat="45.488410533798124" lon="11.106730422734076"><ele>420.0</ele><time>2026-04-08T11:39:11.001Z</time></trkpt><trkpt lat="45.48833171190192" lon="11.106805870829492"><ele>418.0</ele><time>2026-04-08T11:39:12.001Z</time></trkpt><trkpt lat="45.48824710116569" lon="11.10688699047958"><ele>416.0</ele><time>2026-04-08T11:39:13.001Z</time></trkpt><trkpt lat="45.48816666686032" lon="11.106968605544047"><ele>414.0</ele><time>2026-04-08T11:39:14.001Z</time></trkpt><trkpt lat="45.48809264706629" lon="11.107042322397618"><ele>412.0</ele><time>2026-04-08T11:39:15.001Z</time></trkpt><trkpt lat="45.48804003429861" lon="11.107094671270241"><ele>407.6</ele><time>2026-04-08T11:39:16.001Z</time></trkpt><trkpt lat="45.48791754377319" lon="11.107136843902195"><ele>403.20000000000005</ele><time>2026-04-08T11:39:18.001Z</time></trkpt><trkpt lat="45.487816275706265" lon="11.10719713831559"><ele>398.8</ele><time>2026-04-08T11:39:20.001Z</time></trkpt><trkpt lat="45.487709164577495" lon="11.107227213333278"><ele>394.4</ele><time>2026-04-08T11:39:22.001Z</time></trkpt><trkpt lat="45.487647644631906" lon="11.107253565288708"><ele>390.0</ele><time>2026-04-08T11:39:23.001Z</time></trkpt><trkpt lat="45.487592913852154" lon="11.1073007654382"><ele>390.0</ele><time>2026-04-08T11:39:24.001Z</time></trkpt><trkpt lat="45.487540019859495" lon="11.107384879117092"><ele>390.0</ele><time>2026-04-08T11:39:25.001Z</time></trkpt><trkpt lat="45.48748935245022" lon="11.107467202141786"><ele>390.0</ele><time>2026-04-08T11:39:26.001Z</time></trkpt><trkpt lat="45.48742476286978" lon="11.107501308758945"><ele>390.0</ele><time>2026-04-08T11:39:27.001Z</time></trkpt><trkpt lat="45.48731512558998" lon="11.10756268913353"><ele>390.0</ele><time>2026-04-08T11:39:29.001Z</time></trkpt><trkpt lat="45.48720694241646" lon="11.107683318912914"><ele>391.0</ele><time>2026-04-08T11:39:31.001Z</time></trkpt><trkpt lat="45.487183972554604" lon="11.10782097111335"><ele>392.0</ele><time>2026-04-08T11:39:33.002Z</time></trkpt><trkpt lat="45.48715039201691" lon="11.107952253762694"><ele>393.0</ele><time>2026-04-08T11:39:35.002Z</time></trkpt><trkpt lat="45.487101903893965" lon="11.10810249396028"><ele>394.0</ele><time>2026-04-08T11:39:37.002Z</time></trkpt><trkpt lat="45.48704269436436" lon="11.108213508564983"><ele>395.0</ele><time>2026-04-08T11:39:38.002Z</time></trkpt><trkpt lat="45.487015929584636" lon="11.108319285781999"><ele>389.6</ele><time>2026-04-08T11:39:39.002Z</time></trkpt><trkpt lat="45.48704257640538" lon="11.108416433668438"><ele>384.2</ele><time>2026-04-08T11:39:40.002Z</time></trkpt><trkpt lat="45.487034248744806" lon="11.108522798553993"><ele>378.79999999999995</ele><time>2026-04-08T11:39:41.002Z</time></trkpt><trkpt lat="45.48701241353941" lon="11.108682067528099"><ele>373.4</ele><time>2026-04-08T11:39:43.002Z</time></trkpt><trkpt lat="45.48691821249237" lon="11.108809386057958"><ele>368.0</ele><time>2026-04-08T11:39:45.002Z</time></trkpt><trkpt lat="45.486841038115045" lon="11.108861194935773"><ele>368.0</ele><time>2026-04-08T11:39:47.002Z</time></trkpt><trkpt lat="45.48672560149484" lon="11.108842866687851"><ele>368.0</ele><time>2026-04-08T11:39:49.002Z</time></trkpt><trkpt lat="45.48666240980277" lon="11.108825573293194"><ele>368.0</ele><time>2026-04-08T11:39:50.002Z</time></trkpt><trkpt lat="45.4865561299016" lon="11.108814056223661"><ele>368.0</ele><time>2026-04-08T11:39:52.002Z</time></trkpt><trkpt lat="45.48648667466263" lon="11.108812470080787"><ele>368.0</ele><time>2026-04-08T11:39:53.002Z</time></trkpt><trkpt lat="45.48641888772828" lon="11.108799629998076"><ele>368.0</ele><time>2026-04-08T11:39:54.002Z</time></trkpt><trkpt lat="45.48635021349093" lon="11.10878879081307"><ele>368.0</ele><time>2026-04-08T11:39:55.002Z</time></trkpt><trkpt lat="45.486280064953" lon="11.108765003121581"><ele>368.0</ele><time>2026-04-08T11:39:56.002Z</time></trkpt><trkpt lat="45.48622212194069" lon="11.10868783369764"><ele>368.0</ele><time>2026-04-08T11:39:57.002Z</time></trkpt><trkpt lat="45.486150967431385" lon="11.10865061540359"><ele>368.0</ele><time>2026-04-08T11:39:58.002Z</time></trkpt><trkpt lat="45.486068479416986" lon="11.108613565064818"><ele>368.0</ele><time>2026-04-08T11:39:59.002Z</time></trkpt><trkpt lat="45.485978048653266" lon="11.108572526458971"><ele>368.0</ele><time>2026-04-08T11:40:00.002Z</time></trkpt><trkpt lat="45.4858871597426" lon="11.108534738954917"><ele>364.5</ele><time>2026-04-08T11:40:00.999Z</time></trkpt><trkpt lat="45.485807596668124" lon="11.108508403318394"><ele>361.0</ele><time>2026-04-08T11:40:01.999Z</time></trkpt><trkpt lat="45.485730049341015" lon="11.108489961728196"><ele>357.5</ele><time>2026-04-08T11:40:02.999Z</time></trkpt><trkpt lat="45.48565753369768" lon="11.108475610265858"><ele>354.0</ele><time>2026-04-08T11:40:03.999Z</time></trkpt><trkpt lat="45.48553869288517" lon="11.108454842583264"><ele>350.5</ele><time>2026-04-08T11:40:05.999Z</time></trkpt><trkpt lat="45.48546620773252" lon="11.108467266646574"><ele>347.0</ele><time>2026-04-08T11:40:06.999Z</time></trkpt><trkpt lat="45.485399931639165" lon="11.108448560488535"><ele>344.8571428571429</ele><time>2026-04-08T11:40:07.999Z</time></trkpt><trkpt lat="45.485330353238595" lon="11.10844927634887"><ele>342.71428571428567</ele><time>2026-04-08T11:40:08.999Z</time></trkpt><trkpt lat="45.48525966457368" lon="11.108417133416326"><ele>340.57142857142856</ele><time>2026-04-08T11:40:09.999Z</time></trkpt><trkpt lat="45.485180080588044" lon="11.108406705795174"><ele>338.42857142857144</ele><time>2026-04-08T11:40:10.999Z</time></trkpt><trkpt lat="45.4851097441517" lon="11.108421636769757"><ele>336.28571428571433</ele><time>2026-04-08T11:40:11.999Z</time></trkpt><trkpt lat="45.4850371931485" lon="11.108408360472392"><ele>334.1428571428571</ele><time>2026-04-08T11:40:12.999Z</time></trkpt><trkpt lat="45.48496592067888" lon="11.108427239091128"><ele>332.0</ele><time>2026-04-08T11:40:13.999Z</time></trkpt><trkpt lat="45.48489485002848" lon="11.108448061238528"><ele>332.0</ele><time>2026-04-08T11:40:14.999Z</time></trkpt><trkpt lat="45.484835116115626" lon="11.108478953534208"><ele>332.0</ele><time>2026-04-08T11:40:15.999Z</time></trkpt><trkpt lat="45.48477032060781" lon="11.1085011494417"><ele>332.0</ele><time>2026-04-08T11:40:16.999Z</time></trkpt><trkpt lat="45.48470672582903" lon="11.108523009937905"><ele>332.0</ele><time>2026-04-08T11:40:17.999Z</time></trkpt><trkpt lat="45.484640513838805" lon="11.108546008165552"><ele>332.0</ele><time>2026-04-08T11:40:18.999Z</time></trkpt><trkpt lat="45.48457294523005" lon="11.108574507423334"><ele>332.0</ele><time>2026-04-08T11:40:20Z</time></trkpt><trkpt lat="45.48449628199629" lon="11.108613764469288"><ele>332.0</ele><time>2026-04-08T11:40:22Z</time></trkpt><trkpt lat="45.484363190055646" lon="11.108685454682021"><ele>330.75</ele><time>2026-04-08T11:40:24Z</time></trkpt><trkpt lat="45.484273636721" lon="11.108729357025506"><ele>329.5</ele><time>2026-04-08T11:40:25Z</time></trkpt><trkpt lat="45.484168435077365" lon="11.108780422222305"><ele>328.25</ele><time>2026-04-08T11:40:26Z</time></trkpt><trkpt lat="45.48405633880322" lon="11.108853129770804"><ele>327.0</ele><time>2026-04-08T11:40:27Z</time></trkpt><trkpt lat="45.48393512575325" lon="11.108906635970499"><ele>327.0</ele><time>2026-04-08T11:40:28Z</time></trkpt><trkpt lat="45.48381528787749" lon="11.108974155764042"><ele>327.0</ele><time>2026-04-08T11:40:29Z</time></trkpt><trkpt lat="45.48370016664937" lon="11.1090189868447"><ele>327.0</ele><time>2026-04-08T11:40:30Z</time></trkpt><trkpt lat="45.48360054871237" lon="11.109043642461964"><ele>327.0</ele><time>2026-04-08T11:40:31Z</time></trkpt><trkpt lat="45.4835224132221" lon="11.109100439996839"><ele>327.0</ele><time>2026-04-08T11:40:32Z</time></trkpt><trkpt lat="45.483448807646475" lon="11.10914511979587"><ele>326.3333333333333</ele><time>2026-04-08T11:40:33Z</time></trkpt><trkpt lat="45.48337900184259" lon="11.10920729630137"><ele>325.6666666666667</ele><time>2026-04-08T11:40:34Z</time></trkpt><trkpt lat="45.48330300099348" lon="11.109240909605292"><ele>325.0</ele><time>2026-04-08T11:40:35Z</time></trkpt><trkpt lat="45.48322228971495" lon="11.109277531775605"><ele>324.33333333333337</ele><time>2026-04-08T11:40:36Z</time></trkpt><trkpt lat="45.483142265605785" lon="11.10929906656856"><ele>323.6666666666667</ele><time>2026-04-08T11:40:37Z</time></trkpt><trkpt lat="45.48305501617474" lon="11.109304200318832"><ele>323.0</ele><time>2026-04-08T11:40:38Z</time></trkpt><trkpt lat="45.4829870450972" lon="11.109295771395628"><ele>323.0</ele><time>2026-04-08T11:40:39Z</time></trkpt><trkpt lat="45.48286711575692" lon="11.109286310072761"><ele>323.0</ele><time>2026-04-08T11:40:41Z</time></trkpt><trkpt lat="45.482783630374165" lon="11.109287578283432"><ele>323.0</ele><time>2026-04-08T11:40:42Z</time></trkpt><trkpt lat="45.48269966129298" lon="11.109309777608827"><ele>323.0</ele><time>2026-04-08T11:40:43Z</time></trkpt><trkpt lat="45.482613118036255" lon="11.109319565974316"><ele>323.0</ele><time>2026-04-08T11:40:44Z</time></trkpt><trkpt lat="45.48251089092703" lon="11.109312545843295"><ele>323.0</ele><time>2026-04-08T11:40:45Z</time></trkpt><trkpt lat="45.48240413859318" lon="11.109326983907051"><ele>323.0</ele><time>2026-04-08T11:40:46Z</time></trkpt><trkpt lat="45.482284643096385" lon="11.109350506022304"><ele>323.0</ele><time>2026-04-08T11:40:47.001Z</time></trkpt><trkpt lat="45.48217253515354" lon="11.109381950919781"><ele>323.0</ele><time>2026-04-08T11:40:48.001Z</time></trkpt><trkpt lat="45.48207399951588" lon="11.109371634633794"><ele>323.0</ele><time>2026-04-08T11:40:49.001Z</time></trkpt><trkpt lat="45.48199323354995" lon="11.109382558088832"><ele>322.6666666666667</ele><time>2026-04-08T11:40:50.001Z</time></trkpt><trkpt lat="45.4819260142683" lon="11.10938873173683"><ele>322.33333333333337</ele><time>2026-04-08T11:40:51.001Z</time></trkpt><trkpt lat="45.48184651127064" lon="11.109415839358695"><ele>322.0</ele><time>2026-04-08T11:40:52.001Z</time></trkpt><trkpt lat="45.48175253063482" lon="11.109401320154774"><ele>321.6666666666667</ele><time>2026-04-08T11:40:53.001Z</time></trkpt><trkpt lat="45.481662831520985" lon="11.109384456205484"><ele>321.3333333333333</ele><time>2026-04-08T11:40:54.001Z</time></trkpt><trkpt lat="45.48155998241666" lon="11.109360993187988"><ele>321.0</ele><time>2026-04-08T11:40:55.001Z</time></trkpt><trkpt lat="45.48147126238923" lon="11.109317362650332"><ele>321.0</ele><time>2026-04-08T11:40:56.001Z</time></trkpt><trkpt lat="45.48138974400086" lon="11.109266862911296"><ele>321.0</ele><time>2026-04-08T11:40:57.001Z</time></trkpt><trkpt lat="45.48131953120545" lon="11.109217387753995"><ele>321.0</ele><time>2026-04-08T11:40:58.001Z</time></trkpt><trkpt lat="45.48124436772207" lon="11.109166234814044"><ele>321.0</ele><time>2026-04-08T11:40:59.001Z</time></trkpt><trkpt lat="45.4811689319634" lon="11.109128821661201"><ele>321.0</ele><time>2026-04-08T11:41:00.001Z</time></trkpt><trkpt lat="45.481086031580254" lon="11.10904122705394"><ele>321.0</ele><time>2026-04-08T11:41:01.001Z</time></trkpt><trkpt lat="45.48099176102249" lon="11.108968826780272"><ele>320.8333333333333</ele><time>2026-04-08T11:41:02.001Z</time></trkpt><trkpt lat="45.4809251487966" lon="11.108890689517562"><ele>320.6666666666667</ele><time>2026-04-08T11:41:03.001Z</time></trkpt><trkpt lat="45.48086274274101" lon="11.108810093033934"><ele>320.5</ele><time>2026-04-08T11:41:04.001Z</time></trkpt><trkpt lat="45.48080018350603" lon="11.108743349145964"><ele>320.33333333333337</ele><time>2026-04-08T11:41:05.001Z</time></trkpt><trkpt lat="45.48073419698923" lon="11.108690182492545"><ele>320.1666666666667</ele><time>2026-04-08T11:41:06.001Z</time></trkpt><trkpt lat="45.48068651319128" lon="11.10862634868192"><ele>320.0</ele><time>2026-04-08T11:41:07.001Z</time></trkpt><trkpt lat="45.48064900362743" lon="11.108539352146693"><ele>320.0</ele><time>2026-04-08T11:41:08.001Z</time></trkpt><trkpt lat="45.480625345810125" lon="11.108431355325594"><ele>320.0</ele><time>2026-04-08T11:41:09.001Z</time></trkpt><trkpt lat="45.480552694623114" lon="11.108334266871282"><ele>320.0</ele><time>2026-04-08T11:41:10.001Z</time></trkpt><trkpt lat="45.480495263293015" lon="11.108231537025894"><ele>320.0</ele><time>2026-04-08T11:41:11.001Z</time></trkpt><trkpt lat="45.480405239089556" lon="11.108182529082201"><ele>320.0</ele><time>2026-04-08T11:41:12.001Z</time></trkpt><trkpt lat="45.48030388948423" lon="11.108156625929409"><ele>320.83333333333337</ele><time>2026-04-08T11:41:13.001Z</time></trkpt><trkpt lat="45.48021696991471" lon="11.108124151054904"><ele>321.6666666666667</ele><time>2026-04-08T11:41:14.001Z</time></trkpt><trkpt lat="45.48014550393104" lon="11.108093852295115"><ele>322.5</ele><time>2026-04-08T11:41:15.001Z</time></trkpt><trkpt lat="45.48006545349074" lon="11.108062064655918"><ele>323.3333333333333</ele><time>2026-04-08T11:41:16.001Z</time></trkpt><trkpt lat="45.47997910989438" lon="11.108027778041498"><ele>324.16666666666663</ele><time>2026-04-08T11:41:17.001Z</time></trkpt><trkpt lat="45.47989736381367" lon="11.108000176772167"><ele>325.0</ele><time>2026-04-08T11:41:18.001Z</time></trkpt><trkpt lat="45.4797855703215" lon="11.10793937763015"><ele>325.0</ele><time>2026-04-08T11:41:19.001Z</time></trkpt><trkpt lat="45.47970031524998" lon="11.107899142912222"><ele>325.0</ele><time>2026-04-08T11:41:20.001Z</time></trkpt><trkpt lat="45.47962272018468" lon="11.107830534203035"><ele>325.0</ele><time>2026-04-08T11:41:21.002Z</time></trkpt><trkpt lat="45.47955393939075" lon="11.107783484147115"><ele>325.0</ele><time>2026-04-08T11:41:22.002Z</time></trkpt><trkpt lat="45.47947540773105" lon="11.107747675732162"><ele>325.0</ele><time>2026-04-08T11:41:23.002Z</time></trkpt><trkpt lat="45.47940027708392" lon="11.107653403850648"><ele>325.0</ele><time>2026-04-08T11:41:24.002Z</time></trkpt><trkpt lat="45.47931757675341" lon="11.107567704473652"><ele>322.4</ele><time>2026-04-08T11:41:25.002Z</time></trkpt><trkpt lat="45.479234482395846" lon="11.10748177861294"><ele>319.8</ele><time>2026-04-08T11:41:26.002Z</time></trkpt><trkpt lat="45.479175003180934" lon="11.107363952548782"><ele>317.2</ele><time>2026-04-08T11:41:27.002Z</time></trkpt><trkpt lat="45.4791218640416" lon="11.107244154572877"><ele>314.6</ele><time>2026-04-08T11:41:28.002Z</time></trkpt><trkpt lat="45.4790561056715" lon="11.10713114689956"><ele>312.0</ele><time>2026-04-08T11:41:29.002Z</time></trkpt><trkpt lat="45.4790032141801" lon="11.106991410175144"><ele>312.0</ele><time>2026-04-08T11:41:30.002Z</time></trkpt><trkpt lat="45.47893707722604" lon="11.106855594998022"><ele>312.0</ele><time>2026-04-08T11:41:31.002Z</time></trkpt><trkpt lat="45.478869816216324" lon="11.106730304746469"><ele>312.0</ele><time>2026-04-08T11:41:32.002Z</time></trkpt><trkpt lat="45.478809528582296" lon="11.106594210567197"><ele>312.0</ele><time>2026-04-08T11:41:33.002Z</time></trkpt><trkpt lat="45.47874493267269" lon="11.106460746654411"><ele>308.6</ele><time>2026-04-08T11:41:34.002Z</time></trkpt><trkpt lat="45.478692130106914" lon="11.106318023835192"><ele>305.2</ele><time>2026-04-08T11:41:35.002Z</time></trkpt><trkpt lat="45.478624655991005" lon="11.106202553861106"><ele>301.8</ele><time>2026-04-08T11:41:36.002Z</time></trkpt><trkpt lat="45.47857687800168" lon="11.106075159764355"><ele>298.4</ele><time>2026-04-08T11:41:37.002Z</time></trkpt><trkpt lat="45.478539256283206" lon="11.10595330169656"><ele>295.0</ele><time>2026-04-08T11:41:38.002Z</time></trkpt><trkpt lat="45.47849510659234" lon="11.105847869232619"><ele>295.0</ele><time>2026-04-08T11:41:39.002Z</time></trkpt><trkpt lat="45.478440825873776" lon="11.105782248292055"><ele>295.0</ele><time>2026-04-08T11:41:40.002Z</time></trkpt><trkpt lat="45.47838977303428" lon="11.105710206089846"><ele>295.0</ele><time>2026-04-08T11:41:42.002Z</time></trkpt><trkpt lat="45.47830059223903" lon="11.105684205635754"><ele>295.0</ele><time>2026-04-08T11:41:45.002Z</time></trkpt><trkpt lat="45.478206671401274" lon="11.10572602786926"><ele>295.0</ele><time>2026-04-08T11:41:47.002Z</time></trkpt><trkpt lat="45.47812872824529" lon="11.105785495748558"><ele>295.0</ele><time>2026-04-08T11:41:49.002Z</time></trkpt><trkpt lat="45.47808185374722" lon="11.105853441654862"><ele>295.0</ele><time>2026-04-08T11:41:50.002Z</time></trkpt><trkpt lat="45.478037635280266" lon="11.105940207903041"><ele>295.0</ele><time>2026-04-08T11:41:51.002Z</time></trkpt><trkpt lat="45.47800159247325" lon="11.10602352533928"><ele>295.0</ele><time>2026-04-08T11:41:52.002Z</time></trkpt><trkpt lat="45.47793831199324" lon="11.106179387498019"><ele>295.0</ele><time>2026-04-08T11:41:54.002Z</time></trkpt><trkpt lat="45.477908545008496" lon="11.106259124517978"><ele>295.0</ele><time>2026-04-08T11:41:55.002Z</time></trkpt><trkpt lat="45.477871332218825" lon="11.106362576928609"><ele>295.0</ele><time>2026-04-08T11:41:56.003Z</time></trkpt><trkpt lat="45.47783154350492" lon="11.106478696071003"><ele>292.0</ele><time>2026-04-08T11:41:57.003Z</time></trkpt><trkpt lat="45.477788270279966" lon="11.106610156142052"><ele>289.0</ele><time>2026-04-08T11:41:58.003Z</time></trkpt><trkpt lat="45.47774211896651" lon="11.106756021232625"><ele>286.0</ele><time>2026-04-08T11:41:59.003Z</time></trkpt><trkpt lat="45.477690002060726" lon="11.106912656901804"><ele>283.0</ele><time>2026-04-08T11:42:00.003Z</time></trkpt><trkpt lat="45.47763350162039" lon="11.107047322887198"><ele>280.0</ele><time>2026-04-08T11:42:01.003Z</time></trkpt><trkpt lat="45.47757282899243" lon="11.10714637915181"><ele>280.0</ele><time>2026-04-08T11:42:02.003Z</time></trkpt><trkpt lat="45.47751881766022" lon="11.10720612679635"><ele>280.0</ele><time>2026-04-08T11:42:03.003Z</time></trkpt><trkpt lat="45.477418568643664" lon="11.10724546649236"><ele>280.0</ele><time>2026-04-08T11:42:05.003Z</time></trkpt><trkpt lat="45.477340163545165" lon="11.107285836920301"><ele>280.0</ele><time>2026-04-08T11:42:06.003Z</time></trkpt><trkpt lat="45.47725549411876" lon="11.10724063649972"><ele>280.0</ele><time>2026-04-08T11:42:06.999Z</time></trkpt><trkpt lat="45.477149073277545" lon="11.107235932122997"><ele>280.5</ele><time>2026-04-08T11:42:07.999Z</time></trkpt><trkpt lat="45.477027903718515" lon="11.107233239431213"><ele>281.0</ele><time>2026-04-08T11:42:08.999Z</time></trkpt><trkpt lat="45.476893926411485" lon="11.10725347606396"><ele>281.5</ele><time>2026-04-08T11:42:09.999Z</time></trkpt><trkpt lat="45.47678076288212" lon="11.107233239438955"><ele>282.0</ele><time>2026-04-08T11:42:10.999Z</time></trkpt><trkpt lat="45.47669370120848" lon="11.10723109820692"><ele>282.0</ele><time>2026-04-08T11:42:11.999Z</time></trkpt><trkpt lat="45.47660925674269" lon="11.107245181444037"><ele>282.0</ele><time>2026-04-08T11:42:12.999Z</time></trkpt><trkpt lat="45.47653887385453" lon="11.107173117112966"><ele>282.0</ele><time>2026-04-08T11:42:13.999Z</time></trkpt><trkpt lat="45.476482570153806" lon="11.107059855239044"><ele>282.0</ele><time>2026-04-08T11:42:14.999Z</time></trkpt><trkpt lat="45.47640166685815" lon="11.10695322493112"><ele>282.0</ele><time>2026-04-08T11:42:15.999Z</time></trkpt><trkpt lat="45.4763399469581" lon="11.106856246115031"><ele>283.2</ele><time>2026-04-08T11:42:16.999Z</time></trkpt><trkpt lat="45.47626004745453" lon="11.106773565398509"><ele>284.4</ele><time>2026-04-08T11:42:18Z</time></trkpt><trkpt lat="45.47614876367665" lon="11.106707932376656"><ele>285.6</ele><time>2026-04-08T11:42:19Z</time></trkpt><trkpt lat="45.47603916153172" lon="11.106679862188557"><ele>286.8</ele><time>2026-04-08T11:42:20Z</time></trkpt><trkpt lat="45.47595108658924" lon="11.106679585022196"><ele>288.0</ele><time>2026-04-08T11:42:21Z</time></trkpt><trkpt lat="45.47588147032961" lon="11.106691232182145"><ele>284.8</ele><time>2026-04-08T11:42:24Z</time></trkpt><trkpt lat="45.47587970320491" lon="11.106500393373036"><ele>281.6</ele><time>2026-04-08T11:42:25Z</time></trkpt><trkpt lat="45.47583331816319" lon="11.106365287562848"><ele>278.4</ele><time>2026-04-08T11:42:27Z</time></trkpt><trkpt lat="45.47572581776926" lon="11.106271133065842"><ele>275.2</ele><time>2026-04-08T11:42:29Z</time></trkpt><trkpt lat="45.475653735805274" lon="11.106274989723783"><ele>272.0</ele><time>2026-04-08T11:42:30Z</time></trkpt><trkpt lat="45.47553842488003" lon="11.106358726441005"><ele>272.0</ele><time>2026-04-08T11:42:32Z</time></trkpt><trkpt lat="45.47546709966173" lon="11.106434457821155"><ele>272.0</ele><time>2026-04-08T11:42:33Z</time></trkpt><trkpt lat="45.4753893835865" lon="11.106532726367817"><ele>272.0</ele><time>2026-04-08T11:42:34Z</time></trkpt><trkpt lat="45.475323010867605" lon="11.106612280410582"><ele>272.0</ele><time>2026-04-08T11:42:35Z</time></trkpt><trkpt lat="45.475260529606324" lon="11.106683257166877"><ele>272.0</ele><time>2026-04-08T11:42:36Z</time></trkpt><trkpt lat="45.475199632898104" lon="11.106723748547576"><ele>272.0</ele><time>2026-04-08T11:42:37Z</time></trkpt><trkpt lat="45.47513134057212" lon="11.10674636363979"><ele>273.6666666666667</ele><time>2026-04-08T11:42:38Z</time></trkpt><trkpt lat="45.47503767625925" lon="11.10677583216327"><ele>275.33333333333337</ele><time>2026-04-08T11:42:39Z</time></trkpt><trkpt lat="45.47496979794111" lon="11.106809522009547"><ele>277.0</ele><time>2026-04-08T11:42:40Z</time></trkpt><trkpt lat="45.47488846499908" lon="11.106902589788074"><ele>278.6666666666667</ele><time>2026-04-08T11:42:41Z</time></trkpt><trkpt lat="45.47481622799674" lon="11.106975519606161"><ele>280.3333333333333</ele><time>2026-04-08T11:42:42Z</time></trkpt><trkpt lat="45.474746835224245" lon="11.107045995750436"><ele>282.0</ele><time>2026-04-08T11:42:43Z</time></trkpt><trkpt lat="45.474682652854824" lon="11.107105923814897"><ele>280.6</ele><time>2026-04-08T11:42:44Z</time></trkpt><trkpt lat="45.474559818456164" lon="11.107116983948337"><ele>279.2</ele><time>2026-04-08T11:42:46Z</time></trkpt><trkpt lat="45.474479699507015" lon="11.107172114454265"><ele>277.8</ele><time>2026-04-08T11:42:47.001Z</time></trkpt><trkpt lat="45.474408545242035" lon="11.107306872803454"><ele>276.4</ele><time>2026-04-08T11:42:48.001Z</time></trkpt><trkpt lat="45.47433918581951" lon="11.107426735113254"><ele>275.0</ele><time>2026-04-08T11:42:49.001Z</time></trkpt><trkpt lat="45.474265572234934" lon="11.107562493362334"><ele>275.0</ele><time>2026-04-08T11:42:50.001Z</time></trkpt><trkpt lat="45.474209083873184" lon="11.107688681976008"><ele>275.0</ele><time>2026-04-08T11:42:51.001Z</time></trkpt><trkpt lat="45.47417743920284" lon="11.107830912294318"><ele>275.0</ele><time>2026-04-08T11:42:52.001Z</time></trkpt><trkpt lat="45.4741161988861" lon="11.107936538869401"><ele>275.0</ele><time>2026-04-08T11:42:53.001Z</time></trkpt><trkpt lat="45.47407618364091" lon="11.108067852305535"><ele>275.0</ele><time>2026-04-08T11:42:54.001Z</time></trkpt><trkpt lat="45.47404548101716" lon="11.108199556980981"><ele>275.2</ele><time>2026-04-08T11:42:55.001Z</time></trkpt><trkpt lat="45.47404684020046" lon="11.108353828393069"><ele>275.4</ele><time>2026-04-08T11:42:56.001Z</time></trkpt><trkpt lat="45.47402324915068" lon="11.108496601654862"><ele>275.6</ele><time>2026-04-08T11:42:57.001Z</time></trkpt><trkpt lat="45.474031239996414" lon="11.108654538885963"><ele>275.8</ele><time>2026-04-08T11:42:58.001Z</time></trkpt><trkpt lat="45.47404208219617" lon="11.108784562916012"><ele>276.0</ele><time>2026-04-08T11:42:59.001Z</time></trkpt><trkpt lat="45.47404550979332" lon="11.108890403431136"><ele>276.0</ele><time>2026-04-08T11:43:00.001Z</time></trkpt><trkpt lat="45.4740330969221" lon="11.108987925169433"><ele>276.0</ele><time>2026-04-08T11:43:01.001Z</time></trkpt><trkpt lat="45.473968456214266" lon="11.10902366334406"><ele>276.0</ele><time>2026-04-08T11:43:02.001Z</time></trkpt><trkpt lat="45.473848890859166" lon="11.109070023753997"><ele>276.0</ele><time>2026-04-08T11:43:04.001Z</time></trkpt><trkpt lat="45.47374438989928" lon="11.10911770139825"><ele>276.0</ele><time>2026-04-08T11:43:05.001Z</time></trkpt><trkpt lat="45.47363002751305" lon="11.109163580256402"><ele>273.40000000000003</ele><time>2026-04-08T11:43:06.001Z</time></trkpt><trkpt lat="45.473533273969515" lon="11.109195586694685"><ele>270.8</ele><time>2026-04-08T11:43:07.001Z</time></trkpt><trkpt lat="45.47342271006163" lon="11.109230189399034"><ele>268.20000000000005</ele><time>2026-04-08T11:43:08.001Z</time></trkpt><trkpt lat="45.47331594014471" lon="11.109263641552996"><ele>265.6</ele><time>2026-04-08T11:43:09.001Z</time></trkpt><trkpt lat="45.473200545664575" lon="11.109299105591864"><ele>263.0</ele><time>2026-04-08T11:43:10.001Z</time></trkpt><trkpt lat="45.47309378440015" lon="11.109328960812501"><ele>263.0</ele><time>2026-04-08T11:43:11.001Z</time></trkpt><trkpt lat="45.47298934716346" lon="11.10935684807891"><ele>263.0</ele><time>2026-04-08T11:43:12.001Z</time></trkpt><trkpt lat="45.47289178664712" lon="11.109377760883987"><ele>263.0</ele><time>2026-04-08T11:43:13.001Z</time></trkpt><trkpt lat="45.47280115223699" lon="11.109411483303198"><ele>263.0</ele><time>2026-04-08T11:43:14.001Z</time></trkpt><trkpt lat="45.47270881100822" lon="11.109422198970563"><ele>263.0</ele><time>2026-04-08T11:43:15.001Z</time></trkpt><trkpt lat="45.472618796739006" lon="11.10946188102081"><ele>260.83333333333337</ele><time>2026-04-08T11:43:16.001Z</time></trkpt><trkpt lat="45.472532872516055" lon="11.109505021761704"><ele>258.6666666666667</ele><time>2026-04-08T11:43:17.001Z</time></trkpt><trkpt lat="45.472460129932024" lon="11.109593947054465"><ele>256.5</ele><time>2026-04-08T11:43:18.001Z</time></trkpt><trkpt lat="45.472383373056864" lon="11.10963957373603"><ele>254.33333333333331</ele><time>2026-04-08T11:43:19.002Z</time></trkpt><trkpt lat="45.4723104476692" lon="11.10968302835011"><ele>252.16666666666666</ele><time>2026-04-08T11:43:20.002Z</time></trkpt><trkpt lat="45.472219225497746" lon="11.109666663473785"><ele>250.0</ele><time>2026-04-08T11:43:21.002Z</time></trkpt><trkpt lat="45.4720692655746" lon="11.109728406725596"><ele>251.2</ele><time>2026-04-08T11:43:23.002Z</time></trkpt><trkpt lat="45.47198848397889" lon="11.109775488436474"><ele>252.4</ele><time>2026-04-08T11:43:24.002Z</time></trkpt><trkpt lat="45.471870013624724" lon="11.109817059596988"><ele>253.60000000000002</ele><time>2026-04-08T11:43:25.002Z</time></trkpt><trkpt lat="45.47177487529447" lon="11.109847769792564"><ele>254.8</ele><time>2026-04-08T11:43:26.002Z</time></trkpt><trkpt lat="45.47166491493883" lon="11.109882447647017"><ele>256.0</ele><time>2026-04-08T11:43:27.002Z</time></trkpt><trkpt lat="45.47155678595623" lon="11.10991987287673"><ele>256.0</ele><time>2026-04-08T11:43:28.002Z</time></trkpt><trkpt lat="45.47146205534393" lon="11.109952926138332"><ele>256.0</ele><time>2026-04-08T11:43:29.002Z</time></trkpt><trkpt lat="45.47138670732241" lon="11.110033268086145"><ele>256.0</ele><time>2026-04-08T11:43:31.002Z</time></trkpt><trkpt lat="45.47130868359414" lon="11.110045646049791"><ele>256.0</ele><time>2026-04-08T11:43:32.002Z</time></trkpt><trkpt lat="45.47121499922573" lon="11.110066968598916"><ele>256.0</ele><time>2026-04-08T11:43:34.002Z</time></trkpt><trkpt lat="45.471081549917244" lon="11.110066509565067"><ele>253.33333333333331</ele><time>2026-04-08T11:43:36.002Z</time></trkpt><trkpt lat="45.47101279908711" lon="11.110073471141291"><ele>250.66666666666666</ele><time>2026-04-08T11:43:37.002Z</time></trkpt><trkpt lat="45.47093490302709" lon="11.110088759628052"><ele>248.0</ele><time>2026-04-08T11:43:38.002Z</time></trkpt><trkpt lat="45.47086793925732" lon="11.110092087337387"><ele>245.33333333333331</ele><time>2026-04-08T11:43:39.002Z</time></trkpt><trkpt lat="45.47079098186385" lon="11.110067896134684"><ele>242.66666666666666</ele><time>2026-04-08T11:43:40.002Z</time></trkpt><trkpt lat="45.47070257044238" lon="11.110027997134008"><ele>240.0</ele><time>2026-04-08T11:43:41.002Z</time></trkpt><trkpt lat="45.47061319648885" lon="11.110014643876553"><ele>240.0</ele><time>2026-04-08T11:43:42.002Z</time></trkpt><trkpt lat="45.47053602094111" lon="11.109999124420533"><ele>240.0</ele><time>2026-04-08T11:43:43.002Z</time></trkpt><trkpt lat="45.470471279583" lon="11.10995814676953"><ele>240.0</ele><time>2026-04-08T11:43:44.002Z</time></trkpt><trkpt lat="45.470407270483314" lon="11.10988387961746"><ele>240.0</ele><time>2026-04-08T11:43:45.002Z</time></trkpt><trkpt lat="45.47034752290091" lon="11.109769603700625"><ele>240.0</ele><time>2026-04-08T11:43:46.002Z</time></trkpt><trkpt lat="45.47028301972089" lon="11.109666240360704"><ele>240.0</ele><time>2026-04-08T11:43:47.002Z</time></trkpt><trkpt lat="45.47023687673978" lon="11.109599059216292"><ele>236.33333333333334</ele><time>2026-04-08T11:43:48.002Z</time></trkpt><trkpt lat="45.47018088128977" lon="11.109532884646418"><ele>232.66666666666669</ele><time>2026-04-08T11:43:49.002Z</time></trkpt><trkpt lat="45.47010357655789" lon="11.109497846824377"><ele>229.0</ele><time>2026-04-08T11:43:50.002Z</time></trkpt><trkpt lat="45.470029604986244" lon="11.109488068018473"><ele>225.33333333333334</ele><time>2026-04-08T11:43:51.002Z</time></trkpt><trkpt lat="45.46996450555608" lon="11.109472650681443"><ele>221.66666666666669</ele><time>2026-04-08T11:43:52.003Z</time></trkpt><trkpt lat="45.46985862889393" lon="11.109388676377117"><ele>218.0</ele><time>2026-04-08T11:43:54.003Z</time></trkpt><trkpt lat="45.469773206410174" lon="11.109237818363633"><ele>218.00000000000003</ele><time>2026-04-08T11:43:56.003Z</time></trkpt><trkpt lat="45.46972198774364" lon="11.109163956214532"><ele>218.0</ele><time>2026-04-08T11:43:57.003Z</time></trkpt><trkpt lat="45.469663963840866" lon="11.109091194654138"><ele>218.0</ele><time>2026-04-08T11:43:58.003Z</time></trkpt><trkpt lat="45.469622450892096" lon="11.109021887870785"><ele>218.0</ele><time>2026-04-08T11:43:59.003Z</time></trkpt><trkpt lat="45.46954905131251" lon="11.108870469750718"><ele>218.00000000000003</ele><time>2026-04-08T11:44:01.003Z</time></trkpt><trkpt lat="45.469521729918334" lon="11.108776625952286"><ele>218.0</ele><time>2026-04-08T11:44:02.003Z</time></trkpt><trkpt lat="45.4695132318019" lon="11.108680230608202"><ele>213.16666666666669</ele><time>2026-04-08T11:44:03.003Z</time></trkpt><trkpt lat="45.469507256990404" lon="11.108579208774369"><ele>208.33333333333334</ele><time>2026-04-08T11:44:04.003Z</time></trkpt><trkpt lat="45.46946993362991" lon="11.108430503964643"><ele>203.5</ele><time>2026-04-08T11:44:05.003Z</time></trkpt><trkpt lat="45.469469035684305" lon="11.108282406018887"><ele>198.66666666666669</ele><time>2026-04-08T11:44:06.003Z</time></trkpt><trkpt lat="45.46946413036575" lon="11.108161870839918"><ele>193.83333333333334</ele><time>2026-04-08T11:44:07.003Z</time></trkpt><trkpt lat="45.46944571618" lon="11.108058571487296"><ele>189.0</ele><time>2026-04-08T11:44:08.003Z</time></trkpt><trkpt lat="45.46941960464526" lon="11.107919859293078"><ele>187.39999999999998</ele><time>2026-04-08T11:44:10.003Z</time></trkpt><trkpt lat="45.46933248640652" lon="11.108057356361094"><ele>185.8</ele><time>2026-04-08T11:44:16Z</time></trkpt><trkpt lat="45.469233677482066" lon="11.10796892705725"><ele>184.2</ele><time>2026-04-08T11:44:17Z</time></trkpt><trkpt lat="45.469153032561714" lon="11.107961393647447"><ele>182.60000000000002</ele><time>2026-04-08T11:44:19Z</time></trkpt><trkpt lat="45.469099247834066" lon="11.108070072188145"><ele>181.0</ele><time>2026-04-08T11:44:21Z</time></trkpt><trkpt lat="45.469026701152835" lon="11.1081045219807"><ele>181.0</ele><time>2026-04-08T11:44:24Z</time></trkpt><trkpt lat="45.46902560923255" lon="11.107953090076256"><ele>181.0</ele><time>2026-04-08T11:44:26Z</time></trkpt><trkpt lat="45.469067948719264" lon="11.107859477133928"><ele>181.0</ele><time>2026-04-08T11:44:27Z</time></trkpt><trkpt lat="45.469077836196355" lon="11.107767051892315"><ele>181.0</ele><time>2026-04-08T11:44:28Z</time></trkpt><trkpt lat="45.469029312310916" lon="11.107671122476809"><ele>181.0</ele><time>2026-04-08T11:44:30Z</time></trkpt><trkpt lat="45.46896850115757" lon="11.107630804593406"><ele>181.0</ele><time>2026-04-08T11:44:31Z</time></trkpt><trkpt lat="45.46888305470887" lon="11.10759987557973"><ele>177.20000000000002</ele><time>2026-04-08T11:44:32Z</time></trkpt><trkpt lat="45.46876779056062" lon="11.107543027960439"><ele>173.4</ele><time>2026-04-08T11:44:34Z</time></trkpt><trkpt lat="45.46867002435099" lon="11.1075151229508"><ele>169.6</ele><time>2026-04-08T11:44:36Z</time></trkpt><trkpt lat="45.46858523824166" lon="11.107431851376766"><ele>165.8</ele><time>2026-04-08T11:44:38Z</time></trkpt><trkpt lat="45.46847868511037" lon="11.107380572230793"><ele>162.0</ele><time>2026-04-08T11:44:40Z</time></trkpt><trkpt lat="45.468381564057445" lon="11.10729761693032"><ele>161.83333333333334</ele><time>2026-04-08T11:44:42Z</time></trkpt><trkpt lat="45.46827852148361" lon="11.10721665883904"><ele>161.66666666666666</ele><time>2026-04-08T11:44:44Z</time></trkpt><trkpt lat="45.468208254749186" lon="11.107196022176623"><ele>161.5</ele><time>2026-04-08T11:44:45.001Z</time></trkpt><trkpt lat="45.46813710602118" lon="11.107189708301442"><ele>161.33333333333331</ele><time>2026-04-08T11:44:46.001Z</time></trkpt><trkpt lat="45.46806166649975" lon="11.107169992284234"><ele>161.16666666666666</ele><time>2026-04-08T11:44:47.001Z</time></trkpt><trkpt lat="45.46799718513597" lon="11.107162075171848"><ele>161.0</ele><time>2026-04-08T11:44:48.001Z</time></trkpt><trkpt lat="45.46788851958624" lon="11.107141230178636"><ele>158.20000000000002</ele><time>2026-04-08T11:44:50.001Z</time></trkpt><trkpt lat="45.46778365411436" lon="11.107172764298419"><ele>155.4</ele><time>2026-04-08T11:44:52.001Z</time></trkpt><trkpt lat="45.46766670265033" lon="11.107158930585836"><ele>152.6</ele><time>2026-04-08T11:44:54.001Z</time></trkpt><trkpt lat="45.46757485931704" lon="11.107037129082821"><ele>149.8</ele><time>2026-04-08T11:44:56.001Z</time></trkpt><trkpt lat="45.4675317979507" lon="11.10696485527459"><ele>147.0</ele><time>2026-04-08T11:44:57.001Z</time></trkpt><trkpt lat="45.467445360680834" lon="11.106908066850783"><ele>147.0</ele><time>2026-04-08T11:44:59.001Z</time></trkpt><trkpt lat="45.46732819184229" lon="11.106914744506021"><ele>147.0</ele><time>2026-04-08T11:45:01.001Z</time></trkpt><trkpt lat="45.46724884347055" lon="11.106903134297632"><ele>147.0</ele><time>2026-04-08T11:45:02.001Z</time></trkpt><trkpt lat="45.46717136512489" lon="11.106871509819529"><ele>147.0</ele><time>2026-04-08T11:45:03.001Z</time></trkpt><trkpt lat="45.467100641331804" lon="11.106820825678232"><ele>147.0</ele><time>2026-04-08T11:45:04.001Z</time></trkpt><trkpt lat="45.46702813112385" lon="11.106766731315519"><ele>147.0</ele><time>2026-04-08T11:45:05.001Z</time></trkpt><trkpt lat="45.46695404988384" lon="11.10671873858873"><ele>144.6</ele><time>2026-04-08T11:45:06.001Z</time></trkpt><trkpt lat="45.466891376296275" lon="11.106687215860596"><ele>142.2</ele><time>2026-04-08T11:45:07.001Z</time></trkpt><trkpt lat="45.46677340139468" lon="11.106674756084761"><ele>139.8</ele><time>2026-04-08T11:45:09.001Z</time></trkpt><trkpt lat="45.466670043747435" lon="11.106524535317453"><ele>137.4</ele><time>2026-04-08T11:45:10.001Z</time></trkpt><trkpt lat="45.46658248570396" lon="11.106547290953667"><ele>135.0</ele><time>2026-04-08T11:45:11.001Z</time></trkpt><trkpt lat="45.46649635600612" lon="11.106567227272592"><ele>135.0</ele><time>2026-04-08T11:45:12.001Z</time></trkpt><trkpt lat="45.46641818911419" lon="11.106581824745302"><ele>135.0</ele><time>2026-04-08T11:45:13.001Z</time></trkpt><trkpt lat="45.46632200943643" lon="11.106572464452936"><ele>135.0</ele><time>2026-04-08T11:45:15.001Z</time></trkpt><trkpt lat="45.46624449014866" lon="11.10654233066981"><ele>135.0</ele><time>2026-04-08T11:45:17.001Z</time></trkpt><trkpt lat="45.46618873019964" lon="11.1066621929143"><ele>135.0</ele><time>2026-04-08T11:45:20.002Z</time></trkpt><trkpt lat="45.466173493344236" lon="11.106861742558845"><ele>133.8</ele><time>2026-04-08T11:45:22.002Z</time></trkpt><trkpt lat="45.46615657224107" lon="11.106973215943265"><ele>132.6</ele><time>2026-04-08T11:45:23.002Z</time></trkpt><trkpt lat="45.46612029489977" lon="11.107071134516591"><ele>131.4</ele><time>2026-04-08T11:45:24.002Z</time></trkpt><trkpt lat="45.46606042199597" lon="11.107173988243852"><ele>130.2</ele><time>2026-04-08T11:45:25.002Z</time></trkpt><trkpt lat="45.46598917859667" lon="11.107285296462553"><ele>129.0</ele><time>2026-04-08T11:45:26.002Z</time></trkpt><trkpt lat="45.46591822850469" lon="11.107390434413611"><ele>129.6</ele><time>2026-04-08T11:45:27.002Z</time></trkpt><trkpt lat="45.465848762934264" lon="11.107488428518772"><ele>130.2</ele><time>2026-04-08T11:45:28.002Z</time></trkpt><trkpt lat="45.4657725044958" lon="11.107549314771333"><ele>130.79999999999998</ele><time>2026-04-08T11:45:29.002Z</time></trkpt><trkpt lat="45.4656889774419" lon="11.107581927347246"><ele>131.4</ele><time>2026-04-08T11:45:30.002Z</time></trkpt><trkpt lat="45.46557296148753" lon="11.10764024564219"><ele>132.0</ele><time>2026-04-08T11:45:31.002Z</time></trkpt><trkpt lat="45.46546388280644" lon="11.107731531170717"><ele>129.33333333333334</ele><time>2026-04-08T11:45:32.002Z</time></trkpt><trkpt lat="45.465328559604316" lon="11.107820110311263"><ele>126.66666666666667</ele><time>2026-04-08T11:45:33.002Z</time></trkpt><trkpt lat="45.46517036603028" lon="11.107895010812731"><ele>124.0</ele><time>2026-04-08T11:45:34.002Z</time></trkpt><trkpt lat="45.46502755589255" lon="11.107984086588452"><ele>124.0</ele><time>2026-04-08T11:45:35.002Z</time></trkpt><trkpt lat="45.46490631466885" lon="11.108086478431852"><ele>124.0</ele><time>2026-04-08T11:45:36.002Z</time></trkpt><trkpt lat="45.464787868033675" lon="11.108164209136165"><ele>124.0</ele><time>2026-04-08T11:45:37.002Z</time></trkpt><trkpt lat="45.464666640978024" lon="11.108199379347568"><ele>124.0</ele><time>2026-04-08T11:45:38.002Z</time></trkpt><trkpt lat="45.464554877844584" lon="11.108224684400081"><ele>123.6</ele><time>2026-04-08T11:45:39.002Z</time></trkpt><trkpt lat="45.464442178725086" lon="11.108248218184457"><ele>123.2</ele><time>2026-04-08T11:45:40.002Z</time></trkpt><trkpt lat="45.46434699628178" lon="11.10827929544532"><ele>122.79999999999998</ele><time>2026-04-08T11:45:41.002Z</time></trkpt><trkpt lat="45.46427552306013" lon="11.108358535246701"><ele>122.39999999999999</ele><time>2026-04-08T11:45:42.002Z</time></trkpt><trkpt lat="45.46418861101983" lon="11.108436136778563"><ele>122.0</ele><time>2026-04-08T11:45:43.002Z</time></trkpt><trkpt lat="45.46408096253632" lon="11.108427778549487"><ele>122.0</ele><time>2026-04-08T11:45:44.002Z</time></trkpt><trkpt lat="45.46394624483518" lon="11.10844835257366"><ele>122.0</ele><time>2026-04-08T11:45:45.002Z</time></trkpt><trkpt lat="45.463800276692425" lon="11.108499760494551"><ele>122.0</ele><time>2026-04-08T11:45:46.002Z</time></trkpt><trkpt lat="45.463646662648564" lon="11.108519213627707"><ele>122.0</ele><time>2026-04-08T11:45:47.002Z</time></trkpt><trkpt lat="45.463506208195675" lon="11.108599640512692"><ele>120.75</ele><time>2026-04-08T11:45:48.002Z</time></trkpt><trkpt lat="45.46336850656529" lon="11.108664140735927"><ele>119.5</ele><time>2026-04-08T11:45:49.002Z</time></trkpt><trkpt lat="45.463239445535365" lon="11.108740172506623"><ele>118.25</ele><time>2026-04-08T11:45:50.002Z</time></trkpt><trkpt lat="45.4631060406869" lon="11.108807159117339"><ele>117.0</ele><time>2026-04-08T11:45:51.003Z</time></trkpt><trkpt lat="45.462968503526824" lon="11.108896000285704"><ele>116.0</ele><time>2026-04-08T11:45:52.003Z</time></trkpt><trkpt lat="45.46283115342115" lon="11.109008593029746"><ele>115.0</ele><time>2026-04-08T11:45:53.003Z</time></trkpt><trkpt lat="45.462699272015904" lon="11.109104961966471"><ele>114.0</ele><time>2026-04-08T11:45:54.003Z</time></trkpt><trkpt lat="45.462562210974085" lon="11.109211641937542"><ele>114.0</ele><time>2026-04-08T11:45:55.003Z</time></trkpt><trkpt lat="45.46243064925183" lon="11.109310551180817"><ele>114.0</ele><time>2026-04-08T11:45:56.003Z</time></trkpt><trkpt lat="45.4622794149915" lon="11.10939442105474"><ele>114.0</ele><time>2026-04-08T11:45:57.003Z</time></trkpt><trkpt lat="45.462130128452095" lon="11.109489751124658"><ele>112.5</ele><time>2026-04-08T11:45:58.003Z</time></trkpt><trkpt lat="45.46198098080328" lon="11.109574312136187"><ele>111.0</ele><time>2026-04-08T11:45:59.003Z</time></trkpt><trkpt lat="45.46185308800586" lon="11.109669586539143"><ele>109.5</ele><time>2026-04-08T11:46:00.003Z</time></trkpt><trkpt lat="45.461723275509584" lon="11.109728515761942"><ele>108.0</ele><time>2026-04-08T11:46:01.003Z</time></trkpt><trkpt lat="45.46160217833616" lon="11.109790744682686"><ele>108.0</ele><time>2026-04-08T11:46:02.003Z</time></trkpt><trkpt lat="45.46148652510565" lon="11.109851506787649"><ele>108.0</ele><time>2026-04-08T11:46:03.003Z</time></trkpt><trkpt lat="45.4613629479215" lon="11.109902619363405"><ele>108.0</ele><time>2026-04-08T11:46:04.003Z</time></trkpt><trkpt lat="45.461245416890975" lon="11.109942425357293"><ele>108.0</ele><time>2026-04-08T11:46:05.003Z</time></trkpt><trkpt lat="45.46112928996603" lon="11.109938291881909"><ele>109.0</ele><time>2026-04-08T11:46:06.003Z</time></trkpt><trkpt lat="45.46102266707357" lon="11.10993012619406"><ele>110.0</ele><time>2026-04-08T11:46:07.003Z</time></trkpt><trkpt lat="45.46090316146905" lon="11.109913013328704"><ele>111.0</ele><time>2026-04-08T11:46:08.003Z</time></trkpt><trkpt lat="45.46077359845385" lon="11.109913820514157"><ele>112.0</ele><time>2026-04-08T11:46:09.003Z</time></trkpt><trkpt lat="45.46065785674064" lon="11.109885464762888"><ele>111.0</ele><time>2026-04-08T11:46:10.003Z</time></trkpt><trkpt lat="45.46053925229131" lon="11.109894587059967"><ele>110.0</ele><time>2026-04-08T11:46:11.003Z</time></trkpt><trkpt lat="45.46041506987284" lon="11.109935578440295"><ele>109.0</ele><time>2026-04-08T11:46:12.003Z</time></trkpt><trkpt lat="45.46028611157204" lon="11.110000447884184"><ele>108.0</ele><time>2026-04-08T11:46:13.003Z</time></trkpt><trkpt lat="45.460147683148904" lon="11.110081334589449"><ele>108.0</ele><time>2026-04-08T11:46:14.003Z</time></trkpt><trkpt lat="45.460015764808176" lon="11.110144337244654"><ele>108.0</ele><time>2026-04-08T11:46:15.003Z</time></trkpt><trkpt lat="45.459897535088324" lon="11.110208027023898"><ele>108.0</ele><time>2026-04-08T11:46:16.003Z</time></trkpt><trkpt lat="45.45978694127974" lon="11.110259087981339"><ele>108.0</ele><time>2026-04-08T11:46:17.003Z</time></trkpt><trkpt lat="45.45966715402234" lon="11.110301683460087"><ele>106.60000000000001</ele><time>2026-04-08T11:46:18.003Z</time></trkpt><trkpt lat="45.459561800330505" lon="11.110381839779363"><ele>105.20000000000002</ele><time>2026-04-08T11:46:19Z</time></trkpt><trkpt lat="45.459455618177245" lon="11.110439140225578"><ele>103.8</ele><time>2026-04-08T11:46:20Z</time></trkpt><trkpt lat="45.45935454518572" lon="11.110487977059117"><ele>102.4</ele><time>2026-04-08T11:46:21Z</time></trkpt><trkpt lat="45.45925703174317" lon="11.110530578692142"><ele>101.0</ele><time>2026-04-08T11:46:22Z</time></trkpt><trkpt lat="45.459163090399244" lon="11.110575285373265"><ele>101.0</ele><time>2026-04-08T11:46:23Z</time></trkpt><trkpt lat="45.459093449552434" lon="11.110633576037065"><ele>101.0</ele><time>2026-04-08T11:46:24Z</time></trkpt><trkpt lat="45.45898861940826" lon="11.110682309867983"><ele>101.0</ele><time>2026-04-08T11:46:26Z</time></trkpt><trkpt lat="45.45896453580735" lon="11.1108594728966"><ele>101.0</ele><time>2026-04-08T11:46:27Z</time></trkpt><trkpt lat="45.45893414876726" lon="11.11096103044544"><ele>101.0</ele><time>2026-04-08T11:46:28Z</time></trkpt><trkpt lat="45.4588956949309" lon="11.111061711896358"><ele>101.66666666666666</ele><time>2026-04-08T11:46:29Z</time></trkpt><trkpt lat="45.45885281485401" lon="11.111155041822162"><ele>102.33333333333333</ele><time>2026-04-08T11:46:30Z</time></trkpt><trkpt lat="45.458806822661884" lon="11.11122559010043"><ele>103.0</ele><time>2026-04-08T11:46:31Z</time></trkpt><trkpt lat="45.45870512214855" lon="11.111283955123469"><ele>103.66666666666666</ele><time>2026-04-08T11:46:33Z</time></trkpt><trkpt lat="45.458631839390485" lon="11.111303605787995"><ele>104.33333333333333</ele><time>2026-04-08T11:46:34Z</time></trkpt><trkpt lat="45.45853768614677" lon="11.111326505034064"><ele>105.0</ele><time>2026-04-08T11:46:35Z</time></trkpt><trkpt lat="45.45843634485897" lon="11.111368797482537"><ele>102.5</ele><time>2026-04-08T11:46:36Z</time></trkpt><trkpt lat="45.45832906852564" lon="11.111409756645482"><ele>100.0</ele><time>2026-04-08T11:46:37Z</time></trkpt><trkpt lat="45.45821907870528" lon="11.111448756103314"><ele>97.5</ele><time>2026-04-08T11:46:38Z</time></trkpt><trkpt lat="45.4580852829094" lon="11.111496517011538"><ele>95.0</ele><time>2026-04-08T11:46:39Z</time></trkpt><trkpt lat="45.45795930681935" lon="11.111547960193153"><ele>95.25</ele><time>2026-04-08T11:46:40Z</time></trkpt><trkpt lat="45.45784295596555" lon="11.11156430962482"><ele>95.5</ele><time>2026-04-08T11:46:41Z</time></trkpt><trkpt lat="45.45772818521659" lon="11.111588719903866"><ele>95.75</ele><time>2026-04-08T11:46:42Z</time></trkpt><trkpt lat="45.45762518246333" lon="11.11160036362509"><ele>96.0</ele><time>2026-04-08T11:46:43Z</time></trkpt><trkpt lat="45.45751041141172" lon="11.111595556725137"><ele>95.0</ele><time>2026-04-08T11:46:44Z</time></trkpt><trkpt lat="45.457387761601154" lon="11.11156117918543"><ele>94.0</ele><time>2026-04-08T11:46:45Z</time></trkpt><trkpt lat="45.457264142025146" lon="11.111503068481122"><ele>93.0</ele><time>2026-04-08T11:46:46Z</time></trkpt><trkpt lat="45.45714478440159" lon="11.111482032526675"><ele>92.0</ele><time>2026-04-08T11:46:47Z</time></trkpt><trkpt lat="45.457036352467235" lon="11.111422410083518"><ele>91.5</ele><time>2026-04-08T11:46:48.001Z</time></trkpt><trkpt lat="45.456921392062775" lon="11.111375222376758"><ele>91.0</ele><time>2026-04-08T11:46:49.001Z</time></trkpt><trkpt lat="45.456797353591234" lon="11.111340183662309"><ele>90.5</ele><time>2026-04-08T11:46:50.001Z</time></trkpt><trkpt lat="45.4566939637137" lon="11.111119726055595"><ele>90.0</ele><time>2026-04-08T11:46:51.001Z</time></trkpt><trkpt lat="45.456549327396786" lon="11.111071512918507"><ele>90.0</ele><time>2026-04-08T11:46:52.001Z</time></trkpt><trkpt lat="45.45642691794307" lon="11.111030708890492"><ele>90.0</ele><time>2026-04-08T11:46:53.001Z</time></trkpt><trkpt lat="45.4563017749991" lon="11.110988993678149"><ele>90.0</ele><time>2026-04-08T11:46:54.001Z</time></trkpt><trkpt lat="45.4561458160539" lon="11.11115882557228"><ele>89.25</ele><time>2026-04-08T11:46:55.001Z</time></trkpt><trkpt lat="45.45602318017499" lon="11.111137782249195"><ele>88.5</ele><time>2026-04-08T11:46:56.001Z</time></trkpt><trkpt lat="45.455903704806346" lon="11.111136893220207"><ele>87.75</ele><time>2026-04-08T11:46:57.001Z</time></trkpt><trkpt lat="45.455776467864176" lon="11.11114894163468"><ele>87.0</ele><time>2026-04-08T11:46:58.001Z</time></trkpt><trkpt lat="45.455646054190716" lon="11.111161076473083"><ele>87.0</ele><time>2026-04-08T11:46:59.001Z</time></trkpt><trkpt lat="45.4555185723831" lon="11.111178366439526"><ele>87.0</ele><time>2026-04-08T11:47:00.001Z</time></trkpt><trkpt lat="45.45538254512512" lon="11.111193786584229"><ele>87.0</ele><time>2026-04-08T11:47:01.001Z</time></trkpt><trkpt lat="45.45524620090233" lon="11.111209626860338"><ele>87.0</ele><time>2026-04-08T11:47:02.001Z</time></trkpt><trkpt lat="45.455110850486584" lon="11.111231575180078"><ele>86.6</ele><time>2026-04-08T11:47:03.001Z</time></trkpt><trkpt lat="45.4549935504615" lon="11.11124083602823"><ele>86.19999999999999</ele><time>2026-04-08T11:47:04.001Z</time></trkpt><trkpt lat="45.4548884799572" lon="11.111250410084065"><ele>85.8</ele><time>2026-04-08T11:47:05.001Z</time></trkpt><trkpt lat="45.454798024352144" lon="11.111253191451302"><ele>85.4</ele><time>2026-04-08T11:47:06.001Z</time></trkpt><trkpt lat="45.454715016948334" lon="11.111245628707934"><ele>85.0</ele><time>2026-04-08T11:47:07.001Z</time></trkpt><trkpt lat="45.45465135392002" lon="11.111246209189524"><ele>84.0</ele><time>2026-04-08T11:47:08.001Z</time></trkpt><trkpt lat="45.45456564263903" lon="11.11122031985034"><ele>83.0</ele><time>2026-04-08T11:47:10.001Z</time></trkpt><trkpt lat="45.45450480230175" lon="11.111118849391618"><ele>82.0</ele><time>2026-04-08T11:47:12.001Z</time></trkpt><trkpt lat="45.45448238910647" lon="11.111013081370656"><ele>81.0</ele><time>2026-04-08T11:47:14.001Z</time></trkpt><trkpt lat="45.45439229863624" lon="11.111012864249997"><ele>80.0</ele><time>2026-04-08T11:47:16.001Z</time></trkpt><trkpt lat="45.454300955141626" lon="11.111024042247873"><ele>79.0</ele><time>2026-04-08T11:47:17.001Z</time></trkpt><trkpt lat="45.45418997751781" lon="11.111033718920966"><ele>79.0</ele><time>2026-04-08T11:47:18.001Z</time></trkpt><trkpt lat="45.45407156875053" lon="11.111039724291633"><ele>79.0</ele><time>2026-04-08T11:47:19.001Z</time></trkpt><trkpt lat="45.4539360872771" lon="11.111043055953475"><ele>79.0</ele><time>2026-04-08T11:47:20.001Z</time></trkpt><trkpt lat="45.45378997746034" lon="11.111047593268106"><ele>79.0</ele><time>2026-04-08T11:47:21.001Z</time></trkpt><trkpt lat="45.45362547445775" lon="11.111051738740015"><ele>78.5</ele><time>2026-04-08T11:47:22.002Z</time></trkpt><trkpt lat="45.453445965600636" lon="11.111051643965103"><ele>78.0</ele><time>2026-04-08T11:47:23.002Z</time></trkpt><trkpt lat="45.45331238352287" lon="11.111062879272303"><ele>77.5</ele><time>2026-04-08T11:47:24.002Z</time></trkpt><trkpt lat="45.45318257757593" lon="11.111066833797736"><ele>77.0</ele><time>2026-04-08T11:47:25.002Z</time></trkpt><trkpt lat="45.453057966917406" lon="11.111066946841746"><ele>76.6</ele><time>2026-04-08T11:47:26.002Z</time></trkpt><trkpt lat="45.45293442940132" lon="11.111073242385812"><ele>76.2</ele><time>2026-04-08T11:47:27.002Z</time></trkpt><trkpt lat="45.45282150095004" lon="11.111076660715824"><ele>75.8</ele><time>2026-04-08T11:47:28.002Z</time></trkpt><trkpt lat="45.45272622928358" lon="11.111079668536878"><ele>75.4</ele><time>2026-04-08T11:47:29.002Z</time></trkpt><trkpt lat="45.452648608893085" lon="11.111081818184603"><ele>75.0</ele><time>2026-04-08T11:47:30.002Z</time></trkpt><trkpt lat="45.452555517876725" lon="11.111092747837017"><ele>75.0</ele><time>2026-04-08T11:47:32.002Z</time></trkpt><trkpt lat="45.452490905473105" lon="11.111189503634964"><ele>75.0</ele><time>2026-04-08T11:47:34.002Z</time></trkpt><trkpt lat="45.452456445469366" lon="11.1112728369221"><ele>75.0</ele><time>2026-04-08T11:47:35.002Z</time></trkpt><trkpt lat="45.45242416457525" lon="11.111383210649642"><ele>75.0</ele><time>2026-04-08T11:47:36.002Z</time></trkpt><trkpt lat="45.45239119016221" lon="11.111509820480935"><ele>75.0</ele><time>2026-04-08T11:47:37.002Z</time></trkpt><trkpt lat="45.452365887440706" lon="11.111630260204317"><ele>75.0</ele><time>2026-04-08T11:47:38.002Z</time></trkpt><trkpt lat="45.452337200329886" lon="11.111748495105639"><ele>75.8</ele><time>2026-04-08T11:47:39.002Z</time></trkpt><trkpt lat="45.45230606902246" lon="11.111862314062089"><ele>76.6</ele><time>2026-04-08T11:47:40.002Z</time></trkpt><trkpt lat="45.45225749999527" lon="11.111938510467366"><ele>77.4</ele><time>2026-04-08T11:47:42.002Z</time></trkpt><trkpt lat="45.45214456345258" lon="11.112036306439354"><ele>78.2</ele><time>2026-04-08T11:48:12.003Z</time></trkpt><trkpt lat="45.45207545055062" lon="11.112094774638319"><ele>79.0</ele><time>2026-04-08T11:48:13.003Z</time></trkpt><trkpt lat="45.45199606608928" lon="11.11216322938878"><ele>79.0</ele><time>2026-04-08T11:48:14.003Z</time></trkpt><trkpt lat="45.45193303250018" lon="11.112235690069886"><ele>79.0</ele><time>2026-04-08T11:48:15.003Z</time></trkpt><trkpt lat="45.45188105195257" lon="11.112319377360475"><ele>79.0</ele><time>2026-04-08T11:48:16.003Z</time></trkpt><trkpt lat="45.45182209340956" lon="11.112425577545068"><ele>79.0</ele><time>2026-04-08T11:48:17.003Z</time></trkpt><trkpt lat="45.451767988569536" lon="11.112528380870097"><ele>79.0</ele><time>2026-04-08T11:48:18.003Z</time></trkpt><trkpt lat="45.45170764906423" lon="11.11261990962965"><ele>79.0</ele><time>2026-04-08T11:48:19.003Z</time></trkpt><trkpt lat="45.45164476937296" lon="11.11271327022197"><ele>82.2</ele><time>2026-04-08T11:48:20.003Z</time></trkpt><trkpt lat="45.451585229848064" lon="11.112810243343107"><ele>85.4</ele><time>2026-04-08T11:48:21.003Z</time></trkpt><trkpt lat="45.45153199540892" lon="11.112909329256388"><ele>88.6</ele><time>2026-04-08T11:48:22.003Z</time></trkpt><trkpt lat="45.45148896278362" lon="11.112997855510168"><ele>91.8</ele><time>2026-04-08T11:48:23.003Z</time></trkpt><trkpt lat="45.451437306486454" lon="11.113178607592916"><ele>95.0</ele><time>2026-04-08T11:48:25.002Z</time></trkpt><trkpt lat="45.451416068569834" lon="11.113267242905124"><ele>96.66666666666667</ele><time>2026-04-08T11:48:26.002Z</time></trkpt><trkpt lat="45.451389807876176" lon="11.113383439920415"><ele>98.33333333333334</ele><time>2026-04-08T11:48:30.002Z</time></trkpt><trkpt lat="45.451123466091914" lon="11.11334133340651"><ele>100.0</ele><time>2026-04-08T11:48:31.001Z</time></trkpt><trkpt lat="45.45101124494401" lon="11.113348153906873"><ele>100.0</ele><time>2026-04-08T11:48:32.001Z</time></trkpt><trkpt lat="45.4508953329872" lon="11.113351938690053"><ele>100.0</ele><time>2026-04-08T11:48:33.001Z</time></trkpt><trkpt lat="45.4507710174226" lon="11.113348344657606"><ele>100.0</ele><time>2026-04-08T11:48:34.001Z</time></trkpt><trkpt lat="45.4506591393431" lon="11.11334778089834"><ele>100.0</ele><time>2026-04-08T11:48:35.001Z</time></trkpt><trkpt lat="45.45054868124588" lon="11.113334439991196"><ele>100.6</ele><time>2026-04-08T11:48:36.001Z</time></trkpt><trkpt lat="45.450450241560155" lon="11.113311855787908"><ele>101.2</ele><time>2026-04-08T11:48:37.001Z</time></trkpt><trkpt lat="45.45036625979835" lon="11.113299453496941"><ele>101.80000000000001</ele><time>2026-04-08T11:48:38.001Z</time></trkpt><trkpt lat="45.45024697071634" lon="11.113335480956078"><ele>102.4</ele><time>2026-04-08T11:48:40.001Z</time></trkpt><trkpt lat="45.450135594825454" lon="11.11341082021643"><ele>103.0</ele><time>2026-04-08T11:48:41.001Z</time></trkpt><trkpt lat="45.45003327675883" lon="11.113427545648918"><ele>103.0</ele><time>2026-04-08T11:48:42.001Z</time></trkpt><trkpt lat="45.44992962003488" lon="11.113376670636187"><ele>103.0</ele><time>2026-04-08T11:48:43.001Z</time></trkpt><trkpt lat="45.4498137548873" lon="11.113333514860098"><ele>103.0</ele><time>2026-04-08T11:48:44.001Z</time></trkpt><trkpt lat="45.449679528464486" lon="11.113279227322629"><ele>103.0</ele><time>2026-04-08T11:48:45.001Z</time></trkpt><trkpt lat="45.449551713408624" lon="11.113231587535813"><ele>101.5</ele><time>2026-04-08T11:48:46.001Z</time></trkpt><trkpt lat="45.4494197664839" lon="11.113190454452443"><ele>100.0</ele><time>2026-04-08T11:48:47.001Z</time></trkpt><trkpt lat="45.44927840236038" lon="11.11315357194804"><ele>98.5</ele><time>2026-04-08T11:48:48.001Z</time></trkpt><trkpt lat="45.449133237193415" lon="11.11311748948679"><ele>97.0</ele><time>2026-04-08T11:48:49.001Z</time></trkpt><trkpt lat="45.44898530118522" lon="11.113078137211025"><ele>97.0</ele><time>2026-04-08T11:48:50.001Z</time></trkpt><trkpt lat="45.448846188609544" lon="11.113033372935671"><ele>97.0</ele><time>2026-04-08T11:48:51Z</time></trkpt><trkpt lat="45.44872612056089" lon="11.112998059918093"><ele>97.0</ele><time>2026-04-08T11:48:52Z</time></trkpt><trkpt lat="45.44863333870922" lon="11.112975476144582"><ele>97.0</ele><time>2026-04-08T11:48:53Z</time></trkpt><trkpt lat="45.44855286307232" lon="11.112983434806038"><ele>97.0</ele><time>2026-04-08T11:48:54Z</time></trkpt><trkpt lat="45.448482859019805" lon="11.113007654120736"><ele>99.8</ele><time>2026-04-08T11:48:55Z</time></trkpt><trkpt lat="45.44842622885427" lon="11.113100937490206"><ele>102.6</ele><time>2026-04-08T11:48:56Z</time></trkpt><trkpt lat="45.448419369175305" lon="11.113261864541421"><ele>105.39999999999999</ele><time>2026-04-08T11:48:57Z</time></trkpt><trkpt lat="45.44845168830597" lon="11.113412960727887"><ele>108.19999999999999</ele><time>2026-04-08T11:48:58Z</time></trkpt><trkpt lat="45.44848174131785" lon="11.113565333669793"><ele>111.0</ele><time>2026-04-08T11:48:59Z</time></trkpt><trkpt lat="45.44850596999709" lon="11.113708751847453"><ele>112.6</ele><time>2026-04-08T11:49:00Z</time></trkpt><trkpt lat="45.44850925367343" lon="11.113857032785196"><ele>114.19999999999999</ele><time>2026-04-08T11:49:01Z</time></trkpt><trkpt lat="45.448525118749544" lon="11.1139916921057"><ele>115.80000000000001</ele><time>2026-04-08T11:49:02Z</time></trkpt><trkpt lat="45.448526793539116" lon="11.114085192771336"><ele>117.4</ele><time>2026-04-08T11:49:03Z</time></trkpt><trkpt lat="45.4484737343716" lon="11.114158640180309"><ele>119.0</ele><time>2026-04-08T11:49:05Z</time></trkpt><trkpt lat="45.448369619939996" lon="11.11399269161036"><ele>119.0</ele><time>2026-04-08T11:49:07Z</time></trkpt><trkpt lat="45.44831902227485" lon="11.113872277069879"><ele>119.0</ele><time>2026-04-08T11:49:08Z</time></trkpt><trkpt lat="45.44828447215283" lon="11.113730304847833"><ele>119.0</ele><time>2026-04-08T11:49:09Z</time></trkpt><trkpt lat="45.44822922456452" lon="11.113594014965921"><ele>119.0</ele><time>2026-04-08T11:49:10Z</time></trkpt><trkpt lat="45.44815831463341" lon="11.113442039093716"><ele>119.0</ele><time>2026-04-08T11:49:11Z</time></trkpt><trkpt lat="45.44807766015934" lon="11.113296019495898"><ele>117.0</ele><time>2026-04-08T11:49:12.001Z</time></trkpt><trkpt lat="45.44798713498542" lon="11.113138533451384"><ele>115.0</ele><time>2026-04-08T11:49:13.001Z</time></trkpt><trkpt lat="45.44787981886839" lon="11.112978604017519"><ele>113.0</ele><time>2026-04-08T11:49:14.001Z</time></trkpt><trkpt lat="45.44778270775024" lon="11.112815374873627"><ele>111.0</ele><time>2026-04-08T11:49:15.001Z</time></trkpt><trkpt lat="45.44768813881622" lon="11.11266934481805"><ele>113.25</ele><time>2026-04-08T11:49:16.001Z</time></trkpt><trkpt lat="45.44759105535729" lon="11.11252153334928"><ele>115.5</ele><time>2026-04-08T11:49:17.001Z</time></trkpt><trkpt lat="45.44748678883964" lon="11.11242165170434"><ele>117.75</ele><time>2026-04-08T11:49:18.001Z</time></trkpt><trkpt lat="45.44738712668064" lon="11.11234322942595"><ele>120.0</ele><time>2026-04-08T11:49:19.001Z</time></trkpt><trkpt lat="45.44728571529396" lon="11.112312808525925"><ele>120.0</ele><time>2026-04-08T11:49:20.001Z</time></trkpt><trkpt lat="45.44718004742273" lon="11.112310675820355"><ele>120.0</ele><time>2026-04-08T11:49:21.001Z</time></trkpt><trkpt lat="45.447078638875865" lon="11.112353137901302"><ele>120.0</ele><time>2026-04-08T11:49:22.001Z</time></trkpt><trkpt lat="45.44698279020223" lon="11.112429340205276"><ele>120.0</ele><time>2026-04-08T11:49:23.001Z</time></trkpt><trkpt lat="45.44692386050818" lon="11.112515151741214"><ele>120.0</ele><time>2026-04-08T11:49:24.001Z</time></trkpt><trkpt lat="45.44687144466393" lon="11.112570694601219"><ele>123.0</ele><time>2026-04-08T11:49:25.001Z</time></trkpt><trkpt lat="45.44671142636824" lon="11.11250626601818"><ele>126.0</ele><time>2026-04-08T11:49:27.001Z</time></trkpt><trkpt lat="45.44663419421073" lon="11.112487695820402"><ele>129.0</ele><time>2026-04-08T11:49:28.001Z</time></trkpt><trkpt lat="45.4465522255825" lon="11.112466954796128"><ele>132.0</ele><time>2026-04-08T11:49:29.001Z</time></trkpt><trkpt lat="45.44645463011531" lon="11.112443779712644"><ele>135.0</ele><time>2026-04-08T11:49:30.001Z</time></trkpt><trkpt lat="45.44635883500077" lon="11.112458285770947"><ele>134.83333333333334</ele><time>2026-04-08T11:49:31.001Z</time></trkpt><trkpt lat="45.44626455772731" lon="11.112467670001724"><ele>134.66666666666666</ele><time>2026-04-08T11:49:32.001Z</time></trkpt><trkpt lat="45.4461864659466" lon="11.112475650689285"><ele>134.5</ele><time>2026-04-08T11:49:33.001Z</time></trkpt><trkpt lat="45.44610669626926" lon="11.112494437388985"><ele>134.33333333333331</ele><time>2026-04-08T11:49:34.001Z</time></trkpt><trkpt lat="45.446016167741625" lon="11.112506687463675"><ele>134.16666666666666</ele><time>2026-04-08T11:49:35.001Z</time></trkpt><trkpt lat="45.44591817757708" lon="11.112501383928821"><ele>134.0</ele><time>2026-04-08T11:49:36.001Z</time></trkpt><trkpt lat="45.44583328717567" lon="11.112539423333319"><ele>134.0</ele><time>2026-04-08T11:49:37.001Z</time></trkpt><trkpt lat="45.445733673186616" lon="11.112553938720705"><ele>134.0</ele><time>2026-04-08T11:49:38.001Z</time></trkpt><trkpt lat="45.44564135304001" lon="11.112535271346852"><ele>134.0</ele><time>2026-04-08T11:49:39.001Z</time></trkpt><trkpt lat="45.44554744576663" lon="11.11262722246088"><ele>134.0</ele><time>2026-04-08T11:49:40.001Z</time></trkpt><trkpt lat="45.44544465277822" lon="11.112719963495518"><ele>134.0</ele><time>2026-04-08T11:49:41.001Z</time></trkpt><trkpt lat="45.44531666623774" lon="11.112446751603894"><ele>132.0</ele><time>2026-04-08T11:49:42.001Z</time></trkpt><trkpt lat="45.445167782138775" lon="11.1124634942968"><ele>130.0</ele><time>2026-04-08T11:49:43.001Z</time></trkpt><trkpt lat="45.44507831044053" lon="11.11249308890607"><ele>128.0</ele><time>2026-04-08T11:49:44.001Z</time></trkpt><trkpt lat="45.44500793025495" lon="11.112516368791795"><ele>126.0</ele><time>2026-04-08T11:49:45.001Z</time></trkpt><trkpt lat="45.444925325121766" lon="11.112543692361042"><ele>124.0</ele><time>2026-04-08T11:49:46.001Z</time></trkpt><trkpt lat="45.44483583735013" lon="11.112587206133448"><ele>124.0</ele><time>2026-04-08T11:49:47.001Z</time></trkpt><trkpt lat="45.44485860256951" lon="11.113188233026953"><ele>124.0</ele><time>2026-04-08T11:49:48.001Z</time></trkpt><trkpt lat="45.444793785080144" lon="11.113268177425034"><ele>124.0</ele><time>2026-04-08T11:49:49.001Z</time></trkpt><trkpt lat="45.444724144764905" lon="11.11335695160178"><ele>124.0</ele><time>2026-04-08T11:49:50.001Z</time></trkpt><trkpt lat="45.44465247216282" lon="11.113454973001593"><ele>124.0</ele><time>2026-04-08T11:49:51.001Z</time></trkpt><trkpt lat="45.44457241870715" lon="11.113558143700464"><ele>124.0</ele><time>2026-04-08T11:49:52.001Z</time></trkpt><trkpt lat="45.44449560252829" lon="11.113657089871271"><ele>124.0</ele><time>2026-04-08T11:49:53.001Z</time></trkpt><trkpt lat="45.44441879966378" lon="11.113756102713065"><ele>124.0</ele><time>2026-04-08T11:49:54.001Z</time></trkpt><trkpt lat="45.444334528838404" lon="11.113866565429628"><ele>124.0</ele><time>2026-04-08T11:49:55.001Z</time></trkpt><trkpt lat="45.444251384571146" lon="11.113974505054408"><ele>124.0</ele><time>2026-04-08T11:49:56.001Z</time></trkpt><trkpt lat="45.444166392942236" lon="11.114083730831888"><ele>124.0</ele><time>2026-04-08T11:49:57.001Z</time></trkpt><trkpt lat="45.44407709379211" lon="11.114181277648909"><ele>124.2</ele><time>2026-04-08T11:49:58.001Z</time></trkpt><trkpt lat="45.44398901504619" lon="11.114279126102236"><ele>124.4</ele><time>2026-04-08T11:49:59.001Z</time></trkpt><trkpt lat="45.443917546129285" lon="11.114365262659875"><ele>124.6</ele><time>2026-04-08T11:50:00.001Z</time></trkpt><trkpt lat="45.443843515459086" lon="11.114451599912606"><ele>124.8</ele><time>2026-04-08T11:50:01.001Z</time></trkpt><trkpt lat="45.443775585077894" lon="11.114530334520131"><ele>125.0</ele><time>2026-04-08T11:50:02.001Z</time></trkpt><trkpt lat="45.4437061195639" lon="11.114623936280804"><ele>125.0</ele><time>2026-04-08T11:50:03.001Z</time></trkpt><trkpt lat="45.44364187624807" lon="11.114704489401385"><ele>125.0</ele><time>2026-04-08T11:50:04.001Z</time></trkpt><trkpt lat="45.44356622325279" lon="11.114814151617983"><ele>125.0</ele><time>2026-04-08T11:50:05.001Z</time></trkpt><trkpt lat="45.44348495029162" lon="11.11491259049361"><ele>125.0</ele><time>2026-04-08T11:50:06.001Z</time></trkpt><trkpt lat="45.44341300852385" lon="11.115001234312762"><ele>125.0</ele><time>2026-04-08T11:50:07.001Z</time></trkpt><trkpt lat="45.44334595144634" lon="11.11509490300034"><ele>125.66666666666666</ele><time>2026-04-08T11:50:08.001Z</time></trkpt><trkpt lat="45.44326615237463" lon="11.115159368006735"><ele>126.33333333333333</ele><time>2026-04-08T11:50:10.001Z</time></trkpt><trkpt lat="45.44319084312178" lon="11.115201613505645"><ele>127.0</ele><time>2026-04-08T11:50:12.001Z</time></trkpt><trkpt lat="45.44315788871711" lon="11.11528460647411"><ele>127.66666666666666</ele><time>2026-04-08T11:50:13.001Z</time></trkpt><trkpt lat="45.443118149076334" lon="11.115383764410044"><ele>128.33333333333334</ele><time>2026-04-08T11:50:14.001Z</time></trkpt><trkpt lat="45.443102334858295" lon="11.11548807628102"><ele>129.0</ele><time>2026-04-08T11:50:15.001Z</time></trkpt><trkpt lat="45.443112447396004" lon="11.115588628133814"><ele>129.0</ele><time>2026-04-08T11:50:16.001Z</time></trkpt><trkpt lat="45.44312387492949" lon="11.115692975853165"><ele>129.0</ele><time>2026-04-08T11:50:17.001Z</time></trkpt><trkpt lat="45.44309719721443" lon="11.115780324662254"><ele>129.0</ele><time>2026-04-08T11:50:18.001Z</time></trkpt><trkpt lat="45.44304375338904" lon="11.115865743874211"><ele>129.0</ele><time>2026-04-08T11:50:19.001Z</time></trkpt><trkpt lat="45.442986460190276" lon="11.11594705234182"><ele>129.0</ele><time>2026-04-08T11:50:20.001Z</time></trkpt><trkpt lat="45.4429222191217" lon="11.116025018016224"><ele>129.0</ele><time>2026-04-08T11:50:21.001Z</time></trkpt><trkpt lat="45.442857801856086" lon="11.11611152400149"><ele>128.0</ele><time>2026-04-08T11:50:22.001Z</time></trkpt><trkpt lat="45.44279888866684" lon="11.116204883971085"><ele>127.0</ele><time>2026-04-08T11:50:23.001Z</time></trkpt><trkpt lat="45.44273671031295" lon="11.116295897948996"><ele>126.0</ele><time>2026-04-08T11:50:24.001Z</time></trkpt><trkpt lat="45.442682235689624" lon="11.116391299232143"><ele>125.0</ele><time>2026-04-08T11:50:25.001Z</time></trkpt><trkpt lat="45.44262822507357" lon="11.11645233138064"><ele>124.0</ele><time>2026-04-08T11:50:26.001Z</time></trkpt><trkpt lat="45.44257437637365" lon="11.116511030704219"><ele>123.0</ele><time>2026-04-08T11:50:27.001Z</time></trkpt><trkpt lat="45.44252139300461" lon="11.11659675542023"><ele>123.0</ele><time>2026-04-08T11:50:28.001Z</time></trkpt><trkpt lat="45.44248331277143" lon="11.116708908531248"><ele>123.00000000000001</ele><time>2026-04-08T11:50:29.001Z</time></trkpt><trkpt lat="45.442434878927216" lon="11.116841062304578"><ele>123.00000000000001</ele><time>2026-04-08T11:50:30.001Z</time></trkpt><trkpt lat="45.442378883467335" lon="11.116973947263842"><ele>123.0</ele><time>2026-04-08T11:50:30.999Z</time></trkpt><trkpt lat="45.442325258283546" lon="11.117097034823002"><ele>123.0</ele><time>2026-04-08T11:50:31.999Z</time></trkpt><trkpt lat="45.44228655936412" lon="11.1172166685669"><ele>123.0</ele><time>2026-04-08T11:50:32.999Z</time></trkpt><trkpt lat="45.44225942543299" lon="11.117318034332879"><ele>123.00000000000001</ele><time>2026-04-08T11:50:33.999Z</time></trkpt><trkpt lat="45.44217894499937" lon="11.117389690097239"><ele>123.00000000000001</ele><time>2026-04-08T11:50:35.999Z</time></trkpt><trkpt lat="45.44209886687352" lon="11.117367068595385"><ele>123.0</ele><time>2026-04-08T11:50:36.999Z</time></trkpt><trkpt lat="45.44197883942874" lon="11.117419655143932"><ele>123.0</ele><time>2026-04-08T11:50:38.999Z</time></trkpt><trkpt lat="45.44191338990947" lon="11.117517069111615"><ele>122.60000000000001</ele><time>2026-04-08T11:50:39.999Z</time></trkpt><trkpt lat="45.44184136609889" lon="11.117596092957536"><ele>122.20000000000002</ele><time>2026-04-08T11:50:40.999Z</time></trkpt><trkpt lat="45.44175848134471" lon="11.117665746727637"><ele>121.8</ele><time>2026-04-08T11:50:41.999Z</time></trkpt><trkpt lat="45.44166664408392" lon="11.117734426077762"><ele>121.4</ele><time>2026-04-08T11:50:42.999Z</time></trkpt><trkpt lat="45.44158213562168" lon="11.11780600796983"><ele>121.0</ele><time>2026-04-08T11:50:43.999Z</time></trkpt><trkpt lat="45.441495538232" lon="11.117882065899643"><ele>121.0</ele><time>2026-04-08T11:50:44.999Z</time></trkpt><trkpt lat="45.4414126531402" lon="11.117953435722056"><ele>121.0</ele><time>2026-04-08T11:50:45.999Z</time></trkpt><trkpt lat="45.44132108119648" lon="11.118038579140414"><ele>121.0</ele><time>2026-04-08T11:50:46.999Z</time></trkpt><trkpt lat="45.44122747918257" lon="11.118110165990807"><ele>121.0</ele><time>2026-04-08T11:50:47.999Z</time></trkpt><trkpt lat="45.44114845334022" lon="11.118175427384699"><ele>121.0</ele><time>2026-04-08T11:50:48.999Z</time></trkpt><trkpt lat="45.441064931018246" lon="11.118246387914455"><ele>121.33333333333334</ele><time>2026-04-08T11:50:49.999Z</time></trkpt><trkpt lat="45.44098643224114" lon="11.118326221082556"><ele>121.66666666666667</ele><time>2026-04-08T11:50:51Z</time></trkpt><trkpt lat="45.44091639117833" lon="11.118396126323267"><ele>122.0</ele><time>2026-04-08T11:50:52Z</time></trkpt><trkpt lat="45.44089307012228" lon="11.11848209351952"><ele>122.33333333333334</ele><time>2026-04-08T11:50:53Z</time></trkpt><trkpt lat="45.44088869070345" lon="11.118582506724358"><ele>122.66666666666667</ele><time>2026-04-08T11:50:54Z</time></trkpt><trkpt lat="45.440903017682245" lon="11.118695404521278"><ele>123.0</ele><time>2026-04-08T11:50:55Z</time></trkpt><trkpt lat="45.440916732887565" lon="11.118814645203642"><ele>123.0</ele><time>2026-04-08T11:50:56Z</time></trkpt><trkpt lat="45.44092754625268" lon="11.118943619257585"><ele>123.00000000000001</ele><time>2026-04-08T11:50:57Z</time></trkpt><trkpt lat="45.440936457400205" lon="11.119054573540996"><ele>123.00000000000001</ele><time>2026-04-08T11:50:58Z</time></trkpt><trkpt lat="45.440910630219996" lon="11.11920041766604"><ele>123.0</ele><time>2026-04-08T11:50:59Z</time></trkpt><trkpt lat="45.44091864713701" lon="11.119354440519905"><ele>123.0</ele><time>2026-04-08T11:51:00Z</time></trkpt><trkpt lat="45.44091391661402" lon="11.119458999512744"><ele>124.4</ele><time>2026-04-08T11:51:01Z</time></trkpt><trkpt lat="45.44089249674405" lon="11.119580157574397"><ele>125.80000000000001</ele><time>2026-04-08T11:51:02Z</time></trkpt><trkpt lat="45.440850558936326" lon="11.119696799375273"><ele>127.2</ele><time>2026-04-08T11:51:03Z</time></trkpt><trkpt lat="45.44068321832038" lon="11.119766579616071"><ele>128.6</ele><time>2026-04-08T11:51:04Z</time></trkpt><trkpt lat="45.44065889984582" lon="11.11989086780049"><ele>130.0</ele><time>2026-04-08T11:51:05Z</time></trkpt><trkpt lat="45.440631838361206" lon="11.120013434239162"><ele>128.83333333333334</ele><time>2026-04-08T11:51:06Z</time></trkpt><trkpt lat="45.44060553687346" lon="11.12010915179855"><ele>127.66666666666667</ele><time>2026-04-08T11:51:07Z</time></trkpt><trkpt lat="45.440565429276816" lon="11.120214628909817"><ele>126.5</ele><time>2026-04-08T11:51:08Z</time></trkpt><trkpt lat="45.44052188122154" lon="11.120281159995388"><ele>125.33333333333334</ele><time>2026-04-08T11:51:09Z</time></trkpt><trkpt lat="45.44046120271653" lon="11.120367856700407"><ele>124.16666666666667</ele><time>2026-04-08T11:51:10Z</time></trkpt><trkpt lat="45.440392325482904" lon="11.12044291137848"><ele>123.0</ele><time>2026-04-08T11:51:11Z</time></trkpt><trkpt lat="45.44032108961677" lon="11.120512522849431"><ele>123.0</ele><time>2026-04-08T11:51:12Z</time></trkpt><trkpt lat="45.44024853418272" lon="11.120598315027083"><ele>123.00000000000001</ele><time>2026-04-08T11:51:13Z</time></trkpt><trkpt lat="45.44017775971516" lon="11.120682717992734"><ele>123.00000000000001</ele><time>2026-04-08T11:51:14Z</time></trkpt><trkpt lat="45.44010009663029" lon="11.1207385474892"><ele>123.0</ele><time>2026-04-08T11:51:15Z</time></trkpt><trkpt lat="45.44004409509435" lon="11.120810849892688"><ele>123.0</ele><time>2026-04-08T11:51:16Z</time></trkpt><trkpt lat="45.44000786413002" lon="11.12097901803867"><ele>125.0</ele><time>2026-04-08T11:51:18Z</time></trkpt><trkpt lat="45.44001997911454" lon="11.1210829945624"><ele>127.00000000000001</ele><time>2026-04-08T11:51:19Z</time></trkpt><trkpt lat="45.44001011200142" lon="11.121213331280345"><ele>129.0</ele><time>2026-04-08T11:51:20Z</time></trkpt><trkpt lat="45.440042333039415" lon="11.121351642055064"><ele>131.0</ele><time>2026-04-08T11:51:21Z</time></trkpt><trkpt lat="45.44006097427061" lon="11.121509462969327"><ele>133.0</ele><time>2026-04-08T11:51:22Z</time></trkpt><trkpt lat="45.44007357512753" lon="11.121685747533373"><ele>133.0</ele><time>2026-04-08T11:51:23Z</time></trkpt><trkpt lat="45.44010391726192" lon="11.121863307612948"><ele>133.0</ele><time>2026-04-08T11:51:24Z</time></trkpt><trkpt lat="45.44012594368145" lon="11.122032148319652"><ele>133.0</ele><time>2026-04-08T11:51:25Z</time></trkpt><trkpt lat="45.44012925172564" lon="11.122196345454107"><ele>133.0</ele><time>2026-04-08T11:51:26.001Z</time></trkpt><trkpt lat="45.44015145195019" lon="11.122374530480183"><ele>132.0</ele><time>2026-04-08T11:51:27.001Z</time></trkpt><trkpt lat="45.440176372610864" lon="11.122566493259443"><ele>131.0</ele><time>2026-04-08T11:51:28.001Z</time></trkpt><trkpt lat="45.440217918931985" lon="11.122736079592645"><ele>130.0</ele><time>2026-04-08T11:51:29.001Z</time></trkpt><trkpt lat="45.440239079336045" lon="11.122903033693696"><ele>129.0</ele><time>2026-04-08T11:51:30.001Z</time></trkpt><trkpt lat="45.440285167110915" lon="11.123049526985566"><ele>129.0</ele><time>2026-04-08T11:51:31.001Z</time></trkpt><trkpt lat="45.44034863510077" lon="11.123156921811926"><ele>129.0</ele><time>2026-04-08T11:51:32.001Z</time></trkpt><trkpt lat="45.44041648985679" lon="11.123254436841991"><ele>129.0</ele><time>2026-04-08T11:51:33.001Z</time></trkpt><trkpt lat="45.440508355182786" lon="11.123343767462886"><ele>129.0</ele><time>2026-04-08T11:51:34.001Z</time></trkpt><trkpt lat="45.44059607400549" lon="11.123427635431685"><ele>129.0</ele><time>2026-04-08T11:51:35.001Z</time></trkpt><trkpt lat="45.44065662767316" lon="11.123503651633696"><ele>128.5</ele><time>2026-04-08T11:51:36.001Z</time></trkpt><trkpt lat="45.44071270188832" lon="11.123585035056866"><ele>128.0</ele><time>2026-04-08T11:51:37.001Z</time></trkpt><trkpt lat="45.44073102194079" lon="11.123676228506714"><ele>127.5</ele><time>2026-04-08T11:51:38.001Z</time></trkpt><trkpt lat="45.44067040551017" lon="11.123812211830622"><ele>127.0</ele><time>2026-04-08T11:51:40.001Z</time></trkpt><trkpt lat="45.44060043085912" lon="11.123837573867998"><ele>126.5</ele><time>2026-04-08T11:51:41.001Z</time></trkpt><trkpt lat="45.44051916478761" lon="11.123897667590505"><ele>126.0</ele><time>2026-04-08T11:51:42.001Z</time></trkpt><trkpt lat="45.440415359700374" lon="11.123942830891943"><ele>126.0</ele><time>2026-04-08T11:51:43.001Z</time></trkpt><trkpt lat="45.440311461145555" lon="11.12398348947048"><ele>126.0</ele><time>2026-04-08T11:51:44.001Z</time></trkpt><trkpt lat="45.44021345023667" lon="11.124060466374896"><ele>126.0</ele><time>2026-04-08T11:51:45.001Z</time></trkpt><trkpt lat="45.440134350650794" lon="11.124131852882135"><ele>126.0</ele><time>2026-04-08T11:51:46.001Z</time></trkpt><trkpt lat="45.440066238827896" lon="11.124200489257221"><ele>126.0</ele><time>2026-04-08T11:51:47.001Z</time></trkpt><trkpt lat="45.44001837078713" lon="11.12426232218988"><ele>127.4</ele><time>2026-04-08T11:51:48.001Z</time></trkpt><trkpt lat="45.439942573081844" lon="11.124392935776605"><ele>128.8</ele><time>2026-04-08T11:51:50.001Z</time></trkpt><trkpt lat="45.43987039470122" lon="11.124444329764094"><ele>130.20000000000002</ele><time>2026-04-08T11:51:51.001Z</time></trkpt><trkpt lat="45.43978898417572" lon="11.124465680542844"><ele>131.6</ele><time>2026-04-08T11:51:52.001Z</time></trkpt><trkpt lat="45.43970603056505" lon="11.124474062143223"><ele>133.0</ele><time>2026-04-08T11:51:53.001Z</time></trkpt><trkpt lat="45.43962127148011" lon="11.124479946006696"><ele>133.0</ele><time>2026-04-08T11:51:54.001Z</time></trkpt><trkpt lat="45.43953312479467" lon="11.12451613207124"><ele>133.0</ele><time>2026-04-08T11:51:55.001Z</time></trkpt><trkpt lat="45.43944101160848" lon="11.12455173330549"><ele>133.0</ele><time>2026-04-08T11:51:56.001Z</time></trkpt><trkpt lat="45.439338428724746" lon="11.124589676300921"><ele>133.0</ele><time>2026-04-08T11:51:57.001Z</time></trkpt><trkpt lat="45.43924942698646" lon="11.124633924987522"><ele>133.0</ele><time>2026-04-08T11:51:58.001Z</time></trkpt><trkpt lat="45.4391477712577" lon="11.124680328549646"><ele>133.0</ele><time>2026-04-08T11:51:59.001Z</time></trkpt><trkpt lat="45.43904453164231" lon="11.124690814607273"><ele>133.0</ele><time>2026-04-08T11:52:00.001Z</time></trkpt><trkpt lat="45.43893891059101" lon="11.124657005063007"><ele>133.0</ele><time>2026-04-08T11:52:01.001Z</time></trkpt><trkpt lat="45.43881982127071" lon="11.124596106728339"><ele>133.0</ele><time>2026-04-08T11:52:02.001Z</time></trkpt><trkpt lat="45.438686854766146" lon="11.124528096052106"><ele>132.33333333333334</ele><time>2026-04-08T11:52:03.001Z</time></trkpt><trkpt lat="45.43853587300718" lon="11.12449497546541"><ele>131.66666666666666</ele><time>2026-04-08T11:52:04.001Z</time></trkpt><trkpt lat="45.43837627591919" lon="11.124502953513332"><ele>131.0</ele><time>2026-04-08T11:52:05.001Z</time></trkpt><trkpt lat="45.4382342996414" lon="11.124533604409041"><ele>131.0</ele><time>2026-04-08T11:52:06.001Z</time></trkpt><trkpt lat="45.43809269925977" lon="11.124592693985623"><ele>131.0</ele><time>2026-04-08T11:52:07.001Z</time></trkpt><trkpt lat="45.43793886778234" lon="11.12463717936971"><ele>131.0</ele><time>2026-04-08T11:52:08.001Z</time></trkpt><trkpt lat="45.43779345725307" lon="11.12471501625434"><ele>130.0</ele><time>2026-04-08T11:52:09.001Z</time></trkpt><trkpt lat="45.43764429343984" lon="11.12475916774412"><ele>129.0</ele><time>2026-04-08T11:52:10.001Z</time></trkpt><trkpt lat="45.43749746888432" lon="11.12480067292639"><ele>128.0</ele><time>2026-04-08T11:52:11.001Z</time></trkpt><trkpt lat="45.43734433713897" lon="11.124830503292975"><ele>128.0</ele><time>2026-04-08T11:52:12.001Z</time></trkpt><trkpt lat="45.43718798209532" lon="11.124825177703727"><ele>128.0</ele><time>2026-04-08T11:52:13.001Z</time></trkpt><trkpt lat="45.43704356102783" lon="11.124794474208922"><ele>128.0</ele><time>2026-04-08T11:52:14.001Z</time></trkpt><trkpt lat="45.43690566968178" lon="11.1247060227815"><ele>129.5</ele><time>2026-04-08T11:52:15.001Z</time></trkpt><trkpt lat="45.43678580783898" lon="11.124642163918068"><ele>131.0</ele><time>2026-04-08T11:52:16.001Z</time></trkpt><trkpt lat="45.43667282109774" lon="11.124605467931234"><ele>132.5</ele><time>2026-04-08T11:52:17.001Z</time></trkpt><trkpt lat="45.43657948815974" lon="11.12454688432258"><ele>134.0</ele><time>2026-04-08T11:52:18.001Z</time></trkpt><trkpt lat="45.436469513295584" lon="11.1245018283486"><ele>134.0</ele><time>2026-04-08T11:52:19.002Z</time></trkpt><trkpt lat="45.43634230110795" lon="11.124438960794668"><ele>134.0</ele><time>2026-04-08T11:52:20.002Z</time></trkpt><trkpt lat="45.43620180179459" lon="11.124373867648474"><ele>134.0</ele><time>2026-04-08T11:52:21.002Z</time></trkpt><trkpt lat="45.436060136424956" lon="11.12432267003761"><ele>134.0</ele><time>2026-04-08T11:52:22.002Z</time></trkpt><trkpt lat="45.43590819484159" lon="11.124299034152711"><ele>135.75</ele><time>2026-04-08T11:52:23.002Z</time></trkpt><trkpt lat="45.43575085719391" lon="11.124295348404415"><ele>137.5</ele><time>2026-04-08T11:52:24.002Z</time></trkpt><trkpt lat="45.43560473707768" lon="11.124284254880829"><ele>139.25</ele><time>2026-04-08T11:52:25.002Z</time></trkpt><trkpt lat="45.43547103361155" lon="11.124242535101267"><ele>141.0</ele><time>2026-04-08T11:52:26.002Z</time></trkpt><trkpt lat="45.43533234383857" lon="11.124170713730456"><ele>140.25</ele><time>2026-04-08T11:52:27.002Z</time></trkpt><trkpt lat="45.43520455264234" lon="11.124079007770067"><ele>139.5</ele><time>2026-04-08T11:52:28.002Z</time></trkpt><trkpt lat="45.43509190540673" lon="11.123974296175696"><ele>138.75</ele><time>2026-04-08T11:52:29.002Z</time></trkpt><trkpt lat="45.434992182238126" lon="11.12388796554557"><ele>138.0</ele><time>2026-04-08T11:52:30.002Z</time></trkpt><trkpt lat="45.43491034918802" lon="11.123816364090338"><ele>138.0</ele><time>2026-04-08T11:52:31.002Z</time></trkpt><trkpt lat="45.434840567182256" lon="11.123750713429088"><ele>138.0</ele><time>2026-04-08T11:52:32.002Z</time></trkpt><trkpt lat="45.43477536504863" lon="11.123678237424214"><ele>138.0</ele><time>2026-04-08T11:52:33.002Z</time></trkpt><trkpt lat="45.43468872114395" lon="11.123592306130853"><ele>138.0</ele><time>2026-04-08T11:52:34.002Z</time></trkpt><trkpt lat="45.43459891936097" lon="11.12348150860113"><ele>138.0</ele><time>2026-04-08T11:52:35.002Z</time></trkpt><trkpt lat="45.4344881227843" lon="11.123398196828267"><ele>137.0</ele><time>2026-04-08T11:52:36.002Z</time></trkpt><trkpt lat="45.43438858630135" lon="11.123298196616012"><ele>136.0</ele><time>2026-04-08T11:52:37Z</time></trkpt><trkpt lat="45.43426750429731" lon="11.123231111566053"><ele>135.0</ele><time>2026-04-08T11:52:38Z</time></trkpt><trkpt lat="45.43413116398198" lon="11.123164055362691"><ele>134.0</ele><time>2026-04-08T11:52:39Z</time></trkpt><trkpt lat="45.433979485582704" lon="11.123100513635169"><ele>134.0</ele><time>2026-04-08T11:52:40Z</time></trkpt><trkpt lat="45.43383933705585" lon="11.123046814595828"><ele>134.0</ele><time>2026-04-08T11:52:41Z</time></trkpt><trkpt lat="45.43371040350527" lon="11.12299129960027"><ele>134.0</ele><time>2026-04-08T11:52:42Z</time></trkpt><trkpt lat="45.433594483977764" lon="11.122933479992545"><ele>134.0</ele><time>2026-04-08T11:52:43Z</time></trkpt><trkpt lat="45.433496129043654" lon="11.122873592217335"><ele>134.5</ele><time>2026-04-08T11:52:44Z</time></trkpt><trkpt lat="45.43341880457016" lon="11.122813320291847"><ele>135.0</ele><time>2026-04-08T11:52:45Z</time></trkpt><trkpt lat="45.43335686221642" lon="11.122757068377952"><ele>135.5</ele><time>2026-04-08T11:52:46Z</time></trkpt><trkpt lat="45.43327366066597" lon="11.12268349981636"><ele>136.0</ele><time>2026-04-08T11:52:48Z</time></trkpt><trkpt lat="45.43320351007042" lon="11.122642116796563"><ele>136.5</ele><time>2026-04-08T11:52:51Z</time></trkpt><trkpt lat="45.43316654044785" lon="11.122721309142566"><ele>137.0</ele><time>2026-04-08T11:52:53Z</time></trkpt><trkpt lat="45.43314742838875" lon="11.122900678586161"><ele>137.0</ele><time>2026-04-08T11:52:55Z</time></trkpt><trkpt lat="45.43311674798355" lon="11.122998136907496"><ele>137.0</ele><time>2026-04-08T11:52:56Z</time></trkpt><trkpt lat="45.433086922843664" lon="11.123108145746311"><ele>137.0</ele><time>2026-04-08T11:52:57Z</time></trkpt><trkpt lat="45.43303127134718" lon="11.123179671976608"><ele>137.0</ele><time>2026-04-08T11:52:59Z</time></trkpt><trkpt lat="45.432952942747995" lon="11.12308761464919"><ele>137.0</ele><time>2026-04-08T11:53:00Z</time></trkpt><trkpt lat="45.43286936432957" lon="11.123042737576169"><ele>137.0</ele><time>2026-04-08T11:53:01Z</time></trkpt><trkpt lat="45.432771308489855" lon="11.12299566607142"><ele>137.5</ele><time>2026-04-08T11:53:02Z</time></trkpt><trkpt lat="45.43266464504182" lon="11.122921482104797"><ele>138.0</ele><time>2026-04-08T11:53:03Z</time></trkpt><trkpt lat="45.432544281054604" lon="11.122848732078769"><ele>138.5</ele><time>2026-04-08T11:53:04Z</time></trkpt><trkpt lat="45.432414253265144" lon="11.122760715646203"><ele>139.0</ele><time>2026-04-08T11:53:05Z</time></trkpt><trkpt lat="45.4322759330906" lon="11.122648691623137"><ele>137.0</ele><time>2026-04-08T11:53:06Z</time></trkpt><trkpt lat="45.43213386603839" lon="11.12254869460434"><ele>135.0</ele><time>2026-04-08T11:53:07Z</time></trkpt><trkpt lat="45.431998213539934" lon="11.122474909952148"><ele>133.0</ele><time>2026-04-08T11:53:08Z</time></trkpt><trkpt lat="45.43186837603117" lon="11.122379295863057"><ele>132.0</ele><time>2026-04-08T11:53:09.001Z</time></trkpt><trkpt lat="45.43173761092206" lon="11.12230849486142"><ele>131.0</ele><time>2026-04-08T11:53:10.001Z</time></trkpt><trkpt lat="45.43160642295581" lon="11.122259283697062"><ele>130.0</ele><time>2026-04-08T11:53:11.001Z</time></trkpt><trkpt lat="45.43149657383499" lon="11.122180533111623"><ele>129.0</ele><time>2026-04-08T11:53:12.001Z</time></trkpt><trkpt lat="45.43139667614726" lon="11.12212890545825"><ele>129.0</ele><time>2026-04-08T11:53:13.001Z</time></trkpt><trkpt lat="45.43130881984717" lon="11.12211845986925"><ele>129.0</ele><time>2026-04-08T11:53:14.001Z</time></trkpt><trkpt lat="45.431216113084645" lon="11.12209919610428"><ele>129.0</ele><time>2026-04-08T11:53:15.001Z</time></trkpt><trkpt lat="45.431122015051145" lon="11.122093947308743"><ele>129.0</ele><time>2026-04-08T11:53:16.001Z</time></trkpt><trkpt lat="45.431044409947674" lon="11.122087230830834"><ele>129.0</ele><time>2026-04-08T11:53:17.001Z</time></trkpt><trkpt lat="45.43093787111614" lon="11.122078010255933"><ele>128.25</ele><time>2026-04-08T11:53:19.001Z</time></trkpt><trkpt lat="45.43090101614699" lon="11.122355950927021"><ele>127.5</ele><time>2026-04-08T11:53:21.001Z</time></trkpt><trkpt lat="45.43087123243988" lon="11.12249193480412"><ele>126.75</ele><time>2026-04-08T11:53:22.001Z</time></trkpt><trkpt lat="45.43082367017272" lon="11.122620817276307"><ele>126.0</ele><time>2026-04-08T11:53:23.001Z</time></trkpt><trkpt lat="45.4307992936929" lon="11.122726278797485"><ele>126.83333333333333</ele><time>2026-04-08T11:53:24.001Z</time></trkpt><trkpt lat="45.43077867020251" lon="11.122815503989795"><ele>127.66666666666666</ele><time>2026-04-08T11:53:25.001Z</time></trkpt><trkpt lat="45.43070437186642" lon="11.122805306668655"><ele>128.5</ele><time>2026-04-08T11:53:27.001Z</time></trkpt><trkpt lat="45.43061060568442" lon="11.12278009424513"><ele>129.33333333333331</ele><time>2026-04-08T11:53:28.001Z</time></trkpt><trkpt lat="45.43053052341959" lon="11.122781921596593"><ele>130.16666666666666</ele><time>2026-04-08T11:53:29.001Z</time></trkpt><trkpt lat="45.43041146391088" lon="11.122829258541062"><ele>131.0</ele><time>2026-04-08T11:53:31.001Z</time></trkpt><trkpt lat="45.430414730659486" lon="11.123018624178304"><ele>131.0</ele><time>2026-04-08T11:53:32.001Z</time></trkpt><trkpt lat="45.43036769070168" lon="11.123157100304207"><ele>131.0</ele><time>2026-04-08T11:53:33.001Z</time></trkpt><trkpt lat="45.43033912618148" lon="11.12328630060709"><ele>131.0</ele><time>2026-04-08T11:53:34.001Z</time></trkpt><trkpt lat="45.430314689769574" lon="11.12339682920662"><ele>131.0</ele><time>2026-04-08T11:53:35.001Z</time></trkpt><trkpt lat="45.43029035795629" lon="11.12349925077781"><ele>131.0</ele><time>2026-04-08T11:53:36.001Z</time></trkpt><trkpt lat="45.43021016852197" lon="11.123614130330559"><ele>131.0</ele><time>2026-04-08T11:53:38.001Z</time></trkpt><trkpt lat="45.43012384593304" lon="11.123584958871724"><ele>131.0</ele><time>2026-04-08T11:53:39.001Z</time></trkpt><trkpt lat="45.4300179210625" lon="11.123526184594935"><ele>131.0</ele><time>2026-04-08T11:53:40.001Z</time></trkpt><trkpt lat="45.42991065522109" lon="11.123479351250708"><ele>131.0</ele><time>2026-04-08T11:53:41.001Z</time></trkpt><trkpt lat="45.42983303198808" lon="11.12340300071901"><ele>131.0</ele><time>2026-04-08T11:53:42.001Z</time></trkpt><trkpt lat="45.429772004803276" lon="11.123377678731917"><ele>131.0</ele><time>2026-04-08T11:53:43.001Z</time></trkpt><trkpt lat="45.429801687931686" lon="11.123258894453294"><ele>131.0</ele><time>2026-04-08T11:53:45.001Z</time></trkpt><trkpt lat="45.42981734142091" lon="11.123167067357949"><ele>131.0</ele><time>2026-04-08T11:53:46.001Z</time></trkpt><trkpt lat="45.42983223019238" lon="11.123057556737955"><ele>131.0</ele><time>2026-04-08T11:54:12.002Z</time></trkpt><trkpt lat="45.43002881552484" lon="11.123393701278795"><ele>131.0</ele><time>2026-04-08T11:54:39.002Z</time></trkpt><trkpt lat="45.42996568718383" lon="11.123252283781609"><ele>131.0</ele><time>2026-04-08T11:54:40.002Z</time></trkpt><trkpt lat="45.429853439460054" lon="11.123076989098038"><ele>131.0</ele><time>2026-04-08T11:54:42.002Z</time></trkpt><trkpt lat="45.4296691035865" lon="11.122872360279828"><ele>131.0</ele><time>2026-04-08T11:54:55.001Z</time></trkpt><trkpt lat="45.429726614986635" lon="11.122785443643965"><ele>131.0</ele><time>2026-04-08T11:54:56.001Z</time></trkpt><trkpt lat="45.429569877123924" lon="11.123008515372566"><ele>131.0</ele><time>2026-04-08T11:54:59.001Z</time></trkpt><trkpt lat="45.429645604970524" lon="11.123017976672351"><ele>131.0</ele><time>2026-04-08T11:55:00.001Z</time></trkpt><trkpt lat="45.429742421079524" lon="11.123077835214533"><ele>131.0</ele><time>2026-04-08T11:55:07.001Z</time></trkpt><trkpt lat="45.42980862789938" lon="11.123178391081627"><ele>131.0</ele><time>2026-04-08T11:55:11.001Z</time></trkpt><trkpt lat="45.42986189691932" lon="11.122998422375314"><ele>131.0</ele><time>2026-04-08T11:57:10.022Z</time></trkpt><trkpt lat="45.42974140577507" lon="11.122992407611287"><ele>131.0</ele><time>2026-04-08T12:12:07Z</time></trkpt><trkpt lat="45.42983570835735" lon="11.122947021320469"><ele>131.0</ele><time>2026-04-08T12:12:30Z</time></trkpt><trkpt lat="45.42994254528897" lon="11.122870796601745"><ele>131.0</ele><time>2026-04-08T12:12:38.016Z</time></trkpt><trkpt lat="45.42986189691932" lon="11.122998422375314"><ele>131.0</ele><time>2026-04-08T12:12:54.328Z</time></trkpt><trkpt lat="45.42973033476374" lon="11.122947268763546"><ele>131.0</ele><time>2026-04-08T12:13:02Z</time></trkpt><trkpt lat="45.429747967049316" lon="11.122846746627854"><ele>131.0</ele><time>2026-04-08T12:13:08Z</time></trkpt><trkpt lat="45.42979786700868" lon="11.122785800853572"><ele>131.0</ele><time>2026-04-08T12:16:48Z</time></trkpt></trkseg></trk></gpx>